<?xml version='1.0' encoding='UTF-8'?><gpx version="1.1" creator="JPX - https://github.com/jenetics/jpx" xmlns="http://www.topografix.com/GPX/1/1"><trk><trkseg><trkpt lat="44.9185033" lon="8.2723583"><ele>131.0</ele><time>2026-04-12T09:39:10.74Z</time></trkpt><trkpt lat="44.918505" lon="8.2722583"><ele>131.0</ele><time>2026-04-12T09:39:12.001Z</time></trkpt><trkpt lat="44.91852" lon="8.2720817"><ele>131.0</ele><time>2026-04-12T09:39:14.992Z</time></trkpt><trkpt lat="44.918515" lon="8.272175"><ele>131.0</ele><time>2026-04-12T09:39:15.995Z</time></trkpt><trkpt lat="44.918535" lon="8.2723533"><ele>131.0</ele><time>2026-04-12T09:39:21.999Z</time></trkpt><trkpt lat="44.91849" lon="8.2724617"><ele>131.0</ele><time>2026-04-12T09:39:53.992Z</time></trkpt><trkpt lat="44.9184817" lon="8.2725717"><ele>131.0</ele><time>2026-04-12T09:39:56.993Z</time></trkpt><trkpt lat="44.9184783" lon="8.2726667"><ele>131.0</ele><time>2026-04-12T09:39:58.994Z</time></trkpt><trkpt lat="44.9184733" lon="8.2727617"><ele>131.0</ele><time>2026-04-12T09:40:00.997Z</time></trkpt><trkpt lat="44.91849" lon="8.27286"><ele>131.0</ele><time>2026-04-12T09:40:05.996Z</time></trkpt><trkpt lat="44.9185567" lon="8.2728733"><ele>131.0</ele><time>2026-04-12T09:40:07.996Z</time></trkpt><trkpt lat="44.9186233" lon="8.27287"><ele>131.0</ele><time>2026-04-12T09:40:08.996Z</time></trkpt><trkpt lat="44.9187" lon="8.2728617"><ele>131.0</ele><time>2026-04-12T09:40:09.995Z</time></trkpt><trkpt lat="44.918785" lon="8.27285"><ele>131.0</ele><time>2026-04-12T09:40:10.998Z</time></trkpt><trkpt lat="44.91887" lon="8.2728417"><ele>131.0</ele><time>2026-04-12T09:40:11.994Z</time></trkpt><trkpt lat="44.91896" lon="8.2728267"><ele>131.0</ele><time>2026-04-12T09:40:12.997Z</time></trkpt><trkpt lat="44.91905" lon="8.2728117"><ele>131.0</ele><time>2026-04-12T09:40:13.994Z</time></trkpt><trkpt lat="44.9191467" lon="8.2728"><ele>131.0</ele><time>2026-04-12T09:40:14.993Z</time></trkpt><trkpt lat="44.9192417" lon="8.2727917"><ele>131.2</ele><time>2026-04-12T09:40:15.992Z</time></trkpt><trkpt lat="44.91934" lon="8.272775"><ele>131.39999999999998</ele><time>2026-04-12T09:40:16.994Z</time></trkpt><trkpt lat="44.9194383" lon="8.2727733"><ele>131.6</ele><time>2026-04-12T09:40:17.993Z</time></trkpt><trkpt lat="44.9195333" lon="8.272775"><ele>131.79999999999998</ele><time>2026-04-12T09:40:19.001Z</time></trkpt><trkpt lat="44.9196267" lon="8.2727783"><ele>132.0</ele><time>2026-04-12T09:40:19.997Z</time></trkpt><trkpt lat="44.91972" lon="8.2727767"><ele>132.0</ele><time>2026-04-12T09:40:20.993Z</time></trkpt><trkpt lat="44.919815" lon="8.2727833"><ele>132.0</ele><time>2026-04-12T09:40:21.996Z</time></trkpt><trkpt lat="44.91991" lon="8.2727917"><ele>132.0</ele><time>2026-04-12T09:40:22.995Z</time></trkpt><trkpt lat="44.9200033" lon="8.2728"><ele>132.0</ele><time>2026-04-12T09:40:23.994Z</time></trkpt><trkpt lat="44.9201" lon="8.2728117"><ele>132.0</ele><time>2026-04-12T09:40:24.995Z</time></trkpt><trkpt lat="44.9202033" lon="8.2728167"><ele>131.4</ele><time>2026-04-12T09:40:25.999Z</time></trkpt><trkpt lat="44.92031" lon="8.2728167"><ele>130.79999999999998</ele><time>2026-04-12T09:40:26.996Z</time></trkpt><trkpt lat="44.9204167" lon="8.2728133"><ele>130.2</ele><time>2026-04-12T09:40:27.997Z</time></trkpt><trkpt lat="44.9205267" lon="8.2727967"><ele>129.6</ele><time>2026-04-12T09:40:28.993Z</time></trkpt><trkpt lat="44.9206433" lon="8.272775"><ele>129.0</ele><time>2026-04-12T09:40:29.995Z</time></trkpt><trkpt lat="44.92076" lon="8.2727483"><ele>129.0</ele><time>2026-04-12T09:40:31Z</time></trkpt><trkpt lat="44.9208783" lon="8.272715"><ele>129.0</ele><time>2026-04-12T09:40:31.994Z</time></trkpt><trkpt lat="44.921" lon="8.2726633"><ele>129.0</ele><time>2026-04-12T09:40:32.994Z</time></trkpt><trkpt lat="44.9211167" lon="8.2726133"><ele>129.0</ele><time>2026-04-12T09:40:33.995Z</time></trkpt><trkpt lat="44.9212367" lon="8.2725583"><ele>128.5</ele><time>2026-04-12T09:40:34.996Z</time></trkpt><trkpt lat="44.9213533" lon="8.2725167"><ele>128.0</ele><time>2026-04-12T09:40:35.997Z</time></trkpt><trkpt lat="44.9214733" lon="8.2724733"><ele>127.5</ele><time>2026-04-12T09:40:36.995Z</time></trkpt><trkpt lat="44.9215917" lon="8.272435"><ele>127.0</ele><time>2026-04-12T09:40:37.995Z</time></trkpt><trkpt lat="44.9217117" lon="8.2723933"><ele>127.25</ele><time>2026-04-12T09:40:38.993Z</time></trkpt><trkpt lat="44.9218333" lon="8.2723517"><ele>127.5</ele><time>2026-04-12T09:40:39.993Z</time></trkpt><trkpt lat="44.9219517" lon="8.2723133"><ele>127.75</ele><time>2026-04-12T09:40:40.998Z</time></trkpt><trkpt lat="44.9220667" lon="8.27228"><ele>128.0</ele><time>2026-04-12T09:40:41.994Z</time></trkpt><trkpt lat="44.9221833" lon="8.2722433"><ele>129.0</ele><time>2026-04-12T09:40:42.998Z</time></trkpt><trkpt lat="44.9222983" lon="8.2722033"><ele>130.0</ele><time>2026-04-12T09:40:43.997Z</time></trkpt><trkpt lat="44.9224117" lon="8.2721667"><ele>131.0</ele><time>2026-04-12T09:40:44.997Z</time></trkpt><trkpt lat="44.9225233" lon="8.2721333"><ele>132.0</ele><time>2026-04-12T09:40:45.992Z</time></trkpt><trkpt lat="44.9226367" lon="8.2721"><ele>132.0</ele><time>2026-04-12T09:40:46.995Z</time></trkpt><trkpt lat="44.9227483" lon="8.2720617"><ele>132.0</ele><time>2026-04-12T09:40:47.996Z</time></trkpt><trkpt lat="44.92286" lon="8.2720233"><ele>132.0</ele><time>2026-04-12T09:40:48.998Z</time></trkpt><trkpt lat="44.9229733" lon="8.2719883"><ele>132.0</ele><time>2026-04-12T09:40:49.994Z</time></trkpt><trkpt lat="44.9230883" lon="8.27195"><ele>132.0</ele><time>2026-04-12T09:40:50.996Z</time></trkpt><trkpt lat="44.9232067" lon="8.2719067"><ele>132.0</ele><time>2026-04-12T09:40:51.999Z</time></trkpt><trkpt lat="44.923325" lon="8.2718633"><ele>132.0</ele><time>2026-04-12T09:40:52.998Z</time></trkpt><trkpt lat="44.9234433" lon="8.2718183"><ele>132.0</ele><time>2026-04-12T09:40:53.999Z</time></trkpt><trkpt lat="44.923565" lon="8.2717767"><ele>131.25</ele><time>2026-04-12T09:40:55Z</time></trkpt><trkpt lat="44.9236867" lon="8.2717333"><ele>130.5</ele><time>2026-04-12T09:40:56Z</time></trkpt><trkpt lat="44.9238033" lon="8.271695"><ele>129.75</ele><time>2026-04-12T09:40:56.998Z</time></trkpt><trkpt lat="44.9239167" lon="8.2716667"><ele>129.0</ele><time>2026-04-12T09:40:57.996Z</time></trkpt><trkpt lat="44.9240317" lon="8.2716483"><ele>129.0</ele><time>2026-04-12T09:40:58.995Z</time></trkpt><trkpt lat="44.9241467" lon="8.2716433"><ele>129.0</ele><time>2026-04-12T09:40:59.997Z</time></trkpt><trkpt lat="44.9242617" lon="8.27166"><ele>129.0</ele><time>2026-04-12T09:41:00.997Z</time></trkpt><trkpt lat="44.924375" lon="8.2716883"><ele>129.0</ele><time>2026-04-12T09:41:01.995Z</time></trkpt><trkpt lat="44.9244883" lon="8.2717317"><ele>129.5</ele><time>2026-04-12T09:41:02.991Z</time></trkpt><trkpt lat="44.9246067" lon="8.2717817"><ele>130.0</ele><time>2026-04-12T09:41:03.991Z</time></trkpt><trkpt lat="44.9247233" lon="8.2718333"><ele>130.5</ele><time>2026-04-12T09:41:04.993Z</time></trkpt><trkpt lat="44.9248383" lon="8.2718833"><ele>131.0</ele><time>2026-04-12T09:41:05.994Z</time></trkpt><trkpt lat="44.92495" lon="8.2719317"><ele>131.0</ele><time>2026-04-12T09:41:06.993Z</time></trkpt><trkpt lat="44.9250567" lon="8.271975"><ele>131.0</ele><time>2026-04-12T09:41:07.995Z</time></trkpt><trkpt lat="44.9251517" lon="8.2720117"><ele>131.0</ele><time>2026-04-12T09:41:08.997Z</time></trkpt><trkpt lat="44.9252333" lon="8.272045"><ele>131.0</ele><time>2026-04-12T09:41:09.993Z</time></trkpt><trkpt lat="44.925305" lon="8.2720717"><ele>131.0</ele><time>2026-04-12T09:41:10.994Z</time></trkpt><trkpt lat="44.9253667" lon="8.272095"><ele>131.0</ele><time>2026-04-12T09:41:11.998Z</time></trkpt><trkpt lat="44.925455" lon="8.272125"><ele>131.16666666666666</ele><time>2026-04-12T09:41:13.995Z</time></trkpt><trkpt lat="44.9255317" lon="8.2721567"><ele>131.33333333333331</ele><time>2026-04-12T09:41:15.995Z</time></trkpt><trkpt lat="44.9255967" lon="8.2722383"><ele>131.5</ele><time>2026-04-12T09:41:17.999Z</time></trkpt><trkpt lat="44.925605" lon="8.2723283"><ele>131.66666666666666</ele><time>2026-04-12T09:41:19Z</time></trkpt><trkpt lat="44.9256" lon="8.2724417"><ele>131.83333333333334</ele><time>2026-04-12T09:41:19.995Z</time></trkpt><trkpt lat="44.92558" lon="8.2725817"><ele>132.0</ele><time>2026-04-12T09:41:20.999Z</time></trkpt><trkpt lat="44.9255633" lon="8.2727217"><ele>132.0</ele><time>2026-04-12T09:41:21.998Z</time></trkpt><trkpt lat="44.9255483" lon="8.2728633"><ele>132.0</ele><time>2026-04-12T09:41:22.997Z</time></trkpt><trkpt lat="44.9255333" lon="8.272995"><ele>132.0</ele><time>2026-04-12T09:41:23.998Z</time></trkpt><trkpt lat="44.92552" lon="8.2731133"><ele>132.0</ele><time>2026-04-12T09:41:24.999Z</time></trkpt><trkpt lat="44.9255083" lon="8.2732133"><ele>132.0</ele><time>2026-04-12T09:41:25.995Z</time></trkpt><trkpt lat="44.9254867" lon="8.2733517"><ele>131.6</ele><time>2026-04-12T09:41:27.999Z</time></trkpt><trkpt lat="44.9255083" lon="8.27344"><ele>131.2</ele><time>2026-04-12T09:41:29.999Z</time></trkpt><trkpt lat="44.92559" lon="8.273525"><ele>130.8</ele><time>2026-04-12T09:41:31.996Z</time></trkpt><trkpt lat="44.925685" lon="8.2735417"><ele>130.4</ele><time>2026-04-12T09:41:32.994Z</time></trkpt><trkpt lat="44.925785" lon="8.27357"><ele>130.0</ele><time>2026-04-12T09:41:33.995Z</time></trkpt><trkpt lat="44.925895" lon="8.2736083"><ele>130.0</ele><time>2026-04-12T09:41:34.994Z</time></trkpt><trkpt lat="44.9260167" lon="8.2736433"><ele>130.0</ele><time>2026-04-12T09:41:35.995Z</time></trkpt><trkpt lat="44.926155" lon="8.2736867"><ele>130.0</ele><time>2026-04-12T09:41:36.999Z</time></trkpt><trkpt lat="44.9263017" lon="8.2737267"><ele>130.0</ele><time>2026-04-12T09:41:37.996Z</time></trkpt><trkpt lat="44.9264533" lon="8.2737717"><ele>130.0</ele><time>2026-04-12T09:41:38.996Z</time></trkpt><trkpt lat="44.926615" lon="8.2738133"><ele>130.0</ele><time>2026-04-12T09:41:39.998Z</time></trkpt><trkpt lat="44.92678" lon="8.27385"><ele>130.0</ele><time>2026-04-12T09:41:40.992Z</time></trkpt><trkpt lat="44.9269383" lon="8.2738833"><ele>131.0</ele><time>2026-04-12T09:41:42Z</time></trkpt><trkpt lat="44.9271033" lon="8.2739117"><ele>132.0</ele><time>2026-04-12T09:41:42.997Z</time></trkpt><trkpt lat="44.9272733" lon="8.27394"><ele>133.0</ele><time>2026-04-12T09:41:43.995Z</time></trkpt><trkpt lat="44.9274333" lon="8.2739583"><ele>135.0</ele><time>2026-04-12T09:41:44.995Z</time></trkpt><trkpt lat="44.92759" lon="8.2739717"><ele>137.0</ele><time>2026-04-12T09:41:45.994Z</time></trkpt><trkpt lat="44.92774" lon="8.27399"><ele>139.0</ele><time>2026-04-12T09:41:46.997Z</time></trkpt><trkpt lat="44.9278917" lon="8.27401"><ele>139.0</ele><time>2026-04-12T09:41:47.994Z</time></trkpt><trkpt lat="44.9280417" lon="8.2740467"><ele>139.0</ele><time>2026-04-12T09:41:48.994Z</time></trkpt><trkpt lat="44.92818" lon="8.2741"><ele>139.0</ele><time>2026-04-12T09:41:49.995Z</time></trkpt><trkpt lat="44.9283117" lon="8.2741683"><ele>139.0</ele><time>2026-04-12T09:41:50.994Z</time></trkpt><trkpt lat="44.928435" lon="8.2742367"><ele>137.25</ele><time>2026-04-12T09:41:51.997Z</time></trkpt><trkpt lat="44.92855" lon="8.274305"><ele>135.5</ele><time>2026-04-12T09:41:53.002Z</time></trkpt><trkpt lat="44.9286717" lon="8.2743767"><ele>133.75</ele><time>2026-04-12T09:41:53.994Z</time></trkpt><trkpt lat="44.9288" lon="8.274455"><ele>132.0</ele><time>2026-04-12T09:41:54.994Z</time></trkpt><trkpt lat="44.9289267" lon="8.2745367"><ele>132.0</ele><time>2026-04-12T09:41:55.996Z</time></trkpt><trkpt lat="44.929045" lon="8.2746117"><ele>132.0</ele><time>2026-04-12T09:41:56.996Z</time></trkpt><trkpt lat="44.92917" lon="8.2746917"><ele>132.0</ele><time>2026-04-12T09:41:58.003Z</time></trkpt><trkpt lat="44.9292917" lon="8.2747433"><ele>132.0</ele><time>2026-04-12T09:41:58.996Z</time></trkpt><trkpt lat="44.9294167" lon="8.27477"><ele>132.25</ele><time>2026-04-12T09:41:59.996Z</time></trkpt><trkpt lat="44.92955" lon="8.2747717"><ele>132.5</ele><time>2026-04-12T09:42:00.997Z</time></trkpt><trkpt lat="44.9296833" lon="8.274755"><ele>132.75</ele><time>2026-04-12T09:42:01.991Z</time></trkpt><trkpt lat="44.9298017" lon="8.2747133"><ele>133.0</ele><time>2026-04-12T09:42:02.997Z</time></trkpt><trkpt lat="44.92992" lon="8.2746733"><ele>133.0</ele><time>2026-04-12T09:42:03.996Z</time></trkpt><trkpt lat="44.93003" lon="8.2746167"><ele>133.0</ele><time>2026-04-12T09:42:04.995Z</time></trkpt><trkpt lat="44.9301483" lon="8.27458"><ele>133.0</ele><time>2026-04-12T09:42:05.996Z</time></trkpt><trkpt lat="44.9302733" lon="8.2745633"><ele>133.0</ele><time>2026-04-12T09:42:06.995Z</time></trkpt><trkpt lat="44.9304067" lon="8.2745733"><ele>133.0</ele><time>2026-04-12T09:42:08Z</time></trkpt><trkpt lat="44.930545" lon="8.2745933"><ele>133.0</ele><time>2026-04-12T09:42:08.996Z</time></trkpt><trkpt lat="44.9306917" lon="8.274615"><ele>133.0</ele><time>2026-04-12T09:42:09.996Z</time></trkpt><trkpt lat="44.9308417" lon="8.2746433"><ele>133.0</ele><time>2026-04-12T09:42:10.997Z</time></trkpt><trkpt lat="44.9309883" lon="8.2746667"><ele>132.75</ele><time>2026-04-12T09:42:11.995Z</time></trkpt><trkpt lat="44.9311367" lon="8.2746917"><ele>132.5</ele><time>2026-04-12T09:42:12.998Z</time></trkpt><trkpt lat="44.9312883" lon="8.2747033"><ele>132.25</ele><time>2026-04-12T09:42:13.993Z</time></trkpt><trkpt lat="44.9314333" lon="8.274695"><ele>132.0</ele><time>2026-04-12T09:42:14.996Z</time></trkpt><trkpt lat="44.931575" lon="8.27467"><ele>132.0</ele><time>2026-04-12T09:42:15.994Z</time></trkpt><trkpt lat="44.9317233" lon="8.2746483"><ele>132.0</ele><time>2026-04-12T09:42:16.994Z</time></trkpt><trkpt lat="44.9318617" lon="8.2746233"><ele>132.0</ele><time>2026-04-12T09:42:17.999Z</time></trkpt><trkpt lat="44.932" lon="8.2746233"><ele>132.0</ele><time>2026-04-12T09:42:18.995Z</time></trkpt><trkpt lat="44.93214" lon="8.2746467"><ele>132.75</ele><time>2026-04-12T09:42:19.998Z</time></trkpt><trkpt lat="44.9322717" lon="8.2747"><ele>133.5</ele><time>2026-04-12T09:42:20.994Z</time></trkpt><trkpt lat="44.9324083" lon="8.274765"><ele>134.25</ele><time>2026-04-12T09:42:22Z</time></trkpt><trkpt lat="44.932545" lon="8.2748283"><ele>135.0</ele><time>2026-04-12T09:42:22.993Z</time></trkpt><trkpt lat="44.9326833" lon="8.2748917"><ele>136.0</ele><time>2026-04-12T09:42:23.995Z</time></trkpt><trkpt lat="44.9328283" lon="8.2749617"><ele>137.0</ele><time>2026-04-12T09:42:25Z</time></trkpt><trkpt lat="44.9329783" lon="8.2750333"><ele>138.0</ele><time>2026-04-12T09:42:25.994Z</time></trkpt><trkpt lat="44.9331217" lon="8.2750967"><ele>138.0</ele><time>2026-04-12T09:42:26.997Z</time></trkpt><trkpt lat="44.93326" lon="8.27517"><ele>138.0</ele><time>2026-04-12T09:42:27.994Z</time></trkpt><trkpt lat="44.9334" lon="8.275265"><ele>138.0</ele><time>2026-04-12T09:42:28.995Z</time></trkpt><trkpt lat="44.933535" lon="8.2753683"><ele>138.66666666666666</ele><time>2026-04-12T09:42:29.994Z</time></trkpt><trkpt lat="44.9336667" lon="8.2755017"><ele>139.33333333333331</ele><time>2026-04-12T09:42:30.995Z</time></trkpt><trkpt lat="44.93379" lon="8.2756483"><ele>140.0</ele><time>2026-04-12T09:42:31.997Z</time></trkpt><trkpt lat="44.9338867" lon="8.2758283"><ele>140.0</ele><time>2026-04-12T09:42:32.995Z</time></trkpt><trkpt lat="44.9339667" lon="8.276025"><ele>140.0</ele><time>2026-04-12T09:42:33.995Z</time></trkpt><trkpt lat="44.934045" lon="8.2762183"><ele>140.0</ele><time>2026-04-12T09:42:34.998Z</time></trkpt><trkpt lat="44.9341217" lon="8.276415"><ele>138.33333333333331</ele><time>2026-04-12T09:42:35.997Z</time></trkpt><trkpt lat="44.9342083" lon="8.2765967"><ele>136.66666666666666</ele><time>2026-04-12T09:42:36.994Z</time></trkpt><trkpt lat="44.9343083" lon="8.2767767"><ele>135.0</ele><time>2026-04-12T09:42:38Z</time></trkpt><trkpt lat="44.934415" lon="8.2769483"><ele>135.0</ele><time>2026-04-12T09:42:38.998Z</time></trkpt><trkpt lat="44.9345383" lon="8.27712"><ele>135.0</ele><time>2026-04-12T09:42:40Z</time></trkpt><trkpt lat="44.9346583" lon="8.277295"><ele>135.0</ele><time>2026-04-12T09:42:41.001Z</time></trkpt><trkpt lat="44.9348067" lon="8.27745"><ele>135.66666666666666</ele><time>2026-04-12T09:42:41.997Z</time></trkpt><trkpt lat="44.93495" lon="8.2776083"><ele>136.33333333333331</ele><time>2026-04-12T09:42:42.993Z</time></trkpt><trkpt lat="44.9351083" lon="8.2777483"><ele>137.0</ele><time>2026-04-12T09:42:43.993Z</time></trkpt><trkpt lat="44.9352533" lon="8.2778867"><ele>137.0</ele><time>2026-04-12T09:42:44.998Z</time></trkpt><trkpt lat="44.9353917" lon="8.2780183"><ele>137.0</ele><time>2026-04-12T09:42:45.999Z</time></trkpt><trkpt lat="44.9355317" lon="8.27814"><ele>137.0</ele><time>2026-04-12T09:42:46.995Z</time></trkpt><trkpt lat="44.93568" lon="8.278245"><ele>138.33333333333331</ele><time>2026-04-12T09:42:47.995Z</time></trkpt><trkpt lat="44.93582" lon="8.278345"><ele>139.66666666666666</ele><time>2026-04-12T09:42:49Z</time></trkpt><trkpt lat="44.9359667" lon="8.2784367"><ele>141.0</ele><time>2026-04-12T09:42:49.995Z</time></trkpt><trkpt lat="44.9361117" lon="8.27854"><ele>141.0</ele><time>2026-04-12T09:42:50.999Z</time></trkpt><trkpt lat="44.9362633" lon="8.278675"><ele>141.0</ele><time>2026-04-12T09:42:51.997Z</time></trkpt><trkpt lat="44.9364017" lon="8.278825"><ele>141.0</ele><time>2026-04-12T09:42:52.996Z</time></trkpt><trkpt lat="44.93653" lon="8.2789933"><ele>140.0</ele><time>2026-04-12T09:42:53.997Z</time></trkpt><trkpt lat="44.93665" lon="8.2791633"><ele>139.0</ele><time>2026-04-12T09:42:54.993Z</time></trkpt><trkpt lat="44.9367783" lon="8.2793233"><ele>138.0</ele><time>2026-04-12T09:42:55.996Z</time></trkpt><trkpt lat="44.9369183" lon="8.27947"><ele>138.0</ele><time>2026-04-12T09:42:56.993Z</time></trkpt><trkpt lat="44.9370717" lon="8.2796033"><ele>138.0</ele><time>2026-04-12T09:42:58.001Z</time></trkpt><trkpt lat="44.937225" lon="8.2797283"><ele>138.0</ele><time>2026-04-12T09:42:58.994Z</time></trkpt><trkpt lat="44.9373867" lon="8.2798567"><ele>139.0</ele><time>2026-04-12T09:42:59.999Z</time></trkpt><trkpt lat="44.9375467" lon="8.2799883"><ele>140.0</ele><time>2026-04-12T09:43:00.999Z</time></trkpt><trkpt lat="44.9377083" lon="8.2801167"><ele>141.0</ele><time>2026-04-12T09:43:01.997Z</time></trkpt><trkpt lat="44.9378783" lon="8.280225"><ele>141.0</ele><time>2026-04-12T09:43:02.997Z</time></trkpt><trkpt lat="44.9380567" lon="8.2803233"><ele>141.0</ele><time>2026-04-12T09:43:04Z</time></trkpt><trkpt lat="44.938235" lon="8.2804117"><ele>141.0</ele><time>2026-04-12T09:43:04.994Z</time></trkpt><trkpt lat="44.9384167" lon="8.28049"><ele>141.0</ele><time>2026-04-12T09:43:06Z</time></trkpt><trkpt lat="44.9386017" lon="8.2805417"><ele>141.0</ele><time>2026-04-12T09:43:06.998Z</time></trkpt><trkpt lat="44.93879" lon="8.280575"><ele>141.0</ele><time>2026-04-12T09:43:07.996Z</time></trkpt><trkpt lat="44.9389817" lon="8.280595"><ele>141.66666666666666</ele><time>2026-04-12T09:43:08.996Z</time></trkpt><trkpt lat="44.939175" lon="8.2806233"><ele>142.33333333333331</ele><time>2026-04-12T09:43:09.994Z</time></trkpt><trkpt lat="44.9393633" lon="8.28066"><ele>143.0</ele><time>2026-04-12T09:43:10.994Z</time></trkpt><trkpt lat="44.9395517" lon="8.2807167"><ele>143.0</ele><time>2026-04-12T09:43:11.994Z</time></trkpt><trkpt lat="44.939735" lon="8.2807833"><ele>143.0</ele><time>2026-04-12T09:43:12.993Z</time></trkpt><trkpt lat="44.93992" lon="8.2808617"><ele>143.0</ele><time>2026-04-12T09:43:13.999Z</time></trkpt><trkpt lat="44.9401067" lon="8.2809433"><ele>143.0</ele><time>2026-04-12T09:43:14.997Z</time></trkpt><trkpt lat="44.9402933" lon="8.2810233"><ele>143.0</ele><time>2026-04-12T09:43:15.998Z</time></trkpt><trkpt lat="44.9404733" lon="8.2811033"><ele>143.0</ele><time>2026-04-12T09:43:16.993Z</time></trkpt><trkpt lat="44.9406467" lon="8.2811717"><ele>143.0</ele><time>2026-04-12T09:43:17.993Z</time></trkpt><trkpt lat="44.9408233" lon="8.2812217"><ele>143.0</ele><time>2026-04-12T09:43:18.995Z</time></trkpt><trkpt lat="44.9410083" lon="8.2812667"><ele>143.0</ele><time>2026-04-12T09:43:19.996Z</time></trkpt><trkpt lat="44.941195" lon="8.2813017"><ele>142.66666666666666</ele><time>2026-04-12T09:43:20.997Z</time></trkpt><trkpt lat="44.94138" lon="8.28133"><ele>142.33333333333334</ele><time>2026-04-12T09:43:21.994Z</time></trkpt><trkpt lat="44.9415617" lon="8.28136"><ele>142.0</ele><time>2026-04-12T09:43:23Z</time></trkpt><trkpt lat="44.9417467" lon="8.281395"><ele>142.0</ele><time>2026-04-12T09:43:23.999Z</time></trkpt><trkpt lat="44.9419283" lon="8.2814267"><ele>142.0</ele><time>2026-04-12T09:43:25Z</time></trkpt><trkpt lat="44.9421067" lon="8.281455"><ele>142.0</ele><time>2026-04-12T09:43:26Z</time></trkpt><trkpt lat="44.942285" lon="8.2814833"><ele>143.0</ele><time>2026-04-12T09:43:26.997Z</time></trkpt><trkpt lat="44.942465" lon="8.2815117"><ele>144.0</ele><time>2026-04-12T09:43:27.997Z</time></trkpt><trkpt lat="44.9426383" lon="8.281545"><ele>145.0</ele><time>2026-04-12T09:43:28.999Z</time></trkpt><trkpt lat="44.9428233" lon="8.2815967"><ele>145.0</ele><time>2026-04-12T09:43:30.001Z</time></trkpt><trkpt lat="44.942995" lon="8.2816717"><ele>145.0</ele><time>2026-04-12T09:43:30.993Z</time></trkpt><trkpt lat="44.943165" lon="8.2817583"><ele>145.0</ele><time>2026-04-12T09:43:31.999Z</time></trkpt><trkpt lat="44.9433317" lon="8.2818467"><ele>145.0</ele><time>2026-04-12T09:43:32.993Z</time></trkpt><trkpt lat="44.9435" lon="8.281935"><ele>145.0</ele><time>2026-04-12T09:43:33.997Z</time></trkpt><trkpt lat="44.9436667" lon="8.2820267"><ele>145.0</ele><time>2026-04-12T09:43:34.993Z</time></trkpt><trkpt lat="44.94383" lon="8.2821167"><ele>145.0</ele><time>2026-04-12T09:43:35.996Z</time></trkpt><trkpt lat="44.9439933" lon="8.28221"><ele>145.0</ele><time>2026-04-12T09:43:36.998Z</time></trkpt><trkpt lat="44.9441483" lon="8.282305"><ele>145.0</ele><time>2026-04-12T09:43:37.998Z</time></trkpt><trkpt lat="44.9443183" lon="8.2823867"><ele>145.66666666666669</ele><time>2026-04-12T09:43:38.997Z</time></trkpt><trkpt lat="44.944485" lon="8.2824317"><ele>146.33333333333334</ele><time>2026-04-12T09:43:39.996Z</time></trkpt><trkpt lat="44.94465" lon="8.282445"><ele>147.0</ele><time>2026-04-12T09:43:40.993Z</time></trkpt><trkpt lat="44.9448167" lon="8.2824467"><ele>147.0</ele><time>2026-04-12T09:43:41.997Z</time></trkpt><trkpt lat="44.944975" lon="8.2824583"><ele>147.0</ele><time>2026-04-12T09:43:42.998Z</time></trkpt><trkpt lat="44.945125" lon="8.2824967"><ele>147.0</ele><time>2026-04-12T09:43:43.994Z</time></trkpt><trkpt lat="44.94526" lon="8.2825733"><ele>147.0</ele><time>2026-04-12T09:43:45Z</time></trkpt><trkpt lat="44.945385" lon="8.2826783"><ele>147.0</ele><time>2026-04-12T09:43:46.001Z</time></trkpt><trkpt lat="44.94549" lon="8.2828183"><ele>147.0</ele><time>2026-04-12T09:43:46.994Z</time></trkpt><trkpt lat="44.9455983" lon="8.2829617"><ele>147.0</ele><time>2026-04-12T09:43:47.996Z</time></trkpt><trkpt lat="44.94571" lon="8.2830983"><ele>148.0</ele><time>2026-04-12T09:43:48.994Z</time></trkpt><trkpt lat="44.94585" lon="8.28319"><ele>149.0</ele><time>2026-04-12T09:43:49.995Z</time></trkpt><trkpt lat="44.9460033" lon="8.283245"><ele>150.0</ele><time>2026-04-12T09:43:50.999Z</time></trkpt><trkpt lat="44.9461567" lon="8.2832583"><ele>150.0</ele><time>2026-04-12T09:43:51.994Z</time></trkpt><trkpt lat="44.9463067" lon="8.283225"><ele>150.0</ele><time>2026-04-12T09:43:52.997Z</time></trkpt><trkpt lat="44.9464517" lon="8.2831467"><ele>150.0</ele><time>2026-04-12T09:43:53.994Z</time></trkpt><trkpt lat="44.9466" lon="8.283045"><ele>151.66666666666666</ele><time>2026-04-12T09:43:54.999Z</time></trkpt><trkpt lat="44.9467517" lon="8.2829283"><ele>153.33333333333331</ele><time>2026-04-12T09:43:55.994Z</time></trkpt><trkpt lat="44.9469067" lon="8.28281"><ele>155.0</ele><time>2026-04-12T09:43:56.996Z</time></trkpt><trkpt lat="44.9470683" lon="8.2826933"><ele>155.0</ele><time>2026-04-12T09:43:57.994Z</time></trkpt><trkpt lat="44.947235" lon="8.2825817"><ele>155.0</ele><time>2026-04-12T09:43:58.996Z</time></trkpt><trkpt lat="44.9474" lon="8.2824617"><ele>155.0</ele><time>2026-04-12T09:43:59.995Z</time></trkpt><trkpt lat="44.9475667" lon="8.28234"><ele>152.66666666666666</ele><time>2026-04-12T09:44:00.994Z</time></trkpt><trkpt lat="44.9477367" lon="8.2822167"><ele>150.33333333333334</ele><time>2026-04-12T09:44:01.995Z</time></trkpt><trkpt lat="44.9479083" lon="8.2820933"><ele>148.0</ele><time>2026-04-12T09:44:02.999Z</time></trkpt><trkpt lat="44.94808" lon="8.2819633"><ele>148.0</ele><time>2026-04-12T09:44:03.996Z</time></trkpt><trkpt lat="44.94825" lon="8.2818383"><ele>148.0</ele><time>2026-04-12T09:44:04.993Z</time></trkpt><trkpt lat="44.9484183" lon="8.281715"><ele>148.0</ele><time>2026-04-12T09:44:05.993Z</time></trkpt><trkpt lat="44.9485883" lon="8.2815867"><ele>148.0</ele><time>2026-04-12T09:44:07Z</time></trkpt><trkpt lat="44.9487567" lon="8.2814567"><ele>148.0</ele><time>2026-04-12T09:44:07.999Z</time></trkpt><trkpt lat="44.9489217" lon="8.2813267"><ele>148.0</ele><time>2026-04-12T09:44:08.999Z</time></trkpt><trkpt lat="44.9490933" lon="8.2812"><ele>149.0</ele><time>2026-04-12T09:44:09.995Z</time></trkpt><trkpt lat="44.9492617" lon="8.2810767"><ele>150.0</ele><time>2026-04-12T09:44:10.996Z</time></trkpt><trkpt lat="44.9494317" lon="8.28095"><ele>151.0</ele><time>2026-04-12T09:44:11.994Z</time></trkpt><trkpt lat="44.9496017" lon="8.280835"><ele>151.0</ele><time>2026-04-12T09:44:12.996Z</time></trkpt><trkpt lat="44.9497717" lon="8.280735"><ele>151.0</ele><time>2026-04-12T09:44:13.999Z</time></trkpt><trkpt lat="44.9499383" lon="8.2806533"><ele>151.0</ele><time>2026-04-12T09:44:14.999Z</time></trkpt><trkpt lat="44.9501167" lon="8.2806233"><ele>152.33333333333334</ele><time>2026-04-12T09:44:15.999Z</time></trkpt><trkpt lat="44.9502983" lon="8.2806383"><ele>153.66666666666666</ele><time>2026-04-12T09:44:16.993Z</time></trkpt><trkpt lat="44.950475" lon="8.280655"><ele>155.0</ele><time>2026-04-12T09:44:17.994Z</time></trkpt><trkpt lat="44.9506517" lon="8.2806817"><ele>155.0</ele><time>2026-04-12T09:44:18.995Z</time></trkpt><trkpt lat="44.9508283" lon="8.2807133"><ele>155.0</ele><time>2026-04-12T09:44:19.995Z</time></trkpt><trkpt lat="44.9510083" lon="8.2807583"><ele>155.0</ele><time>2026-04-12T09:44:20.997Z</time></trkpt><trkpt lat="44.95119" lon="8.2808183"><ele>155.0</ele><time>2026-04-12T09:44:21.994Z</time></trkpt><trkpt lat="44.95137" lon="8.280885"><ele>155.0</ele><time>2026-04-12T09:44:22.994Z</time></trkpt><trkpt lat="44.9515517" lon="8.28095"><ele>155.0</ele><time>2026-04-12T09:44:23.996Z</time></trkpt><trkpt lat="44.95173" lon="8.2810167"><ele>155.0</ele><time>2026-04-12T09:44:24.992Z</time></trkpt><trkpt lat="44.9519083" lon="8.2810833"><ele>155.0</ele><time>2026-04-12T09:44:25.996Z</time></trkpt><trkpt lat="44.9520883" lon="8.28115"><ele>155.0</ele><time>2026-04-12T09:44:26.996Z</time></trkpt><trkpt lat="44.9522667" lon="8.2812167"><ele>155.0</ele><time>2026-04-12T09:44:27.992Z</time></trkpt><trkpt lat="44.952445" lon="8.2812833"><ele>155.0</ele><time>2026-04-12T09:44:28.996Z</time></trkpt><trkpt lat="44.95262" lon="8.281345"><ele>155.0</ele><time>2026-04-12T09:44:29.994Z</time></trkpt><trkpt lat="44.9527917" lon="8.2814117"><ele>156.0</ele><time>2026-04-12T09:44:30.995Z</time></trkpt><trkpt lat="44.9529617" lon="8.2814867"><ele>157.0</ele><time>2026-04-12T09:44:31.999Z</time></trkpt><trkpt lat="44.953125" lon="8.2815667"><ele>158.0</ele><time>2026-04-12T09:44:32.994Z</time></trkpt><trkpt lat="44.9532733" lon="8.28165"><ele>158.0</ele><time>2026-04-12T09:44:33.995Z</time></trkpt><trkpt lat="44.9534133" lon="8.2817217"><ele>158.0</ele><time>2026-04-12T09:44:34.995Z</time></trkpt><trkpt lat="44.9535483" lon="8.28178"><ele>158.0</ele><time>2026-04-12T09:44:35.994Z</time></trkpt><trkpt lat="44.953675" lon="8.2818233"><ele>158.0</ele><time>2026-04-12T09:44:37.002Z</time></trkpt><trkpt lat="44.9537933" lon="8.2818433"><ele>158.0</ele><time>2026-04-12T09:44:37.997Z</time></trkpt><trkpt lat="44.95391" lon="8.2818333"><ele>158.0</ele><time>2026-04-12T09:44:38.996Z</time></trkpt><trkpt lat="44.954025" lon="8.2817783"><ele>158.0</ele><time>2026-04-12T09:44:39.997Z</time></trkpt><trkpt lat="44.9541267" lon="8.2816817"><ele>158.0</ele><time>2026-04-12T09:44:40.997Z</time></trkpt><trkpt lat="44.9542267" lon="8.2815583"><ele>157.0</ele><time>2026-04-12T09:44:41.998Z</time></trkpt><trkpt lat="44.95433" lon="8.2814233"><ele>156.0</ele><time>2026-04-12T09:44:42.994Z</time></trkpt><trkpt lat="44.95444" lon="8.281285"><ele>155.0</ele><time>2026-04-12T09:44:43.995Z</time></trkpt><trkpt lat="44.9545583" lon="8.2811283"><ele>155.0</ele><time>2026-04-12T09:44:44.999Z</time></trkpt><trkpt lat="44.9546833" lon="8.2809783"><ele>155.0</ele><time>2026-04-12T09:44:45.992Z</time></trkpt><trkpt lat="44.954815" lon="8.28083"><ele>155.0</ele><time>2026-04-12T09:44:46.993Z</time></trkpt><trkpt lat="44.9549517" lon="8.2806967"><ele>157.66666666666666</ele><time>2026-04-12T09:44:47.996Z</time></trkpt><trkpt lat="44.955095" lon="8.2805717"><ele>160.33333333333334</ele><time>2026-04-12T09:44:48.993Z</time></trkpt><trkpt lat="44.9552417" lon="8.28045"><ele>163.0</ele><time>2026-04-12T09:44:49.996Z</time></trkpt><trkpt lat="44.9553917" lon="8.2803367"><ele>163.0</ele><time>2026-04-12T09:44:50.999Z</time></trkpt><trkpt lat="44.9555433" lon="8.280225"><ele>163.0</ele><time>2026-04-12T09:44:51.993Z</time></trkpt><trkpt lat="44.9556917" lon="8.2801117"><ele>163.0</ele><time>2026-04-12T09:44:52.997Z</time></trkpt><trkpt lat="44.9558367" lon="8.279995"><ele>169.0</ele><time>2026-04-12T09:44:53.996Z</time></trkpt><trkpt lat="44.9559817" lon="8.279875"><ele>175.0</ele><time>2026-04-12T09:44:55.003Z</time></trkpt><trkpt lat="44.956125" lon="8.2797567"><ele>181.0</ele><time>2026-04-12T09:44:55.997Z</time></trkpt><trkpt lat="44.9562567" lon="8.27963"><ele>181.25</ele><time>2026-04-12T09:44:56.994Z</time></trkpt><trkpt lat="44.9563633" lon="8.2794817"><ele>181.5</ele><time>2026-04-12T09:44:57.996Z</time></trkpt><trkpt lat="44.9564483" lon="8.279305"><ele>181.75</ele><time>2026-04-12T09:44:58.995Z</time></trkpt><trkpt lat="44.9565" lon="8.2791083"><ele>182.0</ele><time>2026-04-12T09:44:59.997Z</time></trkpt><trkpt lat="44.9565417" lon="8.278905"><ele>183.5</ele><time>2026-04-12T09:45:00.995Z</time></trkpt><trkpt lat="44.95659" lon="8.2787083"><ele>185.0</ele><time>2026-04-12T09:45:01.995Z</time></trkpt><trkpt lat="44.9566633" lon="8.278545"><ele>186.5</ele><time>2026-04-12T09:45:02.993Z</time></trkpt><trkpt lat="44.9567483" lon="8.278425"><ele>188.0</ele><time>2026-04-12T09:45:03.994Z</time></trkpt><trkpt lat="44.9568217" lon="8.2783417"><ele>188.0</ele><time>2026-04-12T09:45:04.997Z</time></trkpt><trkpt lat="44.95689" lon="8.2782667"><ele>188.0</ele><time>2026-04-12T09:45:05.995Z</time></trkpt><trkpt lat="44.95696" lon="8.278235"><ele>188.0</ele><time>2026-04-12T09:45:06.999Z</time></trkpt><trkpt lat="44.95699" lon="8.2783533"><ele>188.0</ele><time>2026-04-12T09:45:08.995Z</time></trkpt><trkpt lat="44.9568933" lon="8.278545"><ele>188.0</ele><time>2026-04-12T09:45:10.993Z</time></trkpt><trkpt lat="44.95684" lon="8.2786683"><ele>188.0</ele><time>2026-04-12T09:45:11.992Z</time></trkpt><trkpt lat="44.9567817" lon="8.2788367"><ele>188.0</ele><time>2026-04-12T09:45:12.999Z</time></trkpt><trkpt lat="44.956775" lon="8.2790367"><ele>188.0</ele><time>2026-04-12T09:45:14Z</time></trkpt><trkpt lat="44.95677" lon="8.27921"><ele>188.0</ele><time>2026-04-12T09:45:14.994Z</time></trkpt><trkpt lat="44.9567683" lon="8.27938"><ele>190.60000000000002</ele><time>2026-04-12T09:45:15.994Z</time></trkpt><trkpt lat="44.9567667" lon="8.2795517"><ele>193.20000000000002</ele><time>2026-04-12T09:45:16.995Z</time></trkpt><trkpt lat="44.9567683" lon="8.279715"><ele>195.8</ele><time>2026-04-12T09:45:17.997Z</time></trkpt><trkpt lat="44.9567733" lon="8.279865"><ele>198.4</ele><time>2026-04-12T09:45:18.998Z</time></trkpt><trkpt lat="44.9568033" lon="8.2800017"><ele>201.0</ele><time>2026-04-12T09:45:19.994Z</time></trkpt><trkpt lat="44.9568633" lon="8.2801167"><ele>201.0</ele><time>2026-04-12T09:45:20.996Z</time></trkpt><trkpt lat="44.956955" lon="8.2802"><ele>201.0</ele><time>2026-04-12T09:45:21.995Z</time></trkpt><trkpt lat="44.9570683" lon="8.2802567"><ele>201.0</ele><time>2026-04-12T09:45:22.996Z</time></trkpt><trkpt lat="44.9571917" lon="8.280295"><ele>201.0</ele><time>2026-04-12T09:45:23.995Z</time></trkpt><trkpt lat="44.95732" lon="8.28033"><ele>201.0</ele><time>2026-04-12T09:45:24.996Z</time></trkpt><trkpt lat="44.9574517" lon="8.28035"><ele>201.0</ele><time>2026-04-12T09:45:25.994Z</time></trkpt><trkpt lat="44.9575833" lon="8.28038"><ele>201.0</ele><time>2026-04-12T09:45:26.992Z</time></trkpt><trkpt lat="44.9577083" lon="8.2804217"><ele>201.0</ele><time>2026-04-12T09:45:27.999Z</time></trkpt><trkpt lat="44.95783" lon="8.2804583"><ele>202.0</ele><time>2026-04-12T09:45:28.993Z</time></trkpt><trkpt lat="44.9579433" lon="8.2804917"><ele>203.0</ele><time>2026-04-12T09:45:30Z</time></trkpt><trkpt lat="44.9580383" lon="8.28052"><ele>204.0</ele><time>2026-04-12T09:45:30.994Z</time></trkpt><trkpt lat="44.9581183" lon="8.2805317"><ele>205.0</ele><time>2026-04-12T09:45:31.997Z</time></trkpt><trkpt lat="44.958205" lon="8.280505"><ele>206.0</ele><time>2026-04-12T09:45:32.996Z</time></trkpt><trkpt lat="44.9582383" lon="8.280355"><ele>206.0</ele><time>2026-04-12T09:45:35.002Z</time></trkpt><trkpt lat="44.9582317" lon="8.2802633"><ele>206.0</ele><time>2026-04-12T09:45:35.996Z</time></trkpt><trkpt lat="44.958175" lon="8.2801783"><ele>206.0</ele><time>2026-04-12T09:45:36.998Z</time></trkpt><trkpt lat="44.9581" lon="8.2801"><ele>206.0</ele><time>2026-04-12T09:45:37.994Z</time></trkpt><trkpt lat="44.957985" lon="8.2800933"><ele>206.0</ele><time>2026-04-12T09:45:38.996Z</time></trkpt><trkpt lat="44.9578583" lon="8.28009"><ele>206.0</ele><time>2026-04-12T09:45:40Z</time></trkpt><trkpt lat="44.9577417" lon="8.2800517"><ele>206.0</ele><time>2026-04-12T09:45:40.998Z</time></trkpt><trkpt lat="44.9576217" lon="8.2800367"><ele>206.0</ele><time>2026-04-12T09:45:42Z</time></trkpt><trkpt lat="44.9575067" lon="8.2800017"><ele>206.0</ele><time>2026-04-12T09:45:42.996Z</time></trkpt><trkpt lat="44.957425" lon="8.279905"><ele>205.60000000000002</ele><time>2026-04-12T09:45:43.996Z</time></trkpt><trkpt lat="44.9573583" lon="8.2797933"><ele>205.2</ele><time>2026-04-12T09:45:44.998Z</time></trkpt><trkpt lat="44.95731" lon="8.2796683"><ele>204.8</ele><time>2026-04-12T09:45:45.998Z</time></trkpt><trkpt lat="44.9572883" lon="8.2795317"><ele>204.39999999999998</ele><time>2026-04-12T09:45:46.993Z</time></trkpt><trkpt lat="44.957295" lon="8.27938"><ele>204.0</ele><time>2026-04-12T09:45:47.997Z</time></trkpt><trkpt lat="44.957335" lon="8.279225"><ele>204.0</ele><time>2026-04-12T09:45:48.997Z</time></trkpt><trkpt lat="44.9574133" lon="8.2791133"><ele>204.0</ele><time>2026-04-12T09:45:49.995Z</time></trkpt><trkpt lat="44.9575367" lon="8.2790383"><ele>204.0</ele><time>2026-04-12T09:45:50.997Z</time></trkpt><trkpt lat="44.9576167" lon="8.2789567"><ele>204.0</ele><time>2026-04-12T09:45:51.994Z</time></trkpt><trkpt lat="44.95775" lon="8.27894"><ele>206.6</ele><time>2026-04-12T09:45:52.998Z</time></trkpt><trkpt lat="44.9578783" lon="8.2789567"><ele>209.2</ele><time>2026-04-12T09:45:53.993Z</time></trkpt><trkpt lat="44.957975" lon="8.2789667"><ele>211.79999999999998</ele><time>2026-04-12T09:45:54.996Z</time></trkpt><trkpt lat="44.958065" lon="8.2790167"><ele>214.39999999999998</ele><time>2026-04-12T09:45:56Z</time></trkpt><trkpt lat="44.9581467" lon="8.2790567"><ele>217.0</ele><time>2026-04-12T09:45:56.996Z</time></trkpt><trkpt lat="44.958165" lon="8.279215"><ele>217.0</ele><time>2026-04-12T09:45:58.998Z</time></trkpt><trkpt lat="44.9581083" lon="8.2793683"><ele>217.0</ele><time>2026-04-12T09:46:00.998Z</time></trkpt><trkpt lat="44.9579833" lon="8.2793983"><ele>217.0</ele><time>2026-04-12T09:46:01.995Z</time></trkpt><trkpt lat="44.957895" lon="8.27944"><ele>217.0</ele><time>2026-04-12T09:46:03.001Z</time></trkpt><trkpt lat="44.9578133" lon="8.2794783"><ele>217.0</ele><time>2026-04-12T09:46:03.997Z</time></trkpt><trkpt lat="44.9577467" lon="8.2795167"><ele>217.0</ele><time>2026-04-12T09:46:04.998Z</time></trkpt><trkpt lat="44.9577367" lon="8.2796783"><ele>217.0</ele><time>2026-04-12T09:46:06.999Z</time></trkpt><trkpt lat="44.957785" lon="8.27974"><ele>217.0</ele><time>2026-04-12T09:46:07.995Z</time></trkpt><trkpt lat="44.9578583" lon="8.279815"><ele>217.0</ele><time>2026-04-12T09:46:09Z</time></trkpt><trkpt lat="44.95796" lon="8.27984"><ele>217.0</ele><time>2026-04-12T09:46:09.996Z</time></trkpt><trkpt lat="44.9580717" lon="8.27984"><ele>217.0</ele><time>2026-04-12T09:46:11.003Z</time></trkpt><trkpt lat="44.9581817" lon="8.27982"><ele>217.0</ele><time>2026-04-12T09:46:11.994Z</time></trkpt><trkpt lat="44.9582867" lon="8.2797633"><ele>217.0</ele><time>2026-04-12T09:46:12.998Z</time></trkpt><trkpt lat="44.958385" lon="8.2796783"><ele>217.0</ele><time>2026-04-12T09:46:13.993Z</time></trkpt><trkpt lat="44.9584883" lon="8.2795867"><ele>219.0</ele><time>2026-04-12T09:46:14.994Z</time></trkpt><trkpt lat="44.9585917" lon="8.27949"><ele>221.0</ele><time>2026-04-12T09:46:15.995Z</time></trkpt><trkpt lat="44.9586933" lon="8.2794033"><ele>223.0</ele><time>2026-04-12T09:46:16.993Z</time></trkpt><trkpt lat="44.9588" lon="8.27934"><ele>225.0</ele><time>2026-04-12T09:46:17.994Z</time></trkpt><trkpt lat="44.958905" lon="8.279295"><ele>225.0</ele><time>2026-04-12T09:46:18.993Z</time></trkpt><trkpt lat="44.9590067" lon="8.2792583"><ele>225.0</ele><time>2026-04-12T09:46:19.999Z</time></trkpt><trkpt lat="44.959115" lon="8.279235"><ele>225.0</ele><time>2026-04-12T09:46:20.995Z</time></trkpt><trkpt lat="44.9592283" lon="8.2792117"><ele>225.0</ele><time>2026-04-12T09:46:21.995Z</time></trkpt><trkpt lat="44.9593433" lon="8.279205"><ele>225.0</ele><time>2026-04-12T09:46:22.999Z</time></trkpt><trkpt lat="44.9594667" lon="8.27919"><ele>226.25</ele><time>2026-04-12T09:46:23.995Z</time></trkpt><trkpt lat="44.9595983" lon="8.2791783"><ele>227.5</ele><time>2026-04-12T09:46:24.994Z</time></trkpt><trkpt lat="44.9597267" lon="8.279165"><ele>228.75</ele><time>2026-04-12T09:46:25.995Z</time></trkpt><trkpt lat="44.9598533" lon="8.2791383"><ele>230.0</ele><time>2026-04-12T09:46:26.999Z</time></trkpt><trkpt lat="44.9599667" lon="8.279075"><ele>229.75</ele><time>2026-04-12T09:46:27.996Z</time></trkpt><trkpt lat="44.9600867" lon="8.279015"><ele>229.5</ele><time>2026-04-12T09:46:28.994Z</time></trkpt><trkpt lat="44.9602183" lon="8.2789933"><ele>229.25</ele><time>2026-04-12T09:46:29.995Z</time></trkpt><trkpt lat="44.9603433" lon="8.2789583"><ele>229.0</ele><time>2026-04-12T09:46:30.993Z</time></trkpt><trkpt lat="44.9604717" lon="8.2789433"><ele>229.0</ele><time>2026-04-12T09:46:31.995Z</time></trkpt><trkpt lat="44.9605983" lon="8.2789433"><ele>229.0</ele><time>2026-04-12T09:46:32.993Z</time></trkpt><trkpt lat="44.96072" lon="8.2789433"><ele>229.0</ele><time>2026-04-12T09:46:33.993Z</time></trkpt><trkpt lat="44.96084" lon="8.2789517"><ele>229.0</ele><time>2026-04-12T09:46:34.997Z</time></trkpt><trkpt lat="44.960955" lon="8.278955"><ele>230.25</ele><time>2026-04-12T09:46:35.993Z</time></trkpt><trkpt lat="44.961075" lon="8.278965"><ele>231.5</ele><time>2026-04-12T09:46:36.994Z</time></trkpt><trkpt lat="44.9611933" lon="8.2789667"><ele>232.75</ele><time>2026-04-12T09:46:38.003Z</time></trkpt><trkpt lat="44.961315" lon="8.2789767"><ele>234.0</ele><time>2026-04-12T09:46:38.995Z</time></trkpt><trkpt lat="44.96144" lon="8.279005"><ele>234.0</ele><time>2026-04-12T09:46:39.992Z</time></trkpt><trkpt lat="44.9615667" lon="8.2790233"><ele>234.0</ele><time>2026-04-12T09:46:40.997Z</time></trkpt><trkpt lat="44.961695" lon="8.2790417"><ele>234.0</ele><time>2026-04-12T09:46:41.994Z</time></trkpt><trkpt lat="44.9618183" lon="8.279055"><ele>234.0</ele><time>2026-04-12T09:46:42.993Z</time></trkpt><trkpt lat="44.961955" lon="8.2790783"><ele>232.25</ele><time>2026-04-12T09:46:43.994Z</time></trkpt><trkpt lat="44.96208" lon="8.27907"><ele>230.5</ele><time>2026-04-12T09:46:44.997Z</time></trkpt><trkpt lat="44.9621867" lon="8.2790283"><ele>228.75</ele><time>2026-04-12T09:46:46Z</time></trkpt><trkpt lat="44.9622933" lon="8.2789783"><ele>227.0</ele><time>2026-04-12T09:46:46.993Z</time></trkpt><trkpt lat="44.9624083" lon="8.278935"><ele>226.5</ele><time>2026-04-12T09:46:47.993Z</time></trkpt><trkpt lat="44.9625233" lon="8.2789017"><ele>226.0</ele><time>2026-04-12T09:46:48.998Z</time></trkpt><trkpt lat="44.9626433" lon="8.278885"><ele>225.5</ele><time>2026-04-12T09:46:49.994Z</time></trkpt><trkpt lat="44.9627667" lon="8.2788967"><ele>225.0</ele><time>2026-04-12T09:46:50.994Z</time></trkpt><trkpt lat="44.96288" lon="8.2789217"><ele>227.25</ele><time>2026-04-12T09:46:51.999Z</time></trkpt><trkpt lat="44.96299" lon="8.27897"><ele>229.5</ele><time>2026-04-12T09:46:52.995Z</time></trkpt><trkpt lat="44.9631033" lon="8.2790233"><ele>231.75</ele><time>2026-04-12T09:46:53.993Z</time></trkpt><trkpt lat="44.963215" lon="8.2790783"><ele>234.0</ele><time>2026-04-12T09:46:54.996Z</time></trkpt><trkpt lat="44.96333" lon="8.279145"><ele>234.0</ele><time>2026-04-12T09:46:55.994Z</time></trkpt><trkpt lat="44.9634533" lon="8.2792067"><ele>234.0</ele><time>2026-04-12T09:46:56.993Z</time></trkpt><trkpt lat="44.9635717" lon="8.2792567"><ele>234.0</ele><time>2026-04-12T09:46:57.996Z</time></trkpt><trkpt lat="44.96369" lon="8.279295"><ele>234.0</ele><time>2026-04-12T09:46:58.997Z</time></trkpt><trkpt lat="44.96381" lon="8.2793283"><ele>234.0</ele><time>2026-04-12T09:47:00Z</time></trkpt><trkpt lat="44.9639367" lon="8.2793667"><ele>234.0</ele><time>2026-04-12T09:47:00.997Z</time></trkpt><trkpt lat="44.9640667" lon="8.2794133"><ele>234.0</ele><time>2026-04-12T09:47:01.995Z</time></trkpt><trkpt lat="44.9642067" lon="8.2794517"><ele>234.0</ele><time>2026-04-12T09:47:02.997Z</time></trkpt><trkpt lat="44.964335" lon="8.2794767"><ele>233.75</ele><time>2026-04-12T09:47:03.993Z</time></trkpt><trkpt lat="44.9644483" lon="8.2794933"><ele>233.5</ele><time>2026-04-12T09:47:04.992Z</time></trkpt><trkpt lat="44.9645633" lon="8.2794867"><ele>233.25</ele><time>2026-04-12T09:47:05.993Z</time></trkpt><trkpt lat="44.964675" lon="8.2794633"><ele>233.0</ele><time>2026-04-12T09:47:06.997Z</time></trkpt><trkpt lat="44.964785" lon="8.279445"><ele>233.0</ele><time>2026-04-12T09:47:07.995Z</time></trkpt><trkpt lat="44.9649067" lon="8.2794033"><ele>233.0</ele><time>2026-04-12T09:47:08.998Z</time></trkpt><trkpt lat="44.9650117" lon="8.27936"><ele>233.0</ele><time>2026-04-12T09:47:10Z</time></trkpt><trkpt lat="44.965105" lon="8.279315"><ele>233.0</ele><time>2026-04-12T09:47:10.995Z</time></trkpt><trkpt lat="44.9651767" lon="8.2792833"><ele>233.0</ele><time>2026-04-12T09:47:11.993Z</time></trkpt><trkpt lat="44.9652433" lon="8.2792617"><ele>232.50000000000003</ele><time>2026-04-12T09:47:13.002Z</time></trkpt><trkpt lat="44.96531" lon="8.2792383"><ele>232.0</ele><time>2026-04-12T09:47:13.992Z</time></trkpt><trkpt lat="44.9653767" lon="8.2791983"><ele>231.5</ele><time>2026-04-12T09:47:14.995Z</time></trkpt><trkpt lat="44.965445" lon="8.2791433"><ele>231.0</ele><time>2026-04-12T09:47:15.994Z</time></trkpt><trkpt lat="44.9655217" lon="8.2790817"><ele>230.50000000000003</ele><time>2026-04-12T09:47:16.995Z</time></trkpt><trkpt lat="44.96559" lon="8.2789967"><ele>230.0</ele><time>2026-04-12T09:47:17.993Z</time></trkpt><trkpt lat="44.9656533" lon="8.2789183"><ele>232.0</ele><time>2026-04-12T09:47:18.993Z</time></trkpt><trkpt lat="44.9657267" lon="8.2788483"><ele>234.0</ele><time>2026-04-12T09:47:19.993Z</time></trkpt><trkpt lat="44.965785" lon="8.2787683"><ele>236.0</ele><time>2026-04-12T09:47:20.994Z</time></trkpt><trkpt lat="44.9658333" lon="8.2786733"><ele>238.0</ele><time>2026-04-12T09:47:21.996Z</time></trkpt><trkpt lat="44.96591" lon="8.2785983"><ele>240.0</ele><time>2026-04-12T09:47:22.995Z</time></trkpt><trkpt lat="44.966005" lon="8.27852"><ele>240.0</ele><time>2026-04-12T09:47:24.001Z</time></trkpt><trkpt lat="44.9661067" lon="8.2784383"><ele>240.0</ele><time>2026-04-12T09:47:24.995Z</time></trkpt><trkpt lat="44.9662067" lon="8.2783533"><ele>240.0</ele><time>2026-04-12T09:47:25.991Z</time></trkpt><trkpt lat="44.9663017" lon="8.278265"><ele>240.0</ele><time>2026-04-12T09:47:26.994Z</time></trkpt><trkpt lat="44.9663983" lon="8.2781883"><ele>240.0</ele><time>2026-04-12T09:47:27.992Z</time></trkpt><trkpt lat="44.96649" lon="8.27811"><ele>240.0</ele><time>2026-04-12T09:47:28.992Z</time></trkpt><trkpt lat="44.96658" lon="8.27804"><ele>240.0</ele><time>2026-04-12T09:47:29.996Z</time></trkpt><trkpt lat="44.9666567" lon="8.277945"><ele>240.0</ele><time>2026-04-12T09:47:30.993Z</time></trkpt><trkpt lat="44.9667417" lon="8.27787"><ele>240.0</ele><time>2026-04-12T09:47:31.992Z</time></trkpt><trkpt lat="44.9668217" lon="8.277785"><ele>241.0</ele><time>2026-04-12T09:47:32.992Z</time></trkpt><trkpt lat="44.9669033" lon="8.277695"><ele>242.0</ele><time>2026-04-12T09:47:33.995Z</time></trkpt><trkpt lat="44.9669917" lon="8.27762"><ele>243.0</ele><time>2026-04-12T09:47:34.996Z</time></trkpt><trkpt lat="44.96708" lon="8.2775383"><ele>244.0</ele><time>2026-04-12T09:47:35.996Z</time></trkpt><trkpt lat="44.9671783" lon="8.2774633"><ele>245.0</ele><time>2026-04-12T09:47:36.999Z</time></trkpt><trkpt lat="44.96727" lon="8.2773933"><ele>245.0</ele><time>2026-04-12T09:47:37.992Z</time></trkpt><trkpt lat="44.9673533" lon="8.2773333"><ele>245.0</ele><time>2026-04-12T09:47:38.994Z</time></trkpt><trkpt lat="44.9674383" lon="8.27731"><ele>245.0</ele><time>2026-04-12T09:47:39.995Z</time></trkpt><trkpt lat="44.967515" lon="8.2772733"><ele>245.0</ele><time>2026-04-12T09:47:40.997Z</time></trkpt><trkpt lat="44.9676" lon="8.2772517"><ele>245.0</ele><time>2026-04-12T09:47:41.994Z</time></trkpt><trkpt lat="44.9677083" lon="8.2772533"><ele>244.75</ele><time>2026-04-12T09:47:42.993Z</time></trkpt><trkpt lat="44.9678333" lon="8.2772983"><ele>244.5</ele><time>2026-04-12T09:47:43.993Z</time></trkpt><trkpt lat="44.96795" lon="8.2773067"><ele>244.25</ele><time>2026-04-12T09:47:44.992Z</time></trkpt><trkpt lat="44.9680733" lon="8.27733"><ele>244.0</ele><time>2026-04-12T09:47:45.996Z</time></trkpt><trkpt lat="44.9682083" lon="8.277365"><ele>244.0</ele><time>2026-04-12T09:47:47.003Z</time></trkpt><trkpt lat="44.9683433" lon="8.277445"><ele>244.0</ele><time>2026-04-12T09:47:47.994Z</time></trkpt><trkpt lat="44.9684783" lon="8.2774983"><ele>244.0</ele><time>2026-04-12T09:47:48.995Z</time></trkpt><trkpt lat="44.9686267" lon="8.2775433"><ele>244.0</ele><time>2026-04-12T09:47:49.997Z</time></trkpt><trkpt lat="44.9687683" lon="8.2775867"><ele>243.5</ele><time>2026-04-12T09:47:50.992Z</time></trkpt><trkpt lat="44.968915" lon="8.277635"><ele>243.0</ele><time>2026-04-12T09:47:51.997Z</time></trkpt><trkpt lat="44.9690617" lon="8.277685"><ele>242.5</ele><time>2026-04-12T09:47:52.995Z</time></trkpt><trkpt lat="44.969195" lon="8.2777367"><ele>242.0</ele><time>2026-04-12T09:47:53.994Z</time></trkpt><trkpt lat="44.9693117" lon="8.2777817"><ele>239.0</ele><time>2026-04-12T09:47:54.996Z</time></trkpt><trkpt lat="44.9694233" lon="8.277815"><ele>236.0</ele><time>2026-04-12T09:47:55.994Z</time></trkpt><trkpt lat="44.96954" lon="8.2778567"><ele>233.0</ele><time>2026-04-12T09:47:56.997Z</time></trkpt><trkpt lat="44.96965" lon="8.27791"><ele>230.0</ele><time>2026-04-12T09:47:57.995Z</time></trkpt><trkpt lat="44.969765" lon="8.2779817"><ele>230.0</ele><time>2026-04-12T09:47:58.994Z</time></trkpt><trkpt lat="44.9698733" lon="8.2780717"><ele>230.0</ele><time>2026-04-12T09:47:59.995Z</time></trkpt><trkpt lat="44.9699767" lon="8.2781817"><ele>230.0</ele><time>2026-04-12T09:48:00.993Z</time></trkpt><trkpt lat="44.970085" lon="8.278315"><ele>230.0</ele><time>2026-04-12T09:48:01.996Z</time></trkpt><trkpt lat="44.97019" lon="8.2784483"><ele>230.25</ele><time>2026-04-12T09:48:02.996Z</time></trkpt><trkpt lat="44.9703" lon="8.2785833"><ele>230.5</ele><time>2026-04-12T09:48:03.995Z</time></trkpt><trkpt lat="44.970405" lon="8.278725"><ele>230.75</ele><time>2026-04-12T09:48:04.994Z</time></trkpt><trkpt lat="44.97051" lon="8.2788633"><ele>231.0</ele><time>2026-04-12T09:48:05.993Z</time></trkpt><trkpt lat="44.9706217" lon="8.2789917"><ele>234.25</ele><time>2026-04-12T09:48:06.996Z</time></trkpt><trkpt lat="44.97073" lon="8.2791117"><ele>237.5</ele><time>2026-04-12T09:48:07.995Z</time></trkpt><trkpt lat="44.9708383" lon="8.2792267"><ele>240.75</ele><time>2026-04-12T09:48:09Z</time></trkpt><trkpt lat="44.970955" lon="8.2793233"><ele>244.0</ele><time>2026-04-12T09:48:09.997Z</time></trkpt><trkpt lat="44.97108" lon="8.27941"><ele>244.0</ele><time>2026-04-12T09:48:10.995Z</time></trkpt><trkpt lat="44.9712033" lon="8.2795017"><ele>244.0</ele><time>2026-04-12T09:48:11.999Z</time></trkpt><trkpt lat="44.9713267" lon="8.2795933"><ele>244.0</ele><time>2026-04-12T09:48:12.994Z</time></trkpt><trkpt lat="44.9714533" lon="8.2796833"><ele>244.0</ele><time>2026-04-12T09:48:13.994Z</time></trkpt><trkpt lat="44.97158" lon="8.279775"><ele>244.75</ele><time>2026-04-12T09:48:14.998Z</time></trkpt><trkpt lat="44.9717083" lon="8.2798683"><ele>245.5</ele><time>2026-04-12T09:48:15.995Z</time></trkpt><trkpt lat="44.97184" lon="8.2799617"><ele>246.25</ele><time>2026-04-12T09:48:16.993Z</time></trkpt><trkpt lat="44.971985" lon="8.2800467"><ele>247.0</ele><time>2026-04-12T09:48:17.996Z</time></trkpt><trkpt lat="44.9721267" lon="8.280115"><ele>247.0</ele><time>2026-04-12T09:48:18.995Z</time></trkpt><trkpt lat="44.9722683" lon="8.280195"><ele>247.0</ele><time>2026-04-12T09:48:19.995Z</time></trkpt><trkpt lat="44.9724183" lon="8.280265"><ele>247.0</ele><time>2026-04-12T09:48:20.996Z</time></trkpt><trkpt lat="44.9725767" lon="8.280325"><ele>243.33333333333331</ele><time>2026-04-12T09:48:21.994Z</time></trkpt><trkpt lat="44.972735" lon="8.2803633"><ele>239.66666666666669</ele><time>2026-04-12T09:48:22.997Z</time></trkpt><trkpt lat="44.9728983" lon="8.280385"><ele>236.0</ele><time>2026-04-12T09:48:23.995Z</time></trkpt><trkpt lat="44.97306" lon="8.2804033"><ele>236.0</ele><time>2026-04-12T09:48:24.995Z</time></trkpt><trkpt lat="44.9732183" lon="8.2804167"><ele>236.0</ele><time>2026-04-12T09:48:25.999Z</time></trkpt><trkpt lat="44.9733783" lon="8.2804083"><ele>236.0</ele><time>2026-04-12T09:48:26.996Z</time></trkpt><trkpt lat="44.9735283" lon="8.2804317"><ele>233.75</ele><time>2026-04-12T09:48:27.995Z</time></trkpt><trkpt lat="44.9736683" lon="8.280475"><ele>231.5</ele><time>2026-04-12T09:48:28.996Z</time></trkpt><trkpt lat="44.9737967" lon="8.2805567"><ele>229.25</ele><time>2026-04-12T09:48:29.994Z</time></trkpt><trkpt lat="44.9739217" lon="8.28068"><ele>227.0</ele><time>2026-04-12T09:48:30.995Z</time></trkpt><trkpt lat="44.9740367" lon="8.2808267"><ele>227.0</ele><time>2026-04-12T09:48:31.993Z</time></trkpt><trkpt lat="44.9741483" lon="8.2809867"><ele>227.0</ele><time>2026-04-12T09:48:32.996Z</time></trkpt><trkpt lat="44.9742617" lon="8.2811483"><ele>227.0</ele><time>2026-04-12T09:48:33.996Z</time></trkpt><trkpt lat="44.9743767" lon="8.2813067"><ele>226.5</ele><time>2026-04-12T09:48:34.994Z</time></trkpt><trkpt lat="44.9744867" lon="8.2814617"><ele>226.0</ele><time>2026-04-12T09:48:35.994Z</time></trkpt><trkpt lat="44.9745967" lon="8.2816"><ele>225.5</ele><time>2026-04-12T09:48:36.999Z</time></trkpt><trkpt lat="44.974715" lon="8.2817217"><ele>225.0</ele><time>2026-04-12T09:48:37.998Z</time></trkpt><trkpt lat="44.9748467" lon="8.2818183"><ele>225.0</ele><time>2026-04-12T09:48:38.998Z</time></trkpt><trkpt lat="44.9749917" lon="8.2818983"><ele>225.0</ele><time>2026-04-12T09:48:39.996Z</time></trkpt><trkpt lat="44.9751433" lon="8.2819733"><ele>225.0</ele><time>2026-04-12T09:48:40.996Z</time></trkpt><trkpt lat="44.9753033" lon="8.282045"><ele>224.0</ele><time>2026-04-12T09:48:41.999Z</time></trkpt><trkpt lat="44.9754683" lon="8.2821017"><ele>223.0</ele><time>2026-04-12T09:48:42.996Z</time></trkpt><trkpt lat="44.9756383" lon="8.282145"><ele>222.0</ele><time>2026-04-12T09:48:43.995Z</time></trkpt><trkpt lat="44.9758067" lon="8.2821717"><ele>222.0</ele><time>2026-04-12T09:48:44.992Z</time></trkpt><trkpt lat="44.9759783" lon="8.2821833"><ele>222.0</ele><time>2026-04-12T09:48:45.992Z</time></trkpt><trkpt lat="44.97615" lon="8.2821883"><ele>222.0</ele><time>2026-04-12T09:48:46.993Z</time></trkpt><trkpt lat="44.9763233" lon="8.2821917"><ele>222.0</ele><time>2026-04-12T09:48:47.992Z</time></trkpt><trkpt lat="44.9764933" lon="8.2821933"><ele>222.0</ele><time>2026-04-12T09:48:48.995Z</time></trkpt><trkpt lat="44.9766583" lon="8.2821867"><ele>222.0</ele><time>2026-04-12T09:48:49.995Z</time></trkpt><trkpt lat="44.9768167" lon="8.2821867"><ele>222.75</ele><time>2026-04-12T09:48:50.993Z</time></trkpt><trkpt lat="44.97697" lon="8.2821883"><ele>223.5</ele><time>2026-04-12T09:48:51.992Z</time></trkpt><trkpt lat="44.9771183" lon="8.282195"><ele>224.25</ele><time>2026-04-12T09:48:52.994Z</time></trkpt><trkpt lat="44.9772633" lon="8.2821967"><ele>225.0</ele><time>2026-04-12T09:48:53.995Z</time></trkpt><trkpt lat="44.97741" lon="8.2821967"><ele>226.5</ele><time>2026-04-12T09:48:54.995Z</time></trkpt><trkpt lat="44.977555" lon="8.282205"><ele>228.0</ele><time>2026-04-12T09:48:55.997Z</time></trkpt><trkpt lat="44.9777" lon="8.28222"><ele>229.5</ele><time>2026-04-12T09:48:56.993Z</time></trkpt><trkpt lat="44.97784" lon="8.2822667"><ele>231.0</ele><time>2026-04-12T09:48:57.994Z</time></trkpt><trkpt lat="44.977975" lon="8.2823383"><ele>231.0</ele><time>2026-04-12T09:48:59.002Z</time></trkpt><trkpt lat="44.9781083" lon="8.2824317"><ele>231.0</ele><time>2026-04-12T09:48:59.996Z</time></trkpt><trkpt lat="44.9782383" lon="8.2825433"><ele>231.0</ele><time>2026-04-12T09:49:00.998Z</time></trkpt><trkpt lat="44.978365" lon="8.2826667"><ele>236.0</ele><time>2026-04-12T09:49:01.999Z</time></trkpt><trkpt lat="44.978495" lon="8.2827917"><ele>241.0</ele><time>2026-04-12T09:49:02.993Z</time></trkpt><trkpt lat="44.97862" lon="8.2829233"><ele>246.0</ele><time>2026-04-12T09:49:03.993Z</time></trkpt><trkpt lat="44.9787533" lon="8.28305"><ele>243.33333333333331</ele><time>2026-04-12T09:49:04.994Z</time></trkpt><trkpt lat="44.97889" lon="8.2831783"><ele>240.66666666666666</ele><time>2026-04-12T09:49:05.995Z</time></trkpt><trkpt lat="44.9790217" lon="8.283305"><ele>238.0</ele><time>2026-04-12T09:49:06.997Z</time></trkpt><trkpt lat="44.979155" lon="8.283425"><ele>240.66666666666666</ele><time>2026-04-12T09:49:07.996Z</time></trkpt><trkpt lat="44.9792967" lon="8.283525"><ele>243.33333333333331</ele><time>2026-04-12T09:49:09Z</time></trkpt><trkpt lat="44.9794467" lon="8.2836017"><ele>246.0</ele><time>2026-04-12T09:49:09.993Z</time></trkpt><trkpt lat="44.9796033" lon="8.283655"><ele>246.0</ele><time>2026-04-12T09:49:10.998Z</time></trkpt><trkpt lat="44.9797617" lon="8.2836783"><ele>246.0</ele><time>2026-04-12T09:49:12.002Z</time></trkpt><trkpt lat="44.9799217" lon="8.2836733"><ele>246.0</ele><time>2026-04-12T09:49:12.995Z</time></trkpt><trkpt lat="44.9800817" lon="8.2836533"><ele>246.66666666666669</ele><time>2026-04-12T09:49:13.998Z</time></trkpt><trkpt lat="44.9802417" lon="8.2836283"><ele>247.33333333333334</ele><time>2026-04-12T09:49:14.995Z</time></trkpt><trkpt lat="44.9804033" lon="8.2836033"><ele>248.0</ele><time>2026-04-12T09:49:15.996Z</time></trkpt><trkpt lat="44.9805633" lon="8.28358"><ele>248.0</ele><time>2026-04-12T09:49:16.994Z</time></trkpt><trkpt lat="44.980725" lon="8.2835517"><ele>248.0</ele><time>2026-04-12T09:49:17.995Z</time></trkpt><trkpt lat="44.98089" lon="8.2835233"><ele>248.0</ele><time>2026-04-12T09:49:18.994Z</time></trkpt><trkpt lat="44.9810517" lon="8.2834983"><ele>248.75</ele><time>2026-04-12T09:49:19.998Z</time></trkpt><trkpt lat="44.981205" lon="8.28349"><ele>249.5</ele><time>2026-04-12T09:49:20.994Z</time></trkpt><trkpt lat="44.9813517" lon="8.2835067"><ele>250.25</ele><time>2026-04-12T09:49:21.993Z</time></trkpt><trkpt lat="44.98148" lon="8.2835667"><ele>251.0</ele><time>2026-04-12T09:49:22.997Z</time></trkpt><trkpt lat="44.9815933" lon="8.2836633"><ele>253.0</ele><time>2026-04-12T09:49:23.993Z</time></trkpt><trkpt lat="44.9816917" lon="8.2837967"><ele>255.0</ele><time>2026-04-12T09:49:24.998Z</time></trkpt><trkpt lat="44.9817733" lon="8.2839617"><ele>257.0</ele><time>2026-04-12T09:49:25.992Z</time></trkpt><trkpt lat="44.9818533" lon="8.28414"><ele>259.0</ele><time>2026-04-12T09:49:27Z</time></trkpt><trkpt lat="44.9819383" lon="8.2843233"><ele>259.0</ele><time>2026-04-12T09:49:28Z</time></trkpt><trkpt lat="44.9820283" lon="8.2845117"><ele>259.0</ele><time>2026-04-12T09:49:28.997Z</time></trkpt><trkpt lat="44.98212" lon="8.2847017"><ele>259.0</ele><time>2026-04-12T09:49:29.997Z</time></trkpt><trkpt lat="44.9822117" lon="8.2848933"><ele>259.0</ele><time>2026-04-12T09:49:30.997Z</time></trkpt><trkpt lat="44.9823" lon="8.285085"><ele>259.0</ele><time>2026-04-12T09:49:32.001Z</time></trkpt><trkpt lat="44.9823883" lon="8.2852733"><ele>259.0</ele><time>2026-04-12T09:49:32.997Z</time></trkpt><trkpt lat="44.9824717" lon="8.2854483"><ele>259.25</ele><time>2026-04-12T09:49:33.997Z</time></trkpt><trkpt lat="44.9825633" lon="8.2856033"><ele>259.5</ele><time>2026-04-12T09:49:34.995Z</time></trkpt><trkpt lat="44.9826667" lon="8.28572"><ele>259.75</ele><time>2026-04-12T09:49:35.995Z</time></trkpt><trkpt lat="44.982775" lon="8.2858083"><ele>260.0</ele><time>2026-04-12T09:49:36.996Z</time></trkpt><trkpt lat="44.9829" lon="8.2858517"><ele>260.0</ele><time>2026-04-12T09:49:38Z</time></trkpt><trkpt lat="44.9830317" lon="8.2858633"><ele>260.0</ele><time>2026-04-12T09:49:38.999Z</time></trkpt><trkpt lat="44.9831617" lon="8.2858583"><ele>260.0</ele><time>2026-04-12T09:49:39.995Z</time></trkpt><trkpt lat="44.9832967" lon="8.2858383"><ele>260.0</ele><time>2026-04-12T09:49:40.996Z</time></trkpt><trkpt lat="44.98344" lon="8.2857933"><ele>258.6666666666667</ele><time>2026-04-12T09:49:41.996Z</time></trkpt><trkpt lat="44.983575" lon="8.2857167"><ele>257.3333333333333</ele><time>2026-04-12T09:49:42.995Z</time></trkpt><trkpt lat="44.9837083" lon="8.2855967"><ele>256.0</ele><time>2026-04-12T09:49:43.995Z</time></trkpt><trkpt lat="44.9838333" lon="8.2854433"><ele>256.0</ele><time>2026-04-12T09:49:44.995Z</time></trkpt><trkpt lat="44.9839517" lon="8.2852783"><ele>256.0</ele><time>2026-04-12T09:49:45.996Z</time></trkpt><trkpt lat="44.98407" lon="8.2851217"><ele>256.0</ele><time>2026-04-12T09:49:46.993Z</time></trkpt><trkpt lat="44.9842" lon="8.284985"><ele>256.66666666666663</ele><time>2026-04-12T09:49:47.991Z</time></trkpt><trkpt lat="44.9843417" lon="8.2848717"><ele>257.3333333333333</ele><time>2026-04-12T09:49:48.994Z</time></trkpt><trkpt lat="44.984495" lon="8.284785"><ele>258.0</ele><time>2026-04-12T09:49:49.998Z</time></trkpt><trkpt lat="44.984655" lon="8.2847233"><ele>258.0</ele><time>2026-04-12T09:49:50.998Z</time></trkpt><trkpt lat="44.98482" lon="8.284675"><ele>258.0</ele><time>2026-04-12T09:49:51.998Z</time></trkpt><trkpt lat="44.9849833" lon="8.2846267"><ele>258.0</ele><time>2026-04-12T09:49:52.996Z</time></trkpt><trkpt lat="44.985145" lon="8.284575"><ele>259.6666666666667</ele><time>2026-04-12T09:49:53.994Z</time></trkpt><trkpt lat="44.9853083" lon="8.28453"><ele>261.33333333333337</ele><time>2026-04-12T09:49:55.005Z</time></trkpt><trkpt lat="44.9854717" lon="8.2844883"><ele>263.0</ele><time>2026-04-12T09:49:55.992Z</time></trkpt><trkpt lat="44.9856333" lon="8.28445"><ele>263.0</ele><time>2026-04-12T09:49:56.994Z</time></trkpt><trkpt lat="44.9857967" lon="8.2844233"><ele>263.0</ele><time>2026-04-12T09:49:57.999Z</time></trkpt><trkpt lat="44.9859583" lon="8.284415"><ele>263.0</ele><time>2026-04-12T09:49:58.992Z</time></trkpt><trkpt lat="44.9861183" lon="8.2844267"><ele>261.6666666666667</ele><time>2026-04-12T09:49:59.994Z</time></trkpt><trkpt lat="44.9862683" lon="8.284465"><ele>260.3333333333333</ele><time>2026-04-12T09:50:00.993Z</time></trkpt><trkpt lat="44.9864217" lon="8.2845183"><ele>259.0</ele><time>2026-04-12T09:50:01.994Z</time></trkpt><trkpt lat="44.98657" lon="8.284585"><ele>259.3333333333333</ele><time>2026-04-12T09:50:02.998Z</time></trkpt><trkpt lat="44.9867217" lon="8.2846733"><ele>259.6666666666667</ele><time>2026-04-12T09:50:03.993Z</time></trkpt><trkpt lat="44.9868733" lon="8.2847683"><ele>260.0</ele><time>2026-04-12T09:50:04.994Z</time></trkpt><trkpt lat="44.987025" lon="8.28486"><ele>260.0</ele><time>2026-04-12T09:50:05.995Z</time></trkpt><trkpt lat="44.9871767" lon="8.2849467"><ele>260.0</ele><time>2026-04-12T09:50:06.999Z</time></trkpt><trkpt lat="44.98733" lon="8.2850283"><ele>260.0</ele><time>2026-04-12T09:50:07.997Z</time></trkpt><trkpt lat="44.98749" lon="8.2850917"><ele>261.0</ele><time>2026-04-12T09:50:09Z</time></trkpt><trkpt lat="44.987645" lon="8.2851433"><ele>262.0</ele><time>2026-04-12T09:50:09.999Z</time></trkpt><trkpt lat="44.9878033" lon="8.2851733"><ele>263.0</ele><time>2026-04-12T09:50:10.995Z</time></trkpt><trkpt lat="44.9879617" lon="8.2851867"><ele>263.0</ele><time>2026-04-12T09:50:11.992Z</time></trkpt><trkpt lat="44.9881217" lon="8.2851983"><ele>263.0</ele><time>2026-04-12T09:50:12.997Z</time></trkpt><trkpt lat="44.9882817" lon="8.285205"><ele>263.0</ele><time>2026-04-12T09:50:13.995Z</time></trkpt><trkpt lat="44.988445" lon="8.2852217"><ele>264.33333333333337</ele><time>2026-04-12T09:50:14.994Z</time></trkpt><trkpt lat="44.9886067" lon="8.285235"><ele>265.6666666666667</ele><time>2026-04-12T09:50:16Z</time></trkpt><trkpt lat="44.98877" lon="8.2852433"><ele>267.0</ele><time>2026-04-12T09:50:16.999Z</time></trkpt><trkpt lat="44.9889333" lon="8.2852233"><ele>267.0</ele><time>2026-04-12T09:50:17.991Z</time></trkpt><trkpt lat="44.989095" lon="8.2851917"><ele>267.0</ele><time>2026-04-12T09:50:19.005Z</time></trkpt><trkpt lat="44.9892533" lon="8.285145"><ele>267.0</ele><time>2026-04-12T09:50:20.001Z</time></trkpt><trkpt lat="44.989415" lon="8.2850933"><ele>269.0</ele><time>2026-04-12T09:50:20.999Z</time></trkpt><trkpt lat="44.9895683" lon="8.285035"><ele>271.0</ele><time>2026-04-12T09:50:21.996Z</time></trkpt><trkpt lat="44.98972" lon="8.2849917"><ele>273.0</ele><time>2026-04-12T09:50:22.996Z</time></trkpt><trkpt lat="44.9898667" lon="8.2849483"><ele>273.0</ele><time>2026-04-12T09:50:23.995Z</time></trkpt><trkpt lat="44.990005" lon="8.2848817"><ele>273.0</ele><time>2026-04-12T09:50:24.994Z</time></trkpt><trkpt lat="44.99014" lon="8.2847967"><ele>273.0</ele><time>2026-04-12T09:50:25.994Z</time></trkpt><trkpt lat="44.9902717" lon="8.284695"><ele>273.0</ele><time>2026-04-12T09:50:26.998Z</time></trkpt><trkpt lat="44.9904067" lon="8.2845883"><ele>275.6666666666667</ele><time>2026-04-12T09:50:27.999Z</time></trkpt><trkpt lat="44.9905383" lon="8.2844767"><ele>278.33333333333337</ele><time>2026-04-12T09:50:28.994Z</time></trkpt><trkpt lat="44.9906683" lon="8.2843533"><ele>281.0</ele><time>2026-04-12T09:50:29.994Z</time></trkpt><trkpt lat="44.9907967" lon="8.2842383"><ele>279.75</ele><time>2026-04-12T09:50:30.995Z</time></trkpt><trkpt lat="44.99092" lon="8.284135"><ele>278.5</ele><time>2026-04-12T09:50:32Z</time></trkpt><trkpt lat="44.991035" lon="8.2840283"><ele>277.25</ele><time>2026-04-12T09:50:32.999Z</time></trkpt><trkpt lat="44.9911417" lon="8.28392"><ele>276.0</ele><time>2026-04-12T09:50:33.994Z</time></trkpt><trkpt lat="44.9912333" lon="8.2837867"><ele>276.0</ele><time>2026-04-12T09:50:34.995Z</time></trkpt><trkpt lat="44.991295" lon="8.2836317"><ele>276.0</ele><time>2026-04-12T09:50:35.998Z</time></trkpt><trkpt lat="44.991325" lon="8.2834583"><ele>276.0</ele><time>2026-04-12T09:50:36.997Z</time></trkpt><trkpt lat="44.991335" lon="8.28327"><ele>276.0</ele><time>2026-04-12T09:50:38Z</time></trkpt><trkpt lat="44.9913283" lon="8.28308"><ele>276.5</ele><time>2026-04-12T09:50:38.997Z</time></trkpt><trkpt lat="44.9913117" lon="8.2828817"><ele>277.0</ele><time>2026-04-12T09:50:39.997Z</time></trkpt><trkpt lat="44.9912933" lon="8.2826833"><ele>277.5</ele><time>2026-04-12T09:50:41Z</time></trkpt><trkpt lat="44.9912733" lon="8.2824883"><ele>278.0</ele><time>2026-04-12T09:50:41.996Z</time></trkpt><trkpt lat="44.9912583" lon="8.2823033"><ele>279.5</ele><time>2026-04-12T09:50:42.995Z</time></trkpt><trkpt lat="44.9912717" lon="8.282115"><ele>281.0</ele><time>2026-04-12T09:50:43.994Z</time></trkpt><trkpt lat="44.9913133" lon="8.2819267"><ele>282.5</ele><time>2026-04-12T09:50:44.993Z</time></trkpt><trkpt lat="44.9913683" lon="8.28175"><ele>284.0</ele><time>2026-04-12T09:50:45.993Z</time></trkpt><trkpt lat="44.9914233" lon="8.28159"><ele>284.0</ele><time>2026-04-12T09:50:46.993Z</time></trkpt><trkpt lat="44.9914833" lon="8.2814433"><ele>284.0</ele><time>2026-04-12T09:50:47.996Z</time></trkpt><trkpt lat="44.9915533" lon="8.2813"><ele>284.0</ele><time>2026-04-12T09:50:48.995Z</time></trkpt><trkpt lat="44.9916317" lon="8.2811567"><ele>284.0</ele><time>2026-04-12T09:50:49.995Z</time></trkpt><trkpt lat="44.99172" lon="8.281025"><ele>284.0</ele><time>2026-04-12T09:50:50.998Z</time></trkpt><trkpt lat="44.991825" lon="8.2809067"><ele>284.0</ele><time>2026-04-12T09:50:51.994Z</time></trkpt><trkpt lat="44.991945" lon="8.2808117"><ele>284.0</ele><time>2026-04-12T09:50:52.994Z</time></trkpt><trkpt lat="44.9920767" lon="8.28074"><ele>284.0</ele><time>2026-04-12T09:50:53.998Z</time></trkpt><trkpt lat="44.9922217" lon="8.2806983"><ele>284.0</ele><time>2026-04-12T09:50:54.994Z</time></trkpt><trkpt lat="44.9923733" lon="8.2806633"><ele>284.0</ele><time>2026-04-12T09:50:55.997Z</time></trkpt><trkpt lat="44.9925217" lon="8.280625"><ele>284.0</ele><time>2026-04-12T09:50:56.995Z</time></trkpt><trkpt lat="44.9926783" lon="8.2806067"><ele>281.33333333333337</ele><time>2026-04-12T09:50:57.995Z</time></trkpt><trkpt lat="44.9928317" lon="8.2805883"><ele>278.6666666666667</ele><time>2026-04-12T09:50:58.996Z</time></trkpt><trkpt lat="44.992985" lon="8.280575"><ele>276.0</ele><time>2026-04-12T09:51:00.001Z</time></trkpt><trkpt lat="44.9931367" lon="8.28058"><ele>276.0</ele><time>2026-04-12T09:51:00.996Z</time></trkpt><trkpt lat="44.9932967" lon="8.2805933"><ele>276.0</ele><time>2026-04-12T09:51:01.997Z</time></trkpt><trkpt lat="44.993465" lon="8.2805967"><ele>276.0</ele><time>2026-04-12T09:51:02.996Z</time></trkpt><trkpt lat="44.9936367" lon="8.2805967"><ele>277.0</ele><time>2026-04-12T09:51:03.994Z</time></trkpt><trkpt lat="44.9938067" lon="8.280605"><ele>278.0</ele><time>2026-04-12T09:51:04.995Z</time></trkpt><trkpt lat="44.9939717" lon="8.2806133"><ele>279.0</ele><time>2026-04-12T09:51:05.995Z</time></trkpt><trkpt lat="44.9941367" lon="8.2806333"><ele>277.3333333333333</ele><time>2026-04-12T09:51:06.993Z</time></trkpt><trkpt lat="44.9943033" lon="8.280665"><ele>275.66666666666663</ele><time>2026-04-12T09:51:07.997Z</time></trkpt><trkpt lat="44.99447" lon="8.280685"><ele>274.0</ele><time>2026-04-12T09:51:08.999Z</time></trkpt><trkpt lat="44.99464" lon="8.280695"><ele>274.0</ele><time>2026-04-12T09:51:09.995Z</time></trkpt><trkpt lat="44.9948033" lon="8.2807017"><ele>274.0</ele><time>2026-04-12T09:51:10.996Z</time></trkpt><trkpt lat="44.9949683" lon="8.2807067"><ele>274.0</ele><time>2026-04-12T09:51:11.993Z</time></trkpt><trkpt lat="44.9951267" lon="8.28071"><ele>274.0</ele><time>2026-04-12T09:51:12.993Z</time></trkpt><trkpt lat="44.9952867" lon="8.2806983"><ele>274.0</ele><time>2026-04-12T09:51:13.995Z</time></trkpt><trkpt lat="44.9954483" lon="8.2806783"><ele>274.0</ele><time>2026-04-12T09:51:14.997Z</time></trkpt><trkpt lat="44.9956133" lon="8.28064"><ele>272.0</ele><time>2026-04-12T09:51:16.002Z</time></trkpt><trkpt lat="44.9957717" lon="8.2805817"><ele>270.0</ele><time>2026-04-12T09:51:16.996Z</time></trkpt><trkpt lat="44.9959233" lon="8.2804983"><ele>268.0</ele><time>2026-04-12T09:51:17.997Z</time></trkpt><trkpt lat="44.9960633" lon="8.280415"><ele>268.0</ele><time>2026-04-12T09:51:18.997Z</time></trkpt><trkpt lat="44.9962017" lon="8.280335"><ele>268.0</ele><time>2026-04-12T09:51:19.995Z</time></trkpt><trkpt lat="44.9963417" lon="8.2802533"><ele>268.0</ele><time>2026-04-12T09:51:20.997Z</time></trkpt><trkpt lat="44.9964783" lon="8.2801733"><ele>268.0</ele><time>2026-04-12T09:51:21.995Z</time></trkpt><trkpt lat="44.9966133" lon="8.2800933"><ele>271.3333333333333</ele><time>2026-04-12T09:51:22.994Z</time></trkpt><trkpt lat="44.99675" lon="8.2800083"><ele>274.6666666666667</ele><time>2026-04-12T09:51:23.995Z</time></trkpt><trkpt lat="44.9968817" lon="8.2799117"><ele>278.0</ele><time>2026-04-12T09:51:24.997Z</time></trkpt><trkpt lat="44.99702" lon="8.2797983"><ele>273.0</ele><time>2026-04-12T09:51:25.998Z</time></trkpt><trkpt lat="44.9971567" lon="8.2796783"><ele>268.0</ele><time>2026-04-12T09:51:26.993Z</time></trkpt><trkpt lat="44.9972983" lon="8.2795567"><ele>263.0</ele><time>2026-04-12T09:51:27.995Z</time></trkpt><trkpt lat="44.9974383" lon="8.2794267"><ele>266.6666666666667</ele><time>2026-04-12T09:51:28.993Z</time></trkpt><trkpt lat="44.9975817" lon="8.2793"><ele>270.3333333333333</ele><time>2026-04-12T09:51:29.998Z</time></trkpt><trkpt lat="44.9977267" lon="8.279175"><ele>274.0</ele><time>2026-04-12T09:51:30.996Z</time></trkpt><trkpt lat="44.9978717" lon="8.2790467"><ele>271.0</ele><time>2026-04-12T09:51:31.992Z</time></trkpt><trkpt lat="44.9980067" lon="8.27892"><ele>268.0</ele><time>2026-04-12T09:51:32.999Z</time></trkpt><trkpt lat="44.9981383" lon="8.2787983"><ele>265.0</ele><time>2026-04-12T09:51:33.995Z</time></trkpt><trkpt lat="44.998255" lon="8.278675"><ele>266.5</ele><time>2026-04-12T09:51:34.996Z</time></trkpt><trkpt lat="44.9983683" lon="8.2785617"><ele>268.0</ele><time>2026-04-12T09:51:35.993Z</time></trkpt><trkpt lat="44.9984733" lon="8.2784517"><ele>269.5</ele><time>2026-04-12T09:51:36.996Z</time></trkpt><trkpt lat="44.9985683" lon="8.278355"><ele>271.0</ele><time>2026-04-12T09:51:37.996Z</time></trkpt><trkpt lat="44.9986467" lon="8.2782883"><ele>271.0</ele><time>2026-04-12T09:51:38.999Z</time></trkpt><trkpt lat="44.9987183" lon="8.278265"><ele>271.0</ele><time>2026-04-12T09:51:39.996Z</time></trkpt><trkpt lat="44.9987967" lon="8.278295"><ele>271.0</ele><time>2026-04-12T09:51:41.997Z</time></trkpt><trkpt lat="44.9988117" lon="8.2783917"><ele>271.0</ele><time>2026-04-12T09:51:44.999Z</time></trkpt><trkpt lat="44.998845" lon="8.2785183"><ele>271.0</ele><time>2026-04-12T09:51:46.996Z</time></trkpt><trkpt lat="44.99886" lon="8.2786233"><ele>271.0</ele><time>2026-04-12T09:51:47.994Z</time></trkpt><trkpt lat="44.9988733" lon="8.2787517"><ele>271.0</ele><time>2026-04-12T09:51:48.996Z</time></trkpt><trkpt lat="44.9988883" lon="8.2789083"><ele>271.0</ele><time>2026-04-12T09:51:49.995Z</time></trkpt><trkpt lat="44.998915" lon="8.2790933"><ele>271.0</ele><time>2026-04-12T09:51:50.994Z</time></trkpt><trkpt lat="44.99894" lon="8.2792867"><ele>271.0</ele><time>2026-04-12T09:51:51.993Z</time></trkpt><trkpt lat="44.9989667" lon="8.2794767"><ele>270.0</ele><time>2026-04-12T09:51:52.998Z</time></trkpt><trkpt lat="44.998995" lon="8.2796733"><ele>269.0</ele><time>2026-04-12T09:51:53.994Z</time></trkpt><trkpt lat="44.99902" lon="8.27987"><ele>268.0</ele><time>2026-04-12T09:51:54.997Z</time></trkpt><trkpt lat="44.9990417" lon="8.2800633"><ele>267.0</ele><time>2026-04-12T09:51:55.995Z</time></trkpt><trkpt lat="44.9990583" lon="8.28025"><ele>265.75</ele><time>2026-04-12T09:51:56.997Z</time></trkpt><trkpt lat="44.999075" lon="8.2804333"><ele>264.5</ele><time>2026-04-12T09:51:57.997Z</time></trkpt><trkpt lat="44.9990917" lon="8.2806133"><ele>263.25</ele><time>2026-04-12T09:51:58.996Z</time></trkpt><trkpt lat="44.99911" lon="8.28079"><ele>262.0</ele><time>2026-04-12T09:51:59.997Z</time></trkpt><trkpt lat="44.9991267" lon="8.2809717"><ele>261.25</ele><time>2026-04-12T09:52:00.999Z</time></trkpt><trkpt lat="44.999135" lon="8.2811533"><ele>260.5</ele><time>2026-04-12T09:52:01.995Z</time></trkpt><trkpt lat="44.9991483" lon="8.281335"><ele>259.75</ele><time>2026-04-12T09:52:02.997Z</time></trkpt><trkpt lat="44.9991567" lon="8.2815167"><ele>259.0</ele><time>2026-04-12T09:52:03.998Z</time></trkpt><trkpt lat="44.999155" lon="8.2816983"><ele>258.0</ele><time>2026-04-12T09:52:04.993Z</time></trkpt><trkpt lat="44.9991367" lon="8.2818817"><ele>257.0</ele><time>2026-04-12T09:52:05.997Z</time></trkpt><trkpt lat="44.999105" lon="8.2820617"><ele>256.0</ele><time>2026-04-12T09:52:06.995Z</time></trkpt><trkpt lat="44.999075" lon="8.2822433"><ele>255.0</ele><time>2026-04-12T09:52:07.995Z</time></trkpt><trkpt lat="44.99907" lon="8.2824267"><ele>254.0</ele><time>2026-04-12T09:52:08.995Z</time></trkpt><trkpt lat="44.999095" lon="8.282605"><ele>253.0</ele><time>2026-04-12T09:52:09.995Z</time></trkpt><trkpt lat="44.999145" lon="8.2827817"><ele>252.0</ele><time>2026-04-12T09:52:11Z</time></trkpt><trkpt lat="44.9992333" lon="8.2829367"><ele>251.0</ele><time>2026-04-12T09:52:11.993Z</time></trkpt><trkpt lat="44.9993533" lon="8.2830733"><ele>247.0</ele><time>2026-04-12T09:52:12.994Z</time></trkpt><trkpt lat="44.9994933" lon="8.2831883"><ele>243.0</ele><time>2026-04-12T09:52:13.996Z</time></trkpt><trkpt lat="44.9996383" lon="8.2832933"><ele>239.0</ele><time>2026-04-12T09:52:14.997Z</time></trkpt><trkpt lat="44.9997817" lon="8.28339"><ele>239.0</ele><time>2026-04-12T09:52:16Z</time></trkpt><trkpt lat="44.9999217" lon="8.2834933"><ele>239.0</ele><time>2026-04-12T09:52:16.997Z</time></trkpt><trkpt lat="45.0000533" lon="8.2836033"><ele>239.0</ele><time>2026-04-12T09:52:17.996Z</time></trkpt><trkpt lat="45.0001667" lon="8.2837283"><ele>239.0</ele><time>2026-04-12T09:52:18.994Z</time></trkpt><trkpt lat="45.0002583" lon="8.2838783"><ele>239.0</ele><time>2026-04-12T09:52:19.991Z</time></trkpt><trkpt lat="45.0003333" lon="8.2840467"><ele>239.0</ele><time>2026-04-12T09:52:20.996Z</time></trkpt><trkpt lat="45.0003983" lon="8.28423"><ele>239.0</ele><time>2026-04-12T09:52:21.994Z</time></trkpt><trkpt lat="45.0004517" lon="8.2844183"><ele>238.75</ele><time>2026-04-12T09:52:22.996Z</time></trkpt><trkpt lat="45.000495" lon="8.2846133"><ele>238.5</ele><time>2026-04-12T09:52:23.994Z</time></trkpt><trkpt lat="45.0005267" lon="8.2848217"><ele>238.25</ele><time>2026-04-12T09:52:24.995Z</time></trkpt><trkpt lat="45.0005367" lon="8.2850367"><ele>238.0</ele><time>2026-04-12T09:52:25.995Z</time></trkpt><trkpt lat="45.00052" lon="8.28526"><ele>237.0</ele><time>2026-04-12T09:52:27Z</time></trkpt><trkpt lat="45.0004767" lon="8.2854783"><ele>236.0</ele><time>2026-04-12T09:52:27.996Z</time></trkpt><trkpt lat="45.000415" lon="8.285695"><ele>235.0</ele><time>2026-04-12T09:52:29Z</time></trkpt><trkpt lat="45.0003367" lon="8.2858917"><ele>235.0</ele><time>2026-04-12T09:52:29.995Z</time></trkpt><trkpt lat="45.0002517" lon="8.286095"><ele>235.0</ele><time>2026-04-12T09:52:30.999Z</time></trkpt><trkpt lat="45.0001667" lon="8.286295"><ele>235.0</ele><time>2026-04-12T09:52:31.999Z</time></trkpt><trkpt lat="45.0000933" lon="8.286495"><ele>236.5</ele><time>2026-04-12T09:52:32.993Z</time></trkpt><trkpt lat="45.0000517" lon="8.2866917"><ele>238.0</ele><time>2026-04-12T09:52:33.998Z</time></trkpt><trkpt lat="45.0000433" lon="8.2868833"><ele>239.5</ele><time>2026-04-12T09:52:34.997Z</time></trkpt><trkpt lat="45.0000717" lon="8.2870767"><ele>241.0</ele><time>2026-04-12T09:52:35.997Z</time></trkpt><trkpt lat="45.0001267" lon="8.2872633"><ele>241.0</ele><time>2026-04-12T09:52:36.999Z</time></trkpt><trkpt lat="45.00019" lon="8.2874533"><ele>241.0</ele><time>2026-04-12T09:52:37.994Z</time></trkpt><trkpt lat="45.0002467" lon="8.2876533"><ele>241.0</ele><time>2026-04-12T09:52:38.997Z</time></trkpt><trkpt lat="45.000285" lon="8.2878583"><ele>241.0</ele><time>2026-04-12T09:52:40.004Z</time></trkpt><trkpt lat="45.0003067" lon="8.2880667"><ele>241.0</ele><time>2026-04-12T09:52:40.995Z</time></trkpt><trkpt lat="45.0003167" lon="8.288275"><ele>241.0</ele><time>2026-04-12T09:52:41.999Z</time></trkpt><trkpt lat="45.0003217" lon="8.28848"><ele>241.0</ele><time>2026-04-12T09:52:42.997Z</time></trkpt><trkpt lat="45.0003267" lon="8.288685"><ele>240.75</ele><time>2026-04-12T09:52:43.995Z</time></trkpt><trkpt lat="45.0003283" lon="8.2888833"><ele>240.5</ele><time>2026-04-12T09:52:44.996Z</time></trkpt><trkpt lat="45.000325" lon="8.2890783"><ele>240.25</ele><time>2026-04-12T09:52:45.996Z</time></trkpt><trkpt lat="45.0003083" lon="8.2892667"><ele>240.0</ele><time>2026-04-12T09:52:46.998Z</time></trkpt><trkpt lat="45.0002733" lon="8.28945"><ele>240.75</ele><time>2026-04-12T09:52:47.998Z</time></trkpt><trkpt lat="45.0002183" lon="8.289615"><ele>241.5</ele><time>2026-04-12T09:52:48.993Z</time></trkpt><trkpt lat="45.0001467" lon="8.289755"><ele>242.25</ele><time>2026-04-12T09:52:49.997Z</time></trkpt><trkpt lat="45.00005" lon="8.28987"><ele>243.0</ele><time>2026-04-12T09:52:50.995Z</time></trkpt><trkpt lat="44.9999367" lon="8.2899683"><ele>245.25</ele><time>2026-04-12T09:52:51.993Z</time></trkpt><trkpt lat="44.99981" lon="8.29004"><ele>247.5</ele><time>2026-04-12T09:52:52.996Z</time></trkpt><trkpt lat="44.9996883" lon="8.2901033"><ele>249.75</ele><time>2026-04-12T09:52:53.996Z</time></trkpt><trkpt lat="44.9995733" lon="8.2901667"><ele>252.0</ele><time>2026-04-12T09:52:54.996Z</time></trkpt><trkpt lat="44.99948" lon="8.2902583"><ele>252.0</ele><time>2026-04-12T09:52:56.001Z</time></trkpt><trkpt lat="44.9994133" lon="8.290375"><ele>252.0</ele><time>2026-04-12T09:52:56.996Z</time></trkpt><trkpt lat="44.99938" lon="8.2905267"><ele>252.0</ele><time>2026-04-12T09:52:57.994Z</time></trkpt><trkpt lat="44.9993767" lon="8.2906817"><ele>252.0</ele><time>2026-04-12T09:52:58.998Z</time></trkpt><trkpt lat="44.9994067" lon="8.2908367"><ele>252.0</ele><time>2026-04-12T09:52:59.997Z</time></trkpt><trkpt lat="44.9994567" lon="8.2909917"><ele>254.75</ele><time>2026-04-12T09:53:00.998Z</time></trkpt><trkpt lat="44.99952" lon="8.29115"><ele>257.5</ele><time>2026-04-12T09:53:01.999Z</time></trkpt><trkpt lat="44.9995917" lon="8.2913133"><ele>260.25</ele><time>2026-04-12T09:53:02.995Z</time></trkpt><trkpt lat="44.9996617" lon="8.291485"><ele>263.0</ele><time>2026-04-12T09:53:03.994Z</time></trkpt><trkpt lat="44.999735" lon="8.29166"><ele>263.0</ele><time>2026-04-12T09:53:04.999Z</time></trkpt><trkpt lat="44.9998067" lon="8.2918417"><ele>263.0</ele><time>2026-04-12T09:53:05.997Z</time></trkpt><trkpt lat="44.9998817" lon="8.292025"><ele>263.0</ele><time>2026-04-12T09:53:06.992Z</time></trkpt><trkpt lat="44.999955" lon="8.2922133"><ele>263.0</ele><time>2026-04-12T09:53:07.994Z</time></trkpt><trkpt lat="45.0000267" lon="8.2923983"><ele>261.25</ele><time>2026-04-12T09:53:08.999Z</time></trkpt><trkpt lat="45.0000983" lon="8.292585"><ele>259.5</ele><time>2026-04-12T09:53:09.997Z</time></trkpt><trkpt lat="45.0001733" lon="8.29277"><ele>257.75</ele><time>2026-04-12T09:53:10.995Z</time></trkpt><trkpt lat="45.0002483" lon="8.29295"><ele>256.0</ele><time>2026-04-12T09:53:11.993Z</time></trkpt><trkpt lat="45.0003233" lon="8.293125"><ele>255.25</ele><time>2026-04-12T09:53:12.994Z</time></trkpt><trkpt lat="45.0004" lon="8.29329"><ele>254.5</ele><time>2026-04-12T09:53:13.997Z</time></trkpt><trkpt lat="45.0004683" lon="8.2934467"><ele>253.75</ele><time>2026-04-12T09:53:14.996Z</time></trkpt><trkpt lat="45.0005283" lon="8.293595"><ele>253.0</ele><time>2026-04-12T09:53:15.997Z</time></trkpt><trkpt lat="45.0005717" lon="8.293735"><ele>253.0</ele><time>2026-04-12T09:53:16.998Z</time></trkpt><trkpt lat="45.0005867" lon="8.29387"><ele>253.0</ele><time>2026-04-12T09:53:17.996Z</time></trkpt><trkpt lat="45.0005733" lon="8.2940083"><ele>253.0</ele><time>2026-04-12T09:53:18.995Z</time></trkpt><trkpt lat="45.0005467" lon="8.294145"><ele>253.0</ele><time>2026-04-12T09:53:20Z</time></trkpt><trkpt lat="45.0005017" lon="8.294285"><ele>253.0</ele><time>2026-04-12T09:53:20.994Z</time></trkpt><trkpt lat="45.00045" lon="8.2944267"><ele>254.4</ele><time>2026-04-12T09:53:21.995Z</time></trkpt><trkpt lat="45.0004" lon="8.29457"><ele>255.8</ele><time>2026-04-12T09:53:22.992Z</time></trkpt><trkpt lat="45.0003533" lon="8.2947117"><ele>257.2</ele><time>2026-04-12T09:53:23.997Z</time></trkpt><trkpt lat="45.0003017" lon="8.29485"><ele>258.6</ele><time>2026-04-12T09:53:24.997Z</time></trkpt><trkpt lat="45.0002533" lon="8.2949833"><ele>260.0</ele><time>2026-04-12T09:53:25.996Z</time></trkpt><trkpt lat="45.0002117" lon="8.29513"><ele>260.8</ele><time>2026-04-12T09:53:26.997Z</time></trkpt><trkpt lat="45.0001733" lon="8.29528"><ele>261.6</ele><time>2026-04-12T09:53:27.995Z</time></trkpt><trkpt lat="45.000125" lon="8.295415"><ele>262.4</ele><time>2026-04-12T09:53:28.993Z</time></trkpt><trkpt lat="45.0001033" lon="8.295565"><ele>263.2</ele><time>2026-04-12T09:53:29.994Z</time></trkpt><trkpt lat="45.0000667" lon="8.295695"><ele>264.0</ele><time>2026-04-12T09:53:30.997Z</time></trkpt><trkpt lat="45.00004" lon="8.29582"><ele>264.6666666666667</ele><time>2026-04-12T09:53:31.992Z</time></trkpt><trkpt lat="45.0000033" lon="8.2959367"><ele>265.3333333333333</ele><time>2026-04-12T09:53:32.996Z</time></trkpt><trkpt lat="44.9999767" lon="8.296055"><ele>266.0</ele><time>2026-04-12T09:53:33.994Z</time></trkpt><trkpt lat="44.9999567" lon="8.29617"><ele>266.66666666666663</ele><time>2026-04-12T09:53:34.997Z</time></trkpt><trkpt lat="44.9999317" lon="8.2963033"><ele>267.3333333333333</ele><time>2026-04-12T09:53:35.995Z</time></trkpt><trkpt lat="44.9999117" lon="8.29642"><ele>268.0</ele><time>2026-04-12T09:53:36.996Z</time></trkpt><trkpt lat="44.999895" lon="8.29654"><ele>268.3333333333333</ele><time>2026-04-12T09:53:37.995Z</time></trkpt><trkpt lat="44.9998733" lon="8.2966467"><ele>268.66666666666663</ele><time>2026-04-12T09:53:39.001Z</time></trkpt><trkpt lat="44.999835" lon="8.2967683"><ele>269.0</ele><time>2026-04-12T09:53:39.993Z</time></trkpt><trkpt lat="44.9998" lon="8.2968833"><ele>269.3333333333333</ele><time>2026-04-12T09:53:40.998Z</time></trkpt><trkpt lat="44.9997667" lon="8.296995"><ele>269.6666666666667</ele><time>2026-04-12T09:53:41.994Z</time></trkpt><trkpt lat="44.999745" lon="8.2971183"><ele>270.0</ele><time>2026-04-12T09:53:42.996Z</time></trkpt><trkpt lat="44.9997033" lon="8.2972467"><ele>270.0</ele><time>2026-04-12T09:53:43.995Z</time></trkpt><trkpt lat="44.9996583" lon="8.2973733"><ele>270.0</ele><time>2026-04-12T09:53:44.995Z</time></trkpt><trkpt lat="44.999615" lon="8.2974967"><ele>270.0</ele><time>2026-04-12T09:53:45.995Z</time></trkpt><trkpt lat="44.9995183" lon="8.2975983"><ele>270.0</ele><time>2026-04-12T09:53:46.996Z</time></trkpt><trkpt lat="44.99943" lon="8.297695"><ele>270.0</ele><time>2026-04-12T09:53:47.994Z</time></trkpt><trkpt lat="44.99936" lon="8.2977917"><ele>270.0</ele><time>2026-04-12T09:53:48.995Z</time></trkpt><trkpt lat="44.99929" lon="8.2978617"><ele>270.0</ele><time>2026-04-12T09:53:50Z</time></trkpt><trkpt lat="44.9992117" lon="8.297895"><ele>270.0</ele><time>2026-04-12T09:53:50.993Z</time></trkpt><trkpt lat="44.9991217" lon="8.29791"><ele>270.0</ele><time>2026-04-12T09:53:51.998Z</time></trkpt><trkpt lat="44.9990233" lon="8.2979017"><ele>270.0</ele><time>2026-04-12T09:53:52.995Z</time></trkpt><trkpt lat="44.9989267" lon="8.2978933"><ele>271.0</ele><time>2026-04-12T09:53:53.998Z</time></trkpt><trkpt lat="44.998825" lon="8.297865"><ele>272.0</ele><time>2026-04-12T09:53:55Z</time></trkpt><trkpt lat="44.99873" lon="8.297865"><ele>273.0</ele><time>2026-04-12T09:53:55.993Z</time></trkpt><trkpt lat="44.99864" lon="8.2978967"><ele>274.0</ele><time>2026-04-12T09:53:56.999Z</time></trkpt><trkpt lat="44.9985567" lon="8.297925"><ele>275.0</ele><time>2026-04-12T09:53:57.995Z</time></trkpt><trkpt lat="44.998475" lon="8.29796"><ele>275.0</ele><time>2026-04-12T09:53:58.991Z</time></trkpt><trkpt lat="44.9983883" lon="8.2979867"><ele>275.0</ele><time>2026-04-12T09:53:59.997Z</time></trkpt><trkpt lat="44.9983317" lon="8.298085"><ele>275.0</ele><time>2026-04-12T09:54:00.996Z</time></trkpt><trkpt lat="44.99825" lon="8.29813"><ele>275.0</ele><time>2026-04-12T09:54:02.003Z</time></trkpt><trkpt lat="44.99816" lon="8.2981117"><ele>275.0</ele><time>2026-04-12T09:54:02.995Z</time></trkpt><trkpt lat="44.998095" lon="8.2981383"><ele>275.0</ele><time>2026-04-12T09:54:03.992Z</time></trkpt><trkpt lat="44.998035" lon="8.2981817"><ele>275.1666666666667</ele><time>2026-04-12T09:54:04.998Z</time></trkpt><trkpt lat="44.997985" lon="8.2982433"><ele>275.33333333333337</ele><time>2026-04-12T09:54:05.999Z</time></trkpt><trkpt lat="44.9979367" lon="8.2983267"><ele>275.5</ele><time>2026-04-12T09:54:06.996Z</time></trkpt><trkpt lat="44.9979033" lon="8.2984233"><ele>275.6666666666667</ele><time>2026-04-12T09:54:07.997Z</time></trkpt><trkpt lat="44.9978883" lon="8.29853"><ele>275.8333333333333</ele><time>2026-04-12T09:54:08.996Z</time></trkpt><trkpt lat="44.997875" lon="8.298625"><ele>276.0</ele><time>2026-04-12T09:54:09.995Z</time></trkpt><trkpt lat="44.99798" lon="8.2987967"><ele>276.0</ele><time>2026-04-12T09:54:10.997Z</time></trkpt><trkpt lat="44.9980267" lon="8.2989133"><ele>276.0</ele><time>2026-04-12T09:54:11.996Z</time></trkpt><trkpt lat="44.99808" lon="8.2990417"><ele>276.0</ele><time>2026-04-12T09:54:12.997Z</time></trkpt><trkpt lat="44.99813" lon="8.2991733"><ele>276.0</ele><time>2026-04-12T09:54:13.997Z</time></trkpt><trkpt lat="44.9981767" lon="8.2993033"><ele>276.0</ele><time>2026-04-12T09:54:14.998Z</time></trkpt><trkpt lat="44.9982167" lon="8.29943"><ele>276.6</ele><time>2026-04-12T09:54:16.001Z</time></trkpt><trkpt lat="44.99826" lon="8.2995567"><ele>277.20000000000005</ele><time>2026-04-12T09:54:16.999Z</time></trkpt><trkpt lat="44.998315" lon="8.299675"><ele>277.79999999999995</ele><time>2026-04-12T09:54:18Z</time></trkpt><trkpt lat="44.9983617" lon="8.2998"><ele>278.4</ele><time>2026-04-12T09:54:19.003Z</time></trkpt><trkpt lat="44.9984033" lon="8.2999133"><ele>279.0</ele><time>2026-04-12T09:54:19.996Z</time></trkpt><trkpt lat="44.9984483" lon="8.3000133"><ele>279.0</ele><time>2026-04-12T09:54:20.996Z</time></trkpt><trkpt lat="44.9984867" lon="8.3001"><ele>279.0</ele><time>2026-04-12T09:54:21.994Z</time></trkpt><trkpt lat="44.99853" lon="8.3001683"><ele>279.0</ele><time>2026-04-12T09:54:22.993Z</time></trkpt><trkpt lat="44.9986133" lon="8.3002617"><ele>279.0</ele><time>2026-04-12T09:54:24.995Z</time></trkpt><trkpt lat="44.998675" lon="8.3003183"><ele>279.0</ele><time>2026-04-12T09:54:27.001Z</time></trkpt><trkpt lat="44.9987133" lon="8.3004133"><ele>279.0</ele><time>2026-04-12T09:54:28.996Z</time></trkpt><trkpt lat="44.9986767" lon="8.30053"><ele>277.0</ele><time>2026-04-12T09:54:30.996Z</time></trkpt><trkpt lat="44.9985783" lon="8.3006067"><ele>275.0</ele><time>2026-04-12T09:54:31.995Z</time></trkpt><trkpt lat="44.9985217" lon="8.300735"><ele>273.0</ele><time>2026-04-12T09:54:33.003Z</time></trkpt><trkpt lat="44.9984133" lon="8.300825"><ele>271.0</ele><time>2026-04-12T09:54:33.996Z</time></trkpt><trkpt lat="44.99834" lon="8.3009283"><ele>269.0</ele><time>2026-04-12T09:54:34.997Z</time></trkpt><trkpt lat="44.9982683" lon="8.30103"><ele>268.59999999999997</ele><time>2026-04-12T09:54:35.997Z</time></trkpt><trkpt lat="44.9982083" lon="8.3011183"><ele>268.2</ele><time>2026-04-12T09:54:36.997Z</time></trkpt><trkpt lat="44.9981467" lon="8.3012183"><ele>267.79999999999995</ele><time>2026-04-12T09:54:37.995Z</time></trkpt><trkpt lat="44.9980917" lon="8.3013117"><ele>267.4</ele><time>2026-04-12T09:54:39Z</time></trkpt><trkpt lat="44.9980417" lon="8.301405"><ele>267.0</ele><time>2026-04-12T09:54:39.992Z</time></trkpt><trkpt lat="44.9979533" lon="8.3015217"><ele>265.3333333333333</ele><time>2026-04-12T09:54:41.995Z</time></trkpt><trkpt lat="44.9979067" lon="8.3015967"><ele>263.6666666666667</ele><time>2026-04-12T09:54:42.993Z</time></trkpt><trkpt lat="44.9978517" lon="8.3016633"><ele>262.0</ele><time>2026-04-12T09:54:43.996Z</time></trkpt><trkpt lat="44.997795" lon="8.3017467"><ele>260.33333333333337</ele><time>2026-04-12T09:54:44.999Z</time></trkpt><trkpt lat="44.9977217" lon="8.30183"><ele>258.6666666666667</ele><time>2026-04-12T09:54:45.995Z</time></trkpt><trkpt lat="44.9976283" lon="8.30189"><ele>257.0</ele><time>2026-04-12T09:54:46.994Z</time></trkpt><trkpt lat="44.9975233" lon="8.3019717"><ele>257.0</ele><time>2026-04-12T09:54:47.999Z</time></trkpt><trkpt lat="44.9974217" lon="8.302075"><ele>257.0</ele><time>2026-04-12T09:54:48.996Z</time></trkpt><trkpt lat="44.99731" lon="8.3021717"><ele>257.0</ele><time>2026-04-12T09:54:49.996Z</time></trkpt><trkpt lat="44.9971983" lon="8.3022683"><ele>257.0</ele><time>2026-04-12T09:54:50.998Z</time></trkpt><trkpt lat="44.9970933" lon="8.30237"><ele>256.25</ele><time>2026-04-12T09:54:51.995Z</time></trkpt><trkpt lat="44.9969883" lon="8.3024617"><ele>255.5</ele><time>2026-04-12T09:54:52.994Z</time></trkpt><trkpt lat="44.99689" lon="8.302565"><ele>254.75</ele><time>2026-04-12T09:54:53.993Z</time></trkpt><trkpt lat="44.99678" lon="8.302655"><ele>254.0</ele><time>2026-04-12T09:54:54.998Z</time></trkpt><trkpt lat="44.9966733" lon="8.3027467"><ele>254.25</ele><time>2026-04-12T09:54:55.998Z</time></trkpt><trkpt lat="44.9965633" lon="8.3028333"><ele>254.5</ele><time>2026-04-12T09:54:56.998Z</time></trkpt><trkpt lat="44.996455" lon="8.30293"><ele>254.75</ele><time>2026-04-12T09:54:57.994Z</time></trkpt><trkpt lat="44.9963417" lon="8.303025"><ele>255.0</ele><time>2026-04-12T09:54:58.996Z</time></trkpt><trkpt lat="44.9962317" lon="8.3031283"><ele>253.5</ele><time>2026-04-12T09:54:59.995Z</time></trkpt><trkpt lat="44.9961217" lon="8.3032283"><ele>252.0</ele><time>2026-04-12T09:55:00.996Z</time></trkpt><trkpt lat="44.9960117" lon="8.3033333"><ele>250.5</ele><time>2026-04-12T09:55:01.998Z</time></trkpt><trkpt lat="44.9959" lon="8.3034383"><ele>249.0</ele><time>2026-04-12T09:55:02.998Z</time></trkpt><trkpt lat="44.9957967" lon="8.3035467"><ele>249.0</ele><time>2026-04-12T09:55:03.994Z</time></trkpt><trkpt lat="44.9956967" lon="8.3036567"><ele>249.0</ele><time>2026-04-12T09:55:04.993Z</time></trkpt><trkpt lat="44.995605" lon="8.303775"><ele>249.0</ele><time>2026-04-12T09:55:05.997Z</time></trkpt><trkpt lat="44.99552" lon="8.30389"><ele>249.0</ele><time>2026-04-12T09:55:06.995Z</time></trkpt><trkpt lat="44.995445" lon="8.3040267"><ele>248.0</ele><time>2026-04-12T09:55:07.998Z</time></trkpt><trkpt lat="44.9953767" lon="8.3041733"><ele>247.0</ele><time>2026-04-12T09:55:09Z</time></trkpt><trkpt lat="44.99532" lon="8.3043233"><ele>246.0</ele><time>2026-04-12T09:55:09.997Z</time></trkpt><trkpt lat="44.9952583" lon="8.3044883"><ele>245.0</ele><time>2026-04-12T09:55:10.996Z</time></trkpt><trkpt lat="44.9951967" lon="8.3046567"><ele>245.5</ele><time>2026-04-12T09:55:12Z</time></trkpt><trkpt lat="44.995135" lon="8.30482"><ele>246.0</ele><time>2026-04-12T09:55:12.999Z</time></trkpt><trkpt lat="44.9950717" lon="8.3049917"><ele>246.5</ele><time>2026-04-12T09:55:13.999Z</time></trkpt><trkpt lat="44.995005" lon="8.3051617"><ele>247.0</ele><time>2026-04-12T09:55:14.995Z</time></trkpt><trkpt lat="44.9949383" lon="8.3053283"><ele>247.0</ele><time>2026-04-12T09:55:15.996Z</time></trkpt><trkpt lat="44.9948767" lon="8.3054833"><ele>247.0</ele><time>2026-04-12T09:55:16.994Z</time></trkpt><trkpt lat="44.9948133" lon="8.3056467"><ele>247.0</ele><time>2026-04-12T09:55:17.994Z</time></trkpt><trkpt lat="44.99475" lon="8.3058183"><ele>247.0</ele><time>2026-04-12T09:55:18.994Z</time></trkpt><trkpt lat="44.9946967" lon="8.3059867"><ele>246.5</ele><time>2026-04-12T09:55:19.993Z</time></trkpt><trkpt lat="44.99464" lon="8.3061633"><ele>246.0</ele><time>2026-04-12T09:55:20.996Z</time></trkpt><trkpt lat="44.99458" lon="8.3063383"><ele>245.5</ele><time>2026-04-12T09:55:21.996Z</time></trkpt><trkpt lat="44.994515" lon="8.3065017"><ele>245.0</ele><time>2026-04-12T09:55:22.996Z</time></trkpt><trkpt lat="44.99445" lon="8.306665"><ele>243.25</ele><time>2026-04-12T09:55:23.996Z</time></trkpt><trkpt lat="44.994385" lon="8.3068217"><ele>241.5</ele><time>2026-04-12T09:55:24.997Z</time></trkpt><trkpt lat="44.9943167" lon="8.30698"><ele>239.75</ele><time>2026-04-12T09:55:25.994Z</time></trkpt><trkpt lat="44.9942517" lon="8.3071383"><ele>238.0</ele><time>2026-04-12T09:55:26.998Z</time></trkpt><trkpt lat="44.994185" lon="8.3073033"><ele>240.75</ele><time>2026-04-12T09:55:28.001Z</time></trkpt><trkpt lat="44.99412" lon="8.307475"><ele>243.5</ele><time>2026-04-12T09:55:28.997Z</time></trkpt><trkpt lat="44.99406" lon="8.3076467"><ele>246.25</ele><time>2026-04-12T09:55:29.999Z</time></trkpt><trkpt lat="44.9939917" lon="8.30782"><ele>249.0</ele><time>2026-04-12T09:55:30.995Z</time></trkpt><trkpt lat="44.9939067" lon="8.3079667"><ele>249.25</ele><time>2026-04-12T09:55:31.998Z</time></trkpt><trkpt lat="44.9938167" lon="8.308095"><ele>249.5</ele><time>2026-04-12T09:55:32.996Z</time></trkpt><trkpt lat="44.9937133" lon="8.3081917"><ele>249.75</ele><time>2026-04-12T09:55:33.994Z</time></trkpt><trkpt lat="44.9935933" lon="8.30825"><ele>250.0</ele><time>2026-04-12T09:55:34.995Z</time></trkpt><trkpt lat="44.9934683" lon="8.3083"><ele>251.25</ele><time>2026-04-12T09:55:35.996Z</time></trkpt><trkpt lat="44.993335" lon="8.30834"><ele>252.5</ele><time>2026-04-12T09:55:36.996Z</time></trkpt><trkpt lat="44.9931933" lon="8.3083833"><ele>253.75</ele><time>2026-04-12T09:55:37.993Z</time></trkpt><trkpt lat="44.99304" lon="8.3084283"><ele>255.0</ele><time>2026-04-12T09:55:38.997Z</time></trkpt><trkpt lat="44.9928833" lon="8.30848"><ele>255.0</ele><time>2026-04-12T09:55:39.999Z</time></trkpt><trkpt lat="44.99273" lon="8.3085317"><ele>255.0</ele><time>2026-04-12T09:55:40.994Z</time></trkpt><trkpt lat="44.9925817" lon="8.308575"><ele>255.0</ele><time>2026-04-12T09:55:41.996Z</time></trkpt><trkpt lat="44.9924483" lon="8.3086217"><ele>255.0</ele><time>2026-04-12T09:55:42.994Z</time></trkpt><trkpt lat="44.9923317" lon="8.3086667"><ele>255.0</ele><time>2026-04-12T09:55:43.996Z</time></trkpt><trkpt lat="44.9922383" lon="8.3087383"><ele>255.0</ele><time>2026-04-12T09:55:44.995Z</time></trkpt><trkpt lat="44.9921717" lon="8.3088383"><ele>255.0</ele><time>2026-04-12T09:55:45.995Z</time></trkpt><trkpt lat="44.9921317" lon="8.3089583"><ele>255.0</ele><time>2026-04-12T09:55:46.996Z</time></trkpt><trkpt lat="44.992125" lon="8.3090983"><ele>255.0</ele><time>2026-04-12T09:55:47.997Z</time></trkpt><trkpt lat="44.9921517" lon="8.3092383"><ele>256.0</ele><time>2026-04-12T09:55:48.997Z</time></trkpt><trkpt lat="44.992205" lon="8.3093717"><ele>257.0</ele><time>2026-04-12T09:55:49.995Z</time></trkpt><trkpt lat="44.9922867" lon="8.3095"><ele>258.0</ele><time>2026-04-12T09:55:50.997Z</time></trkpt><trkpt lat="44.99238" lon="8.3096217"><ele>259.0</ele><time>2026-04-12T09:55:51.994Z</time></trkpt><trkpt lat="44.9924833" lon="8.30975"><ele>260.25</ele><time>2026-04-12T09:55:52.997Z</time></trkpt><trkpt lat="44.992585" lon="8.3098783"><ele>261.5</ele><time>2026-04-12T09:55:54.001Z</time></trkpt><trkpt lat="44.9926833" lon="8.3100317"><ele>262.75</ele><time>2026-04-12T09:55:54.994Z</time></trkpt><trkpt lat="44.9927667" lon="8.3102067"><ele>264.0</ele><time>2026-04-12T09:55:55.995Z</time></trkpt><trkpt lat="44.9928383" lon="8.310395"><ele>263.6666666666667</ele><time>2026-04-12T09:55:56.999Z</time></trkpt><trkpt lat="44.9929067" lon="8.3105967"><ele>263.33333333333337</ele><time>2026-04-12T09:55:57.995Z</time></trkpt><trkpt lat="44.9929717" lon="8.3107967"><ele>263.0</ele><time>2026-04-12T09:55:58.996Z</time></trkpt><trkpt lat="44.9930367" lon="8.3109933"><ele>263.0</ele><time>2026-04-12T09:55:59.999Z</time></trkpt><trkpt lat="44.9931017" lon="8.3111833"><ele>263.0</ele><time>2026-04-12T09:56:01.002Z</time></trkpt><trkpt lat="44.99316" lon="8.3113583"><ele>263.0</ele><time>2026-04-12T09:56:01.996Z</time></trkpt><trkpt lat="44.99321" lon="8.311525"><ele>263.0</ele><time>2026-04-12T09:56:02.994Z</time></trkpt><trkpt lat="44.9932517" lon="8.3116833"><ele>262.0</ele><time>2026-04-12T09:56:03.995Z</time></trkpt><trkpt lat="44.993265" lon="8.31184"><ele>261.0</ele><time>2026-04-12T09:56:04.994Z</time></trkpt><trkpt lat="44.99325" lon="8.3119933"><ele>260.0</ele><time>2026-04-12T09:56:05.992Z</time></trkpt><trkpt lat="44.9931983" lon="8.31214"><ele>259.0</ele><time>2026-04-12T09:56:06.996Z</time></trkpt><trkpt lat="44.993115" lon="8.3122633"><ele>257.66666666666663</ele><time>2026-04-12T09:56:08.001Z</time></trkpt><trkpt lat="44.9929983" lon="8.312365"><ele>256.3333333333333</ele><time>2026-04-12T09:56:08.998Z</time></trkpt><trkpt lat="44.99286" lon="8.3124517"><ele>255.0</ele><time>2026-04-12T09:56:09.998Z</time></trkpt><trkpt lat="44.9927033" lon="8.3125467"><ele>255.0</ele><time>2026-04-12T09:56:10.996Z</time></trkpt><trkpt lat="44.9925317" lon="8.3126533"><ele>255.0</ele><time>2026-04-12T09:56:11.994Z</time></trkpt><trkpt lat="44.9923567" lon="8.312765"><ele>255.0</ele><time>2026-04-12T09:56:12.997Z</time></trkpt><trkpt lat="44.9921817" lon="8.3128783"><ele>254.0</ele><time>2026-04-12T09:56:13.997Z</time></trkpt><trkpt lat="44.9920067" lon="8.3129883"><ele>253.0</ele><time>2026-04-12T09:56:14.999Z</time></trkpt><trkpt lat="44.991835" lon="8.313095"><ele>252.0</ele><time>2026-04-12T09:56:15.998Z</time></trkpt><trkpt lat="44.9916617" lon="8.3131983"><ele>252.0</ele><time>2026-04-12T09:56:16.997Z</time></trkpt><trkpt lat="44.9914883" lon="8.3133033"><ele>252.0</ele><time>2026-04-12T09:56:18Z</time></trkpt><trkpt lat="44.9913183" lon="8.31341"><ele>252.0</ele><time>2026-04-12T09:56:18.998Z</time></trkpt><trkpt lat="44.9911483" lon="8.31352"><ele>252.0</ele><time>2026-04-12T09:56:20Z</time></trkpt><trkpt lat="44.9909767" lon="8.3136267"><ele>252.0</ele><time>2026-04-12T09:56:20.997Z</time></trkpt><trkpt lat="44.990805" lon="8.3137333"><ele>252.0</ele><time>2026-04-12T09:56:21.996Z</time></trkpt><trkpt lat="44.9906367" lon="8.31384"><ele>252.66666666666669</ele><time>2026-04-12T09:56:22.998Z</time></trkpt><trkpt lat="44.990475" lon="8.313945"><ele>253.33333333333334</ele><time>2026-04-12T09:56:23.996Z</time></trkpt><trkpt lat="44.9903367" lon="8.314055"><ele>254.0</ele><time>2026-04-12T09:56:24.995Z</time></trkpt><trkpt lat="44.9902217" lon="8.3141833"><ele>254.0</ele><time>2026-04-12T09:56:25.995Z</time></trkpt><trkpt lat="44.990135" lon="8.3143417"><ele>254.0</ele><time>2026-04-12T09:56:26.997Z</time></trkpt><trkpt lat="44.99007" lon="8.3145333"><ele>254.0</ele><time>2026-04-12T09:56:27.999Z</time></trkpt><trkpt lat="44.990015" lon="8.3147483"><ele>250.66666666666669</ele><time>2026-04-12T09:56:28.994Z</time></trkpt><trkpt lat="44.989965" lon="8.3149717"><ele>247.33333333333331</ele><time>2026-04-12T09:56:29.998Z</time></trkpt><trkpt lat="44.9899117" lon="8.3151967"><ele>244.0</ele><time>2026-04-12T09:56:30.995Z</time></trkpt><trkpt lat="44.989855" lon="8.3154217"><ele>245.66666666666666</ele><time>2026-04-12T09:56:31.994Z</time></trkpt><trkpt lat="44.9898" lon="8.3156517"><ele>247.33333333333331</ele><time>2026-04-12T09:56:32.996Z</time></trkpt><trkpt lat="44.9897433" lon="8.31588"><ele>249.0</ele><time>2026-04-12T09:56:33.996Z</time></trkpt><trkpt lat="44.9896883" lon="8.3161067"><ele>249.0</ele><time>2026-04-12T09:56:34.999Z</time></trkpt><trkpt lat="44.9896317" lon="8.3163317"><ele>249.0</ele><time>2026-04-12T09:56:35.994Z</time></trkpt><trkpt lat="44.9895767" lon="8.3165617"><ele>249.0</ele><time>2026-04-12T09:56:36.999Z</time></trkpt><trkpt lat="44.9895217" lon="8.316795"><ele>249.66666666666669</ele><time>2026-04-12T09:56:37.996Z</time></trkpt><trkpt lat="44.9894683" lon="8.3170283"><ele>250.33333333333334</ele><time>2026-04-12T09:56:38.996Z</time></trkpt><trkpt lat="44.9894117" lon="8.3172433"><ele>251.0</ele><time>2026-04-12T09:56:39.996Z</time></trkpt><trkpt lat="44.9893517" lon="8.3174433"><ele>251.5</ele><time>2026-04-12T09:56:40.997Z</time></trkpt><trkpt lat="44.9892883" lon="8.3176367"><ele>252.0</ele><time>2026-04-12T09:56:42Z</time></trkpt><trkpt lat="44.9892167" lon="8.3178217"><ele>252.5</ele><time>2026-04-12T09:56:42.998Z</time></trkpt><trkpt lat="44.9891333" lon="8.317995"><ele>253.0</ele><time>2026-04-12T09:56:43.993Z</time></trkpt><trkpt lat="44.9890417" lon="8.3181567"><ele>251.25</ele><time>2026-04-12T09:56:44.996Z</time></trkpt><trkpt lat="44.9889417" lon="8.3183067"><ele>249.5</ele><time>2026-04-12T09:56:45.992Z</time></trkpt><trkpt lat="44.9888333" lon="8.3184483"><ele>247.75</ele><time>2026-04-12T09:56:46.994Z</time></trkpt><trkpt lat="44.9887217" lon="8.318575"><ele>246.0</ele><time>2026-04-12T09:56:47.994Z</time></trkpt><trkpt lat="44.98861" lon="8.3186867"><ele>246.0</ele><time>2026-04-12T09:56:48.993Z</time></trkpt><trkpt lat="44.98851" lon="8.31878"><ele>246.0</ele><time>2026-04-12T09:56:49.992Z</time></trkpt><trkpt lat="44.9884267" lon="8.3188583"><ele>246.0</ele><time>2026-04-12T09:56:50.999Z</time></trkpt><trkpt lat="44.98836" lon="8.318915"><ele>246.0</ele><time>2026-04-12T09:56:51.996Z</time></trkpt><trkpt lat="44.9883033" lon="8.3189633"><ele>246.0</ele><time>2026-04-12T09:56:52.996Z</time></trkpt><trkpt lat="44.9882333" lon="8.3190217"><ele>246.0</ele><time>2026-04-12T09:56:54.994Z</time></trkpt><trkpt lat="44.9881917" lon="8.3191083"><ele>244.4</ele><time>2026-04-12T09:57:54.005Z</time></trkpt><trkpt lat="44.98807" lon="8.3192233"><ele>242.8</ele><time>2026-04-12T09:57:56Z</time></trkpt><trkpt lat="44.9879983" lon="8.3192883"><ele>241.20000000000002</ele><time>2026-04-12T09:57:56.993Z</time></trkpt><trkpt lat="44.987925" lon="8.3193533"><ele>239.60000000000002</ele><time>2026-04-12T09:57:57.995Z</time></trkpt><trkpt lat="44.9878467" lon="8.3194183"><ele>238.0</ele><time>2026-04-12T09:57:58.999Z</time></trkpt><trkpt lat="44.9877617" lon="8.31948"><ele>238.0</ele><time>2026-04-12T09:57:59.995Z</time></trkpt><trkpt lat="44.9876767" lon="8.3195367"><ele>238.0</ele><time>2026-04-12T09:58:00.994Z</time></trkpt><trkpt lat="44.987585" lon="8.3195917"><ele>238.0</ele><time>2026-04-12T09:58:02.002Z</time></trkpt><trkpt lat="44.9874933" lon="8.319645"><ele>238.0</ele><time>2026-04-12T09:58:02.997Z</time></trkpt><trkpt lat="44.9874017" lon="8.319695"><ele>238.0</ele><time>2026-04-12T09:58:03.993Z</time></trkpt><trkpt lat="44.9873083" lon="8.319745"><ele>238.0</ele><time>2026-04-12T09:58:04.998Z</time></trkpt><trkpt lat="44.987215" lon="8.3197983"><ele>238.0</ele><time>2026-04-12T09:58:05.998Z</time></trkpt><trkpt lat="44.9871233" lon="8.3198533"><ele>238.0</ele><time>2026-04-12T09:58:06.997Z</time></trkpt><trkpt lat="44.9870367" lon="8.3199083"><ele>238.0</ele><time>2026-04-12T09:58:07.994Z</time></trkpt><trkpt lat="44.986955" lon="8.3199583"><ele>238.0</ele><time>2026-04-12T09:58:09Z</time></trkpt><trkpt lat="44.9868717" lon="8.3200067"><ele>237.99999999999997</ele><time>2026-04-12T09:58:09.997Z</time></trkpt><trkpt lat="44.9867967" lon="8.320055"><ele>238.0</ele><time>2026-04-12T09:58:10.996Z</time></trkpt><trkpt lat="44.9867267" lon="8.3201083"><ele>238.0</ele><time>2026-04-12T09:58:11.996Z</time></trkpt><trkpt lat="44.9866583" lon="8.3201667"><ele>238.0</ele><time>2026-04-12T09:58:12.995Z</time></trkpt><trkpt lat="44.9866" lon="8.3202217"><ele>237.99999999999997</ele><time>2026-04-12T09:58:13.995Z</time></trkpt><trkpt lat="44.9865417" lon="8.3202833"><ele>238.0</ele><time>2026-04-12T09:58:14.997Z</time></trkpt><trkpt lat="44.9864933" lon="8.320355"><ele>238.33333333333331</ele><time>2026-04-12T09:58:15.999Z</time></trkpt><trkpt lat="44.986445" lon="8.3204283"><ele>238.66666666666666</ele><time>2026-04-12T09:58:17Z</time></trkpt><trkpt lat="44.9863983" lon="8.3205083"><ele>239.0</ele><time>2026-04-12T09:58:17.998Z</time></trkpt><trkpt lat="44.9863533" lon="8.32059"><ele>239.33333333333331</ele><time>2026-04-12T09:58:18.999Z</time></trkpt><trkpt lat="44.98631" lon="8.3206667"><ele>239.66666666666666</ele><time>2026-04-12T09:58:19.996Z</time></trkpt><trkpt lat="44.9862383" lon="8.3207917"><ele>240.0</ele><time>2026-04-12T09:58:21.995Z</time></trkpt><trkpt lat="44.98619" lon="8.3208683"><ele>239.2</ele><time>2026-04-12T09:58:23.995Z</time></trkpt><trkpt lat="44.9861383" lon="8.320965"><ele>238.4</ele><time>2026-04-12T09:58:26.996Z</time></trkpt><trkpt lat="44.9860833" lon="8.32107"><ele>237.60000000000002</ele><time>2026-04-12T09:58:28.997Z</time></trkpt><trkpt lat="44.9860183" lon="8.3211817"><ele>236.8</ele><time>2026-04-12T09:58:30.998Z</time></trkpt><trkpt lat="44.9859617" lon="8.3212917"><ele>236.0</ele><time>2026-04-12T09:58:32.996Z</time></trkpt><trkpt lat="44.985895" lon="8.3214117"><ele>237.75</ele><time>2026-04-12T09:58:34.995Z</time></trkpt><trkpt lat="44.9858217" lon="8.3215417"><ele>239.5</ele><time>2026-04-12T09:58:36.998Z</time></trkpt><trkpt lat="44.9857617" lon="8.3216717"><ele>241.25</ele><time>2026-04-12T09:58:38.996Z</time></trkpt><trkpt lat="44.9856983" lon="8.321805"><ele>243.0</ele><time>2026-04-12T09:58:41.001Z</time></trkpt><trkpt lat="44.9856383" lon="8.3219517"><ele>243.0</ele><time>2026-04-12T09:58:43.006Z</time></trkpt><trkpt lat="44.9855833" lon="8.322115"><ele>243.0</ele><time>2026-04-12T09:58:45Z</time></trkpt><trkpt lat="44.9855567" lon="8.3222033"><ele>243.0</ele><time>2026-04-12T09:58:45.995Z</time></trkpt><trkpt lat="44.9855283" lon="8.322295"><ele>243.0</ele><time>2026-04-12T09:58:46.998Z</time></trkpt><trkpt lat="44.9854967" lon="8.32238"><ele>243.0</ele><time>2026-04-12T09:58:47.997Z</time></trkpt><trkpt lat="44.9854633" lon="8.3224583"><ele>243.0</ele><time>2026-04-12T09:58:48.996Z</time></trkpt><trkpt lat="44.985395" lon="8.3226033"><ele>242.66666666666666</ele><time>2026-04-12T09:58:50.995Z</time></trkpt><trkpt lat="44.98532" lon="8.3227467"><ele>242.33333333333331</ele><time>2026-04-12T09:58:52.994Z</time></trkpt><trkpt lat="44.98528" lon="8.3228283"><ele>242.0</ele><time>2026-04-12T09:58:53.997Z</time></trkpt><trkpt lat="44.9852383" lon="8.32292"><ele>241.66666666666666</ele><time>2026-04-12T09:58:54.995Z</time></trkpt><trkpt lat="44.9852033" lon="8.3230233"><ele>241.33333333333331</ele><time>2026-04-12T09:58:55.995Z</time></trkpt><trkpt lat="44.9851683" lon="8.3231267"><ele>241.0</ele><time>2026-04-12T09:58:56.998Z</time></trkpt><trkpt lat="44.985135" lon="8.3232283"><ele>240.66666666666666</ele><time>2026-04-12T09:58:58.005Z</time></trkpt><trkpt lat="44.9851017" lon="8.3233267"><ele>240.33333333333331</ele><time>2026-04-12T09:58:58.994Z</time></trkpt><trkpt lat="44.985065" lon="8.323425"><ele>240.0</ele><time>2026-04-12T09:58:59.997Z</time></trkpt><trkpt lat="44.98502" lon="8.3235167"><ele>239.66666666666669</ele><time>2026-04-12T09:59:00.998Z</time></trkpt><trkpt lat="44.9849633" lon="8.323595"><ele>239.33333333333334</ele><time>2026-04-12T09:59:01.994Z</time></trkpt><trkpt lat="44.98491" lon="8.3236683"><ele>239.0</ele><time>2026-04-12T09:59:02.996Z</time></trkpt><trkpt lat="44.984855" lon="8.3237367"><ele>240.00000000000003</ele><time>2026-04-12T09:59:03.994Z</time></trkpt><trkpt lat="44.9847967" lon="8.3238017"><ele>241.0</ele><time>2026-04-12T09:59:04.994Z</time></trkpt><trkpt lat="44.9847367" lon="8.3238633"><ele>242.0</ele><time>2026-04-12T09:59:05.993Z</time></trkpt><trkpt lat="44.9846833" lon="8.3239167"><ele>243.0</ele><time>2026-04-12T09:59:06.998Z</time></trkpt><trkpt lat="44.9845683" lon="8.323965"><ele>244.00000000000003</ele><time>2026-04-12T09:59:08.998Z</time></trkpt><trkpt lat="44.9844767" lon="8.32399"><ele>245.0</ele><time>2026-04-12T09:59:10.998Z</time></trkpt><trkpt lat="44.9844033" lon="8.324005"><ele>245.57142857142856</ele><time>2026-04-12T09:59:12.996Z</time></trkpt><trkpt lat="44.9843767" lon="8.32409"><ele>246.14285714285714</ele><time>2026-04-12T09:59:16.995Z</time></trkpt><trkpt lat="44.9844217" lon="8.3241617"><ele>246.71428571428572</ele><time>2026-04-12T09:59:17.997Z</time></trkpt><trkpt lat="44.98447" lon="8.324225"><ele>247.28571428571428</ele><time>2026-04-12T09:59:18.998Z</time></trkpt><trkpt lat="44.98451" lon="8.324335"><ele>247.85714285714283</ele><time>2026-04-12T09:59:20.996Z</time></trkpt><trkpt lat="44.9845217" lon="8.3244367"><ele>248.42857142857142</ele><time>2026-04-12T09:59:22.997Z</time></trkpt><trkpt lat="44.98449" lon="8.3245267"><ele>249.0</ele><time>2026-04-12T09:59:25.003Z</time></trkpt><trkpt lat="44.9844117" lon="8.324605"><ele>249.0</ele><time>2026-04-12T09:59:27.996Z</time></trkpt><trkpt lat="44.9843383" lon="8.3246033"><ele>248.99999999999997</ele><time>2026-04-12T09:59:29.997Z</time></trkpt><trkpt lat="44.9842433" lon="8.3246133"><ele>248.99999999999997</ele><time>2026-04-12T09:59:31.994Z</time></trkpt><trkpt lat="44.98414" lon="8.324665"><ele>249.0</ele><time>2026-04-12T09:59:33.999Z</time></trkpt><trkpt lat="44.98403" lon="8.3247333"><ele>249.0</ele><time>2026-04-12T09:59:36.004Z</time></trkpt><trkpt lat="44.98393" lon="8.3248183"><ele>252.6</ele><time>2026-04-12T09:59:37.997Z</time></trkpt><trkpt lat="44.9838767" lon="8.3248667"><ele>256.2</ele><time>2026-04-12T09:59:38.997Z</time></trkpt><trkpt lat="44.9837767" lon="8.32495"><ele>259.79999999999995</ele><time>2026-04-12T09:59:40.998Z</time></trkpt><trkpt lat="44.9836833" lon="8.3250167"><ele>263.4</ele><time>2026-04-12T09:59:42.999Z</time></trkpt><trkpt lat="44.9836083" lon="8.325085"><ele>267.0</ele><time>2026-04-12T09:59:45Z</time></trkpt><trkpt lat="44.9835467" lon="8.3251817"><ele>267.0</ele><time>2026-04-12T09:59:46.998Z</time></trkpt><trkpt lat="44.98346" lon="8.32525"><ele>267.0</ele><time>2026-04-12T09:59:48.999Z</time></trkpt><trkpt lat="44.9833667" lon="8.3253083"><ele>267.0</ele><time>2026-04-12T09:59:50.999Z</time></trkpt><trkpt lat="44.983265" lon="8.3253883"><ele>267.0</ele><time>2026-04-12T09:59:52.999Z</time></trkpt><trkpt lat="44.98321" lon="8.32544"><ele>267.0</ele><time>2026-04-12T09:59:53.997Z</time></trkpt><trkpt lat="44.9831167" lon="8.3255533"><ele>265.6</ele><time>2026-04-12T09:59:55.997Z</time></trkpt><trkpt lat="44.983035" lon="8.3256583"><ele>264.2</ele><time>2026-04-12T09:59:57.994Z</time></trkpt><trkpt lat="44.98298" lon="8.3257683"><ele>262.8</ele><time>2026-04-12T10:00:00.001Z</time></trkpt><trkpt lat="44.98299" lon="8.3259"><ele>261.4</ele><time>2026-04-12T10:00:01.996Z</time></trkpt><trkpt lat="44.983015" lon="8.325995"><ele>260.0</ele><time>2026-04-12T10:00:03.995Z</time></trkpt><trkpt lat="44.9830983" lon="8.3260433"><ele>260.0</ele><time>2026-04-12T10:00:05.996Z</time></trkpt><trkpt lat="44.9831617" lon="8.3261133"><ele>260.0</ele><time>2026-04-12T10:00:07.994Z</time></trkpt><trkpt lat="44.9832317" lon="8.3261917"><ele>260.0</ele><time>2026-04-12T10:00:10.998Z</time></trkpt><trkpt lat="44.98323" lon="8.3262867"><ele>260.0</ele><time>2026-04-12T10:00:12.995Z</time></trkpt><trkpt lat="44.9831683" lon="8.32642"><ele>260.0</ele><time>2026-04-12T10:00:15.001Z</time></trkpt><trkpt lat="44.9831033" lon="8.3264833"><ele>260.0</ele><time>2026-04-12T10:00:16.002Z</time></trkpt><trkpt lat="44.9830067" lon="8.3265333"><ele>258.0</ele><time>2026-04-12T10:00:17.996Z</time></trkpt><trkpt lat="44.9829083" lon="8.326525"><ele>256.0</ele><time>2026-04-12T10:00:19.999Z</time></trkpt><trkpt lat="44.98281" lon="8.32648"><ele>254.0</ele><time>2026-04-12T10:00:22Z</time></trkpt><trkpt lat="44.9827117" lon="8.3264517"><ele>252.0</ele><time>2026-04-12T10:00:23.999Z</time></trkpt><trkpt lat="44.982595" lon="8.32649"><ele>250.0</ele><time>2026-04-12T10:00:25.994Z</time></trkpt><trkpt lat="44.9825033" lon="8.3265833"><ele>249.49999999999997</ele><time>2026-04-12T10:00:27.997Z</time></trkpt><trkpt lat="44.9824383" lon="8.3267133"><ele>249.0</ele><time>2026-04-12T10:00:29.999Z</time></trkpt><trkpt lat="44.982365" lon="8.32685"><ele>248.5</ele><time>2026-04-12T10:00:32Z</time></trkpt><trkpt lat="44.9823217" lon="8.3269217"><ele>248.0</ele><time>2026-04-12T10:00:32.999Z</time></trkpt><trkpt lat="44.9822767" lon="8.326995"><ele>247.49999999999997</ele><time>2026-04-12T10:00:33.998Z</time></trkpt><trkpt lat="44.9822183" lon="8.32706"><ele>247.0</ele><time>2026-04-12T10:00:34.999Z</time></trkpt><trkpt lat="44.982155" lon="8.32712"><ele>246.99999999999997</ele><time>2026-04-12T10:00:35.995Z</time></trkpt><trkpt lat="44.9820883" lon="8.3271667"><ele>247.0</ele><time>2026-04-12T10:00:36.995Z</time></trkpt><trkpt lat="44.9820217" lon="8.3272083"><ele>247.0</ele><time>2026-04-12T10:00:38.001Z</time></trkpt><trkpt lat="44.9819583" lon="8.3272517"><ele>247.0</ele><time>2026-04-12T10:00:38.995Z</time></trkpt><trkpt lat="44.9818883" lon="8.327285"><ele>246.99999999999997</ele><time>2026-04-12T10:00:40.005Z</time></trkpt><trkpt lat="44.9818217" lon="8.3272967"><ele>247.0</ele><time>2026-04-12T10:00:40.999Z</time></trkpt><trkpt lat="44.9817233" lon="8.3273367"><ele>244.83333333333331</ele><time>2026-04-12T10:00:42.993Z</time></trkpt><trkpt lat="44.9816383" lon="8.3273817"><ele>242.66666666666666</ele><time>2026-04-12T10:00:44.995Z</time></trkpt><trkpt lat="44.9815733" lon="8.3273617"><ele>240.5</ele><time>2026-04-12T10:00:47.994Z</time></trkpt><trkpt lat="44.981515" lon="8.327435"><ele>238.33333333333331</ele><time>2026-04-12T10:00:53.998Z</time></trkpt><trkpt lat="44.9814817" lon="8.3275633"><ele>236.16666666666666</ele><time>2026-04-12T10:00:56.002Z</time></trkpt><trkpt lat="44.981515" lon="8.3277167"><ele>234.0</ele><time>2026-04-12T10:00:57.997Z</time></trkpt><trkpt lat="44.9816083" lon="8.3277917"><ele>234.0</ele><time>2026-04-12T10:00:59.001Z</time></trkpt><trkpt lat="44.9816417" lon="8.327905"><ele>234.0</ele><time>2026-04-12T10:00:59.997Z</time></trkpt><trkpt lat="44.98171" lon="8.3279683"><ele>234.0</ele><time>2026-04-12T10:01:00.999Z</time></trkpt><trkpt lat="44.9817817" lon="8.3280267"><ele>234.0</ele><time>2026-04-12T10:01:02Z</time></trkpt><trkpt lat="44.981865" lon="8.3280733"><ele>234.0</ele><time>2026-04-12T10:01:02.998Z</time></trkpt><trkpt lat="44.9819567" lon="8.3281167"><ele>234.0</ele><time>2026-04-12T10:01:03.999Z</time></trkpt><trkpt lat="44.9820567" lon="8.3281583"><ele>232.6</ele><time>2026-04-12T10:01:04.996Z</time></trkpt><trkpt lat="44.9821583" lon="8.3281967"><ele>231.2</ele><time>2026-04-12T10:01:05.996Z</time></trkpt><trkpt lat="44.9822583" lon="8.328235"><ele>229.79999999999998</ele><time>2026-04-12T10:01:06.997Z</time></trkpt><trkpt lat="44.98236" lon="8.3282683"><ele>228.39999999999998</ele><time>2026-04-12T10:01:07.998Z</time></trkpt><trkpt lat="44.9824683" lon="8.3282983"><ele>227.0</ele><time>2026-04-12T10:01:08.997Z</time></trkpt><trkpt lat="44.9825733" lon="8.32833"><ele>226.6</ele><time>2026-04-12T10:01:09.995Z</time></trkpt><trkpt lat="44.9826783" lon="8.3283633"><ele>226.2</ele><time>2026-04-12T10:01:10.999Z</time></trkpt><trkpt lat="44.9827833" lon="8.3284033"><ele>225.8</ele><time>2026-04-12T10:01:11.999Z</time></trkpt><trkpt lat="44.9828883" lon="8.3284483"><ele>225.4</ele><time>2026-04-12T10:01:13.001Z</time></trkpt><trkpt lat="44.98299" lon="8.3284917"><ele>225.0</ele><time>2026-04-12T10:01:14Z</time></trkpt><trkpt lat="44.9830917" lon="8.3285333"><ele>225.0</ele><time>2026-04-12T10:01:14.996Z</time></trkpt><trkpt lat="44.9831967" lon="8.3285733"><ele>225.0</ele><time>2026-04-12T10:01:15.999Z</time></trkpt><trkpt lat="44.9832983" lon="8.3286117"><ele>225.0</ele><time>2026-04-12T10:01:16.999Z</time></trkpt><trkpt lat="44.9834067" lon="8.32865"><ele>225.0</ele><time>2026-04-12T10:01:18Z</time></trkpt><trkpt lat="44.9835183" lon="8.3286917"><ele>225.0</ele><time>2026-04-12T10:01:18.997Z</time></trkpt><trkpt lat="44.9836283" lon="8.328735"><ele>225.0</ele><time>2026-04-12T10:01:20.001Z</time></trkpt><trkpt lat="44.9837383" lon="8.32878"><ele>225.0</ele><time>2026-04-12T10:01:21.002Z</time></trkpt><trkpt lat="44.9838483" lon="8.3288283"><ele>225.0</ele><time>2026-04-12T10:01:21.997Z</time></trkpt><trkpt lat="44.9839533" lon="8.3288867"><ele>225.0</ele><time>2026-04-12T10:01:22.994Z</time></trkpt><trkpt lat="44.9840583" lon="8.3289483"><ele>225.0</ele><time>2026-04-12T10:01:23.994Z</time></trkpt><trkpt lat="44.9841633" lon="8.3290117"><ele>225.0</ele><time>2026-04-12T10:01:25.004Z</time></trkpt><trkpt lat="44.984265" lon="8.32908"><ele>225.0</ele><time>2026-04-12T10:01:25.998Z</time></trkpt><trkpt lat="44.9843683" lon="8.329155"><ele>225.0</ele><time>2026-04-12T10:01:26.999Z</time></trkpt><trkpt lat="44.9844667" lon="8.3292383"><ele>225.25</ele><time>2026-04-12T10:01:27.996Z</time></trkpt><trkpt lat="44.9845683" lon="8.3293217"><ele>225.5</ele><time>2026-04-12T10:01:28.995Z</time></trkpt><trkpt lat="44.984665" lon="8.3294117"><ele>225.75</ele><time>2026-04-12T10:01:29.999Z</time></trkpt><trkpt lat="44.9847567" lon="8.329515"><ele>226.0</ele><time>2026-04-12T10:01:30.999Z</time></trkpt><trkpt lat="44.9848433" lon="8.329625"><ele>225.5</ele><time>2026-04-12T10:01:32.001Z</time></trkpt><trkpt lat="44.98493" lon="8.32974"><ele>225.0</ele><time>2026-04-12T10:01:33Z</time></trkpt><trkpt lat="44.9850167" lon="8.3298633"><ele>224.5</ele><time>2026-04-12T10:01:33.997Z</time></trkpt><trkpt lat="44.985105" lon="8.329995"><ele>224.0</ele><time>2026-04-12T10:01:35.005Z</time></trkpt><trkpt lat="44.985195" lon="8.3301367"><ele>222.25</ele><time>2026-04-12T10:01:35.998Z</time></trkpt><trkpt lat="44.9852867" lon="8.33028"><ele>220.5</ele><time>2026-04-12T10:01:37.003Z</time></trkpt><trkpt lat="44.9853833" lon="8.3304233"><ele>218.75</ele><time>2026-04-12T10:01:37.999Z</time></trkpt><trkpt lat="44.9854783" lon="8.3305733"><ele>217.0</ele><time>2026-04-12T10:01:38.998Z</time></trkpt><trkpt lat="44.9855783" lon="8.3307317"><ele>217.0</ele><time>2026-04-12T10:01:39.998Z</time></trkpt><trkpt lat="44.985675" lon="8.3308917"><ele>217.0</ele><time>2026-04-12T10:01:41.001Z</time></trkpt><trkpt lat="44.98578" lon="8.3310517"><ele>217.0</ele><time>2026-04-12T10:01:42.002Z</time></trkpt><trkpt lat="44.9858767" lon="8.3312117"><ele>214.75</ele><time>2026-04-12T10:01:42.997Z</time></trkpt><trkpt lat="44.9859717" lon="8.3313683"><ele>212.5</ele><time>2026-04-12T10:01:43.996Z</time></trkpt><trkpt lat="44.9860617" lon="8.3315333"><ele>210.25</ele><time>2026-04-12T10:01:44.999Z</time></trkpt><trkpt lat="44.98613" lon="8.3316967"><ele>208.0</ele><time>2026-04-12T10:01:45.994Z</time></trkpt><trkpt lat="44.9861717" lon="8.3318717"><ele>208.0</ele><time>2026-04-12T10:01:46.995Z</time></trkpt><trkpt lat="44.9861783" lon="8.3320417"><ele>208.0</ele><time>2026-04-12T10:01:47.997Z</time></trkpt><trkpt lat="44.9861433" lon="8.332215"><ele>208.0</ele><time>2026-04-12T10:01:49Z</time></trkpt><trkpt lat="44.9860783" lon="8.332375"><ele>208.0</ele><time>2026-04-12T10:01:50Z</time></trkpt><trkpt lat="44.9859883" lon="8.332525"><ele>208.33333333333331</ele><time>2026-04-12T10:01:50.999Z</time></trkpt><trkpt lat="44.98588" lon="8.3326733"><ele>208.66666666666669</ele><time>2026-04-12T10:01:51.997Z</time></trkpt><trkpt lat="44.9857583" lon="8.3328233"><ele>209.0</ele><time>2026-04-12T10:01:52.997Z</time></trkpt><trkpt lat="44.98564" lon="8.33297"><ele>206.66666666666669</ele><time>2026-04-12T10:01:54Z</time></trkpt><trkpt lat="44.985525" lon="8.333115"><ele>204.33333333333331</ele><time>2026-04-12T10:01:54.998Z</time></trkpt><trkpt lat="44.985425" lon="8.3332733"><ele>202.0</ele><time>2026-04-12T10:01:56.003Z</time></trkpt><trkpt lat="44.9853483" lon="8.3334533"><ele>202.0</ele><time>2026-04-12T10:01:57.002Z</time></trkpt><trkpt lat="44.9853" lon="8.3336567"><ele>202.0</ele><time>2026-04-12T10:01:58.001Z</time></trkpt><trkpt lat="44.985285" lon="8.3338617"><ele>202.0</ele><time>2026-04-12T10:01:58.999Z</time></trkpt><trkpt lat="44.9853017" lon="8.3340717"><ele>202.0</ele><time>2026-04-12T10:01:59.996Z</time></trkpt><trkpt lat="44.9853617" lon="8.334275"><ele>201.0</ele><time>2026-04-12T10:02:00.997Z</time></trkpt><trkpt lat="44.98545" lon="8.3344717"><ele>200.0</ele><time>2026-04-12T10:02:01.997Z</time></trkpt><trkpt lat="44.98556" lon="8.3346667"><ele>199.0</ele><time>2026-04-12T10:02:02.998Z</time></trkpt><trkpt lat="44.9856783" lon="8.334865"><ele>199.0</ele><time>2026-04-12T10:02:04.001Z</time></trkpt><trkpt lat="44.9857967" lon="8.33506"><ele>199.0</ele><time>2026-04-12T10:02:04.999Z</time></trkpt><trkpt lat="44.9859167" lon="8.3352567"><ele>199.0</ele><time>2026-04-12T10:02:06.002Z</time></trkpt><trkpt lat="44.9860283" lon="8.3354617"><ele>194.66666666666666</ele><time>2026-04-12T10:02:06.997Z</time></trkpt><trkpt lat="44.9861333" lon="8.33568"><ele>190.33333333333331</ele><time>2026-04-12T10:02:07.996Z</time></trkpt><trkpt lat="44.9862283" lon="8.3359167"><ele>186.0</ele><time>2026-04-12T10:02:08.998Z</time></trkpt><trkpt lat="44.98631" lon="8.336175"><ele>187.0</ele><time>2026-04-12T10:02:09.997Z</time></trkpt><trkpt lat="44.9863867" lon="8.3364583"><ele>188.0</ele><time>2026-04-12T10:02:10.998Z</time></trkpt><trkpt lat="44.9864633" lon="8.336755"><ele>189.0</ele><time>2026-04-12T10:02:11.997Z</time></trkpt><trkpt lat="44.98654" lon="8.3370717"><ele>188.5</ele><time>2026-04-12T10:02:12.998Z</time></trkpt><trkpt lat="44.98662" lon="8.3373967"><ele>188.0</ele><time>2026-04-12T10:02:13.996Z</time></trkpt><trkpt lat="44.9867017" lon="8.3377183"><ele>181.0</ele><time>2026-04-12T10:02:15.004Z</time></trkpt><trkpt lat="44.98678" lon="8.3380317"><ele>174.0</ele><time>2026-04-12T10:02:15.995Z</time></trkpt><trkpt lat="44.9868533" lon="8.33833"><ele>173.33333333333334</ele><time>2026-04-12T10:02:16.995Z</time></trkpt><trkpt lat="44.9869267" lon="8.3386167"><ele>172.66666666666669</ele><time>2026-04-12T10:02:18.002Z</time></trkpt><trkpt lat="44.986995" lon="8.3388983"><ele>172.0</ele><time>2026-04-12T10:02:18.994Z</time></trkpt><trkpt lat="44.98706" lon="8.3391683"><ele>171.0</ele><time>2026-04-12T10:02:20.003Z</time></trkpt><trkpt lat="44.9871233" lon="8.3394317"><ele>170.0</ele><time>2026-04-12T10:02:20.998Z</time></trkpt><trkpt lat="44.9871867" lon="8.3396867"><ele>169.0</ele><time>2026-04-12T10:02:21.997Z</time></trkpt><trkpt lat="44.9872483" lon="8.3399383"><ele>169.0</ele><time>2026-04-12T10:02:22.998Z</time></trkpt><trkpt lat="44.9873083" lon="8.3401883"><ele>169.0</ele><time>2026-04-12T10:02:23.998Z</time></trkpt><trkpt lat="44.9873717" lon="8.3404383"><ele>169.0</ele><time>2026-04-12T10:02:24.997Z</time></trkpt><trkpt lat="44.9874317" lon="8.3406867"><ele>169.33333333333334</ele><time>2026-04-12T10:02:25.995Z</time></trkpt><trkpt lat="44.9874917" lon="8.3409333"><ele>169.66666666666666</ele><time>2026-04-12T10:02:26.998Z</time></trkpt><trkpt lat="44.9875517" lon="8.3411733"><ele>170.0</ele><time>2026-04-12T10:02:27.996Z</time></trkpt><trkpt lat="44.9876117" lon="8.341415"><ele>169.0</ele><time>2026-04-12T10:02:28.994Z</time></trkpt><trkpt lat="44.9876717" lon="8.3416517"><ele>168.0</ele><time>2026-04-12T10:02:30Z</time></trkpt><trkpt lat="44.9877317" lon="8.3418917"><ele>167.0</ele><time>2026-04-12T10:02:30.997Z</time></trkpt><trkpt lat="44.98779" lon="8.342135"><ele>167.66666666666666</ele><time>2026-04-12T10:02:31.998Z</time></trkpt><trkpt lat="44.9878517" lon="8.3423783"><ele>168.33333333333334</ele><time>2026-04-12T10:02:32.996Z</time></trkpt><trkpt lat="44.9879133" lon="8.3426267"><ele>169.0</ele><time>2026-04-12T10:02:33.996Z</time></trkpt><trkpt lat="44.9879767" lon="8.3428783"><ele>169.33333333333334</ele><time>2026-04-12T10:02:34.995Z</time></trkpt><trkpt lat="44.98804" lon="8.3431333"><ele>169.66666666666666</ele><time>2026-04-12T10:02:35.997Z</time></trkpt><trkpt lat="44.9881033" lon="8.34339"><ele>170.0</ele><time>2026-04-12T10:02:36.997Z</time></trkpt><trkpt lat="44.98817" lon="8.3436567"><ele>170.0</ele><time>2026-04-12T10:02:38Z</time></trkpt><trkpt lat="44.9882417" lon="8.34395"><ele>170.0</ele><time>2026-04-12T10:02:38.998Z</time></trkpt><trkpt lat="44.9883183" lon="8.3442567"><ele>169.66666666666666</ele><time>2026-04-12T10:02:39.999Z</time></trkpt><trkpt lat="44.988395" lon="8.344555"><ele>169.33333333333334</ele><time>2026-04-12T10:02:40.995Z</time></trkpt><trkpt lat="44.9884617" lon="8.3448383"><ele>169.0</ele><time>2026-04-12T10:02:42.002Z</time></trkpt><trkpt lat="44.9885283" lon="8.3451083"><ele>169.0</ele><time>2026-04-12T10:02:43.003Z</time></trkpt><trkpt lat="44.9885867" lon="8.34537"><ele>169.0</ele><time>2026-04-12T10:02:43.995Z</time></trkpt><trkpt lat="44.9886267" lon="8.3456217"><ele>169.0</ele><time>2026-04-12T10:02:44.999Z</time></trkpt><trkpt lat="44.9886283" lon="8.3458667"><ele>168.33333333333334</ele><time>2026-04-12T10:02:45.999Z</time></trkpt><trkpt lat="44.9886017" lon="8.3461167"><ele>167.66666666666666</ele><time>2026-04-12T10:02:46.995Z</time></trkpt><trkpt lat="44.98855" lon="8.3463683"><ele>167.0</ele><time>2026-04-12T10:02:48Z</time></trkpt><trkpt lat="44.9884933" lon="8.34663"><ele>167.0</ele><time>2026-04-12T10:02:48.996Z</time></trkpt><trkpt lat="44.988435" lon="8.3468967"><ele>167.0</ele><time>2026-04-12T10:02:49.995Z</time></trkpt><trkpt lat="44.9883767" lon="8.3471683"><ele>167.0</ele><time>2026-04-12T10:02:51.001Z</time></trkpt><trkpt lat="44.9883183" lon="8.3474467"><ele>166.66666666666666</ele><time>2026-04-12T10:02:51.995Z</time></trkpt><trkpt lat="44.9882567" lon="8.3477283"><ele>166.33333333333334</ele><time>2026-04-12T10:02:52.997Z</time></trkpt><trkpt lat="44.9881933" lon="8.348015"><ele>166.0</ele><time>2026-04-12T10:02:54Z</time></trkpt><trkpt lat="44.9881317" lon="8.3483017"><ele>165.66666666666669</ele><time>2026-04-12T10:02:54.994Z</time></trkpt><trkpt lat="44.988065" lon="8.3485917"><ele>165.33333333333334</ele><time>2026-04-12T10:02:55.995Z</time></trkpt><trkpt lat="44.988" lon="8.34888"><ele>165.0</ele><time>2026-04-12T10:02:56.994Z</time></trkpt><trkpt lat="44.9879367" lon="8.3491667"><ele>165.0</ele><time>2026-04-12T10:02:57.993Z</time></trkpt><trkpt lat="44.9878733" lon="8.3494483"><ele>165.0</ele><time>2026-04-12T10:02:59Z</time></trkpt><trkpt lat="44.9878117" lon="8.3497267"><ele>165.0</ele><time>2026-04-12T10:02:59.998Z</time></trkpt><trkpt lat="44.9877533" lon="8.35"><ele>164.66666666666666</ele><time>2026-04-12T10:03:00.998Z</time></trkpt><trkpt lat="44.987695" lon="8.3502717"><ele>164.33333333333331</ele><time>2026-04-12T10:03:01.995Z</time></trkpt><trkpt lat="44.9876333" lon="8.3505383"><ele>164.0</ele><time>2026-04-12T10:03:02.997Z</time></trkpt><trkpt lat="44.9875767" lon="8.3508017"><ele>163.66666666666666</ele><time>2026-04-12T10:03:03.995Z</time></trkpt><trkpt lat="44.9875167" lon="8.3510617"><ele>163.33333333333334</ele><time>2026-04-12T10:03:04.996Z</time></trkpt><trkpt lat="44.98746" lon="8.3513167"><ele>163.0</ele><time>2026-04-12T10:03:05.998Z</time></trkpt><trkpt lat="44.9874033" lon="8.3515683"><ele>164.0</ele><time>2026-04-12T10:03:06.999Z</time></trkpt><trkpt lat="44.98735" lon="8.351815"><ele>165.0</ele><time>2026-04-12T10:03:08.002Z</time></trkpt><trkpt lat="44.9872967" lon="8.3520533"><ele>166.0</ele><time>2026-04-12T10:03:08.999Z</time></trkpt><trkpt lat="44.9872467" lon="8.35228"><ele>166.0</ele><time>2026-04-12T10:03:09.996Z</time></trkpt><trkpt lat="44.9872" lon="8.3524917"><ele>166.0</ele><time>2026-04-12T10:03:10.993Z</time></trkpt><trkpt lat="44.9871517" lon="8.35269"><ele>166.0</ele><time>2026-04-12T10:03:12.005Z</time></trkpt><trkpt lat="44.9871083" lon="8.35288"><ele>166.0</ele><time>2026-04-12T10:03:13.002Z</time></trkpt><trkpt lat="44.9870683" lon="8.3530617"><ele>165.0</ele><time>2026-04-12T10:03:13.996Z</time></trkpt><trkpt lat="44.98703" lon="8.3532267"><ele>164.0</ele><time>2026-04-12T10:03:14.997Z</time></trkpt><trkpt lat="44.9869967" lon="8.3533667"><ele>163.0</ele><time>2026-04-12T10:03:16.001Z</time></trkpt><trkpt lat="44.986965" lon="8.3534733"><ele>162.0</ele><time>2026-04-12T10:03:17.003Z</time></trkpt><trkpt lat="44.9869333" lon="8.3535633"><ele>161.0</ele><time>2026-04-12T10:03:17.996Z</time></trkpt><trkpt lat="44.9868133" lon="8.3535617"><ele>161.0</ele><time>2026-04-12T10:03:19.994Z</time></trkpt><trkpt lat="44.9867383" lon="8.35353"><ele>161.0</ele><time>2026-04-12T10:03:20.998Z</time></trkpt><trkpt lat="44.9866517" lon="8.3534867"><ele>161.0</ele><time>2026-04-12T10:03:22.003Z</time></trkpt><trkpt lat="44.9865433" lon="8.3534233"><ele>161.0</ele><time>2026-04-12T10:03:22.994Z</time></trkpt><trkpt lat="44.986405" lon="8.3533833"><ele>161.0</ele><time>2026-04-12T10:03:24.001Z</time></trkpt><trkpt lat="44.986275" lon="8.3533683"><ele>162.0</ele><time>2026-04-12T10:03:24.998Z</time></trkpt><trkpt lat="44.98615" lon="8.3534"><ele>163.0</ele><time>2026-04-12T10:03:25.997Z</time></trkpt><trkpt lat="44.9860417" lon="8.3534817"><ele>164.0</ele><time>2026-04-12T10:03:26.997Z</time></trkpt><trkpt lat="44.985955" lon="8.3536067"><ele>165.0</ele><time>2026-04-12T10:03:27.998Z</time></trkpt><trkpt lat="44.9858817" lon="8.353755"><ele>166.75</ele><time>2026-04-12T10:03:28.998Z</time></trkpt><trkpt lat="44.98581" lon="8.353915"><ele>168.5</ele><time>2026-04-12T10:03:29.997Z</time></trkpt><trkpt lat="44.9857333" lon="8.3540767"><ele>170.25</ele><time>2026-04-12T10:03:30.999Z</time></trkpt><trkpt lat="44.9856483" lon="8.354225"><ele>172.0</ele><time>2026-04-12T10:03:31.995Z</time></trkpt><trkpt lat="44.9855517" lon="8.3543567"><ele>172.0</ele><time>2026-04-12T10:03:32.995Z</time></trkpt><trkpt lat="44.9854433" lon="8.3544583"><ele>172.0</ele><time>2026-04-12T10:03:33.994Z</time></trkpt><trkpt lat="44.9853233" lon="8.3545283"><ele>172.0</ele><time>2026-04-12T10:03:34.996Z</time></trkpt><trkpt lat="44.9851967" lon="8.3545667"><ele>172.0</ele><time>2026-04-12T10:03:35.996Z</time></trkpt><trkpt lat="44.985075" lon="8.3546083"><ele>173.75</ele><time>2026-04-12T10:03:37Z</time></trkpt><trkpt lat="44.98497" lon="8.3546817"><ele>175.5</ele><time>2026-04-12T10:03:37.999Z</time></trkpt><trkpt lat="44.9848833" lon="8.35479"><ele>177.25</ele><time>2026-04-12T10:03:38.995Z</time></trkpt><trkpt lat="44.9848283" lon="8.3549433"><ele>179.0</ele><time>2026-04-12T10:03:39.995Z</time></trkpt><trkpt lat="44.984785" lon="8.3551217"><ele>179.0</ele><time>2026-04-12T10:03:40.995Z</time></trkpt><trkpt lat="44.9847433" lon="8.35531"><ele>179.0</ele><time>2026-04-12T10:03:41.997Z</time></trkpt><trkpt lat="44.9847" lon="8.3554967"><ele>179.0</ele><time>2026-04-12T10:03:42.998Z</time></trkpt><trkpt lat="44.984645" lon="8.3556667"><ele>179.0</ele><time>2026-04-12T10:03:43.996Z</time></trkpt><trkpt lat="44.9845817" lon="8.3558117"><ele>177.75</ele><time>2026-04-12T10:03:44.995Z</time></trkpt><trkpt lat="44.9845" lon="8.35592"><ele>176.5</ele><time>2026-04-12T10:03:45.993Z</time></trkpt><trkpt lat="44.9843983" lon="8.356"><ele>175.25</ele><time>2026-04-12T10:03:46.996Z</time></trkpt><trkpt lat="44.9842717" lon="8.356045"><ele>174.0</ele><time>2026-04-12T10:03:47.996Z</time></trkpt><trkpt lat="44.9841433" lon="8.356095"><ele>177.75</ele><time>2026-04-12T10:03:49Z</time></trkpt><trkpt lat="44.984015" lon="8.356155"><ele>181.5</ele><time>2026-04-12T10:03:49.995Z</time></trkpt><trkpt lat="44.9838983" lon="8.356225"><ele>185.25</ele><time>2026-04-12T10:03:50.995Z</time></trkpt><trkpt lat="44.9837933" lon="8.3562867"><ele>189.0</ele><time>2026-04-12T10:03:51.994Z</time></trkpt><trkpt lat="44.9836933" lon="8.3563317"><ele>189.0</ele><time>2026-04-12T10:03:52.996Z</time></trkpt><trkpt lat="44.9836" lon="8.356325"><ele>189.0</ele><time>2026-04-12T10:03:53.994Z</time></trkpt><trkpt lat="44.98351" lon="8.3563"><ele>189.0</ele><time>2026-04-12T10:03:54.998Z</time></trkpt><trkpt lat="44.9834417" lon="8.3562367"><ele>189.0</ele><time>2026-04-12T10:03:55.996Z</time></trkpt><trkpt lat="44.9833983" lon="8.3561433"><ele>189.0</ele><time>2026-04-12T10:03:56.999Z</time></trkpt><trkpt lat="44.983495" lon="8.3559967"><ele>189.0</ele><time>2026-04-12T10:03:57.999Z</time></trkpt><trkpt lat="44.983545" lon="8.355895"><ele>189.0</ele><time>2026-04-12T10:03:58.993Z</time></trkpt><trkpt lat="44.9836533" lon="8.3558267"><ele>189.0</ele><time>2026-04-12T10:03:59.994Z</time></trkpt><trkpt lat="44.9837717" lon="8.3557633"><ele>189.0</ele><time>2026-04-12T10:04:01.003Z</time></trkpt><trkpt lat="44.98389" lon="8.3556883"><ele>189.0</ele><time>2026-04-12T10:04:01.994Z</time></trkpt><trkpt lat="44.9839983" lon="8.3556017"><ele>189.0</ele><time>2026-04-12T10:04:03Z</time></trkpt><trkpt lat="44.9840883" lon="8.355495"><ele>189.0</ele><time>2026-04-12T10:04:03.996Z</time></trkpt><trkpt lat="44.9841517" lon="8.355365"><ele>189.0</ele><time>2026-04-12T10:04:04.997Z</time></trkpt><trkpt lat="44.984175" lon="8.3552167"><ele>190.75</ele><time>2026-04-12T10:04:05.995Z</time></trkpt><trkpt lat="44.9841517" lon="8.3550633"><ele>192.5</ele><time>2026-04-12T10:04:06.994Z</time></trkpt><trkpt lat="44.9840867" lon="8.3549367"><ele>194.25</ele><time>2026-04-12T10:04:07.996Z</time></trkpt><trkpt lat="44.9839983" lon="8.3548283"><ele>196.0</ele><time>2026-04-12T10:04:08.993Z</time></trkpt><trkpt lat="44.9839" lon="8.3547267"><ele>197.75</ele><time>2026-04-12T10:04:09.993Z</time></trkpt><trkpt lat="44.983795" lon="8.3546217"><ele>199.5</ele><time>2026-04-12T10:04:10.995Z</time></trkpt><trkpt lat="44.9836933" lon="8.3545117"><ele>201.25</ele><time>2026-04-12T10:04:11.995Z</time></trkpt><trkpt lat="44.9835867" lon="8.3544"><ele>203.0</ele><time>2026-04-12T10:04:12.996Z</time></trkpt><trkpt lat="44.9834817" lon="8.3542817"><ele>203.0</ele><time>2026-04-12T10:04:13.996Z</time></trkpt><trkpt lat="44.9833833" lon="8.35416"><ele>203.0</ele><time>2026-04-12T10:04:14.996Z</time></trkpt><trkpt lat="44.98329" lon="8.3540367"><ele>203.0</ele><time>2026-04-12T10:04:15.997Z</time></trkpt><trkpt lat="44.983195" lon="8.35391"><ele>203.0</ele><time>2026-04-12T10:04:16.994Z</time></trkpt><trkpt lat="44.9831017" lon="8.3537783"><ele>203.0</ele><time>2026-04-12T10:04:17.997Z</time></trkpt><trkpt lat="44.983005" lon="8.3536417"><ele>203.0</ele><time>2026-04-12T10:04:18.993Z</time></trkpt><trkpt lat="44.982905" lon="8.3535067"><ele>203.0</ele><time>2026-04-12T10:04:20Z</time></trkpt><trkpt lat="44.9828067" lon="8.3533717"><ele>203.0</ele><time>2026-04-12T10:04:21.002Z</time></trkpt><trkpt lat="44.9827067" lon="8.35324"><ele>203.0</ele><time>2026-04-12T10:04:22Z</time></trkpt><trkpt lat="44.9826133" lon="8.35311"><ele>203.0</ele><time>2026-04-12T10:04:22.997Z</time></trkpt><trkpt lat="44.9825283" lon="8.3529867"><ele>203.0</ele><time>2026-04-12T10:04:23.996Z</time></trkpt><trkpt lat="44.9824567" lon="8.35287"><ele>203.0</ele><time>2026-04-12T10:04:24.997Z</time></trkpt><trkpt lat="44.9823933" lon="8.35278"><ele>202.33333333333334</ele><time>2026-04-12T10:04:25.999Z</time></trkpt><trkpt lat="44.9823283" lon="8.3527083"><ele>201.66666666666669</ele><time>2026-04-12T10:04:26.999Z</time></trkpt><trkpt lat="44.9822583" lon="8.3527133"><ele>201.0</ele><time>2026-04-12T10:04:27.998Z</time></trkpt><trkpt lat="44.9821967" lon="8.3527733"><ele>200.33333333333331</ele><time>2026-04-12T10:04:28.999Z</time></trkpt><trkpt lat="44.9821417" lon="8.352845"><ele>199.66666666666666</ele><time>2026-04-12T10:04:29.999Z</time></trkpt><trkpt lat="44.9820867" lon="8.3529517"><ele>199.0</ele><time>2026-04-12T10:04:30.994Z</time></trkpt><trkpt lat="44.98202" lon="8.3530817"><ele>199.0</ele><time>2026-04-12T10:04:31.996Z</time></trkpt><trkpt lat="44.9819467" lon="8.35321"><ele>199.0</ele><time>2026-04-12T10:04:32.996Z</time></trkpt><trkpt lat="44.9818683" lon="8.35334"><ele>199.0</ele><time>2026-04-12T10:04:34.001Z</time></trkpt><trkpt lat="44.9817917" lon="8.3534617"><ele>199.0</ele><time>2026-04-12T10:04:35.002Z</time></trkpt><trkpt lat="44.9817167" lon="8.3535867"><ele>198.2</ele><time>2026-04-12T10:04:35.999Z</time></trkpt><trkpt lat="44.9816467" lon="8.3537133"><ele>197.39999999999998</ele><time>2026-04-12T10:04:36.999Z</time></trkpt><trkpt lat="44.981575" lon="8.3538383"><ele>196.6</ele><time>2026-04-12T10:04:37.995Z</time></trkpt><trkpt lat="44.9815133" lon="8.3539683"><ele>195.8</ele><time>2026-04-12T10:04:38.999Z</time></trkpt><trkpt lat="44.9814633" lon="8.354095"><ele>195.0</ele><time>2026-04-12T10:04:39.999Z</time></trkpt><trkpt lat="44.9814183" lon="8.3542267"><ele>195.0</ele><time>2026-04-12T10:04:41.001Z</time></trkpt><trkpt lat="44.9813767" lon="8.3543567"><ele>195.0</ele><time>2026-04-12T10:04:41.995Z</time></trkpt><trkpt lat="44.981325" lon="8.3544767"><ele>195.0</ele><time>2026-04-12T10:04:42.999Z</time></trkpt><trkpt lat="44.98127" lon="8.3545717"><ele>195.0</ele><time>2026-04-12T10:04:44.004Z</time></trkpt><trkpt lat="44.98122" lon="8.3546517"><ele>195.0</ele><time>2026-04-12T10:04:44.997Z</time></trkpt><trkpt lat="44.9811633" lon="8.354705"><ele>195.0</ele><time>2026-04-12T10:04:45.998Z</time></trkpt><trkpt lat="44.9810933" lon="8.3547283"><ele>195.0</ele><time>2026-04-12T10:04:46.993Z</time></trkpt><trkpt lat="44.9809833" lon="8.3546533"><ele>195.0</ele><time>2026-04-12T10:04:47.998Z</time></trkpt><trkpt lat="44.980875" lon="8.3546083"><ele>195.0</ele><time>2026-04-12T10:04:48.997Z</time></trkpt><trkpt lat="44.9807817" lon="8.354595"><ele>195.0</ele><time>2026-04-12T10:04:49.998Z</time></trkpt><trkpt lat="44.9806833" lon="8.3546117"><ele>195.0</ele><time>2026-04-12T10:04:50.998Z</time></trkpt><trkpt lat="44.9805867" lon="8.3546783"><ele>194.75</ele><time>2026-04-12T10:04:51.998Z</time></trkpt><trkpt lat="44.98049" lon="8.3547733"><ele>194.5</ele><time>2026-04-12T10:04:53Z</time></trkpt><trkpt lat="44.9804" lon="8.354885"><ele>194.25</ele><time>2026-04-12T10:04:53.997Z</time></trkpt><trkpt lat="44.9803067" lon="8.355"><ele>194.0</ele><time>2026-04-12T10:04:54.998Z</time></trkpt><trkpt lat="44.9802133" lon="8.3551183"><ele>194.0</ele><time>2026-04-12T10:04:55.996Z</time></trkpt><trkpt lat="44.9801233" lon="8.35524"><ele>194.0</ele><time>2026-04-12T10:04:56.997Z</time></trkpt><trkpt lat="44.98003" lon="8.3553583"><ele>194.0</ele><time>2026-04-12T10:04:57.997Z</time></trkpt><trkpt lat="44.9799367" lon="8.3554783"><ele>194.0</ele><time>2026-04-12T10:04:58.997Z</time></trkpt><trkpt lat="44.9798567" lon="8.355595"><ele>193.16666666666669</ele><time>2026-04-12T10:04:59.997Z</time></trkpt><trkpt lat="44.9797917" lon="8.3556933"><ele>192.33333333333334</ele><time>2026-04-12T10:05:00.997Z</time></trkpt><trkpt lat="44.97975" lon="8.3557967"><ele>191.5</ele><time>2026-04-12T10:05:01.995Z</time></trkpt><trkpt lat="44.9797233" lon="8.3559083"><ele>190.66666666666669</ele><time>2026-04-12T10:05:03Z</time></trkpt><trkpt lat="44.9797117" lon="8.3560233"><ele>189.83333333333334</ele><time>2026-04-12T10:05:03.994Z</time></trkpt><trkpt lat="44.9797367" lon="8.3561383"><ele>189.0</ele><time>2026-04-12T10:05:04.998Z</time></trkpt><trkpt lat="44.9797933" lon="8.3562533"><ele>189.0</ele><time>2026-04-12T10:05:06Z</time></trkpt><trkpt lat="44.9798733" lon="8.3563517"><ele>189.0</ele><time>2026-04-12T10:05:07.001Z</time></trkpt><trkpt lat="44.9799367" lon="8.3564417"><ele>189.0</ele><time>2026-04-12T10:05:07.998Z</time></trkpt><trkpt lat="44.9799883" lon="8.3565317"><ele>189.0</ele><time>2026-04-12T10:05:09Z</time></trkpt><trkpt lat="44.980035" lon="8.3566133"><ele>189.0</ele><time>2026-04-12T10:05:09.996Z</time></trkpt><trkpt lat="44.9800617" lon="8.3566967"><ele>189.0</ele><time>2026-04-12T10:05:10.994Z</time></trkpt><trkpt lat="44.9800017" lon="8.3568733"><ele>189.25</ele><time>2026-04-12T10:05:12.994Z</time></trkpt><trkpt lat="44.97994" lon="8.3569767"><ele>189.5</ele><time>2026-04-12T10:05:13.997Z</time></trkpt><trkpt lat="44.9798817" lon="8.357085"><ele>189.75</ele><time>2026-04-12T10:05:14.996Z</time></trkpt><trkpt lat="44.9797933" lon="8.3572083"><ele>190.0</ele><time>2026-04-12T10:05:15.997Z</time></trkpt><trkpt lat="44.9796917" lon="8.3573467"><ele>192.0</ele><time>2026-04-12T10:05:16.99Z</time></trkpt><trkpt lat="44.9796" lon="8.35748"><ele>194.0</ele><time>2026-04-12T10:05:17.995Z</time></trkpt><trkpt lat="44.9795067" lon="8.3576083"><ele>196.0</ele><time>2026-04-12T10:05:18.996Z</time></trkpt><trkpt lat="44.979415" lon="8.35772"><ele>198.0</ele><time>2026-04-12T10:05:19.994Z</time></trkpt><trkpt lat="44.97933" lon="8.3578517"><ele>198.0</ele><time>2026-04-12T10:05:20.996Z</time></trkpt><trkpt lat="44.9792533" lon="8.35799"><ele>198.0</ele><time>2026-04-12T10:05:21.997Z</time></trkpt><trkpt lat="44.9791867" lon="8.35814"><ele>198.0</ele><time>2026-04-12T10:05:22.996Z</time></trkpt><trkpt lat="44.9791267" lon="8.358285"><ele>198.0</ele><time>2026-04-12T10:05:23.997Z</time></trkpt><trkpt lat="44.9790683" lon="8.358435"><ele>197.5</ele><time>2026-04-12T10:05:25Z</time></trkpt><trkpt lat="44.9790133" lon="8.3585867"><ele>197.0</ele><time>2026-04-12T10:05:25.995Z</time></trkpt><trkpt lat="44.978955" lon="8.35873"><ele>196.5</ele><time>2026-04-12T10:05:27Z</time></trkpt><trkpt lat="44.9788917" lon="8.358875"><ele>196.0</ele><time>2026-04-12T10:05:27.995Z</time></trkpt><trkpt lat="44.9788183" lon="8.359025"><ele>197.0</ele><time>2026-04-12T10:05:28.998Z</time></trkpt><trkpt lat="44.9787383" lon="8.3591683"><ele>198.0</ele><time>2026-04-12T10:05:29.997Z</time></trkpt><trkpt lat="44.978655" lon="8.3593017"><ele>199.0</ele><time>2026-04-12T10:05:31.003Z</time></trkpt><trkpt lat="44.9785633" lon="8.3594233"><ele>200.0</ele><time>2026-04-12T10:05:31.997Z</time></trkpt><trkpt lat="44.9784667" lon="8.3595417"><ele>200.0</ele><time>2026-04-12T10:05:32.999Z</time></trkpt><trkpt lat="44.9783683" lon="8.3596633"><ele>200.0</ele><time>2026-04-12T10:05:33.995Z</time></trkpt><trkpt lat="44.9782717" lon="8.35978"><ele>200.0</ele><time>2026-04-12T10:05:34.997Z</time></trkpt><trkpt lat="44.9781733" lon="8.3598967"><ele>200.0</ele><time>2026-04-12T10:05:35.993Z</time></trkpt><trkpt lat="44.978075" lon="8.360015"><ele>200.25</ele><time>2026-04-12T10:05:36.998Z</time></trkpt><trkpt lat="44.9779783" lon="8.36013"><ele>200.5</ele><time>2026-04-12T10:05:37.995Z</time></trkpt><trkpt lat="44.9778733" lon="8.36024"><ele>200.75</ele><time>2026-04-12T10:05:38.999Z</time></trkpt><trkpt lat="44.97777" lon="8.360345"><ele>201.0</ele><time>2026-04-12T10:05:39.996Z</time></trkpt><trkpt lat="44.97767" lon="8.3604483"><ele>201.25</ele><time>2026-04-12T10:05:40.997Z</time></trkpt><trkpt lat="44.9775717" lon="8.3605533"><ele>201.5</ele><time>2026-04-12T10:05:41.996Z</time></trkpt><trkpt lat="44.9774817" lon="8.3606567"><ele>201.75</ele><time>2026-04-12T10:05:42.997Z</time></trkpt><trkpt lat="44.977395" lon="8.3607583"><ele>202.0</ele><time>2026-04-12T10:05:43.997Z</time></trkpt><trkpt lat="44.9773117" lon="8.3608617"><ele>202.0</ele><time>2026-04-12T10:05:44.997Z</time></trkpt><trkpt lat="44.9772233" lon="8.3609617"><ele>202.0</ele><time>2026-04-12T10:05:45.997Z</time></trkpt><trkpt lat="44.9771267" lon="8.361065"><ele>202.0</ele><time>2026-04-12T10:05:46.993Z</time></trkpt><trkpt lat="44.97702" lon="8.361155"><ele>202.0</ele><time>2026-04-12T10:05:47.995Z</time></trkpt><trkpt lat="44.9769033" lon="8.36124"><ele>202.0</ele><time>2026-04-12T10:05:48.994Z</time></trkpt><trkpt lat="44.9767717" lon="8.3613083"><ele>202.0</ele><time>2026-04-12T10:05:49.997Z</time></trkpt><trkpt lat="44.9766267" lon="8.3613583"><ele>202.0</ele><time>2026-04-12T10:05:50.996Z</time></trkpt><trkpt lat="44.9764767" lon="8.3614117"><ele>202.0</ele><time>2026-04-12T10:05:51.995Z</time></trkpt><trkpt lat="44.97632" lon="8.3614667"><ele>202.66666666666666</ele><time>2026-04-12T10:05:52.999Z</time></trkpt><trkpt lat="44.976155" lon="8.3615217"><ele>203.33333333333331</ele><time>2026-04-12T10:05:53.995Z</time></trkpt><trkpt lat="44.9759867" lon="8.3615733"><ele>204.0</ele><time>2026-04-12T10:05:54.997Z</time></trkpt><trkpt lat="44.97582" lon="8.3616283"><ele>200.0</ele><time>2026-04-12T10:05:55.996Z</time></trkpt><trkpt lat="44.9756483" lon="8.3616717"><ele>196.0</ele><time>2026-04-12T10:05:56.995Z</time></trkpt><trkpt lat="44.9754717" lon="8.3617017"><ele>192.0</ele><time>2026-04-12T10:05:57.997Z</time></trkpt><trkpt lat="44.9753017" lon="8.3617333"><ele>192.0</ele><time>2026-04-12T10:05:58.991Z</time></trkpt><trkpt lat="44.9751417" lon="8.36176"><ele>192.0</ele><time>2026-04-12T10:05:59.993Z</time></trkpt><trkpt lat="44.9749867" lon="8.3617917"><ele>192.0</ele><time>2026-04-12T10:06:00.998Z</time></trkpt><trkpt lat="44.9748367" lon="8.3618283"><ele>188.66666666666666</ele><time>2026-04-12T10:06:01.994Z</time></trkpt><trkpt lat="44.974695" lon="8.3618767"><ele>185.33333333333331</ele><time>2026-04-12T10:06:03.002Z</time></trkpt><trkpt lat="44.97455" lon="8.3619217"><ele>182.0</ele><time>2026-04-12T10:06:03.997Z</time></trkpt><trkpt lat="44.974395" lon="8.3619683"><ele>182.0</ele><time>2026-04-12T10:06:04.995Z</time></trkpt><trkpt lat="44.974235" lon="8.36202"><ele>182.0</ele><time>2026-04-12T10:06:05.995Z</time></trkpt><trkpt lat="44.9740767" lon="8.3620833"><ele>182.0</ele><time>2026-04-12T10:06:06.996Z</time></trkpt><trkpt lat="44.9739183" lon="8.362155"><ele>181.33333333333331</ele><time>2026-04-12T10:06:07.998Z</time></trkpt><trkpt lat="44.9737617" lon="8.3622483"><ele>180.66666666666666</ele><time>2026-04-12T10:06:08.993Z</time></trkpt><trkpt lat="44.9736" lon="8.3623583"><ele>180.0</ele><time>2026-04-12T10:06:09.994Z</time></trkpt><trkpt lat="44.9734383" lon="8.3624817"><ele>177.66666666666666</ele><time>2026-04-12T10:06:10.993Z</time></trkpt><trkpt lat="44.9732783" lon="8.36261"><ele>175.33333333333331</ele><time>2026-04-12T10:06:11.998Z</time></trkpt><trkpt lat="44.97312" lon="8.36274"><ele>173.0</ele><time>2026-04-12T10:06:12.999Z</time></trkpt><trkpt lat="44.9729633" lon="8.3628717"><ele>173.0</ele><time>2026-04-12T10:06:13.996Z</time></trkpt><trkpt lat="44.972795" lon="8.3630183"><ele>173.0</ele><time>2026-04-12T10:06:15Z</time></trkpt><trkpt lat="44.9726067" lon="8.3631783"><ele>173.0</ele><time>2026-04-12T10:06:15.996Z</time></trkpt><trkpt lat="44.9724033" lon="8.3633517"><ele>170.5</ele><time>2026-04-12T10:06:16.996Z</time></trkpt><trkpt lat="44.9721983" lon="8.3635233"><ele>168.0</ele><time>2026-04-12T10:06:17.994Z</time></trkpt><trkpt lat="44.9719967" lon="8.3636867"><ele>168.0</ele><time>2026-04-12T10:06:18.995Z</time></trkpt><trkpt lat="44.9717883" lon="8.36384"><ele>168.0</ele><time>2026-04-12T10:06:19.993Z</time></trkpt><trkpt lat="44.971575" lon="8.363975"><ele>172.5</ele><time>2026-04-12T10:06:20.997Z</time></trkpt><trkpt lat="44.97135" lon="8.3641017"><ele>177.0</ele><time>2026-04-12T10:06:21.992Z</time></trkpt><trkpt lat="44.9711217" lon="8.364225"><ele>177.0</ele><time>2026-04-12T10:06:22.997Z</time></trkpt><trkpt lat="44.9708867" lon="8.36434"><ele>177.0</ele><time>2026-04-12T10:06:23.997Z</time></trkpt><trkpt lat="44.9706533" lon="8.3644533"><ele>172.5</ele><time>2026-04-12T10:06:24.999Z</time></trkpt><trkpt lat="44.9704183" lon="8.3645617"><ele>168.0</ele><time>2026-04-12T10:06:25.996Z</time></trkpt><trkpt lat="44.97019" lon="8.364675"><ele>168.0</ele><time>2026-04-12T10:06:26.995Z</time></trkpt><trkpt lat="44.9699667" lon="8.3647867"><ele>168.0</ele><time>2026-04-12T10:06:27.993Z</time></trkpt><trkpt lat="44.96975" lon="8.3648983"><ele>168.0</ele><time>2026-04-12T10:06:28.998Z</time></trkpt><trkpt lat="44.9695383" lon="8.3650083"><ele>168.0</ele><time>2026-04-12T10:06:29.997Z</time></trkpt><trkpt lat="44.969335" lon="8.3651217"><ele>168.0</ele><time>2026-04-12T10:06:30.997Z</time></trkpt><trkpt lat="44.9691383" lon="8.365245"><ele>168.0</ele><time>2026-04-12T10:06:32.002Z</time></trkpt><trkpt lat="44.9689517" lon="8.3653867"><ele>168.0</ele><time>2026-04-12T10:06:32.993Z</time></trkpt><trkpt lat="44.968775" lon="8.3655517"><ele>168.0</ele><time>2026-04-12T10:06:33.996Z</time></trkpt><trkpt lat="44.9686033" lon="8.3657433"><ele>168.0</ele><time>2026-04-12T10:06:34.994Z</time></trkpt><trkpt lat="44.96844" lon="8.3659683"><ele>168.0</ele><time>2026-04-12T10:06:35.993Z</time></trkpt><trkpt lat="44.968285" lon="8.3662133"><ele>167.0</ele><time>2026-04-12T10:06:36.994Z</time></trkpt><trkpt lat="44.9681467" lon="8.3664783"><ele>166.0</ele><time>2026-04-12T10:06:38.004Z</time></trkpt><trkpt lat="44.9680233" lon="8.366735"><ele>166.0</ele><time>2026-04-12T10:06:38.994Z</time></trkpt><trkpt lat="44.967915" lon="8.3669817"><ele>166.0</ele><time>2026-04-12T10:06:39.995Z</time></trkpt><trkpt lat="44.9678067" lon="8.36722"><ele>166.0</ele><time>2026-04-12T10:06:40.994Z</time></trkpt><trkpt lat="44.9677033" lon="8.3674467"><ele>165.66666666666669</ele><time>2026-04-12T10:06:41.995Z</time></trkpt><trkpt lat="44.9676067" lon="8.3676583"><ele>165.33333333333334</ele><time>2026-04-12T10:06:42.992Z</time></trkpt><trkpt lat="44.9675133" lon="8.3678583"><ele>165.0</ele><time>2026-04-12T10:06:43.994Z</time></trkpt><trkpt lat="44.96743" lon="8.3680517"><ele>165.0</ele><time>2026-04-12T10:06:44.994Z</time></trkpt><trkpt lat="44.9673433" lon="8.3682467"><ele>165.0</ele><time>2026-04-12T10:06:45.995Z</time></trkpt><trkpt lat="44.9672567" lon="8.3684517"><ele>165.0</ele><time>2026-04-12T10:06:46.996Z</time></trkpt><trkpt lat="44.9671617" lon="8.3686683"><ele>166.33333333333334</ele><time>2026-04-12T10:06:47.998Z</time></trkpt><trkpt lat="44.9670583" lon="8.3688933"><ele>167.66666666666669</ele><time>2026-04-12T10:06:48.997Z</time></trkpt><trkpt lat="44.9669517" lon="8.36913"><ele>169.0</ele><time>2026-04-12T10:06:49.996Z</time></trkpt><trkpt lat="44.96684" lon="8.3693767"><ele>169.0</ele><time>2026-04-12T10:06:50.999Z</time></trkpt><trkpt lat="44.9667233" lon="8.3696317"><ele>169.0</ele><time>2026-04-12T10:06:51.998Z</time></trkpt><trkpt lat="44.966605" lon="8.3698967"><ele>169.0</ele><time>2026-04-12T10:06:52.996Z</time></trkpt><trkpt lat="44.9664883" lon="8.3701617"><ele>169.0</ele><time>2026-04-12T10:06:54.005Z</time></trkpt><trkpt lat="44.96637" lon="8.3704333"><ele>169.0</ele><time>2026-04-12T10:06:54.999Z</time></trkpt><trkpt lat="44.9662533" lon="8.370695"><ele>169.0</ele><time>2026-04-12T10:06:55.993Z</time></trkpt><trkpt lat="44.9661467" lon="8.37094"><ele>169.0</ele><time>2026-04-12T10:06:56.997Z</time></trkpt><trkpt lat="44.966045" lon="8.371165"><ele>169.0</ele><time>2026-04-12T10:06:57.996Z</time></trkpt><trkpt lat="44.9659483" lon="8.37137"><ele>169.0</ele><time>2026-04-12T10:06:59.004Z</time></trkpt><trkpt lat="44.9658433" lon="8.3715567"><ele>166.33333333333334</ele><time>2026-04-12T10:06:59.995Z</time></trkpt><trkpt lat="44.965725" lon="8.3717067"><ele>163.66666666666666</ele><time>2026-04-12T10:07:00.994Z</time></trkpt><trkpt lat="44.9655933" lon="8.37182"><ele>161.0</ele><time>2026-04-12T10:07:01.997Z</time></trkpt><trkpt lat="44.965445" lon="8.3718933"><ele>161.0</ele><time>2026-04-12T10:07:02.995Z</time></trkpt><trkpt lat="44.9652783" lon="8.3719383"><ele>161.0</ele><time>2026-04-12T10:07:03.996Z</time></trkpt><trkpt lat="44.9650967" lon="8.3719717"><ele>161.0</ele><time>2026-04-12T10:07:04.998Z</time></trkpt><trkpt lat="44.9648983" lon="8.3720017"><ele>160.33333333333331</ele><time>2026-04-12T10:07:05.998Z</time></trkpt><trkpt lat="44.9646867" lon="8.372035"><ele>159.66666666666666</ele><time>2026-04-12T10:07:07Z</time></trkpt><trkpt lat="44.9644683" lon="8.37207"><ele>159.0</ele><time>2026-04-12T10:07:07.996Z</time></trkpt><trkpt lat="44.96425" lon="8.3721067"><ele>159.0</ele><time>2026-04-12T10:07:08.997Z</time></trkpt><trkpt lat="44.9640267" lon="8.3721417"><ele>159.0</ele><time>2026-04-12T10:07:09.995Z</time></trkpt><trkpt lat="44.9638067" lon="8.3721767"><ele>159.0</ele><time>2026-04-12T10:07:10.991Z</time></trkpt><trkpt lat="44.9635867" lon="8.3722067"><ele>159.0</ele><time>2026-04-12T10:07:12.002Z</time></trkpt><trkpt lat="44.963375" lon="8.37221"><ele>159.0</ele><time>2026-04-12T10:07:13.002Z</time></trkpt><trkpt lat="44.9631667" lon="8.3721767"><ele>159.0</ele><time>2026-04-12T10:07:13.994Z</time></trkpt><trkpt lat="44.9629567" lon="8.3721117"><ele>159.0</ele><time>2026-04-12T10:07:14.998Z</time></trkpt><trkpt lat="44.9627533" lon="8.372025"><ele>159.0</ele><time>2026-04-12T10:07:15.997Z</time></trkpt><trkpt lat="44.962545" lon="8.371925"><ele>159.0</ele><time>2026-04-12T10:07:16.995Z</time></trkpt><trkpt lat="44.9623333" lon="8.3718217"><ele>159.0</ele><time>2026-04-12T10:07:17.994Z</time></trkpt><trkpt lat="44.962115" lon="8.3717233"><ele>159.0</ele><time>2026-04-12T10:07:19.002Z</time></trkpt><trkpt lat="44.9618967" lon="8.371615"><ele>157.0</ele><time>2026-04-12T10:07:19.999Z</time></trkpt><trkpt lat="44.9616733" lon="8.3715067"><ele>155.0</ele><time>2026-04-12T10:07:20.996Z</time></trkpt><trkpt lat="44.9614467" lon="8.3713983"><ele>157.5</ele><time>2026-04-12T10:07:22Z</time></trkpt><trkpt lat="44.961215" lon="8.3712883"><ele>160.0</ele><time>2026-04-12T10:07:22.995Z</time></trkpt><trkpt lat="44.960985" lon="8.3711783"><ele>157.5</ele><time>2026-04-12T10:07:23.995Z</time></trkpt><trkpt lat="44.9607583" lon="8.3710667"><ele>155.0</ele><time>2026-04-12T10:07:24.998Z</time></trkpt><trkpt lat="44.9605267" lon="8.3709583"><ele>155.0</ele><time>2026-04-12T10:07:25.994Z</time></trkpt><trkpt lat="44.9602933" lon="8.3708517"><ele>155.0</ele><time>2026-04-12T10:07:26.994Z</time></trkpt><trkpt lat="44.9600633" lon="8.3707417"><ele>154.0</ele><time>2026-04-12T10:07:27.994Z</time></trkpt><trkpt lat="44.9598383" lon="8.370635"><ele>153.0</ele><time>2026-04-12T10:07:28.995Z</time></trkpt><trkpt lat="44.9596217" lon="8.3705317"><ele>153.0</ele><time>2026-04-12T10:07:29.994Z</time></trkpt><trkpt lat="44.9594067" lon="8.37043"><ele>153.0</ele><time>2026-04-12T10:07:30.995Z</time></trkpt><trkpt lat="44.9591867" lon="8.37033"><ele>151.66666666666666</ele><time>2026-04-12T10:07:31.994Z</time></trkpt><trkpt lat="44.9589733" lon="8.3702317"><ele>150.33333333333331</ele><time>2026-04-12T10:07:32.998Z</time></trkpt><trkpt lat="44.9587617" lon="8.3701333"><ele>149.0</ele><time>2026-04-12T10:07:33.996Z</time></trkpt><trkpt lat="44.9585533" lon="8.370035"><ele>149.33333333333331</ele><time>2026-04-12T10:07:34.998Z</time></trkpt><trkpt lat="44.9583467" lon="8.3699417"><ele>149.66666666666666</ele><time>2026-04-12T10:07:35.996Z</time></trkpt><trkpt lat="44.9581433" lon="8.3698467"><ele>150.0</ele><time>2026-04-12T10:07:37Z</time></trkpt><trkpt lat="44.9579383" lon="8.36975"><ele>150.0</ele><time>2026-04-12T10:07:38Z</time></trkpt><trkpt lat="44.9577367" lon="8.3696567"><ele>150.0</ele><time>2026-04-12T10:07:38.998Z</time></trkpt><trkpt lat="44.957535" lon="8.3695733"><ele>150.0</ele><time>2026-04-12T10:07:40.002Z</time></trkpt><trkpt lat="44.95733" lon="8.369495"><ele>149.33333333333334</ele><time>2026-04-12T10:07:41.001Z</time></trkpt><trkpt lat="44.9571283" lon="8.369405"><ele>148.66666666666669</ele><time>2026-04-12T10:07:41.995Z</time></trkpt><trkpt lat="44.95694" lon="8.3693133"><ele>148.0</ele><time>2026-04-12T10:07:42.995Z</time></trkpt><trkpt lat="44.95675" lon="8.3692233"><ele>148.33333333333334</ele><time>2026-04-12T10:07:43.996Z</time></trkpt><trkpt lat="44.956555" lon="8.36914"><ele>148.66666666666666</ele><time>2026-04-12T10:07:44.998Z</time></trkpt><trkpt lat="44.9563483" lon="8.3690733"><ele>149.0</ele><time>2026-04-12T10:07:45.998Z</time></trkpt><trkpt lat="44.956145" lon="8.36903"><ele>149.0</ele><time>2026-04-12T10:07:46.993Z</time></trkpt><trkpt lat="44.9559483" lon="8.369005"><ele>149.0</ele><time>2026-04-12T10:07:47.999Z</time></trkpt><trkpt lat="44.9557533" lon="8.3689983"><ele>149.0</ele><time>2026-04-12T10:07:48.994Z</time></trkpt><trkpt lat="44.9555467" lon="8.3690167"><ele>149.33333333333331</ele><time>2026-04-12T10:07:49.994Z</time></trkpt><trkpt lat="44.9553367" lon="8.3690633"><ele>149.66666666666666</ele><time>2026-04-12T10:07:50.994Z</time></trkpt><trkpt lat="44.9551383" lon="8.369145"><ele>150.0</ele><time>2026-04-12T10:07:51.997Z</time></trkpt><trkpt lat="44.9549483" lon="8.3692433"><ele>150.0</ele><time>2026-04-12T10:07:52.995Z</time></trkpt><trkpt lat="44.9547733" lon="8.3693417"><ele>150.0</ele><time>2026-04-12T10:07:54Z</time></trkpt><trkpt lat="44.9546083" lon="8.3694467"><ele>150.0</ele><time>2026-04-12T10:07:54.994Z</time></trkpt><trkpt lat="44.954455" lon="8.3695467"><ele>150.0</ele><time>2026-04-12T10:07:55.996Z</time></trkpt><trkpt lat="44.9543083" lon="8.3696417"><ele>150.0</ele><time>2026-04-12T10:07:56.998Z</time></trkpt><trkpt lat="44.9541667" lon="8.3697333"><ele>150.0</ele><time>2026-04-12T10:07:57.998Z</time></trkpt><trkpt lat="44.954025" lon="8.3698183"><ele>149.66666666666666</ele><time>2026-04-12T10:07:58.999Z</time></trkpt><trkpt lat="44.9538917" lon="8.3699083"><ele>149.33333333333331</ele><time>2026-04-12T10:07:59.998Z</time></trkpt><trkpt lat="44.9537533" lon="8.3699933"><ele>149.0</ele><time>2026-04-12T10:08:00.997Z</time></trkpt><trkpt lat="44.9536133" lon="8.3700783"><ele>149.0</ele><time>2026-04-12T10:08:01.999Z</time></trkpt><trkpt lat="44.9534717" lon="8.3701683"><ele>149.0</ele><time>2026-04-12T10:08:02.997Z</time></trkpt><trkpt lat="44.953325" lon="8.3702617"><ele>149.0</ele><time>2026-04-12T10:08:03.996Z</time></trkpt><trkpt lat="44.95318" lon="8.3703517"><ele>148.33333333333331</ele><time>2026-04-12T10:08:04.996Z</time></trkpt><trkpt lat="44.95303" lon="8.3704383"><ele>147.66666666666666</ele><time>2026-04-12T10:08:05.994Z</time></trkpt><trkpt lat="44.9528817" lon="8.3705217"><ele>147.0</ele><time>2026-04-12T10:08:06.994Z</time></trkpt><trkpt lat="44.9527333" lon="8.37061"><ele>147.66666666666666</ele><time>2026-04-12T10:08:07.997Z</time></trkpt><trkpt lat="44.952585" lon="8.3707"><ele>148.33333333333331</ele><time>2026-04-12T10:08:08.995Z</time></trkpt><trkpt lat="44.952435" lon="8.3707883"><ele>149.0</ele><time>2026-04-12T10:08:09.999Z</time></trkpt><trkpt lat="44.9522833" lon="8.3708783"><ele>149.0</ele><time>2026-04-12T10:08:10.997Z</time></trkpt><trkpt lat="44.9521317" lon="8.370965"><ele>149.0</ele><time>2026-04-12T10:08:11.995Z</time></trkpt><trkpt lat="44.9519767" lon="8.371055"><ele>149.0</ele><time>2026-04-12T10:08:12.999Z</time></trkpt><trkpt lat="44.95182" lon="8.3711367"><ele>148.33333333333331</ele><time>2026-04-12T10:08:13.996Z</time></trkpt><trkpt lat="44.9516617" lon="8.3712167"><ele>147.66666666666666</ele><time>2026-04-12T10:08:14.997Z</time></trkpt><trkpt lat="44.9515017" lon="8.3712883"><ele>147.0</ele><time>2026-04-12T10:08:15.994Z</time></trkpt><trkpt lat="44.9513367" lon="8.3713517"><ele>147.66666666666666</ele><time>2026-04-12T10:08:16.995Z</time></trkpt><trkpt lat="44.95117" lon="8.3714017"><ele>148.33333333333331</ele><time>2026-04-12T10:08:17.995Z</time></trkpt><trkpt lat="44.951" lon="8.371435"><ele>149.0</ele><time>2026-04-12T10:08:18.996Z</time></trkpt><trkpt lat="44.9508333" lon="8.3714567"><ele>149.0</ele><time>2026-04-12T10:08:19.995Z</time></trkpt><trkpt lat="44.9506683" lon="8.3714717"><ele>149.0</ele><time>2026-04-12T10:08:20.998Z</time></trkpt><trkpt lat="44.9505067" lon="8.3714767"><ele>149.0</ele><time>2026-04-12T10:08:21.993Z</time></trkpt><trkpt lat="44.95035" lon="8.3714717"><ele>149.0</ele><time>2026-04-12T10:08:22.999Z</time></trkpt><trkpt lat="44.9501983" lon="8.3714617"><ele>149.0</ele><time>2026-04-12T10:08:23.996Z</time></trkpt><trkpt lat="44.9500483" lon="8.3714517"><ele>149.0</ele><time>2026-04-12T10:08:24.999Z</time></trkpt><trkpt lat="44.9498983" lon="8.3714367"><ele>148.75</ele><time>2026-04-12T10:08:25.994Z</time></trkpt><trkpt lat="44.9497483" lon="8.37142"><ele>148.5</ele><time>2026-04-12T10:08:26.996Z</time></trkpt><trkpt lat="44.9496" lon="8.3713983"><ele>148.25</ele><time>2026-04-12T10:08:27.995Z</time></trkpt><trkpt lat="44.9494533" lon="8.3713767"><ele>148.0</ele><time>2026-04-12T10:08:28.994Z</time></trkpt><trkpt lat="44.949305" lon="8.3713533"><ele>146.75</ele><time>2026-04-12T10:08:29.994Z</time></trkpt><trkpt lat="44.9491583" lon="8.3713317"><ele>145.5</ele><time>2026-04-12T10:08:30.998Z</time></trkpt><trkpt lat="44.949015" lon="8.371315"><ele>144.25</ele><time>2026-04-12T10:08:32.005Z</time></trkpt><trkpt lat="44.9488683" lon="8.371295"><ele>143.0</ele><time>2026-04-12T10:08:32.998Z</time></trkpt><trkpt lat="44.9487217" lon="8.3712717"><ele>143.0</ele><time>2026-04-12T10:08:34Z</time></trkpt><trkpt lat="44.9485767" lon="8.3712467"><ele>143.0</ele><time>2026-04-12T10:08:34.997Z</time></trkpt><trkpt lat="44.9484333" lon="8.3712217"><ele>143.0</ele><time>2026-04-12T10:08:35.992Z</time></trkpt><trkpt lat="44.9482867" lon="8.371195"><ele>143.0</ele><time>2026-04-12T10:08:36.991Z</time></trkpt><trkpt lat="44.9481417" lon="8.371175"><ele>143.0</ele><time>2026-04-12T10:08:37.995Z</time></trkpt><trkpt lat="44.948" lon="8.3711567"><ele>143.0</ele><time>2026-04-12T10:08:38.998Z</time></trkpt><trkpt lat="44.947865" lon="8.371145"><ele>143.0</ele><time>2026-04-12T10:08:39.999Z</time></trkpt><trkpt lat="44.947735" lon="8.3711333"><ele>143.0</ele><time>2026-04-12T10:08:41.002Z</time></trkpt><trkpt lat="44.947605" lon="8.3711267"><ele>143.0</ele><time>2026-04-12T10:08:42.002Z</time></trkpt><trkpt lat="44.9474733" lon="8.371105"><ele>143.0</ele><time>2026-04-12T10:08:42.999Z</time></trkpt><trkpt lat="44.947345" lon="8.3710817"><ele>143.0</ele><time>2026-04-12T10:08:43.998Z</time></trkpt><trkpt lat="44.9472233" lon="8.3710633"><ele>143.0</ele><time>2026-04-12T10:08:44.996Z</time></trkpt><trkpt lat="44.94711" lon="8.3710483"><ele>143.0</ele><time>2026-04-12T10:08:45.997Z</time></trkpt><trkpt lat="44.947015" lon="8.3710333"><ele>143.0</ele><time>2026-04-12T10:08:47Z</time></trkpt><trkpt lat="44.9469483" lon="8.3710267"><ele>143.0</ele><time>2026-04-12T10:08:47.997Z</time></trkpt><trkpt lat="44.9468717" lon="8.3710033"><ele>143.0</ele><time>2026-04-12T10:08:48.999Z</time></trkpt><trkpt lat="44.946835" lon="8.370905"><ele>143.0</ele><time>2026-04-12T10:08:50.995Z</time></trkpt><trkpt lat="44.9468633" lon="8.3707817"><ele>143.0</ele><time>2026-04-12T10:08:51.994Z</time></trkpt><trkpt lat="44.946885" lon="8.3706617"><ele>142.5</ele><time>2026-04-12T10:08:52.999Z</time></trkpt><trkpt lat="44.9469" lon="8.37051"><ele>142.0</ele><time>2026-04-12T10:08:53.994Z</time></trkpt><trkpt lat="44.94691" lon="8.3702933"><ele>141.5</ele><time>2026-04-12T10:08:54.998Z</time></trkpt><trkpt lat="44.9469217" lon="8.3701"><ele>141.0</ele><time>2026-04-12T10:08:55.995Z</time></trkpt><trkpt lat="44.94693" lon="8.3699"><ele>141.0</ele><time>2026-04-12T10:08:56.998Z</time></trkpt><trkpt lat="44.9469367" lon="8.3697"><ele>141.0</ele><time>2026-04-12T10:08:57.996Z</time></trkpt><trkpt lat="44.9469467" lon="8.369505"><ele>141.0</ele><time>2026-04-12T10:08:58.994Z</time></trkpt><trkpt lat="44.94696" lon="8.369325"><ele>141.0</ele><time>2026-04-12T10:08:59.994Z</time></trkpt><trkpt lat="44.94697" lon="8.3691533"><ele>141.4</ele><time>2026-04-12T10:09:00.999Z</time></trkpt><trkpt lat="44.94697" lon="8.369005"><ele>141.8</ele><time>2026-04-12T10:09:01.999Z</time></trkpt><trkpt lat="44.9469517" lon="8.36887"><ele>142.20000000000002</ele><time>2026-04-12T10:09:03.001Z</time></trkpt><trkpt lat="44.9469117" lon="8.368745"><ele>142.6</ele><time>2026-04-12T10:09:04.001Z</time></trkpt><trkpt lat="44.946845" lon="8.36863"><ele>143.0</ele><time>2026-04-12T10:09:05.003Z</time></trkpt><trkpt lat="44.9467567" lon="8.3685367"><ele>143.75</ele><time>2026-04-12T10:09:05.999Z</time></trkpt><trkpt lat="44.9466433" lon="8.3684717"><ele>144.5</ele><time>2026-04-12T10:09:06.996Z</time></trkpt><trkpt lat="44.9465067" lon="8.3684183"><ele>145.25</ele><time>2026-04-12T10:09:07.997Z</time></trkpt><trkpt lat="44.94637" lon="8.368365"><ele>146.0</ele><time>2026-04-12T10:09:08.999Z</time></trkpt><trkpt lat="44.9462267" lon="8.3683117"><ele>146.0</ele><time>2026-04-12T10:09:09.994Z</time></trkpt><trkpt lat="44.9460867" lon="8.3682517"><ele>146.0</ele><time>2026-04-12T10:09:10.994Z</time></trkpt><trkpt lat="44.9459467" lon="8.36819"><ele>146.0</ele><time>2026-04-12T10:09:11.995Z</time></trkpt><trkpt lat="44.945815" lon="8.36812"><ele>146.0</ele><time>2026-04-12T10:09:12.997Z</time></trkpt><trkpt lat="44.945695" lon="8.36804"><ele>146.5</ele><time>2026-04-12T10:09:13.998Z</time></trkpt><trkpt lat="44.945575" lon="8.367955"><ele>147.0</ele><time>2026-04-12T10:09:14.999Z</time></trkpt><trkpt lat="44.94546" lon="8.367875"><ele>147.5</ele><time>2026-04-12T10:09:15.996Z</time></trkpt><trkpt lat="44.94535" lon="8.3678083"><ele>148.0</ele><time>2026-04-12T10:09:16.999Z</time></trkpt><trkpt lat="44.9452433" lon="8.3677467"><ele>148.0</ele><time>2026-04-12T10:09:17.999Z</time></trkpt><trkpt lat="44.9451483" lon="8.367695"><ele>148.0</ele><time>2026-04-12T10:09:19Z</time></trkpt><trkpt lat="44.9450867" lon="8.3676183"><ele>148.0</ele><time>2026-04-12T10:09:19.998Z</time></trkpt><trkpt lat="44.945035" lon="8.3675283"><ele>148.0</ele><time>2026-04-12T10:09:20.996Z</time></trkpt><trkpt lat="44.9449933" lon="8.3674283"><ele>148.0</ele><time>2026-04-12T10:09:21.994Z</time></trkpt><trkpt lat="44.9449683" lon="8.367315"><ele>148.0</ele><time>2026-04-12T10:09:22.997Z</time></trkpt><trkpt lat="44.9449667" lon="8.3671917"><ele>150.60000000000002</ele><time>2026-04-12T10:09:23.997Z</time></trkpt><trkpt lat="44.9450483" lon="8.3670667"><ele>153.20000000000002</ele><time>2026-04-12T10:09:24.995Z</time></trkpt><trkpt lat="44.9451117" lon="8.3669567"><ele>155.8</ele><time>2026-04-12T10:09:25.995Z</time></trkpt><trkpt lat="44.9451883" lon="8.3668517"><ele>158.4</ele><time>2026-04-12T10:09:27Z</time></trkpt><trkpt lat="44.9452533" lon="8.3667333"><ele>161.0</ele><time>2026-04-12T10:09:27.997Z</time></trkpt><trkpt lat="44.9453017" lon="8.3666"><ele>161.0</ele><time>2026-04-12T10:09:28.996Z</time></trkpt><trkpt lat="44.9453183" lon="8.3664583"><ele>161.0</ele><time>2026-04-12T10:09:29.995Z</time></trkpt><trkpt lat="44.9452917" lon="8.3663383"><ele>161.0</ele><time>2026-04-12T10:09:30.995Z</time></trkpt><trkpt lat="44.9452333" lon="8.3662367"><ele>161.0</ele><time>2026-04-12T10:09:31.997Z</time></trkpt><trkpt lat="44.9451683" lon="8.36614"><ele>161.0</ele><time>2026-04-12T10:09:33Z</time></trkpt><trkpt lat="44.9451083" lon="8.3660467"><ele>161.8</ele><time>2026-04-12T10:09:33.998Z</time></trkpt><trkpt lat="44.94506" lon="8.365945"><ele>162.60000000000002</ele><time>2026-04-12T10:09:34.997Z</time></trkpt><trkpt lat="44.94503" lon="8.3658383"><ele>163.4</ele><time>2026-04-12T10:09:35.995Z</time></trkpt><trkpt lat="44.9450067" lon="8.3657167"><ele>164.2</ele><time>2026-04-12T10:09:36.998Z</time></trkpt><trkpt lat="44.9450167" lon="8.3655567"><ele>165.0</ele><time>2026-04-12T10:09:37.996Z</time></trkpt><trkpt lat="44.9450183" lon="8.365395"><ele>166.0</ele><time>2026-04-12T10:09:38.995Z</time></trkpt><trkpt lat="44.945025" lon="8.36522"><ele>167.0</ele><time>2026-04-12T10:09:39.998Z</time></trkpt><trkpt lat="44.9450183" lon="8.3650467"><ele>168.0</ele><time>2026-04-12T10:09:40.995Z</time></trkpt><trkpt lat="44.9449883" lon="8.3648717"><ele>169.0</ele><time>2026-04-12T10:09:41.999Z</time></trkpt><trkpt lat="44.944935" lon="8.3647"><ele>170.0</ele><time>2026-04-12T10:09:42.994Z</time></trkpt><trkpt lat="44.9448583" lon="8.364535"><ele>171.0</ele><time>2026-04-12T10:09:44.004Z</time></trkpt><trkpt lat="44.944755" lon="8.3643917"><ele>172.0</ele><time>2026-04-12T10:09:44.995Z</time></trkpt><trkpt lat="44.944645" lon="8.36426"><ele>173.0</ele><time>2026-04-12T10:09:45.997Z</time></trkpt><trkpt lat="44.9445217" lon="8.36414"><ele>173.0</ele><time>2026-04-12T10:09:46.993Z</time></trkpt><trkpt lat="44.944405" lon="8.3640167"><ele>173.0</ele><time>2026-04-12T10:09:47.994Z</time></trkpt><trkpt lat="44.9443017" lon="8.363905"><ele>173.0</ele><time>2026-04-12T10:09:48.998Z</time></trkpt><trkpt lat="44.9442167" lon="8.3638133"><ele>173.0</ele><time>2026-04-12T10:09:49.997Z</time></trkpt><trkpt lat="44.9441283" lon="8.3636933"><ele>174.5</ele><time>2026-04-12T10:09:50.999Z</time></trkpt><trkpt lat="44.9440683" lon="8.363565"><ele>176.0</ele><time>2026-04-12T10:09:51.998Z</time></trkpt><trkpt lat="44.9440233" lon="8.3634167"><ele>177.5</ele><time>2026-04-12T10:09:53Z</time></trkpt><trkpt lat="44.9439833" lon="8.363235"><ele>179.0</ele><time>2026-04-12T10:09:53.998Z</time></trkpt><trkpt lat="44.943945" lon="8.3630333"><ele>180.33333333333331</ele><time>2026-04-12T10:09:54.996Z</time></trkpt><trkpt lat="44.9438883" lon="8.3628283"><ele>181.66666666666666</ele><time>2026-04-12T10:09:56.002Z</time></trkpt><trkpt lat="44.9438283" lon="8.3626167"><ele>183.0</ele><time>2026-04-12T10:09:56.998Z</time></trkpt><trkpt lat="44.9437733" lon="8.3623967"><ele>184.66666666666666</ele><time>2026-04-12T10:09:57.999Z</time></trkpt><trkpt lat="44.94373" lon="8.3621767"><ele>186.33333333333331</ele><time>2026-04-12T10:09:58.995Z</time></trkpt><trkpt lat="44.9436867" lon="8.3619667"><ele>188.0</ele><time>2026-04-12T10:09:59.996Z</time></trkpt><trkpt lat="44.943665" lon="8.36175"><ele>188.0</ele><time>2026-04-12T10:10:00.994Z</time></trkpt><trkpt lat="44.9436583" lon="8.36154"><ele>188.0</ele><time>2026-04-12T10:10:01.995Z</time></trkpt><trkpt lat="44.9436683" lon="8.3613283"><ele>188.0</ele><time>2026-04-12T10:10:02.998Z</time></trkpt><trkpt lat="44.9436917" lon="8.3611217"><ele>188.0</ele><time>2026-04-12T10:10:03.996Z</time></trkpt><trkpt lat="44.9437217" lon="8.3609117"><ele>188.33333333333331</ele><time>2026-04-12T10:10:04.999Z</time></trkpt><trkpt lat="44.943755" lon="8.3607017"><ele>188.66666666666666</ele><time>2026-04-12T10:10:05.995Z</time></trkpt><trkpt lat="44.943795" lon="8.3604933"><ele>189.0</ele><time>2026-04-12T10:10:06.994Z</time></trkpt><trkpt lat="44.9438267" lon="8.36029"><ele>189.25</ele><time>2026-04-12T10:10:07.994Z</time></trkpt><trkpt lat="44.943845" lon="8.3600883"><ele>189.5</ele><time>2026-04-12T10:10:08.999Z</time></trkpt><trkpt lat="44.9438483" lon="8.359885"><ele>189.75</ele><time>2026-04-12T10:10:09.994Z</time></trkpt><trkpt lat="44.9438317" lon="8.359675"><ele>190.0</ele><time>2026-04-12T10:10:10.998Z</time></trkpt><trkpt lat="44.9438033" lon="8.3594617"><ele>190.0</ele><time>2026-04-12T10:10:11.992Z</time></trkpt><trkpt lat="44.943775" lon="8.3592417"><ele>190.0</ele><time>2026-04-12T10:10:12.998Z</time></trkpt><trkpt lat="44.9437417" lon="8.3590233"><ele>190.0</ele><time>2026-04-12T10:10:14.002Z</time></trkpt><trkpt lat="44.9437083" lon="8.3588083"><ele>189.0</ele><time>2026-04-12T10:10:14.996Z</time></trkpt><trkpt lat="44.9436817" lon="8.35859"><ele>188.0</ele><time>2026-04-12T10:10:15.998Z</time></trkpt><trkpt lat="44.9436533" lon="8.358375"><ele>187.0</ele><time>2026-04-12T10:10:16.994Z</time></trkpt><trkpt lat="44.9436267" lon="8.358155"><ele>186.33333333333334</ele><time>2026-04-12T10:10:17.997Z</time></trkpt><trkpt lat="44.9435967" lon="8.357935"><ele>185.66666666666666</ele><time>2026-04-12T10:10:18.995Z</time></trkpt><trkpt lat="44.9435683" lon="8.3577133"><ele>185.0</ele><time>2026-04-12T10:10:19.996Z</time></trkpt><trkpt lat="44.943545" lon="8.35749"><ele>185.0</ele><time>2026-04-12T10:10:20.998Z</time></trkpt><trkpt lat="44.9435283" lon="8.3572617"><ele>185.0</ele><time>2026-04-12T10:10:21.995Z</time></trkpt><trkpt lat="44.9435233" lon="8.3570267"><ele>185.0</ele><time>2026-04-12T10:10:22.997Z</time></trkpt><trkpt lat="44.9435117" lon="8.3567967"><ele>185.66666666666666</ele><time>2026-04-12T10:10:24.001Z</time></trkpt><trkpt lat="44.9434983" lon="8.35657"><ele>186.33333333333334</ele><time>2026-04-12T10:10:24.995Z</time></trkpt><trkpt lat="44.9434933" lon="8.3563433"><ele>187.0</ele><time>2026-04-12T10:10:25.995Z</time></trkpt><trkpt lat="44.9434983" lon="8.3561167"><ele>187.0</ele><time>2026-04-12T10:10:26.995Z</time></trkpt><trkpt lat="44.9435033" lon="8.3558967"><ele>187.0</ele><time>2026-04-12T10:10:27.996Z</time></trkpt><trkpt lat="44.9434933" lon="8.3556933"><ele>187.0</ele><time>2026-04-12T10:10:28.995Z</time></trkpt><trkpt lat="44.9434833" lon="8.3554933"><ele>187.0</ele><time>2026-04-12T10:10:29.996Z</time></trkpt><trkpt lat="44.943475" lon="8.3553133"><ele>188.5</ele><time>2026-04-12T10:10:30.995Z</time></trkpt><trkpt lat="44.9434567" lon="8.3551533"><ele>190.0</ele><time>2026-04-12T10:10:31.993Z</time></trkpt><trkpt lat="44.943425" lon="8.3550017"><ele>191.5</ele><time>2026-04-12T10:10:32.997Z</time></trkpt><trkpt lat="44.9433817" lon="8.354855"><ele>193.0</ele><time>2026-04-12T10:10:33.997Z</time></trkpt><trkpt lat="44.94333" lon="8.3547083"><ele>193.0</ele><time>2026-04-12T10:10:34.999Z</time></trkpt><trkpt lat="44.9432817" lon="8.3545683"><ele>193.0</ele><time>2026-04-12T10:10:35.994Z</time></trkpt><trkpt lat="44.94323" lon="8.35444"><ele>193.0</ele><time>2026-04-12T10:10:37Z</time></trkpt><trkpt lat="44.94319" lon="8.35431"><ele>193.0</ele><time>2026-04-12T10:10:37.996Z</time></trkpt><trkpt lat="44.943165" lon="8.3541867"><ele>193.0</ele><time>2026-04-12T10:10:38.999Z</time></trkpt><trkpt lat="44.9431417" lon="8.3540717"><ele>192.99999999999997</ele><time>2026-04-12T10:10:39.994Z</time></trkpt><trkpt lat="44.9431167" lon="8.3539617"><ele>193.0</ele><time>2026-04-12T10:10:40.995Z</time></trkpt><trkpt lat="44.943115" lon="8.3538383"><ele>193.0</ele><time>2026-04-12T10:10:41.995Z</time></trkpt><trkpt lat="44.9431267" lon="8.3537117"><ele>193.0</ele><time>2026-04-12T10:10:42.999Z</time></trkpt><trkpt lat="44.9431433" lon="8.3535883"><ele>192.99999999999997</ele><time>2026-04-12T10:10:43.992Z</time></trkpt><trkpt lat="44.9431617" lon="8.353465"><ele>193.0</ele><time>2026-04-12T10:10:44.998Z</time></trkpt><trkpt lat="44.9431667" lon="8.35334"><ele>191.25</ele><time>2026-04-12T10:10:45.995Z</time></trkpt><trkpt lat="44.9431483" lon="8.3532167"><ele>189.5</ele><time>2026-04-12T10:10:46.996Z</time></trkpt><trkpt lat="44.9431067" lon="8.3530733"><ele>187.75</ele><time>2026-04-12T10:10:47.997Z</time></trkpt><trkpt lat="44.94305" lon="8.3528867"><ele>186.0</ele><time>2026-04-12T10:10:48.994Z</time></trkpt><trkpt lat="44.9430033" lon="8.3527017"><ele>186.0</ele><time>2026-04-12T10:10:49.997Z</time></trkpt><trkpt lat="44.9429733" lon="8.35251"><ele>186.0</ele><time>2026-04-12T10:10:50.995Z</time></trkpt><trkpt lat="44.9429667" lon="8.3523117"><ele>186.0</ele><time>2026-04-12T10:10:52Z</time></trkpt><trkpt lat="44.9429533" lon="8.3521267"><ele>186.0</ele><time>2026-04-12T10:10:52.995Z</time></trkpt><trkpt lat="44.9429333" lon="8.3519517"><ele>186.75</ele><time>2026-04-12T10:10:53.997Z</time></trkpt><trkpt lat="44.9429017" lon="8.351785"><ele>187.5</ele><time>2026-04-12T10:10:54.997Z</time></trkpt><trkpt lat="44.9428583" lon="8.35163"><ele>188.25</ele><time>2026-04-12T10:10:55.995Z</time></trkpt><trkpt lat="44.9428017" lon="8.3514833"><ele>189.0</ele><time>2026-04-12T10:10:56.998Z</time></trkpt><trkpt lat="44.942715" lon="8.35136"><ele>189.0</ele><time>2026-04-12T10:10:57.998Z</time></trkpt><trkpt lat="44.94262" lon="8.3512417"><ele>189.0</ele><time>2026-04-12T10:10:59.004Z</time></trkpt><trkpt lat="44.9425133" lon="8.3511317"><ele>189.0</ele><time>2026-04-12T10:10:59.997Z</time></trkpt><trkpt lat="44.9424083" lon="8.3510333"><ele>189.0</ele><time>2026-04-12T10:11:00.998Z</time></trkpt><trkpt lat="44.9423017" lon="8.350935"><ele>188.25</ele><time>2026-04-12T10:11:01.992Z</time></trkpt><trkpt lat="44.9422067" lon="8.3508267"><ele>187.5</ele><time>2026-04-12T10:11:02.997Z</time></trkpt><trkpt lat="44.9421133" lon="8.3507167"><ele>186.75</ele><time>2026-04-12T10:11:03.996Z</time></trkpt><trkpt lat="44.9420233" lon="8.350605"><ele>186.0</ele><time>2026-04-12T10:11:04.997Z</time></trkpt><trkpt lat="44.9419183" lon="8.3505"><ele>185.0</ele><time>2026-04-12T10:11:05.998Z</time></trkpt><trkpt lat="44.9417983" lon="8.35042"><ele>184.0</ele><time>2026-04-12T10:11:06.992Z</time></trkpt><trkpt lat="44.941675" lon="8.3503517"><ele>183.0</ele><time>2026-04-12T10:11:07.998Z</time></trkpt><trkpt lat="44.9415633" lon="8.3503033"><ele>182.0</ele><time>2026-04-12T10:11:08.998Z</time></trkpt><trkpt lat="44.9414467" lon="8.3502883"><ele>181.25</ele><time>2026-04-12T10:11:09.995Z</time></trkpt><trkpt lat="44.9413217" lon="8.3502683"><ele>180.5</ele><time>2026-04-12T10:11:11Z</time></trkpt><trkpt lat="44.941195" lon="8.3502533"><ele>179.75</ele><time>2026-04-12T10:11:11.996Z</time></trkpt><trkpt lat="44.9410767" lon="8.3502333"><ele>179.0</ele><time>2026-04-12T10:11:12.998Z</time></trkpt><trkpt lat="44.940965" lon="8.350175"><ele>176.39999999999998</ele><time>2026-04-12T10:11:13.995Z</time></trkpt><trkpt lat="44.9408717" lon="8.3500833"><ele>173.8</ele><time>2026-04-12T10:11:14.997Z</time></trkpt><trkpt lat="44.9407967" lon="8.3499667"><ele>171.2</ele><time>2026-04-12T10:11:15.993Z</time></trkpt><trkpt lat="44.940745" lon="8.34984"><ele>168.60000000000002</ele><time>2026-04-12T10:11:16.993Z</time></trkpt><trkpt lat="44.94073" lon="8.349685"><ele>166.0</ele><time>2026-04-12T10:11:17.992Z</time></trkpt><trkpt lat="44.9407333" lon="8.349535"><ele>165.0</ele><time>2026-04-12T10:11:19.002Z</time></trkpt><trkpt lat="44.9407433" lon="8.3493633"><ele>164.0</ele><time>2026-04-12T10:11:19.998Z</time></trkpt><trkpt lat="44.9407417" lon="8.3491883"><ele>163.0</ele><time>2026-04-12T10:11:20.998Z</time></trkpt><trkpt lat="44.94072" lon="8.34901"><ele>162.0</ele><time>2026-04-12T10:11:22.001Z</time></trkpt><trkpt lat="44.9406833" lon="8.3488317"><ele>160.25</ele><time>2026-04-12T10:11:22.998Z</time></trkpt><trkpt lat="44.9406317" lon="8.348665"><ele>158.5</ele><time>2026-04-12T10:11:23.998Z</time></trkpt><trkpt lat="44.9405683" lon="8.3485133"><ele>156.75</ele><time>2026-04-12T10:11:25.001Z</time></trkpt><trkpt lat="44.940505" lon="8.34837"><ele>155.0</ele><time>2026-04-12T10:11:25.995Z</time></trkpt><trkpt lat="44.94041" lon="8.3482567"><ele>155.0</ele><time>2026-04-12T10:11:26.999Z</time></trkpt><trkpt lat="44.9403" lon="8.3481567"><ele>155.0</ele><time>2026-04-12T10:11:27.992Z</time></trkpt><trkpt lat="44.9401833" lon="8.348045"><ele>155.0</ele><time>2026-04-12T10:11:28.996Z</time></trkpt><trkpt lat="44.9400683" lon="8.3479217"><ele>155.0</ele><time>2026-04-12T10:11:29.997Z</time></trkpt><trkpt lat="44.9399483" lon="8.3477917"><ele>152.25</ele><time>2026-04-12T10:11:30.997Z</time></trkpt><trkpt lat="44.9398433" lon="8.3476533"><ele>149.5</ele><time>2026-04-12T10:11:31.998Z</time></trkpt><trkpt lat="44.9397433" lon="8.3475133"><ele>146.75</ele><time>2026-04-12T10:11:32.998Z</time></trkpt><trkpt lat="44.9396417" lon="8.3473783"><ele>144.0</ele><time>2026-04-12T10:11:34Z</time></trkpt><trkpt lat="44.9395483" lon="8.3472467"><ele>143.75</ele><time>2026-04-12T10:11:35.002Z</time></trkpt><trkpt lat="44.939455" lon="8.3471117"><ele>143.5</ele><time>2026-04-12T10:11:35.995Z</time></trkpt><trkpt lat="44.93936" lon="8.3469767"><ele>143.25</ele><time>2026-04-12T10:11:36.997Z</time></trkpt><trkpt lat="44.9392633" lon="8.3468417"><ele>143.0</ele><time>2026-04-12T10:11:37.995Z</time></trkpt><trkpt lat="44.939175" lon="8.3467133"><ele>143.0</ele><time>2026-04-12T10:11:38.997Z</time></trkpt><trkpt lat="44.9390933" lon="8.3465833"><ele>143.0</ele><time>2026-04-12T10:11:39.995Z</time></trkpt><trkpt lat="44.93903" lon="8.346445"><ele>143.0</ele><time>2026-04-12T10:11:40.994Z</time></trkpt><trkpt lat="44.9389633" lon="8.3463117"><ele>143.0</ele><time>2026-04-12T10:11:41.994Z</time></trkpt><trkpt lat="44.9389017" lon="8.3461617"><ele>143.0</ele><time>2026-04-12T10:11:42.995Z</time></trkpt><trkpt lat="44.9388467" lon="8.3460067"><ele>143.0</ele><time>2026-04-12T10:11:43.996Z</time></trkpt><trkpt lat="44.9387933" lon="8.34585"><ele>143.0</ele><time>2026-04-12T10:11:44.997Z</time></trkpt><trkpt lat="44.93875" lon="8.3456933"><ele>143.0</ele><time>2026-04-12T10:11:45.997Z</time></trkpt><trkpt lat="44.9387017" lon="8.34554"><ele>142.5</ele><time>2026-04-12T10:11:47.001Z</time></trkpt><trkpt lat="44.9386517" lon="8.34539"><ele>142.0</ele><time>2026-04-12T10:11:47.994Z</time></trkpt><trkpt lat="44.9386067" lon="8.3452333"><ele>141.5</ele><time>2026-04-12T10:11:48.993Z</time></trkpt><trkpt lat="44.9385517" lon="8.3450883"><ele>141.0</ele><time>2026-04-12T10:11:49.996Z</time></trkpt><trkpt lat="44.93852" lon="8.34494"><ele>141.0</ele><time>2026-04-12T10:11:50.997Z</time></trkpt><trkpt lat="44.9384883" lon="8.344805"><ele>141.0</ele><time>2026-04-12T10:11:51.997Z</time></trkpt><trkpt lat="44.9384583" lon="8.3446767"><ele>141.0</ele><time>2026-04-12T10:11:53Z</time></trkpt><trkpt lat="44.938425" lon="8.34457"><ele>141.0</ele><time>2026-04-12T10:11:54.001Z</time></trkpt><trkpt lat="44.9383633" lon="8.3444633"><ele>141.0</ele><time>2026-04-12T10:11:55.998Z</time></trkpt><trkpt lat="44.93829" lon="8.3444267"><ele>141.6</ele><time>2026-04-12T10:11:57.999Z</time></trkpt><trkpt lat="44.938185" lon="8.3444917"><ele>142.2</ele><time>2026-04-12T10:11:58.995Z</time></trkpt><trkpt lat="44.9380967" lon="8.3445533"><ele>142.8</ele><time>2026-04-12T10:11:59.999Z</time></trkpt><trkpt lat="44.9379967" lon="8.3446267"><ele>143.4</ele><time>2026-04-12T10:12:01Z</time></trkpt><trkpt lat="44.9378967" lon="8.3446733"><ele>144.0</ele><time>2026-04-12T10:12:01.994Z</time></trkpt><trkpt lat="44.9377867" lon="8.3446667"><ele>144.0</ele><time>2026-04-12T10:12:02.999Z</time></trkpt><trkpt lat="44.9376783" lon="8.34466"><ele>144.0</ele><time>2026-04-12T10:12:03.996Z</time></trkpt><trkpt lat="44.9375667" lon="8.3446533"><ele>144.0</ele><time>2026-04-12T10:12:05.002Z</time></trkpt><trkpt lat="44.937455" lon="8.3446567"><ele>144.0</ele><time>2026-04-12T10:12:05.992Z</time></trkpt><trkpt lat="44.9373383" lon="8.344665"><ele>144.0</ele><time>2026-04-12T10:12:07.002Z</time></trkpt><trkpt lat="44.9372183" lon="8.3446683"><ele>144.2</ele><time>2026-04-12T10:12:07.998Z</time></trkpt><trkpt lat="44.93711" lon="8.3446733"><ele>144.4</ele><time>2026-04-12T10:12:08.994Z</time></trkpt><trkpt lat="44.936995" lon="8.3446833"><ele>144.6</ele><time>2026-04-12T10:12:09.998Z</time></trkpt><trkpt lat="44.9368867" lon="8.344685"><ele>144.8</ele><time>2026-04-12T10:12:10.995Z</time></trkpt><trkpt lat="44.9367817" lon="8.344695"><ele>145.0</ele><time>2026-04-12T10:12:11.996Z</time></trkpt><trkpt lat="44.9366817" lon="8.3447083"><ele>145.16666666666669</ele><time>2026-04-12T10:12:13.001Z</time></trkpt><trkpt lat="44.9366017" lon="8.3447067"><ele>145.33333333333334</ele><time>2026-04-12T10:12:13.999Z</time></trkpt><trkpt lat="44.9365333" lon="8.3446967"><ele>145.5</ele><time>2026-04-12T10:12:15.001Z</time></trkpt><trkpt lat="44.936425" lon="8.3446333"><ele>145.66666666666666</ele><time>2026-04-12T10:12:16.996Z</time></trkpt><trkpt lat="44.9364117" lon="8.3445433"><ele>145.83333333333331</ele><time>2026-04-12T10:12:17.998Z</time></trkpt><trkpt lat="44.936405" lon="8.34444"><ele>146.0</ele><time>2026-04-12T10:12:18.999Z</time></trkpt><trkpt lat="44.9364083" lon="8.34433"><ele>146.0</ele><time>2026-04-12T10:12:19.996Z</time></trkpt><trkpt lat="44.9364267" lon="8.34422"><ele>146.0</ele><time>2026-04-12T10:12:20.995Z</time></trkpt><trkpt lat="44.936455" lon="8.344095"><ele>146.0</ele><time>2026-04-12T10:12:21.997Z</time></trkpt><trkpt lat="44.936455" lon="8.3439483"><ele>146.0</ele><time>2026-04-12T10:12:23.993Z</time></trkpt><trkpt lat="44.9364733" lon="8.3438467"><ele>146.0</ele><time>2026-04-12T10:12:25.997Z</time></trkpt><trkpt lat="44.9363633" lon="8.3438817"><ele>146.0</ele><time>2026-04-12T10:12:28.999Z</time></trkpt><trkpt lat="44.936275" lon="8.343985"><ele>146.0</ele><time>2026-04-12T10:12:30.002Z</time></trkpt><trkpt lat="44.9361983" lon="8.344065"><ele>146.0</ele><time>2026-04-12T10:12:31Z</time></trkpt><trkpt lat="44.9361167" lon="8.3441433"><ele>146.0</ele><time>2026-04-12T10:12:31.995Z</time></trkpt><trkpt lat="44.9360133" lon="8.3442517"><ele>146.0</ele><time>2026-04-12T10:12:32.997Z</time></trkpt><trkpt lat="44.9359117" lon="8.3443517"><ele>146.0</ele><time>2026-04-12T10:12:33.999Z</time></trkpt><trkpt lat="44.9358117" lon="8.3444517"><ele>146.0</ele><time>2026-04-12T10:12:34.996Z</time></trkpt><trkpt lat="44.9357133" lon="8.3445517"><ele>146.0</ele><time>2026-04-12T10:12:35.999Z</time></trkpt><trkpt lat="44.9356167" lon="8.3446517"><ele>146.0</ele><time>2026-04-12T10:12:36.998Z</time></trkpt><trkpt lat="44.93553" lon="8.34474"><ele>145.6</ele><time>2026-04-12T10:12:37.999Z</time></trkpt><trkpt lat="44.9354433" lon="8.3448233"><ele>145.2</ele><time>2026-04-12T10:12:38.996Z</time></trkpt><trkpt lat="44.9353617" lon="8.3449067"><ele>144.8</ele><time>2026-04-12T10:12:39.994Z</time></trkpt><trkpt lat="44.935285" lon="8.3449833"><ele>144.4</ele><time>2026-04-12T10:12:40.998Z</time></trkpt><trkpt lat="44.9351983" lon="8.3450733"><ele>144.0</ele><time>2026-04-12T10:12:41.998Z</time></trkpt><trkpt lat="44.9351067" lon="8.34517"><ele>144.0</ele><time>2026-04-12T10:12:42.998Z</time></trkpt><trkpt lat="44.9350033" lon="8.3452683"><ele>144.0</ele><time>2026-04-12T10:12:43.993Z</time></trkpt><trkpt lat="44.93488" lon="8.34538"><ele>144.0</ele><time>2026-04-12T10:12:44.996Z</time></trkpt><trkpt lat="44.9347567" lon="8.3454967"><ele>144.0</ele><time>2026-04-12T10:12:45.996Z</time></trkpt><trkpt lat="44.9346317" lon="8.3456233"><ele>143.33333333333334</ele><time>2026-04-12T10:12:46.996Z</time></trkpt><trkpt lat="44.9345033" lon="8.34575"><ele>142.66666666666669</ele><time>2026-04-12T10:12:47.997Z</time></trkpt><trkpt lat="44.9343717" lon="8.3458783"><ele>142.0</ele><time>2026-04-12T10:12:48.995Z</time></trkpt><trkpt lat="44.9342467" lon="8.3460033"><ele>141.75</ele><time>2026-04-12T10:12:49.995Z</time></trkpt><trkpt lat="44.93412" lon="8.346125"><ele>141.5</ele><time>2026-04-12T10:12:50.997Z</time></trkpt><trkpt lat="44.9339983" lon="8.3462483"><ele>141.25</ele><time>2026-04-12T10:12:51.994Z</time></trkpt><trkpt lat="44.9338783" lon="8.34636"><ele>141.0</ele><time>2026-04-12T10:12:53Z</time></trkpt><trkpt lat="44.9337583" lon="8.3464683"><ele>141.0</ele><time>2026-04-12T10:12:53.996Z</time></trkpt><trkpt lat="44.9336283" lon="8.34657"><ele>141.0</ele><time>2026-04-12T10:12:54.997Z</time></trkpt><trkpt lat="44.9335017" lon="8.3466533"><ele>141.0</ele><time>2026-04-12T10:12:55.991Z</time></trkpt><trkpt lat="44.93338" lon="8.3467317"><ele>141.0</ele><time>2026-04-12T10:12:56.996Z</time></trkpt><trkpt lat="44.93326" lon="8.3468067"><ele>141.5</ele><time>2026-04-12T10:12:57.997Z</time></trkpt><trkpt lat="44.9331433" lon="8.3468833"><ele>142.0</ele><time>2026-04-12T10:12:58.998Z</time></trkpt><trkpt lat="44.933035" lon="8.346945"><ele>142.5</ele><time>2026-04-12T10:12:59.994Z</time></trkpt><trkpt lat="44.932935" lon="8.3469933"><ele>143.0</ele><time>2026-04-12T10:13:00.999Z</time></trkpt><trkpt lat="44.9328383" lon="8.3470367"><ele>143.0</ele><time>2026-04-12T10:13:01.997Z</time></trkpt><trkpt lat="44.9327417" lon="8.3470783"><ele>143.0</ele><time>2026-04-12T10:13:02.996Z</time></trkpt><trkpt lat="44.9326417" lon="8.3471183"><ele>143.0</ele><time>2026-04-12T10:13:03.997Z</time></trkpt><trkpt lat="44.9325283" lon="8.3471583"><ele>143.0</ele><time>2026-04-12T10:13:04.996Z</time></trkpt><trkpt lat="44.9324083" lon="8.3472033"><ele>143.0</ele><time>2026-04-12T10:13:05.997Z</time></trkpt><trkpt lat="44.93228" lon="8.3472467"><ele>142.75</ele><time>2026-04-12T10:13:06.996Z</time></trkpt><trkpt lat="44.9321417" lon="8.3472917"><ele>142.5</ele><time>2026-04-12T10:13:07.997Z</time></trkpt><trkpt lat="44.9319983" lon="8.3473433"><ele>142.25</ele><time>2026-04-12T10:13:09Z</time></trkpt><trkpt lat="44.93185" lon="8.3474"><ele>142.0</ele><time>2026-04-12T10:13:09.994Z</time></trkpt><trkpt lat="44.9317" lon="8.347455"><ele>142.66666666666669</ele><time>2026-04-12T10:13:10.994Z</time></trkpt><trkpt lat="44.9315517" lon="8.347505"><ele>143.33333333333334</ele><time>2026-04-12T10:13:11.991Z</time></trkpt><trkpt lat="44.9314" lon="8.3475483"><ele>144.0</ele><time>2026-04-12T10:13:13.002Z</time></trkpt><trkpt lat="44.93125" lon="8.3476017"><ele>144.0</ele><time>2026-04-12T10:13:13.997Z</time></trkpt><trkpt lat="44.9311033" lon="8.347655"><ele>144.0</ele><time>2026-04-12T10:13:15Z</time></trkpt><trkpt lat="44.9309617" lon="8.3477083"><ele>144.0</ele><time>2026-04-12T10:13:15.998Z</time></trkpt><trkpt lat="44.9308217" lon="8.3477583"><ele>144.0</ele><time>2026-04-12T10:13:16.996Z</time></trkpt><trkpt lat="44.9306783" lon="8.3478067"><ele>144.5</ele><time>2026-04-12T10:13:17.995Z</time></trkpt><trkpt lat="44.9305383" lon="8.347855"><ele>145.0</ele><time>2026-04-12T10:13:18.998Z</time></trkpt><trkpt lat="44.9304033" lon="8.3479"><ele>145.5</ele><time>2026-04-12T10:13:20.001Z</time></trkpt><trkpt lat="44.930275" lon="8.347935"><ele>146.0</ele><time>2026-04-12T10:13:20.998Z</time></trkpt><trkpt lat="44.9301533" lon="8.3479667"><ele>146.0</ele><time>2026-04-12T10:13:22Z</time></trkpt><trkpt lat="44.930035" lon="8.34801"><ele>146.0</ele><time>2026-04-12T10:13:22.994Z</time></trkpt><trkpt lat="44.9299083" lon="8.3480767"><ele>146.0</ele><time>2026-04-12T10:13:24.002Z</time></trkpt><trkpt lat="44.9297667" lon="8.3481783"><ele>146.0</ele><time>2026-04-12T10:13:24.999Z</time></trkpt><trkpt lat="44.929605" lon="8.3482933"><ele>146.33333333333331</ele><time>2026-04-12T10:13:25.995Z</time></trkpt><trkpt lat="44.9294367" lon="8.3484067"><ele>146.66666666666666</ele><time>2026-04-12T10:13:26.994Z</time></trkpt><trkpt lat="44.9292833" lon="8.34852"><ele>147.0</ele><time>2026-04-12T10:13:28Z</time></trkpt><trkpt lat="44.929145" lon="8.3486217"><ele>147.0</ele><time>2026-04-12T10:13:28.997Z</time></trkpt><trkpt lat="44.9290067" lon="8.3487233"><ele>147.0</ele><time>2026-04-12T10:13:29.999Z</time></trkpt><trkpt lat="44.928875" lon="8.348805"><ele>147.0</ele><time>2026-04-12T10:13:30.996Z</time></trkpt><trkpt lat="44.92874" lon="8.3488667"><ele>147.0</ele><time>2026-04-12T10:13:31.995Z</time></trkpt><trkpt lat="44.9285933" lon="8.3489183"><ele>144.66666666666666</ele><time>2026-04-12T10:13:32.996Z</time></trkpt><trkpt lat="44.9284433" lon="8.3489567"><ele>142.33333333333331</ele><time>2026-04-12T10:13:33.999Z</time></trkpt><trkpt lat="44.928285" lon="8.3489883"><ele>140.0</ele><time>2026-04-12T10:13:34.992Z</time></trkpt><trkpt lat="44.9281233" lon="8.3490267"><ele>140.0</ele><time>2026-04-12T10:13:35.994Z</time></trkpt><trkpt lat="44.92796" lon="8.3490767"><ele>140.0</ele><time>2026-04-12T10:13:36.996Z</time></trkpt><trkpt lat="44.9277917" lon="8.3491233"><ele>140.0</ele><time>2026-04-12T10:13:38Z</time></trkpt><trkpt lat="44.9276267" lon="8.3491733"><ele>141.33333333333331</ele><time>2026-04-12T10:13:38.998Z</time></trkpt><trkpt lat="44.927465" lon="8.349235"><ele>142.66666666666666</ele><time>2026-04-12T10:13:39.998Z</time></trkpt><trkpt lat="44.9273167" lon="8.3493167"><ele>144.0</ele><time>2026-04-12T10:13:41.005Z</time></trkpt><trkpt lat="44.9271967" lon="8.34942"><ele>144.0</ele><time>2026-04-12T10:13:41.995Z</time></trkpt><trkpt lat="44.9270883" lon="8.349545"><ele>144.0</ele><time>2026-04-12T10:13:42.996Z</time></trkpt><trkpt lat="44.927" lon="8.3497133"><ele>144.0</ele><time>2026-04-12T10:13:43.994Z</time></trkpt><trkpt lat="44.926925" lon="8.34991"><ele>144.0</ele><time>2026-04-12T10:13:44.997Z</time></trkpt><trkpt lat="44.92686" lon="8.3500983"><ele>143.5</ele><time>2026-04-12T10:13:45.994Z</time></trkpt><trkpt lat="44.9267983" lon="8.350275"><ele>143.0</ele><time>2026-04-12T10:13:46.993Z</time></trkpt><trkpt lat="44.9267467" lon="8.35044"><ele>142.5</ele><time>2026-04-12T10:13:47.996Z</time></trkpt><trkpt lat="44.92668" lon="8.35059"><ele>142.0</ele><time>2026-04-12T10:13:48.994Z</time></trkpt><trkpt lat="44.9265867" lon="8.3507117"><ele>142.0</ele><time>2026-04-12T10:13:49.997Z</time></trkpt><trkpt lat="44.9264617" lon="8.3508067"><ele>142.0</ele><time>2026-04-12T10:13:50.996Z</time></trkpt><trkpt lat="44.9263217" lon="8.3508767"><ele>142.0</ele><time>2026-04-12T10:13:51.996Z</time></trkpt><trkpt lat="44.92619" lon="8.350945"><ele>142.0</ele><time>2026-04-12T10:13:52.997Z</time></trkpt><trkpt lat="44.926065" lon="8.35104"><ele>142.0</ele><time>2026-04-12T10:13:53.996Z</time></trkpt><trkpt lat="44.9259417" lon="8.351175"><ele>142.0</ele><time>2026-04-12T10:13:54.996Z</time></trkpt><trkpt lat="44.9258467" lon="8.35135"><ele>142.0</ele><time>2026-04-12T10:13:55.996Z</time></trkpt><trkpt lat="44.92577" lon="8.3515583"><ele>142.66666666666669</ele><time>2026-04-12T10:13:56.995Z</time></trkpt><trkpt lat="44.9257117" lon="8.351775"><ele>143.33333333333334</ele><time>2026-04-12T10:13:57.997Z</time></trkpt><trkpt lat="44.925655" lon="8.3519783"><ele>144.0</ele><time>2026-04-12T10:13:58.996Z</time></trkpt><trkpt lat="44.9255733" lon="8.3521733"><ele>141.0</ele><time>2026-04-12T10:14:00.011Z</time></trkpt><trkpt lat="44.9254867" lon="8.3523617"><ele>138.0</ele><time>2026-04-12T10:14:00.999Z</time></trkpt><trkpt lat="44.9253867" lon="8.3525567"><ele>135.0</ele><time>2026-04-12T10:14:01.995Z</time></trkpt><trkpt lat="44.9252817" lon="8.35276"><ele>135.0</ele><time>2026-04-12T10:14:03Z</time></trkpt><trkpt lat="44.9251767" lon="8.3529767"><ele>135.0</ele><time>2026-04-12T10:14:03.996Z</time></trkpt><trkpt lat="44.9250667" lon="8.353205"><ele>135.0</ele><time>2026-04-12T10:14:04.996Z</time></trkpt><trkpt lat="44.9249617" lon="8.3534383"><ele>134.66666666666666</ele><time>2026-04-12T10:14:06.001Z</time></trkpt><trkpt lat="44.9248583" lon="8.35366"><ele>134.33333333333331</ele><time>2026-04-12T10:14:06.997Z</time></trkpt><trkpt lat="44.92476" lon="8.3538767"><ele>134.0</ele><time>2026-04-12T10:14:07.999Z</time></trkpt><trkpt lat="44.92466" lon="8.3540833"><ele>132.33333333333331</ele><time>2026-04-12T10:14:09.001Z</time></trkpt><trkpt lat="44.9245533" lon="8.354265"><ele>130.66666666666666</ele><time>2026-04-12T10:14:09.995Z</time></trkpt><trkpt lat="44.9244317" lon="8.35443"><ele>129.0</ele><time>2026-04-12T10:14:10.995Z</time></trkpt><trkpt lat="44.9242967" lon="8.3545983"><ele>130.33333333333334</ele><time>2026-04-12T10:14:11.994Z</time></trkpt><trkpt lat="44.9241533" lon="8.3547683"><ele>131.66666666666669</ele><time>2026-04-12T10:14:12.996Z</time></trkpt><trkpt lat="44.924005" lon="8.3549283"><ele>133.0</ele><time>2026-04-12T10:14:13.996Z</time></trkpt><trkpt lat="44.9238583" lon="8.35506"><ele>133.0</ele><time>2026-04-12T10:14:14.996Z</time></trkpt><trkpt lat="44.9237067" lon="8.35516"><ele>133.0</ele><time>2026-04-12T10:14:15.994Z</time></trkpt><trkpt lat="44.9235483" lon="8.355225"><ele>133.0</ele><time>2026-04-12T10:14:17Z</time></trkpt><trkpt lat="44.9233833" lon="8.3552533"><ele>132.66666666666669</ele><time>2026-04-12T10:14:17.995Z</time></trkpt><trkpt lat="44.9232167" lon="8.3552483"><ele>132.33333333333334</ele><time>2026-04-12T10:14:18.997Z</time></trkpt><trkpt lat="44.9230533" lon="8.355235"><ele>132.0</ele><time>2026-04-12T10:14:19.992Z</time></trkpt><trkpt lat="44.922885" lon="8.355225"><ele>132.0</ele><time>2026-04-12T10:14:21.001Z</time></trkpt><trkpt lat="44.9227133" lon="8.35522"><ele>132.0</ele><time>2026-04-12T10:14:21.995Z</time></trkpt><trkpt lat="44.9225383" lon="8.35525"><ele>132.0</ele><time>2026-04-12T10:14:22.993Z</time></trkpt><trkpt lat="44.9223667" lon="8.3553067"><ele>131.66666666666666</ele><time>2026-04-12T10:14:23.997Z</time></trkpt><trkpt lat="44.922195" lon="8.3553783"><ele>131.33333333333331</ele><time>2026-04-12T10:14:24.995Z</time></trkpt><trkpt lat="44.922025" lon="8.355455"><ele>131.0</ele><time>2026-04-12T10:14:25.996Z</time></trkpt><trkpt lat="44.921855" lon="8.35554"><ele>129.66666666666666</ele><time>2026-04-12T10:14:26.996Z</time></trkpt><trkpt lat="44.9216883" lon="8.3556233"><ele>128.33333333333334</ele><time>2026-04-12T10:14:27.993Z</time></trkpt><trkpt lat="44.9215183" lon="8.3557017"><ele>127.0</ele><time>2026-04-12T10:14:28.996Z</time></trkpt><trkpt lat="44.921345" lon="8.35577"><ele>127.0</ele><time>2026-04-12T10:14:29.998Z</time></trkpt><trkpt lat="44.9211717" lon="8.3558383"><ele>127.0</ele><time>2026-04-12T10:14:30.996Z</time></trkpt><trkpt lat="44.921" lon="8.3559083"><ele>127.0</ele><time>2026-04-12T10:14:31.997Z</time></trkpt><trkpt lat="44.9208283" lon="8.3559833"><ele>127.33333333333334</ele><time>2026-04-12T10:14:32.994Z</time></trkpt><trkpt lat="44.9206583" lon="8.3560683"><ele>127.66666666666666</ele><time>2026-04-12T10:14:33.995Z</time></trkpt><trkpt lat="44.920495" lon="8.356175"><ele>128.0</ele><time>2026-04-12T10:14:34.996Z</time></trkpt><trkpt lat="44.9203383" lon="8.356305"><ele>127.66666666666666</ele><time>2026-04-12T10:14:35.996Z</time></trkpt><trkpt lat="44.9201883" lon="8.3564433"><ele>127.33333333333334</ele><time>2026-04-12T10:14:36.997Z</time></trkpt><trkpt lat="44.920035" lon="8.3565933"><ele>127.0</ele><time>2026-04-12T10:14:37.999Z</time></trkpt><trkpt lat="44.9198833" lon="8.3567383"><ele>128.33333333333334</ele><time>2026-04-12T10:14:38.996Z</time></trkpt><trkpt lat="44.9197267" lon="8.3568833"><ele>129.66666666666666</ele><time>2026-04-12T10:14:39.996Z</time></trkpt><trkpt lat="44.9195717" lon="8.3570233"><ele>131.0</ele><time>2026-04-12T10:14:41Z</time></trkpt><trkpt lat="44.919415" lon="8.35716"><ele>131.0</ele><time>2026-04-12T10:14:41.997Z</time></trkpt><trkpt lat="44.919255" lon="8.357295"><ele>131.0</ele><time>2026-04-12T10:14:42.997Z</time></trkpt><trkpt lat="44.9190967" lon="8.357415"><ele>131.0</ele><time>2026-04-12T10:14:43.995Z</time></trkpt><trkpt lat="44.9189333" lon="8.3575283"><ele>131.0</ele><time>2026-04-12T10:14:44.998Z</time></trkpt><trkpt lat="44.918765" lon="8.3576267"><ele>131.0</ele><time>2026-04-12T10:14:45.994Z</time></trkpt><trkpt lat="44.9185933" lon="8.357715"><ele>131.0</ele><time>2026-04-12T10:14:46.995Z</time></trkpt><trkpt lat="44.9184217" lon="8.357795"><ele>130.0</ele><time>2026-04-12T10:14:47.996Z</time></trkpt><trkpt lat="44.91825" lon="8.357855"><ele>129.0</ele><time>2026-04-12T10:14:48.996Z</time></trkpt><trkpt lat="44.91808" lon="8.3578883"><ele>128.0</ele><time>2026-04-12T10:14:49.996Z</time></trkpt><trkpt lat="44.917905" lon="8.3578967"><ele>128.0</ele><time>2026-04-12T10:14:50.997Z</time></trkpt><trkpt lat="44.917725" lon="8.357895"><ele>128.0</ele><time>2026-04-12T10:14:51.995Z</time></trkpt><trkpt lat="44.91754" lon="8.3578933"><ele>128.0</ele><time>2026-04-12T10:14:52.992Z</time></trkpt><trkpt lat="44.91735" lon="8.3578933"><ele>129.0</ele><time>2026-04-12T10:14:53.993Z</time></trkpt><trkpt lat="44.9171533" lon="8.35789"><ele>130.0</ele><time>2026-04-12T10:14:54.996Z</time></trkpt><trkpt lat="44.9169517" lon="8.3578917"><ele>131.0</ele><time>2026-04-12T10:14:55.997Z</time></trkpt><trkpt lat="44.9167483" lon="8.3578883"><ele>130.33333333333331</ele><time>2026-04-12T10:14:56.994Z</time></trkpt><trkpt lat="44.9165433" lon="8.3578867"><ele>129.66666666666666</ele><time>2026-04-12T10:14:57.993Z</time></trkpt><trkpt lat="44.9163383" lon="8.3578867"><ele>129.0</ele><time>2026-04-12T10:14:58.998Z</time></trkpt><trkpt lat="44.9161333" lon="8.3578933"><ele>129.0</ele><time>2026-04-12T10:14:59.997Z</time></trkpt><trkpt lat="44.9159367" lon="8.3579167"><ele>129.0</ele><time>2026-04-12T10:15:00.996Z</time></trkpt><trkpt lat="44.915745" lon="8.3579617"><ele>129.0</ele><time>2026-04-12T10:15:01.995Z</time></trkpt><trkpt lat="44.9155567" lon="8.3580067"><ele>129.0</ele><time>2026-04-12T10:15:02.993Z</time></trkpt><trkpt lat="44.91537" lon="8.3580483"><ele>129.0</ele><time>2026-04-12T10:15:03.996Z</time></trkpt><trkpt lat="44.915185" lon="8.3581017"><ele>129.0</ele><time>2026-04-12T10:15:04.995Z</time></trkpt><trkpt lat="44.9149983" lon="8.3581683"><ele>129.0</ele><time>2026-04-12T10:15:05.998Z</time></trkpt><trkpt lat="44.9148117" lon="8.358265"><ele>129.0</ele><time>2026-04-12T10:15:06.997Z</time></trkpt><trkpt lat="44.9146283" lon="8.35839"><ele>129.0</ele><time>2026-04-12T10:15:07.995Z</time></trkpt><trkpt lat="44.9144483" lon="8.35854"><ele>129.0</ele><time>2026-04-12T10:15:08.996Z</time></trkpt><trkpt lat="44.9142667" lon="8.3587033"><ele>129.0</ele><time>2026-04-12T10:15:09.998Z</time></trkpt><trkpt lat="44.9140883" lon="8.358885"><ele>129.0</ele><time>2026-04-12T10:15:11Z</time></trkpt><trkpt lat="44.9139117" lon="8.359075"><ele>129.66666666666666</ele><time>2026-04-12T10:15:11.996Z</time></trkpt><trkpt lat="44.913735" lon="8.3592633"><ele>130.33333333333331</ele><time>2026-04-12T10:15:13Z</time></trkpt><trkpt lat="44.9135633" lon="8.3594333"><ele>131.0</ele><time>2026-04-12T10:15:13.995Z</time></trkpt><trkpt lat="44.9133933" lon="8.35959"><ele>131.0</ele><time>2026-04-12T10:15:14.994Z</time></trkpt><trkpt lat="44.9132083" lon="8.3596983"><ele>131.0</ele><time>2026-04-12T10:15:15.999Z</time></trkpt><trkpt lat="44.91302" lon="8.35976"><ele>131.0</ele><time>2026-04-12T10:15:16.995Z</time></trkpt><trkpt lat="44.9128283" lon="8.3598483"><ele>131.0</ele><time>2026-04-12T10:15:17.994Z</time></trkpt><trkpt lat="44.9126433" lon="8.35996"><ele>131.0</ele><time>2026-04-12T10:15:18.994Z</time></trkpt><trkpt lat="44.9124667" lon="8.360095"><ele>131.0</ele><time>2026-04-12T10:15:19.994Z</time></trkpt><trkpt lat="44.912285" lon="8.3602417"><ele>131.33333333333331</ele><time>2026-04-12T10:15:21.003Z</time></trkpt><trkpt lat="44.912105" lon="8.3603983"><ele>131.66666666666666</ele><time>2026-04-12T10:15:21.995Z</time></trkpt><trkpt lat="44.9119217" lon="8.3605567"><ele>132.0</ele><time>2026-04-12T10:15:22.995Z</time></trkpt><trkpt lat="44.9117383" lon="8.3607133"><ele>130.33333333333334</ele><time>2026-04-12T10:15:23.994Z</time></trkpt><trkpt lat="44.911555" lon="8.360875"><ele>128.66666666666669</ele><time>2026-04-12T10:15:24.996Z</time></trkpt><trkpt lat="44.9113733" lon="8.3610383"><ele>127.0</ele><time>2026-04-12T10:15:25.998Z</time></trkpt><trkpt lat="44.91119" lon="8.3611983"><ele>127.0</ele><time>2026-04-12T10:15:27.002Z</time></trkpt><trkpt lat="44.9110033" lon="8.3613617"><ele>127.0</ele><time>2026-04-12T10:15:28.001Z</time></trkpt><trkpt lat="44.9108183" lon="8.361525"><ele>127.0</ele><time>2026-04-12T10:15:28.993Z</time></trkpt><trkpt lat="44.9106333" lon="8.36169"><ele>126.66666666666667</ele><time>2026-04-12T10:15:30.001Z</time></trkpt><trkpt lat="44.91045" lon="8.3618583"><ele>126.33333333333334</ele><time>2026-04-12T10:15:30.997Z</time></trkpt><trkpt lat="44.9102683" lon="8.36203"><ele>126.0</ele><time>2026-04-12T10:15:31.996Z</time></trkpt><trkpt lat="44.9100817" lon="8.3621917"><ele>125.66666666666666</ele><time>2026-04-12T10:15:32.996Z</time></trkpt><trkpt lat="44.9098867" lon="8.3623333"><ele>125.33333333333333</ele><time>2026-04-12T10:15:33.996Z</time></trkpt><trkpt lat="44.909685" lon="8.3624533"><ele>125.0</ele><time>2026-04-12T10:15:34.992Z</time></trkpt><trkpt lat="44.9094833" lon="8.3625617"><ele>125.0</ele><time>2026-04-12T10:15:35.993Z</time></trkpt><trkpt lat="44.9092833" lon="8.3626667"><ele>125.0</ele><time>2026-04-12T10:15:36.999Z</time></trkpt><trkpt lat="44.9090817" lon="8.36277"><ele>125.0</ele><time>2026-04-12T10:15:37.994Z</time></trkpt><trkpt lat="44.9088767" lon="8.3628783"><ele>125.33333333333333</ele><time>2026-04-12T10:15:39.001Z</time></trkpt><trkpt lat="44.9086733" lon="8.3629883"><ele>125.66666666666666</ele><time>2026-04-12T10:15:39.996Z</time></trkpt><trkpt lat="44.9084717" lon="8.36309"><ele>126.0</ele><time>2026-04-12T10:15:40.999Z</time></trkpt><trkpt lat="44.90827" lon="8.3631883"><ele>127.0</ele><time>2026-04-12T10:15:41.994Z</time></trkpt><trkpt lat="44.9080717" lon="8.3632883"><ele>128.0</ele><time>2026-04-12T10:15:42.998Z</time></trkpt><trkpt lat="44.9078783" lon="8.3634017"><ele>129.0</ele><time>2026-04-12T10:15:43.994Z</time></trkpt><trkpt lat="44.9076983" lon="8.3635433"><ele>129.33333333333334</ele><time>2026-04-12T10:15:44.996Z</time></trkpt><trkpt lat="44.9075217" lon="8.3637133"><ele>129.66666666666669</ele><time>2026-04-12T10:15:45.996Z</time></trkpt><trkpt lat="44.9073567" lon="8.363915"><ele>130.0</ele><time>2026-04-12T10:15:46.996Z</time></trkpt><trkpt lat="44.907195" lon="8.3641317"><ele>130.0</ele><time>2026-04-12T10:15:48.001Z</time></trkpt><trkpt lat="44.90704" lon="8.3643517"><ele>130.0</ele><time>2026-04-12T10:15:48.996Z</time></trkpt><trkpt lat="44.9068817" lon="8.3645717"><ele>130.0</ele><time>2026-04-12T10:15:49.997Z</time></trkpt><trkpt lat="44.9067283" lon="8.3647967"><ele>127.66666666666667</ele><time>2026-04-12T10:15:50.995Z</time></trkpt><trkpt lat="44.906585" lon="8.3650267"><ele>125.33333333333334</ele><time>2026-04-12T10:15:51.999Z</time></trkpt><trkpt lat="44.9064483" lon="8.36525"><ele>123.0</ele><time>2026-04-12T10:15:52.994Z</time></trkpt><trkpt lat="44.906315" lon="8.36546"><ele>123.0</ele><time>2026-04-12T10:15:54.001Z</time></trkpt><trkpt lat="44.90618" lon="8.3656617"><ele>123.0</ele><time>2026-04-12T10:15:54.998Z</time></trkpt><trkpt lat="44.906035" lon="8.3658417"><ele>123.0</ele><time>2026-04-12T10:15:55.999Z</time></trkpt><trkpt lat="44.9058783" lon="8.3659983"><ele>123.0</ele><time>2026-04-12T10:15:56.998Z</time></trkpt><trkpt lat="44.9057133" lon="8.3661417"><ele>123.0</ele><time>2026-04-12T10:15:57.998Z</time></trkpt><trkpt lat="44.9055467" lon="8.366275"><ele>123.0</ele><time>2026-04-12T10:15:58.998Z</time></trkpt><trkpt lat="44.9053833" lon="8.3663983"><ele>123.0</ele><time>2026-04-12T10:15:59.993Z</time></trkpt><trkpt lat="44.905235" lon="8.3665217"><ele>123.0</ele><time>2026-04-12T10:16:00.997Z</time></trkpt><trkpt lat="44.9050917" lon="8.366645"><ele>123.0</ele><time>2026-04-12T10:16:01.997Z</time></trkpt><trkpt lat="44.90496" lon="8.3667483"><ele>122.5</ele><time>2026-04-12T10:16:02.996Z</time></trkpt><trkpt lat="44.9048267" lon="8.3668333"><ele>122.0</ele><time>2026-04-12T10:16:03.992Z</time></trkpt><trkpt lat="44.9046867" lon="8.36689"><ele>121.5</ele><time>2026-04-12T10:16:04.994Z</time></trkpt><trkpt lat="44.9045367" lon="8.3669183"><ele>121.0</ele><time>2026-04-12T10:16:05.997Z</time></trkpt><trkpt lat="44.90438" lon="8.3669433"><ele>121.0</ele><time>2026-04-12T10:16:06.996Z</time></trkpt><trkpt lat="44.9042067" lon="8.3669617"><ele>121.0</ele><time>2026-04-12T10:16:07.992Z</time></trkpt><trkpt lat="44.90402" lon="8.3669767"><ele>121.0</ele><time>2026-04-12T10:16:08.998Z</time></trkpt><trkpt lat="44.9038217" lon="8.3669883"><ele>121.0</ele><time>2026-04-12T10:16:09.994Z</time></trkpt><trkpt lat="44.9036183" lon="8.3669967"><ele>121.0</ele><time>2026-04-12T10:16:10.996Z</time></trkpt><trkpt lat="44.9034017" lon="8.3670133"><ele>121.0</ele><time>2026-04-12T10:16:11.998Z</time></trkpt><trkpt lat="44.9031767" lon="8.36704"><ele>120.0</ele><time>2026-04-12T10:16:13Z</time></trkpt><trkpt lat="44.90294" lon="8.3670667"><ele>119.0</ele><time>2026-04-12T10:16:13.996Z</time></trkpt><trkpt lat="44.902695" lon="8.3670833"><ele>119.0</ele><time>2026-04-12T10:16:14.993Z</time></trkpt><trkpt lat="44.9024467" lon="8.3671017"><ele>119.0</ele><time>2026-04-12T10:16:15.996Z</time></trkpt><trkpt lat="44.9022017" lon="8.3671133"><ele>119.0</ele><time>2026-04-12T10:16:16.993Z</time></trkpt><trkpt lat="44.90197" lon="8.3671233"><ele>119.0</ele><time>2026-04-12T10:16:17.997Z</time></trkpt><trkpt lat="44.901745" lon="8.367135"><ele>120.33333333333333</ele><time>2026-04-12T10:16:18.994Z</time></trkpt><trkpt lat="44.90154" lon="8.3671467"><ele>121.66666666666666</ele><time>2026-04-12T10:16:19.995Z</time></trkpt><trkpt lat="44.901345" lon="8.3671583"><ele>123.0</ele><time>2026-04-12T10:16:20.996Z</time></trkpt><trkpt lat="44.901165" lon="8.3671667"><ele>123.0</ele><time>2026-04-12T10:16:21.995Z</time></trkpt><trkpt lat="44.9009983" lon="8.3671733"><ele>123.0</ele><time>2026-04-12T10:16:22.994Z</time></trkpt><trkpt lat="44.9008417" lon="8.367175"><ele>123.0</ele><time>2026-04-12T10:16:24Z</time></trkpt><trkpt lat="44.9006833" lon="8.3671533"><ele>125.33333333333334</ele><time>2026-04-12T10:16:24.999Z</time></trkpt><trkpt lat="44.90053" lon="8.3671133"><ele>127.66666666666667</ele><time>2026-04-12T10:16:25.995Z</time></trkpt><trkpt lat="44.9003767" lon="8.36706"><ele>130.0</ele><time>2026-04-12T10:16:26.999Z</time></trkpt><trkpt lat="44.9002217" lon="8.367"><ele>130.33333333333334</ele><time>2026-04-12T10:16:27.993Z</time></trkpt><trkpt lat="44.9000667" lon="8.3669367"><ele>130.66666666666666</ele><time>2026-04-12T10:16:28.993Z</time></trkpt><trkpt lat="44.8999083" lon="8.3668667"><ele>131.0</ele><time>2026-04-12T10:16:29.995Z</time></trkpt><trkpt lat="44.89974" lon="8.3668017"><ele>131.0</ele><time>2026-04-12T10:16:30.996Z</time></trkpt><trkpt lat="44.8995783" lon="8.366735"><ele>131.0</ele><time>2026-04-12T10:16:31.995Z</time></trkpt><trkpt lat="44.8994133" lon="8.3666667"><ele>131.0</ele><time>2026-04-12T10:16:32.994Z</time></trkpt><trkpt lat="44.8992433" lon="8.3665967"><ele>131.66666666666666</ele><time>2026-04-12T10:16:33.995Z</time></trkpt><trkpt lat="44.89907" lon="8.3665283"><ele>132.33333333333334</ele><time>2026-04-12T10:16:34.994Z</time></trkpt><trkpt lat="44.898895" lon="8.36646"><ele>133.0</ele><time>2026-04-12T10:16:35.996Z</time></trkpt><trkpt lat="44.8987233" lon="8.3663983"><ele>134.0</ele><time>2026-04-12T10:16:36.995Z</time></trkpt><trkpt lat="44.89856" lon="8.3663533"><ele>135.0</ele><time>2026-04-12T10:16:37.995Z</time></trkpt><trkpt lat="44.8984033" lon="8.3663483"><ele>136.0</ele><time>2026-04-12T10:16:39Z</time></trkpt><trkpt lat="44.8982517" lon="8.366405"><ele>134.0</ele><time>2026-04-12T10:16:39.996Z</time></trkpt><trkpt lat="44.8981067" lon="8.3664967"><ele>132.0</ele><time>2026-04-12T10:16:40.994Z</time></trkpt><trkpt lat="44.8979733" lon="8.366605"><ele>130.0</ele><time>2026-04-12T10:16:41.996Z</time></trkpt><trkpt lat="44.89785" lon="8.366715"><ele>130.0</ele><time>2026-04-12T10:16:42.996Z</time></trkpt><trkpt lat="44.897745" lon="8.3668033"><ele>130.0</ele><time>2026-04-12T10:16:43.994Z</time></trkpt><trkpt lat="44.8976617" lon="8.3668667"><ele>130.0</ele><time>2026-04-12T10:16:45.001Z</time></trkpt><trkpt lat="44.8975867" lon="8.3669183"><ele>130.0</ele><time>2026-04-12T10:16:45.997Z</time></trkpt><trkpt lat="44.8975183" lon="8.3669483"><ele>130.0</ele><time>2026-04-12T10:16:46.997Z</time></trkpt><trkpt lat="44.8974567" lon="8.366835"><ele>131.2</ele><time>2026-04-12T10:16:48.994Z</time></trkpt><trkpt lat="44.8974333" lon="8.36675"><ele>132.4</ele><time>2026-04-12T10:16:49.993Z</time></trkpt><trkpt lat="44.8974367" lon="8.3666083"><ele>133.6</ele><time>2026-04-12T10:16:51.001Z</time></trkpt><trkpt lat="44.8974633" lon="8.36645"><ele>134.8</ele><time>2026-04-12T10:16:51.992Z</time></trkpt><trkpt lat="44.8975067" lon="8.366285"><ele>136.0</ele><time>2026-04-12T10:16:52.996Z</time></trkpt><trkpt lat="44.8975633" lon="8.3661267"><ele>136.0</ele><time>2026-04-12T10:16:53.993Z</time></trkpt><trkpt lat="44.8976267" lon="8.3659783"><ele>136.0</ele><time>2026-04-12T10:16:54.997Z</time></trkpt><trkpt lat="44.8977" lon="8.3658283"><ele>136.0</ele><time>2026-04-12T10:16:55.996Z</time></trkpt><trkpt lat="44.8977783" lon="8.3656733"><ele>136.0</ele><time>2026-04-12T10:16:56.995Z</time></trkpt><trkpt lat="44.8978583" lon="8.3655233"><ele>138.5</ele><time>2026-04-12T10:16:57.997Z</time></trkpt><trkpt lat="44.8979333" lon="8.365375"><ele>141.0</ele><time>2026-04-12T10:16:59Z</time></trkpt><trkpt lat="44.89802" lon="8.365225"><ele>143.5</ele><time>2026-04-12T10:16:59.994Z</time></trkpt><trkpt lat="44.8981" lon="8.3650833"><ele>146.0</ele><time>2026-04-12T10:17:00.996Z</time></trkpt><trkpt lat="44.8981683" lon="8.3649283"><ele>146.0</ele><time>2026-04-12T10:17:01.996Z</time></trkpt><trkpt lat="44.898235" lon="8.3647733"><ele>146.0</ele><time>2026-04-12T10:17:02.995Z</time></trkpt><trkpt lat="44.898285" lon="8.3645917"><ele>146.0</ele><time>2026-04-12T10:17:03.994Z</time></trkpt><trkpt lat="44.8983233" lon="8.3643883"><ele>146.0</ele><time>2026-04-12T10:17:04.993Z</time></trkpt><trkpt lat="44.8983583" lon="8.364165"><ele>149.33333333333331</ele><time>2026-04-12T10:17:05.996Z</time></trkpt><trkpt lat="44.898385" lon="8.3639117"><ele>152.66666666666666</ele><time>2026-04-12T10:17:06.996Z</time></trkpt><trkpt lat="44.898405" lon="8.36365"><ele>156.0</ele><time>2026-04-12T10:17:07.995Z</time></trkpt><trkpt lat="44.8984133" lon="8.363395"><ele>156.33333333333334</ele><time>2026-04-12T10:17:09Z</time></trkpt><trkpt lat="44.8984067" lon="8.36314"><ele>156.66666666666669</ele><time>2026-04-12T10:17:09.992Z</time></trkpt><trkpt lat="44.898395" lon="8.3628867"><ele>157.0</ele><time>2026-04-12T10:17:11.003Z</time></trkpt><trkpt lat="44.8983767" lon="8.3626333"><ele>157.0</ele><time>2026-04-12T10:17:11.995Z</time></trkpt><trkpt lat="44.8983533" lon="8.3623917"><ele>157.0</ele><time>2026-04-12T10:17:13.003Z</time></trkpt><trkpt lat="44.8983283" lon="8.3621617"><ele>157.0</ele><time>2026-04-12T10:17:13.993Z</time></trkpt><trkpt lat="44.898305" lon="8.3619417"><ele>157.0</ele><time>2026-04-12T10:17:14.996Z</time></trkpt><trkpt lat="44.8982933" lon="8.3617333"><ele>157.0</ele><time>2026-04-12T10:17:15.996Z</time></trkpt><trkpt lat="44.8982783" lon="8.3615317"><ele>157.0</ele><time>2026-04-12T10:17:16.997Z</time></trkpt><trkpt lat="44.89827" lon="8.3613367"><ele>157.0</ele><time>2026-04-12T10:17:17.995Z</time></trkpt><trkpt lat="44.8982567" lon="8.3611483"><ele>157.75</ele><time>2026-04-12T10:17:18.993Z</time></trkpt><trkpt lat="44.8982233" lon="8.36097"><ele>158.5</ele><time>2026-04-12T10:17:19.997Z</time></trkpt><trkpt lat="44.8981683" lon="8.3607917"><ele>159.25</ele><time>2026-04-12T10:17:20.995Z</time></trkpt><trkpt lat="44.8981033" lon="8.3606133"><ele>160.0</ele><time>2026-04-12T10:17:21.991Z</time></trkpt><trkpt lat="44.8980383" lon="8.36044"><ele>161.0</ele><time>2026-04-12T10:17:22.995Z</time></trkpt><trkpt lat="44.8979783" lon="8.3602633"><ele>162.0</ele><time>2026-04-12T10:17:23.995Z</time></trkpt><trkpt lat="44.8979317" lon="8.360085"><ele>163.0</ele><time>2026-04-12T10:17:24.992Z</time></trkpt><trkpt lat="44.8979017" lon="8.359895"><ele>164.0</ele><time>2026-04-12T10:17:25.993Z</time></trkpt><trkpt lat="44.89787" lon="8.3597067"><ele>164.0</ele><time>2026-04-12T10:17:26.997Z</time></trkpt><trkpt lat="44.897835" lon="8.3595117"><ele>164.0</ele><time>2026-04-12T10:17:27.998Z</time></trkpt><trkpt lat="44.8978033" lon="8.3593133"><ele>164.0</ele><time>2026-04-12T10:17:28.996Z</time></trkpt><trkpt lat="44.8977733" lon="8.359115"><ele>164.0</ele><time>2026-04-12T10:17:29.996Z</time></trkpt><trkpt lat="44.89775" lon="8.3589133"><ele>164.0</ele><time>2026-04-12T10:17:31.001Z</time></trkpt><trkpt lat="44.897725" lon="8.3587233"><ele>164.0</ele><time>2026-04-12T10:17:31.996Z</time></trkpt><trkpt lat="44.897695" lon="8.3585433"><ele>164.0</ele><time>2026-04-12T10:17:33Z</time></trkpt><trkpt lat="44.8976683" lon="8.3583667"><ele>164.0</ele><time>2026-04-12T10:17:33.992Z</time></trkpt><trkpt lat="44.8976417" lon="8.3581967"><ele>163.5</ele><time>2026-04-12T10:17:34.997Z</time></trkpt><trkpt lat="44.8976167" lon="8.3580267"><ele>163.0</ele><time>2026-04-12T10:17:35.998Z</time></trkpt><trkpt lat="44.8975933" lon="8.35786"><ele>162.5</ele><time>2026-04-12T10:17:36.993Z</time></trkpt><trkpt lat="44.89757" lon="8.3576883"><ele>162.0</ele><time>2026-04-12T10:17:37.994Z</time></trkpt><trkpt lat="44.8975483" lon="8.3575183"><ele>163.0</ele><time>2026-04-12T10:17:38.995Z</time></trkpt><trkpt lat="44.8975217" lon="8.3573517"><ele>164.0</ele><time>2026-04-12T10:17:39.998Z</time></trkpt><trkpt lat="44.8975" lon="8.3571867"><ele>165.0</ele><time>2026-04-12T10:17:40.997Z</time></trkpt><trkpt lat="44.89749" lon="8.3570117"><ele>166.0</ele><time>2026-04-12T10:17:41.997Z</time></trkpt><trkpt lat="44.89747" lon="8.3568417"><ele>166.0</ele><time>2026-04-12T10:17:42.998Z</time></trkpt><trkpt lat="44.89745" lon="8.356665"><ele>166.0</ele><time>2026-04-12T10:17:43.998Z</time></trkpt><trkpt lat="44.897425" lon="8.3564967"><ele>166.0</ele><time>2026-04-12T10:17:44.993Z</time></trkpt><trkpt lat="44.8974067" lon="8.356325"><ele>166.0</ele><time>2026-04-12T10:17:45.999Z</time></trkpt><trkpt lat="44.8973883" lon="8.3561617"><ele>165.8</ele><time>2026-04-12T10:17:46.994Z</time></trkpt><trkpt lat="44.897375" lon="8.35602"><ele>165.60000000000002</ele><time>2026-04-12T10:17:47.995Z</time></trkpt><trkpt lat="44.8973617" lon="8.3559167"><ele>165.4</ele><time>2026-04-12T10:17:48.999Z</time></trkpt><trkpt lat="44.8973517" lon="8.35577"><ele>165.2</ele><time>2026-04-12T10:17:50.995Z</time></trkpt><trkpt lat="44.8973433" lon="8.35562"><ele>165.0</ele><time>2026-04-12T10:17:53.996Z</time></trkpt><trkpt lat="44.8973" lon="8.3554367"><ele>165.4</ele><time>2026-04-12T10:17:55.993Z</time></trkpt><trkpt lat="44.8972667" lon="8.3553167"><ele>165.8</ele><time>2026-04-12T10:17:57.006Z</time></trkpt><trkpt lat="44.8972183" lon="8.3551883"><ele>166.2</ele><time>2026-04-12T10:17:57.994Z</time></trkpt><trkpt lat="44.89717" lon="8.3550483"><ele>166.6</ele><time>2026-04-12T10:17:58.997Z</time></trkpt><trkpt lat="44.8971283" lon="8.354915"><ele>167.0</ele><time>2026-04-12T10:17:59.993Z</time></trkpt><trkpt lat="44.89709" lon="8.3547867"><ele>167.39999999999998</ele><time>2026-04-12T10:18:00.994Z</time></trkpt><trkpt lat="44.8970433" lon="8.3546617"><ele>167.79999999999998</ele><time>2026-04-12T10:18:01.996Z</time></trkpt><trkpt lat="44.89699" lon="8.354535"><ele>168.2</ele><time>2026-04-12T10:18:02.998Z</time></trkpt><trkpt lat="44.89693" lon="8.354405"><ele>168.6</ele><time>2026-04-12T10:18:03.997Z</time></trkpt><trkpt lat="44.8968617" lon="8.35426"><ele>169.0</ele><time>2026-04-12T10:18:04.996Z</time></trkpt><trkpt lat="44.89679" lon="8.354095"><ele>168.5</ele><time>2026-04-12T10:18:05.996Z</time></trkpt><trkpt lat="44.89671" lon="8.35392"><ele>168.0</ele><time>2026-04-12T10:18:06.998Z</time></trkpt><trkpt lat="44.896625" lon="8.3537483"><ele>167.5</ele><time>2026-04-12T10:18:07.994Z</time></trkpt><trkpt lat="44.89654" lon="8.3535733"><ele>167.0</ele><time>2026-04-12T10:18:08.998Z</time></trkpt><trkpt lat="44.8964567" lon="8.353395"><ele>167.0</ele><time>2026-04-12T10:18:10.001Z</time></trkpt><trkpt lat="44.89637" lon="8.35322"><ele>167.0</ele><time>2026-04-12T10:18:11.002Z</time></trkpt><trkpt lat="44.896285" lon="8.3530517"><ele>167.0</ele><time>2026-04-12T10:18:11.997Z</time></trkpt><trkpt lat="44.8962083" lon="8.3528867"><ele>167.0</ele><time>2026-04-12T10:18:12.992Z</time></trkpt><trkpt lat="44.8961533" lon="8.352725"><ele>167.0</ele><time>2026-04-12T10:18:13.995Z</time></trkpt><trkpt lat="44.8961083" lon="8.3525683"><ele>167.0</ele><time>2026-04-12T10:18:14.994Z</time></trkpt><trkpt lat="44.89608" lon="8.3524017"><ele>167.0</ele><time>2026-04-12T10:18:15.995Z</time></trkpt><trkpt lat="44.8960633" lon="8.3522283"><ele>167.0</ele><time>2026-04-12T10:18:16.995Z</time></trkpt><trkpt lat="44.8960417" lon="8.3520467"><ele>166.5</ele><time>2026-04-12T10:18:17.998Z</time></trkpt><trkpt lat="44.8960017" lon="8.351855"><ele>166.0</ele><time>2026-04-12T10:18:18.993Z</time></trkpt><trkpt lat="44.89594" lon="8.3516633"><ele>165.5</ele><time>2026-04-12T10:18:19.998Z</time></trkpt><trkpt lat="44.895855" lon="8.3514883"><ele>165.0</ele><time>2026-04-12T10:18:20.995Z</time></trkpt><trkpt lat="44.895745" lon="8.351325"><ele>163.0</ele><time>2026-04-12T10:18:21.994Z</time></trkpt><trkpt lat="44.895625" lon="8.3511667"><ele>161.0</ele><time>2026-04-12T10:18:22.993Z</time></trkpt><trkpt lat="44.8955017" lon="8.3510083"><ele>159.0</ele><time>2026-04-12T10:18:23.996Z</time></trkpt><trkpt lat="44.89538" lon="8.350845"><ele>159.0</ele><time>2026-04-12T10:18:24.993Z</time></trkpt><trkpt lat="44.8952683" lon="8.3506717"><ele>159.0</ele><time>2026-04-12T10:18:26.003Z</time></trkpt><trkpt lat="44.89516" lon="8.3504933"><ele>159.0</ele><time>2026-04-12T10:18:26.998Z</time></trkpt><trkpt lat="44.8950483" lon="8.3503117"><ele>158.66666666666666</ele><time>2026-04-12T10:18:27.992Z</time></trkpt><trkpt lat="44.8949383" lon="8.3501333"><ele>158.33333333333331</ele><time>2026-04-12T10:18:28.997Z</time></trkpt><trkpt lat="44.8948367" lon="8.3499467"><ele>158.0</ele><time>2026-04-12T10:18:29.999Z</time></trkpt><trkpt lat="44.8947433" lon="8.3497533"><ele>158.0</ele><time>2026-04-12T10:18:31.002Z</time></trkpt><trkpt lat="44.8946583" lon="8.3495533"><ele>158.0</ele><time>2026-04-12T10:18:31.998Z</time></trkpt><trkpt lat="44.894575" lon="8.3493533"><ele>158.0</ele><time>2026-04-12T10:18:32.994Z</time></trkpt><trkpt lat="44.8944883" lon="8.3491533"><ele>158.0</ele><time>2026-04-12T10:18:33.995Z</time></trkpt><trkpt lat="44.89441" lon="8.34895"><ele>158.0</ele><time>2026-04-12T10:18:34.996Z</time></trkpt><trkpt lat="44.894335" lon="8.3487483"><ele>158.0</ele><time>2026-04-12T10:18:35.997Z</time></trkpt><trkpt lat="44.8942617" lon="8.34856"><ele>160.5</ele><time>2026-04-12T10:18:36.997Z</time></trkpt><trkpt lat="44.89418" lon="8.3483917"><ele>163.0</ele><time>2026-04-12T10:18:37.996Z</time></trkpt><trkpt lat="44.8940967" lon="8.3482417"><ele>165.5</ele><time>2026-04-12T10:18:38.999Z</time></trkpt><trkpt lat="44.8940117" lon="8.348105"><ele>168.0</ele><time>2026-04-12T10:18:39.993Z</time></trkpt><trkpt lat="44.89393" lon="8.3479717"><ele>168.5</ele><time>2026-04-12T10:18:40.997Z</time></trkpt><trkpt lat="44.8938517" lon="8.34784"><ele>169.0</ele><time>2026-04-12T10:18:41.994Z</time></trkpt><trkpt lat="44.8937633" lon="8.3477217"><ele>169.5</ele><time>2026-04-12T10:18:42.995Z</time></trkpt><trkpt lat="44.8936783" lon="8.3476183"><ele>170.0</ele><time>2026-04-12T10:18:43.997Z</time></trkpt><trkpt lat="44.8936" lon="8.3475167"><ele>170.0</ele><time>2026-04-12T10:18:44.995Z</time></trkpt><trkpt lat="44.893525" lon="8.3474183"><ele>170.0</ele><time>2026-04-12T10:18:45.997Z</time></trkpt><trkpt lat="44.8934433" lon="8.347335"><ele>170.0</ele><time>2026-04-12T10:18:46.996Z</time></trkpt><trkpt lat="44.893375" lon="8.3472283"><ele>170.0</ele><time>2026-04-12T10:18:47.997Z</time></trkpt><trkpt lat="44.8932733" lon="8.3471483"><ele>170.0</ele><time>2026-04-12T10:18:49Z</time></trkpt><trkpt lat="44.893205" lon="8.3470483"><ele>170.8</ele><time>2026-04-12T10:18:49.998Z</time></trkpt><trkpt lat="44.89315" lon="8.34694"><ele>171.6</ele><time>2026-04-12T10:18:50.997Z</time></trkpt><trkpt lat="44.8931283" lon="8.346805"><ele>172.39999999999998</ele><time>2026-04-12T10:18:51.999Z</time></trkpt><trkpt lat="44.8931017" lon="8.3466583"><ele>173.2</ele><time>2026-04-12T10:18:52.991Z</time></trkpt><trkpt lat="44.8930833" lon="8.3465083"><ele>174.0</ele><time>2026-04-12T10:18:53.992Z</time></trkpt><trkpt lat="44.8930633" lon="8.3463633"><ele>174.2</ele><time>2026-04-12T10:18:54.995Z</time></trkpt><trkpt lat="44.8930367" lon="8.3462217"><ele>174.39999999999998</ele><time>2026-04-12T10:18:55.999Z</time></trkpt><trkpt lat="44.8930067" lon="8.3460733"><ele>174.6</ele><time>2026-04-12T10:18:56.995Z</time></trkpt><trkpt lat="44.8929733" lon="8.3459167"><ele>174.8</ele><time>2026-04-12T10:18:57.996Z</time></trkpt><trkpt lat="44.892935" lon="8.3457583"><ele>175.0</ele><time>2026-04-12T10:18:58.995Z</time></trkpt><trkpt lat="44.892895" lon="8.3455967"><ele>175.25</ele><time>2026-04-12T10:18:59.997Z</time></trkpt><trkpt lat="44.8928867" lon="8.3454133"><ele>175.5</ele><time>2026-04-12T10:19:01Z</time></trkpt><trkpt lat="44.892855" lon="8.3452517"><ele>175.75</ele><time>2026-04-12T10:19:01.995Z</time></trkpt><trkpt lat="44.8928317" lon="8.3450967"><ele>176.0</ele><time>2026-04-12T10:19:03Z</time></trkpt><trkpt lat="44.8928083" lon="8.3449567"><ele>176.0</ele><time>2026-04-12T10:19:04.001Z</time></trkpt><trkpt lat="44.8927983" lon="8.3448417"><ele>176.0</ele><time>2026-04-12T10:19:05.005Z</time></trkpt><trkpt lat="44.8927917" lon="8.3447517"><ele>176.0</ele><time>2026-04-12T10:19:05.997Z</time></trkpt><trkpt lat="44.8927767" lon="8.3446417"><ele>176.0</ele><time>2026-04-12T10:19:07.996Z</time></trkpt><trkpt lat="44.892725" lon="8.3445433"><ele>176.0</ele><time>2026-04-12T10:19:10.995Z</time></trkpt><trkpt lat="44.8926367" lon="8.3445583"><ele>176.0</ele><time>2026-04-12T10:19:12.995Z</time></trkpt><trkpt lat="44.8925733" lon="8.3445817"><ele>176.0</ele><time>2026-04-12T10:19:13.999Z</time></trkpt><trkpt lat="44.8924933" lon="8.3446067"><ele>176.0</ele><time>2026-04-12T10:19:14.995Z</time></trkpt><trkpt lat="44.8924083" lon="8.3446233"><ele>176.0</ele><time>2026-04-12T10:19:15.996Z</time></trkpt><trkpt lat="44.8923183" lon="8.3446383"><ele>176.0</ele><time>2026-04-12T10:19:17.001Z</time></trkpt><trkpt lat="44.892225" lon="8.3446517"><ele>176.0</ele><time>2026-04-12T10:19:17.994Z</time></trkpt><trkpt lat="44.8921283" lon="8.34467"><ele>176.0</ele><time>2026-04-12T10:19:19.002Z</time></trkpt><trkpt lat="44.89203" lon="8.3447033"><ele>176.0</ele><time>2026-04-12T10:19:19.995Z</time></trkpt><trkpt lat="44.8919333" lon="8.3447733"><ele>176.0</ele><time>2026-04-12T10:19:20.999Z</time></trkpt><trkpt lat="44.8918367" lon="8.3448667"><ele>176.0</ele><time>2026-04-12T10:19:21.995Z</time></trkpt><trkpt lat="44.8917333" lon="8.3449833"><ele>174.75</ele><time>2026-04-12T10:19:22.995Z</time></trkpt><trkpt lat="44.891635" lon="8.3451083"><ele>173.5</ele><time>2026-04-12T10:19:23.995Z</time></trkpt><trkpt lat="44.8915383" lon="8.3452367"><ele>172.25</ele><time>2026-04-12T10:19:25.004Z</time></trkpt><trkpt lat="44.8914383" lon="8.3453683"><ele>171.0</ele><time>2026-04-12T10:19:25.995Z</time></trkpt><trkpt lat="44.8913383" lon="8.3455083"><ele>168.33333333333334</ele><time>2026-04-12T10:19:26.994Z</time></trkpt><trkpt lat="44.8912467" lon="8.3456717"><ele>165.66666666666669</ele><time>2026-04-12T10:19:27.997Z</time></trkpt><trkpt lat="44.891165" lon="8.34586"><ele>163.0</ele><time>2026-04-12T10:19:28.997Z</time></trkpt><trkpt lat="44.89109" lon="8.346055"><ele>163.0</ele><time>2026-04-12T10:19:29.993Z</time></trkpt><trkpt lat="44.8910167" lon="8.3462567"><ele>163.0</ele><time>2026-04-12T10:19:30.998Z</time></trkpt><trkpt lat="44.8909417" lon="8.3464533"><ele>163.0</ele><time>2026-04-12T10:19:31.996Z</time></trkpt><trkpt lat="44.8908567" lon="8.34667"><ele>160.66666666666669</ele><time>2026-04-12T10:19:32.997Z</time></trkpt><trkpt lat="44.890775" lon="8.346885"><ele>158.33333333333334</ele><time>2026-04-12T10:19:33.992Z</time></trkpt><trkpt lat="44.8906917" lon="8.3471067"><ele>156.0</ele><time>2026-04-12T10:19:34.996Z</time></trkpt><trkpt lat="44.8906083" lon="8.3473133"><ele>153.0</ele><time>2026-04-12T10:19:35.996Z</time></trkpt><trkpt lat="44.8905233" lon="8.34753"><ele>150.0</ele><time>2026-04-12T10:19:36.998Z</time></trkpt><trkpt lat="44.8904333" lon="8.3477467"><ele>147.0</ele><time>2026-04-12T10:19:37.999Z</time></trkpt><trkpt lat="44.89034" lon="8.3479683"><ele>146.33333333333334</ele><time>2026-04-12T10:19:38.997Z</time></trkpt><trkpt lat="44.8902417" lon="8.348195"><ele>145.66666666666669</ele><time>2026-04-12T10:19:39.998Z</time></trkpt><trkpt lat="44.89015" lon="8.3484217"><ele>145.0</ele><time>2026-04-12T10:19:40.994Z</time></trkpt><trkpt lat="44.890055" lon="8.3486517"><ele>143.33333333333334</ele><time>2026-04-12T10:19:41.999Z</time></trkpt><trkpt lat="44.8899583" lon="8.3488817"><ele>141.66666666666666</ele><time>2026-04-12T10:19:42.997Z</time></trkpt><trkpt lat="44.8898583" lon="8.3491083"><ele>140.0</ele><time>2026-04-12T10:19:43.997Z</time></trkpt><trkpt lat="44.8897633" lon="8.34933"><ele>140.0</ele><time>2026-04-12T10:19:45.002Z</time></trkpt><trkpt lat="44.8896667" lon="8.349555"><ele>140.0</ele><time>2026-04-12T10:19:45.998Z</time></trkpt><trkpt lat="44.8895667" lon="8.3497817"><ele>140.0</ele><time>2026-04-12T10:19:46.996Z</time></trkpt><trkpt lat="44.8894667" lon="8.35"><ele>139.66666666666666</ele><time>2026-04-12T10:19:47.994Z</time></trkpt><trkpt lat="44.8893667" lon="8.3502133"><ele>139.33333333333334</ele><time>2026-04-12T10:19:48.998Z</time></trkpt><trkpt lat="44.8892617" lon="8.3504233"><ele>139.0</ele><time>2026-04-12T10:19:49.993Z</time></trkpt><trkpt lat="44.889155" lon="8.3506333"><ele>139.66666666666669</ele><time>2026-04-12T10:19:50.996Z</time></trkpt><trkpt lat="44.8890533" lon="8.3508383"><ele>140.33333333333334</ele><time>2026-04-12T10:19:51.993Z</time></trkpt><trkpt lat="44.8889567" lon="8.35104"><ele>141.0</ele><time>2026-04-12T10:19:52.997Z</time></trkpt><trkpt lat="44.888865" lon="8.3512317"><ele>140.8</ele><time>2026-04-12T10:19:53.995Z</time></trkpt><trkpt lat="44.8887867" lon="8.3514"><ele>140.6</ele><time>2026-04-12T10:19:54.996Z</time></trkpt><trkpt lat="44.8887167" lon="8.3515317"><ele>140.4</ele><time>2026-04-12T10:19:55.996Z</time></trkpt><trkpt lat="44.8886467" lon="8.3516217"><ele>140.2</ele><time>2026-04-12T10:19:56.994Z</time></trkpt><trkpt lat="44.8885717" lon="8.35168"><ele>140.0</ele><time>2026-04-12T10:19:57.994Z</time></trkpt><trkpt lat="44.8884967" lon="8.3517133"><ele>139.75</ele><time>2026-04-12T10:19:58.994Z</time></trkpt><trkpt lat="44.888385" lon="8.3516267"><ele>139.5</ele><time>2026-04-12T10:19:59.993Z</time></trkpt><trkpt lat="44.8882683" lon="8.3515383"><ele>139.25</ele><time>2026-04-12T10:20:00.993Z</time></trkpt><trkpt lat="44.888145" lon="8.35141"><ele>139.0</ele><time>2026-04-12T10:20:02Z</time></trkpt><trkpt lat="44.8880083" lon="8.3512633"><ele>139.0</ele><time>2026-04-12T10:20:03Z</time></trkpt><trkpt lat="44.8878717" lon="8.35112"><ele>139.0</ele><time>2026-04-12T10:20:03.995Z</time></trkpt><trkpt lat="44.8877267" lon="8.3509733"><ele>139.0</ele><time>2026-04-12T10:20:04.997Z</time></trkpt><trkpt lat="44.887585" lon="8.3508333"><ele>139.0</ele><time>2026-04-12T10:20:05.998Z</time></trkpt><trkpt lat="44.88745" lon="8.3507"><ele>139.0</ele><time>2026-04-12T10:20:06.999Z</time></trkpt><trkpt lat="44.8873167" lon="8.3505933"><ele>139.0</ele><time>2026-04-12T10:20:07.992Z</time></trkpt><trkpt lat="44.8871783" lon="8.3505267"><ele>139.0</ele><time>2026-04-12T10:20:08.997Z</time></trkpt><trkpt lat="44.88703" lon="8.3505067"><ele>139.0</ele><time>2026-04-12T10:20:09.999Z</time></trkpt><trkpt lat="44.886875" lon="8.3505367"><ele>139.0</ele><time>2026-04-12T10:20:10.996Z</time></trkpt><trkpt lat="44.8867183" lon="8.3506017"><ele>140.0</ele><time>2026-04-12T10:20:12Z</time></trkpt><trkpt lat="44.8865583" lon="8.3506783"><ele>141.0</ele><time>2026-04-12T10:20:12.996Z</time></trkpt><trkpt lat="44.8863967" lon="8.3507583"><ele>142.0</ele><time>2026-04-12T10:20:13.995Z</time></trkpt><trkpt lat="44.8862383" lon="8.350825"><ele>142.0</ele><time>2026-04-12T10:20:14.995Z</time></trkpt><trkpt lat="44.8860767" lon="8.3508833"><ele>142.0</ele><time>2026-04-12T10:20:15.992Z</time></trkpt><trkpt lat="44.8859117" lon="8.3509317"><ele>142.0</ele><time>2026-04-12T10:20:16.996Z</time></trkpt><trkpt lat="44.885745" lon="8.3509617"><ele>142.0</ele><time>2026-04-12T10:20:17.997Z</time></trkpt><trkpt lat="44.8855767" lon="8.3509767"><ele>142.0</ele><time>2026-04-12T10:20:18.993Z</time></trkpt><trkpt lat="44.885405" lon="8.3509833"><ele>142.0</ele><time>2026-04-12T10:20:19.993Z</time></trkpt><trkpt lat="44.88523" lon="8.3509883"><ele>142.0</ele><time>2026-04-12T10:20:20.997Z</time></trkpt><trkpt lat="44.8850617" lon="8.3509983"><ele>142.0</ele><time>2026-04-12T10:20:21.994Z</time></trkpt><trkpt lat="44.8849" lon="8.351015"><ele>142.0</ele><time>2026-04-12T10:20:22.998Z</time></trkpt><trkpt lat="44.8847483" lon="8.35104"><ele>142.0</ele><time>2026-04-12T10:20:23.998Z</time></trkpt><trkpt lat="44.8846017" lon="8.3510783"><ele>142.0</ele><time>2026-04-12T10:20:24.995Z</time></trkpt><trkpt lat="44.88446" lon="8.3511267"><ele>142.0</ele><time>2026-04-12T10:20:26Z</time></trkpt><trkpt lat="44.8843267" lon="8.3511817"><ele>142.0</ele><time>2026-04-12T10:20:26.998Z</time></trkpt><trkpt lat="44.8841983" lon="8.3512367"><ele>141.79999999999998</ele><time>2026-04-12T10:20:27.997Z</time></trkpt><trkpt lat="44.8840767" lon="8.3512883"><ele>141.6</ele><time>2026-04-12T10:20:28.998Z</time></trkpt><trkpt lat="44.883965" lon="8.3513333"><ele>141.39999999999998</ele><time>2026-04-12T10:20:29.999Z</time></trkpt><trkpt lat="44.8838717" lon="8.3513667"><ele>141.2</ele><time>2026-04-12T10:20:31Z</time></trkpt><trkpt lat="44.883795" lon="8.3513933"><ele>141.0</ele><time>2026-04-12T10:20:31.998Z</time></trkpt><trkpt lat="44.8836867" lon="8.351415"><ele>141.0</ele><time>2026-04-12T10:20:33.999Z</time></trkpt><trkpt lat="44.8836017" lon="8.3513333"><ele>141.0</ele><time>2026-04-12T10:20:36.995Z</time></trkpt><trkpt lat="44.883565" lon="8.3512567"><ele>141.0</ele><time>2026-04-12T10:20:38.001Z</time></trkpt><trkpt lat="44.8835367" lon="8.35112"><ele>141.0</ele><time>2026-04-12T10:20:38.998Z</time></trkpt><trkpt lat="44.883475" lon="8.3508667"><ele>140.66666666666666</ele><time>2026-04-12T10:20:39.999Z</time></trkpt><trkpt lat="44.88341" lon="8.35064"><ele>140.33333333333331</ele><time>2026-04-12T10:20:40.995Z</time></trkpt><trkpt lat="44.8833433" lon="8.3504"><ele>140.0</ele><time>2026-04-12T10:20:41.997Z</time></trkpt><trkpt lat="44.8832717" lon="8.35013"><ele>140.0</ele><time>2026-04-12T10:20:42.994Z</time></trkpt><trkpt lat="44.8831883" lon="8.34983"><ele>140.0</ele><time>2026-04-12T10:20:43.999Z</time></trkpt><trkpt lat="44.8830883" lon="8.3495017"><ele>139.5</ele><time>2026-04-12T10:20:44.998Z</time></trkpt><trkpt lat="44.88298" lon="8.3491583"><ele>139.0</ele><time>2026-04-12T10:20:45.999Z</time></trkpt><trkpt lat="44.8828667" lon="8.348805"><ele>137.5</ele><time>2026-04-12T10:20:46.999Z</time></trkpt><trkpt lat="44.8827583" lon="8.3484517"><ele>136.0</ele><time>2026-04-12T10:20:47.99Z</time></trkpt><trkpt lat="44.8826917" lon="8.3480783"><ele>133.0</ele><time>2026-04-12T10:20:48.999Z</time></trkpt><trkpt lat="44.8826" lon="8.347745"><ele>130.0</ele><time>2026-04-12T10:20:49.996Z</time></trkpt><trkpt lat="44.8825117" lon="8.3474283"><ele>127.5</ele><time>2026-04-12T10:20:50.997Z</time></trkpt><trkpt lat="44.88242" lon="8.3471283"><ele>125.0</ele><time>2026-04-12T10:20:51.996Z</time></trkpt><trkpt lat="44.8823283" lon="8.3468333"><ele>125.0</ele><time>2026-04-12T10:20:52.992Z</time></trkpt><trkpt lat="44.8822467" lon="8.34656"><ele>125.0</ele><time>2026-04-12T10:20:53.992Z</time></trkpt><trkpt lat="44.88217" lon="8.3462917"><ele>125.0</ele><time>2026-04-12T10:20:54.999Z</time></trkpt><trkpt lat="44.8821083" lon="8.3460233"><ele>124.66666666666666</ele><time>2026-04-12T10:20:55.993Z</time></trkpt><trkpt lat="44.8820417" lon="8.345775"><ele>124.33333333333334</ele><time>2026-04-12T10:20:56.998Z</time></trkpt><trkpt lat="44.8819783" lon="8.3455383"><ele>124.0</ele><time>2026-04-12T10:20:57.995Z</time></trkpt><trkpt lat="44.8819167" lon="8.3453033"><ele>124.0</ele><time>2026-04-12T10:20:58.996Z</time></trkpt><trkpt lat="44.8818517" lon="8.3450667"><ele>124.0</ele><time>2026-04-12T10:20:59.995Z</time></trkpt><trkpt lat="44.8817883" lon="8.3448267"><ele>124.0</ele><time>2026-04-12T10:21:00.997Z</time></trkpt><trkpt lat="44.8817217" lon="8.3445817"><ele>123.66666666666667</ele><time>2026-04-12T10:21:01.998Z</time></trkpt><trkpt lat="44.8816583" lon="8.3443333"><ele>123.33333333333334</ele><time>2026-04-12T10:21:02.994Z</time></trkpt><trkpt lat="44.8815933" lon="8.344085"><ele>123.0</ele><time>2026-04-12T10:21:03.996Z</time></trkpt><trkpt lat="44.881525" lon="8.3438383"><ele>121.0</ele><time>2026-04-12T10:21:04.994Z</time></trkpt><trkpt lat="44.881455" lon="8.3435917"><ele>119.0</ele><time>2026-04-12T10:21:06.011Z</time></trkpt><trkpt lat="44.8813783" lon="8.3433483"><ele>117.0</ele><time>2026-04-12T10:21:06.999Z</time></trkpt><trkpt lat="44.8813083" lon="8.3431033"><ele>116.66666666666666</ele><time>2026-04-12T10:21:07.995Z</time></trkpt><trkpt lat="44.8812333" lon="8.3428633"><ele>116.33333333333333</ele><time>2026-04-12T10:21:08.995Z</time></trkpt><trkpt lat="44.8811617" lon="8.3426217"><ele>116.0</ele><time>2026-04-12T10:21:09.995Z</time></trkpt><trkpt lat="44.88109" lon="8.3423817"><ele>117.0</ele><time>2026-04-12T10:21:10.995Z</time></trkpt><trkpt lat="44.8810267" lon="8.342135"><ele>118.0</ele><time>2026-04-12T10:21:11.995Z</time></trkpt><trkpt lat="44.8809617" lon="8.3418967"><ele>119.0</ele><time>2026-04-12T10:21:12.994Z</time></trkpt><trkpt lat="44.8809" lon="8.3416683"><ele>119.33333333333333</ele><time>2026-04-12T10:21:13.998Z</time></trkpt><trkpt lat="44.88084" lon="8.34145"><ele>119.66666666666666</ele><time>2026-04-12T10:21:14.996Z</time></trkpt><trkpt lat="44.88079" lon="8.341245"><ele>120.0</ele><time>2026-04-12T10:21:16Z</time></trkpt><trkpt lat="44.8807333" lon="8.3410567"><ele>119.5</ele><time>2026-04-12T10:21:16.999Z</time></trkpt><trkpt lat="44.8806767" lon="8.340875"><ele>119.0</ele><time>2026-04-12T10:21:17.994Z</time></trkpt><trkpt lat="44.8806267" lon="8.34071"><ele>118.5</ele><time>2026-04-12T10:21:18.996Z</time></trkpt><trkpt lat="44.8805867" lon="8.34057"><ele>118.0</ele><time>2026-04-12T10:21:19.998Z</time></trkpt><trkpt lat="44.880555" lon="8.3404517"><ele>118.00000000000001</ele><time>2026-04-12T10:21:20.997Z</time></trkpt><trkpt lat="44.8805267" lon="8.3403467"><ele>118.0</ele><time>2026-04-12T10:21:21.998Z</time></trkpt><trkpt lat="44.8804983" lon="8.34025"><ele>118.0</ele><time>2026-04-12T10:21:22.994Z</time></trkpt><trkpt lat="44.880465" lon="8.3401683"><ele>118.0</ele><time>2026-04-12T10:21:23.998Z</time></trkpt><trkpt lat="44.880375" lon="8.3400533"><ele>118.00000000000001</ele><time>2026-04-12T10:21:25.998Z</time></trkpt><trkpt lat="44.8802917" lon="8.3400783"><ele>118.0</ele><time>2026-04-12T10:21:26.994Z</time></trkpt><trkpt lat="44.8801917" lon="8.3401517"><ele>118.66666666666667</ele><time>2026-04-12T10:21:27.996Z</time></trkpt><trkpt lat="44.88006" lon="8.3402417"><ele>119.33333333333334</ele><time>2026-04-12T10:21:28.994Z</time></trkpt><trkpt lat="44.8799117" lon="8.340345"><ele>120.0</ele><time>2026-04-12T10:21:29.997Z</time></trkpt><trkpt lat="44.87975" lon="8.3404517"><ele>120.0</ele><time>2026-04-12T10:21:30.998Z</time></trkpt><trkpt lat="44.8795583" lon="8.34057"><ele>120.0</ele><time>2026-04-12T10:21:31.998Z</time></trkpt><trkpt lat="44.8793567" lon="8.3406983"><ele>120.0</ele><time>2026-04-12T10:21:32.995Z</time></trkpt><trkpt lat="44.8791517" lon="8.3408283"><ele>120.5</ele><time>2026-04-12T10:21:33.993Z</time></trkpt><trkpt lat="44.878945" lon="8.3409633"><ele>121.0</ele><time>2026-04-12T10:21:34.995Z</time></trkpt><trkpt lat="44.8787383" lon="8.341105"><ele>121.0</ele><time>2026-04-12T10:21:35.996Z</time></trkpt><trkpt lat="44.87853" lon="8.3412433"><ele>121.0</ele><time>2026-04-12T10:21:36.993Z</time></trkpt><trkpt lat="44.87832" lon="8.3413817"><ele>120.0</ele><time>2026-04-12T10:21:37.991Z</time></trkpt><trkpt lat="44.8781067" lon="8.3415183"><ele>119.0</ele><time>2026-04-12T10:21:38.999Z</time></trkpt><trkpt lat="44.8778983" lon="8.3416533"><ele>119.0</ele><time>2026-04-12T10:21:39.996Z</time></trkpt><trkpt lat="44.8776917" lon="8.3417767"><ele>119.0</ele><time>2026-04-12T10:21:40.998Z</time></trkpt><trkpt lat="44.8774883" lon="8.3418933"><ele>119.0</ele><time>2026-04-12T10:21:41.995Z</time></trkpt><trkpt lat="44.877285" lon="8.3420117"><ele>117.66666666666666</ele><time>2026-04-12T10:21:42.997Z</time></trkpt><trkpt lat="44.877085" lon="8.3421283"><ele>116.33333333333334</ele><time>2026-04-12T10:21:43.998Z</time></trkpt><trkpt lat="44.87688" lon="8.342245"><ele>115.0</ele><time>2026-04-12T10:21:44.996Z</time></trkpt><trkpt lat="44.8766767" lon="8.3423567"><ele>115.0</ele><time>2026-04-12T10:21:45.994Z</time></trkpt><trkpt lat="44.8764733" lon="8.3424717"><ele>115.0</ele><time>2026-04-12T10:21:46.995Z</time></trkpt><trkpt lat="44.8762683" lon="8.34259"><ele>115.0</ele><time>2026-04-12T10:21:47.994Z</time></trkpt><trkpt lat="44.876065" lon="8.342705"><ele>115.33333333333334</ele><time>2026-04-12T10:21:48.994Z</time></trkpt><trkpt lat="44.8758567" lon="8.3428233"><ele>115.66666666666666</ele><time>2026-04-12T10:21:49.996Z</time></trkpt><trkpt lat="44.8756483" lon="8.34294"><ele>116.0</ele><time>2026-04-12T10:21:50.997Z</time></trkpt><trkpt lat="44.8754417" lon="8.3430533"><ele>116.33333333333333</ele><time>2026-04-12T10:21:51.995Z</time></trkpt><trkpt lat="44.8752383" lon="8.343165"><ele>116.66666666666666</ele><time>2026-04-12T10:21:52.994Z</time></trkpt><trkpt lat="44.8750367" lon="8.34327"><ele>117.0</ele><time>2026-04-12T10:21:53.997Z</time></trkpt><trkpt lat="44.8748317" lon="8.3433667"><ele>117.0</ele><time>2026-04-12T10:21:54.996Z</time></trkpt><trkpt lat="44.8746233" lon="8.3434483"><ele>117.0</ele><time>2026-04-12T10:21:55.996Z</time></trkpt><trkpt lat="44.8744133" lon="8.343525"><ele>117.0</ele><time>2026-04-12T10:21:56.994Z</time></trkpt><trkpt lat="44.8742" lon="8.3435983"><ele>117.33333333333334</ele><time>2026-04-12T10:21:58Z</time></trkpt><trkpt lat="44.8739883" lon="8.34367"><ele>117.66666666666667</ele><time>2026-04-12T10:21:58.997Z</time></trkpt><trkpt lat="44.873775" lon="8.3437383"><ele>118.0</ele><time>2026-04-12T10:22:00.002Z</time></trkpt><trkpt lat="44.8735633" lon="8.34381"><ele>117.66666666666667</ele><time>2026-04-12T10:22:00.996Z</time></trkpt><trkpt lat="44.87335" lon="8.34388"><ele>117.33333333333334</ele><time>2026-04-12T10:22:01.998Z</time></trkpt><trkpt lat="44.8731367" lon="8.3439433"><ele>117.0</ele><time>2026-04-12T10:22:02.997Z</time></trkpt><trkpt lat="44.8729217" lon="8.344005"><ele>117.0</ele><time>2026-04-12T10:22:03.993Z</time></trkpt><trkpt lat="44.872705" lon="8.344065"><ele>117.0</ele><time>2026-04-12T10:22:04.994Z</time></trkpt><trkpt lat="44.8724883" lon="8.3441217"><ele>117.0</ele><time>2026-04-12T10:22:05.996Z</time></trkpt><trkpt lat="44.8722733" lon="8.3441683"><ele>116.33333333333334</ele><time>2026-04-12T10:22:06.995Z</time></trkpt><trkpt lat="44.8720583" lon="8.3442117"><ele>115.66666666666667</ele><time>2026-04-12T10:22:07.993Z</time></trkpt><trkpt lat="44.87184" lon="8.3442567"><ele>115.0</ele><time>2026-04-12T10:22:08.995Z</time></trkpt><trkpt lat="44.87162" lon="8.3443"><ele>112.0</ele><time>2026-04-12T10:22:09.993Z</time></trkpt><trkpt lat="44.8713983" lon="8.3443433"><ele>109.0</ele><time>2026-04-12T10:22:10.998Z</time></trkpt><trkpt lat="44.8711733" lon="8.344385"><ele>109.0</ele><time>2026-04-12T10:22:11.996Z</time></trkpt><trkpt lat="44.8709483" lon="8.3444283"><ele>109.0</ele><time>2026-04-12T10:22:12.995Z</time></trkpt><trkpt lat="44.8707267" lon="8.3444717"><ele>107.66666666666667</ele><time>2026-04-12T10:22:13.994Z</time></trkpt><trkpt lat="44.87051" lon="8.344515"><ele>106.33333333333334</ele><time>2026-04-12T10:22:14.996Z</time></trkpt><trkpt lat="44.8702967" lon="8.344555"><ele>105.0</ele><time>2026-04-12T10:22:15.993Z</time></trkpt><trkpt lat="44.8700883" lon="8.3445967"><ele>104.33333333333334</ele><time>2026-04-12T10:22:16.998Z</time></trkpt><trkpt lat="44.8698883" lon="8.34464"><ele>103.66666666666667</ele><time>2026-04-12T10:22:17.994Z</time></trkpt><trkpt lat="44.8696983" lon="8.3446783"><ele>103.0</ele><time>2026-04-12T10:22:18.998Z</time></trkpt><trkpt lat="44.86951" lon="8.34472"><ele>104.0</ele><time>2026-04-12T10:22:20.002Z</time></trkpt><trkpt lat="44.869335" lon="8.3447617"><ele>105.0</ele><time>2026-04-12T10:22:20.997Z</time></trkpt><trkpt lat="44.86917" lon="8.344805"><ele>106.0</ele><time>2026-04-12T10:22:21.998Z</time></trkpt><trkpt lat="44.8690083" lon="8.3448683"><ele>106.0</ele><time>2026-04-12T10:22:22.994Z</time></trkpt><trkpt lat="44.8688583" lon="8.34495"><ele>106.0</ele><time>2026-04-12T10:22:23.999Z</time></trkpt><trkpt lat="44.8687117" lon="8.3450533"><ele>106.0</ele><time>2026-04-12T10:22:24.999Z</time></trkpt><trkpt lat="44.8685717" lon="8.3451667"><ele>105.0</ele><time>2026-04-12T10:22:25.995Z</time></trkpt><trkpt lat="44.8684383" lon="8.3452833"><ele>104.0</ele><time>2026-04-12T10:22:26.995Z</time></trkpt><trkpt lat="44.8683117" lon="8.3454"><ele>103.0</ele><time>2026-04-12T10:22:27.993Z</time></trkpt><trkpt lat="44.8681917" lon="8.3455133"><ele>103.2</ele><time>2026-04-12T10:22:28.997Z</time></trkpt><trkpt lat="44.86809" lon="8.3456183"><ele>103.4</ele><time>2026-04-12T10:22:29.998Z</time></trkpt><trkpt lat="44.8680117" lon="8.34571"><ele>103.60000000000001</ele><time>2026-04-12T10:22:30.994Z</time></trkpt><trkpt lat="44.8679433" lon="8.3457817"><ele>103.80000000000001</ele><time>2026-04-12T10:22:32.001Z</time></trkpt><trkpt lat="44.86788" lon="8.345845"><ele>104.0</ele><time>2026-04-12T10:22:33.001Z</time></trkpt><trkpt lat="44.867815" lon="8.3458683"><ele>103.99999999999999</ele><time>2026-04-12T10:22:33.997Z</time></trkpt><trkpt lat="44.867745" lon="8.345885"><ele>104.0</ele><time>2026-04-12T10:22:34.994Z</time></trkpt><trkpt lat="44.8676683" lon="8.3458667"><ele>104.0</ele><time>2026-04-12T10:22:35.995Z</time></trkpt><trkpt lat="44.867585" lon="8.3458033"><ele>104.0</ele><time>2026-04-12T10:22:36.995Z</time></trkpt><trkpt lat="44.8675117" lon="8.3457467"><ele>103.99999999999999</ele><time>2026-04-12T10:22:37.995Z</time></trkpt><trkpt lat="44.8674517" lon="8.34567"><ele>104.0</ele><time>2026-04-12T10:22:39Z</time></trkpt><trkpt lat="44.8674" lon="8.3455717"><ele>103.83333333333333</ele><time>2026-04-12T10:22:39.998Z</time></trkpt><trkpt lat="44.8673567" lon="8.3454617"><ele>103.66666666666666</ele><time>2026-04-12T10:22:40.997Z</time></trkpt><trkpt lat="44.8673267" lon="8.3453633"><ele>103.5</ele><time>2026-04-12T10:22:41.997Z</time></trkpt><trkpt lat="44.8673033" lon="8.3452783"><ele>103.33333333333334</ele><time>2026-04-12T10:22:43.001Z</time></trkpt><trkpt lat="44.8672783" lon="8.3451667"><ele>103.16666666666667</ele><time>2026-04-12T10:22:45.006Z</time></trkpt><trkpt lat="44.8672633" lon="8.3450417"><ele>103.0</ele><time>2026-04-12T10:23:20.997Z</time></trkpt><trkpt lat="44.8671817" lon="8.3449567"><ele>103.0</ele><time>2026-04-12T10:23:22.995Z</time></trkpt><trkpt lat="44.86708" lon="8.3448617"><ele>103.0</ele><time>2026-04-12T10:23:24.997Z</time></trkpt><trkpt lat="44.8669917" lon="8.344745"><ele>103.0</ele><time>2026-04-12T10:23:26.996Z</time></trkpt><trkpt lat="44.8669217" lon="8.3445967"><ele>103.0</ele><time>2026-04-12T10:23:28.996Z</time></trkpt><trkpt lat="44.8668983" lon="8.3445067"><ele>103.0</ele><time>2026-04-12T10:23:29.994Z</time></trkpt><trkpt lat="44.8668833" lon="8.3444117"><ele>102.50000000000001</ele><time>2026-04-12T10:23:30.996Z</time></trkpt><trkpt lat="44.8668767" lon="8.34432"><ele>102.0</ele><time>2026-04-12T10:23:31.998Z</time></trkpt><trkpt lat="44.8668717" lon="8.344225"><ele>101.5</ele><time>2026-04-12T10:23:32.995Z</time></trkpt><trkpt lat="44.8668733" lon="8.3441283"><ele>101.0</ele><time>2026-04-12T10:23:33.996Z</time></trkpt><trkpt lat="44.866875" lon="8.34397"><ele>100.50000000000001</ele><time>2026-04-12T10:23:35.995Z</time></trkpt><trkpt lat="44.8668733" lon="8.3438083"><ele>100.0</ele><time>2026-04-12T10:23:37.997Z</time></trkpt><trkpt lat="44.866875" lon="8.3436367"><ele>100.0</ele><time>2026-04-12T10:23:39.994Z</time></trkpt><trkpt lat="44.8668767" lon="8.343465"><ele>100.0</ele><time>2026-04-12T10:23:41.997Z</time></trkpt><trkpt lat="44.8668733" lon="8.3432933"><ele>100.0</ele><time>2026-04-12T10:23:43.992Z</time></trkpt><trkpt lat="44.8668717" lon="8.3431917"><ele>100.0</ele><time>2026-04-12T10:23:44.996Z</time></trkpt><trkpt lat="44.8668733" lon="8.3430733"><ele>100.0</ele><time>2026-04-12T10:23:45.997Z</time></trkpt><trkpt lat="44.866875" lon="8.3429383"><ele>100.8</ele><time>2026-04-12T10:23:46.998Z</time></trkpt><trkpt lat="44.8668717" lon="8.3428"><ele>101.6</ele><time>2026-04-12T10:23:47.996Z</time></trkpt><trkpt lat="44.8668633" lon="8.3426583"><ele>102.4</ele><time>2026-04-12T10:23:48.994Z</time></trkpt><trkpt lat="44.866855" lon="8.3425117"><ele>103.2</ele><time>2026-04-12T10:23:50Z</time></trkpt><trkpt lat="44.866845" lon="8.3423567"><ele>104.0</ele><time>2026-04-12T10:23:50.997Z</time></trkpt><trkpt lat="44.866825" lon="8.3422067"><ele>104.0</ele><time>2026-04-12T10:23:51.996Z</time></trkpt><trkpt lat="44.8668033" lon="8.3420667"><ele>104.0</ele><time>2026-04-12T10:23:52.999Z</time></trkpt><trkpt lat="44.8667783" lon="8.341935"><ele>104.0</ele><time>2026-04-12T10:23:53.996Z</time></trkpt><trkpt lat="44.86676" lon="8.341805"><ele>104.0</ele><time>2026-04-12T10:23:54.994Z</time></trkpt><trkpt lat="44.86674" lon="8.3416817"><ele>104.0</ele><time>2026-04-12T10:23:55.996Z</time></trkpt><trkpt lat="44.8667183" lon="8.3415683"><ele>103.80000000000001</ele><time>2026-04-12T10:23:57Z</time></trkpt><trkpt lat="44.8666867" lon="8.341455"><ele>103.60000000000001</ele><time>2026-04-12T10:23:57.993Z</time></trkpt><trkpt lat="44.86664" lon="8.3413433"><ele>103.4</ele><time>2026-04-12T10:23:58.994Z</time></trkpt><trkpt lat="44.8665667" lon="8.3412483"><ele>103.2</ele><time>2026-04-12T10:24:00.001Z</time></trkpt><trkpt lat="44.8664717" lon="8.34117"><ele>103.0</ele><time>2026-04-12T10:24:00.994Z</time></trkpt><trkpt lat="44.8663683" lon="8.3411033"><ele>103.25</ele><time>2026-04-12T10:24:01.997Z</time></trkpt><trkpt lat="44.8662583" lon="8.3410483"><ele>103.5</ele><time>2026-04-12T10:24:02.999Z</time></trkpt><trkpt lat="44.8661417" lon="8.3410117"><ele>103.75</ele><time>2026-04-12T10:24:03.993Z</time></trkpt><trkpt lat="44.8660167" lon="8.3409917"><ele>104.0</ele><time>2026-04-12T10:24:04.999Z</time></trkpt><trkpt lat="44.8658867" lon="8.3409883"><ele>104.0</ele><time>2026-04-12T10:24:05.997Z</time></trkpt><trkpt lat="44.8657567" lon="8.341005"><ele>104.0</ele><time>2026-04-12T10:24:06.994Z</time></trkpt><trkpt lat="44.865625" lon="8.3410417"><ele>104.0</ele><time>2026-04-12T10:24:07.999Z</time></trkpt><trkpt lat="44.8654933" lon="8.341095"><ele>104.0</ele><time>2026-04-12T10:24:09Z</time></trkpt><trkpt lat="44.8653617" lon="8.341165"><ele>104.0</ele><time>2026-04-12T10:24:09.995Z</time></trkpt><trkpt lat="44.8652267" lon="8.3412483"><ele>104.0</ele><time>2026-04-12T10:24:10.998Z</time></trkpt><trkpt lat="44.8650917" lon="8.3413317"><ele>104.0</ele><time>2026-04-12T10:24:12Z</time></trkpt><trkpt lat="44.8649583" lon="8.34141"><ele>104.0</ele><time>2026-04-12T10:24:12.997Z</time></trkpt><trkpt lat="44.86483" lon="8.34149"><ele>104.0</ele><time>2026-04-12T10:24:13.996Z</time></trkpt><trkpt lat="44.8647083" lon="8.3415683"><ele>104.0</ele><time>2026-04-12T10:24:14.997Z</time></trkpt><trkpt lat="44.86459" lon="8.3416383"><ele>104.0</ele><time>2026-04-12T10:24:16.001Z</time></trkpt><trkpt lat="44.8644817" lon="8.3417033"><ele>104.0</ele><time>2026-04-12T10:24:16.997Z</time></trkpt><trkpt lat="44.864375" lon="8.3417617"><ele>104.33333333333333</ele><time>2026-04-12T10:24:17.995Z</time></trkpt><trkpt lat="44.8642717" lon="8.3418233"><ele>104.66666666666666</ele><time>2026-04-12T10:24:19Z</time></trkpt><trkpt lat="44.8641783" lon="8.341875"><ele>105.0</ele><time>2026-04-12T10:24:19.992Z</time></trkpt><trkpt lat="44.8640983" lon="8.3419167"><ele>105.33333333333334</ele><time>2026-04-12T10:24:20.998Z</time></trkpt><trkpt lat="44.8640267" lon="8.3419517"><ele>105.66666666666667</ele><time>2026-04-12T10:24:21.996Z</time></trkpt><trkpt lat="44.8639617" lon="8.3419667"><ele>106.0</ele><time>2026-04-12T10:24:22.995Z</time></trkpt><trkpt lat="44.86389" lon="8.341985"><ele>106.00000000000001</ele><time>2026-04-12T10:24:23.996Z</time></trkpt><trkpt lat="44.8638183" lon="8.34201"><ele>106.0</ele><time>2026-04-12T10:24:24.996Z</time></trkpt><trkpt lat="44.8637433" lon="8.3420667"><ele>106.0</ele><time>2026-04-12T10:24:25.998Z</time></trkpt><trkpt lat="44.8636683" lon="8.3421283"><ele>106.0</ele><time>2026-04-12T10:24:26.996Z</time></trkpt><trkpt lat="44.8635867" lon="8.3421867"><ele>106.00000000000001</ele><time>2026-04-12T10:24:28.005Z</time></trkpt><trkpt lat="44.8634967" lon="8.3422417"><ele>106.0</ele><time>2026-04-12T10:24:28.995Z</time></trkpt><trkpt lat="44.8634067" lon="8.342295"><ele>105.83333333333334</ele><time>2026-04-12T10:24:30Z</time></trkpt><trkpt lat="44.8633167" lon="8.3423467"><ele>105.66666666666667</ele><time>2026-04-12T10:24:30.997Z</time></trkpt><trkpt lat="44.863235" lon="8.3423917"><ele>105.5</ele><time>2026-04-12T10:24:31.998Z</time></trkpt><trkpt lat="44.86316" lon="8.3424317"><ele>105.33333333333334</ele><time>2026-04-12T10:24:32.994Z</time></trkpt><trkpt lat="44.86309" lon="8.3424683"><ele>105.16666666666667</ele><time>2026-04-12T10:24:33.998Z</time></trkpt><trkpt lat="44.8630217" lon="8.342505"><ele>105.0</ele><time>2026-04-12T10:24:34.993Z</time></trkpt><trkpt lat="44.8629583" lon="8.3425383"><ele>105.0</ele><time>2026-04-12T10:24:35.995Z</time></trkpt><trkpt lat="44.8628933" lon="8.342575"><ele>105.0</ele><time>2026-04-12T10:24:36.998Z</time></trkpt><trkpt lat="44.8628217" lon="8.342615"><ele>105.0</ele><time>2026-04-12T10:24:37.997Z</time></trkpt><trkpt lat="44.8627383" lon="8.34266"><ele>105.0</ele><time>2026-04-12T10:24:38.998Z</time></trkpt><trkpt lat="44.8626483" lon="8.34271"><ele>105.0</ele><time>2026-04-12T10:24:39.996Z</time></trkpt><trkpt lat="44.862555" lon="8.3427617"><ele>105.0</ele><time>2026-04-12T10:24:40.996Z</time></trkpt><trkpt lat="44.86246" lon="8.3428167"><ele>105.2</ele><time>2026-04-12T10:24:41.994Z</time></trkpt><trkpt lat="44.86237" lon="8.3428667"><ele>105.4</ele><time>2026-04-12T10:24:42.997Z</time></trkpt><trkpt lat="44.86229" lon="8.3429117"><ele>105.6</ele><time>2026-04-12T10:24:43.995Z</time></trkpt><trkpt lat="44.8622067" lon="8.3429567"><ele>105.8</ele><time>2026-04-12T10:24:44.994Z</time></trkpt><trkpt lat="44.8621183" lon="8.3430017"><ele>106.0</ele><time>2026-04-12T10:24:45.995Z</time></trkpt><trkpt lat="44.8620283" lon="8.343045"><ele>106.19999999999999</ele><time>2026-04-12T10:24:46.995Z</time></trkpt><trkpt lat="44.8619333" lon="8.343095"><ele>106.39999999999999</ele><time>2026-04-12T10:24:47.995Z</time></trkpt><trkpt lat="44.861835" lon="8.3431483"><ele>106.6</ele><time>2026-04-12T10:24:48.995Z</time></trkpt><trkpt lat="44.8617367" lon="8.343205"><ele>106.8</ele><time>2026-04-12T10:24:49.994Z</time></trkpt><trkpt lat="44.8616367" lon="8.3432683"><ele>107.0</ele><time>2026-04-12T10:24:50.999Z</time></trkpt><trkpt lat="44.861535" lon="8.3433483"><ele>107.0</ele><time>2026-04-12T10:24:51.996Z</time></trkpt><trkpt lat="44.861445" lon="8.3434617"><ele>107.0</ele><time>2026-04-12T10:24:52.996Z</time></trkpt><trkpt lat="44.8613583" lon="8.34358"><ele>107.0</ele><time>2026-04-12T10:24:53.999Z</time></trkpt><trkpt lat="44.86127" lon="8.3437033"><ele>107.0</ele><time>2026-04-12T10:24:54.998Z</time></trkpt><trkpt lat="44.8611817" lon="8.343835"><ele>106.75</ele><time>2026-04-12T10:24:55.995Z</time></trkpt><trkpt lat="44.86109" lon="8.3439733"><ele>106.5</ele><time>2026-04-12T10:24:56.999Z</time></trkpt><trkpt lat="44.860995" lon="8.344115"><ele>106.25</ele><time>2026-04-12T10:24:58Z</time></trkpt><trkpt lat="44.8608933" lon="8.3442683"><ele>106.0</ele><time>2026-04-12T10:24:58.998Z</time></trkpt><trkpt lat="44.8607867" lon="8.34443"><ele>106.0</ele><time>2026-04-12T10:25:00.007Z</time></trkpt><trkpt lat="44.860685" lon="8.3445883"><ele>106.0</ele><time>2026-04-12T10:25:00.994Z</time></trkpt><trkpt lat="44.8605867" lon="8.344745"><ele>106.0</ele><time>2026-04-12T10:25:01.996Z</time></trkpt><trkpt lat="44.8604883" lon="8.344895"><ele>106.0</ele><time>2026-04-12T10:25:02.996Z</time></trkpt><trkpt lat="44.8604" lon="8.34504"><ele>106.0</ele><time>2026-04-12T10:25:03.997Z</time></trkpt><trkpt lat="44.8603217" lon="8.3451733"><ele>106.0</ele><time>2026-04-12T10:25:04.998Z</time></trkpt><trkpt lat="44.8602567" lon="8.3452867"><ele>106.0</ele><time>2026-04-12T10:25:05.995Z</time></trkpt><trkpt lat="44.8601933" lon="8.3453933"><ele>106.0</ele><time>2026-04-12T10:25:06.996Z</time></trkpt><trkpt lat="44.860135" lon="8.3454933"><ele>106.0</ele><time>2026-04-12T10:25:07.999Z</time></trkpt><trkpt lat="44.8600767" lon="8.34559"><ele>106.0</ele><time>2026-04-12T10:25:08.995Z</time></trkpt><trkpt lat="44.8600133" lon="8.3457017"><ele>106.0</ele><time>2026-04-12T10:25:09.996Z</time></trkpt><trkpt lat="44.8599467" lon="8.3458183"><ele>106.0</ele><time>2026-04-12T10:25:10.992Z</time></trkpt><trkpt lat="44.8598767" lon="8.345945"><ele>106.0</ele><time>2026-04-12T10:25:11.997Z</time></trkpt><trkpt lat="44.8598067" lon="8.3460817"><ele>106.0</ele><time>2026-04-12T10:25:12.993Z</time></trkpt><trkpt lat="44.85973" lon="8.3462217"><ele>106.0</ele><time>2026-04-12T10:25:13.996Z</time></trkpt><trkpt lat="44.859655" lon="8.3463667"><ele>106.0</ele><time>2026-04-12T10:25:14.997Z</time></trkpt><trkpt lat="44.8595683" lon="8.3465117"><ele>106.0</ele><time>2026-04-12T10:25:15.995Z</time></trkpt><trkpt lat="44.8595017" lon="8.3466333"><ele>106.0</ele><time>2026-04-12T10:25:16.993Z</time></trkpt><trkpt lat="44.859445" lon="8.34674"><ele>106.00000000000001</ele><time>2026-04-12T10:25:17.997Z</time></trkpt><trkpt lat="44.8594" lon="8.346845"><ele>106.0</ele><time>2026-04-12T10:25:18.991Z</time></trkpt><trkpt lat="44.8593583" lon="8.3469433"><ele>106.0</ele><time>2026-04-12T10:25:20Z</time></trkpt><trkpt lat="44.859325" lon="8.347035"><ele>106.0</ele><time>2026-04-12T10:25:20.994Z</time></trkpt><trkpt lat="44.8592867" lon="8.3471283"><ele>106.00000000000001</ele><time>2026-04-12T10:25:21.997Z</time></trkpt><trkpt lat="44.8592417" lon="8.3472283"><ele>106.0</ele><time>2026-04-12T10:25:22.995Z</time></trkpt><trkpt lat="44.859195" lon="8.3473467"><ele>106.0</ele><time>2026-04-12T10:25:23.996Z</time></trkpt><trkpt lat="44.8591433" lon="8.34748"><ele>106.0</ele><time>2026-04-12T10:25:24.995Z</time></trkpt><trkpt lat="44.8590817" lon="8.3476233"><ele>106.0</ele><time>2026-04-12T10:25:25.991Z</time></trkpt><trkpt lat="44.8590233" lon="8.347785"><ele>106.0</ele><time>2026-04-12T10:25:27.001Z</time></trkpt><trkpt lat="44.8589533" lon="8.3479633"><ele>105.5</ele><time>2026-04-12T10:25:27.991Z</time></trkpt><trkpt lat="44.8588833" lon="8.3481433"><ele>105.0</ele><time>2026-04-12T10:25:28.995Z</time></trkpt><trkpt lat="44.8588283" lon="8.3483217"><ele>104.5</ele><time>2026-04-12T10:25:29.997Z</time></trkpt><trkpt lat="44.8587717" lon="8.3485033"><ele>104.0</ele><time>2026-04-12T10:25:30.998Z</time></trkpt><trkpt lat="44.8587217" lon="8.3486717"><ele>104.0</ele><time>2026-04-12T10:25:31.997Z</time></trkpt><trkpt lat="44.8586733" lon="8.3488333"><ele>104.0</ele><time>2026-04-12T10:25:32.996Z</time></trkpt><trkpt lat="44.8586283" lon="8.3489917"><ele>104.0</ele><time>2026-04-12T10:25:33.993Z</time></trkpt><trkpt lat="44.8585867" lon="8.3491417"><ele>104.0</ele><time>2026-04-12T10:25:34.994Z</time></trkpt><trkpt lat="44.858545" lon="8.3492817"><ele>103.80000000000001</ele><time>2026-04-12T10:25:35.991Z</time></trkpt><trkpt lat="44.8585117" lon="8.3493967"><ele>103.60000000000001</ele><time>2026-04-12T10:25:36.995Z</time></trkpt><trkpt lat="44.8584833" lon="8.3494917"><ele>103.4</ele><time>2026-04-12T10:25:37.991Z</time></trkpt><trkpt lat="44.8584367" lon="8.3496467"><ele>103.2</ele><time>2026-04-12T10:25:39.997Z</time></trkpt><trkpt lat="44.8583983" lon="8.34982"><ele>103.0</ele><time>2026-04-12T10:25:41.994Z</time></trkpt><trkpt lat="44.85837" lon="8.349925"><ele>102.80000000000001</ele><time>2026-04-12T10:25:42.999Z</time></trkpt><trkpt lat="44.858335" lon="8.350035"><ele>102.6</ele><time>2026-04-12T10:25:44.001Z</time></trkpt><trkpt lat="44.8582967" lon="8.3501633"><ele>102.4</ele><time>2026-04-12T10:25:44.996Z</time></trkpt><trkpt lat="44.8582617" lon="8.3503233"><ele>102.19999999999999</ele><time>2026-04-12T10:25:45.996Z</time></trkpt><trkpt lat="44.858205" lon="8.3505"><ele>102.0</ele><time>2026-04-12T10:25:47Z</time></trkpt><trkpt lat="44.8581317" lon="8.3507017"><ele>102.0</ele><time>2026-04-12T10:25:48Z</time></trkpt><trkpt lat="44.858055" lon="8.3509283"><ele>102.0</ele><time>2026-04-12T10:25:48.998Z</time></trkpt><trkpt lat="44.857975" lon="8.3511767"><ele>102.0</ele><time>2026-04-12T10:25:49.994Z</time></trkpt><trkpt lat="44.85789" lon="8.3514533"><ele>102.5</ele><time>2026-04-12T10:25:50.996Z</time></trkpt><trkpt lat="44.8578017" lon="8.351745"><ele>103.0</ele><time>2026-04-12T10:25:51.998Z</time></trkpt><trkpt lat="44.85771" lon="8.3520367"><ele>103.5</ele><time>2026-04-12T10:25:52.996Z</time></trkpt><trkpt lat="44.857615" lon="8.3523383"><ele>104.0</ele><time>2026-04-12T10:25:53.996Z</time></trkpt><trkpt lat="44.8575183" lon="8.3526517"><ele>104.0</ele><time>2026-04-12T10:25:54.996Z</time></trkpt><trkpt lat="44.85742" lon="8.3529667"><ele>104.0</ele><time>2026-04-12T10:25:55.994Z</time></trkpt><trkpt lat="44.85732" lon="8.35328"><ele>104.0</ele><time>2026-04-12T10:25:56.997Z</time></trkpt><trkpt lat="44.8572217" lon="8.3536"><ele>104.0</ele><time>2026-04-12T10:25:57.994Z</time></trkpt><trkpt lat="44.8571233" lon="8.3539233"><ele>103.0</ele><time>2026-04-12T10:25:58.996Z</time></trkpt><trkpt lat="44.857025" lon="8.354245"><ele>102.0</ele><time>2026-04-12T10:25:59.995Z</time></trkpt><trkpt lat="44.8569267" lon="8.3545667"><ele>102.5</ele><time>2026-04-12T10:26:00.997Z</time></trkpt><trkpt lat="44.8568283" lon="8.3548883"><ele>103.0</ele><time>2026-04-12T10:26:01.993Z</time></trkpt><trkpt lat="44.8567283" lon="8.3552083"><ele>103.0</ele><time>2026-04-12T10:26:02.996Z</time></trkpt><trkpt lat="44.8566267" lon="8.355525"><ele>103.0</ele><time>2026-04-12T10:26:03.998Z</time></trkpt><trkpt lat="44.85653" lon="8.3558383"><ele>103.5</ele><time>2026-04-12T10:26:04.996Z</time></trkpt><trkpt lat="44.8564333" lon="8.35615"><ele>104.0</ele><time>2026-04-12T10:26:05.999Z</time></trkpt><trkpt lat="44.8563317" lon="8.3564633"><ele>103.0</ele><time>2026-04-12T10:26:06.996Z</time></trkpt><trkpt lat="44.8562333" lon="8.356775"><ele>102.0</ele><time>2026-04-12T10:26:07.995Z</time></trkpt><trkpt lat="44.8561367" lon="8.357085"><ele>102.5</ele><time>2026-04-12T10:26:08.993Z</time></trkpt><trkpt lat="44.85604" lon="8.3573917"><ele>103.0</ele><time>2026-04-12T10:26:09.998Z</time></trkpt><trkpt lat="44.855945" lon="8.357695"><ele>103.0</ele><time>2026-04-12T10:26:10.991Z</time></trkpt><trkpt lat="44.85585" lon="8.3579967"><ele>103.0</ele><time>2026-04-12T10:26:11.999Z</time></trkpt><trkpt lat="44.855755" lon="8.3582983"><ele>103.5</ele><time>2026-04-12T10:26:12.993Z</time></trkpt><trkpt lat="44.8556617" lon="8.3585967"><ele>104.0</ele><time>2026-04-12T10:26:13.996Z</time></trkpt><trkpt lat="44.8555683" lon="8.3588967"><ele>104.0</ele><time>2026-04-12T10:26:14.993Z</time></trkpt><trkpt lat="44.855475" lon="8.3591967"><ele>104.0</ele><time>2026-04-12T10:26:15.998Z</time></trkpt><trkpt lat="44.8553783" lon="8.3595083"><ele>106.0</ele><time>2026-04-12T10:26:16.993Z</time></trkpt><trkpt lat="44.85528" lon="8.3598333"><ele>108.0</ele><time>2026-04-12T10:26:17.996Z</time></trkpt><trkpt lat="44.8551783" lon="8.360155"><ele>107.5</ele><time>2026-04-12T10:26:18.996Z</time></trkpt><trkpt lat="44.855085" lon="8.36046"><ele>107.0</ele><time>2026-04-12T10:26:19.995Z</time></trkpt><trkpt lat="44.8549933" lon="8.36075"><ele>107.0</ele><time>2026-04-12T10:26:20.995Z</time></trkpt><trkpt lat="44.8549083" lon="8.3610217"><ele>107.0</ele><time>2026-04-12T10:26:21.993Z</time></trkpt><trkpt lat="44.8548283" lon="8.3612783"><ele>107.0</ele><time>2026-04-12T10:26:22.99Z</time></trkpt><trkpt lat="44.854755" lon="8.361515"><ele>106.33333333333333</ele><time>2026-04-12T10:26:23.992Z</time></trkpt><trkpt lat="44.854675" lon="8.3617383"><ele>105.66666666666666</ele><time>2026-04-12T10:26:24.993Z</time></trkpt><trkpt lat="44.8545933" lon="8.3619367"><ele>105.0</ele><time>2026-04-12T10:26:25.998Z</time></trkpt><trkpt lat="44.854495" lon="8.3621067"><ele>105.33333333333334</ele><time>2026-04-12T10:26:27.001Z</time></trkpt><trkpt lat="44.8543733" lon="8.3622567"><ele>105.66666666666667</ele><time>2026-04-12T10:26:27.994Z</time></trkpt><trkpt lat="44.8542267" lon="8.3623917"><ele>106.0</ele><time>2026-04-12T10:26:28.997Z</time></trkpt><trkpt lat="44.8540667" lon="8.3625067"><ele>105.33333333333334</ele><time>2026-04-12T10:26:29.998Z</time></trkpt><trkpt lat="44.8538883" lon="8.3626"><ele>104.66666666666666</ele><time>2026-04-12T10:26:30.999Z</time></trkpt><trkpt lat="44.853705" lon="8.362695"><ele>104.0</ele><time>2026-04-12T10:26:31.994Z</time></trkpt><trkpt lat="44.853525" lon="8.3628067"><ele>105.0</ele><time>2026-04-12T10:26:32.998Z</time></trkpt><trkpt lat="44.85337" lon="8.3629367"><ele>106.0</ele><time>2026-04-12T10:26:33.994Z</time></trkpt><trkpt lat="44.85324" lon="8.36309"><ele>107.0</ele><time>2026-04-12T10:26:34.996Z</time></trkpt><trkpt lat="44.8531283" lon="8.3632467"><ele>107.75</ele><time>2026-04-12T10:26:35.992Z</time></trkpt><trkpt lat="44.8530233" lon="8.36338"><ele>108.5</ele><time>2026-04-12T10:26:36.993Z</time></trkpt><trkpt lat="44.8529083" lon="8.36348"><ele>109.25</ele><time>2026-04-12T10:26:37.996Z</time></trkpt><trkpt lat="44.852775" lon="8.3635417"><ele>110.0</ele><time>2026-04-12T10:26:38.996Z</time></trkpt><trkpt lat="44.8526383" lon="8.3635717"><ele>110.33333333333333</ele><time>2026-04-12T10:26:39.999Z</time></trkpt><trkpt lat="44.8524983" lon="8.3635667"><ele>110.66666666666666</ele><time>2026-04-12T10:26:40.995Z</time></trkpt><trkpt lat="44.8523567" lon="8.36351"><ele>111.0</ele><time>2026-04-12T10:26:41.993Z</time></trkpt><trkpt lat="44.8522117" lon="8.3634067"><ele>111.0</ele><time>2026-04-12T10:26:42.997Z</time></trkpt><trkpt lat="44.85206" lon="8.3632717"><ele>111.0</ele><time>2026-04-12T10:26:43.994Z</time></trkpt><trkpt lat="44.8519133" lon="8.36311"><ele>111.0</ele><time>2026-04-12T10:26:44.997Z</time></trkpt><trkpt lat="44.8517483" lon="8.36294"><ele>113.0</ele><time>2026-04-12T10:26:45.995Z</time></trkpt><trkpt lat="44.8515783" lon="8.36277"><ele>115.0</ele><time>2026-04-12T10:26:46.993Z</time></trkpt><trkpt lat="44.8514183" lon="8.3625867"><ele>117.0</ele><time>2026-04-12T10:26:47.995Z</time></trkpt><trkpt lat="44.8512633" lon="8.3623783"><ele>116.66666666666666</ele><time>2026-04-12T10:26:48.995Z</time></trkpt><trkpt lat="44.8511183" lon="8.3621467"><ele>116.33333333333333</ele><time>2026-04-12T10:26:49.996Z</time></trkpt><trkpt lat="44.8509767" lon="8.3619017"><ele>116.0</ele><time>2026-04-12T10:26:51.006Z</time></trkpt><trkpt lat="44.85083" lon="8.3616567"><ele>116.0</ele><time>2026-04-12T10:26:51.998Z</time></trkpt><trkpt lat="44.85068" lon="8.3614383"><ele>116.0</ele><time>2026-04-12T10:26:52.999Z</time></trkpt><trkpt lat="44.8505267" lon="8.3612433"><ele>116.0</ele><time>2026-04-12T10:26:53.997Z</time></trkpt><trkpt lat="44.85037" lon="8.36106"><ele>116.33333333333333</ele><time>2026-04-12T10:26:54.997Z</time></trkpt><trkpt lat="44.8502183" lon="8.3608767"><ele>116.66666666666666</ele><time>2026-04-12T10:26:55.999Z</time></trkpt><trkpt lat="44.850075" lon="8.3606883"><ele>117.0</ele><time>2026-04-12T10:26:56.998Z</time></trkpt><trkpt lat="44.8499283" lon="8.3604983"><ele>120.0</ele><time>2026-04-12T10:26:57.998Z</time></trkpt><trkpt lat="44.8497733" lon="8.36031"><ele>123.0</ele><time>2026-04-12T10:26:58.995Z</time></trkpt><trkpt lat="44.84962" lon="8.3601217"><ele>126.0</ele><time>2026-04-12T10:26:59.995Z</time></trkpt><trkpt lat="44.8494583" lon="8.3599383"><ele>126.0</ele><time>2026-04-12T10:27:00.995Z</time></trkpt><trkpt lat="44.8493017" lon="8.35975"><ele>126.0</ele><time>2026-04-12T10:27:01.997Z</time></trkpt><trkpt lat="44.849155" lon="8.3595483"><ele>126.0</ele><time>2026-04-12T10:27:02.998Z</time></trkpt><trkpt lat="44.84902" lon="8.3593317"><ele>125.33333333333334</ele><time>2026-04-12T10:27:03.998Z</time></trkpt><trkpt lat="44.8488917" lon="8.3590967"><ele>124.66666666666667</ele><time>2026-04-12T10:27:04.996Z</time></trkpt><trkpt lat="44.8487617" lon="8.3588467"><ele>124.0</ele><time>2026-04-12T10:27:05.997Z</time></trkpt><trkpt lat="44.8486233" lon="8.358595"><ele>124.0</ele><time>2026-04-12T10:27:06.996Z</time></trkpt><trkpt lat="44.848485" lon="8.3583367"><ele>124.0</ele><time>2026-04-12T10:27:07.993Z</time></trkpt><trkpt lat="44.848345" lon="8.3580767"><ele>126.0</ele><time>2026-04-12T10:27:08.997Z</time></trkpt><trkpt lat="44.8481983" lon="8.3578167"><ele>128.0</ele><time>2026-04-12T10:27:09.997Z</time></trkpt><trkpt lat="44.8480517" lon="8.3575533"><ele>128.0</ele><time>2026-04-12T10:27:10.996Z</time></trkpt><trkpt lat="44.8479017" lon="8.3572883"><ele>128.0</ele><time>2026-04-12T10:27:11.995Z</time></trkpt><trkpt lat="44.847755" lon="8.3570267"><ele>127.0</ele><time>2026-04-12T10:27:12.994Z</time></trkpt><trkpt lat="44.8476117" lon="8.3567583"><ele>126.0</ele><time>2026-04-12T10:27:14.001Z</time></trkpt><trkpt lat="44.8474667" lon="8.3564967"><ele>129.0</ele><time>2026-04-12T10:27:15Z</time></trkpt><trkpt lat="44.84733" lon="8.3562283"><ele>132.0</ele><time>2026-04-12T10:27:15.991Z</time></trkpt><trkpt lat="44.8472033" lon="8.35599"><ele>135.0</ele><time>2026-04-12T10:27:16.996Z</time></trkpt><trkpt lat="44.8470833" lon="8.3557967"><ele>135.0</ele><time>2026-04-12T10:27:17.995Z</time></trkpt><trkpt lat="44.8469567" lon="8.3556483"><ele>135.0</ele><time>2026-04-12T10:27:18.996Z</time></trkpt><trkpt lat="44.84683" lon="8.3555383"><ele>135.0</ele><time>2026-04-12T10:27:19.997Z</time></trkpt><trkpt lat="44.8466933" lon="8.3554617"><ele>133.66666666666666</ele><time>2026-04-12T10:27:20.996Z</time></trkpt><trkpt lat="44.84654" lon="8.355415"><ele>132.33333333333331</ele><time>2026-04-12T10:27:21.996Z</time></trkpt><trkpt lat="44.8463767" lon="8.3553867"><ele>131.0</ele><time>2026-04-12T10:27:22.996Z</time></trkpt><trkpt lat="44.8462133" lon="8.3553567"><ele>131.0</ele><time>2026-04-12T10:27:24Z</time></trkpt><trkpt lat="44.84606" lon="8.3553117"><ele>131.0</ele><time>2026-04-12T10:27:24.994Z</time></trkpt><trkpt lat="44.845905" lon="8.3552383"><ele>131.0</ele><time>2026-04-12T10:27:25.998Z</time></trkpt><trkpt lat="44.8457733" lon="8.3551183"><ele>130.0</ele><time>2026-04-12T10:27:26.995Z</time></trkpt><trkpt lat="44.84566" lon="8.3549667"><ele>129.0</ele><time>2026-04-12T10:27:27.994Z</time></trkpt><trkpt lat="44.8455683" lon="8.3547867"><ele>128.0</ele><time>2026-04-12T10:27:28.996Z</time></trkpt><trkpt lat="44.845475" lon="8.3546"><ele>127.0</ele><time>2026-04-12T10:27:29.997Z</time></trkpt><trkpt lat="44.845375" lon="8.354435"><ele>126.0</ele><time>2026-04-12T10:27:30.997Z</time></trkpt><trkpt lat="44.8452567" lon="8.3543033"><ele>125.0</ele><time>2026-04-12T10:27:31.999Z</time></trkpt><trkpt lat="44.8451133" lon="8.354205"><ele>127.0</ele><time>2026-04-12T10:27:32.999Z</time></trkpt><trkpt lat="44.8449533" lon="8.3541283"><ele>129.0</ele><time>2026-04-12T10:27:34.001Z</time></trkpt><trkpt lat="44.84479" lon="8.35405"><ele>131.0</ele><time>2026-04-12T10:27:34.997Z</time></trkpt><trkpt lat="44.8446383" lon="8.3539467"><ele>128.66666666666666</ele><time>2026-04-12T10:27:35.995Z</time></trkpt><trkpt lat="44.84449" lon="8.3538267"><ele>126.33333333333334</ele><time>2026-04-12T10:27:36.998Z</time></trkpt><trkpt lat="44.8443483" lon="8.353685"><ele>124.0</ele><time>2026-04-12T10:27:38.003Z</time></trkpt><trkpt lat="44.84421" lon="8.3535317"><ele>129.0</ele><time>2026-04-12T10:27:39.003Z</time></trkpt><trkpt lat="44.8440617" lon="8.3533833"><ele>134.0</ele><time>2026-04-12T10:27:40Z</time></trkpt><trkpt lat="44.8439117" lon="8.3532333"><ele>139.0</ele><time>2026-04-12T10:27:40.997Z</time></trkpt><trkpt lat="44.8437667" lon="8.3530883"><ele>139.75</ele><time>2026-04-12T10:27:41.996Z</time></trkpt><trkpt lat="44.843635" lon="8.35295"><ele>140.5</ele><time>2026-04-12T10:27:42.997Z</time></trkpt><trkpt lat="44.8435217" lon="8.3528367"><ele>141.25</ele><time>2026-04-12T10:27:44.001Z</time></trkpt><trkpt lat="44.8434183" lon="8.3527683"><ele>142.0</ele><time>2026-04-12T10:27:44.999Z</time></trkpt><trkpt lat="44.8433233" lon="8.3527483"><ele>142.0</ele><time>2026-04-12T10:27:46.002Z</time></trkpt><trkpt lat="44.8432317" lon="8.3527467"><ele>142.0</ele><time>2026-04-12T10:27:46.994Z</time></trkpt><trkpt lat="44.8431467" lon="8.352775"><ele>142.0</ele><time>2026-04-12T10:27:47.993Z</time></trkpt><trkpt lat="44.8431333" lon="8.35294"><ele>142.0</ele><time>2026-04-12T10:27:48.994Z</time></trkpt><trkpt lat="44.8431233" lon="8.3530667"><ele>142.0</ele><time>2026-04-12T10:27:49.993Z</time></trkpt><trkpt lat="44.8431217" lon="8.35319"><ele>141.25</ele><time>2026-04-12T10:27:50.995Z</time></trkpt><trkpt lat="44.8431783" lon="8.35331"><ele>140.5</ele><time>2026-04-12T10:27:51.995Z</time></trkpt><trkpt lat="44.843275" lon="8.35341"><ele>139.75</ele><time>2026-04-12T10:27:52.993Z</time></trkpt><trkpt lat="44.8434167" lon="8.3535"><ele>139.0</ele><time>2026-04-12T10:27:53.996Z</time></trkpt><trkpt lat="44.8435633" lon="8.3535933"><ele>139.0</ele><time>2026-04-12T10:27:54.996Z</time></trkpt><trkpt lat="44.843695" lon="8.3537083"><ele>139.0</ele><time>2026-04-12T10:27:55.996Z</time></trkpt><trkpt lat="44.8437933" lon="8.3538617"><ele>139.0</ele><time>2026-04-12T10:27:56.999Z</time></trkpt><trkpt lat="44.843885" lon="8.3540167"><ele>139.0</ele><time>2026-04-12T10:27:57.996Z</time></trkpt><trkpt lat="44.8439583" lon="8.3541683"><ele>140.6</ele><time>2026-04-12T10:27:58.996Z</time></trkpt><trkpt lat="44.8440183" lon="8.35431"><ele>142.2</ele><time>2026-04-12T10:27:59.996Z</time></trkpt><trkpt lat="44.8440233" lon="8.3544567"><ele>143.79999999999998</ele><time>2026-04-12T10:28:00.994Z</time></trkpt><trkpt lat="44.8440383" lon="8.3545867"><ele>145.4</ele><time>2026-04-12T10:28:01.992Z</time></trkpt><trkpt lat="44.8440183" lon="8.3547067"><ele>147.0</ele><time>2026-04-12T10:28:02.994Z</time></trkpt><trkpt lat="44.8439283" lon="8.354755"><ele>147.0</ele><time>2026-04-12T10:28:03.994Z</time></trkpt><trkpt lat="44.84385" lon="8.3548133"><ele>147.0</ele><time>2026-04-12T10:28:04.995Z</time></trkpt><trkpt lat="44.8437167" lon="8.3548083"><ele>147.0</ele><time>2026-04-12T10:28:05.993Z</time></trkpt><trkpt lat="44.84359" lon="8.354815"><ele>147.0</ele><time>2026-04-12T10:28:06.996Z</time></trkpt><trkpt lat="44.8434333" lon="8.3547917"><ele>149.66666666666666</ele><time>2026-04-12T10:28:07.996Z</time></trkpt><trkpt lat="44.8432583" lon="8.354735"><ele>152.33333333333331</ele><time>2026-04-12T10:28:08.996Z</time></trkpt><trkpt lat="44.8430717" lon="8.354645"><ele>155.0</ele><time>2026-04-12T10:28:09.998Z</time></trkpt><trkpt lat="44.8428967" lon="8.3545783"><ele>157.0</ele><time>2026-04-12T10:28:10.995Z</time></trkpt><trkpt lat="44.8427117" lon="8.354505"><ele>159.0</ele><time>2026-04-12T10:28:11.996Z</time></trkpt><trkpt lat="44.8425217" lon="8.35446"><ele>161.0</ele><time>2026-04-12T10:28:12.995Z</time></trkpt><trkpt lat="44.8423433" lon="8.3544317"><ele>162.5</ele><time>2026-04-12T10:28:13.996Z</time></trkpt><trkpt lat="44.84218" lon="8.3544083"><ele>164.0</ele><time>2026-04-12T10:28:14.997Z</time></trkpt><trkpt lat="44.842045" lon="8.3543767"><ele>165.5</ele><time>2026-04-12T10:28:15.998Z</time></trkpt><trkpt lat="44.8419233" lon="8.3543333"><ele>167.0</ele><time>2026-04-12T10:28:16.998Z</time></trkpt><trkpt lat="44.8418433" lon="8.3542517"><ele>166.8</ele><time>2026-04-12T10:28:17.997Z</time></trkpt><trkpt lat="44.8417783" lon="8.3541417"><ele>166.6</ele><time>2026-04-12T10:28:18.996Z</time></trkpt><trkpt lat="44.8417633" lon="8.354005"><ele>166.4</ele><time>2026-04-12T10:28:19.996Z</time></trkpt><trkpt lat="44.8418083" lon="8.3538483"><ele>166.20000000000002</ele><time>2026-04-12T10:28:20.994Z</time></trkpt><trkpt lat="44.8418733" lon="8.3537083"><ele>166.0</ele><time>2026-04-12T10:28:21.997Z</time></trkpt><trkpt lat="44.8419633" lon="8.3535867"><ele>166.0</ele><time>2026-04-12T10:28:22.995Z</time></trkpt><trkpt lat="44.8420283" lon="8.3534583"><ele>166.0</ele><time>2026-04-12T10:28:23.997Z</time></trkpt><trkpt lat="44.8420667" lon="8.3533167"><ele>166.0</ele><time>2026-04-12T10:28:24.999Z</time></trkpt><trkpt lat="44.8420483" lon="8.3531817"><ele>166.0</ele><time>2026-04-12T10:28:25.997Z</time></trkpt><trkpt lat="44.8419967" lon="8.3530517"><ele>166.0</ele><time>2026-04-12T10:28:27.001Z</time></trkpt><trkpt lat="44.8419133" lon="8.3529567"><ele>165.0</ele><time>2026-04-12T10:28:27.996Z</time></trkpt><trkpt lat="44.8418233" lon="8.3529033"><ele>164.0</ele><time>2026-04-12T10:28:28.997Z</time></trkpt><trkpt lat="44.84173" lon="8.3529033"><ele>163.0</ele><time>2026-04-12T10:28:29.997Z</time></trkpt><trkpt lat="44.84164" lon="8.352975"><ele>162.0</ele><time>2026-04-12T10:28:30.995Z</time></trkpt><trkpt lat="44.8415617" lon="8.353095"><ele>161.0</ele><time>2026-04-12T10:28:31.996Z</time></trkpt><trkpt lat="44.841465" lon="8.3532567"><ele>167.33333333333331</ele><time>2026-04-12T10:28:33Z</time></trkpt><trkpt lat="44.8413533" lon="8.3534167"><ele>173.66666666666666</ele><time>2026-04-12T10:28:33.996Z</time></trkpt><trkpt lat="44.8412417" lon="8.3535783"><ele>180.0</ele><time>2026-04-12T10:28:34.997Z</time></trkpt><trkpt lat="44.841115" lon="8.3537383"><ele>178.0</ele><time>2026-04-12T10:28:35.995Z</time></trkpt><trkpt lat="44.8409783" lon="8.353885"><ele>176.0</ele><time>2026-04-12T10:28:36.993Z</time></trkpt><trkpt lat="44.8408467" lon="8.35402"><ele>174.0</ele><time>2026-04-12T10:28:37.994Z</time></trkpt><trkpt lat="44.8407133" lon="8.3541533"><ele>179.0</ele><time>2026-04-12T10:28:38.996Z</time></trkpt><trkpt lat="44.84059" lon="8.3543033"><ele>184.0</ele><time>2026-04-12T10:28:39.997Z</time></trkpt><trkpt lat="44.840495" lon="8.35448"><ele>189.0</ele><time>2026-04-12T10:28:40.994Z</time></trkpt><trkpt lat="44.84042" lon="8.354675"><ele>185.66666666666666</ele><time>2026-04-12T10:28:41.999Z</time></trkpt><trkpt lat="44.840375" lon="8.3548867"><ele>182.33333333333331</ele><time>2026-04-12T10:28:42.998Z</time></trkpt><trkpt lat="44.8403517" lon="8.3551067"><ele>179.0</ele><time>2026-04-12T10:28:43.998Z</time></trkpt><trkpt lat="44.840335" lon="8.3553117"><ele>179.0</ele><time>2026-04-12T10:28:45Z</time></trkpt><trkpt lat="44.8403067" lon="8.3555067"><ele>179.0</ele><time>2026-04-12T10:28:45.996Z</time></trkpt><trkpt lat="44.84026" lon="8.3556817"><ele>179.0</ele><time>2026-04-12T10:28:46.995Z</time></trkpt><trkpt lat="44.840175" lon="8.3558383"><ele>179.0</ele><time>2026-04-12T10:28:47.995Z</time></trkpt><trkpt lat="44.84008" lon="8.3560017"><ele>183.0</ele><time>2026-04-12T10:28:48.995Z</time></trkpt><trkpt lat="44.839975" lon="8.3561717"><ele>187.0</ele><time>2026-04-12T10:28:50Z</time></trkpt><trkpt lat="44.8398583" lon="8.3563417"><ele>191.0</ele><time>2026-04-12T10:28:50.997Z</time></trkpt><trkpt lat="44.8397333" lon="8.3565217"><ele>191.0</ele><time>2026-04-12T10:28:51.997Z</time></trkpt><trkpt lat="44.839605" lon="8.3567083"><ele>191.0</ele><time>2026-04-12T10:28:52.993Z</time></trkpt><trkpt lat="44.8394783" lon="8.3568933"><ele>191.0</ele><time>2026-04-12T10:28:53.996Z</time></trkpt><trkpt lat="44.8393633" lon="8.3570667"><ele>193.75</ele><time>2026-04-12T10:28:54.994Z</time></trkpt><trkpt lat="44.83925" lon="8.3572117"><ele>196.5</ele><time>2026-04-12T10:28:55.996Z</time></trkpt><trkpt lat="44.8391317" lon="8.357325"><ele>199.25</ele><time>2026-04-12T10:28:57.005Z</time></trkpt><trkpt lat="44.8390167" lon="8.3574033"><ele>202.0</ele><time>2026-04-12T10:28:58Z</time></trkpt><trkpt lat="44.8388983" lon="8.3574483"><ele>202.0</ele><time>2026-04-12T10:28:58.998Z</time></trkpt><trkpt lat="44.8387833" lon="8.3574583"><ele>202.0</ele><time>2026-04-12T10:28:59.996Z</time></trkpt><trkpt lat="44.8386717" lon="8.3574267"><ele>202.0</ele><time>2026-04-12T10:29:00.996Z</time></trkpt><trkpt lat="44.8385483" lon="8.35737"><ele>202.0</ele><time>2026-04-12T10:29:02.003Z</time></trkpt><trkpt lat="44.8384117" lon="8.357285"><ele>202.33333333333331</ele><time>2026-04-12T10:29:02.999Z</time></trkpt><trkpt lat="44.8382667" lon="8.3571817"><ele>202.66666666666669</ele><time>2026-04-12T10:29:03.996Z</time></trkpt><trkpt lat="44.838105" lon="8.357065"><ele>203.0</ele><time>2026-04-12T10:29:04.999Z</time></trkpt><trkpt lat="44.83795" lon="8.3569383"><ele>203.0</ele><time>2026-04-12T10:29:05.997Z</time></trkpt><trkpt lat="44.8377883" lon="8.3568167"><ele>203.0</ele><time>2026-04-12T10:29:06.995Z</time></trkpt><trkpt lat="44.837615" lon="8.3567083"><ele>203.0</ele><time>2026-04-12T10:29:07.997Z</time></trkpt><trkpt lat="44.8374417" lon="8.356615"><ele>203.33333333333334</ele><time>2026-04-12T10:29:08.993Z</time></trkpt><trkpt lat="44.8372567" lon="8.3565333"><ele>203.66666666666669</ele><time>2026-04-12T10:29:10Z</time></trkpt><trkpt lat="44.8370867" lon="8.3564467"><ele>204.0</ele><time>2026-04-12T10:29:10.996Z</time></trkpt><trkpt lat="44.83695" lon="8.3563433"><ele>204.0</ele><time>2026-04-12T10:29:11.995Z</time></trkpt><trkpt lat="44.8368317" lon="8.35623"><ele>204.0</ele><time>2026-04-12T10:29:13Z</time></trkpt><trkpt lat="44.8367217" lon="8.3560917"><ele>204.0</ele><time>2026-04-12T10:29:13.996Z</time></trkpt><trkpt lat="44.8366383" lon="8.355915"><ele>204.0</ele><time>2026-04-12T10:29:14.997Z</time></trkpt><trkpt lat="44.8365717" lon="8.3557067"><ele>201.66666666666669</ele><time>2026-04-12T10:29:15.994Z</time></trkpt><trkpt lat="44.8365117" lon="8.35548"><ele>199.33333333333334</ele><time>2026-04-12T10:29:17Z</time></trkpt><trkpt lat="44.836465" lon="8.355245"><ele>197.0</ele><time>2026-04-12T10:29:17.994Z</time></trkpt><trkpt lat="44.83642" lon="8.3550033"><ele>197.0</ele><time>2026-04-12T10:29:18.994Z</time></trkpt><trkpt lat="44.836375" lon="8.3547533"><ele>197.0</ele><time>2026-04-12T10:29:19.996Z</time></trkpt><trkpt lat="44.8363267" lon="8.3544983"><ele>197.0</ele><time>2026-04-12T10:29:20.994Z</time></trkpt><trkpt lat="44.8362717" lon="8.354245"><ele>198.66666666666669</ele><time>2026-04-12T10:29:21.995Z</time></trkpt><trkpt lat="44.83622" lon="8.3539967"><ele>200.33333333333331</ele><time>2026-04-12T10:29:22.993Z</time></trkpt><trkpt lat="44.8361733" lon="8.3537567"><ele>202.0</ele><time>2026-04-12T10:29:23.994Z</time></trkpt><trkpt lat="44.836125" lon="8.3535233"><ele>202.66666666666666</ele><time>2026-04-12T10:29:24.997Z</time></trkpt><trkpt lat="44.836075" lon="8.353295"><ele>203.33333333333331</ele><time>2026-04-12T10:29:25.996Z</time></trkpt><trkpt lat="44.8360783" lon="8.3530333"><ele>204.0</ele><time>2026-04-12T10:29:27Z</time></trkpt><trkpt lat="44.836015" lon="8.3528333"><ele>198.0</ele><time>2026-04-12T10:29:27.998Z</time></trkpt><trkpt lat="44.835915" lon="8.3526633"><ele>192.0</ele><time>2026-04-12T10:29:28.997Z</time></trkpt><trkpt lat="44.8357883" lon="8.3525117"><ele>186.0</ele><time>2026-04-12T10:29:29.995Z</time></trkpt><trkpt lat="44.8356517" lon="8.3523683"><ele>186.0</ele><time>2026-04-12T10:29:30.995Z</time></trkpt><trkpt lat="44.8355233" lon="8.3522233"><ele>186.0</ele><time>2026-04-12T10:29:32.003Z</time></trkpt><trkpt lat="44.8353983" lon="8.3520817"><ele>186.0</ele><time>2026-04-12T10:29:32.995Z</time></trkpt><trkpt lat="44.8352667" lon="8.3519733"><ele>186.60000000000002</ele><time>2026-04-12T10:29:33.995Z</time></trkpt><trkpt lat="44.8351783" lon="8.3518733"><ele>187.2</ele><time>2026-04-12T10:29:34.999Z</time></trkpt><trkpt lat="44.8350833" lon="8.3518217"><ele>187.8</ele><time>2026-04-12T10:29:35.992Z</time></trkpt><trkpt lat="44.8350017" lon="8.351785"><ele>188.39999999999998</ele><time>2026-04-12T10:29:36.995Z</time></trkpt><trkpt lat="44.8349167" lon="8.3518267"><ele>189.0</ele><time>2026-04-12T10:29:37.993Z</time></trkpt><trkpt lat="44.8348417" lon="8.3518867"><ele>185.25</ele><time>2026-04-12T10:29:38.999Z</time></trkpt><trkpt lat="44.8347967" lon="8.3520333"><ele>181.5</ele><time>2026-04-12T10:29:40.002Z</time></trkpt><trkpt lat="44.8347583" lon="8.352205"><ele>177.75</ele><time>2026-04-12T10:29:40.998Z</time></trkpt><trkpt lat="44.8347233" lon="8.3523783"><ele>174.0</ele><time>2026-04-12T10:29:41.999Z</time></trkpt><trkpt lat="44.83469" lon="8.3525417"><ele>174.0</ele><time>2026-04-12T10:29:42.993Z</time></trkpt><trkpt lat="44.8346467" lon="8.352655"><ele>174.0</ele><time>2026-04-12T10:29:43.996Z</time></trkpt><trkpt lat="44.8345967" lon="8.3527517"><ele>174.0</ele><time>2026-04-12T10:29:44.997Z</time></trkpt><trkpt lat="44.8345417" lon="8.3528383"><ele>174.0</ele><time>2026-04-12T10:29:45.995Z</time></trkpt><trkpt lat="44.8344817" lon="8.3528983"><ele>174.0</ele><time>2026-04-12T10:29:46.998Z</time></trkpt><trkpt lat="44.8344183" lon="8.3529033"><ele>174.0</ele><time>2026-04-12T10:29:47.997Z</time></trkpt><trkpt lat="44.8343617" lon="8.3528083"><ele>174.0</ele><time>2026-04-12T10:29:49.001Z</time></trkpt><trkpt lat="44.8343983" lon="8.352495"><ele>174.0</ele><time>2026-04-12T10:29:49.998Z</time></trkpt><trkpt lat="44.834385" lon="8.3522933"><ele>174.0</ele><time>2026-04-12T10:29:50.999Z</time></trkpt><trkpt lat="44.8344067" lon="8.3520867"><ele>174.0</ele><time>2026-04-12T10:29:51.995Z</time></trkpt><trkpt lat="44.83443" lon="8.3518833"><ele>174.0</ele><time>2026-04-12T10:29:52.995Z</time></trkpt><trkpt lat="44.8344617" lon="8.3516733"><ele>174.0</ele><time>2026-04-12T10:29:53.996Z</time></trkpt><trkpt lat="44.8345067" lon="8.351465"><ele>172.0</ele><time>2026-04-12T10:29:55.001Z</time></trkpt><trkpt lat="44.8345667" lon="8.351285"><ele>170.0</ele><time>2026-04-12T10:29:55.997Z</time></trkpt><trkpt lat="44.8346467" lon="8.3511283"><ele>168.0</ele><time>2026-04-12T10:29:56.997Z</time></trkpt><trkpt lat="44.8347283" lon="8.351005"><ele>166.0</ele><time>2026-04-12T10:29:57.994Z</time></trkpt><trkpt lat="44.834785" lon="8.35089"><ele>166.0</ele><time>2026-04-12T10:29:58.993Z</time></trkpt><trkpt lat="44.83482" lon="8.3507717"><ele>166.0</ele><time>2026-04-12T10:29:59.993Z</time></trkpt><trkpt lat="44.8348283" lon="8.35065"><ele>166.0</ele><time>2026-04-12T10:30:00.996Z</time></trkpt><trkpt lat="44.8348017" lon="8.35054"><ele>166.0</ele><time>2026-04-12T10:30:01.996Z</time></trkpt><trkpt lat="44.8347517" lon="8.3504467"><ele>166.0</ele><time>2026-04-12T10:30:02.999Z</time></trkpt><trkpt lat="44.8346633" lon="8.3504317"><ele>166.0</ele><time>2026-04-12T10:30:03.995Z</time></trkpt><trkpt lat="44.834575" lon="8.3504583"><ele>166.0</ele><time>2026-04-12T10:30:04.994Z</time></trkpt><trkpt lat="44.83448" lon="8.3505617"><ele>166.0</ele><time>2026-04-12T10:30:05.995Z</time></trkpt><trkpt lat="44.8344067" lon="8.3507133"><ele>166.0</ele><time>2026-04-12T10:30:06.994Z</time></trkpt><trkpt lat="44.8343367" lon="8.350885"><ele>166.0</ele><time>2026-04-12T10:30:07.995Z</time></trkpt><trkpt lat="44.8342633" lon="8.3510733"><ele>162.33333333333334</ele><time>2026-04-12T10:30:08.994Z</time></trkpt><trkpt lat="44.8341867" lon="8.3512683"><ele>158.66666666666666</ele><time>2026-04-12T10:30:09.999Z</time></trkpt><trkpt lat="44.8341117" lon="8.35147"><ele>155.0</ele><time>2026-04-12T10:30:10.997Z</time></trkpt><trkpt lat="44.8340383" lon="8.3516733"><ele>155.0</ele><time>2026-04-12T10:30:11.996Z</time></trkpt><trkpt lat="44.8339633" lon="8.351875"><ele>155.0</ele><time>2026-04-12T10:30:12.998Z</time></trkpt><trkpt lat="44.8338867" lon="8.3520817"><ele>155.0</ele><time>2026-04-12T10:30:13.996Z</time></trkpt><trkpt lat="44.83381" lon="8.35229"><ele>156.33333333333331</ele><time>2026-04-12T10:30:14.996Z</time></trkpt><trkpt lat="44.8337283" lon="8.3524967"><ele>157.66666666666666</ele><time>2026-04-12T10:30:15.996Z</time></trkpt><trkpt lat="44.8336483" lon="8.3527033"><ele>159.0</ele><time>2026-04-12T10:30:16.995Z</time></trkpt><trkpt lat="44.833565" lon="8.3529133"><ele>159.0</ele><time>2026-04-12T10:30:17.996Z</time></trkpt><trkpt lat="44.8334833" lon="8.3531267"><ele>159.0</ele><time>2026-04-12T10:30:18.997Z</time></trkpt><trkpt lat="44.8333967" lon="8.3533417"><ele>159.0</ele><time>2026-04-12T10:30:19.994Z</time></trkpt><trkpt lat="44.833315" lon="8.3535617"><ele>153.0</ele><time>2026-04-12T10:30:20.997Z</time></trkpt><trkpt lat="44.83323" lon="8.35378"><ele>147.0</ele><time>2026-04-12T10:30:21.997Z</time></trkpt><trkpt lat="44.8331467" lon="8.3539933"><ele>141.0</ele><time>2026-04-12T10:30:22.996Z</time></trkpt><trkpt lat="44.8330617" lon="8.354205"><ele>140.33333333333334</ele><time>2026-04-12T10:30:23.995Z</time></trkpt><trkpt lat="44.8329833" lon="8.3544233"><ele>139.66666666666669</ele><time>2026-04-12T10:30:24.996Z</time></trkpt><trkpt lat="44.8328983" lon="8.35464"><ele>139.0</ele><time>2026-04-12T10:30:25.994Z</time></trkpt><trkpt lat="44.8328117" lon="8.354855"><ele>137.33333333333334</ele><time>2026-04-12T10:30:26.994Z</time></trkpt><trkpt lat="44.832725" lon="8.3550667"><ele>135.66666666666666</ele><time>2026-04-12T10:30:27.998Z</time></trkpt><trkpt lat="44.8326367" lon="8.3552733"><ele>134.0</ele><time>2026-04-12T10:30:28.997Z</time></trkpt><trkpt lat="44.83255" lon="8.355455"><ele>134.5</ele><time>2026-04-12T10:30:29.998Z</time></trkpt><trkpt lat="44.8324633" lon="8.3555883"><ele>135.0</ele><time>2026-04-12T10:30:30.998Z</time></trkpt><trkpt lat="44.832385" lon="8.355685"><ele>135.5</ele><time>2026-04-12T10:30:31.992Z</time></trkpt><trkpt lat="44.832325" lon="8.3557533"><ele>136.0</ele><time>2026-04-12T10:30:32.993Z</time></trkpt><trkpt lat="44.8322717" lon="8.3558033"><ele>136.5</ele><time>2026-04-12T10:30:33.994Z</time></trkpt><trkpt lat="44.8322067" lon="8.3558233"><ele>137.0</ele><time>2026-04-12T10:30:35.996Z</time></trkpt><trkpt lat="44.832145" lon="8.3558633"><ele>137.0</ele><time>2026-04-12T10:30:38.994Z</time></trkpt><trkpt lat="44.83212" lon="8.3560533"><ele>137.0</ele><time>2026-04-12T10:30:40.996Z</time></trkpt><trkpt lat="44.8321033" lon="8.3561867"><ele>137.0</ele><time>2026-04-12T10:30:41.993Z</time></trkpt><trkpt lat="44.8320717" lon="8.3563167"><ele>137.0</ele><time>2026-04-12T10:30:42.998Z</time></trkpt><trkpt lat="44.8320117" lon="8.3564033"><ele>137.0</ele><time>2026-04-12T10:30:43.997Z</time></trkpt><trkpt lat="44.8319583" lon="8.356485"><ele>137.0</ele><time>2026-04-12T10:30:44.998Z</time></trkpt><trkpt lat="44.831895" lon="8.35654"><ele>137.0</ele><time>2026-04-12T10:30:46.007Z</time></trkpt><trkpt lat="44.8318217" lon="8.356565"><ele>137.0</ele><time>2026-04-12T10:30:47.002Z</time></trkpt><trkpt lat="44.831725" lon="8.3565067"><ele>137.0</ele><time>2026-04-12T10:30:48Z</time></trkpt><trkpt lat="44.8316417" lon="8.3564683"><ele>137.0</ele><time>2026-04-12T10:30:49Z</time></trkpt><trkpt lat="44.8315617" lon="8.3564033"><ele>137.0</ele><time>2026-04-12T10:30:49.994Z</time></trkpt><trkpt lat="44.8314733" lon="8.35631"><ele>134.25</ele><time>2026-04-12T10:30:50.996Z</time></trkpt><trkpt lat="44.8313733" lon="8.356225"><ele>131.5</ele><time>2026-04-12T10:30:51.995Z</time></trkpt><trkpt lat="44.83125" lon="8.3561767"><ele>128.75</ele><time>2026-04-12T10:30:52.995Z</time></trkpt><trkpt lat="44.8311133" lon="8.356145"><ele>126.0</ele><time>2026-04-12T10:30:53.996Z</time></trkpt><trkpt lat="44.8309717" lon="8.3561117"><ele>125.33333333333334</ele><time>2026-04-12T10:30:54.997Z</time></trkpt><trkpt lat="44.8308133" lon="8.3560817"><ele>124.66666666666667</ele><time>2026-04-12T10:30:55.996Z</time></trkpt><trkpt lat="44.8306533" lon="8.356055"><ele>124.0</ele><time>2026-04-12T10:30:56.997Z</time></trkpt><trkpt lat="44.8304917" lon="8.3560283"><ele>124.0</ele><time>2026-04-12T10:30:57.993Z</time></trkpt><trkpt lat="44.8303267" lon="8.3560067"><ele>124.0</ele><time>2026-04-12T10:30:58.996Z</time></trkpt><trkpt lat="44.830165" lon="8.35599"><ele>124.0</ele><time>2026-04-12T10:31:00.002Z</time></trkpt><trkpt lat="44.8300083" lon="8.3559733"><ele>124.0</ele><time>2026-04-12T10:31:00.995Z</time></trkpt><trkpt lat="44.82985" lon="8.3559533"><ele>124.0</ele><time>2026-04-12T10:31:01.995Z</time></trkpt><trkpt lat="44.82969" lon="8.355935"><ele>124.0</ele><time>2026-04-12T10:31:02.994Z</time></trkpt><trkpt lat="44.8295267" lon="8.3559183"><ele>124.0</ele><time>2026-04-12T10:31:03.996Z</time></trkpt><trkpt lat="44.8293667" lon="8.3559017"><ele>124.0</ele><time>2026-04-12T10:31:04.996Z</time></trkpt><trkpt lat="44.8292067" lon="8.35589"><ele>124.0</ele><time>2026-04-12T10:31:05.999Z</time></trkpt><trkpt lat="44.8290467" lon="8.3558867"><ele>125.0</ele><time>2026-04-12T10:31:06.999Z</time></trkpt><trkpt lat="44.8288867" lon="8.35591"><ele>126.0</ele><time>2026-04-12T10:31:07.996Z</time></trkpt><trkpt lat="44.8287267" lon="8.3559633"><ele>127.0</ele><time>2026-04-12T10:31:08.995Z</time></trkpt><trkpt lat="44.8285733" lon="8.3560483"><ele>127.0</ele><time>2026-04-12T10:31:09.996Z</time></trkpt><trkpt lat="44.82842" lon="8.356145"><ele>127.0</ele><time>2026-04-12T10:31:10.995Z</time></trkpt><trkpt lat="44.8282633" lon="8.3562433"><ele>127.0</ele><time>2026-04-12T10:31:11.998Z</time></trkpt><trkpt lat="44.8281067" lon="8.356345"><ele>126.33333333333334</ele><time>2026-04-12T10:31:13.004Z</time></trkpt><trkpt lat="44.8279467" lon="8.3564483"><ele>125.66666666666666</ele><time>2026-04-12T10:31:13.994Z</time></trkpt><trkpt lat="44.8277867" lon="8.356555"><ele>125.0</ele><time>2026-04-12T10:31:14.997Z</time></trkpt><trkpt lat="44.8276283" lon="8.3566567"><ele>127.33333333333333</ele><time>2026-04-12T10:31:15.994Z</time></trkpt><trkpt lat="44.827475" lon="8.356755"><ele>129.66666666666666</ele><time>2026-04-12T10:31:16.996Z</time></trkpt><trkpt lat="44.8273233" lon="8.3568533"><ele>132.0</ele><time>2026-04-12T10:31:17.995Z</time></trkpt><trkpt lat="44.8271683" lon="8.356945"><ele>132.0</ele><time>2026-04-12T10:31:18.998Z</time></trkpt><trkpt lat="44.8270167" lon="8.3570367"><ele>132.0</ele><time>2026-04-12T10:31:19.998Z</time></trkpt><trkpt lat="44.8268667" lon="8.3571283"><ele>132.0</ele><time>2026-04-12T10:31:20.998Z</time></trkpt><trkpt lat="44.8267217" lon="8.3572117"><ele>134.66666666666666</ele><time>2026-04-12T10:31:22Z</time></trkpt><trkpt lat="44.8265683" lon="8.3572767"><ele>137.33333333333331</ele><time>2026-04-12T10:31:22.998Z</time></trkpt><trkpt lat="44.8264167" lon="8.3573233"><ele>140.0</ele><time>2026-04-12T10:31:23.994Z</time></trkpt><trkpt lat="44.8262717" lon="8.3573467"><ele>140.0</ele><time>2026-04-12T10:31:24.993Z</time></trkpt><trkpt lat="44.8261267" lon="8.3573333"><ele>140.0</ele><time>2026-04-12T10:31:25.997Z</time></trkpt><trkpt lat="44.82598" lon="8.3572867"><ele>140.0</ele><time>2026-04-12T10:31:26.996Z</time></trkpt><trkpt lat="44.8258367" lon="8.3572117"><ele>140.0</ele><time>2026-04-12T10:31:27.997Z</time></trkpt><trkpt lat="44.825695" lon="8.35713"><ele>140.0</ele><time>2026-04-12T10:31:28.999Z</time></trkpt><trkpt lat="44.8255517" lon="8.35705"><ele>140.0</ele><time>2026-04-12T10:31:29.995Z</time></trkpt><trkpt lat="44.8254133" lon="8.3569733"><ele>140.0</ele><time>2026-04-12T10:31:31.003Z</time></trkpt><trkpt lat="44.82528" lon="8.3569"><ele>140.0</ele><time>2026-04-12T10:31:31.992Z</time></trkpt><trkpt lat="44.825175" lon="8.3568533"><ele>141.16666666666666</ele><time>2026-04-12T10:31:32.993Z</time></trkpt><trkpt lat="44.8250883" lon="8.3568483"><ele>142.33333333333331</ele><time>2026-04-12T10:31:33.994Z</time></trkpt><trkpt lat="44.8250233" lon="8.356905"><ele>143.5</ele><time>2026-04-12T10:31:34.997Z</time></trkpt><trkpt lat="44.82499" lon="8.3569983"><ele>144.66666666666666</ele><time>2026-04-12T10:31:35.994Z</time></trkpt><trkpt lat="44.8250017" lon="8.3571133"><ele>145.83333333333334</ele><time>2026-04-12T10:31:36.996Z</time></trkpt><trkpt lat="44.825035" lon="8.3572267"><ele>147.0</ele><time>2026-04-12T10:31:38Z</time></trkpt><trkpt lat="44.8251133" lon="8.3573133"><ele>147.79999999999998</ele><time>2026-04-12T10:31:38.996Z</time></trkpt><trkpt lat="44.8252033" lon="8.3574067"><ele>148.6</ele><time>2026-04-12T10:31:39.996Z</time></trkpt><trkpt lat="44.8252867" lon="8.3574983"><ele>149.39999999999998</ele><time>2026-04-12T10:31:40.994Z</time></trkpt><trkpt lat="44.8253533" lon="8.3575983"><ele>150.2</ele><time>2026-04-12T10:31:41.996Z</time></trkpt><trkpt lat="44.8253983" lon="8.357705"><ele>151.0</ele><time>2026-04-12T10:31:42.995Z</time></trkpt><trkpt lat="44.8254267" lon="8.357805"><ele>151.0</ele><time>2026-04-12T10:31:43.995Z</time></trkpt><trkpt lat="44.8254317" lon="8.357895"><ele>151.0</ele><time>2026-04-12T10:31:44.996Z</time></trkpt><trkpt lat="44.8253483" lon="8.3579667"><ele>151.0</ele><time>2026-04-12T10:31:46.996Z</time></trkpt><trkpt lat="44.8252533" lon="8.3579183"><ele>151.0</ele><time>2026-04-12T10:31:47.997Z</time></trkpt><trkpt lat="44.8251483" lon="8.35788"><ele>151.0</ele><time>2026-04-12T10:31:48.999Z</time></trkpt><trkpt lat="44.825" lon="8.3578367"><ele>152.33333333333334</ele><time>2026-04-12T10:31:49.998Z</time></trkpt><trkpt lat="44.82482" lon="8.3577333"><ele>153.66666666666666</ele><time>2026-04-12T10:31:50.998Z</time></trkpt><trkpt lat="44.824595" lon="8.3576783"><ele>155.0</ele><time>2026-04-12T10:31:51.995Z</time></trkpt><trkpt lat="44.8243917" lon="8.3576433"><ele>157.33333333333331</ele><time>2026-04-12T10:31:52.995Z</time></trkpt><trkpt lat="44.8242133" lon="8.3576117"><ele>159.66666666666666</ele><time>2026-04-12T10:31:53.995Z</time></trkpt><trkpt lat="44.824045" lon="8.3575733"><ele>162.0</ele><time>2026-04-12T10:31:54.995Z</time></trkpt><trkpt lat="44.823875" lon="8.35754"><ele>162.0</ele><time>2026-04-12T10:31:55.993Z</time></trkpt><trkpt lat="44.82371" lon="8.3575083"><ele>162.0</ele><time>2026-04-12T10:31:56.997Z</time></trkpt><trkpt lat="44.8235317" lon="8.3575017"><ele>162.0</ele><time>2026-04-12T10:31:57.993Z</time></trkpt><trkpt lat="44.8233533" lon="8.3575317"><ele>165.66666666666666</ele><time>2026-04-12T10:31:58.992Z</time></trkpt><trkpt lat="44.8231767" lon="8.35758"><ele>169.33333333333331</ele><time>2026-04-12T10:31:59.993Z</time></trkpt><trkpt lat="44.82299" lon="8.3576367"><ele>173.0</ele><time>2026-04-12T10:32:00.998Z</time></trkpt><trkpt lat="44.8228167" lon="8.35769"><ele>174.66666666666666</ele><time>2026-04-12T10:32:01.993Z</time></trkpt><trkpt lat="44.822645" lon="8.357725"><ele>176.33333333333334</ele><time>2026-04-12T10:32:02.996Z</time></trkpt><trkpt lat="44.82248" lon="8.3577317"><ele>178.0</ele><time>2026-04-12T10:32:03.992Z</time></trkpt><trkpt lat="44.8223167" lon="8.3577"><ele>178.0</ele><time>2026-04-12T10:32:04.992Z</time></trkpt><trkpt lat="44.8221733" lon="8.3576533"><ele>178.0</ele><time>2026-04-12T10:32:05.993Z</time></trkpt><trkpt lat="44.8220483" lon="8.3576"><ele>178.0</ele><time>2026-04-12T10:32:06.994Z</time></trkpt><trkpt lat="44.8219433" lon="8.3575167"><ele>178.0</ele><time>2026-04-12T10:32:07.993Z</time></trkpt><trkpt lat="44.821855" lon="8.35741"><ele>177.25</ele><time>2026-04-12T10:32:08.993Z</time></trkpt><trkpt lat="44.8218017" lon="8.35728"><ele>176.5</ele><time>2026-04-12T10:32:09.996Z</time></trkpt><trkpt lat="44.821775" lon="8.3571317"><ele>175.75</ele><time>2026-04-12T10:32:10.998Z</time></trkpt><trkpt lat="44.8218133" lon="8.35695"><ele>175.0</ele><time>2026-04-12T10:32:11.998Z</time></trkpt><trkpt lat="44.82187" lon="8.356765"><ele>175.0</ele><time>2026-04-12T10:32:12.997Z</time></trkpt><trkpt lat="44.8219283" lon="8.3565783"><ele>175.0</ele><time>2026-04-12T10:32:13.993Z</time></trkpt><trkpt lat="44.82198" lon="8.3564017"><ele>175.0</ele><time>2026-04-12T10:32:14.996Z</time></trkpt><trkpt lat="44.8220167" lon="8.356245"><ele>175.0</ele><time>2026-04-12T10:32:15.994Z</time></trkpt><trkpt lat="44.8220317" lon="8.3561083"><ele>176.83333333333334</ele><time>2026-04-12T10:32:16.995Z</time></trkpt><trkpt lat="44.822005" lon="8.3560017"><ele>178.66666666666669</ele><time>2026-04-12T10:32:17.993Z</time></trkpt><trkpt lat="44.8219767" lon="8.3559083"><ele>180.5</ele><time>2026-04-12T10:32:18.994Z</time></trkpt><trkpt lat="44.8219117" lon="8.3558867"><ele>182.33333333333334</ele><time>2026-04-12T10:32:19.992Z</time></trkpt><trkpt lat="44.821845" lon="8.3559267"><ele>184.16666666666666</ele><time>2026-04-12T10:32:21.001Z</time></trkpt><trkpt lat="44.8217783" lon="8.35602"><ele>186.0</ele><time>2026-04-12T10:32:22Z</time></trkpt><trkpt lat="44.8217033" lon="8.35615"><ele>188.66666666666669</ele><time>2026-04-12T10:32:22.995Z</time></trkpt><trkpt lat="44.8216167" lon="8.3563083"><ele>191.33333333333334</ele><time>2026-04-12T10:32:23.996Z</time></trkpt><trkpt lat="44.82152" lon="8.356495"><ele>194.0</ele><time>2026-04-12T10:32:24.992Z</time></trkpt><trkpt lat="44.8214233" lon="8.3566683"><ele>194.0</ele><time>2026-04-12T10:32:25.994Z</time></trkpt><trkpt lat="44.8213233" lon="8.356835"><ele>194.0</ele><time>2026-04-12T10:32:26.997Z</time></trkpt><trkpt lat="44.8212133" lon="8.35701"><ele>194.0</ele><time>2026-04-12T10:32:27.996Z</time></trkpt><trkpt lat="44.8211" lon="8.3571683"><ele>194.5</ele><time>2026-04-12T10:32:28.997Z</time></trkpt><trkpt lat="44.8210083" lon="8.3573183"><ele>195.0</ele><time>2026-04-12T10:32:29.995Z</time></trkpt><trkpt lat="44.8209217" lon="8.357465"><ele>195.5</ele><time>2026-04-12T10:32:30.997Z</time></trkpt><trkpt lat="44.82084" lon="8.3576033"><ele>196.0</ele><time>2026-04-12T10:32:31.999Z</time></trkpt><trkpt lat="44.8207483" lon="8.3577267"><ele>197.0</ele><time>2026-04-12T10:32:33.001Z</time></trkpt><trkpt lat="44.820655" lon="8.357825"><ele>198.0</ele><time>2026-04-12T10:32:33.996Z</time></trkpt><trkpt lat="44.8205417" lon="8.35785"><ele>199.0</ele><time>2026-04-12T10:32:34.996Z</time></trkpt><trkpt lat="44.8204367" lon="8.3578133"><ele>200.0</ele><time>2026-04-12T10:32:35.995Z</time></trkpt><trkpt lat="44.82042" lon="8.3574983"><ele>200.0</ele><time>2026-04-12T10:32:36.996Z</time></trkpt><trkpt lat="44.8203517" lon="8.357325"><ele>200.0</ele><time>2026-04-12T10:32:37.996Z</time></trkpt><trkpt lat="44.8202967" lon="8.3571267"><ele>200.0</ele><time>2026-04-12T10:32:38.996Z</time></trkpt><trkpt lat="44.8202767" lon="8.35693"><ele>200.0</ele><time>2026-04-12T10:32:39.995Z</time></trkpt><trkpt lat="44.820255" lon="8.3567333"><ele>200.0</ele><time>2026-04-12T10:32:40.998Z</time></trkpt><trkpt lat="44.8202567" lon="8.3565183"><ele>200.0</ele><time>2026-04-12T10:32:41.995Z</time></trkpt><trkpt lat="44.820275" lon="8.35631"><ele>200.0</ele><time>2026-04-12T10:32:42.993Z</time></trkpt><trkpt lat="44.8203017" lon="8.3561067"><ele>200.0</ele><time>2026-04-12T10:32:44.003Z</time></trkpt><trkpt lat="44.820355" lon="8.3559233"><ele>200.0</ele><time>2026-04-12T10:32:44.995Z</time></trkpt><trkpt lat="44.8204283" lon="8.3557633"><ele>200.0</ele><time>2026-04-12T10:32:45.995Z</time></trkpt><trkpt lat="44.8204883" lon="8.355625"><ele>200.0</ele><time>2026-04-12T10:32:46.992Z</time></trkpt><trkpt lat="44.8205367" lon="8.3554933"><ele>200.0</ele><time>2026-04-12T10:32:47.994Z</time></trkpt><trkpt lat="44.8205483" lon="8.355365"><ele>200.0</ele><time>2026-04-12T10:32:48.996Z</time></trkpt><trkpt lat="44.82052" lon="8.35525"><ele>200.00000000000003</ele><time>2026-04-12T10:32:49.996Z</time></trkpt><trkpt lat="44.8204567" lon="8.3551883"><ele>200.0</ele><time>2026-04-12T10:32:50.998Z</time></trkpt><trkpt lat="44.8203733" lon="8.3551767"><ele>200.0</ele><time>2026-04-12T10:32:51.997Z</time></trkpt><trkpt lat="44.8203" lon="8.3552217"><ele>200.0</ele><time>2026-04-12T10:32:52.998Z</time></trkpt><trkpt lat="44.8202317" lon="8.355295"><ele>200.00000000000003</ele><time>2026-04-12T10:32:53.994Z</time></trkpt><trkpt lat="44.8201967" lon="8.3554483"><ele>200.0</ele><time>2026-04-12T10:32:54.998Z</time></trkpt><trkpt lat="44.8201717" lon="8.355605"><ele>193.5</ele><time>2026-04-12T10:32:55.997Z</time></trkpt><trkpt lat="44.8201483" lon="8.3557767"><ele>187.0</ele><time>2026-04-12T10:32:56.997Z</time></trkpt><trkpt lat="44.8201133" lon="8.3559533"><ele>180.5</ele><time>2026-04-12T10:32:57.999Z</time></trkpt><trkpt lat="44.8200583" lon="8.35614"><ele>174.0</ele><time>2026-04-12T10:32:58.994Z</time></trkpt><trkpt lat="44.8199917" lon="8.356335"><ele>174.33333333333334</ele><time>2026-04-12T10:32:59.997Z</time></trkpt><trkpt lat="44.819915" lon="8.3565433"><ele>174.66666666666669</ele><time>2026-04-12T10:33:00.991Z</time></trkpt><trkpt lat="44.81984" lon="8.3567583"><ele>175.0</ele><time>2026-04-12T10:33:01.997Z</time></trkpt><trkpt lat="44.819775" lon="8.3569817"><ele>175.0</ele><time>2026-04-12T10:33:02.997Z</time></trkpt><trkpt lat="44.8197167" lon="8.35719"><ele>175.0</ele><time>2026-04-12T10:33:03.994Z</time></trkpt><trkpt lat="44.81966" lon="8.357385"><ele>175.0</ele><time>2026-04-12T10:33:04.995Z</time></trkpt><trkpt lat="44.8195917" lon="8.3575467"><ele>175.0</ele><time>2026-04-12T10:33:05.993Z</time></trkpt><trkpt lat="44.81952" lon="8.357675"><ele>175.75</ele><time>2026-04-12T10:33:06.996Z</time></trkpt><trkpt lat="44.81944" lon="8.3577967"><ele>176.5</ele><time>2026-04-12T10:33:07.994Z</time></trkpt><trkpt lat="44.8193417" lon="8.357895"><ele>177.25</ele><time>2026-04-12T10:33:08.997Z</time></trkpt><trkpt lat="44.8192133" lon="8.3579433"><ele>178.0</ele><time>2026-04-12T10:33:09.994Z</time></trkpt><trkpt lat="44.8190783" lon="8.3579917"><ele>176.33333333333334</ele><time>2026-04-12T10:33:10.993Z</time></trkpt><trkpt lat="44.81892" lon="8.35803"><ele>174.66666666666666</ele><time>2026-04-12T10:33:11.993Z</time></trkpt><trkpt lat="44.8187467" lon="8.35804"><ele>173.0</ele><time>2026-04-12T10:33:12.996Z</time></trkpt><trkpt lat="44.8185833" lon="8.3580533"><ele>172.0</ele><time>2026-04-12T10:33:13.997Z</time></trkpt><trkpt lat="44.818425" lon="8.35809"><ele>171.0</ele><time>2026-04-12T10:33:14.997Z</time></trkpt><trkpt lat="44.8182733" lon="8.3581283"><ele>170.0</ele><time>2026-04-12T10:33:15.993Z</time></trkpt><trkpt lat="44.8181333" lon="8.3581933"><ele>170.0</ele><time>2026-04-12T10:33:16.996Z</time></trkpt><trkpt lat="44.817995" lon="8.3582917"><ele>170.0</ele><time>2026-04-12T10:33:18Z</time></trkpt><trkpt lat="44.8178617" lon="8.3584217"><ele>170.0</ele><time>2026-04-12T10:33:18.999Z</time></trkpt><trkpt lat="44.817715" lon="8.358575"><ele>169.0</ele><time>2026-04-12T10:33:19.994Z</time></trkpt><trkpt lat="44.81757" lon="8.3587417"><ele>168.0</ele><time>2026-04-12T10:33:20.999Z</time></trkpt><trkpt lat="44.8174167" lon="8.3589133"><ele>167.0</ele><time>2026-04-12T10:33:21.997Z</time></trkpt><trkpt lat="44.8172617" lon="8.3590817"><ele>167.0</ele><time>2026-04-12T10:33:22.992Z</time></trkpt><trkpt lat="44.8171017" lon="8.3592517"><ele>167.0</ele><time>2026-04-12T10:33:23.995Z</time></trkpt><trkpt lat="44.8169483" lon="8.3594333"><ele>167.0</ele><time>2026-04-12T10:33:24.993Z</time></trkpt><trkpt lat="44.8167917" lon="8.35962"><ele>167.33333333333331</ele><time>2026-04-12T10:33:25.993Z</time></trkpt><trkpt lat="44.8166367" lon="8.3598033"><ele>167.66666666666666</ele><time>2026-04-12T10:33:26.996Z</time></trkpt><trkpt lat="44.816475" lon="8.3599833"><ele>168.0</ele><time>2026-04-12T10:33:27.994Z</time></trkpt><trkpt lat="44.8163183" lon="8.360165"><ele>168.0</ele><time>2026-04-12T10:33:28.997Z</time></trkpt><trkpt lat="44.81616" lon="8.3603483"><ele>168.0</ele><time>2026-04-12T10:33:29.996Z</time></trkpt><trkpt lat="44.816" lon="8.36053"><ele>168.0</ele><time>2026-04-12T10:33:30.992Z</time></trkpt><trkpt lat="44.8158433" lon="8.3607067"><ele>164.33333333333334</ele><time>2026-04-12T10:33:31.992Z</time></trkpt><trkpt lat="44.815695" lon="8.360875"><ele>160.66666666666669</ele><time>2026-04-12T10:33:32.996Z</time></trkpt><trkpt lat="44.8155517" lon="8.3610333"><ele>157.0</ele><time>2026-04-12T10:33:33.995Z</time></trkpt><trkpt lat="44.8153883" lon="8.3611833"><ele>157.0</ele><time>2026-04-12T10:33:34.995Z</time></trkpt><trkpt lat="44.815235" lon="8.3613133"><ele>157.0</ele><time>2026-04-12T10:33:35.997Z</time></trkpt><trkpt lat="44.8150767" lon="8.3614233"><ele>157.0</ele><time>2026-04-12T10:33:36.994Z</time></trkpt><trkpt lat="44.8149067" lon="8.3614833"><ele>159.0</ele><time>2026-04-12T10:33:37.995Z</time></trkpt><trkpt lat="44.8147417" lon="8.3615483"><ele>161.0</ele><time>2026-04-12T10:33:38.994Z</time></trkpt><trkpt lat="44.8145783" lon="8.3616333"><ele>163.0</ele><time>2026-04-12T10:33:39.996Z</time></trkpt><trkpt lat="44.8144233" lon="8.36176"><ele>163.66666666666669</ele><time>2026-04-12T10:33:40.996Z</time></trkpt><trkpt lat="44.8142733" lon="8.3619217"><ele>164.33333333333334</ele><time>2026-04-12T10:33:42.002Z</time></trkpt><trkpt lat="44.8141267" lon="8.3620917"><ele>165.0</ele><time>2026-04-12T10:33:42.997Z</time></trkpt><trkpt lat="44.8139917" lon="8.36229"><ele>165.0</ele><time>2026-04-12T10:33:43.997Z</time></trkpt><trkpt lat="44.8138633" lon="8.3625067"><ele>165.0</ele><time>2026-04-12T10:33:44.995Z</time></trkpt><trkpt lat="44.8137517" lon="8.3627517"><ele>165.0</ele><time>2026-04-12T10:33:45.993Z</time></trkpt><trkpt lat="44.81366" lon="8.3630133"><ele>169.33333333333334</ele><time>2026-04-12T10:33:46.997Z</time></trkpt><trkpt lat="44.8135917" lon="8.363285"><ele>173.66666666666669</ele><time>2026-04-12T10:33:47.995Z</time></trkpt><trkpt lat="44.8135483" lon="8.3635633"><ele>178.0</ele><time>2026-04-12T10:33:48.998Z</time></trkpt><trkpt lat="44.81352" lon="8.363825"><ele>173.66666666666669</ele><time>2026-04-12T10:33:49.994Z</time></trkpt><trkpt lat="44.8134933" lon="8.3640633"><ele>169.33333333333334</ele><time>2026-04-12T10:33:50.996Z</time></trkpt><trkpt lat="44.813445" lon="8.3642833"><ele>165.0</ele><time>2026-04-12T10:33:51.992Z</time></trkpt><trkpt lat="44.81337" lon="8.36446"><ele>162.0</ele><time>2026-04-12T10:33:52.994Z</time></trkpt><trkpt lat="44.8132667" lon="8.36462"><ele>159.0</ele><time>2026-04-12T10:33:53.996Z</time></trkpt><trkpt lat="44.8131383" lon="8.3647667"><ele>156.0</ele><time>2026-04-12T10:33:54.995Z</time></trkpt><trkpt lat="44.8129967" lon="8.3649033"><ele>156.0</ele><time>2026-04-12T10:33:56Z</time></trkpt><trkpt lat="44.8128517" lon="8.3650333"><ele>156.0</ele><time>2026-04-12T10:33:56.996Z</time></trkpt><trkpt lat="44.8127017" lon="8.3651717"><ele>156.0</ele><time>2026-04-12T10:33:58.002Z</time></trkpt><trkpt lat="44.8125567" lon="8.365305"><ele>154.0</ele><time>2026-04-12T10:33:58.999Z</time></trkpt><trkpt lat="44.8124183" lon="8.36544"><ele>152.0</ele><time>2026-04-12T10:33:59.996Z</time></trkpt><trkpt lat="44.812275" lon="8.365575"><ele>150.0</ele><time>2026-04-12T10:34:00.999Z</time></trkpt><trkpt lat="44.8121367" lon="8.3657117"><ele>149.33333333333334</ele><time>2026-04-12T10:34:01.996Z</time></trkpt><trkpt lat="44.8120017" lon="8.3658517"><ele>148.66666666666669</ele><time>2026-04-12T10:34:02.997Z</time></trkpt><trkpt lat="44.8118717" lon="8.3659867"><ele>148.0</ele><time>2026-04-12T10:34:04.001Z</time></trkpt><trkpt lat="44.8117417" lon="8.3661217"><ele>148.0</ele><time>2026-04-12T10:34:04.996Z</time></trkpt><trkpt lat="44.811615" lon="8.3662517"><ele>148.0</ele><time>2026-04-12T10:34:05.997Z</time></trkpt><trkpt lat="44.8114833" lon="8.36638"><ele>148.0</ele><time>2026-04-12T10:34:06.998Z</time></trkpt><trkpt lat="44.8113467" lon="8.3665067"><ele>148.0</ele><time>2026-04-12T10:34:07.994Z</time></trkpt><trkpt lat="44.8112067" lon="8.3666233"><ele>148.0</ele><time>2026-04-12T10:34:08.996Z</time></trkpt><trkpt lat="44.811065" lon="8.3667367"><ele>148.0</ele><time>2026-04-12T10:34:09.994Z</time></trkpt><trkpt lat="44.81092" lon="8.3668467"><ele>146.33333333333334</ele><time>2026-04-12T10:34:11.001Z</time></trkpt><trkpt lat="44.8107717" lon="8.3669483"><ele>144.66666666666666</ele><time>2026-04-12T10:34:12.001Z</time></trkpt><trkpt lat="44.8106233" lon="8.3670433"><ele>143.0</ele><time>2026-04-12T10:34:12.992Z</time></trkpt><trkpt lat="44.8104717" lon="8.3671417"><ele>142.33333333333331</ele><time>2026-04-12T10:34:13.997Z</time></trkpt><trkpt lat="44.810325" lon="8.3672467"><ele>141.66666666666666</ele><time>2026-04-12T10:34:14.995Z</time></trkpt><trkpt lat="44.810175" lon="8.3673483"><ele>141.0</ele><time>2026-04-12T10:34:15.995Z</time></trkpt><trkpt lat="44.8100233" lon="8.3674467"><ele>141.0</ele><time>2026-04-12T10:34:16.996Z</time></trkpt><trkpt lat="44.809875" lon="8.3675483"><ele>141.0</ele><time>2026-04-12T10:34:17.992Z</time></trkpt><trkpt lat="44.8097233" lon="8.3676467"><ele>141.0</ele><time>2026-04-12T10:34:19.001Z</time></trkpt><trkpt lat="44.809575" lon="8.3677483"><ele>141.0</ele><time>2026-04-12T10:34:19.999Z</time></trkpt><trkpt lat="44.8094283" lon="8.3678517"><ele>141.0</ele><time>2026-04-12T10:34:20.997Z</time></trkpt><trkpt lat="44.8092783" lon="8.367955"><ele>141.0</ele><time>2026-04-12T10:34:21.996Z</time></trkpt><trkpt lat="44.80913" lon="8.3680567"><ele>142.0</ele><time>2026-04-12T10:34:22.994Z</time></trkpt><trkpt lat="44.80898" lon="8.3681617"><ele>143.0</ele><time>2026-04-12T10:34:23.996Z</time></trkpt><trkpt lat="44.808835" lon="8.3682767"><ele>144.0</ele><time>2026-04-12T10:34:24.998Z</time></trkpt><trkpt lat="44.8086967" lon="8.368395"><ele>144.0</ele><time>2026-04-12T10:34:25.996Z</time></trkpt><trkpt lat="44.8085633" lon="8.3685067"><ele>144.0</ele><time>2026-04-12T10:34:26.994Z</time></trkpt><trkpt lat="44.8084383" lon="8.3686117"><ele>144.0</ele><time>2026-04-12T10:34:28Z</time></trkpt><trkpt lat="44.8083233" lon="8.36872"><ele>144.0</ele><time>2026-04-12T10:34:28.995Z</time></trkpt><trkpt lat="44.8082133" lon="8.3688183"><ele>142.75</ele><time>2026-04-12T10:34:29.992Z</time></trkpt><trkpt lat="44.8081033" lon="8.3689167"><ele>141.5</ele><time>2026-04-12T10:34:30.994Z</time></trkpt><trkpt lat="44.8079983" lon="8.3690117"><ele>140.25</ele><time>2026-04-12T10:34:31.992Z</time></trkpt><trkpt lat="44.8078983" lon="8.36911"><ele>139.0</ele><time>2026-04-12T10:34:32.998Z</time></trkpt><trkpt lat="44.8078" lon="8.369205"><ele>139.0</ele><time>2026-04-12T10:34:33.997Z</time></trkpt><trkpt lat="44.8076983" lon="8.369295"><ele>139.0</ele><time>2026-04-12T10:34:34.994Z</time></trkpt><trkpt lat="44.8076" lon="8.3693867"><ele>139.0</ele><time>2026-04-12T10:34:35.998Z</time></trkpt><trkpt lat="44.8075067" lon="8.3694733"><ele>139.0</ele><time>2026-04-12T10:34:36.994Z</time></trkpt><trkpt lat="44.807415" lon="8.3695583"><ele>138.0</ele><time>2026-04-12T10:34:37.993Z</time></trkpt><trkpt lat="44.8073283" lon="8.369645"><ele>137.0</ele><time>2026-04-12T10:34:38.999Z</time></trkpt><trkpt lat="44.807255" lon="8.3697383"><ele>136.0</ele><time>2026-04-12T10:34:39.993Z</time></trkpt><trkpt lat="44.8071933" lon="8.369835"><ele>135.0</ele><time>2026-04-12T10:34:40.995Z</time></trkpt><trkpt lat="44.8071483" lon="8.3699417"><ele>134.0</ele><time>2026-04-12T10:34:41.996Z</time></trkpt><trkpt lat="44.807115" lon="8.3700583"><ele>134.0</ele><time>2026-04-12T10:34:42.996Z</time></trkpt><trkpt lat="44.8070983" lon="8.37019"><ele>134.0</ele><time>2026-04-12T10:34:43.992Z</time></trkpt><trkpt lat="44.8070967" lon="8.3703317"><ele>134.0</ele><time>2026-04-12T10:34:44.992Z</time></trkpt><trkpt lat="44.807105" lon="8.37048"><ele>134.0</ele><time>2026-04-12T10:34:45.994Z</time></trkpt><trkpt lat="44.8071183" lon="8.3706333"><ele>134.0</ele><time>2026-04-12T10:34:46.998Z</time></trkpt><trkpt lat="44.8071333" lon="8.37079"><ele>133.5</ele><time>2026-04-12T10:34:47.996Z</time></trkpt><trkpt lat="44.8071433" lon="8.3709567"><ele>133.0</ele><time>2026-04-12T10:34:48.997Z</time></trkpt><trkpt lat="44.8071583" lon="8.3711267"><ele>132.5</ele><time>2026-04-12T10:34:49.997Z</time></trkpt><trkpt lat="44.8071733" lon="8.371295"><ele>132.0</ele><time>2026-04-12T10:34:50.992Z</time></trkpt><trkpt lat="44.8071883" lon="8.3714617"><ele>131.5</ele><time>2026-04-12T10:34:51.999Z</time></trkpt><trkpt lat="44.8071933" lon="8.37163"><ele>131.0</ele><time>2026-04-12T10:34:52.993Z</time></trkpt><trkpt lat="44.8072" lon="8.3717933"><ele>130.5</ele><time>2026-04-12T10:34:53.999Z</time></trkpt><trkpt lat="44.8072133" lon="8.37195"><ele>130.0</ele><time>2026-04-12T10:34:54.995Z</time></trkpt><trkpt lat="44.8072217" lon="8.3721083"><ele>129.8</ele><time>2026-04-12T10:34:55.994Z</time></trkpt><trkpt lat="44.80724" lon="8.3722617"><ele>129.6</ele><time>2026-04-12T10:34:56.997Z</time></trkpt><trkpt lat="44.807255" lon="8.3724117"><ele>129.4</ele><time>2026-04-12T10:34:57.994Z</time></trkpt><trkpt lat="44.8072783" lon="8.37256"><ele>129.2</ele><time>2026-04-12T10:34:58.998Z</time></trkpt><trkpt lat="44.8073017" lon="8.3727033"><ele>129.0</ele><time>2026-04-12T10:34:59.997Z</time></trkpt><trkpt lat="44.80731" lon="8.3728417"><ele>129.0</ele><time>2026-04-12T10:35:00.992Z</time></trkpt><trkpt lat="44.807325" lon="8.3729633"><ele>129.0</ele><time>2026-04-12T10:35:01.992Z</time></trkpt><trkpt lat="44.8073333" lon="8.3730733"><ele>129.0</ele><time>2026-04-12T10:35:02.996Z</time></trkpt><trkpt lat="44.8073383" lon="8.3731633"><ele>129.0</ele><time>2026-04-12T10:35:03.993Z</time></trkpt><trkpt lat="44.807315" lon="8.37329"><ele>129.0</ele><time>2026-04-12T10:35:06.001Z</time></trkpt><trkpt lat="44.80722" lon="8.3733317"><ele>129.0</ele><time>2026-04-12T10:35:07.991Z</time></trkpt><trkpt lat="44.8071167" lon="8.37329"><ele>129.4</ele><time>2026-04-12T10:35:08.997Z</time></trkpt><trkpt lat="44.8070317" lon="8.3732567"><ele>129.8</ele><time>2026-04-12T10:35:09.999Z</time></trkpt><trkpt lat="44.8069433" lon="8.3732483"><ele>130.2</ele><time>2026-04-12T10:35:10.996Z</time></trkpt><trkpt lat="44.8068217" lon="8.3732417"><ele>130.6</ele><time>2026-04-12T10:35:11.995Z</time></trkpt><trkpt lat="44.8067167" lon="8.37324"><ele>131.0</ele><time>2026-04-12T10:35:12.991Z</time></trkpt><trkpt lat="44.8066117" lon="8.3732467"><ele>131.4</ele><time>2026-04-12T10:35:13.995Z</time></trkpt><trkpt lat="44.8065133" lon="8.37326"><ele>131.8</ele><time>2026-04-12T10:35:14.997Z</time></trkpt><trkpt lat="44.806405" lon="8.3732767"><ele>132.20000000000002</ele><time>2026-04-12T10:35:15.998Z</time></trkpt><trkpt lat="44.806305" lon="8.373305"><ele>132.6</ele><time>2026-04-12T10:35:16.997Z</time></trkpt><trkpt lat="44.8062033" lon="8.3733333"><ele>133.0</ele><time>2026-04-12T10:35:17.998Z</time></trkpt><trkpt lat="44.8061133" lon="8.3733683"><ele>133.0</ele><time>2026-04-12T10:35:18.998Z</time></trkpt><trkpt lat="44.8060367" lon="8.3734033"><ele>133.0</ele><time>2026-04-12T10:35:19.995Z</time></trkpt><trkpt lat="44.8059767" lon="8.3734433"><ele>133.0</ele><time>2026-04-12T10:35:20.995Z</time></trkpt><trkpt lat="44.8058967" lon="8.37355"><ele>133.0</ele><time>2026-04-12T10:35:22.995Z</time></trkpt><trkpt lat="44.8058933" lon="8.373655"><ele>133.0</ele><time>2026-04-12T10:35:23.995Z</time></trkpt><trkpt lat="44.805895" lon="8.3737567"><ele>133.0</ele><time>2026-04-12T10:35:24.997Z</time></trkpt><trkpt lat="44.8059183" lon="8.3738767"><ele>132.6</ele><time>2026-04-12T10:35:25.995Z</time></trkpt><trkpt lat="44.8059417" lon="8.37401"><ele>132.20000000000002</ele><time>2026-04-12T10:35:26.996Z</time></trkpt><trkpt lat="44.8059767" lon="8.3741533"><ele>131.8</ele><time>2026-04-12T10:35:27.996Z</time></trkpt><trkpt lat="44.8060083" lon="8.3743033"><ele>131.4</ele><time>2026-04-12T10:35:28.994Z</time></trkpt><trkpt lat="44.80604" lon="8.3744567"><ele>131.0</ele><time>2026-04-12T10:35:29.995Z</time></trkpt><trkpt lat="44.80607" lon="8.3746133"><ele>130.25</ele><time>2026-04-12T10:35:30.997Z</time></trkpt><trkpt lat="44.8060933" lon="8.3747783"><ele>129.5</ele><time>2026-04-12T10:35:31.997Z</time></trkpt><trkpt lat="44.80612" lon="8.37495"><ele>128.75</ele><time>2026-04-12T10:35:32.998Z</time></trkpt><trkpt lat="44.8061467" lon="8.3751217"><ele>128.0</ele><time>2026-04-12T10:35:33.997Z</time></trkpt><trkpt lat="44.8061733" lon="8.3752967"><ele>128.0</ele><time>2026-04-12T10:35:34.995Z</time></trkpt><trkpt lat="44.806205" lon="8.3754733"><ele>128.0</ele><time>2026-04-12T10:35:35.997Z</time></trkpt><trkpt lat="44.8062333" lon="8.3756533"><ele>128.0</ele><time>2026-04-12T10:35:37.001Z</time></trkpt><trkpt lat="44.806265" lon="8.37583"><ele>128.0</ele><time>2026-04-12T10:35:37.994Z</time></trkpt><trkpt lat="44.8062983" lon="8.3760117"><ele>128.0</ele><time>2026-04-12T10:35:38.999Z</time></trkpt><trkpt lat="44.8063267" lon="8.3761967"><ele>128.0</ele><time>2026-04-12T10:35:39.996Z</time></trkpt><trkpt lat="44.8063583" lon="8.3763817"><ele>128.0</ele><time>2026-04-12T10:35:40.995Z</time></trkpt><trkpt lat="44.8063917" lon="8.37657"><ele>128.0</ele><time>2026-04-12T10:35:41.996Z</time></trkpt><trkpt lat="44.8064267" lon="8.3767617"><ele>127.5</ele><time>2026-04-12T10:35:42.997Z</time></trkpt><trkpt lat="44.8064583" lon="8.37695"><ele>127.0</ele><time>2026-04-12T10:35:44Z</time></trkpt><trkpt lat="44.80649" lon="8.3771367"><ele>126.5</ele><time>2026-04-12T10:35:44.995Z</time></trkpt><trkpt lat="44.8065217" lon="8.3773233"><ele>126.0</ele><time>2026-04-12T10:35:45.996Z</time></trkpt><trkpt lat="44.8065583" lon="8.377515"><ele>126.0</ele><time>2026-04-12T10:35:47.002Z</time></trkpt><trkpt lat="44.8065917" lon="8.3777067"><ele>126.0</ele><time>2026-04-12T10:35:47.995Z</time></trkpt><trkpt lat="44.806625" lon="8.3778983"><ele>126.0</ele><time>2026-04-12T10:35:48.995Z</time></trkpt><trkpt lat="44.8066633" lon="8.3780833"><ele>126.0</ele><time>2026-04-12T10:35:50.001Z</time></trkpt><trkpt lat="44.8067117" lon="8.3782617"><ele>126.0</ele><time>2026-04-12T10:35:51Z</time></trkpt><trkpt lat="44.80677" lon="8.3784367"><ele>126.0</ele><time>2026-04-12T10:35:51.997Z</time></trkpt><trkpt lat="44.8068383" lon="8.3786067"><ele>126.0</ele><time>2026-04-12T10:35:52.995Z</time></trkpt><trkpt lat="44.8069117" lon="8.3787683"><ele>126.0</ele><time>2026-04-12T10:35:53.995Z</time></trkpt><trkpt lat="44.8069867" lon="8.3789183"><ele>126.25</ele><time>2026-04-12T10:35:54.997Z</time></trkpt><trkpt lat="44.807075" lon="8.379055"><ele>126.5</ele><time>2026-04-12T10:35:55.994Z</time></trkpt><trkpt lat="44.807155" lon="8.379195"><ele>126.75</ele><time>2026-04-12T10:35:56.996Z</time></trkpt><trkpt lat="44.807235" lon="8.3793367"><ele>127.0</ele><time>2026-04-12T10:35:58.003Z</time></trkpt><trkpt lat="44.8073133" lon="8.3794683"><ele>127.0</ele><time>2026-04-12T10:35:58.994Z</time></trkpt><trkpt lat="44.8073967" lon="8.3795917"><ele>127.0</ele><time>2026-04-12T10:35:59.998Z</time></trkpt><trkpt lat="44.80748" lon="8.3797117"><ele>127.0</ele><time>2026-04-12T10:36:00.998Z</time></trkpt><trkpt lat="44.807565" lon="8.3798233"><ele>127.0</ele><time>2026-04-12T10:36:02Z</time></trkpt><trkpt lat="44.8076633" lon="8.379925"><ele>127.0</ele><time>2026-04-12T10:36:02.998Z</time></trkpt><trkpt lat="44.807755" lon="8.3800167"><ele>126.99999999999999</ele><time>2026-04-12T10:36:03.999Z</time></trkpt><trkpt lat="44.8078367" lon="8.380105"><ele>126.99999999999999</ele><time>2026-04-12T10:36:04.997Z</time></trkpt><trkpt lat="44.80791" lon="8.3801867"><ele>127.0</ele><time>2026-04-12T10:36:05.996Z</time></trkpt><trkpt lat="44.8079767" lon="8.3802667"><ele>127.0</ele><time>2026-04-12T10:36:06.997Z</time></trkpt><trkpt lat="44.8080433" lon="8.380345"><ele>127.00000000000001</ele><time>2026-04-12T10:36:07.995Z</time></trkpt><trkpt lat="44.8081067" lon="8.380425"><ele>127.0</ele><time>2026-04-12T10:36:08.997Z</time></trkpt><trkpt lat="44.80817" lon="8.3804967"><ele>127.0</ele><time>2026-04-12T10:36:09.999Z</time></trkpt><trkpt lat="44.80823" lon="8.3805567"><ele>127.0</ele><time>2026-04-12T10:36:11.002Z</time></trkpt><trkpt lat="44.8083167" lon="8.38065"><ele>127.00000000000001</ele><time>2026-04-12T10:36:12.997Z</time></trkpt><trkpt lat="44.8083517" lon="8.380745"><ele>127.0</ele><time>2026-04-12T10:36:14.993Z</time></trkpt><trkpt lat="44.8083583" lon="8.380835"><ele>127.0</ele><time>2026-04-12T10:36:17Z</time></trkpt><trkpt lat="44.8083517" lon="8.3809367"><ele>126.99999999999999</ele><time>2026-04-12T10:36:17.994Z</time></trkpt><trkpt lat="44.8083067" lon="8.381085"><ele>126.99999999999999</ele><time>2026-04-12T10:36:19.001Z</time></trkpt><trkpt lat="44.80824" lon="8.38127"><ele>127.0</ele><time>2026-04-12T10:36:19.997Z</time></trkpt><trkpt lat="44.80819" lon="8.3814133"><ele>127.0</ele><time>2026-04-12T10:36:20.995Z</time></trkpt><trkpt lat="44.808145" lon="8.3815683"><ele>127.33333333333334</ele><time>2026-04-12T10:36:21.997Z</time></trkpt><trkpt lat="44.8080717" lon="8.38175"><ele>127.66666666666666</ele><time>2026-04-12T10:36:22.998Z</time></trkpt><trkpt lat="44.8079383" lon="8.382005"><ele>128.0</ele><time>2026-04-12T10:36:23.998Z</time></trkpt><trkpt lat="44.8078817" lon="8.3822017"><ele>128.25</ele><time>2026-04-12T10:36:25.002Z</time></trkpt><trkpt lat="44.8078233" lon="8.38237"><ele>128.5</ele><time>2026-04-12T10:36:26.002Z</time></trkpt><trkpt lat="44.8077633" lon="8.3825517"><ele>128.75</ele><time>2026-04-12T10:36:27Z</time></trkpt><trkpt lat="44.8076917" lon="8.38275"><ele>129.0</ele><time>2026-04-12T10:36:28.001Z</time></trkpt><trkpt lat="44.8076217" lon="8.3829383"><ele>129.25</ele><time>2026-04-12T10:36:29.007Z</time></trkpt><trkpt lat="44.8075467" lon="8.3831133"><ele>129.5</ele><time>2026-04-12T10:36:29.997Z</time></trkpt><trkpt lat="44.8074667" lon="8.383275"><ele>129.75</ele><time>2026-04-12T10:36:31.002Z</time></trkpt><trkpt lat="44.8073817" lon="8.3834317"><ele>130.0</ele><time>2026-04-12T10:36:32.003Z</time></trkpt><trkpt lat="44.8072933" lon="8.3835867"><ele>130.0</ele><time>2026-04-12T10:36:33Z</time></trkpt><trkpt lat="44.8072067" lon="8.3837367"><ele>130.0</ele><time>2026-04-12T10:36:33.996Z</time></trkpt><trkpt lat="44.8071167" lon="8.3838783"><ele>130.0</ele><time>2026-04-12T10:36:34.995Z</time></trkpt><trkpt lat="44.807025" lon="8.3840183"><ele>130.0</ele><time>2026-04-12T10:36:35.996Z</time></trkpt><trkpt lat="44.8069367" lon="8.3841567"><ele>129.25</ele><time>2026-04-12T10:36:37Z</time></trkpt><trkpt lat="44.8068483" lon="8.38429"><ele>128.5</ele><time>2026-04-12T10:36:37.994Z</time></trkpt><trkpt lat="44.80676" lon="8.384425"><ele>127.75</ele><time>2026-04-12T10:36:38.996Z</time></trkpt><trkpt lat="44.806665" lon="8.384565"><ele>127.0</ele><time>2026-04-12T10:36:40.002Z</time></trkpt><trkpt lat="44.8065667" lon="8.3846933"><ele>130.25</ele><time>2026-04-12T10:36:41Z</time></trkpt><trkpt lat="44.8064733" lon="8.3848333"><ele>133.5</ele><time>2026-04-12T10:36:41.995Z</time></trkpt><trkpt lat="44.806375" lon="8.3849783"><ele>136.75</ele><time>2026-04-12T10:36:42.999Z</time></trkpt><trkpt lat="44.8062717" lon="8.3851283"><ele>140.0</ele><time>2026-04-12T10:36:43.996Z</time></trkpt><trkpt lat="44.8061667" lon="8.3852833"><ele>140.0</ele><time>2026-04-12T10:36:45.001Z</time></trkpt><trkpt lat="44.80606" lon="8.3854433"><ele>140.0</ele><time>2026-04-12T10:36:45.995Z</time></trkpt><trkpt lat="44.8059467" lon="8.38559"><ele>140.0</ele><time>2026-04-12T10:36:46.992Z</time></trkpt><trkpt lat="44.8058417" lon="8.3857483"><ele>138.5</ele><time>2026-04-12T10:36:47.994Z</time></trkpt><trkpt lat="44.8057333" lon="8.3858933"><ele>137.0</ele><time>2026-04-12T10:36:48.998Z</time></trkpt><trkpt lat="44.8056217" lon="8.3860317"><ele>135.5</ele><time>2026-04-12T10:36:49.995Z</time></trkpt><trkpt lat="44.8055067" lon="8.3861667"><ele>134.0</ele><time>2026-04-12T10:36:50.994Z</time></trkpt><trkpt lat="44.805375" lon="8.3862767"><ele>136.33333333333331</ele><time>2026-04-12T10:36:51.996Z</time></trkpt><trkpt lat="44.80523" lon="8.3863667"><ele>138.66666666666666</ele><time>2026-04-12T10:36:52.994Z</time></trkpt><trkpt lat="44.80508" lon="8.3864383"><ele>141.0</ele><time>2026-04-12T10:36:53.994Z</time></trkpt><trkpt lat="44.8049267" lon="8.3865083"><ele>141.0</ele><time>2026-04-12T10:36:54.995Z</time></trkpt><trkpt lat="44.804765" lon="8.3865633"><ele>141.0</ele><time>2026-04-12T10:36:56.001Z</time></trkpt><trkpt lat="44.8046067" lon="8.38662"><ele>141.0</ele><time>2026-04-12T10:36:56.997Z</time></trkpt><trkpt lat="44.8044367" lon="8.3866683"><ele>139.66666666666666</ele><time>2026-04-12T10:36:58.002Z</time></trkpt><trkpt lat="44.8042683" lon="8.3867167"><ele>138.33333333333331</ele><time>2026-04-12T10:36:58.998Z</time></trkpt><trkpt lat="44.8040983" lon="8.38676"><ele>137.0</ele><time>2026-04-12T10:36:59.995Z</time></trkpt><trkpt lat="44.8039217" lon="8.386785"><ele>137.0</ele><time>2026-04-12T10:37:01.001Z</time></trkpt><trkpt lat="44.80374" lon="8.3867833"><ele>137.0</ele><time>2026-04-12T10:37:02.006Z</time></trkpt><trkpt lat="44.803565" lon="8.38676"><ele>137.0</ele><time>2026-04-12T10:37:02.998Z</time></trkpt><trkpt lat="44.803395" lon="8.3867133"><ele>137.33333333333331</ele><time>2026-04-12T10:37:03.997Z</time></trkpt><trkpt lat="44.8032283" lon="8.3866433"><ele>137.66666666666666</ele><time>2026-04-12T10:37:04.996Z</time></trkpt><trkpt lat="44.8030767" lon="8.3865717"><ele>138.0</ele><time>2026-04-12T10:37:05.997Z</time></trkpt><trkpt lat="44.802925" lon="8.3865083"><ele>138.0</ele><time>2026-04-12T10:37:06.996Z</time></trkpt><trkpt lat="44.8027683" lon="8.386435"><ele>138.0</ele><time>2026-04-12T10:37:07.994Z</time></trkpt><trkpt lat="44.8026133" lon="8.3863467"><ele>138.0</ele><time>2026-04-12T10:37:08.998Z</time></trkpt><trkpt lat="44.802465" lon="8.386255"><ele>135.66666666666666</ele><time>2026-04-12T10:37:09.996Z</time></trkpt><trkpt lat="44.8023217" lon="8.3861583"><ele>133.33333333333331</ele><time>2026-04-12T10:37:10.993Z</time></trkpt><trkpt lat="44.802175" lon="8.3860733"><ele>131.0</ele><time>2026-04-12T10:37:11.996Z</time></trkpt><trkpt lat="44.8020333" lon="8.3859967"><ele>131.0</ele><time>2026-04-12T10:37:12.995Z</time></trkpt><trkpt lat="44.8018917" lon="8.38592"><ele>131.0</ele><time>2026-04-12T10:37:13.994Z</time></trkpt><trkpt lat="44.8017483" lon="8.3858583"><ele>131.0</ele><time>2026-04-12T10:37:14.997Z</time></trkpt><trkpt lat="44.8016033" lon="8.3858067"><ele>131.75</ele><time>2026-04-12T10:37:15.994Z</time></trkpt><trkpt lat="44.8014633" lon="8.3857667"><ele>132.5</ele><time>2026-04-12T10:37:16.995Z</time></trkpt><trkpt lat="44.8013183" lon="8.3857633"><ele>133.25</ele><time>2026-04-12T10:37:17.994Z</time></trkpt><trkpt lat="44.8011867" lon="8.3857933"><ele>134.0</ele><time>2026-04-12T10:37:18.995Z</time></trkpt><trkpt lat="44.8010717" lon="8.3858717"><ele>133.5</ele><time>2026-04-12T10:37:19.996Z</time></trkpt><trkpt lat="44.800965" lon="8.3859867"><ele>133.0</ele><time>2026-04-12T10:37:20.998Z</time></trkpt><trkpt lat="44.8008667" lon="8.3861333"><ele>132.5</ele><time>2026-04-12T10:37:21.996Z</time></trkpt><trkpt lat="44.800795" lon="8.3863"><ele>132.0</ele><time>2026-04-12T10:37:22.997Z</time></trkpt><trkpt lat="44.80077" lon="8.386485"><ele>134.33333333333334</ele><time>2026-04-12T10:37:23.997Z</time></trkpt><trkpt lat="44.8007733" lon="8.3866883"><ele>136.66666666666669</ele><time>2026-04-12T10:37:25.001Z</time></trkpt><trkpt lat="44.8007933" lon="8.38691"><ele>139.0</ele><time>2026-04-12T10:37:25.997Z</time></trkpt><trkpt lat="44.8008317" lon="8.3871567"><ele>138.66666666666669</ele><time>2026-04-12T10:37:27Z</time></trkpt><trkpt lat="44.8008733" lon="8.3874217"><ele>138.33333333333334</ele><time>2026-04-12T10:37:27.998Z</time></trkpt><trkpt lat="44.80091" lon="8.3876933"><ele>138.0</ele><time>2026-04-12T10:37:28.995Z</time></trkpt><trkpt lat="44.8009367" lon="8.3879733"><ele>139.33333333333334</ele><time>2026-04-12T10:37:29.998Z</time></trkpt><trkpt lat="44.80093" lon="8.3882617"><ele>140.66666666666669</ele><time>2026-04-12T10:37:30.994Z</time></trkpt><trkpt lat="44.8008967" lon="8.3885383"><ele>142.0</ele><time>2026-04-12T10:37:31.996Z</time></trkpt><trkpt lat="44.8008383" lon="8.3888083"><ele>144.0</ele><time>2026-04-12T10:37:32.996Z</time></trkpt><trkpt lat="44.8007633" lon="8.389075"><ele>146.0</ele><time>2026-04-12T10:37:33.999Z</time></trkpt><trkpt lat="44.800675" lon="8.3893383"><ele>148.0</ele><time>2026-04-12T10:37:34.996Z</time></trkpt><trkpt lat="44.800585" lon="8.3896067"><ele>149.33333333333334</ele><time>2026-04-12T10:37:35.995Z</time></trkpt><trkpt lat="44.8004983" lon="8.3898717"><ele>150.66666666666666</ele><time>2026-04-12T10:37:37.002Z</time></trkpt><trkpt lat="44.8004117" lon="8.39013"><ele>152.0</ele><time>2026-04-12T10:37:37.994Z</time></trkpt><trkpt lat="44.8003317" lon="8.3903867"><ele>150.66666666666666</ele><time>2026-04-12T10:37:38.995Z</time></trkpt><trkpt lat="44.80026" lon="8.390645"><ele>149.33333333333334</ele><time>2026-04-12T10:37:39.994Z</time></trkpt><trkpt lat="44.8001983" lon="8.3909133"><ele>148.0</ele><time>2026-04-12T10:37:40.996Z</time></trkpt><trkpt lat="44.8001517" lon="8.3911933"><ele>144.66666666666669</ele><time>2026-04-12T10:37:41.999Z</time></trkpt><trkpt lat="44.800115" lon="8.3914817"><ele>141.33333333333334</ele><time>2026-04-12T10:37:42.998Z</time></trkpt><trkpt lat="44.80009" lon="8.3917717"><ele>138.0</ele><time>2026-04-12T10:37:43.998Z</time></trkpt><trkpt lat="44.80007" lon="8.3920683"><ele>136.66666666666666</ele><time>2026-04-12T10:37:44.997Z</time></trkpt><trkpt lat="44.8000583" lon="8.39236"><ele>135.33333333333331</ele><time>2026-04-12T10:37:46.003Z</time></trkpt><trkpt lat="44.800055" lon="8.3926633"><ele>134.0</ele><time>2026-04-12T10:37:46.992Z</time></trkpt><trkpt lat="44.8000517" lon="8.3929683"><ele>132.66666666666666</ele><time>2026-04-12T10:37:48Z</time></trkpt><trkpt lat="44.80006" lon="8.3932767"><ele>131.33333333333334</ele><time>2026-04-12T10:37:48.994Z</time></trkpt><trkpt lat="44.80008" lon="8.3935833"><ele>130.0</ele><time>2026-04-12T10:37:49.998Z</time></trkpt><trkpt lat="44.8000983" lon="8.3938867"><ele>130.0</ele><time>2026-04-12T10:37:51.001Z</time></trkpt><trkpt lat="44.8001133" lon="8.3941867"><ele>130.0</ele><time>2026-04-12T10:37:51.993Z</time></trkpt><trkpt lat="44.8001217" lon="8.3944883"><ele>130.0</ele><time>2026-04-12T10:37:52.998Z</time></trkpt><trkpt lat="44.8001217" lon="8.3947833"><ele>130.33333333333334</ele><time>2026-04-12T10:37:53.996Z</time></trkpt><trkpt lat="44.80012" lon="8.3950733"><ele>130.66666666666666</ele><time>2026-04-12T10:37:54.998Z</time></trkpt><trkpt lat="44.80011" lon="8.39536"><ele>131.0</ele><time>2026-04-12T10:37:55.994Z</time></trkpt><trkpt lat="44.800095" lon="8.3956367"><ele>131.0</ele><time>2026-04-12T10:37:56.998Z</time></trkpt><trkpt lat="44.8000717" lon="8.39591"><ele>131.0</ele><time>2026-04-12T10:37:57.993Z</time></trkpt><trkpt lat="44.800045" lon="8.396175"><ele>131.0</ele><time>2026-04-12T10:37:58.999Z</time></trkpt><trkpt lat="44.800005" lon="8.3964383"><ele>131.33333333333331</ele><time>2026-04-12T10:37:59.996Z</time></trkpt><trkpt lat="44.7999683" lon="8.3966867"><ele>131.66666666666666</ele><time>2026-04-12T10:38:00.999Z</time></trkpt><trkpt lat="44.7999467" lon="8.3969167"><ele>132.0</ele><time>2026-04-12T10:38:01.994Z</time></trkpt><trkpt lat="44.7999467" lon="8.3971417"><ele>133.0</ele><time>2026-04-12T10:38:02.996Z</time></trkpt><trkpt lat="44.7999733" lon="8.3973533"><ele>134.0</ele><time>2026-04-12T10:38:03.997Z</time></trkpt><trkpt lat="44.8000333" lon="8.3975483"><ele>135.0</ele><time>2026-04-12T10:38:04.993Z</time></trkpt><trkpt lat="44.8001233" lon="8.3977317"><ele>134.33333333333334</ele><time>2026-04-12T10:38:06.001Z</time></trkpt><trkpt lat="44.8002317" lon="8.3979017"><ele>133.66666666666669</ele><time>2026-04-12T10:38:06.994Z</time></trkpt><trkpt lat="44.8003517" lon="8.39806"><ele>133.0</ele><time>2026-04-12T10:38:07.995Z</time></trkpt><trkpt lat="44.8004867" lon="8.3982067"><ele>133.0</ele><time>2026-04-12T10:38:08.992Z</time></trkpt><trkpt lat="44.8006117" lon="8.3983533"><ele>133.0</ele><time>2026-04-12T10:38:09.994Z</time></trkpt><trkpt lat="44.80074" lon="8.39849"><ele>133.0</ele><time>2026-04-12T10:38:11Z</time></trkpt><trkpt lat="44.800865" lon="8.3986217"><ele>133.0</ele><time>2026-04-12T10:38:11.992Z</time></trkpt><trkpt lat="44.800985" lon="8.3987517"><ele>133.0</ele><time>2026-04-12T10:38:12.997Z</time></trkpt><trkpt lat="44.80109" lon="8.398895"><ele>133.0</ele><time>2026-04-12T10:38:13.995Z</time></trkpt><trkpt lat="44.80118" lon="8.3990533"><ele>133.0</ele><time>2026-04-12T10:38:15.001Z</time></trkpt><trkpt lat="44.8012383" lon="8.399235"><ele>133.25</ele><time>2026-04-12T10:38:15.993Z</time></trkpt><trkpt lat="44.8012833" lon="8.399425"><ele>133.5</ele><time>2026-04-12T10:38:16.997Z</time></trkpt><trkpt lat="44.8013117" lon="8.3996167"><ele>133.75</ele><time>2026-04-12T10:38:17.994Z</time></trkpt><trkpt lat="44.8013383" lon="8.39981"><ele>134.0</ele><time>2026-04-12T10:38:18.995Z</time></trkpt><trkpt lat="44.8013717" lon="8.3999917"><ele>134.0</ele><time>2026-04-12T10:38:19.997Z</time></trkpt><trkpt lat="44.8014117" lon="8.400165"><ele>134.0</ele><time>2026-04-12T10:38:20.999Z</time></trkpt><trkpt lat="44.8014667" lon="8.40033"><ele>134.0</ele><time>2026-04-12T10:38:21.998Z</time></trkpt><trkpt lat="44.801535" lon="8.4004817"><ele>134.0</ele><time>2026-04-12T10:38:22.997Z</time></trkpt><trkpt lat="44.80162" lon="8.4006033"><ele>133.0</ele><time>2026-04-12T10:38:23.995Z</time></trkpt><trkpt lat="44.8017217" lon="8.4006983"><ele>132.0</ele><time>2026-04-12T10:38:24.995Z</time></trkpt><trkpt lat="44.8018267" lon="8.4007833"><ele>131.0</ele><time>2026-04-12T10:38:25.994Z</time></trkpt><trkpt lat="44.8019333" lon="8.4008667"><ele>130.0</ele><time>2026-04-12T10:38:26.997Z</time></trkpt><trkpt lat="44.8020433" lon="8.40096"><ele>130.0</ele><time>2026-04-12T10:38:27.998Z</time></trkpt><trkpt lat="44.8021417" lon="8.4010817"><ele>130.0</ele><time>2026-04-12T10:38:29.004Z</time></trkpt><trkpt lat="44.8022333" lon="8.401225"><ele>130.0</ele><time>2026-04-12T10:38:29.997Z</time></trkpt><trkpt lat="44.802315" lon="8.40138"><ele>130.0</ele><time>2026-04-12T10:38:30.999Z</time></trkpt><trkpt lat="44.8023867" lon="8.401535"><ele>130.0</ele><time>2026-04-12T10:38:32Z</time></trkpt><trkpt lat="44.8024583" lon="8.4016917"><ele>130.0</ele><time>2026-04-12T10:38:32.995Z</time></trkpt><trkpt lat="44.8025167" lon="8.4018517"><ele>130.0</ele><time>2026-04-12T10:38:33.999Z</time></trkpt><trkpt lat="44.8025683" lon="8.402015"><ele>130.0</ele><time>2026-04-12T10:38:34.996Z</time></trkpt><trkpt lat="44.8026" lon="8.4021817"><ele>130.0</ele><time>2026-04-12T10:38:35.997Z</time></trkpt><trkpt lat="44.8026" lon="8.4023617"><ele>130.0</ele><time>2026-04-12T10:38:36.997Z</time></trkpt><trkpt lat="44.8025817" lon="8.4025333"><ele>130.0</ele><time>2026-04-12T10:38:37.995Z</time></trkpt><trkpt lat="44.8025583" lon="8.4027083"><ele>130.0</ele><time>2026-04-12T10:38:38.998Z</time></trkpt><trkpt lat="44.80254" lon="8.40288"><ele>129.5</ele><time>2026-04-12T10:38:39.995Z</time></trkpt><trkpt lat="44.8025233" lon="8.4030517"><ele>129.0</ele><time>2026-04-12T10:38:40.994Z</time></trkpt><trkpt lat="44.8025117" lon="8.4032233"><ele>128.5</ele><time>2026-04-12T10:38:41.992Z</time></trkpt><trkpt lat="44.8025033" lon="8.4033983"><ele>128.0</ele><time>2026-04-12T10:38:42.996Z</time></trkpt><trkpt lat="44.8025" lon="8.4035717"><ele>128.0</ele><time>2026-04-12T10:38:43.996Z</time></trkpt><trkpt lat="44.8025017" lon="8.4037467"><ele>128.0</ele><time>2026-04-12T10:38:44.994Z</time></trkpt><trkpt lat="44.8025083" lon="8.4039233"><ele>128.0</ele><time>2026-04-12T10:38:45.998Z</time></trkpt><trkpt lat="44.8025183" lon="8.4040983"><ele>128.0</ele><time>2026-04-12T10:38:46.995Z</time></trkpt><trkpt lat="44.802545" lon="8.4042733"><ele>127.75</ele><time>2026-04-12T10:38:47.996Z</time></trkpt><trkpt lat="44.8025717" lon="8.4044333"><ele>127.5</ele><time>2026-04-12T10:38:48.995Z</time></trkpt><trkpt lat="44.8026117" lon="8.40458"><ele>127.25</ele><time>2026-04-12T10:38:49.996Z</time></trkpt><trkpt lat="44.8026633" lon="8.40472"><ele>127.0</ele><time>2026-04-12T10:38:50.998Z</time></trkpt><trkpt lat="44.8027083" lon="8.4048617"><ele>126.8</ele><time>2026-04-12T10:38:51.997Z</time></trkpt><trkpt lat="44.80274" lon="8.4050067"><ele>126.6</ele><time>2026-04-12T10:38:52.997Z</time></trkpt><trkpt lat="44.802755" lon="8.40516"><ele>126.39999999999999</ele><time>2026-04-12T10:38:53.995Z</time></trkpt><trkpt lat="44.8027633" lon="8.4053067"><ele>126.19999999999999</ele><time>2026-04-12T10:38:55.003Z</time></trkpt><trkpt lat="44.80276" lon="8.4054483"><ele>126.0</ele><time>2026-04-12T10:38:56.001Z</time></trkpt><trkpt lat="44.8027483" lon="8.4055733"><ele>126.0</ele><time>2026-04-12T10:38:56.994Z</time></trkpt><trkpt lat="44.8027333" lon="8.4056733"><ele>126.0</ele><time>2026-04-12T10:38:57.996Z</time></trkpt><trkpt lat="44.8027067" lon="8.40583"><ele>126.0</ele><time>2026-04-12T10:39:00.005Z</time></trkpt><trkpt lat="44.80269" lon="8.405985"><ele>126.0</ele><time>2026-04-12T10:39:01.998Z</time></trkpt><trkpt lat="44.8026767" lon="8.4061733"><ele>126.0</ele><time>2026-04-12T10:39:03.998Z</time></trkpt><trkpt lat="44.8026683" lon="8.4062817"><ele>125.8</ele><time>2026-04-12T10:39:04.997Z</time></trkpt><trkpt lat="44.802655" lon="8.406395"><ele>125.6</ele><time>2026-04-12T10:39:05.998Z</time></trkpt><trkpt lat="44.802645" lon="8.4065183"><ele>125.4</ele><time>2026-04-12T10:39:07.004Z</time></trkpt><trkpt lat="44.8026267" lon="8.4066533"><ele>125.2</ele><time>2026-04-12T10:39:07.999Z</time></trkpt><trkpt lat="44.80261" lon="8.4067933"><ele>125.0</ele><time>2026-04-12T10:39:08.996Z</time></trkpt><trkpt lat="44.802595" lon="8.4069317"><ele>125.0</ele><time>2026-04-12T10:39:09.993Z</time></trkpt><trkpt lat="44.802565" lon="8.4070667"><ele>125.0</ele><time>2026-04-12T10:39:10.993Z</time></trkpt><trkpt lat="44.802555" lon="8.4072033"><ele>125.0</ele><time>2026-04-12T10:39:11.997Z</time></trkpt><trkpt lat="44.8025417" lon="8.4073433"><ele>125.0</ele><time>2026-04-12T10:39:12.998Z</time></trkpt><trkpt lat="44.8025317" lon="8.40749"><ele>125.0</ele><time>2026-04-12T10:39:14.002Z</time></trkpt><trkpt lat="44.8025183" lon="8.407645"><ele>124.75</ele><time>2026-04-12T10:39:14.997Z</time></trkpt><trkpt lat="44.8025067" lon="8.4078017"><ele>124.5</ele><time>2026-04-12T10:39:15.995Z</time></trkpt><trkpt lat="44.8024883" lon="8.4079617"><ele>124.25</ele><time>2026-04-12T10:39:16.995Z</time></trkpt><trkpt lat="44.8024633" lon="8.4081167"><ele>124.0</ele><time>2026-04-12T10:39:17.994Z</time></trkpt><trkpt lat="44.8024317" lon="8.4082717"><ele>123.5</ele><time>2026-04-12T10:39:19Z</time></trkpt><trkpt lat="44.802395" lon="8.40842"><ele>123.0</ele><time>2026-04-12T10:39:19.994Z</time></trkpt><trkpt lat="44.8023467" lon="8.4085617"><ele>122.5</ele><time>2026-04-12T10:39:20.995Z</time></trkpt><trkpt lat="44.8022867" lon="8.4087"><ele>122.0</ele><time>2026-04-12T10:39:21.997Z</time></trkpt><trkpt lat="44.8022233" lon="8.4088317"><ele>121.83333333333333</ele><time>2026-04-12T10:39:22.996Z</time></trkpt><trkpt lat="44.8021717" lon="8.40895"><ele>121.66666666666666</ele><time>2026-04-12T10:39:23.995Z</time></trkpt><trkpt lat="44.802125" lon="8.40906"><ele>121.5</ele><time>2026-04-12T10:39:24.995Z</time></trkpt><trkpt lat="44.8020833" lon="8.4091583"><ele>121.33333333333334</ele><time>2026-04-12T10:39:25.996Z</time></trkpt><trkpt lat="44.8020483" lon="8.409235"><ele>121.16666666666667</ele><time>2026-04-12T10:39:26.995Z</time></trkpt><trkpt lat="44.8019867" lon="8.4093617"><ele>121.0</ele><time>2026-04-12T10:39:28.994Z</time></trkpt><trkpt lat="44.8019467" lon="8.4094417"><ele>121.0</ele><time>2026-04-12T10:39:29.993Z</time></trkpt><trkpt lat="44.801895" lon="8.4095383"><ele>121.0</ele><time>2026-04-12T10:39:30.994Z</time></trkpt><trkpt lat="44.8018367" lon="8.4096583"><ele>121.0</ele><time>2026-04-12T10:39:31.998Z</time></trkpt><trkpt lat="44.8017783" lon="8.4097817"><ele>121.0</ele><time>2026-04-12T10:39:32.995Z</time></trkpt><trkpt lat="44.8017183" lon="8.409895"><ele>121.0</ele><time>2026-04-12T10:39:33.995Z</time></trkpt><trkpt lat="44.8016567" lon="8.410015"><ele>120.8</ele><time>2026-04-12T10:39:34.993Z</time></trkpt><trkpt lat="44.8016017" lon="8.410135"><ele>120.6</ele><time>2026-04-12T10:39:35.995Z</time></trkpt><trkpt lat="44.8015567" lon="8.41025"><ele>120.4</ele><time>2026-04-12T10:39:36.997Z</time></trkpt><trkpt lat="44.8015233" lon="8.41037"><ele>120.2</ele><time>2026-04-12T10:39:37.995Z</time></trkpt><trkpt lat="44.8014967" lon="8.4104933"><ele>120.0</ele><time>2026-04-12T10:39:39Z</time></trkpt><trkpt lat="44.80147" lon="8.4106167"><ele>120.5</ele><time>2026-04-12T10:39:40.004Z</time></trkpt><trkpt lat="44.8014417" lon="8.4107317"><ele>121.0</ele><time>2026-04-12T10:39:40.992Z</time></trkpt><trkpt lat="44.80141" lon="8.4108433"><ele>121.5</ele><time>2026-04-12T10:39:41.994Z</time></trkpt><trkpt lat="44.8013867" lon="8.4109583"><ele>122.0</ele><time>2026-04-12T10:39:42.993Z</time></trkpt><trkpt lat="44.8013583" lon="8.4110783"><ele>122.5</ele><time>2026-04-12T10:39:44.002Z</time></trkpt><trkpt lat="44.8013417" lon="8.411205"><ele>123.0</ele><time>2026-04-12T10:39:44.994Z</time></trkpt><trkpt lat="44.8013267" lon="8.4113483"><ele>123.80000000000001</ele><time>2026-04-12T10:39:45.998Z</time></trkpt><trkpt lat="44.8013117" lon="8.411485"><ele>124.60000000000001</ele><time>2026-04-12T10:39:47.004Z</time></trkpt><trkpt lat="44.8012967" lon="8.4116233"><ele>125.39999999999999</ele><time>2026-04-12T10:39:47.995Z</time></trkpt><trkpt lat="44.8012833" lon="8.4117617"><ele>126.19999999999999</ele><time>2026-04-12T10:39:48.995Z</time></trkpt><trkpt lat="44.8012783" lon="8.41189"><ele>127.0</ele><time>2026-04-12T10:39:49.995Z</time></trkpt><trkpt lat="44.8012833" lon="8.4120183"><ele>127.00000000000001</ele><time>2026-04-12T10:39:50.995Z</time></trkpt><trkpt lat="44.8012783" lon="8.4121367"><ele>127.0</ele><time>2026-04-12T10:39:51.995Z</time></trkpt><trkpt lat="44.8012667" lon="8.4122583"><ele>127.0</ele><time>2026-04-12T10:39:52.993Z</time></trkpt><trkpt lat="44.80126" lon="8.41238"><ele>127.0</ele><time>2026-04-12T10:39:53.993Z</time></trkpt><trkpt lat="44.8012217" lon="8.4125"><ele>127.00000000000001</ele><time>2026-04-12T10:39:54.995Z</time></trkpt><trkpt lat="44.80121" lon="8.4126167"><ele>127.0</ele><time>2026-04-12T10:39:56.001Z</time></trkpt><trkpt lat="44.80119" lon="8.41274"><ele>127.0</ele><time>2026-04-12T10:39:56.994Z</time></trkpt><trkpt lat="44.8011767" lon="8.4128683"><ele>126.99999999999999</ele><time>2026-04-12T10:39:57.996Z</time></trkpt><trkpt lat="44.8011483" lon="8.413005"><ele>126.99999999999999</ele><time>2026-04-12T10:39:58.994Z</time></trkpt><trkpt lat="44.801115" lon="8.41314"><ele>127.0</ele><time>2026-04-12T10:39:59.994Z</time></trkpt><trkpt lat="44.801095" lon="8.4132717"><ele>127.0</ele><time>2026-04-12T10:40:00.999Z</time></trkpt><trkpt lat="44.8010733" lon="8.41341"><ele>127.19999999999999</ele><time>2026-04-12T10:40:02.001Z</time></trkpt><trkpt lat="44.8010417" lon="8.4135417"><ele>127.39999999999999</ele><time>2026-04-12T10:40:02.995Z</time></trkpt><trkpt lat="44.8009983" lon="8.41368"><ele>127.60000000000001</ele><time>2026-04-12T10:40:03.995Z</time></trkpt><trkpt lat="44.8009883" lon="8.4138217"><ele>127.80000000000001</ele><time>2026-04-12T10:40:04.993Z</time></trkpt><trkpt lat="44.80092" lon="8.4139517"><ele>128.0</ele><time>2026-04-12T10:40:05.996Z</time></trkpt><trkpt lat="44.8008933" lon="8.4140967"><ele>128.0</ele><time>2026-04-12T10:40:06.997Z</time></trkpt><trkpt lat="44.800855" lon="8.4142333"><ele>128.0</ele><time>2026-04-12T10:40:07.998Z</time></trkpt><trkpt lat="44.8008083" lon="8.4143617"><ele>128.0</ele><time>2026-04-12T10:40:08.998Z</time></trkpt><trkpt lat="44.800765" lon="8.41449"><ele>128.0</ele><time>2026-04-12T10:40:09.994Z</time></trkpt><trkpt lat="44.800715" lon="8.4146117"><ele>128.0</ele><time>2026-04-12T10:40:11Z</time></trkpt><trkpt lat="44.8006867" lon="8.4147183"><ele>128.6</ele><time>2026-04-12T10:40:11.995Z</time></trkpt><trkpt lat="44.800635" lon="8.414825"><ele>129.20000000000002</ele><time>2026-04-12T10:40:12.997Z</time></trkpt><trkpt lat="44.8005783" lon="8.4149433"><ele>129.8</ele><time>2026-04-12T10:40:13.997Z</time></trkpt><trkpt lat="44.800525" lon="8.4150683"><ele>130.4</ele><time>2026-04-12T10:40:14.997Z</time></trkpt><trkpt lat="44.8004583" lon="8.4151967"><ele>131.0</ele><time>2026-04-12T10:40:15.997Z</time></trkpt><trkpt lat="44.8003883" lon="8.4153283"><ele>131.0</ele><time>2026-04-12T10:40:16.996Z</time></trkpt><trkpt lat="44.8003317" lon="8.415455"><ele>131.0</ele><time>2026-04-12T10:40:17.994Z</time></trkpt><trkpt lat="44.80027" lon="8.4155717"><ele>131.0</ele><time>2026-04-12T10:40:18.994Z</time></trkpt><trkpt lat="44.8002083" lon="8.4156933"><ele>131.0</ele><time>2026-04-12T10:40:19.992Z</time></trkpt><trkpt lat="44.8001467" lon="8.415815"><ele>131.0</ele><time>2026-04-12T10:40:20.998Z</time></trkpt><trkpt lat="44.80008" lon="8.4159267"><ele>129.8</ele><time>2026-04-12T10:40:21.997Z</time></trkpt><trkpt lat="44.8" lon="8.4160183"><ele>128.6</ele><time>2026-04-12T10:40:22.999Z</time></trkpt><trkpt lat="44.7999" lon="8.4160967"><ele>127.4</ele><time>2026-04-12T10:40:23.993Z</time></trkpt><trkpt lat="44.7998017" lon="8.4161867"><ele>126.2</ele><time>2026-04-12T10:40:24.998Z</time></trkpt><trkpt lat="44.7997217" lon="8.4162983"><ele>125.0</ele><time>2026-04-12T10:40:25.996Z</time></trkpt><trkpt lat="44.7996233" lon="8.4163917"><ele>125.0</ele><time>2026-04-12T10:40:26.994Z</time></trkpt><trkpt lat="44.79953" lon="8.41648"><ele>125.0</ele><time>2026-04-12T10:40:27.996Z</time></trkpt><trkpt lat="44.79945" lon="8.4165583"><ele>125.0</ele><time>2026-04-12T10:40:29Z</time></trkpt><trkpt lat="44.79938" lon="8.4166283"><ele>125.0</ele><time>2026-04-12T10:40:29.998Z</time></trkpt><trkpt lat="44.79931" lon="8.4166983"><ele>125.0</ele><time>2026-04-12T10:40:30.996Z</time></trkpt><trkpt lat="44.7992417" lon="8.4167683"><ele>124.8</ele><time>2026-04-12T10:40:31.995Z</time></trkpt><trkpt lat="44.799175" lon="8.41684"><ele>124.6</ele><time>2026-04-12T10:40:32.993Z</time></trkpt><trkpt lat="44.799105" lon="8.4169183"><ele>124.4</ele><time>2026-04-12T10:40:33.997Z</time></trkpt><trkpt lat="44.7990317" lon="8.4169967"><ele>124.2</ele><time>2026-04-12T10:40:34.997Z</time></trkpt><trkpt lat="44.798965" lon="8.4170983"><ele>124.0</ele><time>2026-04-12T10:40:35.995Z</time></trkpt><trkpt lat="44.7988917" lon="8.41722"><ele>123.75</ele><time>2026-04-12T10:40:36.998Z</time></trkpt><trkpt lat="44.7988367" lon="8.4173683"><ele>123.5</ele><time>2026-04-12T10:40:37.995Z</time></trkpt><trkpt lat="44.7987167" lon="8.4174817"><ele>123.25</ele><time>2026-04-12T10:40:38.997Z</time></trkpt><trkpt lat="44.7986383" lon="8.4176317"><ele>123.0</ele><time>2026-04-12T10:40:39.999Z</time></trkpt><trkpt lat="44.7985567" lon="8.4177883"><ele>122.5</ele><time>2026-04-12T10:40:40.994Z</time></trkpt><trkpt lat="44.798485" lon="8.4179533"><ele>122.0</ele><time>2026-04-12T10:40:41.997Z</time></trkpt><trkpt lat="44.7984167" lon="8.41811"><ele>121.5</ele><time>2026-04-12T10:40:42.997Z</time></trkpt><trkpt lat="44.7983567" lon="8.418275"><ele>121.0</ele><time>2026-04-12T10:40:43.992Z</time></trkpt><trkpt lat="44.7982983" lon="8.4184483"><ele>120.5</ele><time>2026-04-12T10:40:44.998Z</time></trkpt><trkpt lat="44.7982483" lon="8.418625"><ele>120.0</ele><time>2026-04-12T10:40:45.996Z</time></trkpt><trkpt lat="44.7981983" lon="8.4188067"><ele>119.5</ele><time>2026-04-12T10:40:46.997Z</time></trkpt><trkpt lat="44.7981517" lon="8.4189883"><ele>119.0</ele><time>2026-04-12T10:40:47.995Z</time></trkpt><trkpt lat="44.7981067" lon="8.4191683"><ele>119.0</ele><time>2026-04-12T10:40:48.993Z</time></trkpt><trkpt lat="44.7980767" lon="8.4193517"><ele>119.0</ele><time>2026-04-12T10:40:50.002Z</time></trkpt><trkpt lat="44.7980617" lon="8.4195517"><ele>119.0</ele><time>2026-04-12T10:40:50.995Z</time></trkpt><trkpt lat="44.79807" lon="8.4197517"><ele>119.0</ele><time>2026-04-12T10:40:52.001Z</time></trkpt><trkpt lat="44.7981" lon="8.4199417"><ele>119.0</ele><time>2026-04-12T10:40:52.996Z</time></trkpt><trkpt lat="44.79815" lon="8.4201367"><ele>119.0</ele><time>2026-04-12T10:40:53.995Z</time></trkpt><trkpt lat="44.798215" lon="8.42033"><ele>119.0</ele><time>2026-04-12T10:40:54.993Z</time></trkpt><trkpt lat="44.7982933" lon="8.4205233"><ele>119.0</ele><time>2026-04-12T10:40:55.994Z</time></trkpt><trkpt lat="44.7983717" lon="8.4207133"><ele>119.0</ele><time>2026-04-12T10:40:56.997Z</time></trkpt><trkpt lat="44.79845" lon="8.4209067"><ele>119.0</ele><time>2026-04-12T10:40:57.994Z</time></trkpt><trkpt lat="44.79852" lon="8.421105"><ele>119.0</ele><time>2026-04-12T10:40:58.994Z</time></trkpt><trkpt lat="44.7985833" lon="8.4213117"><ele>119.0</ele><time>2026-04-12T10:40:59.996Z</time></trkpt><trkpt lat="44.798635" lon="8.4215283"><ele>119.0</ele><time>2026-04-12T10:41:01.001Z</time></trkpt><trkpt lat="44.79868" lon="8.4217517"><ele>119.0</ele><time>2026-04-12T10:41:01.994Z</time></trkpt><trkpt lat="44.7987117" lon="8.4219817"><ele>119.0</ele><time>2026-04-12T10:41:02.998Z</time></trkpt><trkpt lat="44.7987283" lon="8.4222133"><ele>119.0</ele><time>2026-04-12T10:41:04Z</time></trkpt><trkpt lat="44.7987433" lon="8.42244"><ele>119.0</ele><time>2026-04-12T10:41:04.997Z</time></trkpt><trkpt lat="44.7987433" lon="8.422665"><ele>119.0</ele><time>2026-04-12T10:41:05.996Z</time></trkpt><trkpt lat="44.7987217" lon="8.422895"><ele>119.0</ele><time>2026-04-12T10:41:06.997Z</time></trkpt><trkpt lat="44.7986817" lon="8.4231233"><ele>118.66666666666666</ele><time>2026-04-12T10:41:07.995Z</time></trkpt><trkpt lat="44.7986317" lon="8.4233517"><ele>118.33333333333334</ele><time>2026-04-12T10:41:09Z</time></trkpt><trkpt lat="44.7985783" lon="8.4235817"><ele>118.0</ele><time>2026-04-12T10:41:09.997Z</time></trkpt><trkpt lat="44.7985183" lon="8.4238083"><ele>118.33333333333334</ele><time>2026-04-12T10:41:10.998Z</time></trkpt><trkpt lat="44.798455" lon="8.4240317"><ele>118.66666666666666</ele><time>2026-04-12T10:41:11.994Z</time></trkpt><trkpt lat="44.7984" lon="8.424245"><ele>119.0</ele><time>2026-04-12T10:41:12.998Z</time></trkpt><trkpt lat="44.7983517" lon="8.4244383"><ele>119.0</ele><time>2026-04-12T10:41:13.997Z</time></trkpt><trkpt lat="44.7983033" lon="8.4246083"><ele>119.0</ele><time>2026-04-12T10:41:14.998Z</time></trkpt><trkpt lat="44.7982633" lon="8.4247383"><ele>119.0</ele><time>2026-04-12T10:41:15.997Z</time></trkpt><trkpt lat="44.7982067" lon="8.42483"><ele>119.0</ele><time>2026-04-12T10:41:16.998Z</time></trkpt><trkpt lat="44.798145" lon="8.4248933"><ele>119.0</ele><time>2026-04-12T10:41:17.997Z</time></trkpt><trkpt lat="44.7980883" lon="8.4249633"><ele>119.4</ele><time>2026-04-12T10:41:18.995Z</time></trkpt><trkpt lat="44.7980417" lon="8.4250533"><ele>119.80000000000001</ele><time>2026-04-12T10:41:19.996Z</time></trkpt><trkpt lat="44.798" lon="8.4251767"><ele>120.19999999999999</ele><time>2026-04-12T10:41:20.996Z</time></trkpt><trkpt lat="44.7979733" lon="8.425315"><ele>120.6</ele><time>2026-04-12T10:41:21.997Z</time></trkpt><trkpt lat="44.797965" lon="8.4254783"><ele>121.0</ele><time>2026-04-12T10:41:23.001Z</time></trkpt><trkpt lat="44.797945" lon="8.4256283"><ele>121.0</ele><time>2026-04-12T10:41:23.994Z</time></trkpt><trkpt lat="44.79791" lon="8.4257617"><ele>121.0</ele><time>2026-04-12T10:41:24.997Z</time></trkpt><trkpt lat="44.7978533" lon="8.4258783"><ele>121.0</ele><time>2026-04-12T10:41:25.993Z</time></trkpt><trkpt lat="44.7977783" lon="8.4259817"><ele>121.0</ele><time>2026-04-12T10:41:26.997Z</time></trkpt><trkpt lat="44.79769" lon="8.42608"><ele>121.0</ele><time>2026-04-12T10:41:27.995Z</time></trkpt><trkpt lat="44.797595" lon="8.4261783"><ele>121.0</ele><time>2026-04-12T10:41:28.993Z</time></trkpt><trkpt lat="44.7975033" lon="8.4262717"><ele>121.0</ele><time>2026-04-12T10:41:29.992Z</time></trkpt><trkpt lat="44.7974167" lon="8.4263767"><ele>121.0</ele><time>2026-04-12T10:41:31.002Z</time></trkpt><trkpt lat="44.7973583" lon="8.42649"><ele>121.0</ele><time>2026-04-12T10:41:31.994Z</time></trkpt><trkpt lat="44.7973117" lon="8.426595"><ele>121.0</ele><time>2026-04-12T10:41:32.994Z</time></trkpt><trkpt lat="44.7972667" lon="8.4266883"><ele>121.25</ele><time>2026-04-12T10:41:33.995Z</time></trkpt><trkpt lat="44.7972383" lon="8.426835"><ele>121.5</ele><time>2026-04-12T10:41:35.993Z</time></trkpt><trkpt lat="44.7972633" lon="8.4270117"><ele>121.75</ele><time>2026-04-12T10:41:37.998Z</time></trkpt><trkpt lat="44.797295" lon="8.427125"><ele>122.0</ele><time>2026-04-12T10:41:38.998Z</time></trkpt><trkpt lat="44.7973567" lon="8.427315"><ele>122.0</ele><time>2026-04-12T10:41:39.996Z</time></trkpt><trkpt lat="44.7974133" lon="8.42753"><ele>122.0</ele><time>2026-04-12T10:41:40.995Z</time></trkpt><trkpt lat="44.7974567" lon="8.4277683"><ele>122.0</ele><time>2026-04-12T10:41:41.994Z</time></trkpt><trkpt lat="44.7974867" lon="8.4280383"><ele>122.66666666666666</ele><time>2026-04-12T10:41:43.001Z</time></trkpt><trkpt lat="44.7975117" lon="8.4283367"><ele>123.33333333333334</ele><time>2026-04-12T10:41:44.002Z</time></trkpt><trkpt lat="44.7975367" lon="8.4286583"><ele>124.0</ele><time>2026-04-12T10:41:44.997Z</time></trkpt><trkpt lat="44.7975483" lon="8.429005"><ele>124.0</ele><time>2026-04-12T10:41:45.992Z</time></trkpt><trkpt lat="44.7975617" lon="8.4293617"><ele>124.0</ele><time>2026-04-12T10:41:46.996Z</time></trkpt><trkpt lat="44.7975683" lon="8.4297333"><ele>124.0</ele><time>2026-04-12T10:41:47.996Z</time></trkpt><trkpt lat="44.7975733" lon="8.4301"><ele>124.0</ele><time>2026-04-12T10:41:49Z</time></trkpt><trkpt lat="44.79758" lon="8.4304617"><ele>122.0</ele><time>2026-04-12T10:41:49.992Z</time></trkpt><trkpt lat="44.7975883" lon="8.430815"><ele>120.0</ele><time>2026-04-12T10:41:50.996Z</time></trkpt><trkpt lat="44.7975933" lon="8.4311533"><ele>120.66666666666666</ele><time>2026-04-12T10:41:51.993Z</time></trkpt><trkpt lat="44.797605" lon="8.4314767"><ele>121.33333333333333</ele><time>2026-04-12T10:41:52.995Z</time></trkpt><trkpt lat="44.797615" lon="8.431785"><ele>122.0</ele><time>2026-04-12T10:41:54Z</time></trkpt><trkpt lat="44.7976283" lon="8.4320883"><ele>121.66666666666666</ele><time>2026-04-12T10:41:54.995Z</time></trkpt><trkpt lat="44.7976333" lon="8.4323983"><ele>121.33333333333334</ele><time>2026-04-12T10:41:56Z</time></trkpt><trkpt lat="44.7976317" lon="8.4327083"><ele>121.0</ele><time>2026-04-12T10:41:56.995Z</time></trkpt><trkpt lat="44.7976383" lon="8.433015"><ele>121.0</ele><time>2026-04-12T10:41:57.996Z</time></trkpt><trkpt lat="44.7976433" lon="8.433325"><ele>121.0</ele><time>2026-04-12T10:41:58.996Z</time></trkpt><trkpt lat="44.7976467" lon="8.43362"><ele>121.0</ele><time>2026-04-12T10:41:59.994Z</time></trkpt><trkpt lat="44.7976533" lon="8.433895"><ele>121.33333333333334</ele><time>2026-04-12T10:42:00.995Z</time></trkpt><trkpt lat="44.7976617" lon="8.4341567"><ele>121.66666666666666</ele><time>2026-04-12T10:42:01.995Z</time></trkpt><trkpt lat="44.797665" lon="8.434415"><ele>122.0</ele><time>2026-04-12T10:42:02.996Z</time></trkpt><trkpt lat="44.7976617" lon="8.4346667"><ele>122.0</ele><time>2026-04-12T10:42:03.994Z</time></trkpt><trkpt lat="44.7976567" lon="8.4349133"><ele>122.0</ele><time>2026-04-12T10:42:04.996Z</time></trkpt><trkpt lat="44.7976517" lon="8.4351583"><ele>122.0</ele><time>2026-04-12T10:42:05.997Z</time></trkpt><trkpt lat="44.7976467" lon="8.43541"><ele>121.0</ele><time>2026-04-12T10:42:07Z</time></trkpt><trkpt lat="44.7976433" lon="8.43566"><ele>120.0</ele><time>2026-04-12T10:42:08.001Z</time></trkpt><trkpt lat="44.797635" lon="8.4359117"><ele>119.0</ele><time>2026-04-12T10:42:08.996Z</time></trkpt><trkpt lat="44.797625" lon="8.4361667"><ele>119.66666666666666</ele><time>2026-04-12T10:42:09.998Z</time></trkpt><trkpt lat="44.79761" lon="8.4364233"><ele>120.33333333333334</ele><time>2026-04-12T10:42:10.993Z</time></trkpt><trkpt lat="44.797595" lon="8.43668"><ele>121.0</ele><time>2026-04-12T10:42:11.995Z</time></trkpt><trkpt lat="44.7975833" lon="8.4369367"><ele>121.66666666666667</ele><time>2026-04-12T10:42:12.996Z</time></trkpt><trkpt lat="44.7975733" lon="8.4371933"><ele>122.33333333333334</ele><time>2026-04-12T10:42:13.992Z</time></trkpt><trkpt lat="44.7975667" lon="8.4374517"><ele>123.0</ele><time>2026-04-12T10:42:14.993Z</time></trkpt><trkpt lat="44.79756" lon="8.4377067"><ele>123.0</ele><time>2026-04-12T10:42:15.996Z</time></trkpt><trkpt lat="44.7975633" lon="8.4379517"><ele>123.0</ele><time>2026-04-12T10:42:16.993Z</time></trkpt><trkpt lat="44.7975633" lon="8.4382"><ele>123.0</ele><time>2026-04-12T10:42:17.993Z</time></trkpt><trkpt lat="44.797565" lon="8.4384517"><ele>123.66666666666666</ele><time>2026-04-12T10:42:18.997Z</time></trkpt><trkpt lat="44.79757" lon="8.4387017"><ele>124.33333333333333</ele><time>2026-04-12T10:42:19.994Z</time></trkpt><trkpt lat="44.7975783" lon="8.438945"><ele>125.0</ele><time>2026-04-12T10:42:20.995Z</time></trkpt><trkpt lat="44.7975917" lon="8.4391783"><ele>125.0</ele><time>2026-04-12T10:42:22Z</time></trkpt><trkpt lat="44.79761" lon="8.4393867"><ele>125.0</ele><time>2026-04-12T10:42:22.996Z</time></trkpt><trkpt lat="44.7976283" lon="8.4395517"><ele>125.0</ele><time>2026-04-12T10:42:23.998Z</time></trkpt><trkpt lat="44.79764" lon="8.4396767"><ele>125.0</ele><time>2026-04-12T10:42:24.998Z</time></trkpt><trkpt lat="44.797645" lon="8.4397733"><ele>125.0</ele><time>2026-04-12T10:42:25.995Z</time></trkpt><trkpt lat="44.7976433" lon="8.4398667"><ele>124.4</ele><time>2026-04-12T10:42:26.999Z</time></trkpt><trkpt lat="44.7975567" lon="8.43994"><ele>123.8</ele><time>2026-04-12T10:42:28.995Z</time></trkpt><trkpt lat="44.797485" lon="8.4399617"><ele>123.19999999999999</ele><time>2026-04-12T10:42:29.997Z</time></trkpt><trkpt lat="44.797395" lon="8.4399733"><ele>122.6</ele><time>2026-04-12T10:42:30.994Z</time></trkpt><trkpt lat="44.79729" lon="8.4399783"><ele>122.0</ele><time>2026-04-12T10:42:31.997Z</time></trkpt><trkpt lat="44.797175" lon="8.439985"><ele>122.0</ele><time>2026-04-12T10:42:32.994Z</time></trkpt><trkpt lat="44.7970567" lon="8.4399917"><ele>121.99999999999999</ele><time>2026-04-12T10:42:33.994Z</time></trkpt><trkpt lat="44.7969433" lon="8.44"><ele>121.99999999999999</ele><time>2026-04-12T10:42:34.993Z</time></trkpt><trkpt lat="44.7968333" lon="8.4400117"><ele>122.0</ele><time>2026-04-12T10:42:35.994Z</time></trkpt><trkpt lat="44.7967317" lon="8.4400233"><ele>122.0</ele><time>2026-04-12T10:42:36.995Z</time></trkpt><trkpt lat="44.7966283" lon="8.4400367"><ele>122.75</ele><time>2026-04-12T10:42:37.999Z</time></trkpt><trkpt lat="44.7965217" lon="8.4400517"><ele>123.5</ele><time>2026-04-12T10:42:39.002Z</time></trkpt><trkpt lat="44.79641" lon="8.4400683"><ele>124.25</ele><time>2026-04-12T10:42:39.999Z</time></trkpt><trkpt lat="44.7962933" lon="8.4400883"><ele>125.0</ele><time>2026-04-12T10:42:40.997Z</time></trkpt><trkpt lat="44.7961733" lon="8.4401067"><ele>125.0</ele><time>2026-04-12T10:42:41.997Z</time></trkpt><trkpt lat="44.7960467" lon="8.4401233"><ele>125.0</ele><time>2026-04-12T10:42:42.995Z</time></trkpt><trkpt lat="44.79592" lon="8.4401383"><ele>125.0</ele><time>2026-04-12T10:42:43.996Z</time></trkpt><trkpt lat="44.7957917" lon="8.4401517"><ele>125.0</ele><time>2026-04-12T10:42:44.995Z</time></trkpt><trkpt lat="44.79567" lon="8.4401783"><ele>125.2</ele><time>2026-04-12T10:42:45.996Z</time></trkpt><trkpt lat="44.7955533" lon="8.44019"><ele>125.4</ele><time>2026-04-12T10:42:46.996Z</time></trkpt><trkpt lat="44.795445" lon="8.4402"><ele>125.6</ele><time>2026-04-12T10:42:47.999Z</time></trkpt><trkpt lat="44.79535" lon="8.4402133"><ele>125.8</ele><time>2026-04-12T10:42:48.997Z</time></trkpt><trkpt lat="44.79527" lon="8.44023"><ele>126.0</ele><time>2026-04-12T10:42:50Z</time></trkpt><trkpt lat="44.7952067" lon="8.4402483"><ele>126.5</ele><time>2026-04-12T10:42:50.999Z</time></trkpt><trkpt lat="44.795125" lon="8.4401867"><ele>127.0</ele><time>2026-04-12T10:42:58.996Z</time></trkpt><trkpt lat="44.7950517" lon="8.440175"><ele>127.5</ele><time>2026-04-12T10:43:00.998Z</time></trkpt><trkpt lat="44.7949383" lon="8.4401467"><ele>128.0</ele><time>2026-04-12T10:43:02.994Z</time></trkpt><trkpt lat="44.794865" lon="8.4401267"><ele>128.5</ele><time>2026-04-12T10:43:04Z</time></trkpt><trkpt lat="44.7947967" lon="8.4401017"><ele>129.0</ele><time>2026-04-12T10:43:04.993Z</time></trkpt><trkpt lat="44.7947283" lon="8.4400767"><ele>129.0</ele><time>2026-04-12T10:43:05.992Z</time></trkpt><trkpt lat="44.7946517" lon="8.4400433"><ele>129.0</ele><time>2026-04-12T10:43:06.995Z</time></trkpt><trkpt lat="44.7945567" lon="8.440015"><ele>129.0</ele><time>2026-04-12T10:43:07.994Z</time></trkpt><trkpt lat="44.7944833" lon="8.4399883"><ele>129.0</ele><time>2026-04-12T10:43:08.993Z</time></trkpt><trkpt lat="44.7943833" lon="8.4399683"><ele>129.0</ele><time>2026-04-12T10:43:09.997Z</time></trkpt><trkpt lat="44.79429" lon="8.4399533"><ele>129.0</ele><time>2026-04-12T10:43:10.993Z</time></trkpt><trkpt lat="44.7942133" lon="8.439945"><ele>129.33333333333334</ele><time>2026-04-12T10:43:12.002Z</time></trkpt><trkpt lat="44.79414" lon="8.4399367"><ele>129.66666666666666</ele><time>2026-04-12T10:43:12.999Z</time></trkpt><trkpt lat="44.7940717" lon="8.43994"><ele>130.0</ele><time>2026-04-12T10:43:13.994Z</time></trkpt><trkpt lat="44.7940067" lon="8.43995"><ele>130.33333333333331</ele><time>2026-04-12T10:43:14.998Z</time></trkpt><trkpt lat="44.7939467" lon="8.43999"><ele>130.66666666666666</ele><time>2026-04-12T10:43:15.996Z</time></trkpt><trkpt lat="44.793865" lon="8.4401167"><ele>131.0</ele><time>2026-04-12T10:43:16.999Z</time></trkpt><trkpt lat="44.7937867" lon="8.440265"><ele>131.0</ele><time>2026-04-12T10:43:17.995Z</time></trkpt><trkpt lat="44.793695" lon="8.440375"><ele>131.0</ele><time>2026-04-12T10:43:19.002Z</time></trkpt><trkpt lat="44.7936267" lon="8.4404667"><ele>131.0</ele><time>2026-04-12T10:43:19.997Z</time></trkpt><trkpt lat="44.7935467" lon="8.4405833"><ele>131.0</ele><time>2026-04-12T10:43:21Z</time></trkpt><trkpt lat="44.793465" lon="8.4407067"><ele>132.0</ele><time>2026-04-12T10:43:21.997Z</time></trkpt><trkpt lat="44.7933833" lon="8.4408133"><ele>133.0</ele><time>2026-04-12T10:43:22.992Z</time></trkpt><trkpt lat="44.79328" lon="8.44093"><ele>134.0</ele><time>2026-04-12T10:43:24Z</time></trkpt><trkpt lat="44.7931817" lon="8.4410567"><ele>135.0</ele><time>2026-04-12T10:43:24.993Z</time></trkpt><trkpt lat="44.7930783" lon="8.4411833"><ele>135.75</ele><time>2026-04-12T10:43:25.997Z</time></trkpt><trkpt lat="44.79297" lon="8.4413033"><ele>136.5</ele><time>2026-04-12T10:43:26.994Z</time></trkpt><trkpt lat="44.792865" lon="8.4414217"><ele>137.25</ele><time>2026-04-12T10:43:27.999Z</time></trkpt><trkpt lat="44.7927733" lon="8.44155"><ele>138.0</ele><time>2026-04-12T10:43:28.995Z</time></trkpt><trkpt lat="44.7926733" lon="8.44168"><ele>138.4</ele><time>2026-04-12T10:43:29.995Z</time></trkpt><trkpt lat="44.7925883" lon="8.4418033"><ele>138.8</ele><time>2026-04-12T10:43:31.001Z</time></trkpt><trkpt lat="44.7925017" lon="8.4419167"><ele>139.2</ele><time>2026-04-12T10:43:31.995Z</time></trkpt><trkpt lat="44.79243" lon="8.44202"><ele>139.6</ele><time>2026-04-12T10:43:32.997Z</time></trkpt><trkpt lat="44.7923583" lon="8.4421117"><ele>140.0</ele><time>2026-04-12T10:43:33.997Z</time></trkpt><trkpt lat="44.7922883" lon="8.4421967"><ele>140.4</ele><time>2026-04-12T10:43:34.998Z</time></trkpt><trkpt lat="44.7922067" lon="8.442265"><ele>140.8</ele><time>2026-04-12T10:43:35.994Z</time></trkpt><trkpt lat="44.7921183" lon="8.4423083"><ele>141.2</ele><time>2026-04-12T10:43:36.995Z</time></trkpt><trkpt lat="44.7920267" lon="8.4423267"><ele>141.6</ele><time>2026-04-12T10:43:37.997Z</time></trkpt><trkpt lat="44.7919267" lon="8.44229"><ele>142.0</ele><time>2026-04-12T10:43:38.996Z</time></trkpt><trkpt lat="44.7918317" lon="8.4422133"><ele>143.0</ele><time>2026-04-12T10:43:39.997Z</time></trkpt><trkpt lat="44.7917467" lon="8.4421167"><ele>144.0</ele><time>2026-04-12T10:43:40.999Z</time></trkpt><trkpt lat="44.7916633" lon="8.4420033"><ele>145.0</ele><time>2026-04-12T10:43:41.996Z</time></trkpt><trkpt lat="44.7915933" lon="8.441875"><ele>146.0</ele><time>2026-04-12T10:43:42.997Z</time></trkpt><trkpt lat="44.7915533" lon="8.44173"><ele>146.0</ele><time>2026-04-12T10:43:43.992Z</time></trkpt><trkpt lat="44.7915317" lon="8.4415867"><ele>146.0</ele><time>2026-04-12T10:43:44.995Z</time></trkpt><trkpt lat="44.7915433" lon="8.441415"><ele>146.0</ele><time>2026-04-12T10:43:45.995Z</time></trkpt><trkpt lat="44.791565" lon="8.4412283"><ele>146.0</ele><time>2026-04-12T10:43:46.994Z</time></trkpt><trkpt lat="44.7915983" lon="8.4410183"><ele>148.0</ele><time>2026-04-12T10:43:47.998Z</time></trkpt><trkpt lat="44.7916367" lon="8.4408"><ele>150.0</ele><time>2026-04-12T10:43:48.996Z</time></trkpt><trkpt lat="44.7916667" lon="8.4405833"><ele>152.0</ele><time>2026-04-12T10:43:49.994Z</time></trkpt><trkpt lat="44.7917017" lon="8.44037"><ele>153.75</ele><time>2026-04-12T10:43:50.996Z</time></trkpt><trkpt lat="44.7917383" lon="8.4401667"><ele>155.5</ele><time>2026-04-12T10:43:51.997Z</time></trkpt><trkpt lat="44.7917717" lon="8.4399833"><ele>157.25</ele><time>2026-04-12T10:43:52.993Z</time></trkpt><trkpt lat="44.79182" lon="8.4398333"><ele>159.0</ele><time>2026-04-12T10:43:53.995Z</time></trkpt><trkpt lat="44.7918817" lon="8.4397233"><ele>157.2</ele><time>2026-04-12T10:43:54.994Z</time></trkpt><trkpt lat="44.7919583" lon="8.4396383"><ele>155.4</ele><time>2026-04-12T10:43:55.995Z</time></trkpt><trkpt lat="44.7920317" lon="8.43956"><ele>153.6</ele><time>2026-04-12T10:43:56.999Z</time></trkpt><trkpt lat="44.7920967" lon="8.439465"><ele>151.8</ele><time>2026-04-12T10:43:57.994Z</time></trkpt><trkpt lat="44.792145" lon="8.4393483"><ele>150.0</ele><time>2026-04-12T10:43:59Z</time></trkpt><trkpt lat="44.7921683" lon="8.4392133"><ele>150.0</ele><time>2026-04-12T10:44:00.009Z</time></trkpt><trkpt lat="44.7921733" lon="8.4390667"><ele>150.0</ele><time>2026-04-12T10:44:00.998Z</time></trkpt><trkpt lat="44.7921633" lon="8.4389183"><ele>150.0</ele><time>2026-04-12T10:44:02Z</time></trkpt><trkpt lat="44.792145" lon="8.4387767"><ele>150.0</ele><time>2026-04-12T10:44:02.996Z</time></trkpt><trkpt lat="44.7921083" lon="8.438655"><ele>150.0</ele><time>2026-04-12T10:44:04.001Z</time></trkpt><trkpt lat="44.7920533" lon="8.4385517"><ele>149.8</ele><time>2026-04-12T10:44:04.996Z</time></trkpt><trkpt lat="44.7919783" lon="8.43847"><ele>149.6</ele><time>2026-04-12T10:44:05.998Z</time></trkpt><trkpt lat="44.7918883" lon="8.4384217"><ele>149.4</ele><time>2026-04-12T10:44:06.999Z</time></trkpt><trkpt lat="44.7917833" lon="8.438395"><ele>149.2</ele><time>2026-04-12T10:44:07.996Z</time></trkpt><trkpt lat="44.791675" lon="8.4383817"><ele>149.0</ele><time>2026-04-12T10:44:08.997Z</time></trkpt><trkpt lat="44.7915767" lon="8.4383817"><ele>152.4</ele><time>2026-04-12T10:44:09.996Z</time></trkpt><trkpt lat="44.7914817" lon="8.4384067"><ele>155.8</ele><time>2026-04-12T10:44:10.999Z</time></trkpt><trkpt lat="44.7913917" lon="8.4384733"><ele>159.20000000000002</ele><time>2026-04-12T10:44:11.994Z</time></trkpt><trkpt lat="44.7913233" lon="8.438575"><ele>162.60000000000002</ele><time>2026-04-12T10:44:12.995Z</time></trkpt><trkpt lat="44.7912767" lon="8.43871"><ele>166.0</ele><time>2026-04-12T10:44:13.995Z</time></trkpt><trkpt lat="44.7912233" lon="8.43886"><ele>166.5</ele><time>2026-04-12T10:44:14.998Z</time></trkpt><trkpt lat="44.79117" lon="8.4390167"><ele>167.0</ele><time>2026-04-12T10:44:15.995Z</time></trkpt><trkpt lat="44.791115" lon="8.4391733"><ele>167.5</ele><time>2026-04-12T10:44:16.994Z</time></trkpt><trkpt lat="44.79106" lon="8.4393317"><ele>168.0</ele><time>2026-04-12T10:44:18.001Z</time></trkpt><trkpt lat="44.79101" lon="8.4394867"><ele>169.8</ele><time>2026-04-12T10:44:19.001Z</time></trkpt><trkpt lat="44.790965" lon="8.439625"><ele>171.60000000000002</ele><time>2026-04-12T10:44:20.002Z</time></trkpt><trkpt lat="44.79093" lon="8.4397517"><ele>173.39999999999998</ele><time>2026-04-12T10:44:20.998Z</time></trkpt><trkpt lat="44.790925" lon="8.4398883"><ele>175.2</ele><time>2026-04-12T10:44:21.998Z</time></trkpt><trkpt lat="44.7909367" lon="8.4400183"><ele>177.0</ele><time>2026-04-12T10:44:22.993Z</time></trkpt><trkpt lat="44.79095" lon="8.4401417"><ele>177.2</ele><time>2026-04-12T10:44:23.995Z</time></trkpt><trkpt lat="44.7909633" lon="8.4402617"><ele>177.39999999999998</ele><time>2026-04-12T10:44:24.997Z</time></trkpt><trkpt lat="44.7909467" lon="8.4403817"><ele>177.60000000000002</ele><time>2026-04-12T10:44:25.994Z</time></trkpt><trkpt lat="44.790925" lon="8.4405"><ele>177.8</ele><time>2026-04-12T10:44:26.997Z</time></trkpt><trkpt lat="44.79081" lon="8.44059"><ele>178.0</ele><time>2026-04-12T10:44:27.993Z</time></trkpt><trkpt lat="44.7907033" lon="8.44068"><ele>176.75</ele><time>2026-04-12T10:44:28.995Z</time></trkpt><trkpt lat="44.7905917" lon="8.4407883"><ele>175.5</ele><time>2026-04-12T10:44:29.997Z</time></trkpt><trkpt lat="44.7904783" lon="8.44091"><ele>174.25</ele><time>2026-04-12T10:44:30.996Z</time></trkpt><trkpt lat="44.79037" lon="8.44105"><ele>173.0</ele><time>2026-04-12T10:44:31.993Z</time></trkpt><trkpt lat="44.790265" lon="8.4412067"><ele>176.0</ele><time>2026-04-12T10:44:33.001Z</time></trkpt><trkpt lat="44.7901667" lon="8.4413617"><ele>179.0</ele><time>2026-04-12T10:44:33.992Z</time></trkpt><trkpt lat="44.79007" lon="8.4415083"><ele>182.0</ele><time>2026-04-12T10:44:34.996Z</time></trkpt><trkpt lat="44.7899567" lon="8.4416283"><ele>185.0</ele><time>2026-04-12T10:44:35.999Z</time></trkpt><trkpt lat="44.7898433" lon="8.4417317"><ele>185.0</ele><time>2026-04-12T10:44:36.995Z</time></trkpt><trkpt lat="44.78971" lon="8.4418083"><ele>185.0</ele><time>2026-04-12T10:44:37.999Z</time></trkpt><trkpt lat="44.7895667" lon="8.4418867"><ele>185.0</ele><time>2026-04-12T10:44:38.995Z</time></trkpt><trkpt lat="44.7894133" lon="8.4419583"><ele>185.66666666666666</ele><time>2026-04-12T10:44:39.993Z</time></trkpt><trkpt lat="44.789265" lon="8.4420333"><ele>186.33333333333334</ele><time>2026-04-12T10:44:40.995Z</time></trkpt><trkpt lat="44.7891183" lon="8.4421067"><ele>187.0</ele><time>2026-04-12T10:44:41.992Z</time></trkpt><trkpt lat="44.7889817" lon="8.4421783"><ele>187.0</ele><time>2026-04-12T10:44:42.999Z</time></trkpt><trkpt lat="44.7888533" lon="8.4422467"><ele>187.0</ele><time>2026-04-12T10:44:44.001Z</time></trkpt><trkpt lat="44.7887267" lon="8.442275"><ele>187.0</ele><time>2026-04-12T10:44:44.999Z</time></trkpt><trkpt lat="44.7885983" lon="8.4422683"><ele>187.0</ele><time>2026-04-12T10:44:45.997Z</time></trkpt><trkpt lat="44.788455" lon="8.4422167"><ele>188.25</ele><time>2026-04-12T10:44:47.003Z</time></trkpt><trkpt lat="44.7883167" lon="8.44215"><ele>189.5</ele><time>2026-04-12T10:44:47.999Z</time></trkpt><trkpt lat="44.7881733" lon="8.4420717"><ele>190.75</ele><time>2026-04-12T10:44:49.001Z</time></trkpt><trkpt lat="44.7880483" lon="8.4419817"><ele>192.0</ele><time>2026-04-12T10:44:49.999Z</time></trkpt><trkpt lat="44.78794" lon="8.4418717"><ele>195.25</ele><time>2026-04-12T10:44:51.001Z</time></trkpt><trkpt lat="44.7878383" lon="8.4417567"><ele>198.5</ele><time>2026-04-12T10:44:51.998Z</time></trkpt><trkpt lat="44.7877583" lon="8.4416467"><ele>201.75</ele><time>2026-04-12T10:44:52.997Z</time></trkpt><trkpt lat="44.78762" lon="8.4415933"><ele>205.0</ele><time>2026-04-12T10:44:53.999Z</time></trkpt><trkpt lat="44.78745" lon="8.4415583"><ele>205.66666666666666</ele><time>2026-04-12T10:44:55Z</time></trkpt><trkpt lat="44.7872767" lon="8.441515"><ele>206.33333333333331</ele><time>2026-04-12T10:44:55.999Z</time></trkpt><trkpt lat="44.7870933" lon="8.44147"><ele>207.0</ele><time>2026-04-12T10:44:56.994Z</time></trkpt><trkpt lat="44.78692" lon="8.441435"><ele>210.33333333333331</ele><time>2026-04-12T10:44:57.994Z</time></trkpt><trkpt lat="44.7867333" lon="8.44142"><ele>213.66666666666666</ele><time>2026-04-12T10:44:58.998Z</time></trkpt><trkpt lat="44.7865783" lon="8.4414183"><ele>217.0</ele><time>2026-04-12T10:45:00.002Z</time></trkpt><trkpt lat="44.786435" lon="8.4414617"><ele>217.0</ele><time>2026-04-12T10:45:00.998Z</time></trkpt><trkpt lat="44.78633" lon="8.4415383"><ele>217.0</ele><time>2026-04-12T10:45:02.003Z</time></trkpt><trkpt lat="44.7862433" lon="8.4416517"><ele>217.0</ele><time>2026-04-12T10:45:02.998Z</time></trkpt><trkpt lat="44.7861933" lon="8.4417933"><ele>217.0</ele><time>2026-04-12T10:45:03.999Z</time></trkpt><trkpt lat="44.7861617" lon="8.4419633"><ele>219.25</ele><time>2026-04-12T10:45:05.001Z</time></trkpt><trkpt lat="44.786155" lon="8.4421467"><ele>221.5</ele><time>2026-04-12T10:45:05.999Z</time></trkpt><trkpt lat="44.7861717" lon="8.4423483"><ele>223.75</ele><time>2026-04-12T10:45:07.001Z</time></trkpt><trkpt lat="44.7862017" lon="8.4425767"><ele>226.0</ele><time>2026-04-12T10:45:07.998Z</time></trkpt><trkpt lat="44.786235" lon="8.4428233"><ele>224.66666666666666</ele><time>2026-04-12T10:45:09.001Z</time></trkpt><trkpt lat="44.78628" lon="8.4430817"><ele>223.33333333333331</ele><time>2026-04-12T10:45:09.999Z</time></trkpt><trkpt lat="44.7863217" lon="8.4433483"><ele>222.0</ele><time>2026-04-12T10:45:10.997Z</time></trkpt><trkpt lat="44.78636" lon="8.44363"><ele>220.33333333333331</ele><time>2026-04-12T10:45:11.999Z</time></trkpt><trkpt lat="44.7864" lon="8.443905"><ele>218.66666666666666</ele><time>2026-04-12T10:45:13.001Z</time></trkpt><trkpt lat="44.786445" lon="8.4441717"><ele>217.0</ele><time>2026-04-12T10:45:13.999Z</time></trkpt><trkpt lat="44.7864867" lon="8.4444333"><ele>216.0</ele><time>2026-04-12T10:45:15.001Z</time></trkpt><trkpt lat="44.78653" lon="8.4446883"><ele>215.0</ele><time>2026-04-12T10:45:15.998Z</time></trkpt><trkpt lat="44.7865783" lon="8.444945"><ele>214.0</ele><time>2026-04-12T10:45:16.999Z</time></trkpt><trkpt lat="44.78664" lon="8.4451917"><ele>214.0</ele><time>2026-04-12T10:45:17.997Z</time></trkpt><trkpt lat="44.78671" lon="8.4454383"><ele>214.0</ele><time>2026-04-12T10:45:18.999Z</time></trkpt><trkpt lat="44.7867917" lon="8.4456633"><ele>214.0</ele><time>2026-04-12T10:45:19.999Z</time></trkpt><trkpt lat="44.7868633" lon="8.4458717"><ele>213.75</ele><time>2026-04-12T10:45:21.002Z</time></trkpt><trkpt lat="44.78693" lon="8.4460533"><ele>213.5</ele><time>2026-04-12T10:45:22Z</time></trkpt><trkpt lat="44.7869967" lon="8.4462083"><ele>213.25</ele><time>2026-04-12T10:45:22.996Z</time></trkpt><trkpt lat="44.787055" lon="8.44635"><ele>213.0</ele><time>2026-04-12T10:45:23.998Z</time></trkpt><trkpt lat="44.7871083" lon="8.44648"><ele>211.8</ele><time>2026-04-12T10:45:25Z</time></trkpt><trkpt lat="44.78715" lon="8.4465933"><ele>210.60000000000002</ele><time>2026-04-12T10:45:25.996Z</time></trkpt><trkpt lat="44.7871867" lon="8.4466833"><ele>209.39999999999998</ele><time>2026-04-12T10:45:27.006Z</time></trkpt><trkpt lat="44.7872433" lon="8.4468417"><ele>208.2</ele><time>2026-04-12T10:45:28.998Z</time></trkpt><trkpt lat="44.7872783" lon="8.446935"><ele>207.0</ele><time>2026-04-12T10:45:29.995Z</time></trkpt><trkpt lat="44.7873117" lon="8.44705"><ele>207.5</ele><time>2026-04-12T10:45:30.998Z</time></trkpt><trkpt lat="44.787315" lon="8.4472233"><ele>208.0</ele><time>2026-04-12T10:45:31.997Z</time></trkpt><trkpt lat="44.7873183" lon="8.447385"><ele>208.5</ele><time>2026-04-12T10:45:33.003Z</time></trkpt><trkpt lat="44.7872917" lon="8.4475483"><ele>209.0</ele><time>2026-04-12T10:45:33.997Z</time></trkpt><trkpt lat="44.7872383" lon="8.4477117"><ele>209.0</ele><time>2026-04-12T10:45:34.995Z</time></trkpt><trkpt lat="44.7871633" lon="8.447865"><ele>209.0</ele><time>2026-04-12T10:45:35.997Z</time></trkpt><trkpt lat="44.78706" lon="8.4480067"><ele>209.0</ele><time>2026-04-12T10:45:36.998Z</time></trkpt><trkpt lat="44.78693" lon="8.4481433"><ele>209.0</ele><time>2026-04-12T10:45:37.996Z</time></trkpt><trkpt lat="44.7867983" lon="8.4482783"><ele>211.33333333333334</ele><time>2026-04-12T10:45:38.996Z</time></trkpt><trkpt lat="44.786655" lon="8.4484167"><ele>213.66666666666669</ele><time>2026-04-12T10:45:39.995Z</time></trkpt><trkpt lat="44.7865033" lon="8.4485617"><ele>216.0</ele><time>2026-04-12T10:45:41.002Z</time></trkpt><trkpt lat="44.78636" lon="8.448705"><ele>217.0</ele><time>2026-04-12T10:45:41.996Z</time></trkpt><trkpt lat="44.7862183" lon="8.448845"><ele>218.0</ele><time>2026-04-12T10:45:43.003Z</time></trkpt><trkpt lat="44.7860767" lon="8.44898"><ele>219.0</ele><time>2026-04-12T10:45:43.993Z</time></trkpt><trkpt lat="44.78594" lon="8.449105"><ele>220.0</ele><time>2026-04-12T10:45:44.999Z</time></trkpt><trkpt lat="44.7858067" lon="8.44921"><ele>221.0</ele><time>2026-04-12T10:45:45.998Z</time></trkpt><trkpt lat="44.78566" lon="8.4492917"><ele>222.0</ele><time>2026-04-12T10:45:46.992Z</time></trkpt><trkpt lat="44.7854883" lon="8.4493367"><ele>222.0</ele><time>2026-04-12T10:45:47.999Z</time></trkpt><trkpt lat="44.78532" lon="8.4493767"><ele>222.0</ele><time>2026-04-12T10:45:48.997Z</time></trkpt><trkpt lat="44.7851433" lon="8.4494017"><ele>222.0</ele><time>2026-04-12T10:45:49.998Z</time></trkpt><trkpt lat="44.7849683" lon="8.4494267"><ele>221.33333333333331</ele><time>2026-04-12T10:45:51.002Z</time></trkpt><trkpt lat="44.78479" lon="8.44946"><ele>220.66666666666666</ele><time>2026-04-12T10:45:51.997Z</time></trkpt><trkpt lat="44.78461" lon="8.4495117"><ele>220.0</ele><time>2026-04-12T10:45:52.993Z</time></trkpt><trkpt lat="44.7844283" lon="8.4496"><ele>222.0</ele><time>2026-04-12T10:45:53.999Z</time></trkpt><trkpt lat="44.7842517" lon="8.449685"><ele>224.0</ele><time>2026-04-12T10:45:55.003Z</time></trkpt><trkpt lat="44.7840783" lon="8.4497867"><ele>226.0</ele><time>2026-04-12T10:45:55.994Z</time></trkpt><trkpt lat="44.7839083" lon="8.4498833"><ele>226.0</ele><time>2026-04-12T10:45:56.997Z</time></trkpt><trkpt lat="44.7837367" lon="8.4499717"><ele>226.0</ele><time>2026-04-12T10:45:57.998Z</time></trkpt><trkpt lat="44.7835683" lon="8.450055"><ele>226.0</ele><time>2026-04-12T10:45:58.995Z</time></trkpt><trkpt lat="44.783415" lon="8.4501333"><ele>225.66666666666666</ele><time>2026-04-12T10:45:59.999Z</time></trkpt><trkpt lat="44.7832583" lon="8.4501883"><ele>225.33333333333331</ele><time>2026-04-12T10:46:00.998Z</time></trkpt><trkpt lat="44.7831083" lon="8.450195"><ele>225.0</ele><time>2026-04-12T10:46:01.995Z</time></trkpt><trkpt lat="44.7829567" lon="8.45016"><ele>225.0</ele><time>2026-04-12T10:46:02.998Z</time></trkpt><trkpt lat="44.7828133" lon="8.4501333"><ele>225.0</ele><time>2026-04-12T10:46:03.995Z</time></trkpt><trkpt lat="44.7826633" lon="8.450135"><ele>225.0</ele><time>2026-04-12T10:46:04.999Z</time></trkpt><trkpt lat="44.7825117" lon="8.4501583"><ele>225.0</ele><time>2026-04-12T10:46:05.998Z</time></trkpt><trkpt lat="44.7823617" lon="8.45021"><ele>226.66666666666669</ele><time>2026-04-12T10:46:07.001Z</time></trkpt><trkpt lat="44.7822183" lon="8.4502817"><ele>228.33333333333334</ele><time>2026-04-12T10:46:07.996Z</time></trkpt><trkpt lat="44.7820767" lon="8.4503467"><ele>230.0</ele><time>2026-04-12T10:46:08.997Z</time></trkpt><trkpt lat="44.78193" lon="8.450385"><ele>231.0</ele><time>2026-04-12T10:46:09.999Z</time></trkpt><trkpt lat="44.7817733" lon="8.4503917"><ele>232.0</ele><time>2026-04-12T10:46:10.996Z</time></trkpt><trkpt lat="44.7816033" lon="8.4503867"><ele>233.0</ele><time>2026-04-12T10:46:11.993Z</time></trkpt><trkpt lat="44.7814217" lon="8.4503867"><ele>233.0</ele><time>2026-04-12T10:46:12.999Z</time></trkpt><trkpt lat="44.7812217" lon="8.45038"><ele>233.0</ele><time>2026-04-12T10:46:13.996Z</time></trkpt><trkpt lat="44.7810183" lon="8.45038"><ele>233.0</ele><time>2026-04-12T10:46:14.997Z</time></trkpt><trkpt lat="44.7808067" lon="8.45038"><ele>233.66666666666669</ele><time>2026-04-12T10:46:15.998Z</time></trkpt><trkpt lat="44.7805917" lon="8.4503683"><ele>234.33333333333331</ele><time>2026-04-12T10:46:16.998Z</time></trkpt><trkpt lat="44.7803783" lon="8.4503583"><ele>235.0</ele><time>2026-04-12T10:46:17.996Z</time></trkpt><trkpt lat="44.780175" lon="8.4503467"><ele>237.0</ele><time>2026-04-12T10:46:18.999Z</time></trkpt><trkpt lat="44.7799767" lon="8.450345"><ele>239.0</ele><time>2026-04-12T10:46:19.997Z</time></trkpt><trkpt lat="44.77979" lon="8.4503433"><ele>241.0</ele><time>2026-04-12T10:46:20.997Z</time></trkpt><trkpt lat="44.7796133" lon="8.4503333"><ele>241.0</ele><time>2026-04-12T10:46:21.997Z</time></trkpt><trkpt lat="44.779435" lon="8.4503067"><ele>241.0</ele><time>2026-04-12T10:46:22.997Z</time></trkpt><trkpt lat="44.7792683" lon="8.4502583"><ele>241.0</ele><time>2026-04-12T10:46:23.997Z</time></trkpt><trkpt lat="44.7791033" lon="8.450195"><ele>241.66666666666666</ele><time>2026-04-12T10:46:24.996Z</time></trkpt><trkpt lat="44.77894" lon="8.4501233"><ele>242.33333333333331</ele><time>2026-04-12T10:46:25.995Z</time></trkpt><trkpt lat="44.7787833" lon="8.450045"><ele>243.0</ele><time>2026-04-12T10:46:26.997Z</time></trkpt><trkpt lat="44.7786367" lon="8.44995"><ele>244.0</ele><time>2026-04-12T10:46:27.999Z</time></trkpt><trkpt lat="44.7784867" lon="8.4498483"><ele>245.0</ele><time>2026-04-12T10:46:28.992Z</time></trkpt><trkpt lat="44.7783533" lon="8.4497283"><ele>246.0</ele><time>2026-04-12T10:46:30Z</time></trkpt><trkpt lat="44.77822" lon="8.4495967"><ele>246.0</ele><time>2026-04-12T10:46:30.997Z</time></trkpt><trkpt lat="44.77808" lon="8.44947"><ele>246.0</ele><time>2026-04-12T10:46:31.997Z</time></trkpt><trkpt lat="44.777935" lon="8.449355"><ele>246.0</ele><time>2026-04-12T10:46:32.998Z</time></trkpt><trkpt lat="44.777785" lon="8.4492617"><ele>249.0</ele><time>2026-04-12T10:46:33.999Z</time></trkpt><trkpt lat="44.7776267" lon="8.4492033"><ele>252.0</ele><time>2026-04-12T10:46:34.997Z</time></trkpt><trkpt lat="44.7774633" lon="8.4491817"><ele>255.0</ele><time>2026-04-12T10:46:35.998Z</time></trkpt><trkpt lat="44.7772967" lon="8.44919"><ele>255.0</ele><time>2026-04-12T10:46:36.992Z</time></trkpt><trkpt lat="44.7771267" lon="8.44922"><ele>255.0</ele><time>2026-04-12T10:46:38Z</time></trkpt><trkpt lat="44.77696" lon="8.4492533"><ele>255.0</ele><time>2026-04-12T10:46:38.995Z</time></trkpt><trkpt lat="44.7767933" lon="8.4492867"><ele>256.25</ele><time>2026-04-12T10:46:39.995Z</time></trkpt><trkpt lat="44.776635" lon="8.44932"><ele>257.5</ele><time>2026-04-12T10:46:40.998Z</time></trkpt><trkpt lat="44.7765017" lon="8.4493417"><ele>258.75</ele><time>2026-04-12T10:46:41.994Z</time></trkpt><trkpt lat="44.7763783" lon="8.449335"><ele>260.0</ele><time>2026-04-12T10:46:42.997Z</time></trkpt><trkpt lat="44.7762767" lon="8.4492783"><ele>260.0</ele><time>2026-04-12T10:46:43.999Z</time></trkpt><trkpt lat="44.7761867" lon="8.44919"><ele>260.0</ele><time>2026-04-12T10:46:44.998Z</time></trkpt><trkpt lat="44.7761083" lon="8.4490667"><ele>260.0</ele><time>2026-04-12T10:46:45.997Z</time></trkpt><trkpt lat="44.77604" lon="8.448915"><ele>260.0</ele><time>2026-04-12T10:46:46.992Z</time></trkpt><trkpt lat="44.77599" lon="8.44877"><ele>261.8</ele><time>2026-04-12T10:46:47.998Z</time></trkpt><trkpt lat="44.7759633" lon="8.4486233"><ele>263.6</ele><time>2026-04-12T10:46:48.997Z</time></trkpt><trkpt lat="44.7759517" lon="8.44847"><ele>265.4</ele><time>2026-04-12T10:46:49.993Z</time></trkpt><trkpt lat="44.7759267" lon="8.4483333"><ele>267.2</ele><time>2026-04-12T10:46:50.996Z</time></trkpt><trkpt lat="44.7758817" lon="8.4482333"><ele>269.0</ele><time>2026-04-12T10:46:52Z</time></trkpt><trkpt lat="44.775815" lon="8.448155"><ele>269.0</ele><time>2026-04-12T10:46:52.999Z</time></trkpt><trkpt lat="44.77574" lon="8.448085"><ele>269.0</ele><time>2026-04-12T10:46:53.999Z</time></trkpt><trkpt lat="44.7756333" lon="8.4480317"><ele>269.0</ele><time>2026-04-12T10:46:54.998Z</time></trkpt><trkpt lat="44.775505" lon="8.4479733"><ele>269.0</ele><time>2026-04-12T10:46:56.001Z</time></trkpt><trkpt lat="44.7753617" lon="8.4479083"><ele>271.33333333333337</ele><time>2026-04-12T10:46:56.998Z</time></trkpt><trkpt lat="44.775205" lon="8.447855"><ele>273.6666666666667</ele><time>2026-04-12T10:46:57.996Z</time></trkpt><trkpt lat="44.7750483" lon="8.4478183"><ele>276.0</ele><time>2026-04-12T10:46:58.999Z</time></trkpt><trkpt lat="44.7749117" lon="8.447815"><ele>278.25</ele><time>2026-04-12T10:47:00.004Z</time></trkpt><trkpt lat="44.7747783" lon="8.447835"><ele>280.5</ele><time>2026-04-12T10:47:00.998Z</time></trkpt><trkpt lat="44.7746383" lon="8.4478867"><ele>282.75</ele><time>2026-04-12T10:47:02Z</time></trkpt><trkpt lat="44.7745183" lon="8.4479367"><ele>285.0</ele><time>2026-04-12T10:47:03.001Z</time></trkpt><trkpt lat="44.7744117" lon="8.4479433"><ele>285.6</ele><time>2026-04-12T10:47:03.996Z</time></trkpt><trkpt lat="44.7743283" lon="8.4478967"><ele>286.2</ele><time>2026-04-12T10:47:04.999Z</time></trkpt><trkpt lat="44.7742417" lon="8.4478317"><ele>286.8</ele><time>2026-04-12T10:47:06.001Z</time></trkpt><trkpt lat="44.7741467" lon="8.4477817"><ele>287.4</ele><time>2026-04-12T10:47:07Z</time></trkpt><trkpt lat="44.7740467" lon="8.4477483"><ele>288.0</ele><time>2026-04-12T10:47:07.994Z</time></trkpt><trkpt lat="44.77395" lon="8.4477117"><ele>288.0</ele><time>2026-04-12T10:47:08.994Z</time></trkpt><trkpt lat="44.773865" lon="8.4476517"><ele>288.0</ele><time>2026-04-12T10:47:09.994Z</time></trkpt><trkpt lat="44.7737917" lon="8.4475633"><ele>288.0</ele><time>2026-04-12T10:47:10.994Z</time></trkpt><trkpt lat="44.7737217" lon="8.4474633"><ele>288.0</ele><time>2026-04-12T10:47:11.994Z</time></trkpt><trkpt lat="44.7736383" lon="8.4473833"><ele>288.0</ele><time>2026-04-12T10:47:12.999Z</time></trkpt><trkpt lat="44.7735533" lon="8.4473367"><ele>289.0</ele><time>2026-04-12T10:47:13.996Z</time></trkpt><trkpt lat="44.7734633" lon="8.4473233"><ele>290.0</ele><time>2026-04-12T10:47:15.001Z</time></trkpt><trkpt lat="44.773365" lon="8.4473417"><ele>291.0</ele><time>2026-04-12T10:47:15.994Z</time></trkpt><trkpt lat="44.77327" lon="8.4473883"><ele>292.0</ele><time>2026-04-12T10:47:16.996Z</time></trkpt><trkpt lat="44.7731817" lon="8.4474533"><ele>293.0</ele><time>2026-04-12T10:47:17.998Z</time></trkpt><trkpt lat="44.7730983" lon="8.44754"><ele>293.0</ele><time>2026-04-12T10:47:18.997Z</time></trkpt><trkpt lat="44.77303" lon="8.44766"><ele>293.0</ele><time>2026-04-12T10:47:20.001Z</time></trkpt><trkpt lat="44.7729833" lon="8.4478083"><ele>293.0</ele><time>2026-04-12T10:47:20.997Z</time></trkpt><trkpt lat="44.7729767" lon="8.44797"><ele>293.0</ele><time>2026-04-12T10:47:21.996Z</time></trkpt><trkpt lat="44.772985" lon="8.448115"><ele>293.0</ele><time>2026-04-12T10:47:22.999Z</time></trkpt><trkpt lat="44.7729933" lon="8.4482417"><ele>292.1666666666667</ele><time>2026-04-12T10:47:23.999Z</time></trkpt><trkpt lat="44.772995" lon="8.4483583"><ele>291.33333333333337</ele><time>2026-04-12T10:47:24.997Z</time></trkpt><trkpt lat="44.7730167" lon="8.4484517"><ele>290.5</ele><time>2026-04-12T10:47:25.998Z</time></trkpt><trkpt lat="44.7729667" lon="8.4485317"><ele>289.6666666666667</ele><time>2026-04-12T10:47:28.995Z</time></trkpt><trkpt lat="44.7729" lon="8.448575"><ele>288.8333333333333</ele><time>2026-04-12T10:47:29.995Z</time></trkpt><trkpt lat="44.7728017" lon="8.4486283"><ele>288.0</ele><time>2026-04-12T10:47:31.996Z</time></trkpt><trkpt lat="44.7727333" lon="8.4486383"><ele>288.6666666666667</ele><time>2026-04-12T10:47:32.999Z</time></trkpt><trkpt lat="44.7726617" lon="8.4486433"><ele>289.3333333333333</ele><time>2026-04-12T10:47:33.998Z</time></trkpt><trkpt lat="44.7725983" lon="8.448655"><ele>290.0</ele><time>2026-04-12T10:47:34.998Z</time></trkpt><trkpt lat="44.7725333" lon="8.4486067"><ele>290.66666666666663</ele><time>2026-04-12T10:47:35.997Z</time></trkpt><trkpt lat="44.7724617" lon="8.448515"><ele>291.3333333333333</ele><time>2026-04-12T10:47:36.998Z</time></trkpt><trkpt lat="44.77239" lon="8.4484367"><ele>292.0</ele><time>2026-04-12T10:47:37.995Z</time></trkpt><trkpt lat="44.77233" lon="8.44837"><ele>292.0</ele><time>2026-04-12T10:47:38.998Z</time></trkpt><trkpt lat="44.77229" lon="8.448255"><ele>292.0</ele><time>2026-04-12T10:47:39.996Z</time></trkpt><trkpt lat="44.77226" lon="8.4481717"><ele>292.0</ele><time>2026-04-12T10:47:40.994Z</time></trkpt><trkpt lat="44.77221" lon="8.4481083"><ele>292.0</ele><time>2026-04-12T10:47:41.993Z</time></trkpt><trkpt lat="44.772125" lon="8.44802"><ele>292.0</ele><time>2026-04-12T10:47:44Z</time></trkpt><trkpt lat="44.7719917" lon="8.44806"><ele>292.0</ele><time>2026-04-12T10:47:44.999Z</time></trkpt><trkpt lat="44.7718633" lon="8.4481"><ele>292.0</ele><time>2026-04-12T10:47:45.999Z</time></trkpt><trkpt lat="44.77178" lon="8.4481233"><ele>292.0</ele><time>2026-04-12T10:47:46.995Z</time></trkpt><trkpt lat="44.7717" lon="8.4481583"><ele>292.0</ele><time>2026-04-12T10:47:48.003Z</time></trkpt><trkpt lat="44.7716317" lon="8.4482433"><ele>292.0</ele><time>2026-04-12T10:47:48.996Z</time></trkpt><trkpt lat="44.77157" lon="8.4482883"><ele>291.0</ele><time>2026-04-12T10:47:49.993Z</time></trkpt><trkpt lat="44.7715017" lon="8.4483333"><ele>290.0</ele><time>2026-04-12T10:47:50.997Z</time></trkpt><trkpt lat="44.771455" lon="8.4484267"><ele>289.0</ele><time>2026-04-12T10:47:51.996Z</time></trkpt><trkpt lat="44.7714033" lon="8.448515"><ele>288.0</ele><time>2026-04-12T10:47:53Z</time></trkpt><trkpt lat="44.77135" lon="8.4486033"><ele>287.0</ele><time>2026-04-12T10:47:53.996Z</time></trkpt><trkpt lat="44.7713133" lon="8.4487033"><ele>286.0</ele><time>2026-04-12T10:47:55.001Z</time></trkpt><trkpt lat="44.771285" lon="8.44882"><ele>284.5</ele><time>2026-04-12T10:47:55.997Z</time></trkpt><trkpt lat="44.7712633" lon="8.448935"><ele>283.0</ele><time>2026-04-12T10:47:56.994Z</time></trkpt><trkpt lat="44.7712317" lon="8.4490367"><ele>281.5</ele><time>2026-04-12T10:47:57.995Z</time></trkpt><trkpt lat="44.771195" lon="8.44913"><ele>280.0</ele><time>2026-04-12T10:47:59.002Z</time></trkpt><trkpt lat="44.7711667" lon="8.4492183"><ele>278.5</ele><time>2026-04-12T10:48:00Z</time></trkpt><trkpt lat="44.77113" lon="8.4493033"><ele>277.0</ele><time>2026-04-12T10:48:00.997Z</time></trkpt><trkpt lat="44.77099" lon="8.449345"><ele>277.0</ele><time>2026-04-12T10:48:01.997Z</time></trkpt><trkpt lat="44.7709367" lon="8.4494017"><ele>277.0</ele><time>2026-04-12T10:48:02.997Z</time></trkpt><trkpt lat="44.7708567" lon="8.4494367"><ele>277.0</ele><time>2026-04-12T10:48:03.993Z</time></trkpt><trkpt lat="44.770715" lon="8.449405"><ele>277.0</ele><time>2026-04-12T10:48:04.997Z</time></trkpt><trkpt lat="44.7705817" lon="8.44938"><ele>277.0</ele><time>2026-04-12T10:48:05.995Z</time></trkpt><trkpt lat="44.7704567" lon="8.4493633"><ele>277.0</ele><time>2026-04-12T10:48:07.001Z</time></trkpt><trkpt lat="44.7703317" lon="8.4493483"><ele>277.0</ele><time>2026-04-12T10:48:07.999Z</time></trkpt><trkpt lat="44.7702067" lon="8.4493333"><ele>277.0</ele><time>2026-04-12T10:48:08.997Z</time></trkpt><trkpt lat="44.770085" lon="8.4493167"><ele>277.0</ele><time>2026-04-12T10:48:09.995Z</time></trkpt><trkpt lat="44.7699617" lon="8.4492983"><ele>275.5</ele><time>2026-04-12T10:48:11.002Z</time></trkpt><trkpt lat="44.7698467" lon="8.449285"><ele>274.0</ele><time>2026-04-12T10:48:11.995Z</time></trkpt><trkpt lat="44.769735" lon="8.4492767"><ele>272.5</ele><time>2026-04-12T10:48:12.993Z</time></trkpt><trkpt lat="44.7696233" lon="8.449295"><ele>271.0</ele><time>2026-04-12T10:48:13.996Z</time></trkpt><trkpt lat="44.76951" lon="8.4493083"><ele>271.0</ele><time>2026-04-12T10:48:14.993Z</time></trkpt><trkpt lat="44.7693983" lon="8.4493417"><ele>271.0</ele><time>2026-04-12T10:48:15.998Z</time></trkpt><trkpt lat="44.7692983" lon="8.4494117"><ele>271.0</ele><time>2026-04-12T10:48:16.994Z</time></trkpt><trkpt lat="44.7692083" lon="8.4495033"><ele>271.0</ele><time>2026-04-12T10:48:17.996Z</time></trkpt><trkpt lat="44.7691383" lon="8.4496283"><ele>268.0</ele><time>2026-04-12T10:48:18.996Z</time></trkpt><trkpt lat="44.7690783" lon="8.4497717"><ele>265.0</ele><time>2026-04-12T10:48:20.001Z</time></trkpt><trkpt lat="44.7690317" lon="8.4499367"><ele>262.0</ele><time>2026-04-12T10:48:20.998Z</time></trkpt><trkpt lat="44.7690017" lon="8.4501267"><ele>259.0</ele><time>2026-04-12T10:48:21.996Z</time></trkpt><trkpt lat="44.7689817" lon="8.45033"><ele>257.0</ele><time>2026-04-12T10:48:23.001Z</time></trkpt><trkpt lat="44.768955" lon="8.4505317"><ele>255.0</ele><time>2026-04-12T10:48:23.994Z</time></trkpt><trkpt lat="44.7689183" lon="8.4507333"><ele>253.0</ele><time>2026-04-12T10:48:24.997Z</time></trkpt><trkpt lat="44.7688717" lon="8.4509367"><ele>251.0</ele><time>2026-04-12T10:48:25.995Z</time></trkpt><trkpt lat="44.7688267" lon="8.4511417"><ele>250.0</ele><time>2026-04-12T10:48:26.998Z</time></trkpt><trkpt lat="44.7687867" lon="8.4513433"><ele>249.0</ele><time>2026-04-12T10:48:27.995Z</time></trkpt><trkpt lat="44.7687483" lon="8.45154"><ele>248.0</ele><time>2026-04-12T10:48:28.996Z</time></trkpt><trkpt lat="44.7687133" lon="8.4517283"><ele>247.0</ele><time>2026-04-12T10:48:29.998Z</time></trkpt><trkpt lat="44.7686817" lon="8.451905"><ele>247.0</ele><time>2026-04-12T10:48:30.995Z</time></trkpt><trkpt lat="44.768645" lon="8.4520833"><ele>247.0</ele><time>2026-04-12T10:48:31.995Z</time></trkpt><trkpt lat="44.76862" lon="8.4522467"><ele>247.0</ele><time>2026-04-12T10:48:32.999Z</time></trkpt><trkpt lat="44.76858" lon="8.4524067"><ele>247.0</ele><time>2026-04-12T10:48:33.995Z</time></trkpt><trkpt lat="44.768535" lon="8.452555"><ele>246.8</ele><time>2026-04-12T10:48:34.994Z</time></trkpt><trkpt lat="44.7684783" lon="8.4526917"><ele>246.6</ele><time>2026-04-12T10:48:35.994Z</time></trkpt><trkpt lat="44.768395" lon="8.4528067"><ele>246.40000000000003</ele><time>2026-04-12T10:48:37.001Z</time></trkpt><trkpt lat="44.7683217" lon="8.452885"><ele>246.20000000000002</ele><time>2026-04-12T10:48:37.997Z</time></trkpt><trkpt lat="44.7682183" lon="8.4529283"><ele>246.0</ele><time>2026-04-12T10:48:38.998Z</time></trkpt><trkpt lat="44.768115" lon="8.4529517"><ele>246.0</ele><time>2026-04-12T10:48:39.995Z</time></trkpt><trkpt lat="44.7680067" lon="8.4529433"><ele>246.0</ele><time>2026-04-12T10:48:40.996Z</time></trkpt><trkpt lat="44.7679033" lon="8.4529133"><ele>246.0</ele><time>2026-04-12T10:48:41.993Z</time></trkpt><trkpt lat="44.767795" lon="8.4528533"><ele>246.0</ele><time>2026-04-12T10:48:42.996Z</time></trkpt><trkpt lat="44.7676933" lon="8.452765"><ele>246.0</ele><time>2026-04-12T10:48:43.999Z</time></trkpt><trkpt lat="44.767595" lon="8.4526483"><ele>246.0</ele><time>2026-04-12T10:48:44.999Z</time></trkpt><trkpt lat="44.76751" lon="8.4524933"><ele>246.0</ele><time>2026-04-12T10:48:45.997Z</time></trkpt><trkpt lat="44.7674183" lon="8.45231"><ele>246.0</ele><time>2026-04-12T10:48:47.003Z</time></trkpt><trkpt lat="44.7673133" lon="8.452115"><ele>246.0</ele><time>2026-04-12T10:48:47.995Z</time></trkpt><trkpt lat="44.7672067" lon="8.451915"><ele>246.0</ele><time>2026-04-12T10:48:48.997Z</time></trkpt><trkpt lat="44.7671017" lon="8.4517067"><ele>246.0</ele><time>2026-04-12T10:48:49.995Z</time></trkpt><trkpt lat="44.7669933" lon="8.4514933"><ele>248.33333333333331</ele><time>2026-04-12T10:48:50.998Z</time></trkpt><trkpt lat="44.7668783" lon="8.4512733"><ele>250.66666666666666</ele><time>2026-04-12T10:48:51.995Z</time></trkpt><trkpt lat="44.7667667" lon="8.4510517"><ele>253.0</ele><time>2026-04-12T10:48:52.998Z</time></trkpt><trkpt lat="44.766655" lon="8.4508333"><ele>249.66666666666666</ele><time>2026-04-12T10:48:54Z</time></trkpt><trkpt lat="44.7665417" lon="8.4506183"><ele>246.33333333333331</ele><time>2026-04-12T10:48:54.999Z</time></trkpt><trkpt lat="44.7664333" lon="8.4504067"><ele>243.0</ele><time>2026-04-12T10:48:55.996Z</time></trkpt><trkpt lat="44.7663267" lon="8.4502017"><ele>243.0</ele><time>2026-04-12T10:48:56.997Z</time></trkpt><trkpt lat="44.7662267" lon="8.4500033"><ele>243.0</ele><time>2026-04-12T10:48:57.993Z</time></trkpt><trkpt lat="44.76613" lon="8.449815"><ele>243.0</ele><time>2026-04-12T10:48:58.995Z</time></trkpt><trkpt lat="44.7660433" lon="8.449645"><ele>241.4</ele><time>2026-04-12T10:48:59.995Z</time></trkpt><trkpt lat="44.7659733" lon="8.449495"><ele>239.8</ele><time>2026-04-12T10:49:00.995Z</time></trkpt><trkpt lat="44.765915" lon="8.4493733"><ele>238.2</ele><time>2026-04-12T10:49:01.992Z</time></trkpt><trkpt lat="44.76587" lon="8.4492883"><ele>236.6</ele><time>2026-04-12T10:49:02.994Z</time></trkpt><trkpt lat="44.7657967" lon="8.449205"><ele>235.0</ele><time>2026-04-12T10:49:04.995Z</time></trkpt><trkpt lat="44.7657333" lon="8.44925"><ele>235.0</ele><time>2026-04-12T10:49:05.995Z</time></trkpt><trkpt lat="44.7656267" lon="8.4494"><ele>235.0</ele><time>2026-04-12T10:49:08.001Z</time></trkpt><trkpt lat="44.7655867" lon="8.4495017"><ele>235.0</ele><time>2026-04-12T10:49:08.992Z</time></trkpt><trkpt lat="44.765555" lon="8.4496233"><ele>235.0</ele><time>2026-04-12T10:49:09.999Z</time></trkpt><trkpt lat="44.765535" lon="8.4497683"><ele>235.0</ele><time>2026-04-12T10:49:10.998Z</time></trkpt><trkpt lat="44.7655433" lon="8.4499033"><ele>234.0</ele><time>2026-04-12T10:49:11.998Z</time></trkpt><trkpt lat="44.76558" lon="8.45005"><ele>233.0</ele><time>2026-04-12T10:49:12.998Z</time></trkpt><trkpt lat="44.7656167" lon="8.4502217"><ele>232.0</ele><time>2026-04-12T10:49:14Z</time></trkpt><trkpt lat="44.7656717" lon="8.4504"><ele>231.0</ele><time>2026-04-12T10:49:14.995Z</time></trkpt><trkpt lat="44.765725" lon="8.45059"><ele>229.25</ele><time>2026-04-12T10:49:15.998Z</time></trkpt><trkpt lat="44.7657767" lon="8.4507883"><ele>227.5</ele><time>2026-04-12T10:49:16.996Z</time></trkpt><trkpt lat="44.7658333" lon="8.45098"><ele>225.75</ele><time>2026-04-12T10:49:17.998Z</time></trkpt><trkpt lat="44.76589" lon="8.4511717"><ele>224.0</ele><time>2026-04-12T10:49:18.996Z</time></trkpt><trkpt lat="44.7659417" lon="8.4513617"><ele>222.75</ele><time>2026-04-12T10:49:19.996Z</time></trkpt><trkpt lat="44.7659983" lon="8.451545"><ele>221.5</ele><time>2026-04-12T10:49:21.003Z</time></trkpt><trkpt lat="44.7660517" lon="8.4517317"><ele>220.25</ele><time>2026-04-12T10:49:21.995Z</time></trkpt><trkpt lat="44.766105" lon="8.4519167"><ele>219.0</ele><time>2026-04-12T10:49:22.995Z</time></trkpt><trkpt lat="44.766155" lon="8.4521033"><ele>220.0</ele><time>2026-04-12T10:49:23.991Z</time></trkpt><trkpt lat="44.7661983" lon="8.4522917"><ele>221.0</ele><time>2026-04-12T10:49:24.999Z</time></trkpt><trkpt lat="44.766245" lon="8.4524783"><ele>222.0</ele><time>2026-04-12T10:49:25.997Z</time></trkpt><trkpt lat="44.7662917" lon="8.45266"><ele>223.0</ele><time>2026-04-12T10:49:26.995Z</time></trkpt><trkpt lat="44.7663317" lon="8.4528433"><ele>221.5</ele><time>2026-04-12T10:49:27.998Z</time></trkpt><trkpt lat="44.7663783" lon="8.4530217"><ele>220.0</ele><time>2026-04-12T10:49:28.995Z</time></trkpt><trkpt lat="44.7664233" lon="8.4532"><ele>218.5</ele><time>2026-04-12T10:49:29.997Z</time></trkpt><trkpt lat="44.7664717" lon="8.4533767"><ele>217.0</ele><time>2026-04-12T10:49:31.001Z</time></trkpt><trkpt lat="44.7665183" lon="8.4535567"><ele>217.0</ele><time>2026-04-12T10:49:31.994Z</time></trkpt><trkpt lat="44.7665667" lon="8.45374"><ele>217.0</ele><time>2026-04-12T10:49:32.995Z</time></trkpt><trkpt lat="44.7666133" lon="8.4539283"><ele>217.0</ele><time>2026-04-12T10:49:33.994Z</time></trkpt><trkpt lat="44.7666567" lon="8.45413"><ele>217.0</ele><time>2026-04-12T10:49:34.997Z</time></trkpt><trkpt lat="44.7666933" lon="8.45434"><ele>214.66666666666666</ele><time>2026-04-12T10:49:36.001Z</time></trkpt><trkpt lat="44.76673" lon="8.4545583"><ele>212.33333333333331</ele><time>2026-04-12T10:49:36.996Z</time></trkpt><trkpt lat="44.7667667" lon="8.4547833"><ele>210.0</ele><time>2026-04-12T10:49:37.994Z</time></trkpt><trkpt lat="44.7668" lon="8.4550167"><ele>211.0</ele><time>2026-04-12T10:49:38.996Z</time></trkpt><trkpt lat="44.7668367" lon="8.4552567"><ele>212.0</ele><time>2026-04-12T10:49:39.998Z</time></trkpt><trkpt lat="44.7668767" lon="8.4554983"><ele>213.0</ele><time>2026-04-12T10:49:40.993Z</time></trkpt><trkpt lat="44.7669183" lon="8.4557417"><ele>213.0</ele><time>2026-04-12T10:49:41.996Z</time></trkpt><trkpt lat="44.7669617" lon="8.455985"><ele>213.0</ele><time>2026-04-12T10:49:42.999Z</time></trkpt><trkpt lat="44.76701" lon="8.4562233"><ele>213.0</ele><time>2026-04-12T10:49:43.994Z</time></trkpt><trkpt lat="44.76706" lon="8.4564633"><ele>210.66666666666669</ele><time>2026-04-12T10:49:45Z</time></trkpt><trkpt lat="44.7671083" lon="8.4567067"><ele>208.33333333333334</ele><time>2026-04-12T10:49:45.998Z</time></trkpt><trkpt lat="44.7671583" lon="8.4569517"><ele>206.0</ele><time>2026-04-12T10:49:46.997Z</time></trkpt><trkpt lat="44.7672083" lon="8.457195"><ele>204.66666666666669</ele><time>2026-04-12T10:49:47.997Z</time></trkpt><trkpt lat="44.76726" lon="8.4574383"><ele>203.33333333333331</ele><time>2026-04-12T10:49:48.998Z</time></trkpt><trkpt lat="44.76731" lon="8.4576817"><ele>202.0</ele><time>2026-04-12T10:49:49.994Z</time></trkpt><trkpt lat="44.76736" lon="8.45792"><ele>200.66666666666666</ele><time>2026-04-12T10:49:51.001Z</time></trkpt><trkpt lat="44.767405" lon="8.4581517"><ele>199.33333333333331</ele><time>2026-04-12T10:49:51.995Z</time></trkpt><trkpt lat="44.7674483" lon="8.458365"><ele>198.0</ele><time>2026-04-12T10:49:52.994Z</time></trkpt><trkpt lat="44.76747" lon="8.4585783"><ele>198.0</ele><time>2026-04-12T10:49:53.997Z</time></trkpt><trkpt lat="44.7674817" lon="8.4587817"><ele>198.0</ele><time>2026-04-12T10:49:54.996Z</time></trkpt><trkpt lat="44.7674867" lon="8.4589833"><ele>198.0</ele><time>2026-04-12T10:49:55.998Z</time></trkpt><trkpt lat="44.76748" lon="8.459185"><ele>198.0</ele><time>2026-04-12T10:49:57.001Z</time></trkpt><trkpt lat="44.7674667" lon="8.4593917"><ele>198.0</ele><time>2026-04-12T10:49:57.997Z</time></trkpt><trkpt lat="44.7674333" lon="8.4596033"><ele>198.0</ele><time>2026-04-12T10:49:58.994Z</time></trkpt><trkpt lat="44.767395" lon="8.45982"><ele>198.0</ele><time>2026-04-12T10:49:59.995Z</time></trkpt><trkpt lat="44.7673467" lon="8.4600517"><ele>198.0</ele><time>2026-04-12T10:50:00.996Z</time></trkpt><trkpt lat="44.7673017" lon="8.460285"><ele>198.0</ele><time>2026-04-12T10:50:01.996Z</time></trkpt><trkpt lat="44.7672483" lon="8.46053"><ele>198.0</ele><time>2026-04-12T10:50:02.997Z</time></trkpt><trkpt lat="44.767195" lon="8.4607817"><ele>197.66666666666669</ele><time>2026-04-12T10:50:03.997Z</time></trkpt><trkpt lat="44.767145" lon="8.4610217"><ele>197.33333333333334</ele><time>2026-04-12T10:50:04.993Z</time></trkpt><trkpt lat="44.767095" lon="8.461255"><ele>197.0</ele><time>2026-04-12T10:50:05.993Z</time></trkpt><trkpt lat="44.767045" lon="8.46148"><ele>197.0</ele><time>2026-04-12T10:50:06.996Z</time></trkpt><trkpt lat="44.7669933" lon="8.4616967"><ele>197.0</ele><time>2026-04-12T10:50:07.994Z</time></trkpt><trkpt lat="44.7669317" lon="8.461905"><ele>197.0</ele><time>2026-04-12T10:50:08.998Z</time></trkpt><trkpt lat="44.766875" lon="8.46211"><ele>192.0</ele><time>2026-04-12T10:50:09.995Z</time></trkpt><trkpt lat="44.7668117" lon="8.462305"><ele>187.0</ele><time>2026-04-12T10:50:10.993Z</time></trkpt><trkpt lat="44.766745" lon="8.4624967"><ele>182.0</ele><time>2026-04-12T10:50:11.991Z</time></trkpt><trkpt lat="44.76667" lon="8.4626817"><ele>182.0</ele><time>2026-04-12T10:50:12.994Z</time></trkpt><trkpt lat="44.7666067" lon="8.4628633"><ele>182.0</ele><time>2026-04-12T10:50:13.993Z</time></trkpt><trkpt lat="44.7665417" lon="8.4630417"><ele>182.0</ele><time>2026-04-12T10:50:14.994Z</time></trkpt><trkpt lat="44.766475" lon="8.463225"><ele>182.0</ele><time>2026-04-12T10:50:15.993Z</time></trkpt><trkpt lat="44.7664083" lon="8.4634017"><ele>182.0</ele><time>2026-04-12T10:50:16.996Z</time></trkpt><trkpt lat="44.7663467" lon="8.4635667"><ele>182.0</ele><time>2026-04-12T10:50:17.993Z</time></trkpt><trkpt lat="44.7662867" lon="8.46372"><ele>182.0</ele><time>2026-04-12T10:50:18.995Z</time></trkpt><trkpt lat="44.76623" lon="8.4638683"><ele>182.0</ele><time>2026-04-12T10:50:19.997Z</time></trkpt><trkpt lat="44.766165" lon="8.464005"><ele>182.0</ele><time>2026-04-12T10:50:20.996Z</time></trkpt><trkpt lat="44.7660833" lon="8.4641183"><ele>182.0</ele><time>2026-04-12T10:50:21.996Z</time></trkpt><trkpt lat="44.7659817" lon="8.4642083"><ele>182.0</ele><time>2026-04-12T10:50:22.998Z</time></trkpt><trkpt lat="44.76587" lon="8.4642883"><ele>182.0</ele><time>2026-04-12T10:50:23.997Z</time></trkpt><trkpt lat="44.765765" lon="8.464385"><ele>179.6</ele><time>2026-04-12T10:50:24.999Z</time></trkpt><trkpt lat="44.7656533" lon="8.4644617"><ele>177.2</ele><time>2026-04-12T10:50:25.999Z</time></trkpt><trkpt lat="44.7655433" lon="8.4645333"><ele>174.8</ele><time>2026-04-12T10:50:26.994Z</time></trkpt><trkpt lat="44.7654417" lon="8.4645867"><ele>172.4</ele><time>2026-04-12T10:50:27.999Z</time></trkpt><trkpt lat="44.765355" lon="8.4646317"><ele>170.0</ele><time>2026-04-12T10:50:28.995Z</time></trkpt><trkpt lat="44.76528" lon="8.46464"><ele>169.4</ele><time>2026-04-12T10:50:29.993Z</time></trkpt><trkpt lat="44.765205" lon="8.46464"><ele>168.8</ele><time>2026-04-12T10:50:30.997Z</time></trkpt><trkpt lat="44.7651333" lon="8.4646267"><ele>168.2</ele><time>2026-04-12T10:50:31.994Z</time></trkpt><trkpt lat="44.76503" lon="8.4645067"><ele>167.6</ele><time>2026-04-12T10:50:33.996Z</time></trkpt><trkpt lat="44.7649717" lon="8.46433"><ele>167.0</ele><time>2026-04-12T10:50:35.002Z</time></trkpt><trkpt lat="44.7649033" lon="8.464175"><ele>167.25</ele><time>2026-04-12T10:50:36.001Z</time></trkpt><trkpt lat="44.7648283" lon="8.4640183"><ele>167.5</ele><time>2026-04-12T10:50:36.993Z</time></trkpt><trkpt lat="44.7647533" lon="8.4638533"><ele>167.75</ele><time>2026-04-12T10:50:38.001Z</time></trkpt><trkpt lat="44.76468" lon="8.4636733"><ele>168.0</ele><time>2026-04-12T10:50:39.002Z</time></trkpt><trkpt lat="44.764595" lon="8.4634917"><ele>168.0</ele><time>2026-04-12T10:50:39.993Z</time></trkpt><trkpt lat="44.764505" lon="8.4633233"><ele>168.0</ele><time>2026-04-12T10:50:40.998Z</time></trkpt><trkpt lat="44.7644133" lon="8.4631767"><ele>168.0</ele><time>2026-04-12T10:50:41.999Z</time></trkpt><trkpt lat="44.764325" lon="8.4630567"><ele>168.0</ele><time>2026-04-12T10:50:42.997Z</time></trkpt><trkpt lat="44.7642317" lon="8.4629733"><ele>167.8</ele><time>2026-04-12T10:50:43.998Z</time></trkpt><trkpt lat="44.764145" lon="8.46292"><ele>167.60000000000002</ele><time>2026-04-12T10:50:44.998Z</time></trkpt><trkpt lat="44.7640667" lon="8.462895"><ele>167.39999999999998</ele><time>2026-04-12T10:50:46.004Z</time></trkpt><trkpt lat="44.7639367" lon="8.4629"><ele>167.2</ele><time>2026-04-12T10:50:48.004Z</time></trkpt><trkpt lat="44.76385" lon="8.46294"><ele>167.0</ele><time>2026-04-12T10:50:49.002Z</time></trkpt><trkpt lat="44.7637483" lon="8.4629783"><ele>165.5</ele><time>2026-04-12T10:50:49.995Z</time></trkpt><trkpt lat="44.7636333" lon="8.4630167"><ele>164.0</ele><time>2026-04-12T10:50:50.997Z</time></trkpt><trkpt lat="44.7635167" lon="8.4630517"><ele>162.5</ele><time>2026-04-12T10:50:51.997Z</time></trkpt><trkpt lat="44.763405" lon="8.4630817"><ele>161.0</ele><time>2026-04-12T10:50:52.997Z</time></trkpt><trkpt lat="44.7633067" lon="8.4631217"><ele>160.0</ele><time>2026-04-12T10:50:53.999Z</time></trkpt><trkpt lat="44.7632217" lon="8.463205"><ele>159.0</ele><time>2026-04-12T10:50:54.996Z</time></trkpt><trkpt lat="44.7631483" lon="8.46333"><ele>158.0</ele><time>2026-04-12T10:50:55.999Z</time></trkpt><trkpt lat="44.7630933" lon="8.4635083"><ele>157.0</ele><time>2026-04-12T10:50:56.996Z</time></trkpt><trkpt lat="44.76304" lon="8.4637167"><ele>157.33333333333334</ele><time>2026-04-12T10:50:57.997Z</time></trkpt><trkpt lat="44.7629817" lon="8.4639667"><ele>157.66666666666666</ele><time>2026-04-12T10:50:58.995Z</time></trkpt><trkpt lat="44.7629217" lon="8.464225"><ele>158.0</ele><time>2026-04-12T10:50:59.994Z</time></trkpt><trkpt lat="44.76286" lon="8.4644867"><ele>158.33333333333331</ele><time>2026-04-12T10:51:00.997Z</time></trkpt><trkpt lat="44.7627983" lon="8.464755"><ele>158.66666666666666</ele><time>2026-04-12T10:51:01.995Z</time></trkpt><trkpt lat="44.7627233" lon="8.4650333"><ele>159.0</ele><time>2026-04-12T10:51:02.997Z</time></trkpt><trkpt lat="44.7626483" lon="8.4653117"><ele>160.0</ele><time>2026-04-12T10:51:03.997Z</time></trkpt><trkpt lat="44.7625783" lon="8.4655783"><ele>161.0</ele><time>2026-04-12T10:51:04.995Z</time></trkpt><trkpt lat="44.7625133" lon="8.4658283"><ele>162.0</ele><time>2026-04-12T10:51:05.996Z</time></trkpt><trkpt lat="44.76244" lon="8.4660617"><ele>162.0</ele><time>2026-04-12T10:51:06.997Z</time></trkpt><trkpt lat="44.7623533" lon="8.466255"><ele>162.0</ele><time>2026-04-12T10:51:07.997Z</time></trkpt><trkpt lat="44.7622483" lon="8.4664233"><ele>162.0</ele><time>2026-04-12T10:51:08.999Z</time></trkpt><trkpt lat="44.76213" lon="8.4665617"><ele>162.33333333333334</ele><time>2026-04-12T10:51:09.993Z</time></trkpt><trkpt lat="44.7619883" lon="8.466675"><ele>162.66666666666669</ele><time>2026-04-12T10:51:10.995Z</time></trkpt><trkpt lat="44.7618267" lon="8.4667733"><ele>163.0</ele><time>2026-04-12T10:51:11.997Z</time></trkpt><trkpt lat="44.7616667" lon="8.4668583"><ele>164.75</ele><time>2026-04-12T10:51:12.996Z</time></trkpt><trkpt lat="44.7615117" lon="8.46693"><ele>166.5</ele><time>2026-04-12T10:51:13.999Z</time></trkpt><trkpt lat="44.7613817" lon="8.4669933"><ele>168.25</ele><time>2026-04-12T10:51:14.995Z</time></trkpt><trkpt lat="44.7612833" lon="8.4670717"><ele>170.0</ele><time>2026-04-12T10:51:15.995Z</time></trkpt><trkpt lat="44.7612167" lon="8.467165"><ele>170.2</ele><time>2026-04-12T10:51:16.993Z</time></trkpt><trkpt lat="44.7611817" lon="8.4672867"><ele>170.4</ele><time>2026-04-12T10:51:17.999Z</time></trkpt><trkpt lat="44.76118" lon="8.46743"><ele>170.60000000000002</ele><time>2026-04-12T10:51:18.999Z</time></trkpt><trkpt lat="44.76121" lon="8.46759"><ele>170.8</ele><time>2026-04-12T10:51:19.999Z</time></trkpt><trkpt lat="44.76125" lon="8.46776"><ele>171.0</ele><time>2026-04-12T10:51:20.996Z</time></trkpt><trkpt lat="44.76129" lon="8.4679333"><ele>171.60000000000002</ele><time>2026-04-12T10:51:21.993Z</time></trkpt><trkpt lat="44.7613167" lon="8.4681"><ele>172.2</ele><time>2026-04-12T10:51:22.994Z</time></trkpt><trkpt lat="44.7613183" lon="8.4682483"><ele>172.8</ele><time>2026-04-12T10:51:23.997Z</time></trkpt><trkpt lat="44.7612933" lon="8.4683833"><ele>173.39999999999998</ele><time>2026-04-12T10:51:24.995Z</time></trkpt><trkpt lat="44.76124" lon="8.4685067"><ele>174.0</ele><time>2026-04-12T10:51:26Z</time></trkpt><trkpt lat="44.7611667" lon="8.4686033"><ele>174.0</ele><time>2026-04-12T10:51:27Z</time></trkpt><trkpt lat="44.7610717" lon="8.4686633"><ele>174.0</ele><time>2026-04-12T10:51:27.998Z</time></trkpt><trkpt lat="44.760975" lon="8.4687317"><ele>174.0</ele><time>2026-04-12T10:51:28.999Z</time></trkpt><trkpt lat="44.7608933" lon="8.4688067"><ele>174.0</ele><time>2026-04-12T10:51:29.999Z</time></trkpt><trkpt lat="44.7608467" lon="8.46891"><ele>174.0</ele><time>2026-04-12T10:51:31.001Z</time></trkpt><trkpt lat="44.7608167" lon="8.4690183"><ele>175.0</ele><time>2026-04-12T10:51:31.999Z</time></trkpt><trkpt lat="44.7608467" lon="8.4691433"><ele>176.0</ele><time>2026-04-12T10:51:32.997Z</time></trkpt><trkpt lat="44.7608917" lon="8.4692667"><ele>177.0</ele><time>2026-04-12T10:51:33.998Z</time></trkpt><trkpt lat="44.760985" lon="8.46938"><ele>178.0</ele><time>2026-04-12T10:51:34.997Z</time></trkpt><trkpt lat="44.7610583" lon="8.4694933"><ele>179.0</ele><time>2026-04-12T10:51:35.999Z</time></trkpt><trkpt lat="44.7611217" lon="8.4696083"><ele>179.39999999999998</ele><time>2026-04-12T10:51:36.997Z</time></trkpt><trkpt lat="44.7611617" lon="8.4697417"><ele>179.8</ele><time>2026-04-12T10:51:37.995Z</time></trkpt><trkpt lat="44.7611833" lon="8.46989"><ele>180.2</ele><time>2026-04-12T10:51:39.001Z</time></trkpt><trkpt lat="44.76117" lon="8.4700483"><ele>180.60000000000002</ele><time>2026-04-12T10:51:39.996Z</time></trkpt><trkpt lat="44.7611317" lon="8.4702033"><ele>181.0</ele><time>2026-04-12T10:51:40.998Z</time></trkpt><trkpt lat="44.761075" lon="8.4703233"><ele>183.75</ele><time>2026-04-12T10:51:41.996Z</time></trkpt><trkpt lat="44.76099" lon="8.4704267"><ele>186.5</ele><time>2026-04-12T10:51:42.999Z</time></trkpt><trkpt lat="44.7608883" lon="8.4704967"><ele>189.25</ele><time>2026-04-12T10:51:44.005Z</time></trkpt><trkpt lat="44.7607767" lon="8.4705233"><ele>192.0</ele><time>2026-04-12T10:51:44.998Z</time></trkpt><trkpt lat="44.7606517" lon="8.4705"><ele>192.0</ele><time>2026-04-12T10:51:45.996Z</time></trkpt><trkpt lat="44.7605083" lon="8.4704417"><ele>192.0</ele><time>2026-04-12T10:51:46.998Z</time></trkpt><trkpt lat="44.7603517" lon="8.4703517"><ele>192.0</ele><time>2026-04-12T10:51:48.001Z</time></trkpt><trkpt lat="44.7601883" lon="8.4702533"><ele>197.66666666666669</ele><time>2026-04-12T10:51:48.998Z</time></trkpt><trkpt lat="44.760015" lon="8.470155"><ele>203.33333333333334</ele><time>2026-04-12T10:51:49.999Z</time></trkpt><trkpt lat="44.7598483" lon="8.47006"><ele>209.0</ele><time>2026-04-12T10:51:50.996Z</time></trkpt><trkpt lat="44.7596933" lon="8.4699733"><ele>209.0</ele><time>2026-04-12T10:51:51.996Z</time></trkpt><trkpt lat="44.759535" lon="8.4699183"><ele>209.0</ele><time>2026-04-12T10:51:52.996Z</time></trkpt><trkpt lat="44.7593783" lon="8.4698933"><ele>209.0</ele><time>2026-04-12T10:51:54Z</time></trkpt><trkpt lat="44.75922" lon="8.469895"><ele>210.75</ele><time>2026-04-12T10:51:54.998Z</time></trkpt><trkpt lat="44.75907" lon="8.469925"><ele>212.5</ele><time>2026-04-12T10:51:55.995Z</time></trkpt><trkpt lat="44.7589283" lon="8.4699783"><ele>214.25</ele><time>2026-04-12T10:51:56.993Z</time></trkpt><trkpt lat="44.758795" lon="8.4700483"><ele>216.0</ele><time>2026-04-12T10:51:57.994Z</time></trkpt><trkpt lat="44.7586717" lon="8.470155"><ele>216.0</ele><time>2026-04-12T10:51:58.994Z</time></trkpt><trkpt lat="44.7585717" lon="8.4702917"><ele>216.0</ele><time>2026-04-12T10:51:59.998Z</time></trkpt><trkpt lat="44.7584833" lon="8.470455"><ele>216.0</ele><time>2026-04-12T10:52:00.996Z</time></trkpt><trkpt lat="44.7584117" lon="8.47064"><ele>216.0</ele><time>2026-04-12T10:52:02.001Z</time></trkpt><trkpt lat="44.7583567" lon="8.4708433"><ele>220.33333333333331</ele><time>2026-04-12T10:52:03.007Z</time></trkpt><trkpt lat="44.7583133" lon="8.4710567"><ele>224.66666666666666</ele><time>2026-04-12T10:52:03.996Z</time></trkpt><trkpt lat="44.758275" lon="8.4712817"><ele>229.0</ele><time>2026-04-12T10:52:05Z</time></trkpt><trkpt lat="44.7582333" lon="8.471505"><ele>229.33333333333331</ele><time>2026-04-12T10:52:05.995Z</time></trkpt><trkpt lat="44.7581933" lon="8.471725"><ele>229.66666666666669</ele><time>2026-04-12T10:52:06.998Z</time></trkpt><trkpt lat="44.7581567" lon="8.4719533"><ele>230.0</ele><time>2026-04-12T10:52:07.993Z</time></trkpt><trkpt lat="44.7581317" lon="8.4721767"><ele>232.0</ele><time>2026-04-12T10:52:08.995Z</time></trkpt><trkpt lat="44.75814" lon="8.472395"><ele>234.0</ele><time>2026-04-12T10:52:09.994Z</time></trkpt><trkpt lat="44.7581733" lon="8.472605"><ele>236.0</ele><time>2026-04-12T10:52:10.996Z</time></trkpt><trkpt lat="44.758225" lon="8.472805"><ele>237.0</ele><time>2026-04-12T10:52:11.993Z</time></trkpt><trkpt lat="44.758285" lon="8.472995"><ele>238.0</ele><time>2026-04-12T10:52:13.003Z</time></trkpt><trkpt lat="44.7583383" lon="8.473175"><ele>239.0</ele><time>2026-04-12T10:52:13.997Z</time></trkpt><trkpt lat="44.7583667" lon="8.4733417"><ele>240.0</ele><time>2026-04-12T10:52:14.997Z</time></trkpt><trkpt lat="44.7583733" lon="8.47349"><ele>240.0</ele><time>2026-04-12T10:52:15.998Z</time></trkpt><trkpt lat="44.7583433" lon="8.4736317"><ele>240.0</ele><time>2026-04-12T10:52:16.996Z</time></trkpt><trkpt lat="44.7582883" lon="8.47376"><ele>240.0</ele><time>2026-04-12T10:52:17.996Z</time></trkpt><trkpt lat="44.7581983" lon="8.4738667"><ele>240.0</ele><time>2026-04-12T10:52:19.002Z</time></trkpt><trkpt lat="44.7580917" lon="8.473955"><ele>240.83333333333334</ele><time>2026-04-12T10:52:19.997Z</time></trkpt><trkpt lat="44.757985" lon="8.4740367"><ele>241.66666666666669</ele><time>2026-04-12T10:52:21.002Z</time></trkpt><trkpt lat="44.7578967" lon="8.47411"><ele>242.5</ele><time>2026-04-12T10:52:21.999Z</time></trkpt><trkpt lat="44.7578233" lon="8.4741567"><ele>243.33333333333334</ele><time>2026-04-12T10:52:22.994Z</time></trkpt><trkpt lat="44.7577617" lon="8.4741833"><ele>244.16666666666669</ele><time>2026-04-12T10:52:23.999Z</time></trkpt><trkpt lat="44.7577083" lon="8.47411"><ele>245.0</ele><time>2026-04-12T10:52:24.996Z</time></trkpt><trkpt lat="44.7576683" lon="8.4740033"><ele>245.5</ele><time>2026-04-12T10:52:25.996Z</time></trkpt><trkpt lat="44.7576183" lon="8.47388"><ele>246.0</ele><time>2026-04-12T10:52:26.997Z</time></trkpt><trkpt lat="44.757565" lon="8.4737283"><ele>246.5</ele><time>2026-04-12T10:52:27.998Z</time></trkpt><trkpt lat="44.7575067" lon="8.4735683"><ele>247.0</ele><time>2026-04-12T10:52:28.994Z</time></trkpt><trkpt lat="44.757445" lon="8.473415"><ele>247.75</ele><time>2026-04-12T10:52:30Z</time></trkpt><trkpt lat="44.7573867" lon="8.4732617"><ele>248.5</ele><time>2026-04-12T10:52:30.993Z</time></trkpt><trkpt lat="44.7573183" lon="8.47311"><ele>249.25</ele><time>2026-04-12T10:52:31.996Z</time></trkpt><trkpt lat="44.75725" lon="8.4729617"><ele>250.0</ele><time>2026-04-12T10:52:32.998Z</time></trkpt><trkpt lat="44.7571783" lon="8.47282"><ele>250.0</ele><time>2026-04-12T10:52:33.997Z</time></trkpt><trkpt lat="44.757085" lon="8.4727033"><ele>250.0</ele><time>2026-04-12T10:52:34.999Z</time></trkpt><trkpt lat="44.7569767" lon="8.47262"><ele>250.0</ele><time>2026-04-12T10:52:35.998Z</time></trkpt><trkpt lat="44.7568483" lon="8.472565"><ele>250.0</ele><time>2026-04-12T10:52:36.995Z</time></trkpt><trkpt lat="44.756715" lon="8.472515"><ele>251.0</ele><time>2026-04-12T10:52:37.992Z</time></trkpt><trkpt lat="44.7565833" lon="8.4724717"><ele>252.0</ele><time>2026-04-12T10:52:38.998Z</time></trkpt><trkpt lat="44.75645" lon="8.4724283"><ele>253.0</ele><time>2026-04-12T10:52:39.995Z</time></trkpt><trkpt lat="44.7563217" lon="8.4723767"><ele>254.0</ele><time>2026-04-12T10:52:40.997Z</time></trkpt><trkpt lat="44.7562033" lon="8.4723133"><ele>254.0</ele><time>2026-04-12T10:52:41.996Z</time></trkpt><trkpt lat="44.756095" lon="8.4722167"><ele>254.0</ele><time>2026-04-12T10:52:42.994Z</time></trkpt><trkpt lat="44.7559917" lon="8.4720917"><ele>254.0</ele><time>2026-04-12T10:52:43.994Z</time></trkpt><trkpt lat="44.7558883" lon="8.471965"><ele>254.0</ele><time>2026-04-12T10:52:44.995Z</time></trkpt><trkpt lat="44.7557983" lon="8.4718267"><ele>254.0</ele><time>2026-04-12T10:52:45.996Z</time></trkpt><trkpt lat="44.7557183" lon="8.47166"><ele>254.0</ele><time>2026-04-12T10:52:46.993Z</time></trkpt><trkpt lat="44.7556517" lon="8.4714667"><ele>254.0</ele><time>2026-04-12T10:52:47.997Z</time></trkpt><trkpt lat="44.7555933" lon="8.4712517"><ele>256.6666666666667</ele><time>2026-04-12T10:52:48.996Z</time></trkpt><trkpt lat="44.7555317" lon="8.4710167"><ele>259.3333333333333</ele><time>2026-04-12T10:52:49.994Z</time></trkpt><trkpt lat="44.7554683" lon="8.4707717"><ele>262.0</ele><time>2026-04-12T10:52:50.997Z</time></trkpt><trkpt lat="44.7554117" lon="8.4705217"><ele>263.66666666666663</ele><time>2026-04-12T10:52:51.992Z</time></trkpt><trkpt lat="44.7553583" lon="8.47028"><ele>265.3333333333333</ele><time>2026-04-12T10:52:52.998Z</time></trkpt><trkpt lat="44.7552867" lon="8.470045"><ele>267.0</ele><time>2026-04-12T10:52:53.999Z</time></trkpt><trkpt lat="44.7552083" lon="8.4698167"><ele>262.6666666666667</ele><time>2026-04-12T10:52:55.006Z</time></trkpt><trkpt lat="44.755125" lon="8.4696017"><ele>258.33333333333337</ele><time>2026-04-12T10:52:55.992Z</time></trkpt><trkpt lat="44.7550483" lon="8.4693917"><ele>254.0</ele><time>2026-04-12T10:52:56.997Z</time></trkpt><trkpt lat="44.7549717" lon="8.4691883"><ele>254.0</ele><time>2026-04-12T10:52:57.994Z</time></trkpt><trkpt lat="44.75489" lon="8.4689983"><ele>254.0</ele><time>2026-04-12T10:52:58.998Z</time></trkpt><trkpt lat="44.7547967" lon="8.4688233"><ele>254.0</ele><time>2026-04-12T10:53:00Z</time></trkpt><trkpt lat="44.754685" lon="8.468675"><ele>255.25</ele><time>2026-04-12T10:53:00.995Z</time></trkpt><trkpt lat="44.7545633" lon="8.468555"><ele>256.5</ele><time>2026-04-12T10:53:01.997Z</time></trkpt><trkpt lat="44.7544383" lon="8.468455"><ele>257.75</ele><time>2026-04-12T10:53:02.996Z</time></trkpt><trkpt lat="44.754325" lon="8.4683467"><ele>259.0</ele><time>2026-04-12T10:53:03.994Z</time></trkpt><trkpt lat="44.7542183" lon="8.4682233"><ele>257.0</ele><time>2026-04-12T10:53:04.994Z</time></trkpt><trkpt lat="44.7541267" lon="8.4680733"><ele>255.0</ele><time>2026-04-12T10:53:05.996Z</time></trkpt><trkpt lat="44.7540483" lon="8.467905"><ele>253.0</ele><time>2026-04-12T10:53:06.997Z</time></trkpt><trkpt lat="44.75397" lon="8.4677367"><ele>251.0</ele><time>2026-04-12T10:53:07.994Z</time></trkpt><trkpt lat="44.753895" lon="8.46757"><ele>251.0</ele><time>2026-04-12T10:53:08.995Z</time></trkpt><trkpt lat="44.753815" lon="8.4674167"><ele>251.0</ele><time>2026-04-12T10:53:09.995Z</time></trkpt><trkpt lat="44.7537267" lon="8.4672817"><ele>251.0</ele><time>2026-04-12T10:53:10.993Z</time></trkpt><trkpt lat="44.7536217" lon="8.4671633"><ele>251.0</ele><time>2026-04-12T10:53:11.995Z</time></trkpt><trkpt lat="44.7534983" lon="8.467065"><ele>250.0</ele><time>2026-04-12T10:53:12.995Z</time></trkpt><trkpt lat="44.75336" lon="8.4669817"><ele>249.0</ele><time>2026-04-12T10:53:13.993Z</time></trkpt><trkpt lat="44.7532117" lon="8.4669"><ele>248.0</ele><time>2026-04-12T10:53:14.998Z</time></trkpt><trkpt lat="44.7530617" lon="8.4668167"><ele>248.0</ele><time>2026-04-12T10:53:15.994Z</time></trkpt><trkpt lat="44.752925" lon="8.46673"><ele>248.0</ele><time>2026-04-12T10:53:16.993Z</time></trkpt><trkpt lat="44.7527967" lon="8.4666383"><ele>248.0</ele><time>2026-04-12T10:53:17.995Z</time></trkpt><trkpt lat="44.75269" lon="8.4665483"><ele>248.0</ele><time>2026-04-12T10:53:18.997Z</time></trkpt><trkpt lat="44.7526133" lon="8.4664467"><ele>246.25</ele><time>2026-04-12T10:53:19.995Z</time></trkpt><trkpt lat="44.7525433" lon="8.4663283"><ele>244.5</ele><time>2026-04-12T10:53:21.002Z</time></trkpt><trkpt lat="44.7524767" lon="8.4661917"><ele>242.75</ele><time>2026-04-12T10:53:21.992Z</time></trkpt><trkpt lat="44.7524033" lon="8.4660633"><ele>241.0</ele><time>2026-04-12T10:53:22.996Z</time></trkpt><trkpt lat="44.7523217" lon="8.4659383"><ele>241.0</ele><time>2026-04-12T10:53:23.997Z</time></trkpt><trkpt lat="44.7522267" lon="8.4658117"><ele>241.0</ele><time>2026-04-12T10:53:24.996Z</time></trkpt><trkpt lat="44.7521217" lon="8.4656933"><ele>241.0</ele><time>2026-04-12T10:53:25.992Z</time></trkpt><trkpt lat="44.7520067" lon="8.4655817"><ele>241.0</ele><time>2026-04-12T10:53:27Z</time></trkpt><trkpt lat="44.75187" lon="8.4655"><ele>238.60000000000002</ele><time>2026-04-12T10:53:27.994Z</time></trkpt><trkpt lat="44.75174" lon="8.4654433"><ele>236.20000000000002</ele><time>2026-04-12T10:53:28.995Z</time></trkpt><trkpt lat="44.7516233" lon="8.4653967"><ele>233.79999999999998</ele><time>2026-04-12T10:53:29.993Z</time></trkpt><trkpt lat="44.7515283" lon="8.46536"><ele>231.39999999999998</ele><time>2026-04-12T10:53:30.998Z</time></trkpt><trkpt lat="44.7514517" lon="8.4653267"><ele>229.0</ele><time>2026-04-12T10:53:31.994Z</time></trkpt><trkpt lat="44.75139" lon="8.4653"><ele>229.0</ele><time>2026-04-12T10:53:32.999Z</time></trkpt><trkpt lat="44.7513117" lon="8.465275"><ele>228.99999999999997</ele><time>2026-04-12T10:53:34.996Z</time></trkpt><trkpt lat="44.7512217" lon="8.4652533"><ele>228.99999999999997</ele><time>2026-04-12T10:54:22.994Z</time></trkpt><trkpt lat="44.7511467" lon="8.4652283"><ele>229.0</ele><time>2026-04-12T10:54:24.997Z</time></trkpt><trkpt lat="44.7510233" lon="8.4651717"><ele>229.0</ele><time>2026-04-12T10:54:26.997Z</time></trkpt><trkpt lat="44.7509433" lon="8.46514"><ele>229.2</ele><time>2026-04-12T10:54:27.996Z</time></trkpt><trkpt lat="44.7508467" lon="8.4651067"><ele>229.39999999999998</ele><time>2026-04-12T10:54:28.993Z</time></trkpt><trkpt lat="44.7507467" lon="8.4650717"><ele>229.6</ele><time>2026-04-12T10:54:29.997Z</time></trkpt><trkpt lat="44.7506383" lon="8.46503"><ele>229.8</ele><time>2026-04-12T10:54:30.999Z</time></trkpt><trkpt lat="44.7505333" lon="8.4649917"><ele>230.0</ele><time>2026-04-12T10:54:31.996Z</time></trkpt><trkpt lat="44.7504133" lon="8.46495"><ele>230.0</ele><time>2026-04-12T10:54:33.003Z</time></trkpt><trkpt lat="44.750295" lon="8.4649067"><ele>230.0</ele><time>2026-04-12T10:54:33.992Z</time></trkpt><trkpt lat="44.7501717" lon="8.4648667"><ele>230.0</ele><time>2026-04-12T10:54:34.997Z</time></trkpt><trkpt lat="44.7500433" lon="8.46483"><ele>230.0</ele><time>2026-04-12T10:54:35.995Z</time></trkpt><trkpt lat="44.7499083" lon="8.464815"><ele>231.5</ele><time>2026-04-12T10:54:36.994Z</time></trkpt><trkpt lat="44.7497717" lon="8.464805"><ele>233.0</ele><time>2026-04-12T10:54:37.995Z</time></trkpt><trkpt lat="44.749625" lon="8.464795"><ele>234.5</ele><time>2026-04-12T10:54:38.995Z</time></trkpt><trkpt lat="44.749475" lon="8.4647867"><ele>236.0</ele><time>2026-04-12T10:54:40Z</time></trkpt><trkpt lat="44.7493217" lon="8.4647817"><ele>236.25</ele><time>2026-04-12T10:54:40.995Z</time></trkpt><trkpt lat="44.7491717" lon="8.4647683"><ele>236.5</ele><time>2026-04-12T10:54:42.001Z</time></trkpt><trkpt lat="44.7490367" lon="8.4647567"><ele>236.75</ele><time>2026-04-12T10:54:42.999Z</time></trkpt><trkpt lat="44.74891" lon="8.4647433"><ele>237.0</ele><time>2026-04-12T10:54:43.996Z</time></trkpt><trkpt lat="44.7487917" lon="8.46473"><ele>237.0</ele><time>2026-04-12T10:54:44.997Z</time></trkpt><trkpt lat="44.748675" lon="8.4647217"><ele>237.0</ele><time>2026-04-12T10:54:45.994Z</time></trkpt><trkpt lat="44.7485517" lon="8.4647267"><ele>237.0</ele><time>2026-04-12T10:54:46.997Z</time></trkpt><trkpt lat="44.7484533" lon="8.4647783"><ele>237.0</ele><time>2026-04-12T10:54:47.994Z</time></trkpt><trkpt lat="44.7483617" lon="8.4648583"><ele>237.25</ele><time>2026-04-12T10:54:48.997Z</time></trkpt><trkpt lat="44.7482733" lon="8.4649717"><ele>237.5</ele><time>2026-04-12T10:54:49.995Z</time></trkpt><trkpt lat="44.7481867" lon="8.4651017"><ele>237.75</ele><time>2026-04-12T10:54:50.997Z</time></trkpt><trkpt lat="44.7481017" lon="8.4652467"><ele>238.0</ele><time>2026-04-12T10:54:51.995Z</time></trkpt><trkpt lat="44.7480167" lon="8.4654017"><ele>238.0</ele><time>2026-04-12T10:54:52.994Z</time></trkpt><trkpt lat="44.7479333" lon="8.4655583"><ele>238.0</ele><time>2026-04-12T10:54:53.997Z</time></trkpt><trkpt lat="44.7478433" lon="8.4657083"><ele>238.0</ele><time>2026-04-12T10:54:54.999Z</time></trkpt><trkpt lat="44.7477467" lon="8.4658567"><ele>238.0</ele><time>2026-04-12T10:54:55.995Z</time></trkpt><trkpt lat="44.7476567" lon="8.46601"><ele>238.25</ele><time>2026-04-12T10:54:56.996Z</time></trkpt><trkpt lat="44.7475567" lon="8.4661267"><ele>238.5</ele><time>2026-04-12T10:54:57.996Z</time></trkpt><trkpt lat="44.7474433" lon="8.466205"><ele>238.75</ele><time>2026-04-12T10:54:58.997Z</time></trkpt><trkpt lat="44.7473133" lon="8.4662467"><ele>239.0</ele><time>2026-04-12T10:54:59.994Z</time></trkpt><trkpt lat="44.7471733" lon="8.4662567"><ele>239.0</ele><time>2026-04-12T10:55:00.996Z</time></trkpt><trkpt lat="44.747035" lon="8.4662533"><ele>239.0</ele><time>2026-04-12T10:55:01.996Z</time></trkpt><trkpt lat="44.746895" lon="8.4662333"><ele>239.0</ele><time>2026-04-12T10:55:02.999Z</time></trkpt><trkpt lat="44.7467533" lon="8.4662067"><ele>239.0</ele><time>2026-04-12T10:55:03.997Z</time></trkpt><trkpt lat="44.74661" lon="8.4661833"><ele>240.25</ele><time>2026-04-12T10:55:04.994Z</time></trkpt><trkpt lat="44.7464683" lon="8.4661733"><ele>241.5</ele><time>2026-04-12T10:55:05.997Z</time></trkpt><trkpt lat="44.7463283" lon="8.4661683"><ele>242.75</ele><time>2026-04-12T10:55:06.997Z</time></trkpt><trkpt lat="44.74618" lon="8.466195"><ele>244.0</ele><time>2026-04-12T10:55:07.999Z</time></trkpt><trkpt lat="44.7460417" lon="8.466245"><ele>247.75</ele><time>2026-04-12T10:55:08.994Z</time></trkpt><trkpt lat="44.7459067" lon="8.4663133"><ele>251.5</ele><time>2026-04-12T10:55:09.991Z</time></trkpt><trkpt lat="44.74577" lon="8.466385"><ele>255.25</ele><time>2026-04-12T10:55:11.001Z</time></trkpt><trkpt lat="44.745635" lon="8.46645"><ele>259.0</ele><time>2026-04-12T10:55:12.005Z</time></trkpt><trkpt lat="44.7455033" lon="8.46651"><ele>259.0</ele><time>2026-04-12T10:55:12.998Z</time></trkpt><trkpt lat="44.7453683" lon="8.46656"><ele>259.0</ele><time>2026-04-12T10:55:13.995Z</time></trkpt><trkpt lat="44.7452283" lon="8.4666017"><ele>259.0</ele><time>2026-04-12T10:55:14.997Z</time></trkpt><trkpt lat="44.7450833" lon="8.46664"><ele>259.0</ele><time>2026-04-12T10:55:15.997Z</time></trkpt><trkpt lat="44.7449333" lon="8.4666667"><ele>259.0</ele><time>2026-04-12T10:55:16.996Z</time></trkpt><trkpt lat="44.7447833" lon="8.4666717"><ele>259.0</ele><time>2026-04-12T10:55:17.999Z</time></trkpt><trkpt lat="44.7446317" lon="8.46667"><ele>259.0</ele><time>2026-04-12T10:55:18.999Z</time></trkpt><trkpt lat="44.7444783" lon="8.4666583"><ele>260.66666666666663</ele><time>2026-04-12T10:55:19.998Z</time></trkpt><trkpt lat="44.7443233" lon="8.4666483"><ele>262.3333333333333</ele><time>2026-04-12T10:55:20.999Z</time></trkpt><trkpt lat="44.7441667" lon="8.4666367"><ele>264.0</ele><time>2026-04-12T10:55:21.998Z</time></trkpt><trkpt lat="44.7440217" lon="8.46662"><ele>264.0</ele><time>2026-04-12T10:55:23Z</time></trkpt><trkpt lat="44.7438783" lon="8.46661"><ele>264.0</ele><time>2026-04-12T10:55:23.996Z</time></trkpt><trkpt lat="44.743745" lon="8.4666067"><ele>264.0</ele><time>2026-04-12T10:55:24.997Z</time></trkpt><trkpt lat="44.7436217" lon="8.466635"><ele>264.0</ele><time>2026-04-12T10:55:25.998Z</time></trkpt><trkpt lat="44.7434967" lon="8.4666933"><ele>264.75</ele><time>2026-04-12T10:55:26.998Z</time></trkpt><trkpt lat="44.7433817" lon="8.4667667"><ele>265.5</ele><time>2026-04-12T10:55:27.996Z</time></trkpt><trkpt lat="44.743275" lon="8.4668617"><ele>266.25</ele><time>2026-04-12T10:55:29.004Z</time></trkpt><trkpt lat="44.7431667" lon="8.4669583"><ele>267.0</ele><time>2026-04-12T10:55:29.997Z</time></trkpt><trkpt lat="44.7430533" lon="8.4670483"><ele>270.5</ele><time>2026-04-12T10:55:30.999Z</time></trkpt><trkpt lat="44.7429267" lon="8.4671117"><ele>274.0</ele><time>2026-04-12T10:55:31.996Z</time></trkpt><trkpt lat="44.742795" lon="8.46715"><ele>277.5</ele><time>2026-04-12T10:55:32.995Z</time></trkpt><trkpt lat="44.742655" lon="8.4671733"><ele>281.0</ele><time>2026-04-12T10:55:33.996Z</time></trkpt><trkpt lat="44.7425167" lon="8.4671917"><ele>281.0</ele><time>2026-04-12T10:55:34.996Z</time></trkpt><trkpt lat="44.7423717" lon="8.4672133"><ele>281.0</ele><time>2026-04-12T10:55:35.994Z</time></trkpt><trkpt lat="44.7422267" lon="8.467235"><ele>281.0</ele><time>2026-04-12T10:55:36.997Z</time></trkpt><trkpt lat="44.7420833" lon="8.4672583"><ele>281.0</ele><time>2026-04-12T10:55:37.999Z</time></trkpt><trkpt lat="44.7419483" lon="8.4672817"><ele>281.8</ele><time>2026-04-12T10:55:38.997Z</time></trkpt><trkpt lat="44.741825" lon="8.467305"><ele>282.6</ele><time>2026-04-12T10:55:40Z</time></trkpt><trkpt lat="44.7417133" lon="8.4673367"><ele>283.4</ele><time>2026-04-12T10:55:40.994Z</time></trkpt><trkpt lat="44.74161" lon="8.467385"><ele>284.2</ele><time>2026-04-12T10:55:41.999Z</time></trkpt><trkpt lat="44.7415267" lon="8.467455"><ele>285.0</ele><time>2026-04-12T10:55:42.997Z</time></trkpt><trkpt lat="44.741465" lon="8.4675483"><ele>285.0</ele><time>2026-04-12T10:55:43.998Z</time></trkpt><trkpt lat="44.74142" lon="8.467635"><ele>285.0</ele><time>2026-04-12T10:55:45.001Z</time></trkpt><trkpt lat="44.7413933" lon="8.467735"><ele>285.0</ele><time>2026-04-12T10:55:45.994Z</time></trkpt><trkpt lat="44.74138" lon="8.4678467"><ele>285.0</ele><time>2026-04-12T10:55:46.998Z</time></trkpt><trkpt lat="44.741395" lon="8.46796"><ele>285.0</ele><time>2026-04-12T10:55:47.994Z</time></trkpt><trkpt lat="44.7414267" lon="8.4680683"><ele>285.0</ele><time>2026-04-12T10:55:48.997Z</time></trkpt><trkpt lat="44.7414733" lon="8.4681667"><ele>284.5</ele><time>2026-04-12T10:55:49.995Z</time></trkpt><trkpt lat="44.7415417" lon="8.468265"><ele>284.0</ele><time>2026-04-12T10:55:50.993Z</time></trkpt><trkpt lat="44.7415917" lon="8.4683783"><ele>283.5</ele><time>2026-04-12T10:55:51.996Z</time></trkpt><trkpt lat="44.7416283" lon="8.4685033"><ele>283.0</ele><time>2026-04-12T10:55:52.998Z</time></trkpt><trkpt lat="44.7416217" lon="8.46861"><ele>282.5</ele><time>2026-04-12T10:55:54Z</time></trkpt><trkpt lat="44.7415967" lon="8.4687067"><ele>282.0</ele><time>2026-04-12T10:55:54.999Z</time></trkpt><trkpt lat="44.741495" lon="8.4687683"><ele>280.0</ele><time>2026-04-12T10:55:55.995Z</time></trkpt><trkpt lat="44.7413833" lon="8.4688367"><ele>278.0</ele><time>2026-04-12T10:55:56.995Z</time></trkpt><trkpt lat="44.7412683" lon="8.46892"><ele>276.0</ele><time>2026-04-12T10:55:58Z</time></trkpt><trkpt lat="44.7411567" lon="8.46903"><ele>274.0</ele><time>2026-04-12T10:55:58.996Z</time></trkpt><trkpt lat="44.7410583" lon="8.4691667"><ele>274.5</ele><time>2026-04-12T10:55:59.996Z</time></trkpt><trkpt lat="44.7409767" lon="8.469325"><ele>275.0</ele><time>2026-04-12T10:56:01Z</time></trkpt><trkpt lat="44.7409083" lon="8.46949"><ele>275.5</ele><time>2026-04-12T10:56:01.999Z</time></trkpt><trkpt lat="44.7408417" lon="8.4696483"><ele>276.0</ele><time>2026-04-12T10:56:02.994Z</time></trkpt><trkpt lat="44.7407683" lon="8.4697983"><ele>274.75</ele><time>2026-04-12T10:56:03.996Z</time></trkpt><trkpt lat="44.740695" lon="8.46994"><ele>273.5</ele><time>2026-04-12T10:56:04.999Z</time></trkpt><trkpt lat="44.7406133" lon="8.470065"><ele>272.25</ele><time>2026-04-12T10:56:05.994Z</time></trkpt><trkpt lat="44.7405317" lon="8.47018"><ele>271.0</ele><time>2026-04-12T10:56:06.999Z</time></trkpt><trkpt lat="44.74045" lon="8.4702917"><ele>271.0</ele><time>2026-04-12T10:56:07.994Z</time></trkpt><trkpt lat="44.7403717" lon="8.4704033"><ele>271.0</ele><time>2026-04-12T10:56:08.998Z</time></trkpt><trkpt lat="44.7402867" lon="8.4705033"><ele>271.0</ele><time>2026-04-12T10:56:09.995Z</time></trkpt><trkpt lat="44.7402" lon="8.4706017"><ele>271.0</ele><time>2026-04-12T10:56:10.994Z</time></trkpt><trkpt lat="44.7401217" lon="8.470685"><ele>271.0</ele><time>2026-04-12T10:56:11.998Z</time></trkpt><trkpt lat="44.7400383" lon="8.470735"><ele>269.0</ele><time>2026-04-12T10:56:12.998Z</time></trkpt><trkpt lat="44.739955" lon="8.4707633"><ele>267.0</ele><time>2026-04-12T10:56:13.997Z</time></trkpt><trkpt lat="44.73987" lon="8.4707733"><ele>265.0</ele><time>2026-04-12T10:56:14.999Z</time></trkpt><trkpt lat="44.7397833" lon="8.4707033"><ele>263.0</ele><time>2026-04-12T10:56:15.994Z</time></trkpt><trkpt lat="44.7396933" lon="8.4706017"><ele>261.0</ele><time>2026-04-12T10:56:16.996Z</time></trkpt><trkpt lat="44.7396183" lon="8.470475"><ele>259.5</ele><time>2026-04-12T10:56:18.001Z</time></trkpt><trkpt lat="44.739555" lon="8.4703317"><ele>258.0</ele><time>2026-04-12T10:56:18.995Z</time></trkpt><trkpt lat="44.739495" lon="8.4701817"><ele>256.5</ele><time>2026-04-12T10:56:19.997Z</time></trkpt><trkpt lat="44.7394333" lon="8.4700283"><ele>255.0</ele><time>2026-04-12T10:56:20.994Z</time></trkpt><trkpt lat="44.739365" lon="8.46987"><ele>255.0</ele><time>2026-04-12T10:56:21.996Z</time></trkpt><trkpt lat="44.7392917" lon="8.4697217"><ele>255.0</ele><time>2026-04-12T10:56:22.998Z</time></trkpt><trkpt lat="44.7392067" lon="8.4695983"><ele>255.0</ele><time>2026-04-12T10:56:23.999Z</time></trkpt><trkpt lat="44.7391133" lon="8.4695133"><ele>255.0</ele><time>2026-04-12T10:56:24.993Z</time></trkpt><trkpt lat="44.7390117" lon="8.4694683"><ele>255.0</ele><time>2026-04-12T10:56:25.993Z</time></trkpt><trkpt lat="44.73889" lon="8.46948"><ele>255.0</ele><time>2026-04-12T10:56:26.997Z</time></trkpt><trkpt lat="44.7387633" lon="8.4695383"><ele>255.0</ele><time>2026-04-12T10:56:27.998Z</time></trkpt><trkpt lat="44.738635" lon="8.4696283"><ele>255.0</ele><time>2026-04-12T10:56:29.002Z</time></trkpt><trkpt lat="44.7385067" lon="8.46973"><ele>252.75</ele><time>2026-04-12T10:56:29.997Z</time></trkpt><trkpt lat="44.7383817" lon="8.4698333"><ele>250.5</ele><time>2026-04-12T10:56:30.998Z</time></trkpt><trkpt lat="44.738265" lon="8.4699333"><ele>248.25</ele><time>2026-04-12T10:56:31.998Z</time></trkpt><trkpt lat="44.7381583" lon="8.4700233"><ele>246.0</ele><time>2026-04-12T10:56:33Z</time></trkpt><trkpt lat="44.7380633" lon="8.470095"><ele>246.0</ele><time>2026-04-12T10:56:33.992Z</time></trkpt><trkpt lat="44.737975" lon="8.47015"><ele>246.00000000000003</ele><time>2026-04-12T10:56:34.995Z</time></trkpt><trkpt lat="44.737885" lon="8.4701733"><ele>246.00000000000003</ele><time>2026-04-12T10:56:35.992Z</time></trkpt><trkpt lat="44.73779" lon="8.4701633"><ele>246.0</ele><time>2026-04-12T10:56:36.998Z</time></trkpt><trkpt lat="44.737695" lon="8.470135"><ele>246.0</ele><time>2026-04-12T10:56:37.995Z</time></trkpt><trkpt lat="44.7375933" lon="8.4701017"><ele>245.4</ele><time>2026-04-12T10:56:38.996Z</time></trkpt><trkpt lat="44.7374917" lon="8.4700467"><ele>244.8</ele><time>2026-04-12T10:56:40.001Z</time></trkpt><trkpt lat="44.7374017" lon="8.4699667"><ele>244.20000000000002</ele><time>2026-04-12T10:56:40.995Z</time></trkpt><trkpt lat="44.7373117" lon="8.469875"><ele>243.60000000000002</ele><time>2026-04-12T10:56:41.996Z</time></trkpt><trkpt lat="44.7372267" lon="8.4697667"><ele>243.0</ele><time>2026-04-12T10:56:42.994Z</time></trkpt><trkpt lat="44.7371417" lon="8.4696517"><ele>243.0</ele><time>2026-04-12T10:56:43.999Z</time></trkpt><trkpt lat="44.7370617" lon="8.46955"><ele>243.0</ele><time>2026-04-12T10:56:44.997Z</time></trkpt><trkpt lat="44.736985" lon="8.4694817"><ele>243.0</ele><time>2026-04-12T10:56:45.998Z</time></trkpt><trkpt lat="44.7369267" lon="8.4694217"><ele>243.0</ele><time>2026-04-12T10:56:46.997Z</time></trkpt><trkpt lat="44.7368483" lon="8.4694367"><ele>243.0</ele><time>2026-04-12T10:56:48.995Z</time></trkpt><trkpt lat="44.7368567" lon="8.4695517"><ele>243.0</ele><time>2026-04-12T10:56:50.995Z</time></trkpt><trkpt lat="44.736935" lon="8.4697117"><ele>243.0</ele><time>2026-04-12T10:56:52.994Z</time></trkpt><trkpt lat="44.7369883" lon="8.4698217"><ele>243.0</ele><time>2026-04-12T10:56:53.994Z</time></trkpt><trkpt lat="44.7370533" lon="8.4699517"><ele>243.0</ele><time>2026-04-12T10:56:54.997Z</time></trkpt><trkpt lat="44.73712" lon="8.4701083"><ele>243.0</ele><time>2026-04-12T10:56:55.995Z</time></trkpt><trkpt lat="44.737185" lon="8.47026"><ele>243.0</ele><time>2026-04-12T10:56:56.997Z</time></trkpt><trkpt lat="44.7372483" lon="8.47041"><ele>243.0</ele><time>2026-04-12T10:56:57.996Z</time></trkpt><trkpt lat="44.737325" lon="8.47055"><ele>243.0</ele><time>2026-04-12T10:56:58.995Z</time></trkpt><trkpt lat="44.73742" lon="8.470655"><ele>243.0</ele><time>2026-04-12T10:56:59.992Z</time></trkpt><trkpt lat="44.7375317" lon="8.4707267"><ele>242.0</ele><time>2026-04-12T10:57:00.997Z</time></trkpt><trkpt lat="44.7376433" lon="8.4707967"><ele>241.0</ele><time>2026-04-12T10:57:01.995Z</time></trkpt><trkpt lat="44.7377433" lon="8.4709"><ele>240.0</ele><time>2026-04-12T10:57:02.997Z</time></trkpt><trkpt lat="44.7378317" lon="8.4710283"><ele>239.0</ele><time>2026-04-12T10:57:03.994Z</time></trkpt><trkpt lat="44.73791" lon="8.4711867"><ele>238.0</ele><time>2026-04-12T10:57:04.995Z</time></trkpt><trkpt lat="44.737985" lon="8.4713717"><ele>237.0</ele><time>2026-04-12T10:57:05.998Z</time></trkpt><trkpt lat="44.73806" lon="8.4715567"><ele>236.0</ele><time>2026-04-12T10:57:07Z</time></trkpt><trkpt lat="44.738135" lon="8.4717467"><ele>236.0</ele><time>2026-04-12T10:57:07.996Z</time></trkpt><trkpt lat="44.738205" lon="8.471935"><ele>236.0</ele><time>2026-04-12T10:57:08.995Z</time></trkpt><trkpt lat="44.7382633" lon="8.472115"><ele>236.0</ele><time>2026-04-12T10:57:10.006Z</time></trkpt><trkpt lat="44.73831" lon="8.4722833"><ele>236.0</ele><time>2026-04-12T10:57:10.996Z</time></trkpt><trkpt lat="44.738335" lon="8.4724467"><ele>233.5</ele><time>2026-04-12T10:57:11.997Z</time></trkpt><trkpt lat="44.7383283" lon="8.4726083"><ele>231.0</ele><time>2026-04-12T10:57:13.001Z</time></trkpt><trkpt lat="44.7382917" lon="8.47276"><ele>228.5</ele><time>2026-04-12T10:57:13.995Z</time></trkpt><trkpt lat="44.7382183" lon="8.4728967"><ele>226.0</ele><time>2026-04-12T10:57:14.998Z</time></trkpt><trkpt lat="44.73812" lon="8.4730133"><ele>225.75</ele><time>2026-04-12T10:57:15.999Z</time></trkpt><trkpt lat="44.7380117" lon="8.47312"><ele>225.5</ele><time>2026-04-12T10:57:16.994Z</time></trkpt><trkpt lat="44.73791" lon="8.4732367"><ele>225.25</ele><time>2026-04-12T10:57:17.994Z</time></trkpt><trkpt lat="44.7378217" lon="8.4733833"><ele>225.0</ele><time>2026-04-12T10:57:19.004Z</time></trkpt><trkpt lat="44.7377617" lon="8.4735567"><ele>225.0</ele><time>2026-04-12T10:57:19.998Z</time></trkpt><trkpt lat="44.7377283" lon="8.4737433"><ele>225.0</ele><time>2026-04-12T10:57:20.995Z</time></trkpt><trkpt lat="44.7377167" lon="8.4739383"><ele>225.0</ele><time>2026-04-12T10:57:21.996Z</time></trkpt><trkpt lat="44.73774" lon="8.4741433"><ele>225.0</ele><time>2026-04-12T10:57:23.001Z</time></trkpt><trkpt lat="44.737795" lon="8.47433"><ele>224.66666666666669</ele><time>2026-04-12T10:57:23.997Z</time></trkpt><trkpt lat="44.7378767" lon="8.474515"><ele>224.33333333333334</ele><time>2026-04-12T10:57:24.993Z</time></trkpt><trkpt lat="44.737955" lon="8.47471"><ele>224.0</ele><time>2026-04-12T10:57:25.998Z</time></trkpt><trkpt lat="44.7380133" lon="8.4749117"><ele>224.0</ele><time>2026-04-12T10:57:26.995Z</time></trkpt><trkpt lat="44.738045" lon="8.47513"><ele>224.0</ele><time>2026-04-12T10:57:27.995Z</time></trkpt><trkpt lat="44.738075" lon="8.4753533"><ele>224.0</ele><time>2026-04-12T10:57:29Z</time></trkpt><trkpt lat="44.7381233" lon="8.4755783"><ele>224.33333333333334</ele><time>2026-04-12T10:57:29.996Z</time></trkpt><trkpt lat="44.7381817" lon="8.4758033"><ele>224.66666666666669</ele><time>2026-04-12T10:57:30.997Z</time></trkpt><trkpt lat="44.7382633" lon="8.4760183"><ele>225.0</ele><time>2026-04-12T10:57:31.996Z</time></trkpt><trkpt lat="44.73835" lon="8.4762283"><ele>225.66666666666669</ele><time>2026-04-12T10:57:32.998Z</time></trkpt><trkpt lat="44.738435" lon="8.47643"><ele>226.33333333333334</ele><time>2026-04-12T10:57:34Z</time></trkpt><trkpt lat="44.7385183" lon="8.4766333"><ele>227.0</ele><time>2026-04-12T10:57:34.994Z</time></trkpt><trkpt lat="44.7385983" lon="8.4768367"><ele>226.66666666666669</ele><time>2026-04-12T10:57:35.995Z</time></trkpt><trkpt lat="44.73868" lon="8.4770267"><ele>226.33333333333331</ele><time>2026-04-12T10:57:36.996Z</time></trkpt><trkpt lat="44.73877" lon="8.477195"><ele>226.0</ele><time>2026-04-12T10:57:37.999Z</time></trkpt><trkpt lat="44.7388767" lon="8.4773333"><ele>226.0</ele><time>2026-04-12T10:57:38.998Z</time></trkpt><trkpt lat="44.738995" lon="8.47744"><ele>226.0</ele><time>2026-04-12T10:57:39.999Z</time></trkpt><trkpt lat="44.7391167" lon="8.4775417"><ele>226.0</ele><time>2026-04-12T10:57:40.996Z</time></trkpt><trkpt lat="44.7392383" lon="8.477645"><ele>226.0</ele><time>2026-04-12T10:57:41.999Z</time></trkpt><trkpt lat="44.7393383" lon="8.4777733"><ele>224.25</ele><time>2026-04-12T10:57:43.001Z</time></trkpt><trkpt lat="44.73943" lon="8.477915"><ele>222.5</ele><time>2026-04-12T10:57:43.993Z</time></trkpt><trkpt lat="44.739515" lon="8.4780733"><ele>220.75</ele><time>2026-04-12T10:57:44.994Z</time></trkpt><trkpt lat="44.7395967" lon="8.47824"><ele>219.0</ele><time>2026-04-12T10:57:45.994Z</time></trkpt><trkpt lat="44.739675" lon="8.4784067"><ele>219.0</ele><time>2026-04-12T10:57:46.995Z</time></trkpt><trkpt lat="44.73974" lon="8.4785617"><ele>218.99999999999997</ele><time>2026-04-12T10:57:47.999Z</time></trkpt><trkpt lat="44.7397917" lon="8.4786933"><ele>218.99999999999997</ele><time>2026-04-12T10:57:49Z</time></trkpt><trkpt lat="44.739825" lon="8.47881"><ele>219.0</ele><time>2026-04-12T10:57:49.996Z</time></trkpt><trkpt lat="44.73984" lon="8.4789317"><ele>219.0</ele><time>2026-04-12T10:57:50.997Z</time></trkpt><trkpt lat="44.7398383" lon="8.479055"><ele>220.16666666666666</ele><time>2026-04-12T10:57:51.996Z</time></trkpt><trkpt lat="44.7398317" lon="8.4791783"><ele>221.33333333333331</ele><time>2026-04-12T10:57:52.993Z</time></trkpt><trkpt lat="44.73983" lon="8.4792883"><ele>222.5</ele><time>2026-04-12T10:57:53.995Z</time></trkpt><trkpt lat="44.73983" lon="8.47938"><ele>223.66666666666666</ele><time>2026-04-12T10:57:54.995Z</time></trkpt><trkpt lat="44.7398183" lon="8.4794883"><ele>224.83333333333331</ele><time>2026-04-12T10:57:56.997Z</time></trkpt><trkpt lat="44.7397467" lon="8.4794217"><ele>226.0</ele><time>2026-04-12T10:58:00.996Z</time></trkpt><trkpt lat="44.7397383" lon="8.4792667"><ele>225.99999999999997</ele><time>2026-04-12T10:58:02.994Z</time></trkpt><trkpt lat="44.7397317" lon="8.4791483"><ele>226.0</ele><time>2026-04-12T10:58:03.996Z</time></trkpt><trkpt lat="44.7397133" lon="8.4790267"><ele>226.0</ele><time>2026-04-12T10:58:04.994Z</time></trkpt><trkpt lat="44.7396783" lon="8.4789117"><ele>226.0</ele><time>2026-04-12T10:58:05.995Z</time></trkpt><trkpt lat="44.7396333" lon="8.4788033"><ele>225.99999999999997</ele><time>2026-04-12T10:58:06.993Z</time></trkpt><trkpt lat="44.739575" lon="8.47871"><ele>226.0</ele><time>2026-04-12T10:58:07.992Z</time></trkpt><trkpt lat="44.7394983" lon="8.4786217"><ele>224.25</ele><time>2026-04-12T10:58:08.996Z</time></trkpt><trkpt lat="44.7393933" lon="8.478535"><ele>222.5</ele><time>2026-04-12T10:58:10Z</time></trkpt><trkpt lat="44.7392817" lon="8.478445"><ele>220.75</ele><time>2026-04-12T10:58:10.996Z</time></trkpt><trkpt lat="44.7391667" lon="8.4783583"><ele>219.0</ele><time>2026-04-12T10:58:11.997Z</time></trkpt><trkpt lat="44.7390483" lon="8.4782833"><ele>222.75</ele><time>2026-04-12T10:58:13Z</time></trkpt><trkpt lat="44.738925" lon="8.4782267"><ele>226.5</ele><time>2026-04-12T10:58:13.996Z</time></trkpt><trkpt lat="44.7387967" lon="8.478185"><ele>230.25</ele><time>2026-04-12T10:58:14.999Z</time></trkpt><trkpt lat="44.7386617" lon="8.4781583"><ele>234.0</ele><time>2026-04-12T10:58:15.997Z</time></trkpt><trkpt lat="44.738515" lon="8.4781417"><ele>236.0</ele><time>2026-04-12T10:58:16.996Z</time></trkpt><trkpt lat="44.7383667" lon="8.4781217"><ele>238.0</ele><time>2026-04-12T10:58:18Z</time></trkpt><trkpt lat="44.7382217" lon="8.478105"><ele>240.0</ele><time>2026-04-12T10:58:19.002Z</time></trkpt><trkpt lat="44.738075" lon="8.4780883"><ele>242.0</ele><time>2026-04-12T10:58:19.994Z</time></trkpt><trkpt lat="44.7379367" lon="8.4780717"><ele>242.0</ele><time>2026-04-12T10:58:20.992Z</time></trkpt><trkpt lat="44.7377933" lon="8.4780467"><ele>242.0</ele><time>2026-04-12T10:58:21.993Z</time></trkpt><trkpt lat="44.7376417" lon="8.4780183"><ele>242.0</ele><time>2026-04-12T10:58:22.996Z</time></trkpt><trkpt lat="44.7375" lon="8.47799"><ele>242.0</ele><time>2026-04-12T10:58:23.994Z</time></trkpt><trkpt lat="44.73735" lon="8.4779617"><ele>242.66666666666669</ele><time>2026-04-12T10:58:24.992Z</time></trkpt><trkpt lat="44.737195" lon="8.4779433"><ele>243.33333333333331</ele><time>2026-04-12T10:58:25.995Z</time></trkpt><trkpt lat="44.7370383" lon="8.477935"><ele>244.0</ele><time>2026-04-12T10:58:26.997Z</time></trkpt><trkpt lat="44.7368783" lon="8.4779367"><ele>248.66666666666666</ele><time>2026-04-12T10:58:27.997Z</time></trkpt><trkpt lat="44.7367167" lon="8.47795"><ele>253.33333333333331</ele><time>2026-04-12T10:58:28.994Z</time></trkpt><trkpt lat="44.736555" lon="8.4779817"><ele>258.0</ele><time>2026-04-12T10:58:29.998Z</time></trkpt><trkpt lat="44.7364017" lon="8.47803"><ele>258.0</ele><time>2026-04-12T10:58:31.002Z</time></trkpt><trkpt lat="44.7362533" lon="8.4781033"><ele>258.0</ele><time>2026-04-12T10:58:32.002Z</time></trkpt><trkpt lat="44.7361133" lon="8.47819"><ele>258.0</ele><time>2026-04-12T10:58:32.996Z</time></trkpt><trkpt lat="44.7359817" lon="8.4782583"><ele>258.6</ele><time>2026-04-12T10:58:33.997Z</time></trkpt><trkpt lat="44.73587" lon="8.4782883"><ele>259.20000000000005</ele><time>2026-04-12T10:58:35.004Z</time></trkpt><trkpt lat="44.73577" lon="8.47827"><ele>259.8</ele><time>2026-04-12T10:58:35.996Z</time></trkpt><trkpt lat="44.7356767" lon="8.4781983"><ele>260.40000000000003</ele><time>2026-04-12T10:58:36.995Z</time></trkpt><trkpt lat="44.7355833" lon="8.4781067"><ele>261.0</ele><time>2026-04-12T10:58:37.998Z</time></trkpt><trkpt lat="44.7354883" lon="8.4779917"><ele>261.25</ele><time>2026-04-12T10:58:38.998Z</time></trkpt><trkpt lat="44.735385" lon="8.477875"><ele>261.5</ele><time>2026-04-12T10:58:39.997Z</time></trkpt><trkpt lat="44.7353017" lon="8.4777533"><ele>261.75</ele><time>2026-04-12T10:58:40.992Z</time></trkpt><trkpt lat="44.7352417" lon="8.4776133"><ele>262.0</ele><time>2026-04-12T10:58:41.995Z</time></trkpt><trkpt lat="44.7352033" lon="8.477455"><ele>263.75</ele><time>2026-04-12T10:58:42.995Z</time></trkpt><trkpt lat="44.7351783" lon="8.4772717"><ele>265.5</ele><time>2026-04-12T10:58:43.998Z</time></trkpt><trkpt lat="44.7351617" lon="8.4770667"><ele>267.25</ele><time>2026-04-12T10:58:44.995Z</time></trkpt><trkpt lat="44.7351567" lon="8.4768433"><ele>269.0</ele><time>2026-04-12T10:58:45.995Z</time></trkpt><trkpt lat="44.7351567" lon="8.4766033"><ele>272.33333333333337</ele><time>2026-04-12T10:58:46.998Z</time></trkpt><trkpt lat="44.7351567" lon="8.4763617"><ele>275.6666666666667</ele><time>2026-04-12T10:58:47.994Z</time></trkpt><trkpt lat="44.7351567" lon="8.4761217"><ele>279.0</ele><time>2026-04-12T10:58:48.995Z</time></trkpt><trkpt lat="44.7351517" lon="8.4758833"><ele>281.0</ele><time>2026-04-12T10:58:49.995Z</time></trkpt><trkpt lat="44.7351333" lon="8.47565"><ele>283.0</ele><time>2026-04-12T10:58:50.997Z</time></trkpt><trkpt lat="44.7351067" lon="8.4754167"><ele>285.0</ele><time>2026-04-12T10:58:51.997Z</time></trkpt><trkpt lat="44.7350717" lon="8.475185"><ele>286.6666666666667</ele><time>2026-04-12T10:58:52.995Z</time></trkpt><trkpt lat="44.7350417" lon="8.4749533"><ele>288.33333333333337</ele><time>2026-04-12T10:58:53.998Z</time></trkpt><trkpt lat="44.7350317" lon="8.474725"><ele>290.0</ele><time>2026-04-12T10:58:54.999Z</time></trkpt><trkpt lat="44.735045" lon="8.4744967"><ele>291.6666666666667</ele><time>2026-04-12T10:58:55.998Z</time></trkpt><trkpt lat="44.735065" lon="8.4742717"><ele>293.3333333333333</ele><time>2026-04-12T10:58:56.999Z</time></trkpt><trkpt lat="44.73509" lon="8.4740533"><ele>295.0</ele><time>2026-04-12T10:58:57.995Z</time></trkpt><trkpt lat="44.735105" lon="8.4738483"><ele>295.5</ele><time>2026-04-12T10:58:58.995Z</time></trkpt><trkpt lat="44.735105" lon="8.4736467"><ele>296.0</ele><time>2026-04-12T10:58:59.993Z</time></trkpt><trkpt lat="44.7350817" lon="8.47344"><ele>296.5</ele><time>2026-04-12T10:59:00.993Z</time></trkpt><trkpt lat="44.7350483" lon="8.473225"><ele>297.0</ele><time>2026-04-12T10:59:01.997Z</time></trkpt><trkpt lat="44.7350117" lon="8.473005"><ele>297.5</ele><time>2026-04-12T10:59:03Z</time></trkpt><trkpt lat="44.734985" lon="8.472785"><ele>298.0</ele><time>2026-04-12T10:59:03.992Z</time></trkpt><trkpt lat="44.734965" lon="8.472575"><ele>298.5</ele><time>2026-04-12T10:59:04.994Z</time></trkpt><trkpt lat="44.7349583" lon="8.4723817"><ele>299.0</ele><time>2026-04-12T10:59:05.993Z</time></trkpt><trkpt lat="44.7349633" lon="8.472205"><ele>298.4</ele><time>2026-04-12T10:59:06.995Z</time></trkpt><trkpt lat="44.73497" lon="8.472045"><ele>297.79999999999995</ele><time>2026-04-12T10:59:07.994Z</time></trkpt><trkpt lat="44.7349667" lon="8.4719"><ele>297.20000000000005</ele><time>2026-04-12T10:59:08.999Z</time></trkpt><trkpt lat="44.73494" lon="8.4717783"><ele>296.6</ele><time>2026-04-12T10:59:09.998Z</time></trkpt><trkpt lat="44.734905" lon="8.4716733"><ele>296.0</ele><time>2026-04-12T10:59:11.002Z</time></trkpt><trkpt lat="44.7348583" lon="8.471595"><ele>296.0</ele><time>2026-04-12T10:59:11.994Z</time></trkpt><trkpt lat="44.73477" lon="8.4716383"><ele>296.0</ele><time>2026-04-12T10:59:12.998Z</time></trkpt><trkpt lat="44.7346783" lon="8.471665"><ele>296.0</ele><time>2026-04-12T10:59:13.995Z</time></trkpt><trkpt lat="44.7345933" lon="8.4717083"><ele>296.0</ele><time>2026-04-12T10:59:14.993Z</time></trkpt><trkpt lat="44.7345083" lon="8.4717833"><ele>296.0</ele><time>2026-04-12T10:59:15.999Z</time></trkpt><trkpt lat="44.7344133" lon="8.47187"><ele>297.2</ele><time>2026-04-12T10:59:16.995Z</time></trkpt><trkpt lat="44.73431" lon="8.4719317"><ele>298.40000000000003</ele><time>2026-04-12T10:59:18Z</time></trkpt><trkpt lat="44.7342" lon="8.47196"><ele>299.6</ele><time>2026-04-12T10:59:18.994Z</time></trkpt><trkpt lat="44.7340967" lon="8.4719483"><ele>300.8</ele><time>2026-04-12T10:59:19.994Z</time></trkpt><trkpt lat="44.7339983" lon="8.4719017"><ele>302.0</ele><time>2026-04-12T10:59:21Z</time></trkpt><trkpt lat="44.7339117" lon="8.4718267"><ele>302.0</ele><time>2026-04-12T10:59:21.996Z</time></trkpt><trkpt lat="44.7338283" lon="8.4717367"><ele>302.0</ele><time>2026-04-12T10:59:22.998Z</time></trkpt><trkpt lat="44.7337467" lon="8.4716467"><ele>302.0</ele><time>2026-04-12T10:59:23.997Z</time></trkpt><trkpt lat="44.73366" lon="8.4715617"><ele>302.0</ele><time>2026-04-12T10:59:24.998Z</time></trkpt><trkpt lat="44.7335633" lon="8.4714883"><ele>302.0</ele><time>2026-04-12T10:59:26.002Z</time></trkpt><trkpt lat="44.7334617" lon="8.4714183"><ele>303.4</ele><time>2026-04-12T10:59:26.999Z</time></trkpt><trkpt lat="44.7333667" lon="8.471345"><ele>304.79999999999995</ele><time>2026-04-12T10:59:27.999Z</time></trkpt><trkpt lat="44.7332767" lon="8.4712567"><ele>306.2</ele><time>2026-04-12T10:59:28.996Z</time></trkpt><trkpt lat="44.7331967" lon="8.4711483"><ele>307.59999999999997</ele><time>2026-04-12T10:59:29.998Z</time></trkpt><trkpt lat="44.73312" lon="8.4710367"><ele>309.0</ele><time>2026-04-12T10:59:30.996Z</time></trkpt><trkpt lat="44.73304" lon="8.4709483"><ele>309.0</ele><time>2026-04-12T10:59:31.994Z</time></trkpt><trkpt lat="44.7329667" lon="8.47089"><ele>309.0</ele><time>2026-04-12T10:59:32.997Z</time></trkpt><trkpt lat="44.7328933" lon="8.47087"><ele>309.0</ele><time>2026-04-12T10:59:33.999Z</time></trkpt><trkpt lat="44.7328267" lon="8.470875"><ele>309.0</ele><time>2026-04-12T10:59:34.998Z</time></trkpt><trkpt lat="44.7327717" lon="8.4709183"><ele>309.0</ele><time>2026-04-12T10:59:35.998Z</time></trkpt><trkpt lat="44.7326717" lon="8.470975"><ele>309.0</ele><time>2026-04-12T10:59:37.995Z</time></trkpt><trkpt lat="44.732565" lon="8.4710433"><ele>309.59999999999997</ele><time>2026-04-12T10:59:39.995Z</time></trkpt><trkpt lat="44.7324567" lon="8.47111"><ele>310.2</ele><time>2026-04-12T10:59:41.994Z</time></trkpt><trkpt lat="44.732345" lon="8.4711867"><ele>310.79999999999995</ele><time>2026-04-12T10:59:43.996Z</time></trkpt><trkpt lat="44.7322717" lon="8.4712367"><ele>311.4</ele><time>2026-04-12T10:59:44.996Z</time></trkpt><trkpt lat="44.732195" lon="8.4713017"><ele>312.0</ele><time>2026-04-12T10:59:45.996Z</time></trkpt><trkpt lat="44.732115" lon="8.47138"><ele>314.4</ele><time>2026-04-12T10:59:46.996Z</time></trkpt><trkpt lat="44.7320333" lon="8.4714717"><ele>316.79999999999995</ele><time>2026-04-12T10:59:47.997Z</time></trkpt><trkpt lat="44.7319633" lon="8.4715917"><ele>319.2</ele><time>2026-04-12T10:59:48.999Z</time></trkpt><trkpt lat="44.7318917" lon="8.4716933"><ele>321.59999999999997</ele><time>2026-04-12T10:59:49.996Z</time></trkpt><trkpt lat="44.7318233" lon="8.4717967"><ele>324.0</ele><time>2026-04-12T10:59:50.999Z</time></trkpt><trkpt lat="44.7317583" lon="8.4718967"><ele>324.0</ele><time>2026-04-12T10:59:51.995Z</time></trkpt><trkpt lat="44.731685" lon="8.4719883"><ele>324.0</ele><time>2026-04-12T10:59:53Z</time></trkpt><trkpt lat="44.7316067" lon="8.4720783"><ele>324.0</ele><time>2026-04-12T10:59:53.996Z</time></trkpt><trkpt lat="44.73153" lon="8.4721767"><ele>324.0</ele><time>2026-04-12T10:59:55.003Z</time></trkpt><trkpt lat="44.7314467" lon="8.47228"><ele>324.0</ele><time>2026-04-12T10:59:55.996Z</time></trkpt><trkpt lat="44.731365" lon="8.4723867"><ele>325.79999999999995</ele><time>2026-04-12T10:59:57.001Z</time></trkpt><trkpt lat="44.7312783" lon="8.4724817"><ele>327.59999999999997</ele><time>2026-04-12T10:59:57.998Z</time></trkpt><trkpt lat="44.7311933" lon="8.4725817"><ele>329.4</ele><time>2026-04-12T10:59:58.998Z</time></trkpt><trkpt lat="44.73111" lon="8.4726867"><ele>331.2</ele><time>2026-04-12T10:59:59.999Z</time></trkpt><trkpt lat="44.731025" lon="8.4727933"><ele>333.0</ele><time>2026-04-12T11:00:01.003Z</time></trkpt><trkpt lat="44.730945" lon="8.4729017"><ele>333.79999999999995</ele><time>2026-04-12T11:00:01.996Z</time></trkpt><trkpt lat="44.7308633" lon="8.4729983"><ele>334.6</ele><time>2026-04-12T11:00:03.001Z</time></trkpt><trkpt lat="44.73079" lon="8.473085"><ele>335.4</ele><time>2026-04-12T11:00:03.997Z</time></trkpt><trkpt lat="44.7307167" lon="8.4731567"><ele>336.20000000000005</ele><time>2026-04-12T11:00:04.995Z</time></trkpt><trkpt lat="44.73064" lon="8.4732117"><ele>337.0</ele><time>2026-04-12T11:00:05.998Z</time></trkpt><trkpt lat="44.7305467" lon="8.473155"><ele>337.0</ele><time>2026-04-12T11:00:06.996Z</time></trkpt><trkpt lat="44.7304733" lon="8.4731033"><ele>337.0</ele><time>2026-04-12T11:00:08.001Z</time></trkpt><trkpt lat="44.7304067" lon="8.4730233"><ele>337.0</ele><time>2026-04-12T11:00:08.998Z</time></trkpt><trkpt lat="44.73035" lon="8.4729283"><ele>337.0</ele><time>2026-04-12T11:00:09.999Z</time></trkpt><trkpt lat="44.7303017" lon="8.47282"><ele>337.0</ele><time>2026-04-12T11:00:10.999Z</time></trkpt><trkpt lat="44.73024" lon="8.4727183"><ele>337.0</ele><time>2026-04-12T11:00:11.999Z</time></trkpt><trkpt lat="44.7301833" lon="8.4725967"><ele>337.0</ele><time>2026-04-12T11:00:12.999Z</time></trkpt><trkpt lat="44.7301167" lon="8.472475"><ele>337.0</ele><time>2026-04-12T11:00:13.999Z</time></trkpt><trkpt lat="44.7300483" lon="8.4723533"><ele>337.0</ele><time>2026-04-12T11:00:15.007Z</time></trkpt><trkpt lat="44.7299717" lon="8.4722333"><ele>337.0</ele><time>2026-04-12T11:00:15.998Z</time></trkpt><trkpt lat="44.7298917" lon="8.47211"><ele>336.75</ele><time>2026-04-12T11:00:16.998Z</time></trkpt><trkpt lat="44.7298167" lon="8.4719783"><ele>336.5</ele><time>2026-04-12T11:00:18.002Z</time></trkpt><trkpt lat="44.7297333" lon="8.47185"><ele>336.25</ele><time>2026-04-12T11:00:18.995Z</time></trkpt><trkpt lat="44.7296517" lon="8.4717167"><ele>336.0</ele><time>2026-04-12T11:00:19.996Z</time></trkpt><trkpt lat="44.729565" lon="8.471585"><ele>336.0</ele><time>2026-04-12T11:00:20.998Z</time></trkpt><trkpt lat="44.729475" lon="8.4714583"><ele>336.0</ele><time>2026-04-12T11:00:21.994Z</time></trkpt><trkpt lat="44.729395" lon="8.4713233"><ele>336.0</ele><time>2026-04-12T11:00:23Z</time></trkpt><trkpt lat="44.72933" lon="8.4711767"><ele>336.0</ele><time>2026-04-12T11:00:23.998Z</time></trkpt><trkpt lat="44.7292733" lon="8.4710167"><ele>336.0</ele><time>2026-04-12T11:00:24.998Z</time></trkpt><trkpt lat="44.72923" lon="8.4708333"><ele>336.0</ele><time>2026-04-12T11:00:25.993Z</time></trkpt><trkpt lat="44.72919" lon="8.47064"><ele>336.0</ele><time>2026-04-12T11:00:26.995Z</time></trkpt><trkpt lat="44.7291483" lon="8.4704417"><ele>336.0</ele><time>2026-04-12T11:00:27.996Z</time></trkpt><trkpt lat="44.7291117" lon="8.470235"><ele>338.0</ele><time>2026-04-12T11:00:29.001Z</time></trkpt><trkpt lat="44.7290767" lon="8.4700267"><ele>340.0</ele><time>2026-04-12T11:00:30Z</time></trkpt><trkpt lat="44.7290417" lon="8.4698167"><ele>342.0</ele><time>2026-04-12T11:00:30.995Z</time></trkpt><trkpt lat="44.7290067" lon="8.4696083"><ele>344.0</ele><time>2026-04-12T11:00:31.998Z</time></trkpt><trkpt lat="44.7289683" lon="8.4694033"><ele>346.0</ele><time>2026-04-12T11:00:32.996Z</time></trkpt><trkpt lat="44.72892" lon="8.4692067"><ele>348.0</ele><time>2026-04-12T11:00:33.995Z</time></trkpt><trkpt lat="44.7288667" lon="8.46903"><ele>350.0</ele><time>2026-04-12T11:00:34.999Z</time></trkpt><trkpt lat="44.7288083" lon="8.4688683"><ele>349.8</ele><time>2026-04-12T11:00:35.995Z</time></trkpt><trkpt lat="44.728755" lon="8.4687367"><ele>349.6</ele><time>2026-04-12T11:00:37.002Z</time></trkpt><trkpt lat="44.7287083" lon="8.4686233"><ele>349.4</ele><time>2026-04-12T11:00:38Z</time></trkpt><trkpt lat="44.7286733" lon="8.4685117"><ele>349.2</ele><time>2026-04-12T11:00:38.994Z</time></trkpt><trkpt lat="44.7286367" lon="8.4683917"><ele>349.0</ele><time>2026-04-12T11:00:39.995Z</time></trkpt><trkpt lat="44.728615" lon="8.4682683"><ele>349.0</ele><time>2026-04-12T11:00:40.995Z</time></trkpt><trkpt lat="44.7285917" lon="8.4681367"><ele>349.0</ele><time>2026-04-12T11:00:41.995Z</time></trkpt><trkpt lat="44.72858" lon="8.46799"><ele>349.0</ele><time>2026-04-12T11:00:42.997Z</time></trkpt><trkpt lat="44.7285667" lon="8.4678433"><ele>349.0</ele><time>2026-04-12T11:00:43.995Z</time></trkpt><trkpt lat="44.7285367" lon="8.467685"><ele>349.0</ele><time>2026-04-12T11:00:44.999Z</time></trkpt><trkpt lat="44.728505" lon="8.4675167"><ele>347.5</ele><time>2026-04-12T11:00:45.995Z</time></trkpt><trkpt lat="44.7284633" lon="8.467355"><ele>346.0</ele><time>2026-04-12T11:00:46.996Z</time></trkpt><trkpt lat="44.7284067" lon="8.4671933"><ele>344.5</ele><time>2026-04-12T11:00:47.996Z</time></trkpt><trkpt lat="44.72834" lon="8.46704"><ele>343.0</ele><time>2026-04-12T11:00:49.009Z</time></trkpt><trkpt lat="44.7282683" lon="8.4668917"><ele>343.0</ele><time>2026-04-12T11:00:49.993Z</time></trkpt><trkpt lat="44.72819" lon="8.466745"><ele>343.0</ele><time>2026-04-12T11:00:50.998Z</time></trkpt><trkpt lat="44.7281117" lon="8.4666083"><ele>343.0</ele><time>2026-04-12T11:00:51.997Z</time></trkpt><trkpt lat="44.728035" lon="8.4664833"><ele>343.0</ele><time>2026-04-12T11:00:52.994Z</time></trkpt><trkpt lat="44.727965" lon="8.46639"><ele>343.0</ele><time>2026-04-12T11:00:53.999Z</time></trkpt><trkpt lat="44.7279067" lon="8.466315"><ele>343.0</ele><time>2026-04-12T11:00:54.996Z</time></trkpt><trkpt lat="44.727855" lon="8.4662483"><ele>343.0</ele><time>2026-04-12T11:00:55.998Z</time></trkpt><trkpt lat="44.7277917" lon="8.46617"><ele>343.0</ele><time>2026-04-12T11:00:56.996Z</time></trkpt><trkpt lat="44.7277217" lon="8.46608"><ele>343.0</ele><time>2026-04-12T11:00:57.996Z</time></trkpt><trkpt lat="44.727665" lon="8.4659483"><ele>343.0</ele><time>2026-04-12T11:00:59Z</time></trkpt><trkpt lat="44.727635" lon="8.465785"><ele>344.25</ele><time>2026-04-12T11:00:59.994Z</time></trkpt><trkpt lat="44.72762" lon="8.465615"><ele>345.5</ele><time>2026-04-12T11:01:00.999Z</time></trkpt><trkpt lat="44.7276267" lon="8.4654283"><ele>346.75</ele><time>2026-04-12T11:01:01.995Z</time></trkpt><trkpt lat="44.727645" lon="8.4652283"><ele>348.0</ele><time>2026-04-12T11:01:03.001Z</time></trkpt><trkpt lat="44.7276717" lon="8.46502"><ele>348.0</ele><time>2026-04-12T11:01:03.997Z</time></trkpt><trkpt lat="44.727705" lon="8.4648017"><ele>348.0</ele><time>2026-04-12T11:01:04.996Z</time></trkpt><trkpt lat="44.7277483" lon="8.4645817"><ele>348.0</ele><time>2026-04-12T11:01:05.993Z</time></trkpt><trkpt lat="44.7278033" lon="8.4643633"><ele>348.3333333333333</ele><time>2026-04-12T11:01:07Z</time></trkpt><trkpt lat="44.727865" lon="8.4641417"><ele>348.66666666666663</ele><time>2026-04-12T11:01:07.992Z</time></trkpt><trkpt lat="44.727925" lon="8.4639183"><ele>349.0</ele><time>2026-04-12T11:01:08.993Z</time></trkpt><trkpt lat="44.727975" lon="8.4636867"><ele>349.0</ele><time>2026-04-12T11:01:09.997Z</time></trkpt><trkpt lat="44.728025" lon="8.4634617"><ele>349.0</ele><time>2026-04-12T11:01:10.993Z</time></trkpt><trkpt lat="44.7280717" lon="8.4632383"><ele>349.0</ele><time>2026-04-12T11:01:11.997Z</time></trkpt><trkpt lat="44.7281117" lon="8.4630183"><ele>349.66666666666663</ele><time>2026-04-12T11:01:13.001Z</time></trkpt><trkpt lat="44.728145" lon="8.4628017"><ele>350.3333333333333</ele><time>2026-04-12T11:01:13.997Z</time></trkpt><trkpt lat="44.7281633" lon="8.4625883"><ele>351.0</ele><time>2026-04-12T11:01:15.001Z</time></trkpt><trkpt lat="44.728165" lon="8.462375"><ele>351.0</ele><time>2026-04-12T11:01:15.995Z</time></trkpt><trkpt lat="44.728145" lon="8.4621633"><ele>351.0</ele><time>2026-04-12T11:01:16.995Z</time></trkpt><trkpt lat="44.7281083" lon="8.46196"><ele>351.0</ele><time>2026-04-12T11:01:17.993Z</time></trkpt><trkpt lat="44.728065" lon="8.4617683"><ele>351.0</ele><time>2026-04-12T11:01:18.996Z</time></trkpt><trkpt lat="44.728035" lon="8.461585"><ele>351.25</ele><time>2026-04-12T11:01:19.995Z</time></trkpt><trkpt lat="44.7280217" lon="8.4614017"><ele>351.5</ele><time>2026-04-12T11:01:20.996Z</time></trkpt><trkpt lat="44.7280317" lon="8.461215"><ele>351.75</ele><time>2026-04-12T11:01:21.995Z</time></trkpt><trkpt lat="44.728075" lon="8.4610217"><ele>352.0</ele><time>2026-04-12T11:01:22.995Z</time></trkpt><trkpt lat="44.72813" lon="8.4608233"><ele>352.0</ele><time>2026-04-12T11:01:23.998Z</time></trkpt><trkpt lat="44.728185" lon="8.4606083"><ele>352.0</ele><time>2026-04-12T11:01:24.997Z</time></trkpt><trkpt lat="44.7282283" lon="8.46038"><ele>352.0</ele><time>2026-04-12T11:01:25.994Z</time></trkpt><trkpt lat="44.7282667" lon="8.46014"><ele>350.3333333333333</ele><time>2026-04-12T11:01:26.995Z</time></trkpt><trkpt lat="44.72829" lon="8.45989"><ele>348.6666666666667</ele><time>2026-04-12T11:01:27.995Z</time></trkpt><trkpt lat="44.7283067" lon="8.4596333"><ele>347.0</ele><time>2026-04-12T11:01:28.994Z</time></trkpt><trkpt lat="44.728315" lon="8.4593717"><ele>347.0</ele><time>2026-04-12T11:01:29.999Z</time></trkpt><trkpt lat="44.7283167" lon="8.4591067"><ele>347.0</ele><time>2026-04-12T11:01:30.996Z</time></trkpt><trkpt lat="44.728315" lon="8.4588483"><ele>347.0</ele><time>2026-04-12T11:01:31.995Z</time></trkpt><trkpt lat="44.7283117" lon="8.4585967"><ele>349.0</ele><time>2026-04-12T11:01:32.998Z</time></trkpt><trkpt lat="44.7283083" lon="8.45835"><ele>351.0</ele><time>2026-04-12T11:01:33.997Z</time></trkpt><trkpt lat="44.7283017" lon="8.4581117"><ele>353.0</ele><time>2026-04-12T11:01:34.997Z</time></trkpt><trkpt lat="44.7282933" lon="8.4578867"><ele>354.33333333333337</ele><time>2026-04-12T11:01:35.999Z</time></trkpt><trkpt lat="44.72829" lon="8.45767"><ele>355.6666666666667</ele><time>2026-04-12T11:01:36.995Z</time></trkpt><trkpt lat="44.7282867" lon="8.4574567"><ele>357.0</ele><time>2026-04-12T11:01:37.996Z</time></trkpt><trkpt lat="44.7282817" lon="8.4572417"><ele>356.6666666666667</ele><time>2026-04-12T11:01:38.995Z</time></trkpt><trkpt lat="44.728265" lon="8.4570283"><ele>356.33333333333337</ele><time>2026-04-12T11:01:39.996Z</time></trkpt><trkpt lat="44.7282283" lon="8.4568183"><ele>356.0</ele><time>2026-04-12T11:01:40.993Z</time></trkpt><trkpt lat="44.7281817" lon="8.45661"><ele>356.0</ele><time>2026-04-12T11:01:41.993Z</time></trkpt><trkpt lat="44.7281217" lon="8.4564033"><ele>356.0</ele><time>2026-04-12T11:01:42.996Z</time></trkpt><trkpt lat="44.7280483" lon="8.456195"><ele>356.0</ele><time>2026-04-12T11:01:43.993Z</time></trkpt><trkpt lat="44.7279617" lon="8.4559883"><ele>355.33333333333337</ele><time>2026-04-12T11:01:44.998Z</time></trkpt><trkpt lat="44.72786" lon="8.4557767"><ele>354.6666666666667</ele><time>2026-04-12T11:01:46.002Z</time></trkpt><trkpt lat="44.72775" lon="8.4555717"><ele>354.0</ele><time>2026-04-12T11:01:46.994Z</time></trkpt><trkpt lat="44.727645" lon="8.4553617"><ele>358.3333333333333</ele><time>2026-04-12T11:01:47.997Z</time></trkpt><trkpt lat="44.7275417" lon="8.455155"><ele>362.66666666666663</ele><time>2026-04-12T11:01:49.001Z</time></trkpt><trkpt lat="44.72744" lon="8.4549533"><ele>367.0</ele><time>2026-04-12T11:01:49.994Z</time></trkpt><trkpt lat="44.727345" lon="8.4547567"><ele>368.3333333333333</ele><time>2026-04-12T11:01:50.996Z</time></trkpt><trkpt lat="44.7272517" lon="8.454565"><ele>369.6666666666667</ele><time>2026-04-12T11:01:51.996Z</time></trkpt><trkpt lat="44.7271617" lon="8.4543833"><ele>371.0</ele><time>2026-04-12T11:01:52.992Z</time></trkpt><trkpt lat="44.7270767" lon="8.4542017"><ele>371.0</ele><time>2026-04-12T11:01:53.997Z</time></trkpt><trkpt lat="44.7269917" lon="8.454025"><ele>371.0</ele><time>2026-04-12T11:01:54.997Z</time></trkpt><trkpt lat="44.7269083" lon="8.4538567"><ele>371.0</ele><time>2026-04-12T11:01:55.993Z</time></trkpt><trkpt lat="44.7268367" lon="8.4536933"><ele>371.0</ele><time>2026-04-12T11:01:56.993Z</time></trkpt><trkpt lat="44.7267617" lon="8.4535367"><ele>375.25</ele><time>2026-04-12T11:01:57.997Z</time></trkpt><trkpt lat="44.7266833" lon="8.45338"><ele>379.5</ele><time>2026-04-12T11:01:58.995Z</time></trkpt><trkpt lat="44.726615" lon="8.4532333"><ele>383.75</ele><time>2026-04-12T11:01:59.996Z</time></trkpt><trkpt lat="44.72655" lon="8.4531083"><ele>388.0</ele><time>2026-04-12T11:02:00.997Z</time></trkpt><trkpt lat="44.726485" lon="8.452985"><ele>387.6666666666667</ele><time>2026-04-12T11:02:01.998Z</time></trkpt><trkpt lat="44.7264133" lon="8.45288"><ele>387.33333333333337</ele><time>2026-04-12T11:02:02.997Z</time></trkpt><trkpt lat="44.7263567" lon="8.4527767"><ele>387.0</ele><time>2026-04-12T11:02:03.998Z</time></trkpt><trkpt lat="44.7262967" lon="8.4526783"><ele>386.66666666666663</ele><time>2026-04-12T11:02:04.998Z</time></trkpt><trkpt lat="44.7262417" lon="8.4525917"><ele>386.3333333333333</ele><time>2026-04-12T11:02:06.005Z</time></trkpt><trkpt lat="44.7261867" lon="8.45253"><ele>386.0</ele><time>2026-04-12T11:02:06.998Z</time></trkpt><trkpt lat="44.7261183" lon="8.4524167"><ele>386.0</ele><time>2026-04-12T11:02:08.998Z</time></trkpt><trkpt lat="44.7261" lon="8.4522833"><ele>386.0</ele><time>2026-04-12T11:02:10.996Z</time></trkpt><trkpt lat="44.7260983" lon="8.45218"><ele>386.0</ele><time>2026-04-12T11:02:11.996Z</time></trkpt><trkpt lat="44.726115" lon="8.4520467"><ele>386.0</ele><time>2026-04-12T11:02:12.999Z</time></trkpt><trkpt lat="44.7261333" lon="8.45192"><ele>386.0</ele><time>2026-04-12T11:02:13.999Z</time></trkpt><trkpt lat="44.7261633" lon="8.4517833"><ele>385.8</ele><time>2026-04-12T11:02:15Z</time></trkpt><trkpt lat="44.7261867" lon="8.4516517"><ele>385.6</ele><time>2026-04-12T11:02:16.004Z</time></trkpt><trkpt lat="44.7262167" lon="8.4515167"><ele>385.4</ele><time>2026-04-12T11:02:16.997Z</time></trkpt><trkpt lat="44.7262433" lon="8.4513983"><ele>385.2</ele><time>2026-04-12T11:02:17.995Z</time></trkpt><trkpt lat="44.7262633" lon="8.4512883"><ele>385.0</ele><time>2026-04-12T11:02:18.997Z</time></trkpt><trkpt lat="44.726285" lon="8.45117"><ele>384.8</ele><time>2026-04-12T11:02:19.995Z</time></trkpt><trkpt lat="44.7263033" lon="8.45105"><ele>384.6</ele><time>2026-04-12T11:02:20.996Z</time></trkpt><trkpt lat="44.7263167" lon="8.450925"><ele>384.4</ele><time>2026-04-12T11:02:21.998Z</time></trkpt><trkpt lat="44.7263233" lon="8.450795"><ele>384.2</ele><time>2026-04-12T11:02:22.997Z</time></trkpt><trkpt lat="44.726325" lon="8.4506633"><ele>384.0</ele><time>2026-04-12T11:02:23.997Z</time></trkpt><trkpt lat="44.72631" lon="8.4505367"><ele>384.0</ele><time>2026-04-12T11:02:24.995Z</time></trkpt><trkpt lat="44.7262967" lon="8.45042"><ele>384.0</ele><time>2026-04-12T11:02:25.994Z</time></trkpt><trkpt lat="44.72629" lon="8.4503183"><ele>384.0</ele><time>2026-04-12T11:02:26.996Z</time></trkpt><trkpt lat="44.7262983" lon="8.4502183"><ele>384.0</ele><time>2026-04-12T11:02:27.995Z</time></trkpt><trkpt lat="44.7263283" lon="8.4501317"><ele>384.0</ele><time>2026-04-12T11:02:28.992Z</time></trkpt><trkpt lat="44.7263783" lon="8.450035"><ele>384.0</ele><time>2026-04-12T11:02:29.993Z</time></trkpt><trkpt lat="44.7264217" lon="8.44992"><ele>384.0</ele><time>2026-04-12T11:02:30.998Z</time></trkpt><trkpt lat="44.72647" lon="8.4498017"><ele>384.0</ele><time>2026-04-12T11:02:31.995Z</time></trkpt><trkpt lat="44.726505" lon="8.4496817"><ele>384.0</ele><time>2026-04-12T11:02:32.999Z</time></trkpt><trkpt lat="44.7265167" lon="8.4495683"><ele>384.0</ele><time>2026-04-12T11:02:33.997Z</time></trkpt><trkpt lat="44.7265267" lon="8.44945"><ele>384.0</ele><time>2026-04-12T11:02:34.995Z</time></trkpt><trkpt lat="44.7264983" lon="8.4493333"><ele>384.0</ele><time>2026-04-12T11:02:35.995Z</time></trkpt><trkpt lat="44.7264767" lon="8.44921"><ele>382.0</ele><time>2026-04-12T11:02:36.996Z</time></trkpt><trkpt lat="44.726385" lon="8.44909"><ele>380.0</ele><time>2026-04-12T11:02:37.997Z</time></trkpt><trkpt lat="44.7262817" lon="8.4489333"><ele>378.0</ele><time>2026-04-12T11:02:39.004Z</time></trkpt><trkpt lat="44.7261983" lon="8.448775"><ele>376.0</ele><time>2026-04-12T11:02:39.999Z</time></trkpt><trkpt lat="44.7261217" lon="8.44861"><ele>375.0</ele><time>2026-04-12T11:02:40.998Z</time></trkpt><trkpt lat="44.7260367" lon="8.4484433"><ele>374.0</ele><time>2026-04-12T11:02:41.997Z</time></trkpt><trkpt lat="44.72595" lon="8.44828"><ele>373.0</ele><time>2026-04-12T11:02:42.997Z</time></trkpt><trkpt lat="44.7258667" lon="8.4481183"><ele>372.0</ele><time>2026-04-12T11:02:43.997Z</time></trkpt><trkpt lat="44.7257817" lon="8.4479533"><ele>370.0</ele><time>2026-04-12T11:02:44.994Z</time></trkpt><trkpt lat="44.7257083" lon="8.447795"><ele>368.0</ele><time>2026-04-12T11:02:45.994Z</time></trkpt><trkpt lat="44.7256583" lon="8.4476333"><ele>366.0</ele><time>2026-04-12T11:02:46.993Z</time></trkpt><trkpt lat="44.7256433" lon="8.4474583"><ele>364.0</ele><time>2026-04-12T11:02:47.995Z</time></trkpt><trkpt lat="44.7256367" lon="8.447285"><ele>362.0</ele><time>2026-04-12T11:02:49.006Z</time></trkpt><trkpt lat="44.7256383" lon="8.4471183"><ele>360.0</ele><time>2026-04-12T11:02:50.001Z</time></trkpt><trkpt lat="44.725655" lon="8.44696"><ele>358.0</ele><time>2026-04-12T11:02:51Z</time></trkpt><trkpt lat="44.7256983" lon="8.4468217"><ele>356.0</ele><time>2026-04-12T11:02:51.997Z</time></trkpt><trkpt lat="44.7257617" lon="8.446725"><ele>354.0</ele><time>2026-04-12T11:02:52.998Z</time></trkpt><trkpt lat="44.7258517" lon="8.4466817"><ele>354.0</ele><time>2026-04-12T11:02:53.995Z</time></trkpt><trkpt lat="44.7259667" lon="8.44667"><ele>354.0</ele><time>2026-04-12T11:02:54.998Z</time></trkpt><trkpt lat="44.7260833" lon="8.4466833"><ele>354.0</ele><time>2026-04-12T11:02:55.999Z</time></trkpt><trkpt lat="44.7262117" lon="8.446665"><ele>354.0</ele><time>2026-04-12T11:02:56.997Z</time></trkpt><trkpt lat="44.7263283" lon="8.4466467"><ele>353.25</ele><time>2026-04-12T11:02:57.998Z</time></trkpt><trkpt lat="44.7264433" lon="8.4465733"><ele>352.5</ele><time>2026-04-12T11:02:58.994Z</time></trkpt><trkpt lat="44.7265383" lon="8.4464467"><ele>351.75</ele><time>2026-04-12T11:02:59.992Z</time></trkpt><trkpt lat="44.7266283" lon="8.44629"><ele>351.0</ele><time>2026-04-12T11:03:00.995Z</time></trkpt><trkpt lat="44.7267233" lon="8.4461283"><ele>351.0</ele><time>2026-04-12T11:03:01.994Z</time></trkpt><trkpt lat="44.7268267" lon="8.4459583"><ele>351.0</ele><time>2026-04-12T11:03:02.996Z</time></trkpt><trkpt lat="44.7269383" lon="8.4457883"><ele>351.0</ele><time>2026-04-12T11:03:03.992Z</time></trkpt><trkpt lat="44.7270533" lon="8.4456167"><ele>347.3333333333333</ele><time>2026-04-12T11:03:04.992Z</time></trkpt><trkpt lat="44.727175" lon="8.4454533"><ele>343.66666666666663</ele><time>2026-04-12T11:03:05.993Z</time></trkpt><trkpt lat="44.7272933" lon="8.4452883"><ele>340.0</ele><time>2026-04-12T11:03:06.993Z</time></trkpt><trkpt lat="44.7274083" lon="8.445125"><ele>340.0</ele><time>2026-04-12T11:03:07.994Z</time></trkpt><trkpt lat="44.72752" lon="8.4449617"><ele>340.0</ele><time>2026-04-12T11:03:08.992Z</time></trkpt><trkpt lat="44.7276317" lon="8.4448067"><ele>340.0</ele><time>2026-04-12T11:03:09.997Z</time></trkpt><trkpt lat="44.7277233" lon="8.44467"><ele>337.25</ele><time>2026-04-12T11:03:10.998Z</time></trkpt><trkpt lat="44.7277967" lon="8.4445383"><ele>334.5</ele><time>2026-04-12T11:03:11.993Z</time></trkpt><trkpt lat="44.7278533" lon="8.4443933"><ele>331.75</ele><time>2026-04-12T11:03:12.999Z</time></trkpt><trkpt lat="44.7279" lon="8.4442333"><ele>329.0</ele><time>2026-04-12T11:03:13.999Z</time></trkpt><trkpt lat="44.7279283" lon="8.444065"><ele>329.0</ele><time>2026-04-12T11:03:14.999Z</time></trkpt><trkpt lat="44.7279567" lon="8.4438867"><ele>329.0</ele><time>2026-04-12T11:03:15.996Z</time></trkpt><trkpt lat="44.7279717" lon="8.44371"><ele>329.0</ele><time>2026-04-12T11:03:17Z</time></trkpt><trkpt lat="44.7279817" lon="8.44355"><ele>329.0</ele><time>2026-04-12T11:03:17.995Z</time></trkpt><trkpt lat="44.7279867" lon="8.44341"><ele>330.0</ele><time>2026-04-12T11:03:18.995Z</time></trkpt><trkpt lat="44.7279833" lon="8.4432883"><ele>331.0</ele><time>2026-04-12T11:03:19.996Z</time></trkpt><trkpt lat="44.72797" lon="8.44317"><ele>332.0</ele><time>2026-04-12T11:03:20.998Z</time></trkpt><trkpt lat="44.7279417" lon="8.4430517"><ele>333.0</ele><time>2026-04-12T11:03:21.994Z</time></trkpt><trkpt lat="44.7279" lon="8.4429233"><ele>334.0</ele><time>2026-04-12T11:03:22.992Z</time></trkpt><trkpt lat="44.7278533" lon="8.4427883"><ele>332.75</ele><time>2026-04-12T11:03:23.992Z</time></trkpt><trkpt lat="44.7278067" lon="8.4426383"><ele>331.5</ele><time>2026-04-12T11:03:24.996Z</time></trkpt><trkpt lat="44.7277533" lon="8.442485"><ele>330.25</ele><time>2026-04-12T11:03:25.993Z</time></trkpt><trkpt lat="44.7276983" lon="8.44233"><ele>329.0</ele><time>2026-04-12T11:03:26.999Z</time></trkpt><trkpt lat="44.727655" lon="8.442165"><ele>328.75</ele><time>2026-04-12T11:03:27.995Z</time></trkpt><trkpt lat="44.7276217" lon="8.441995"><ele>328.5</ele><time>2026-04-12T11:03:28.995Z</time></trkpt><trkpt lat="44.727605" lon="8.4418117"><ele>328.25</ele><time>2026-04-12T11:03:29.998Z</time></trkpt><trkpt lat="44.7275917" lon="8.441625"><ele>328.0</ele><time>2026-04-12T11:03:30.994Z</time></trkpt><trkpt lat="44.7275883" lon="8.44144"><ele>326.5</ele><time>2026-04-12T11:03:32Z</time></trkpt><trkpt lat="44.7276083" lon="8.4412483"><ele>325.0</ele><time>2026-04-12T11:03:32.996Z</time></trkpt><trkpt lat="44.7276383" lon="8.4410633"><ele>323.5</ele><time>2026-04-12T11:03:33.998Z</time></trkpt><trkpt lat="44.7276833" lon="8.4408883"><ele>322.0</ele><time>2026-04-12T11:03:34.996Z</time></trkpt><trkpt lat="44.7277567" lon="8.4407283"><ele>323.0</ele><time>2026-04-12T11:03:35.999Z</time></trkpt><trkpt lat="44.7278567" lon="8.44059"><ele>324.0</ele><time>2026-04-12T11:03:36.996Z</time></trkpt><trkpt lat="44.7279633" lon="8.4404583"><ele>325.0</ele><time>2026-04-12T11:03:37.998Z</time></trkpt><trkpt lat="44.7280617" lon="8.440315"><ele>326.0</ele><time>2026-04-12T11:03:38.994Z</time></trkpt><trkpt lat="44.7281383" lon="8.4401483"><ele>326.0</ele><time>2026-04-12T11:03:39.993Z</time></trkpt><trkpt lat="44.72819" lon="8.43995"><ele>326.0</ele><time>2026-04-12T11:03:40.999Z</time></trkpt><trkpt lat="44.7282083" lon="8.439725"><ele>326.0</ele><time>2026-04-12T11:03:41.994Z</time></trkpt><trkpt lat="44.728215" lon="8.4394933"><ele>324.25</ele><time>2026-04-12T11:03:42.995Z</time></trkpt><trkpt lat="44.7282133" lon="8.439275"><ele>322.5</ele><time>2026-04-12T11:03:43.992Z</time></trkpt><trkpt lat="44.7282183" lon="8.4390967"><ele>320.75</ele><time>2026-04-12T11:03:44.992Z</time></trkpt><trkpt lat="44.7282317" lon="8.4389633"><ele>319.0</ele><time>2026-04-12T11:03:45.995Z</time></trkpt><trkpt lat="44.7282633" lon="8.4388467"><ele>320.0</ele><time>2026-04-12T11:03:46.993Z</time></trkpt><trkpt lat="44.7283067" lon="8.43873"><ele>321.0</ele><time>2026-04-12T11:03:47.997Z</time></trkpt><trkpt lat="44.7283817" lon="8.4386267"><ele>322.0</ele><time>2026-04-12T11:03:48.993Z</time></trkpt><trkpt lat="44.7284717" lon="8.4385367"><ele>323.0</ele><time>2026-04-12T11:03:50.001Z</time></trkpt><trkpt lat="44.7285667" lon="8.4384417"><ele>324.0</ele><time>2026-04-12T11:03:50.993Z</time></trkpt><trkpt lat="44.728655" lon="8.438315"><ele>324.0</ele><time>2026-04-12T11:03:51.997Z</time></trkpt><trkpt lat="44.7287133" lon="8.4381583"><ele>324.0</ele><time>2026-04-12T11:03:52.998Z</time></trkpt><trkpt lat="44.728745" lon="8.43799"><ele>324.0</ele><time>2026-04-12T11:03:53.999Z</time></trkpt><trkpt lat="44.7287367" lon="8.4378083"><ele>324.0</ele><time>2026-04-12T11:03:54.998Z</time></trkpt><trkpt lat="44.7287017" lon="8.437635"><ele>322.0</ele><time>2026-04-12T11:03:55.998Z</time></trkpt><trkpt lat="44.7286667" lon="8.4374583"><ele>320.0</ele><time>2026-04-12T11:03:56.997Z</time></trkpt><trkpt lat="44.72865" lon="8.43728"><ele>318.0</ele><time>2026-04-12T11:03:57.997Z</time></trkpt><trkpt lat="44.7286417" lon="8.4371"><ele>316.0</ele><time>2026-04-12T11:03:58.991Z</time></trkpt><trkpt lat="44.72865" lon="8.436925"><ele>314.5</ele><time>2026-04-12T11:03:59.995Z</time></trkpt><trkpt lat="44.7286667" lon="8.4367467"><ele>313.0</ele><time>2026-04-12T11:04:00.995Z</time></trkpt><trkpt lat="44.7286833" lon="8.436565"><ele>311.5</ele><time>2026-04-12T11:04:01.994Z</time></trkpt><trkpt lat="44.72869" lon="8.4363817"><ele>310.0</ele><time>2026-04-12T11:04:02.994Z</time></trkpt><trkpt lat="44.7286883" lon="8.436195"><ele>307.5</ele><time>2026-04-12T11:04:03.993Z</time></trkpt><trkpt lat="44.7286783" lon="8.4360183"><ele>305.0</ele><time>2026-04-12T11:04:04.994Z</time></trkpt><trkpt lat="44.72868" lon="8.4358483"><ele>302.5</ele><time>2026-04-12T11:04:05.994Z</time></trkpt><trkpt lat="44.7287183" lon="8.4356767"><ele>300.0</ele><time>2026-04-12T11:04:06.996Z</time></trkpt><trkpt lat="44.7287683" lon="8.4355133"><ele>297.0</ele><time>2026-04-12T11:04:07.993Z</time></trkpt><trkpt lat="44.7288333" lon="8.4353533"><ele>294.0</ele><time>2026-04-12T11:04:08.998Z</time></trkpt><trkpt lat="44.72889" lon="8.435185"><ele>291.0</ele><time>2026-04-12T11:04:09.994Z</time></trkpt><trkpt lat="44.7289417" lon="8.4350083"><ele>288.0</ele><time>2026-04-12T11:04:11.001Z</time></trkpt><trkpt lat="44.728985" lon="8.4348317"><ele>288.0</ele><time>2026-04-12T11:04:11.997Z</time></trkpt><trkpt lat="44.72903" lon="8.4346583"><ele>288.0</ele><time>2026-04-12T11:04:13.001Z</time></trkpt><trkpt lat="44.7290683" lon="8.434505"><ele>288.0</ele><time>2026-04-12T11:04:13.996Z</time></trkpt><trkpt lat="44.72911" lon="8.4343817"><ele>288.0</ele><time>2026-04-12T11:04:14.999Z</time></trkpt><trkpt lat="44.7291733" lon="8.4342867"><ele>288.0</ele><time>2026-04-12T11:04:15.995Z</time></trkpt><trkpt lat="44.7292467" lon="8.4342133"><ele>287.6</ele><time>2026-04-12T11:04:16.999Z</time></trkpt><trkpt lat="44.72933" lon="8.4341617"><ele>287.20000000000005</ele><time>2026-04-12T11:04:17.996Z</time></trkpt><trkpt lat="44.7294217" lon="8.4341267"><ele>286.8</ele><time>2026-04-12T11:04:18.994Z</time></trkpt><trkpt lat="44.72951" lon="8.43413"><ele>286.40000000000003</ele><time>2026-04-12T11:04:19.994Z</time></trkpt><trkpt lat="44.7296017" lon="8.4341167"><ele>286.0</ele><time>2026-04-12T11:04:20.998Z</time></trkpt><trkpt lat="44.7296867" lon="8.434125"><ele>286.0</ele><time>2026-04-12T11:04:22Z</time></trkpt><trkpt lat="44.72976" lon="8.434105"><ele>286.0</ele><time>2026-04-12T11:04:23Z</time></trkpt><trkpt lat="44.7297833" lon="8.43399"><ele>286.0</ele><time>2026-04-12T11:04:24.995Z</time></trkpt><trkpt lat="44.72966" lon="8.4339033"><ele>286.0</ele><time>2026-04-12T11:04:26Z</time></trkpt><trkpt lat="44.72957" lon="8.4338467"><ele>286.0</ele><time>2026-04-12T11:04:26.994Z</time></trkpt><trkpt lat="44.7294283" lon="8.43383"><ele>283.3333333333333</ele><time>2026-04-12T11:04:27.998Z</time></trkpt><trkpt lat="44.7292617" lon="8.43383"><ele>280.6666666666667</ele><time>2026-04-12T11:04:28.996Z</time></trkpt><trkpt lat="44.729105" lon="8.4338433"><ele>278.0</ele><time>2026-04-12T11:04:29.991Z</time></trkpt><trkpt lat="44.7289583" lon="8.43386"><ele>278.0</ele><time>2026-04-12T11:04:30.993Z</time></trkpt><trkpt lat="44.7287983" lon="8.433895"><ele>278.0</ele><time>2026-04-12T11:04:31.999Z</time></trkpt><trkpt lat="44.728645" lon="8.433915"><ele>278.0</ele><time>2026-04-12T11:04:32.993Z</time></trkpt><trkpt lat="44.7285083" lon="8.4339367"><ele>275.4</ele><time>2026-04-12T11:04:33.996Z</time></trkpt><trkpt lat="44.72839" lon="8.433955"><ele>272.8</ele><time>2026-04-12T11:04:34.993Z</time></trkpt><trkpt lat="44.7282867" lon="8.4339617"><ele>270.2</ele><time>2026-04-12T11:04:35.996Z</time></trkpt><trkpt lat="44.72821" lon="8.4339633"><ele>267.6</ele><time>2026-04-12T11:04:36.993Z</time></trkpt><trkpt lat="44.728145" lon="8.4339467"><ele>265.0</ele><time>2026-04-12T11:04:37.993Z</time></trkpt><trkpt lat="44.7280683" lon="8.4337983"><ele>264.75</ele><time>2026-04-12T11:04:39.998Z</time></trkpt><trkpt lat="44.7280433" lon="8.433665"><ele>264.5</ele><time>2026-04-12T11:04:40.997Z</time></trkpt><trkpt lat="44.7280133" lon="8.4335017"><ele>264.25</ele><time>2026-04-12T11:04:41.998Z</time></trkpt><trkpt lat="44.7279667" lon="8.4333017"><ele>264.0</ele><time>2026-04-12T11:04:42.993Z</time></trkpt><trkpt lat="44.7279" lon="8.433085"><ele>263.6666666666667</ele><time>2026-04-12T11:04:43.994Z</time></trkpt><trkpt lat="44.7278183" lon="8.4328517"><ele>263.33333333333337</ele><time>2026-04-12T11:04:44.999Z</time></trkpt><trkpt lat="44.7277267" lon="8.4326017"><ele>263.0</ele><time>2026-04-12T11:04:46Z</time></trkpt><trkpt lat="44.727635" lon="8.4323417"><ele>266.33333333333337</ele><time>2026-04-12T11:04:46.994Z</time></trkpt><trkpt lat="44.72755" lon="8.4320867"><ele>269.6666666666667</ele><time>2026-04-12T11:04:47.996Z</time></trkpt><trkpt lat="44.7274767" lon="8.4318317"><ele>273.0</ele><time>2026-04-12T11:04:48.995Z</time></trkpt><trkpt lat="44.72742" lon="8.43159"><ele>273.0</ele><time>2026-04-12T11:04:49.995Z</time></trkpt><trkpt lat="44.7273767" lon="8.4313567"><ele>273.0</ele><time>2026-04-12T11:04:50.996Z</time></trkpt><trkpt lat="44.7273467" lon="8.4311383"><ele>273.0</ele><time>2026-04-12T11:04:51.993Z</time></trkpt><trkpt lat="44.7273233" lon="8.4309467"><ele>274.3333333333333</ele><time>2026-04-12T11:04:52.993Z</time></trkpt><trkpt lat="44.7272967" lon="8.430795"><ele>275.6666666666667</ele><time>2026-04-12T11:04:53.996Z</time></trkpt><trkpt lat="44.72727" lon="8.430675"><ele>277.0</ele><time>2026-04-12T11:04:55.001Z</time></trkpt><trkpt lat="44.7272467" lon="8.430585"><ele>278.33333333333337</ele><time>2026-04-12T11:04:55.996Z</time></trkpt><trkpt lat="44.72721" lon="8.4304733"><ele>279.6666666666667</ele><time>2026-04-12T11:04:57.994Z</time></trkpt><trkpt lat="44.7271583" lon="8.4303983"><ele>281.0</ele><time>2026-04-12T11:05:19.002Z</time></trkpt><trkpt lat="44.72711" lon="8.4303333"><ele>279.40000000000003</ele><time>2026-04-12T11:05:19.996Z</time></trkpt><trkpt lat="44.7270483" lon="8.4302433"><ele>277.8</ele><time>2026-04-12T11:05:20.999Z</time></trkpt><trkpt lat="44.7269883" lon="8.4301433"><ele>276.20000000000005</ele><time>2026-04-12T11:05:21.997Z</time></trkpt><trkpt lat="44.72692" lon="8.4300117"><ele>274.6</ele><time>2026-04-12T11:05:22.998Z</time></trkpt><trkpt lat="44.7268617" lon="8.4298633"><ele>273.0</ele><time>2026-04-12T11:05:24Z</time></trkpt><trkpt lat="44.7268183" lon="8.429725"><ele>273.4</ele><time>2026-04-12T11:05:24.996Z</time></trkpt><trkpt lat="44.726795" lon="8.429585"><ele>273.8</ele><time>2026-04-12T11:05:25.993Z</time></trkpt><trkpt lat="44.7268017" lon="8.4294467"><ele>274.2</ele><time>2026-04-12T11:05:26.996Z</time></trkpt><trkpt lat="44.7268383" lon="8.4293083"><ele>274.6</ele><time>2026-04-12T11:05:27.996Z</time></trkpt><trkpt lat="44.7269317" lon="8.42917"><ele>275.0</ele><time>2026-04-12T11:05:28.995Z</time></trkpt><trkpt lat="44.7270233" lon="8.429015"><ele>281.5</ele><time>2026-04-12T11:05:29.997Z</time></trkpt><trkpt lat="44.7271083" lon="8.4288867"><ele>288.0</ele><time>2026-04-12T11:05:30.996Z</time></trkpt><trkpt lat="44.7271683" lon="8.4287433"><ele>294.5</ele><time>2026-04-12T11:05:32Z</time></trkpt><trkpt lat="44.7271967" lon="8.42859"><ele>301.0</ele><time>2026-04-12T11:05:32.994Z</time></trkpt><trkpt lat="44.72718" lon="8.4284333"><ele>301.0</ele><time>2026-04-12T11:05:33.997Z</time></trkpt><trkpt lat="44.7271233" lon="8.4282767"><ele>301.0</ele><time>2026-04-12T11:05:34.996Z</time></trkpt><trkpt lat="44.7270467" lon="8.4281117"><ele>301.0</ele><time>2026-04-12T11:05:35.997Z</time></trkpt><trkpt lat="44.7269583" lon="8.42794"><ele>301.0</ele><time>2026-04-12T11:05:37Z</time></trkpt><trkpt lat="44.7268717" lon="8.427765"><ele>298.0</ele><time>2026-04-12T11:05:37.996Z</time></trkpt><trkpt lat="44.7267883" lon="8.4276"><ele>295.0</ele><time>2026-04-12T11:05:39.001Z</time></trkpt><trkpt lat="44.7267217" lon="8.4274467"><ele>292.0</ele><time>2026-04-12T11:05:39.998Z</time></trkpt><trkpt lat="44.72668" lon="8.4272983"><ele>289.0</ele><time>2026-04-12T11:05:40.996Z</time></trkpt><trkpt lat="44.7266733" lon="8.4271483"><ele>288.75</ele><time>2026-04-12T11:05:41.999Z</time></trkpt><trkpt lat="44.7266917" lon="8.42701"><ele>288.5</ele><time>2026-04-12T11:05:42.994Z</time></trkpt><trkpt lat="44.7267433" lon="8.4268767"><ele>288.25</ele><time>2026-04-12T11:05:43.998Z</time></trkpt><trkpt lat="44.72683" lon="8.4267567"><ele>288.0</ele><time>2026-04-12T11:05:44.996Z</time></trkpt><trkpt lat="44.72696" lon="8.426635"><ele>291.6666666666667</ele><time>2026-04-12T11:05:45.996Z</time></trkpt><trkpt lat="44.7271017" lon="8.42651"><ele>295.33333333333337</ele><time>2026-04-12T11:05:46.996Z</time></trkpt><trkpt lat="44.7272433" lon="8.4263783"><ele>299.0</ele><time>2026-04-12T11:05:47.993Z</time></trkpt><trkpt lat="44.72739" lon="8.42626"><ele>299.0</ele><time>2026-04-12T11:05:48.993Z</time></trkpt><trkpt lat="44.7275317" lon="8.4261417"><ele>299.0</ele><time>2026-04-12T11:05:49.996Z</time></trkpt><trkpt lat="44.7276667" lon="8.426025"><ele>299.0</ele><time>2026-04-12T11:05:50.995Z</time></trkpt><trkpt lat="44.7277867" lon="8.42591"><ele>304.5</ele><time>2026-04-12T11:05:51.995Z</time></trkpt><trkpt lat="44.7278783" lon="8.42579"><ele>310.0</ele><time>2026-04-12T11:05:52.997Z</time></trkpt><trkpt lat="44.7279467" lon="8.4256517"><ele>315.5</ele><time>2026-04-12T11:05:53.995Z</time></trkpt><trkpt lat="44.7279667" lon="8.425505"><ele>321.0</ele><time>2026-04-12T11:05:54.997Z</time></trkpt><trkpt lat="44.7279467" lon="8.4253667"><ele>321.75</ele><time>2026-04-12T11:05:55.997Z</time></trkpt><trkpt lat="44.72789" lon="8.425245"><ele>322.5</ele><time>2026-04-12T11:05:56.996Z</time></trkpt><trkpt lat="44.7278033" lon="8.4251583"><ele>323.25</ele><time>2026-04-12T11:05:57.994Z</time></trkpt><trkpt lat="44.7276967" lon="8.4250767"><ele>324.0</ele><time>2026-04-12T11:05:58.996Z</time></trkpt><trkpt lat="44.72757" lon="8.425005"><ele>319.0</ele><time>2026-04-12T11:05:59.994Z</time></trkpt><trkpt lat="44.7274283" lon="8.4249383"><ele>314.0</ele><time>2026-04-12T11:06:00.998Z</time></trkpt><trkpt lat="44.7272867" lon="8.4248633"><ele>309.0</ele><time>2026-04-12T11:06:01.995Z</time></trkpt><trkpt lat="44.72713" lon="8.4248083"><ele>309.0</ele><time>2026-04-12T11:06:02.993Z</time></trkpt><trkpt lat="44.7269817" lon="8.4247667"><ele>309.0</ele><time>2026-04-12T11:06:03.997Z</time></trkpt><trkpt lat="44.72684" lon="8.4247433"><ele>309.0</ele><time>2026-04-12T11:06:04.994Z</time></trkpt><trkpt lat="44.726715" lon="8.4247133"><ele>309.0</ele><time>2026-04-12T11:06:05.995Z</time></trkpt><trkpt lat="44.7266183" lon="8.4246583"><ele>309.59999999999997</ele><time>2026-04-12T11:06:06.995Z</time></trkpt><trkpt lat="44.7265667" lon="8.42456"><ele>310.2</ele><time>2026-04-12T11:06:07.996Z</time></trkpt><trkpt lat="44.7265183" lon="8.4244567"><ele>310.79999999999995</ele><time>2026-04-12T11:06:08.995Z</time></trkpt><trkpt lat="44.7264833" lon="8.4243367"><ele>311.4</ele><time>2026-04-12T11:06:09.998Z</time></trkpt><trkpt lat="44.7264617" lon="8.4241883"><ele>312.0</ele><time>2026-04-12T11:06:10.998Z</time></trkpt><trkpt lat="44.7265617" lon="8.4239533"><ele>314.0</ele><time>2026-04-12T11:06:11.994Z</time></trkpt><trkpt lat="44.7266633" lon="8.4237133"><ele>316.0</ele><time>2026-04-12T11:06:12.996Z</time></trkpt><trkpt lat="44.726675" lon="8.4235"><ele>318.0</ele><time>2026-04-12T11:06:13.997Z</time></trkpt><trkpt lat="44.726665" lon="8.4232833"><ele>318.0</ele><time>2026-04-12T11:06:14.997Z</time></trkpt><trkpt lat="44.7266117" lon="8.4230833"><ele>318.0</ele><time>2026-04-12T11:06:15.996Z</time></trkpt><trkpt lat="44.7265417" lon="8.422905"><ele>318.0</ele><time>2026-04-12T11:06:16.995Z</time></trkpt><trkpt lat="44.72644" lon="8.4227567"><ele>318.0</ele><time>2026-04-12T11:06:17.994Z</time></trkpt><trkpt lat="44.7263167" lon="8.422645"><ele>316.75</ele><time>2026-04-12T11:06:18.996Z</time></trkpt><trkpt lat="44.7261883" lon="8.4225683"><ele>315.5</ele><time>2026-04-12T11:06:19.999Z</time></trkpt><trkpt lat="44.72607" lon="8.422495"><ele>314.25</ele><time>2026-04-12T11:06:20.994Z</time></trkpt><trkpt lat="44.725975" lon="8.4224067"><ele>313.0</ele><time>2026-04-12T11:06:21.997Z</time></trkpt><trkpt lat="44.7259083" lon="8.4222833"><ele>315.0</ele><time>2026-04-12T11:06:22.995Z</time></trkpt><trkpt lat="44.72588" lon="8.4221267"><ele>317.0</ele><time>2026-04-12T11:06:23.996Z</time></trkpt><trkpt lat="44.7258883" lon="8.42195"><ele>319.0</ele><time>2026-04-12T11:06:24.999Z</time></trkpt><trkpt lat="44.7259167" lon="8.4217633"><ele>321.0</ele><time>2026-04-12T11:06:25.995Z</time></trkpt><trkpt lat="44.7259617" lon="8.4215617"><ele>321.0</ele><time>2026-04-12T11:06:26.993Z</time></trkpt><trkpt lat="44.7260117" lon="8.4213567"><ele>321.0</ele><time>2026-04-12T11:06:27.996Z</time></trkpt><trkpt lat="44.7260317" lon="8.4211483"><ele>321.0</ele><time>2026-04-12T11:06:28.995Z</time></trkpt><trkpt lat="44.7260167" lon="8.4209317"><ele>323.0</ele><time>2026-04-12T11:06:29.996Z</time></trkpt><trkpt lat="44.7259767" lon="8.4207067"><ele>325.0</ele><time>2026-04-12T11:06:30.997Z</time></trkpt><trkpt lat="44.7259033" lon="8.42048"><ele>327.0</ele><time>2026-04-12T11:06:31.997Z</time></trkpt><trkpt lat="44.7258317" lon="8.42026"><ele>330.0</ele><time>2026-04-12T11:06:32.998Z</time></trkpt><trkpt lat="44.72576" lon="8.420045"><ele>333.0</ele><time>2026-04-12T11:06:33.996Z</time></trkpt><trkpt lat="44.7256933" lon="8.4198317"><ele>336.0</ele><time>2026-04-12T11:06:34.991Z</time></trkpt><trkpt lat="44.72564" lon="8.4196233"><ele>337.0</ele><time>2026-04-12T11:06:35.996Z</time></trkpt><trkpt lat="44.7256" lon="8.4194233"><ele>338.0</ele><time>2026-04-12T11:06:36.995Z</time></trkpt><trkpt lat="44.725605" lon="8.4192233"><ele>339.0</ele><time>2026-04-12T11:06:37.995Z</time></trkpt><trkpt lat="44.725645" lon="8.4190417"><ele>340.0</ele><time>2026-04-12T11:06:38.996Z</time></trkpt><trkpt lat="44.7256567" lon="8.4188683"><ele>338.5</ele><time>2026-04-12T11:06:39.993Z</time></trkpt><trkpt lat="44.7256417" lon="8.4187017"><ele>337.0</ele><time>2026-04-12T11:06:40.996Z</time></trkpt><trkpt lat="44.7255917" lon="8.418565"><ele>335.5</ele><time>2026-04-12T11:06:41.993Z</time></trkpt><trkpt lat="44.72551" lon="8.4184433"><ele>334.0</ele><time>2026-04-12T11:06:42.996Z</time></trkpt><trkpt lat="44.7254083" lon="8.4183367"><ele>334.0</ele><time>2026-04-12T11:06:43.995Z</time></trkpt><trkpt lat="44.7253017" lon="8.4182267"><ele>334.0</ele><time>2026-04-12T11:06:44.993Z</time></trkpt><trkpt lat="44.7252117" lon="8.418105"><ele>334.0</ele><time>2026-04-12T11:06:45.994Z</time></trkpt><trkpt lat="44.725135" lon="8.4179833"><ele>334.0</ele><time>2026-04-12T11:06:46.994Z</time></trkpt><trkpt lat="44.7250767" lon="8.4178667"><ele>334.3333333333333</ele><time>2026-04-12T11:06:47.997Z</time></trkpt><trkpt lat="44.725025" lon="8.4177567"><ele>334.66666666666663</ele><time>2026-04-12T11:06:49.003Z</time></trkpt><trkpt lat="44.7249717" lon="8.4176583"><ele>335.0</ele><time>2026-04-12T11:06:49.996Z</time></trkpt><trkpt lat="44.7249033" lon="8.4175767"><ele>335.3333333333333</ele><time>2026-04-12T11:06:50.999Z</time></trkpt><trkpt lat="44.7248317" lon="8.41752"><ele>335.6666666666667</ele><time>2026-04-12T11:06:51.997Z</time></trkpt><trkpt lat="44.7247483" lon="8.41748"><ele>336.0</ele><time>2026-04-12T11:06:52.994Z</time></trkpt><trkpt lat="44.7246583" lon="8.4174633"><ele>336.0</ele><time>2026-04-12T11:06:53.997Z</time></trkpt><trkpt lat="44.7245583" lon="8.417455"><ele>336.0</ele><time>2026-04-12T11:06:54.998Z</time></trkpt><trkpt lat="44.72446" lon="8.4174417"><ele>336.0</ele><time>2026-04-12T11:06:55.998Z</time></trkpt><trkpt lat="44.72437" lon="8.4174183"><ele>336.0</ele><time>2026-04-12T11:06:56.996Z</time></trkpt><trkpt lat="44.7242867" lon="8.4173733"><ele>336.0</ele><time>2026-04-12T11:06:57.998Z</time></trkpt><trkpt lat="44.7242117" lon="8.4173067"><ele>337.6</ele><time>2026-04-12T11:06:58.999Z</time></trkpt><trkpt lat="44.72414" lon="8.4172183"><ele>339.20000000000005</ele><time>2026-04-12T11:06:59.993Z</time></trkpt><trkpt lat="44.72409" lon="8.4171133"><ele>340.79999999999995</ele><time>2026-04-12T11:07:00.999Z</time></trkpt><trkpt lat="44.72406" lon="8.4170017"><ele>342.4</ele><time>2026-04-12T11:07:01.996Z</time></trkpt><trkpt lat="44.724035" lon="8.4168833"><ele>344.0</ele><time>2026-04-12T11:07:03.002Z</time></trkpt><trkpt lat="44.72403" lon="8.4167517"><ele>344.0</ele><time>2026-04-12T11:07:03.994Z</time></trkpt><trkpt lat="44.7240133" lon="8.4166267"><ele>344.0</ele><time>2026-04-12T11:07:04.995Z</time></trkpt><trkpt lat="44.72398" lon="8.41651"><ele>344.0</ele><time>2026-04-12T11:07:05.995Z</time></trkpt><trkpt lat="44.7239267" lon="8.41641"><ele>344.0</ele><time>2026-04-12T11:07:06.995Z</time></trkpt><trkpt lat="44.723865" lon="8.4163233"><ele>344.0</ele><time>2026-04-12T11:07:07.995Z</time></trkpt><trkpt lat="44.72379" lon="8.4162517"><ele>344.0</ele><time>2026-04-12T11:07:08.996Z</time></trkpt><trkpt lat="44.7236883" lon="8.416215"><ele>345.0</ele><time>2026-04-12T11:07:09.998Z</time></trkpt><trkpt lat="44.7235783" lon="8.4161767"><ele>346.0</ele><time>2026-04-12T11:07:10.994Z</time></trkpt><trkpt lat="44.7234617" lon="8.4161417"><ele>347.0</ele><time>2026-04-12T11:07:11.997Z</time></trkpt><trkpt lat="44.7233567" lon="8.416105"><ele>348.0</ele><time>2026-04-12T11:07:13.002Z</time></trkpt><trkpt lat="44.7232567" lon="8.4160617"><ele>349.0</ele><time>2026-04-12T11:07:13.994Z</time></trkpt><trkpt lat="44.7231667" lon="8.4159967"><ele>349.0</ele><time>2026-04-12T11:07:14.995Z</time></trkpt><trkpt lat="44.7230983" lon="8.4158983"><ele>349.0</ele><time>2026-04-12T11:07:15.997Z</time></trkpt><trkpt lat="44.7230533" lon="8.4157633"><ele>349.0</ele><time>2026-04-12T11:07:16.997Z</time></trkpt><trkpt lat="44.7230233" lon="8.41559"><ele>349.0</ele><time>2026-04-12T11:07:17.995Z</time></trkpt><trkpt lat="44.7230133" lon="8.4153717"><ele>349.3333333333333</ele><time>2026-04-12T11:07:18.997Z</time></trkpt><trkpt lat="44.72302" lon="8.4151117"><ele>349.6666666666667</ele><time>2026-04-12T11:07:19.997Z</time></trkpt><trkpt lat="44.7230333" lon="8.41484"><ele>350.0</ele><time>2026-04-12T11:07:20.997Z</time></trkpt><trkpt lat="44.72305" lon="8.41458"><ele>351.5</ele><time>2026-04-12T11:07:21.995Z</time></trkpt><trkpt lat="44.72307" lon="8.414345"><ele>353.0</ele><time>2026-04-12T11:07:22.994Z</time></trkpt><trkpt lat="44.7231" lon="8.4141417"><ele>354.5</ele><time>2026-04-12T11:07:23.994Z</time></trkpt><trkpt lat="44.7231533" lon="8.4139733"><ele>356.0</ele><time>2026-04-12T11:07:24.995Z</time></trkpt><trkpt lat="44.723245" lon="8.4138367"><ele>357.6666666666667</ele><time>2026-04-12T11:07:25.997Z</time></trkpt><trkpt lat="44.7233733" lon="8.4137283"><ele>359.3333333333333</ele><time>2026-04-12T11:07:26.998Z</time></trkpt><trkpt lat="44.72353" lon="8.4136367"><ele>361.0</ele><time>2026-04-12T11:07:27.995Z</time></trkpt><trkpt lat="44.7237033" lon="8.4135383"><ele>361.0</ele><time>2026-04-12T11:07:28.994Z</time></trkpt><trkpt lat="44.7238783" lon="8.4134183"><ele>361.0</ele><time>2026-04-12T11:07:29.996Z</time></trkpt><trkpt lat="44.7240517" lon="8.4132967"><ele>361.0</ele><time>2026-04-12T11:07:30.993Z</time></trkpt><trkpt lat="44.724215" lon="8.4131683"><ele>361.0</ele><time>2026-04-12T11:07:31.992Z</time></trkpt><trkpt lat="44.72437" lon="8.4130517"><ele>361.0</ele><time>2026-04-12T11:07:32.997Z</time></trkpt><trkpt lat="44.724505" lon="8.41296"><ele>361.0</ele><time>2026-04-12T11:07:33.992Z</time></trkpt><trkpt lat="44.72464" lon="8.4129167"><ele>362.5</ele><time>2026-04-12T11:07:34.994Z</time></trkpt><trkpt lat="44.724765" lon="8.412885"><ele>364.0</ele><time>2026-04-12T11:07:35.993Z</time></trkpt><trkpt lat="44.72487" lon="8.4128233"><ele>365.5</ele><time>2026-04-12T11:07:37.003Z</time></trkpt><trkpt lat="44.7249467" lon="8.4127183"><ele>367.0</ele><time>2026-04-12T11:07:37.993Z</time></trkpt><trkpt lat="44.7250083" lon="8.412585"><ele>367.0</ele><time>2026-04-12T11:07:38.997Z</time></trkpt><trkpt lat="44.7250583" lon="8.4124333"><ele>367.0</ele><time>2026-04-12T11:07:39.995Z</time></trkpt><trkpt lat="44.7251217" lon="8.4122883"><ele>367.0</ele><time>2026-04-12T11:07:40.997Z</time></trkpt><trkpt lat="44.7252083" lon="8.412175"><ele>367.0</ele><time>2026-04-12T11:07:41.997Z</time></trkpt><trkpt lat="44.72531" lon="8.4121067"><ele>368.5</ele><time>2026-04-12T11:07:42.999Z</time></trkpt><trkpt lat="44.72543" lon="8.4120767"><ele>370.0</ele><time>2026-04-12T11:07:43.997Z</time></trkpt><trkpt lat="44.725565" lon="8.4120533"><ele>371.5</ele><time>2026-04-12T11:07:45Z</time></trkpt><trkpt lat="44.7257" lon="8.4120067"><ele>373.0</ele><time>2026-04-12T11:07:45.998Z</time></trkpt><trkpt lat="44.725835" lon="8.4119317"><ele>373.0</ele><time>2026-04-12T11:07:46.995Z</time></trkpt><trkpt lat="44.7259667" lon="8.41183"><ele>373.0</ele><time>2026-04-12T11:07:47.997Z</time></trkpt><trkpt lat="44.7261" lon="8.4117017"><ele>373.0</ele><time>2026-04-12T11:07:48.996Z</time></trkpt><trkpt lat="44.7262367" lon="8.41156"><ele>372.3333333333333</ele><time>2026-04-12T11:07:49.997Z</time></trkpt><trkpt lat="44.7263783" lon="8.4114233"><ele>371.6666666666667</ele><time>2026-04-12T11:07:50.998Z</time></trkpt><trkpt lat="44.7265133" lon="8.4112867"><ele>371.0</ele><time>2026-04-12T11:07:51.999Z</time></trkpt><trkpt lat="44.726635" lon="8.4111533"><ele>371.0</ele><time>2026-04-12T11:07:52.997Z</time></trkpt><trkpt lat="44.7267233" lon="8.4110183"><ele>371.0</ele><time>2026-04-12T11:07:53.996Z</time></trkpt><trkpt lat="44.7267817" lon="8.4108767"><ele>371.0</ele><time>2026-04-12T11:07:55Z</time></trkpt><trkpt lat="44.72681" lon="8.4107283"><ele>371.0</ele><time>2026-04-12T11:07:55.997Z</time></trkpt><trkpt lat="44.7268067" lon="8.4105733"><ele>370.0</ele><time>2026-04-12T11:07:56.999Z</time></trkpt><trkpt lat="44.72678" lon="8.4103983"><ele>369.0</ele><time>2026-04-12T11:07:57.998Z</time></trkpt><trkpt lat="44.72674" lon="8.4102067"><ele>368.0</ele><time>2026-04-12T11:07:58.993Z</time></trkpt><trkpt lat="44.7266967" lon="8.4099983"><ele>367.0</ele><time>2026-04-12T11:07:59.998Z</time></trkpt><trkpt lat="44.7266533" lon="8.4097783"><ele>365.75</ele><time>2026-04-12T11:08:00.996Z</time></trkpt><trkpt lat="44.7266117" lon="8.40956"><ele>364.5</ele><time>2026-04-12T11:08:01.995Z</time></trkpt><trkpt lat="44.7265933" lon="8.4093583"><ele>363.25</ele><time>2026-04-12T11:08:02.999Z</time></trkpt><trkpt lat="44.7266067" lon="8.4091717"><ele>362.0</ele><time>2026-04-12T11:08:03.998Z</time></trkpt><trkpt lat="44.7266633" lon="8.4089817"><ele>361.0</ele><time>2026-04-12T11:08:04.994Z</time></trkpt><trkpt lat="44.7267367" lon="8.4087917"><ele>360.0</ele><time>2026-04-12T11:08:05.996Z</time></trkpt><trkpt lat="44.7268167" lon="8.4085967"><ele>359.0</ele><time>2026-04-12T11:08:06.994Z</time></trkpt><trkpt lat="44.7269" lon="8.4084"><ele>356.33333333333337</ele><time>2026-04-12T11:08:07.993Z</time></trkpt><trkpt lat="44.726985" lon="8.4082"><ele>353.6666666666667</ele><time>2026-04-12T11:08:09.001Z</time></trkpt><trkpt lat="44.727065" lon="8.4080033"><ele>351.0</ele><time>2026-04-12T11:08:09.994Z</time></trkpt><trkpt lat="44.727135" lon="8.4078133"><ele>350.5</ele><time>2026-04-12T11:08:10.998Z</time></trkpt><trkpt lat="44.727175" lon="8.4076167"><ele>350.0</ele><time>2026-04-12T11:08:11.996Z</time></trkpt><trkpt lat="44.7271817" lon="8.4074083"><ele>349.5</ele><time>2026-04-12T11:08:12.997Z</time></trkpt><trkpt lat="44.727165" lon="8.4072"><ele>349.0</ele><time>2026-04-12T11:08:13.997Z</time></trkpt><trkpt lat="44.7271317" lon="8.4069967"><ele>348.5</ele><time>2026-04-12T11:08:14.996Z</time></trkpt><trkpt lat="44.7270933" lon="8.40679"><ele>348.0</ele><time>2026-04-12T11:08:15.995Z</time></trkpt><trkpt lat="44.7270667" lon="8.406585"><ele>347.5</ele><time>2026-04-12T11:08:16.995Z</time></trkpt><trkpt lat="44.7270583" lon="8.40638"><ele>347.0</ele><time>2026-04-12T11:08:18.001Z</time></trkpt><trkpt lat="44.7270767" lon="8.4061733"><ele>347.0</ele><time>2026-04-12T11:08:18.996Z</time></trkpt><trkpt lat="44.7271183" lon="8.405965"><ele>347.0</ele><time>2026-04-12T11:08:19.997Z</time></trkpt><trkpt lat="44.727185" lon="8.405765"><ele>347.0</ele><time>2026-04-12T11:08:20.998Z</time></trkpt><trkpt lat="44.7272817" lon="8.4055683"><ele>349.0</ele><time>2026-04-12T11:08:21.997Z</time></trkpt><trkpt lat="44.7274" lon="8.405365"><ele>351.0</ele><time>2026-04-12T11:08:23.002Z</time></trkpt><trkpt lat="44.7275267" lon="8.40516"><ele>353.0</ele><time>2026-04-12T11:08:23.998Z</time></trkpt><trkpt lat="44.7276533" lon="8.4049533"><ele>350.33333333333337</ele><time>2026-04-12T11:08:24.995Z</time></trkpt><trkpt lat="44.72778" lon="8.4047383"><ele>347.6666666666667</ele><time>2026-04-12T11:08:25.994Z</time></trkpt><trkpt lat="44.7279033" lon="8.404525"><ele>345.0</ele><time>2026-04-12T11:08:27.001Z</time></trkpt><trkpt lat="44.728025" lon="8.4043183"><ele>345.0</ele><time>2026-04-12T11:08:28Z</time></trkpt><trkpt lat="44.7281467" lon="8.4041183"><ele>345.0</ele><time>2026-04-12T11:08:28.997Z</time></trkpt><trkpt lat="44.7282667" lon="8.40392"><ele>345.0</ele><time>2026-04-12T11:08:29.997Z</time></trkpt><trkpt lat="44.7283867" lon="8.403725"><ele>343.0</ele><time>2026-04-12T11:08:30.997Z</time></trkpt><trkpt lat="44.728505" lon="8.4035267"><ele>341.0</ele><time>2026-04-12T11:08:31.997Z</time></trkpt><trkpt lat="44.7286217" lon="8.4033333"><ele>339.0</ele><time>2026-04-12T11:08:33.002Z</time></trkpt><trkpt lat="44.7287367" lon="8.4031417"><ele>341.6666666666667</ele><time>2026-04-12T11:08:33.996Z</time></trkpt><trkpt lat="44.728845" lon="8.40295"><ele>344.33333333333337</ele><time>2026-04-12T11:08:34.995Z</time></trkpt><trkpt lat="44.728945" lon="8.402755"><ele>347.0</ele><time>2026-04-12T11:08:35.997Z</time></trkpt><trkpt lat="44.7290317" lon="8.4025433"><ele>347.0</ele><time>2026-04-12T11:08:37.003Z</time></trkpt><trkpt lat="44.7291" lon="8.402315"><ele>347.0</ele><time>2026-04-12T11:08:37.995Z</time></trkpt><trkpt lat="44.72916" lon="8.4020717"><ele>347.0</ele><time>2026-04-12T11:08:38.995Z</time></trkpt><trkpt lat="44.7292133" lon="8.40182"><ele>348.33333333333337</ele><time>2026-04-12T11:08:39.995Z</time></trkpt><trkpt lat="44.7292633" lon="8.401565"><ele>349.6666666666667</ele><time>2026-04-12T11:08:40.996Z</time></trkpt><trkpt lat="44.7293083" lon="8.4013233"><ele>351.0</ele><time>2026-04-12T11:08:41.995Z</time></trkpt><trkpt lat="44.7293483" lon="8.4011067"><ele>351.0</ele><time>2026-04-12T11:08:42.995Z</time></trkpt><trkpt lat="44.7293833" lon="8.4008983"><ele>351.0</ele><time>2026-04-12T11:08:43.996Z</time></trkpt><trkpt lat="44.7294167" lon="8.4006917"><ele>351.0</ele><time>2026-04-12T11:08:45.007Z</time></trkpt><trkpt lat="44.7294483" lon="8.4004767"><ele>346.3333333333333</ele><time>2026-04-12T11:08:45.995Z</time></trkpt><trkpt lat="44.7294833" lon="8.4002467"><ele>341.66666666666663</ele><time>2026-04-12T11:08:46.996Z</time></trkpt><trkpt lat="44.7295233" lon="8.4000117"><ele>337.0</ele><time>2026-04-12T11:08:48.004Z</time></trkpt><trkpt lat="44.72957" lon="8.39977"><ele>338.66666666666663</ele><time>2026-04-12T11:08:48.995Z</time></trkpt><trkpt lat="44.7296133" lon="8.399525"><ele>340.3333333333333</ele><time>2026-04-12T11:08:49.997Z</time></trkpt><trkpt lat="44.729655" lon="8.3992817"><ele>342.0</ele><time>2026-04-12T11:08:50.999Z</time></trkpt><trkpt lat="44.7296967" lon="8.3990367"><ele>342.3333333333333</ele><time>2026-04-12T11:08:52.002Z</time></trkpt><trkpt lat="44.7297417" lon="8.39879"><ele>342.66666666666663</ele><time>2026-04-12T11:08:52.992Z</time></trkpt><trkpt lat="44.729785" lon="8.39854"><ele>343.0</ele><time>2026-04-12T11:08:53.993Z</time></trkpt><trkpt lat="44.72983" lon="8.3982917"><ele>343.0</ele><time>2026-04-12T11:08:54.997Z</time></trkpt><trkpt lat="44.729875" lon="8.398045"><ele>343.0</ele><time>2026-04-12T11:08:55.998Z</time></trkpt><trkpt lat="44.7299233" lon="8.397805"><ele>343.0</ele><time>2026-04-12T11:08:56.996Z</time></trkpt><trkpt lat="44.7299683" lon="8.3975683"><ele>343.66666666666663</ele><time>2026-04-12T11:08:57.999Z</time></trkpt><trkpt lat="44.7300167" lon="8.39734"><ele>344.3333333333333</ele><time>2026-04-12T11:08:58.996Z</time></trkpt><trkpt lat="44.7300733" lon="8.3971217"><ele>345.0</ele><time>2026-04-12T11:08:59.996Z</time></trkpt><trkpt lat="44.7301433" lon="8.3969283"><ele>344.75</ele><time>2026-04-12T11:09:00.994Z</time></trkpt><trkpt lat="44.730235" lon="8.3967633"><ele>344.5</ele><time>2026-04-12T11:09:02.003Z</time></trkpt><trkpt lat="44.73034" lon="8.396625"><ele>344.25</ele><time>2026-04-12T11:09:02.997Z</time></trkpt><trkpt lat="44.730455" lon="8.3965183"><ele>344.0</ele><time>2026-04-12T11:09:03.997Z</time></trkpt><trkpt lat="44.7305867" lon="8.3964367"><ele>344.0</ele><time>2026-04-12T11:09:04.998Z</time></trkpt><trkpt lat="44.7307333" lon="8.39638"><ele>344.0</ele><time>2026-04-12T11:09:05.995Z</time></trkpt><trkpt lat="44.7308833" lon="8.3963367"><ele>344.0</ele><time>2026-04-12T11:09:06.999Z</time></trkpt><trkpt lat="44.7310317" lon="8.3962967"><ele>343.5</ele><time>2026-04-12T11:09:07.998Z</time></trkpt><trkpt lat="44.731165" lon="8.3962433"><ele>343.0</ele><time>2026-04-12T11:09:08.996Z</time></trkpt><trkpt lat="44.731275" lon="8.3961783"><ele>342.5</ele><time>2026-04-12T11:09:09.994Z</time></trkpt><trkpt lat="44.73135" lon="8.39609"><ele>342.0</ele><time>2026-04-12T11:09:10.997Z</time></trkpt><trkpt lat="44.7314033" lon="8.3959767"><ele>342.0</ele><time>2026-04-12T11:09:11.999Z</time></trkpt><trkpt lat="44.7314433" lon="8.39584"><ele>342.0</ele><time>2026-04-12T11:09:13.005Z</time></trkpt><trkpt lat="44.7314633" lon="8.3956783"><ele>342.0</ele><time>2026-04-12T11:09:13.996Z</time></trkpt><trkpt lat="44.7314633" lon="8.3955"><ele>342.0</ele><time>2026-04-12T11:09:14.997Z</time></trkpt><trkpt lat="44.7314383" lon="8.39532"><ele>340.75</ele><time>2026-04-12T11:09:15.997Z</time></trkpt><trkpt lat="44.7313933" lon="8.3951417"><ele>339.5</ele><time>2026-04-12T11:09:17Z</time></trkpt><trkpt lat="44.7313417" lon="8.3949617"><ele>338.25</ele><time>2026-04-12T11:09:18Z</time></trkpt><trkpt lat="44.7313083" lon="8.3947683"><ele>337.0</ele><time>2026-04-12T11:09:18.995Z</time></trkpt><trkpt lat="44.7313033" lon="8.3945617"><ele>334.66666666666663</ele><time>2026-04-12T11:09:19.997Z</time></trkpt><trkpt lat="44.7312967" lon="8.3943483"><ele>332.3333333333333</ele><time>2026-04-12T11:09:21Z</time></trkpt><trkpt lat="44.7313017" lon="8.3941367"><ele>330.0</ele><time>2026-04-12T11:09:22Z</time></trkpt><trkpt lat="44.73133" lon="8.3939233"><ele>330.0</ele><time>2026-04-12T11:09:22.996Z</time></trkpt><trkpt lat="44.7313717" lon="8.3937067"><ele>330.0</ele><time>2026-04-12T11:09:23.997Z</time></trkpt><trkpt lat="44.731425" lon="8.393495"><ele>330.0</ele><time>2026-04-12T11:09:24.998Z</time></trkpt><trkpt lat="44.731485" lon="8.3932933"><ele>330.0</ele><time>2026-04-12T11:09:25.998Z</time></trkpt><trkpt lat="44.7315467" lon="8.393095"><ele>330.0</ele><time>2026-04-12T11:09:27.001Z</time></trkpt><trkpt lat="44.7316117" lon="8.3928983"><ele>330.0</ele><time>2026-04-12T11:09:27.998Z</time></trkpt><trkpt lat="44.7316717" lon="8.3927017"><ele>330.25</ele><time>2026-04-12T11:09:28.995Z</time></trkpt><trkpt lat="44.73173" lon="8.3925217"><ele>330.5</ele><time>2026-04-12T11:09:30.003Z</time></trkpt><trkpt lat="44.731785" lon="8.3923667"><ele>330.75</ele><time>2026-04-12T11:09:31.002Z</time></trkpt><trkpt lat="44.7318317" lon="8.392245"><ele>331.0</ele><time>2026-04-12T11:09:31.995Z</time></trkpt><trkpt lat="44.7318667" lon="8.3921283"><ele>331.0</ele><time>2026-04-12T11:09:32.996Z</time></trkpt><trkpt lat="44.7318817" lon="8.3920067"><ele>331.0</ele><time>2026-04-12T11:09:34.004Z</time></trkpt><trkpt lat="44.7318733" lon="8.391875"><ele>331.0</ele><time>2026-04-12T11:09:34.995Z</time></trkpt><trkpt lat="44.7318567" lon="8.3917517"><ele>331.0</ele><time>2026-04-12T11:09:35.999Z</time></trkpt><trkpt lat="44.73184" lon="8.3916383"><ele>331.0</ele><time>2026-04-12T11:09:36.996Z</time></trkpt><trkpt lat="44.73185" lon="8.3915133"><ele>331.0</ele><time>2026-04-12T11:09:37.997Z</time></trkpt><trkpt lat="44.731875" lon="8.391375"><ele>329.25</ele><time>2026-04-12T11:09:38.997Z</time></trkpt><trkpt lat="44.731915" lon="8.3912167"><ele>327.5</ele><time>2026-04-12T11:09:39.997Z</time></trkpt><trkpt lat="44.7319617" lon="8.3910433"><ele>325.75</ele><time>2026-04-12T11:09:40.995Z</time></trkpt><trkpt lat="44.7320067" lon="8.39086"><ele>324.0</ele><time>2026-04-12T11:09:41.998Z</time></trkpt><trkpt lat="44.7320483" lon="8.390675"><ele>325.25</ele><time>2026-04-12T11:09:42.994Z</time></trkpt><trkpt lat="44.732095" lon="8.3905017"><ele>326.5</ele><time>2026-04-12T11:09:43.997Z</time></trkpt><trkpt lat="44.732135" lon="8.3903367"><ele>327.75</ele><time>2026-04-12T11:09:44.997Z</time></trkpt><trkpt lat="44.7321733" lon="8.3901633"><ele>329.0</ele><time>2026-04-12T11:09:45.997Z</time></trkpt><trkpt lat="44.7321983" lon="8.38999"><ele>329.0</ele><time>2026-04-12T11:09:46.996Z</time></trkpt><trkpt lat="44.7321933" lon="8.3898167"><ele>329.0</ele><time>2026-04-12T11:09:47.999Z</time></trkpt><trkpt lat="44.7321583" lon="8.389645"><ele>329.0</ele><time>2026-04-12T11:09:48.997Z</time></trkpt><trkpt lat="44.7321" lon="8.3894767"><ele>329.0</ele><time>2026-04-12T11:09:49.998Z</time></trkpt><trkpt lat="44.7320283" lon="8.3893117"><ele>330.75</ele><time>2026-04-12T11:09:50.999Z</time></trkpt><trkpt lat="44.7319567" lon="8.38914"><ele>332.5</ele><time>2026-04-12T11:09:51.997Z</time></trkpt><trkpt lat="44.7318933" lon="8.3889633"><ele>334.25</ele><time>2026-04-12T11:09:53Z</time></trkpt><trkpt lat="44.7318383" lon="8.3887817"><ele>336.0</ele><time>2026-04-12T11:09:53.996Z</time></trkpt><trkpt lat="44.7317867" lon="8.3885967"><ele>336.25</ele><time>2026-04-12T11:09:55.001Z</time></trkpt><trkpt lat="44.7317367" lon="8.388405"><ele>336.5</ele><time>2026-04-12T11:09:55.996Z</time></trkpt><trkpt lat="44.7316767" lon="8.3882217"><ele>336.75</ele><time>2026-04-12T11:09:56.997Z</time></trkpt><trkpt lat="44.731605" lon="8.38804"><ele>337.0</ele><time>2026-04-12T11:09:57.998Z</time></trkpt><trkpt lat="44.7315183" lon="8.387865"><ele>337.3333333333333</ele><time>2026-04-12T11:09:58.998Z</time></trkpt><trkpt lat="44.7314183" lon="8.3877033"><ele>337.6666666666667</ele><time>2026-04-12T11:09:59.994Z</time></trkpt><trkpt lat="44.7313117" lon="8.3875533"><ele>338.0</ele><time>2026-04-12T11:10:00.996Z</time></trkpt><trkpt lat="44.7311967" lon="8.3874133"><ele>338.0</ele><time>2026-04-12T11:10:01.999Z</time></trkpt><trkpt lat="44.731085" lon="8.3872783"><ele>338.0</ele><time>2026-04-12T11:10:03.001Z</time></trkpt><trkpt lat="44.730975" lon="8.3871483"><ele>338.0</ele><time>2026-04-12T11:10:03.995Z</time></trkpt><trkpt lat="44.7308583" lon="8.3870217"><ele>338.0</ele><time>2026-04-12T11:10:04.997Z</time></trkpt><trkpt lat="44.73074" lon="8.386895"><ele>338.75</ele><time>2026-04-12T11:10:05.992Z</time></trkpt><trkpt lat="44.73062" lon="8.3867667"><ele>339.5</ele><time>2026-04-12T11:10:06.995Z</time></trkpt><trkpt lat="44.7305033" lon="8.3866383"><ele>340.25</ele><time>2026-04-12T11:10:07.995Z</time></trkpt><trkpt lat="44.730385" lon="8.38652"><ele>341.0</ele><time>2026-04-12T11:10:08.995Z</time></trkpt><trkpt lat="44.7302783" lon="8.3864083"><ele>341.5</ele><time>2026-04-12T11:10:09.995Z</time></trkpt><trkpt lat="44.7301867" lon="8.3862967"><ele>342.0</ele><time>2026-04-12T11:10:10.994Z</time></trkpt><trkpt lat="44.7301033" lon="8.38617"><ele>342.5</ele><time>2026-04-12T11:10:11.995Z</time></trkpt><trkpt lat="44.7300317" lon="8.3860167"><ele>343.0</ele><time>2026-04-12T11:10:12.994Z</time></trkpt><trkpt lat="44.7299717" lon="8.38584"><ele>343.0</ele><time>2026-04-12T11:10:13.993Z</time></trkpt><trkpt lat="44.7299133" lon="8.3856433"><ele>343.0</ele><time>2026-04-12T11:10:14.997Z</time></trkpt><trkpt lat="44.72986" lon="8.385435"><ele>343.0</ele><time>2026-04-12T11:10:15.995Z</time></trkpt><trkpt lat="44.7298017" lon="8.3852217"><ele>340.66666666666663</ele><time>2026-04-12T11:10:16.996Z</time></trkpt><trkpt lat="44.72974" lon="8.38501"><ele>338.3333333333333</ele><time>2026-04-12T11:10:17.996Z</time></trkpt><trkpt lat="44.7296783" lon="8.384795"><ele>336.0</ele><time>2026-04-12T11:10:19Z</time></trkpt><trkpt lat="44.7296233" lon="8.38458"><ele>334.3333333333333</ele><time>2026-04-12T11:10:19.995Z</time></trkpt><trkpt lat="44.72957" lon="8.384365"><ele>332.66666666666663</ele><time>2026-04-12T11:10:20.997Z</time></trkpt><trkpt lat="44.7295317" lon="8.3841467"><ele>331.0</ele><time>2026-04-12T11:10:21.997Z</time></trkpt><trkpt lat="44.7295133" lon="8.3839217"><ele>330.66666666666663</ele><time>2026-04-12T11:10:22.994Z</time></trkpt><trkpt lat="44.7295117" lon="8.3836917"><ele>330.3333333333333</ele><time>2026-04-12T11:10:23.997Z</time></trkpt><trkpt lat="44.7295217" lon="8.3834583"><ele>330.0</ele><time>2026-04-12T11:10:24.994Z</time></trkpt><trkpt lat="44.7295333" lon="8.3832217"><ele>330.25</ele><time>2026-04-12T11:10:25.994Z</time></trkpt><trkpt lat="44.729545" lon="8.38299"><ele>330.5</ele><time>2026-04-12T11:10:26.995Z</time></trkpt><trkpt lat="44.7295567" lon="8.3827767"><ele>330.75</ele><time>2026-04-12T11:10:27.997Z</time></trkpt><trkpt lat="44.7295733" lon="8.3825983"><ele>331.0</ele><time>2026-04-12T11:10:28.994Z</time></trkpt><trkpt lat="44.729575" lon="8.3824683"><ele>331.0</ele><time>2026-04-12T11:10:29.993Z</time></trkpt><trkpt lat="44.7295483" lon="8.382365"><ele>331.0</ele><time>2026-04-12T11:10:30.995Z</time></trkpt><trkpt lat="44.7294983" lon="8.38228"><ele>331.0</ele><time>2026-04-12T11:10:31.996Z</time></trkpt><trkpt lat="44.7294433" lon="8.3822"><ele>331.0</ele><time>2026-04-12T11:10:32.996Z</time></trkpt><trkpt lat="44.7293683" lon="8.3821417"><ele>331.0</ele><time>2026-04-12T11:10:34Z</time></trkpt><trkpt lat="44.7292833" lon="8.3821067"><ele>331.0</ele><time>2026-04-12T11:10:34.996Z</time></trkpt><trkpt lat="44.7291917" lon="8.3820917"><ele>331.75</ele><time>2026-04-12T11:10:35.999Z</time></trkpt><trkpt lat="44.7290867" lon="8.382095"><ele>332.5</ele><time>2026-04-12T11:10:37Z</time></trkpt><trkpt lat="44.72896" lon="8.382115"><ele>333.25</ele><time>2026-04-12T11:10:37.999Z</time></trkpt><trkpt lat="44.7288367" lon="8.3821167"><ele>334.0</ele><time>2026-04-12T11:10:39.004Z</time></trkpt><trkpt lat="44.728705" lon="8.38212"><ele>334.0</ele><time>2026-04-12T11:10:39.997Z</time></trkpt><trkpt lat="44.7285717" lon="8.382115"><ele>334.0</ele><time>2026-04-12T11:10:40.999Z</time></trkpt><trkpt lat="44.72844" lon="8.3821133"><ele>334.0</ele><time>2026-04-12T11:10:41.999Z</time></trkpt><trkpt lat="44.7283067" lon="8.3821067"><ele>334.0</ele><time>2026-04-12T11:10:42.997Z</time></trkpt><trkpt lat="44.7281767" lon="8.382085"><ele>333.0</ele><time>2026-04-12T11:10:43.993Z</time></trkpt><trkpt lat="44.728045" lon="8.382055"><ele>332.0</ele><time>2026-04-12T11:10:44.994Z</time></trkpt><trkpt lat="44.727925" lon="8.3820117"><ele>331.0</ele><time>2026-04-12T11:10:45.994Z</time></trkpt><trkpt lat="44.72782" lon="8.3819667"><ele>330.0</ele><time>2026-04-12T11:10:46.997Z</time></trkpt><trkpt lat="44.7277317" lon="8.38192"><ele>329.8333333333333</ele><time>2026-04-12T11:10:48.001Z</time></trkpt><trkpt lat="44.727665" lon="8.38187"><ele>329.6666666666667</ele><time>2026-04-12T11:10:48.997Z</time></trkpt><trkpt lat="44.7276067" lon="8.38181"><ele>329.5</ele><time>2026-04-12T11:10:50Z</time></trkpt><trkpt lat="44.7276083" lon="8.381645"><ele>329.33333333333337</ele><time>2026-04-12T11:10:51.997Z</time></trkpt><trkpt lat="44.7276467" lon="8.381545"><ele>329.1666666666667</ele><time>2026-04-12T11:10:52.999Z</time></trkpt><trkpt lat="44.7277083" lon="8.3814283"><ele>329.0</ele><time>2026-04-12T11:10:53.995Z</time></trkpt><trkpt lat="44.7278" lon="8.3812817"><ele>326.0</ele><time>2026-04-12T11:10:55.002Z</time></trkpt><trkpt lat="44.7278933" lon="8.3811283"><ele>323.0</ele><time>2026-04-12T11:10:55.996Z</time></trkpt><trkpt lat="44.7279883" lon="8.3809683"><ele>320.0</ele><time>2026-04-12T11:10:57.005Z</time></trkpt><trkpt lat="44.7280933" lon="8.3808067"><ele>317.0</ele><time>2026-04-12T11:10:57.998Z</time></trkpt><trkpt lat="44.7281867" lon="8.3806433"><ele>315.25</ele><time>2026-04-12T11:10:59.003Z</time></trkpt><trkpt lat="44.7282783" lon="8.3804783"><ele>313.5</ele><time>2026-04-12T11:10:59.995Z</time></trkpt><trkpt lat="44.7283567" lon="8.38033"><ele>311.75</ele><time>2026-04-12T11:11:00.997Z</time></trkpt><trkpt lat="44.7284267" lon="8.3801983"><ele>310.0</ele><time>2026-04-12T11:11:01.994Z</time></trkpt><trkpt lat="44.7284867" lon="8.3800933"><ele>310.0</ele><time>2026-04-12T11:11:02.996Z</time></trkpt><trkpt lat="44.728535" lon="8.3800117"><ele>310.0</ele><time>2026-04-12T11:11:03.999Z</time></trkpt><trkpt lat="44.7285833" lon="8.379945"><ele>310.0</ele><time>2026-04-12T11:11:05.005Z</time></trkpt><trkpt lat="44.728655" lon="8.3798433"><ele>310.0</ele><time>2026-04-12T11:11:06.998Z</time></trkpt><trkpt lat="44.7286217" lon="8.37976"><ele>310.0</ele><time>2026-04-12T11:11:11.994Z</time></trkpt><trkpt lat="44.7285183" lon="8.3797167"><ele>310.0</ele><time>2026-04-12T11:11:13.998Z</time></trkpt><trkpt lat="44.7284433" lon="8.37969"><ele>311.0</ele><time>2026-04-12T11:11:14.999Z</time></trkpt><trkpt lat="44.7283583" lon="8.3796533"><ele>312.0</ele><time>2026-04-12T11:11:15.993Z</time></trkpt><trkpt lat="44.7282317" lon="8.37962"><ele>313.0</ele><time>2026-04-12T11:11:16.993Z</time></trkpt><trkpt lat="44.7281067" lon="8.37957"><ele>314.0</ele><time>2026-04-12T11:11:17.998Z</time></trkpt><trkpt lat="44.7279933" lon="8.3795333"><ele>314.0</ele><time>2026-04-12T11:11:18.996Z</time></trkpt><trkpt lat="44.7278667" lon="8.379525"><ele>314.0</ele><time>2026-04-12T11:11:19.994Z</time></trkpt><trkpt lat="44.7277183" lon="8.37954"><ele>314.0</ele><time>2026-04-12T11:11:20.997Z</time></trkpt><trkpt lat="44.7275683" lon="8.3795817"><ele>314.0</ele><time>2026-04-12T11:11:21.997Z</time></trkpt><trkpt lat="44.7274117" lon="8.3796567"><ele>310.6666666666667</ele><time>2026-04-12T11:11:23.003Z</time></trkpt><trkpt lat="44.72725" lon="8.37975"><ele>307.3333333333333</ele><time>2026-04-12T11:11:23.996Z</time></trkpt><trkpt lat="44.7270933" lon="8.37985"><ele>304.0</ele><time>2026-04-12T11:11:24.997Z</time></trkpt><trkpt lat="44.7269417" lon="8.3799467"><ele>302.0</ele><time>2026-04-12T11:11:25.999Z</time></trkpt><trkpt lat="44.7267933" lon="8.3800383"><ele>300.0</ele><time>2026-04-12T11:11:26.999Z</time></trkpt><trkpt lat="44.7266467" lon="8.3801367"><ele>298.0</ele><time>2026-04-12T11:11:27.993Z</time></trkpt><trkpt lat="44.7264983" lon="8.3802333"><ele>298.0</ele><time>2026-04-12T11:11:28.994Z</time></trkpt><trkpt lat="44.726355" lon="8.3803317"><ele>298.0</ele><time>2026-04-12T11:11:29.994Z</time></trkpt><trkpt lat="44.726205" lon="8.38042"><ele>298.0</ele><time>2026-04-12T11:11:30.997Z</time></trkpt><trkpt lat="44.7260533" lon="8.38049"><ele>298.3333333333333</ele><time>2026-04-12T11:11:31.997Z</time></trkpt><trkpt lat="44.7258933" lon="8.38054"><ele>298.6666666666667</ele><time>2026-04-12T11:11:32.995Z</time></trkpt><trkpt lat="44.725735" lon="8.3805617"><ele>299.0</ele><time>2026-04-12T11:11:33.992Z</time></trkpt><trkpt lat="44.7255733" lon="8.3805667"><ele>299.0</ele><time>2026-04-12T11:11:34.994Z</time></trkpt><trkpt lat="44.725415" lon="8.3805517"><ele>299.0</ele><time>2026-04-12T11:11:35.995Z</time></trkpt><trkpt lat="44.7252583" lon="8.3805267"><ele>299.0</ele><time>2026-04-12T11:11:37.003Z</time></trkpt><trkpt lat="44.7250967" lon="8.3805167"><ele>296.0</ele><time>2026-04-12T11:11:37.995Z</time></trkpt><trkpt lat="44.7249367" lon="8.380535"><ele>293.0</ele><time>2026-04-12T11:11:38.995Z</time></trkpt><trkpt lat="44.7247783" lon="8.3805717"><ele>290.0</ele><time>2026-04-12T11:11:39.999Z</time></trkpt><trkpt lat="44.7246217" lon="8.3806267"><ele>290.0</ele><time>2026-04-12T11:11:40.993Z</time></trkpt><trkpt lat="44.7244717" lon="8.3806817"><ele>290.0</ele><time>2026-04-12T11:11:41.99Z</time></trkpt><trkpt lat="44.724315" lon="8.3807367"><ele>290.0</ele><time>2026-04-12T11:11:42.995Z</time></trkpt><trkpt lat="44.7241617" lon="8.3807833"><ele>288.6666666666667</ele><time>2026-04-12T11:11:43.993Z</time></trkpt><trkpt lat="44.7240033" lon="8.38082"><ele>287.3333333333333</ele><time>2026-04-12T11:11:45Z</time></trkpt><trkpt lat="44.72384" lon="8.38085"><ele>286.0</ele><time>2026-04-12T11:11:45.994Z</time></trkpt><trkpt lat="44.7236833" lon="8.380875"><ele>283.66666666666663</ele><time>2026-04-12T11:11:46.997Z</time></trkpt><trkpt lat="44.72353" lon="8.3808983"><ele>281.3333333333333</ele><time>2026-04-12T11:11:47.994Z</time></trkpt><trkpt lat="44.723375" lon="8.3809167"><ele>279.0</ele><time>2026-04-12T11:11:48.997Z</time></trkpt><trkpt lat="44.7232233" lon="8.380935"><ele>279.0</ele><time>2026-04-12T11:11:49.994Z</time></trkpt><trkpt lat="44.7230733" lon="8.3809533"><ele>279.0</ele><time>2026-04-12T11:11:50.995Z</time></trkpt><trkpt lat="44.722925" lon="8.3809683"><ele>279.0</ele><time>2026-04-12T11:11:51.996Z</time></trkpt><trkpt lat="44.7227833" lon="8.3809833"><ele>279.0</ele><time>2026-04-12T11:11:53.003Z</time></trkpt><trkpt lat="44.7226383" lon="8.3809917"><ele>277.0</ele><time>2026-04-12T11:11:53.995Z</time></trkpt><trkpt lat="44.7224983" lon="8.3810017"><ele>275.0</ele><time>2026-04-12T11:11:54.994Z</time></trkpt><trkpt lat="44.7223783" lon="8.3810167"><ele>273.0</ele><time>2026-04-12T11:11:55.994Z</time></trkpt><trkpt lat="44.7222617" lon="8.381045"><ele>271.0</ele><time>2026-04-12T11:11:56.998Z</time></trkpt><trkpt lat="44.7221817" lon="8.38111"><ele>271.0</ele><time>2026-04-12T11:11:57.998Z</time></trkpt><trkpt lat="44.7221217" lon="8.3812267"><ele>271.0</ele><time>2026-04-12T11:11:58.997Z</time></trkpt><trkpt lat="44.72208" lon="8.3814233"><ele>271.0</ele><time>2026-04-12T11:11:59.994Z</time></trkpt><trkpt lat="44.7220467" lon="8.3816117"><ele>271.0</ele><time>2026-04-12T11:12:00.996Z</time></trkpt><trkpt lat="44.7220083" lon="8.3818267"><ele>269.0</ele><time>2026-04-12T11:12:01.998Z</time></trkpt><trkpt lat="44.72197" lon="8.3820467"><ele>267.0</ele><time>2026-04-12T11:12:02.993Z</time></trkpt><trkpt lat="44.7219333" lon="8.382265"><ele>265.0</ele><time>2026-04-12T11:12:03.997Z</time></trkpt><trkpt lat="44.721895" lon="8.3824917"><ele>265.0</ele><time>2026-04-12T11:12:04.993Z</time></trkpt><trkpt lat="44.72186" lon="8.3827267"><ele>265.0</ele><time>2026-04-12T11:12:05.995Z</time></trkpt><trkpt lat="44.7218217" lon="8.3829567"><ele>265.0</ele><time>2026-04-12T11:12:06.999Z</time></trkpt><trkpt lat="44.7217817" lon="8.383185"><ele>265.3333333333333</ele><time>2026-04-12T11:12:07.995Z</time></trkpt><trkpt lat="44.7217383" lon="8.38342"><ele>265.6666666666667</ele><time>2026-04-12T11:12:09.005Z</time></trkpt><trkpt lat="44.7217017" lon="8.383665"><ele>266.0</ele><time>2026-04-12T11:12:09.992Z</time></trkpt><trkpt lat="44.72166" lon="8.383915"><ele>266.33333333333337</ele><time>2026-04-12T11:12:10.995Z</time></trkpt><trkpt lat="44.7216183" lon="8.38417"><ele>266.6666666666667</ele><time>2026-04-12T11:12:11.995Z</time></trkpt><trkpt lat="44.7215717" lon="8.38443"><ele>267.0</ele><time>2026-04-12T11:12:12.996Z</time></trkpt><trkpt lat="44.7215233" lon="8.38469"><ele>267.6666666666667</ele><time>2026-04-12T11:12:13.997Z</time></trkpt><trkpt lat="44.72148" lon="8.3849533"><ele>268.33333333333337</ele><time>2026-04-12T11:12:14.998Z</time></trkpt><trkpt lat="44.7214383" lon="8.38521"><ele>269.0</ele><time>2026-04-12T11:12:15.994Z</time></trkpt><trkpt lat="44.7213933" lon="8.3854533"><ele>270.33333333333337</ele><time>2026-04-12T11:12:16.994Z</time></trkpt><trkpt lat="44.72135" lon="8.3856883"><ele>271.6666666666667</ele><time>2026-04-12T11:12:17.993Z</time></trkpt><trkpt lat="44.721305" lon="8.3859167"><ele>273.0</ele><time>2026-04-12T11:12:18.995Z</time></trkpt><trkpt lat="44.7212683" lon="8.3861417"><ele>273.5</ele><time>2026-04-12T11:12:19.997Z</time></trkpt><trkpt lat="44.72123" lon="8.3863567"><ele>274.0</ele><time>2026-04-12T11:12:20.995Z</time></trkpt><trkpt lat="44.721195" lon="8.3865567"><ele>274.5</ele><time>2026-04-12T11:12:21.996Z</time></trkpt><trkpt lat="44.7211583" lon="8.386735"><ele>275.0</ele><time>2026-04-12T11:12:22.994Z</time></trkpt><trkpt lat="44.7211283" lon="8.3868967"><ele>275.0</ele><time>2026-04-12T11:12:23.995Z</time></trkpt><trkpt lat="44.721105" lon="8.3870467"><ele>275.0</ele><time>2026-04-12T11:12:24.996Z</time></trkpt><trkpt lat="44.7210833" lon="8.3871867"><ele>275.0</ele><time>2026-04-12T11:12:25.996Z</time></trkpt><trkpt lat="44.7210583" lon="8.3873083"><ele>275.0</ele><time>2026-04-12T11:12:26.997Z</time></trkpt><trkpt lat="44.72104" lon="8.3874083"><ele>275.0</ele><time>2026-04-12T11:12:27.996Z</time></trkpt><trkpt lat="44.72102" lon="8.3875567"><ele>271.6</ele><time>2026-04-12T11:12:29.997Z</time></trkpt><trkpt lat="44.7210017" lon="8.3876533"><ele>268.2</ele><time>2026-04-12T11:12:31.995Z</time></trkpt><trkpt lat="44.7210033" lon="8.38782"><ele>264.8</ele><time>2026-04-12T11:12:59.994Z</time></trkpt><trkpt lat="44.7209967" lon="8.3879133"><ele>261.4</ele><time>2026-04-12T11:13:01.998Z</time></trkpt><trkpt lat="44.7209583" lon="8.3881283"><ele>258.0</ele><time>2026-04-12T11:13:03.997Z</time></trkpt><trkpt lat="44.72091" lon="8.38829"><ele>258.0</ele><time>2026-04-12T11:13:04.997Z</time></trkpt><trkpt lat="44.7208433" lon="8.3884867"><ele>258.0</ele><time>2026-04-12T11:13:05.996Z</time></trkpt><trkpt lat="44.7207517" lon="8.3887"><ele>258.0</ele><time>2026-04-12T11:13:06.994Z</time></trkpt><trkpt lat="44.7206417" lon="8.3888967"><ele>257.6666666666667</ele><time>2026-04-12T11:13:07.995Z</time></trkpt><trkpt lat="44.7204933" lon="8.3891017"><ele>257.33333333333337</ele><time>2026-04-12T11:13:09.002Z</time></trkpt><trkpt lat="44.7203417" lon="8.3892717"><ele>257.0</ele><time>2026-04-12T11:13:09.995Z</time></trkpt><trkpt lat="44.7201967" lon="8.3894417"><ele>257.0</ele><time>2026-04-12T11:13:10.995Z</time></trkpt><trkpt lat="44.7200583" lon="8.3896233"><ele>257.0</ele><time>2026-04-12T11:13:11.993Z</time></trkpt><trkpt lat="44.71993" lon="8.3898117"><ele>257.0</ele><time>2026-04-12T11:13:12.996Z</time></trkpt><trkpt lat="44.7198117" lon="8.3900067"><ele>258.33333333333337</ele><time>2026-04-12T11:13:13.996Z</time></trkpt><trkpt lat="44.719705" lon="8.3902017"><ele>259.6666666666667</ele><time>2026-04-12T11:13:14.99Z</time></trkpt><trkpt lat="44.7195967" lon="8.3903967"><ele>261.0</ele><time>2026-04-12T11:13:15.999Z</time></trkpt><trkpt lat="44.719495" lon="8.39059"><ele>259.0</ele><time>2026-04-12T11:13:16.995Z</time></trkpt><trkpt lat="44.71939" lon="8.39077"><ele>257.0</ele><time>2026-04-12T11:13:17.997Z</time></trkpt><trkpt lat="44.7192717" lon="8.3909467"><ele>255.0</ele><time>2026-04-12T11:13:18.997Z</time></trkpt><trkpt lat="44.7191433" lon="8.3911217"><ele>255.0</ele><time>2026-04-12T11:13:20.005Z</time></trkpt><trkpt lat="44.719005" lon="8.3912917"><ele>255.0</ele><time>2026-04-12T11:13:20.995Z</time></trkpt><trkpt lat="44.71886" lon="8.391465"><ele>255.0</ele><time>2026-04-12T11:13:21.997Z</time></trkpt><trkpt lat="44.7187183" lon="8.3916567"><ele>254.66666666666669</ele><time>2026-04-12T11:13:22.998Z</time></trkpt><trkpt lat="44.7185767" lon="8.3918533"><ele>254.33333333333334</ele><time>2026-04-12T11:13:23.993Z</time></trkpt><trkpt lat="44.7184483" lon="8.3920667"><ele>254.0</ele><time>2026-04-12T11:13:25.002Z</time></trkpt><trkpt lat="44.7183267" lon="8.392295"><ele>256.33333333333337</ele><time>2026-04-12T11:13:25.998Z</time></trkpt><trkpt lat="44.7182267" lon="8.3925317"><ele>258.6666666666667</ele><time>2026-04-12T11:13:26.994Z</time></trkpt><trkpt lat="44.7181217" lon="8.39275"><ele>261.0</ele><time>2026-04-12T11:13:27.996Z</time></trkpt><trkpt lat="44.7180133" lon="8.39297"><ele>262.3333333333333</ele><time>2026-04-12T11:13:28.996Z</time></trkpt><trkpt lat="44.7178967" lon="8.393185"><ele>263.66666666666663</ele><time>2026-04-12T11:13:29.993Z</time></trkpt><trkpt lat="44.717765" lon="8.3933933"><ele>265.0</ele><time>2026-04-12T11:13:30.998Z</time></trkpt><trkpt lat="44.7176233" lon="8.393595"><ele>260.0</ele><time>2026-04-12T11:13:31.996Z</time></trkpt><trkpt lat="44.7174683" lon="8.393795"><ele>255.0</ele><time>2026-04-12T11:13:32.999Z</time></trkpt><trkpt lat="44.7173217" lon="8.3940017"><ele>250.0</ele><time>2026-04-12T11:13:33.998Z</time></trkpt><trkpt lat="44.7171817" lon="8.394205"><ele>250.0</ele><time>2026-04-12T11:13:34.996Z</time></trkpt><trkpt lat="44.717035" lon="8.3943933"><ele>250.0</ele><time>2026-04-12T11:13:35.992Z</time></trkpt><trkpt lat="44.7168817" lon="8.39458"><ele>250.0</ele><time>2026-04-12T11:13:36.997Z</time></trkpt><trkpt lat="44.716725" lon="8.3947567"><ele>249.66666666666666</ele><time>2026-04-12T11:13:37.993Z</time></trkpt><trkpt lat="44.71657" lon="8.3949567"><ele>249.33333333333331</ele><time>2026-04-12T11:13:38.996Z</time></trkpt><trkpt lat="44.7164367" lon="8.3951733"><ele>249.0</ele><time>2026-04-12T11:13:39.993Z</time></trkpt><trkpt lat="44.7163083" lon="8.3953933"><ele>247.66666666666669</ele><time>2026-04-12T11:13:41Z</time></trkpt><trkpt lat="44.7162017" lon="8.395645"><ele>246.33333333333334</ele><time>2026-04-12T11:13:41.997Z</time></trkpt><trkpt lat="44.7161033" lon="8.395895"><ele>245.0</ele><time>2026-04-12T11:13:42.996Z</time></trkpt><trkpt lat="44.7159983" lon="8.3961317"><ele>246.66666666666669</ele><time>2026-04-12T11:13:43.995Z</time></trkpt><trkpt lat="44.7158933" lon="8.3963833"><ele>248.33333333333331</ele><time>2026-04-12T11:13:44.995Z</time></trkpt><trkpt lat="44.715795" lon="8.3966417"><ele>250.0</ele><time>2026-04-12T11:13:45.994Z</time></trkpt><trkpt lat="44.715685" lon="8.396895"><ele>250.0</ele><time>2026-04-12T11:13:46.994Z</time></trkpt><trkpt lat="44.71558" lon="8.3971433"><ele>250.0</ele><time>2026-04-12T11:13:47.994Z</time></trkpt><trkpt lat="44.715475" lon="8.3973767"><ele>250.0</ele><time>2026-04-12T11:13:49Z</time></trkpt><trkpt lat="44.7153717" lon="8.397585"><ele>252.33333333333331</ele><time>2026-04-12T11:13:49.998Z</time></trkpt><trkpt lat="44.715275" lon="8.397775"><ele>254.66666666666669</ele><time>2026-04-12T11:13:50.996Z</time></trkpt><trkpt lat="44.7151883" lon="8.39795"><ele>257.0</ele><time>2026-04-12T11:13:51.995Z</time></trkpt><trkpt lat="44.7151133" lon="8.39811"><ele>253.6</ele><time>2026-04-12T11:13:52.996Z</time></trkpt><trkpt lat="44.71505" lon="8.3982583"><ele>250.2</ele><time>2026-04-12T11:13:53.995Z</time></trkpt><trkpt lat="44.7149917" lon="8.3983983"><ele>246.8</ele><time>2026-04-12T11:13:54.997Z</time></trkpt><trkpt lat="44.714935" lon="8.3985217"><ele>243.4</ele><time>2026-04-12T11:13:55.996Z</time></trkpt><trkpt lat="44.7148783" lon="8.3986417"><ele>240.0</ele><time>2026-04-12T11:13:56.998Z</time></trkpt><trkpt lat="44.7148117" lon="8.3987733"><ele>240.33333333333331</ele><time>2026-04-12T11:13:58Z</time></trkpt><trkpt lat="44.7147517" lon="8.3989367"><ele>240.66666666666666</ele><time>2026-04-12T11:13:58.997Z</time></trkpt><trkpt lat="44.71467" lon="8.3991167"><ele>241.0</ele><time>2026-04-12T11:13:59.993Z</time></trkpt><trkpt lat="44.7145733" lon="8.39931"><ele>241.0</ele><time>2026-04-12T11:14:00.994Z</time></trkpt><trkpt lat="44.71447" lon="8.3995283"><ele>241.0</ele><time>2026-04-12T11:14:01.996Z</time></trkpt><trkpt lat="44.7143683" lon="8.3997467"><ele>241.0</ele><time>2026-04-12T11:14:02.997Z</time></trkpt><trkpt lat="44.714275" lon="8.3999517"><ele>240.33333333333331</ele><time>2026-04-12T11:14:04.005Z</time></trkpt><trkpt lat="44.71419" lon="8.4001533"><ele>239.66666666666669</ele><time>2026-04-12T11:14:04.997Z</time></trkpt><trkpt lat="44.714105" lon="8.4003483"><ele>239.0</ele><time>2026-04-12T11:14:05.999Z</time></trkpt><trkpt lat="44.71402" lon="8.400535"><ele>239.0</ele><time>2026-04-12T11:14:06.996Z</time></trkpt><trkpt lat="44.7139333" lon="8.4007217"><ele>239.0</ele><time>2026-04-12T11:14:07.997Z</time></trkpt><trkpt lat="44.7138517" lon="8.4009083"><ele>239.0</ele><time>2026-04-12T11:14:08.999Z</time></trkpt><trkpt lat="44.713765" lon="8.4010983"><ele>239.0</ele><time>2026-04-12T11:14:09.998Z</time></trkpt><trkpt lat="44.71367" lon="8.4012733"><ele>239.0</ele><time>2026-04-12T11:14:10.993Z</time></trkpt><trkpt lat="44.7135733" lon="8.401445"><ele>239.0</ele><time>2026-04-12T11:14:11.999Z</time></trkpt><trkpt lat="44.7134617" lon="8.40159"><ele>238.75</ele><time>2026-04-12T11:14:12.998Z</time></trkpt><trkpt lat="44.71334" lon="8.4017083"><ele>238.5</ele><time>2026-04-12T11:14:14Z</time></trkpt><trkpt lat="44.7132117" lon="8.4018"><ele>238.25</ele><time>2026-04-12T11:14:14.995Z</time></trkpt><trkpt lat="44.7130667" lon="8.4018517"><ele>238.0</ele><time>2026-04-12T11:14:15.992Z</time></trkpt><trkpt lat="44.7129083" lon="8.4018867"><ele>238.0</ele><time>2026-04-12T11:14:16.993Z</time></trkpt><trkpt lat="44.712745" lon="8.4019067"><ele>238.0</ele><time>2026-04-12T11:14:17.992Z</time></trkpt><trkpt lat="44.7125717" lon="8.4019317"><ele>238.0</ele><time>2026-04-12T11:14:18.996Z</time></trkpt><trkpt lat="44.712395" lon="8.401955"><ele>237.0</ele><time>2026-04-12T11:14:19.997Z</time></trkpt><trkpt lat="44.712225" lon="8.4019683"><ele>236.0</ele><time>2026-04-12T11:14:20.993Z</time></trkpt><trkpt lat="44.7120633" lon="8.4019867"><ele>235.0</ele><time>2026-04-12T11:14:21.994Z</time></trkpt><trkpt lat="44.7119133" lon="8.4020167"><ele>234.75</ele><time>2026-04-12T11:14:22.993Z</time></trkpt><trkpt lat="44.7117767" lon="8.4020583"><ele>234.5</ele><time>2026-04-12T11:14:24.002Z</time></trkpt><trkpt lat="44.7116517" lon="8.4021283"><ele>234.25</ele><time>2026-04-12T11:14:25.001Z</time></trkpt><trkpt lat="44.71154" lon="8.40223"><ele>234.0</ele><time>2026-04-12T11:14:26Z</time></trkpt><trkpt lat="44.71143" lon="8.4023467"><ele>234.75</ele><time>2026-04-12T11:14:26.994Z</time></trkpt><trkpt lat="44.7113417" lon="8.402485"><ele>235.5</ele><time>2026-04-12T11:14:27.996Z</time></trkpt><trkpt lat="44.7112467" lon="8.4026317"><ele>236.25</ele><time>2026-04-12T11:14:28.998Z</time></trkpt><trkpt lat="44.7111567" lon="8.40276"><ele>237.0</ele><time>2026-04-12T11:14:29.996Z</time></trkpt><trkpt lat="44.7110783" lon="8.4028417"><ele>235.6</ele><time>2026-04-12T11:14:30.992Z</time></trkpt><trkpt lat="44.71102" lon="8.4028867"><ele>234.2</ele><time>2026-04-12T11:14:31.995Z</time></trkpt><trkpt lat="44.7109133" lon="8.402945"><ele>232.8</ele><time>2026-04-12T11:14:33.997Z</time></trkpt><trkpt lat="44.7107717" lon="8.4028467"><ele>231.4</ele><time>2026-04-12T11:14:35.995Z</time></trkpt><trkpt lat="44.7106933" lon="8.4027533"><ele>230.0</ele><time>2026-04-12T11:14:36.993Z</time></trkpt><trkpt lat="44.7105983" lon="8.40261"><ele>230.0</ele><time>2026-04-12T11:14:37.994Z</time></trkpt><trkpt lat="44.71049" lon="8.4024417"><ele>230.0</ele><time>2026-04-12T11:14:38.994Z</time></trkpt><trkpt lat="44.710375" lon="8.4022733"><ele>230.0</ele><time>2026-04-12T11:14:39.996Z</time></trkpt><trkpt lat="44.710255" lon="8.402105"><ele>231.33333333333334</ele><time>2026-04-12T11:14:40.994Z</time></trkpt><trkpt lat="44.7101283" lon="8.4019283"><ele>232.66666666666669</ele><time>2026-04-12T11:14:41.995Z</time></trkpt><trkpt lat="44.71001" lon="8.4017517"><ele>234.0</ele><time>2026-04-12T11:14:42.996Z</time></trkpt><trkpt lat="44.70989" lon="8.4015817"><ele>234.0</ele><time>2026-04-12T11:14:43.996Z</time></trkpt><trkpt lat="44.709775" lon="8.4014317"><ele>234.0</ele><time>2026-04-12T11:14:44.998Z</time></trkpt><trkpt lat="44.7096733" lon="8.4012967"><ele>234.0</ele><time>2026-04-12T11:14:45.994Z</time></trkpt><trkpt lat="44.7095867" lon="8.4011617"><ele>234.0</ele><time>2026-04-12T11:14:47Z</time></trkpt><trkpt lat="44.7095317" lon="8.4010117"><ele>234.79999999999998</ele><time>2026-04-12T11:14:47.997Z</time></trkpt><trkpt lat="44.7094967" lon="8.4008683"><ele>235.59999999999997</ele><time>2026-04-12T11:14:48.997Z</time></trkpt><trkpt lat="44.7094583" lon="8.4007367"><ele>236.4</ele><time>2026-04-12T11:14:50.001Z</time></trkpt><trkpt lat="44.7093883" lon="8.4006183"><ele>237.2</ele><time>2026-04-12T11:14:50.998Z</time></trkpt><trkpt lat="44.7093" lon="8.4005117"><ele>238.0</ele><time>2026-04-12T11:14:52.002Z</time></trkpt><trkpt lat="44.7092217" lon="8.4004033"><ele>240.2</ele><time>2026-04-12T11:14:52.998Z</time></trkpt><trkpt lat="44.709165" lon="8.4002767"><ele>242.4</ele><time>2026-04-12T11:14:53.997Z</time></trkpt><trkpt lat="44.709125" lon="8.4001467"><ele>244.59999999999997</ele><time>2026-04-12T11:14:54.999Z</time></trkpt><trkpt lat="44.7091033" lon="8.40001"><ele>246.79999999999998</ele><time>2026-04-12T11:14:55.996Z</time></trkpt><trkpt lat="44.709095" lon="8.39987"><ele>249.0</ele><time>2026-04-12T11:14:56.999Z</time></trkpt><trkpt lat="44.709085" lon="8.39975"><ele>249.0</ele><time>2026-04-12T11:14:57.996Z</time></trkpt><trkpt lat="44.7090717" lon="8.39964"><ele>248.99999999999997</ele><time>2026-04-12T11:14:58.999Z</time></trkpt><trkpt lat="44.7089867" lon="8.39959"><ele>248.99999999999997</ele><time>2026-04-12T11:15:00.993Z</time></trkpt><trkpt lat="44.7088567" lon="8.3996433"><ele>249.0</ele><time>2026-04-12T11:15:02.995Z</time></trkpt><trkpt lat="44.7087767" lon="8.39967"><ele>249.0</ele><time>2026-04-12T11:15:03.999Z</time></trkpt><trkpt lat="44.7086817" lon="8.3996683"><ele>249.0</ele><time>2026-04-12T11:15:04.995Z</time></trkpt><trkpt lat="44.70858" lon="8.3996733"><ele>248.99999999999997</ele><time>2026-04-12T11:15:05.995Z</time></trkpt><trkpt lat="44.7084867" lon="8.3996967"><ele>248.99999999999997</ele><time>2026-04-12T11:15:07Z</time></trkpt><trkpt lat="44.7084" lon="8.3997483"><ele>249.0</ele><time>2026-04-12T11:15:07.995Z</time></trkpt><trkpt lat="44.70833" lon="8.3998383"><ele>249.0</ele><time>2026-04-12T11:15:08.995Z</time></trkpt><trkpt lat="44.7083083" lon="8.4000067"><ele>252.39999999999998</ele><time>2026-04-12T11:15:09.995Z</time></trkpt><trkpt lat="44.708295" lon="8.4001583"><ele>255.79999999999998</ele><time>2026-04-12T11:15:10.996Z</time></trkpt><trkpt lat="44.708305" lon="8.4003033"><ele>259.20000000000005</ele><time>2026-04-12T11:15:11.998Z</time></trkpt><trkpt lat="44.70833" lon="8.4004433"><ele>262.6</ele><time>2026-04-12T11:15:12.995Z</time></trkpt><trkpt lat="44.708345" lon="8.4005567"><ele>266.0</ele><time>2026-04-12T11:15:13.995Z</time></trkpt><trkpt lat="44.7082867" lon="8.4006783"><ele>267.0</ele><time>2026-04-12T11:15:15.997Z</time></trkpt><trkpt lat="44.7081133" lon="8.400685"><ele>268.0</ele><time>2026-04-12T11:15:17.999Z</time></trkpt><trkpt lat="44.70798" lon="8.400685"><ele>269.0</ele><time>2026-04-12T11:15:18.998Z</time></trkpt><trkpt lat="44.70784" lon="8.4006833"><ele>270.0</ele><time>2026-04-12T11:15:19.997Z</time></trkpt><trkpt lat="44.7076933" lon="8.4006833"><ele>272.75</ele><time>2026-04-12T11:15:20.998Z</time></trkpt><trkpt lat="44.7075433" lon="8.4006833"><ele>275.5</ele><time>2026-04-12T11:15:21.993Z</time></trkpt><trkpt lat="44.7073967" lon="8.4006817"><ele>278.25</ele><time>2026-04-12T11:15:22.998Z</time></trkpt><trkpt lat="44.7072617" lon="8.4006783"><ele>281.0</ele><time>2026-04-12T11:15:23.996Z</time></trkpt><trkpt lat="44.70714" lon="8.4006667"><ele>281.0</ele><time>2026-04-12T11:15:24.995Z</time></trkpt><trkpt lat="44.707045" lon="8.4006433"><ele>281.0</ele><time>2026-04-12T11:15:25.994Z</time></trkpt><trkpt lat="44.706975" lon="8.4005883"><ele>281.0</ele><time>2026-04-12T11:15:26.998Z</time></trkpt><trkpt lat="44.706925" lon="8.4005167"><ele>281.0</ele><time>2026-04-12T11:15:27.992Z</time></trkpt><trkpt lat="44.7069283" lon="8.4004233"><ele>281.0</ele><time>2026-04-12T11:15:28.994Z</time></trkpt><trkpt lat="44.7069367" lon="8.4003233"><ele>281.0</ele><time>2026-04-12T11:15:29.996Z</time></trkpt><trkpt lat="44.7069567" lon="8.4001983"><ele>281.83333333333337</ele><time>2026-04-12T11:15:30.996Z</time></trkpt><trkpt lat="44.706985" lon="8.4000617"><ele>282.6666666666667</ele><time>2026-04-12T11:15:31.993Z</time></trkpt><trkpt lat="44.7069967" lon="8.3999333"><ele>283.5</ele><time>2026-04-12T11:15:32.995Z</time></trkpt><trkpt lat="44.7070017" lon="8.3998233"><ele>284.3333333333333</ele><time>2026-04-12T11:15:33.998Z</time></trkpt><trkpt lat="44.70702" lon="8.3997217"><ele>285.16666666666663</ele><time>2026-04-12T11:15:34.998Z</time></trkpt><trkpt lat="44.70706" lon="8.39963"><ele>286.0</ele><time>2026-04-12T11:15:35.996Z</time></trkpt><trkpt lat="44.7071017" lon="8.3995433"><ele>286.6</ele><time>2026-04-12T11:15:36.996Z</time></trkpt><trkpt lat="44.7071467" lon="8.399435"><ele>287.20000000000005</ele><time>2026-04-12T11:15:37.997Z</time></trkpt><trkpt lat="44.707185" lon="8.3993033"><ele>287.79999999999995</ele><time>2026-04-12T11:15:38.998Z</time></trkpt><trkpt lat="44.7072133" lon="8.3991417"><ele>288.4</ele><time>2026-04-12T11:15:39.993Z</time></trkpt><trkpt lat="44.7072317" lon="8.3989767"><ele>289.0</ele><time>2026-04-12T11:15:40.996Z</time></trkpt><trkpt lat="44.70724" lon="8.3988067"><ele>290.16666666666663</ele><time>2026-04-12T11:15:41.996Z</time></trkpt><trkpt lat="44.7072367" lon="8.398655"><ele>291.3333333333333</ele><time>2026-04-12T11:15:42.994Z</time></trkpt><trkpt lat="44.70723" lon="8.3985283"><ele>292.5</ele><time>2026-04-12T11:15:43.994Z</time></trkpt><trkpt lat="44.7072217" lon="8.39842"><ele>293.6666666666667</ele><time>2026-04-12T11:15:44.993Z</time></trkpt><trkpt lat="44.7072033" lon="8.3983283"><ele>294.83333333333337</ele><time>2026-04-12T11:15:45.994Z</time></trkpt><trkpt lat="44.7071117" lon="8.3983517"><ele>296.0</ele><time>2026-04-12T11:15:47.996Z</time></trkpt><trkpt lat="44.7070083" lon="8.3984983"><ele>296.0</ele><time>2026-04-12T11:15:49.996Z</time></trkpt><trkpt lat="44.706935" lon="8.3985833"><ele>296.0</ele><time>2026-04-12T11:15:50.999Z</time></trkpt><trkpt lat="44.706845" lon="8.3986733"><ele>296.0</ele><time>2026-04-12T11:15:51.997Z</time></trkpt><trkpt lat="44.7067467" lon="8.39877"><ele>296.0</ele><time>2026-04-12T11:15:52.993Z</time></trkpt><trkpt lat="44.7066517" lon="8.3988633"><ele>296.0</ele><time>2026-04-12T11:15:53.993Z</time></trkpt><trkpt lat="44.706565" lon="8.398975"><ele>298.8</ele><time>2026-04-12T11:15:54.996Z</time></trkpt><trkpt lat="44.7064917" lon="8.3990933"><ele>301.6</ele><time>2026-04-12T11:15:55.992Z</time></trkpt><trkpt lat="44.7064317" lon="8.3992117"><ele>304.4</ele><time>2026-04-12T11:15:57.002Z</time></trkpt><trkpt lat="44.7063817" lon="8.3993467"><ele>307.2</ele><time>2026-04-12T11:15:58Z</time></trkpt><trkpt lat="44.7063333" lon="8.399495"><ele>310.0</ele><time>2026-04-12T11:15:58.997Z</time></trkpt><trkpt lat="44.706295" lon="8.3996233"><ele>311.4</ele><time>2026-04-12T11:15:59.997Z</time></trkpt><trkpt lat="44.7062483" lon="8.3997333"><ele>312.8</ele><time>2026-04-12T11:16:00.999Z</time></trkpt><trkpt lat="44.7062017" lon="8.3998283"><ele>314.2</ele><time>2026-04-12T11:16:01.994Z</time></trkpt><trkpt lat="44.7061417" lon="8.3999083"><ele>315.6</ele><time>2026-04-12T11:16:02.995Z</time></trkpt><trkpt lat="44.7060367" lon="8.3998983"><ele>317.0</ele><time>2026-04-12T11:16:03.995Z</time></trkpt><trkpt lat="44.7059367" lon="8.3999"><ele>317.0</ele><time>2026-04-12T11:16:04.997Z</time></trkpt><trkpt lat="44.7058267" lon="8.3998667"><ele>317.0</ele><time>2026-04-12T11:16:05.995Z</time></trkpt><trkpt lat="44.7057167" lon="8.3998433"><ele>317.0</ele><time>2026-04-12T11:16:06.994Z</time></trkpt><trkpt lat="44.7055967" lon="8.39983"><ele>317.0</ele><time>2026-04-12T11:16:07.997Z</time></trkpt><trkpt lat="44.7054833" lon="8.39984"><ele>317.0</ele><time>2026-04-12T11:16:08.999Z</time></trkpt><trkpt lat="44.70538" lon="8.399895"><ele>317.0</ele><time>2026-04-12T11:16:09.992Z</time></trkpt><trkpt lat="44.7052883" lon="8.399985"><ele>317.0</ele><time>2026-04-12T11:16:10.996Z</time></trkpt><trkpt lat="44.7052117" lon="8.400105"><ele>317.0</ele><time>2026-04-12T11:16:11.998Z</time></trkpt><trkpt lat="44.7051367" lon="8.40023"><ele>318.0</ele><time>2026-04-12T11:16:12.996Z</time></trkpt><trkpt lat="44.7050517" lon="8.4003383"><ele>319.0</ele><time>2026-04-12T11:16:13.997Z</time></trkpt><trkpt lat="44.70496" lon="8.4004233"><ele>320.0</ele><time>2026-04-12T11:16:14.996Z</time></trkpt><trkpt lat="44.70486" lon="8.4004833"><ele>321.0</ele><time>2026-04-12T11:16:15.994Z</time></trkpt><trkpt lat="44.70475" lon="8.4005183"><ele>322.0</ele><time>2026-04-12T11:16:16.994Z</time></trkpt><trkpt lat="44.7046367" lon="8.400545"><ele>322.0</ele><time>2026-04-12T11:16:17.994Z</time></trkpt><trkpt lat="44.704525" lon="8.4005783"><ele>322.0</ele><time>2026-04-12T11:16:18.999Z</time></trkpt><trkpt lat="44.7044133" lon="8.4006383"><ele>322.0</ele><time>2026-04-12T11:16:19.996Z</time></trkpt><trkpt lat="44.7043167" lon="8.4007333"><ele>322.0</ele><time>2026-04-12T11:16:20.998Z</time></trkpt><trkpt lat="44.70423" lon="8.4008667"><ele>323.25</ele><time>2026-04-12T11:16:21.999Z</time></trkpt><trkpt lat="44.704145" lon="8.40102"><ele>324.5</ele><time>2026-04-12T11:16:22.995Z</time></trkpt><trkpt lat="44.7040633" lon="8.40118"><ele>325.75</ele><time>2026-04-12T11:16:23.997Z</time></trkpt><trkpt lat="44.7039767" lon="8.4013333"><ele>327.0</ele><time>2026-04-12T11:16:24.994Z</time></trkpt><trkpt lat="44.7038983" lon="8.4014683"><ele>327.0</ele><time>2026-04-12T11:16:25.998Z</time></trkpt><trkpt lat="44.7038333" lon="8.4015817"><ele>327.0</ele><time>2026-04-12T11:16:26.995Z</time></trkpt><trkpt lat="44.70378" lon="8.401665"><ele>327.0</ele><time>2026-04-12T11:16:27.996Z</time></trkpt><trkpt lat="44.7037267" lon="8.4017233"><ele>327.0</ele><time>2026-04-12T11:16:28.997Z</time></trkpt><trkpt lat="44.703665" lon="8.401695"><ele>327.0</ele><time>2026-04-12T11:16:29.996Z</time></trkpt><trkpt lat="44.7035733" lon="8.401605"><ele>327.0</ele><time>2026-04-12T11:16:31.998Z</time></trkpt><trkpt lat="44.70359" lon="8.4014783"><ele>327.0</ele><time>2026-04-12T11:16:32.996Z</time></trkpt><trkpt lat="44.7035983" lon="8.4013583"><ele>327.0</ele><time>2026-04-12T11:16:33.995Z</time></trkpt><trkpt lat="44.70362" lon="8.4012117"><ele>327.0</ele><time>2026-04-12T11:16:34.995Z</time></trkpt><trkpt lat="44.703635" lon="8.400985"><ele>327.0</ele><time>2026-04-12T11:16:35.991Z</time></trkpt><trkpt lat="44.703645" lon="8.4007433"><ele>332.0</ele><time>2026-04-12T11:16:36.995Z</time></trkpt><trkpt lat="44.7036517" lon="8.40049"><ele>337.0</ele><time>2026-04-12T11:16:37.995Z</time></trkpt><trkpt lat="44.70365" lon="8.4002217"><ele>342.0</ele><time>2026-04-12T11:16:38.995Z</time></trkpt><trkpt lat="44.7036383" lon="8.3999517"><ele>342.0</ele><time>2026-04-12T11:16:39.994Z</time></trkpt><trkpt lat="44.7036283" lon="8.3997133"><ele>342.0</ele><time>2026-04-12T11:16:40.994Z</time></trkpt><trkpt lat="44.70362" lon="8.3995117"><ele>342.0</ele><time>2026-04-12T11:16:41.995Z</time></trkpt><trkpt lat="44.70363" lon="8.3993483"><ele>342.0</ele><time>2026-04-12T11:16:43.001Z</time></trkpt><trkpt lat="44.7036517" lon="8.3992233"><ele>344.6</ele><time>2026-04-12T11:16:43.994Z</time></trkpt><trkpt lat="44.7036883" lon="8.3991267"><ele>347.20000000000005</ele><time>2026-04-12T11:16:44.996Z</time></trkpt><trkpt lat="44.7037433" lon="8.3990483"><ele>349.8</ele><time>2026-04-12T11:16:45.995Z</time></trkpt><trkpt lat="44.70383" lon="8.3989883"><ele>352.4</ele><time>2026-04-12T11:16:46.995Z</time></trkpt><trkpt lat="44.7039467" lon="8.398925"><ele>355.0</ele><time>2026-04-12T11:16:47.993Z</time></trkpt><trkpt lat="44.7040667" lon="8.39887"><ele>353.6</ele><time>2026-04-12T11:16:48.995Z</time></trkpt><trkpt lat="44.7041867" lon="8.398825"><ele>352.2</ele><time>2026-04-12T11:16:49.995Z</time></trkpt><trkpt lat="44.7042933" lon="8.39879"><ele>350.79999999999995</ele><time>2026-04-12T11:16:50.998Z</time></trkpt><trkpt lat="44.704395" lon="8.3987533"><ele>349.4</ele><time>2026-04-12T11:16:51.997Z</time></trkpt><trkpt lat="44.7044733" lon="8.3986933"><ele>348.0</ele><time>2026-04-12T11:16:52.995Z</time></trkpt><trkpt lat="44.7045417" lon="8.398615"><ele>348.0</ele><time>2026-04-12T11:16:53.995Z</time></trkpt><trkpt lat="44.70457" lon="8.398495"><ele>348.0</ele><time>2026-04-12T11:16:54.996Z</time></trkpt><trkpt lat="44.7045833" lon="8.3983617"><ele>348.0</ele><time>2026-04-12T11:16:55.997Z</time></trkpt><trkpt lat="44.7046183" lon="8.398195"><ele>348.0</ele><time>2026-04-12T11:16:56.995Z</time></trkpt><trkpt lat="44.7046683" lon="8.398025"><ele>348.0</ele><time>2026-04-12T11:16:57.996Z</time></trkpt><trkpt lat="44.7047267" lon="8.3978517"><ele>350.25</ele><time>2026-04-12T11:16:58.992Z</time></trkpt><trkpt lat="44.704785" lon="8.3976617"><ele>352.5</ele><time>2026-04-12T11:16:59.998Z</time></trkpt><trkpt lat="44.7048433" lon="8.3974667"><ele>354.75</ele><time>2026-04-12T11:17:00.994Z</time></trkpt><trkpt lat="44.7049083" lon="8.397285"><ele>357.0</ele><time>2026-04-12T11:17:01.995Z</time></trkpt><trkpt lat="44.7049933" lon="8.39712"><ele>358.5</ele><time>2026-04-12T11:17:02.994Z</time></trkpt><trkpt lat="44.7050833" lon="8.3969767"><ele>360.0</ele><time>2026-04-12T11:17:03.992Z</time></trkpt><trkpt lat="44.705175" lon="8.39686"><ele>361.5</ele><time>2026-04-12T11:17:04.993Z</time></trkpt><trkpt lat="44.70526" lon="8.3967567"><ele>363.0</ele><time>2026-04-12T11:17:06Z</time></trkpt><trkpt lat="44.7053233" lon="8.3966533"><ele>360.0</ele><time>2026-04-12T11:17:06.998Z</time></trkpt><trkpt lat="44.7053633" lon="8.3965417"><ele>357.0</ele><time>2026-04-12T11:17:07.997Z</time></trkpt><trkpt lat="44.705365" lon="8.39643"><ele>354.0</ele><time>2026-04-12T11:17:08.993Z</time></trkpt><trkpt lat="44.7053483" lon="8.396295"><ele>351.0</ele><time>2026-04-12T11:17:09.997Z</time></trkpt><trkpt lat="44.7053217" lon="8.39615"><ele>348.0</ele><time>2026-04-12T11:17:11Z</time></trkpt><trkpt lat="44.7053067" lon="8.3959967"><ele>348.0</ele><time>2026-04-12T11:17:11.994Z</time></trkpt><trkpt lat="44.7052933" lon="8.3958467"><ele>348.0</ele><time>2026-04-12T11:17:12.994Z</time></trkpt><trkpt lat="44.70527" lon="8.39571"><ele>348.0</ele><time>2026-04-12T11:17:13.994Z</time></trkpt><trkpt lat="44.7052267" lon="8.3956083"><ele>348.0</ele><time>2026-04-12T11:17:14.997Z</time></trkpt><trkpt lat="44.705175" lon="8.3955233"><ele>348.0</ele><time>2026-04-12T11:17:15.995Z</time></trkpt><trkpt lat="44.705115" lon="8.3954717"><ele>348.0</ele><time>2026-04-12T11:17:16.999Z</time></trkpt><trkpt lat="44.7050217" lon="8.3955"><ele>349.6666666666667</ele><time>2026-04-12T11:17:17.995Z</time></trkpt><trkpt lat="44.7049383" lon="8.3954983"><ele>351.3333333333333</ele><time>2026-04-12T11:17:19Z</time></trkpt><trkpt lat="44.70486" lon="8.3954767"><ele>353.0</ele><time>2026-04-12T11:17:19.996Z</time></trkpt><trkpt lat="44.7047817" lon="8.3954483"><ele>354.66666666666663</ele><time>2026-04-12T11:17:20.995Z</time></trkpt><trkpt lat="44.7047417" lon="8.39536"><ele>356.3333333333333</ele><time>2026-04-12T11:17:21.999Z</time></trkpt><trkpt lat="44.7047133" lon="8.3952633"><ele>358.0</ele><time>2026-04-12T11:17:22.998Z</time></trkpt><trkpt lat="44.704705" lon="8.3951483"><ele>358.0</ele><time>2026-04-12T11:17:23.997Z</time></trkpt><trkpt lat="44.7047033" lon="8.395015"><ele>358.0</ele><time>2026-04-12T11:17:24.994Z</time></trkpt><trkpt lat="44.70473" lon="8.3948433"><ele>358.0</ele><time>2026-04-12T11:17:26.005Z</time></trkpt><trkpt lat="44.70474" lon="8.3946717"><ele>358.0</ele><time>2026-04-12T11:17:26.998Z</time></trkpt><trkpt lat="44.704755" lon="8.3944933"><ele>358.0</ele><time>2026-04-12T11:17:27.997Z</time></trkpt><trkpt lat="44.70477" lon="8.3943133"><ele>358.0</ele><time>2026-04-12T11:17:28.994Z</time></trkpt><trkpt lat="44.70478" lon="8.3941367"><ele>358.0</ele><time>2026-04-12T11:17:29.993Z</time></trkpt><trkpt lat="44.7047817" lon="8.3939667"><ele>358.0</ele><time>2026-04-12T11:17:30.997Z</time></trkpt><trkpt lat="44.70477" lon="8.3938067"><ele>357.0</ele><time>2026-04-12T11:17:31.998Z</time></trkpt><trkpt lat="44.7047367" lon="8.3936633"><ele>356.0</ele><time>2026-04-12T11:17:33.003Z</time></trkpt><trkpt lat="44.7046783" lon="8.3935267"><ele>355.0</ele><time>2026-04-12T11:17:33.994Z</time></trkpt><trkpt lat="44.704605" lon="8.3933917"><ele>354.0</ele><time>2026-04-12T11:17:34.994Z</time></trkpt><trkpt lat="44.7045067" lon="8.3932517"><ele>356.6666666666667</ele><time>2026-04-12T11:17:35.996Z</time></trkpt><trkpt lat="44.7043983" lon="8.3931067"><ele>359.33333333333337</ele><time>2026-04-12T11:17:36.995Z</time></trkpt><trkpt lat="44.70428" lon="8.392965"><ele>362.0</ele><time>2026-04-12T11:17:37.994Z</time></trkpt><trkpt lat="44.7041583" lon="8.3928267"><ele>362.0</ele><time>2026-04-12T11:17:38.995Z</time></trkpt><trkpt lat="44.704035" lon="8.3926933"><ele>362.0</ele><time>2026-04-12T11:17:39.996Z</time></trkpt><trkpt lat="44.7039217" lon="8.3925467"><ele>362.0</ele><time>2026-04-12T11:17:40.996Z</time></trkpt><trkpt lat="44.7038233" lon="8.3923817"><ele>362.0</ele><time>2026-04-12T11:17:41.998Z</time></trkpt><trkpt lat="44.7037267" lon="8.3922017"><ele>362.0</ele><time>2026-04-12T11:17:42.996Z</time></trkpt><trkpt lat="44.7036217" lon="8.3920167"><ele>362.0</ele><time>2026-04-12T11:17:43.995Z</time></trkpt><trkpt lat="44.7035017" lon="8.3918317"><ele>362.0</ele><time>2026-04-12T11:17:44.992Z</time></trkpt><trkpt lat="44.7033817" lon="8.3916483"><ele>362.0</ele><time>2026-04-12T11:17:45.995Z</time></trkpt><trkpt lat="44.7032633" lon="8.3914667"><ele>362.0</ele><time>2026-04-12T11:17:46.994Z</time></trkpt><trkpt lat="44.7031483" lon="8.391295"><ele>362.0</ele><time>2026-04-12T11:17:47.994Z</time></trkpt><trkpt lat="44.7030483" lon="8.39114"><ele>362.0</ele><time>2026-04-12T11:17:48.993Z</time></trkpt><trkpt lat="44.7029467" lon="8.3910183"><ele>362.0</ele><time>2026-04-12T11:17:49.998Z</time></trkpt><trkpt lat="44.70284" lon="8.3909533"><ele>362.0</ele><time>2026-04-12T11:17:50.994Z</time></trkpt><trkpt lat="44.7027283" lon="8.3909483"><ele>366.25</ele><time>2026-04-12T11:17:51.996Z</time></trkpt><trkpt lat="44.7026133" lon="8.3909817"><ele>370.5</ele><time>2026-04-12T11:17:52.998Z</time></trkpt><trkpt lat="44.7025033" lon="8.391015"><ele>374.75</ele><time>2026-04-12T11:17:53.994Z</time></trkpt><trkpt lat="44.70239" lon="8.3910283"><ele>379.0</ele><time>2026-04-12T11:17:54.996Z</time></trkpt><trkpt lat="44.7022783" lon="8.3910133"><ele>379.0</ele><time>2026-04-12T11:17:55.997Z</time></trkpt><trkpt lat="44.7021783" lon="8.3909917"><ele>379.0</ele><time>2026-04-12T11:17:56.996Z</time></trkpt><trkpt lat="44.702075" lon="8.3909967"><ele>379.0</ele><time>2026-04-12T11:17:57.996Z</time></trkpt><trkpt lat="44.701975" lon="8.3910317"><ele>379.0</ele><time>2026-04-12T11:17:58.991Z</time></trkpt><trkpt lat="44.7018767" lon="8.3910783"><ele>379.0</ele><time>2026-04-12T11:17:59.995Z</time></trkpt><trkpt lat="44.7017733" lon="8.3911067"><ele>381.75</ele><time>2026-04-12T11:18:00.997Z</time></trkpt><trkpt lat="44.701665" lon="8.3911217"><ele>384.5</ele><time>2026-04-12T11:18:01.993Z</time></trkpt><trkpt lat="44.7015467" lon="8.3911"><ele>387.25</ele><time>2026-04-12T11:18:02.998Z</time></trkpt><trkpt lat="44.7014283" lon="8.39105"><ele>390.0</ele><time>2026-04-12T11:18:03.995Z</time></trkpt><trkpt lat="44.7013167" lon="8.39098"><ele>390.0</ele><time>2026-04-12T11:18:04.995Z</time></trkpt><trkpt lat="44.7012017" lon="8.3909017"><ele>390.0</ele><time>2026-04-12T11:18:05.998Z</time></trkpt><trkpt lat="44.7010817" lon="8.3908183"><ele>390.0</ele><time>2026-04-12T11:18:06.997Z</time></trkpt><trkpt lat="44.7009617" lon="8.3907283"><ele>390.0</ele><time>2026-04-12T11:18:07.998Z</time></trkpt><trkpt lat="44.7008417" lon="8.390625"><ele>390.25</ele><time>2026-04-12T11:18:08.999Z</time></trkpt><trkpt lat="44.7007267" lon="8.390505"><ele>390.5</ele><time>2026-04-12T11:18:09.997Z</time></trkpt><trkpt lat="44.7006117" lon="8.3903783"><ele>390.75</ele><time>2026-04-12T11:18:10.993Z</time></trkpt><trkpt lat="44.7004967" lon="8.390255"><ele>391.0</ele><time>2026-04-12T11:18:11.998Z</time></trkpt><trkpt lat="44.70038" lon="8.3901333"><ele>391.0</ele><time>2026-04-12T11:18:12.997Z</time></trkpt><trkpt lat="44.7002717" lon="8.39"><ele>391.0</ele><time>2026-04-12T11:18:13.995Z</time></trkpt><trkpt lat="44.7001833" lon="8.3898433"><ele>391.0</ele><time>2026-04-12T11:18:14.994Z</time></trkpt><trkpt lat="44.7001067" lon="8.3896567"><ele>391.0</ele><time>2026-04-12T11:18:15.995Z</time></trkpt><trkpt lat="44.700035" lon="8.3894383"><ele>392.33333333333337</ele><time>2026-04-12T11:18:16.997Z</time></trkpt><trkpt lat="44.69995" lon="8.3892"><ele>393.66666666666663</ele><time>2026-04-12T11:18:17.994Z</time></trkpt><trkpt lat="44.699865" lon="8.38894"><ele>395.0</ele><time>2026-04-12T11:18:19.001Z</time></trkpt><trkpt lat="44.6997833" lon="8.3886767"><ele>395.0</ele><time>2026-04-12T11:18:19.992Z</time></trkpt><trkpt lat="44.6997117" lon="8.38842"><ele>395.0</ele><time>2026-04-12T11:18:21.002Z</time></trkpt><trkpt lat="44.6996433" lon="8.3881717"><ele>395.0</ele><time>2026-04-12T11:18:21.995Z</time></trkpt><trkpt lat="44.699585" lon="8.3879317"><ele>395.66666666666663</ele><time>2026-04-12T11:18:22.999Z</time></trkpt><trkpt lat="44.69953" lon="8.3877117"><ele>396.33333333333337</ele><time>2026-04-12T11:18:23.998Z</time></trkpt><trkpt lat="44.6994667" lon="8.38752"><ele>397.0</ele><time>2026-04-12T11:18:24.996Z</time></trkpt><trkpt lat="44.6994" lon="8.3873417"><ele>401.0</ele><time>2026-04-12T11:18:25.992Z</time></trkpt><trkpt lat="44.6993417" lon="8.387185"><ele>405.0</ele><time>2026-04-12T11:18:26.992Z</time></trkpt><trkpt lat="44.6992883" lon="8.38706"><ele>409.0</ele><time>2026-04-12T11:18:27.997Z</time></trkpt><trkpt lat="44.69924" lon="8.38697"><ele>413.0</ele><time>2026-04-12T11:18:28.991Z</time></trkpt><trkpt lat="44.6991917" lon="8.3869067"><ele>417.0</ele><time>2026-04-12T11:18:29.992Z</time></trkpt><trkpt lat="44.69908" lon="8.38693"><ele>417.0</ele><time>2026-04-12T11:18:32Z</time></trkpt><trkpt lat="44.69902" lon="8.3869817"><ele>417.0</ele><time>2026-04-12T11:18:33Z</time></trkpt><trkpt lat="44.6989617" lon="8.38705"><ele>417.0</ele><time>2026-04-12T11:18:33.994Z</time></trkpt><trkpt lat="44.6988983" lon="8.3871317"><ele>417.0</ele><time>2026-04-12T11:18:34.997Z</time></trkpt><trkpt lat="44.698835" lon="8.3872067"><ele>417.0</ele><time>2026-04-12T11:18:35.994Z</time></trkpt><trkpt lat="44.6987767" lon="8.3872667"><ele>417.0</ele><time>2026-04-12T11:18:36.995Z</time></trkpt><trkpt lat="44.698705" lon="8.38732"><ele>417.0</ele><time>2026-04-12T11:18:38.996Z</time></trkpt><trkpt lat="44.6986333" lon="8.3872367"><ele>417.0</ele><time>2026-04-12T11:18:42.001Z</time></trkpt><trkpt lat="44.6986133" lon="8.38708"><ele>417.0</ele><time>2026-04-12T11:18:43.996Z</time></trkpt><trkpt lat="44.6986" lon="8.3869617"><ele>417.0</ele><time>2026-04-12T11:18:44.994Z</time></trkpt><trkpt lat="44.6985817" lon="8.386815"><ele>417.0</ele><time>2026-04-12T11:18:45.996Z</time></trkpt><trkpt lat="44.6985583" lon="8.38666"><ele>418.5</ele><time>2026-04-12T11:18:46.996Z</time></trkpt><trkpt lat="44.6985217" lon="8.38649"><ele>420.0</ele><time>2026-04-12T11:18:47.997Z</time></trkpt><trkpt lat="44.69849" lon="8.3863133"><ele>421.5</ele><time>2026-04-12T11:18:48.994Z</time></trkpt><trkpt lat="44.698475" lon="8.3861233"><ele>423.0</ele><time>2026-04-12T11:18:49.996Z</time></trkpt><trkpt lat="44.6984717" lon="8.3859517"><ele>425.75</ele><time>2026-04-12T11:18:50.999Z</time></trkpt><trkpt lat="44.6984883" lon="8.3858"><ele>428.5</ele><time>2026-04-12T11:18:51.996Z</time></trkpt><trkpt lat="44.69852" lon="8.3856567"><ele>431.25</ele><time>2026-04-12T11:18:52.997Z</time></trkpt><trkpt lat="44.698575" lon="8.385515"><ele>434.0</ele><time>2026-04-12T11:18:53.992Z</time></trkpt><trkpt lat="44.69865" lon="8.3853717"><ele>435.0</ele><time>2026-04-12T11:18:54.997Z</time></trkpt><trkpt lat="44.6987267" lon="8.3852117"><ele>436.0</ele><time>2026-04-12T11:18:55.998Z</time></trkpt><trkpt lat="44.698805" lon="8.3850333"><ele>437.0</ele><time>2026-04-12T11:18:56.999Z</time></trkpt><trkpt lat="44.69889" lon="8.3848483"><ele>438.0</ele><time>2026-04-12T11:18:57.999Z</time></trkpt><trkpt lat="44.6989783" lon="8.384665"><ele>445.33333333333337</ele><time>2026-04-12T11:18:58.997Z</time></trkpt><trkpt lat="44.6990717" lon="8.3844967"><ele>452.6666666666667</ele><time>2026-04-12T11:18:59.997Z</time></trkpt><trkpt lat="44.69918" lon="8.38435"><ele>460.0</ele><time>2026-04-12T11:19:00.996Z</time></trkpt><trkpt lat="44.6993017" lon="8.384225"><ele>456.6666666666667</ele><time>2026-04-12T11:19:01.999Z</time></trkpt><trkpt lat="44.6994367" lon="8.3841183"><ele>453.33333333333337</ele><time>2026-04-12T11:19:02.999Z</time></trkpt><trkpt lat="44.699575" lon="8.3840117"><ele>450.0</ele><time>2026-04-12T11:19:03.993Z</time></trkpt><trkpt lat="44.6997133" lon="8.3839117"><ele>453.25</ele><time>2026-04-12T11:19:04.998Z</time></trkpt><trkpt lat="44.69984" lon="8.3838217"><ele>456.5</ele><time>2026-04-12T11:19:05.998Z</time></trkpt><trkpt lat="44.6999433" lon="8.383735"><ele>459.75</ele><time>2026-04-12T11:19:07.001Z</time></trkpt><trkpt lat="44.70002" lon="8.3836333"><ele>463.0</ele><time>2026-04-12T11:19:07.997Z</time></trkpt><trkpt lat="44.70007" lon="8.3835033"><ele>463.0</ele><time>2026-04-12T11:19:08.996Z</time></trkpt><trkpt lat="44.7001" lon="8.3833533"><ele>462.99999999999994</ele><time>2026-04-12T11:19:09.996Z</time></trkpt><trkpt lat="44.70012" lon="8.3831967"><ele>462.99999999999994</ele><time>2026-04-12T11:19:10.997Z</time></trkpt><trkpt lat="44.7001267" lon="8.3830417"><ele>463.0</ele><time>2026-04-12T11:19:11.997Z</time></trkpt><trkpt lat="44.70012" lon="8.3828883"><ele>463.0</ele><time>2026-04-12T11:19:12.993Z</time></trkpt><trkpt lat="44.7000967" lon="8.3827383"><ele>461.75</ele><time>2026-04-12T11:19:13.996Z</time></trkpt><trkpt lat="44.7000467" lon="8.3826083"><ele>460.5</ele><time>2026-04-12T11:19:14.999Z</time></trkpt><trkpt lat="44.69997" lon="8.38249"><ele>459.25</ele><time>2026-04-12T11:19:15.994Z</time></trkpt><trkpt lat="44.6998833" lon="8.38237"><ele>458.0</ele><time>2026-04-12T11:19:16.996Z</time></trkpt><trkpt lat="44.6997983" lon="8.3822467"><ele>453.75</ele><time>2026-04-12T11:19:17.996Z</time></trkpt><trkpt lat="44.6997133" lon="8.3821117"><ele>449.5</ele><time>2026-04-12T11:19:18.999Z</time></trkpt><trkpt lat="44.6996383" lon="8.3819683"><ele>445.25</ele><time>2026-04-12T11:19:19.994Z</time></trkpt><trkpt lat="44.699575" lon="8.381815"><ele>441.0</ele><time>2026-04-12T11:19:21.004Z</time></trkpt><trkpt lat="44.6994933" lon="8.38167"><ele>441.5</ele><time>2026-04-12T11:19:21.998Z</time></trkpt><trkpt lat="44.69939" lon="8.381555"><ele>442.0</ele><time>2026-04-12T11:19:22.996Z</time></trkpt><trkpt lat="44.6992717" lon="8.38146"><ele>442.5</ele><time>2026-04-12T11:19:23.994Z</time></trkpt><trkpt lat="44.69916" lon="8.381355"><ele>443.0</ele><time>2026-04-12T11:19:25Z</time></trkpt><trkpt lat="44.699055" lon="8.3812333"><ele>443.0</ele><time>2026-04-12T11:19:25.995Z</time></trkpt><trkpt lat="44.69896" lon="8.3810867"><ele>443.0</ele><time>2026-04-12T11:19:26.998Z</time></trkpt><trkpt lat="44.6988917" lon="8.3809083"><ele>443.0</ele><time>2026-04-12T11:19:27.995Z</time></trkpt><trkpt lat="44.6988317" lon="8.3807167"><ele>443.0</ele><time>2026-04-12T11:19:28.994Z</time></trkpt><trkpt lat="44.6987683" lon="8.3805283"><ele>444.75</ele><time>2026-04-12T11:19:29.995Z</time></trkpt><trkpt lat="44.69869" lon="8.3803567"><ele>446.5</ele><time>2026-04-12T11:19:30.995Z</time></trkpt><trkpt lat="44.6986083" lon="8.3801883"><ele>448.25</ele><time>2026-04-12T11:19:31.998Z</time></trkpt><trkpt lat="44.6985133" lon="8.3800283"><ele>450.0</ele><time>2026-04-12T11:19:32.996Z</time></trkpt><trkpt lat="44.6984117" lon="8.3798767"><ele>450.0</ele><time>2026-04-12T11:19:33.994Z</time></trkpt><trkpt lat="44.6983133" lon="8.3797183"><ele>450.0</ele><time>2026-04-12T11:19:34.996Z</time></trkpt><trkpt lat="44.698215" lon="8.3795467"><ele>450.0</ele><time>2026-04-12T11:19:35.995Z</time></trkpt><trkpt lat="44.6981117" lon="8.3793667"><ele>445.33333333333337</ele><time>2026-04-12T11:19:36.996Z</time></trkpt><trkpt lat="44.6979983" lon="8.3791817"><ele>440.6666666666667</ele><time>2026-04-12T11:19:37.995Z</time></trkpt><trkpt lat="44.6979017" lon="8.37898"><ele>436.0</ele><time>2026-04-12T11:19:39Z</time></trkpt><trkpt lat="44.6978167" lon="8.3787667"><ele>443.0</ele><time>2026-04-12T11:19:39.994Z</time></trkpt><trkpt lat="44.697735" lon="8.3785583"><ele>450.0</ele><time>2026-04-12T11:19:40.998Z</time></trkpt><trkpt lat="44.6976567" lon="8.3783517"><ele>457.0</ele><time>2026-04-12T11:19:41.996Z</time></trkpt><trkpt lat="44.6975983" lon="8.3781433"><ele>457.0</ele><time>2026-04-12T11:19:42.996Z</time></trkpt><trkpt lat="44.69756" lon="8.3779317"><ele>457.0</ele><time>2026-04-12T11:19:43.998Z</time></trkpt><trkpt lat="44.6975417" lon="8.3777167"><ele>457.0</ele><time>2026-04-12T11:19:44.999Z</time></trkpt><trkpt lat="44.6975417" lon="8.3774933"><ele>457.0</ele><time>2026-04-12T11:19:45.997Z</time></trkpt><trkpt lat="44.697545" lon="8.3772667"><ele>457.0</ele><time>2026-04-12T11:19:46.997Z</time></trkpt><trkpt lat="44.69756" lon="8.377035"><ele>457.0</ele><time>2026-04-12T11:19:47.996Z</time></trkpt><trkpt lat="44.69758" lon="8.3767967"><ele>456.0</ele><time>2026-04-12T11:19:48.996Z</time></trkpt><trkpt lat="44.6976033" lon="8.3765517"><ele>455.0</ele><time>2026-04-12T11:19:49.998Z</time></trkpt><trkpt lat="44.6976367" lon="8.3763183"><ele>454.0</ele><time>2026-04-12T11:19:50.995Z</time></trkpt><trkpt lat="44.6976767" lon="8.3760933"><ele>452.33333333333337</ele><time>2026-04-12T11:19:51.996Z</time></trkpt><trkpt lat="44.69774" lon="8.3758817"><ele>450.66666666666663</ele><time>2026-04-12T11:19:52.996Z</time></trkpt><trkpt lat="44.6978133" lon="8.37567"><ele>449.0</ele><time>2026-04-12T11:19:53.994Z</time></trkpt><trkpt lat="44.6978967" lon="8.37546"><ele>449.0</ele><time>2026-04-12T11:19:55Z</time></trkpt><trkpt lat="44.6979833" lon="8.3752517"><ele>449.0</ele><time>2026-04-12T11:19:55.996Z</time></trkpt><trkpt lat="44.6980733" lon="8.3750433"><ele>449.0</ele><time>2026-04-12T11:19:56.995Z</time></trkpt><trkpt lat="44.6981683" lon="8.3748417"><ele>449.0</ele><time>2026-04-12T11:19:57.993Z</time></trkpt><trkpt lat="44.69827" lon="8.3746433"><ele>449.0</ele><time>2026-04-12T11:19:58.997Z</time></trkpt><trkpt lat="44.6983717" lon="8.37446"><ele>449.0</ele><time>2026-04-12T11:19:59.997Z</time></trkpt><trkpt lat="44.6984633" lon="8.374285"><ele>449.0</ele><time>2026-04-12T11:20:00.999Z</time></trkpt><trkpt lat="44.6985433" lon="8.3741067"><ele>449.0</ele><time>2026-04-12T11:20:01.999Z</time></trkpt><trkpt lat="44.6985883" lon="8.37392"><ele>449.0</ele><time>2026-04-12T11:20:03Z</time></trkpt><trkpt lat="44.698615" lon="8.3737167"><ele>449.0</ele><time>2026-04-12T11:20:03.998Z</time></trkpt><trkpt lat="44.6986167" lon="8.3735017"><ele>450.5</ele><time>2026-04-12T11:20:04.997Z</time></trkpt><trkpt lat="44.6986217" lon="8.3732883"><ele>452.0</ele><time>2026-04-12T11:20:05.998Z</time></trkpt><trkpt lat="44.6986417" lon="8.37308"><ele>453.5</ele><time>2026-04-12T11:20:06.997Z</time></trkpt><trkpt lat="44.6986667" lon="8.3728833"><ele>455.0</ele><time>2026-04-12T11:20:07.997Z</time></trkpt><trkpt lat="44.6987067" lon="8.3726933"><ele>456.75</ele><time>2026-04-12T11:20:08.997Z</time></trkpt><trkpt lat="44.6987583" lon="8.37251"><ele>458.5</ele><time>2026-04-12T11:20:10.001Z</time></trkpt><trkpt lat="44.6988183" lon="8.3723217"><ele>460.25</ele><time>2026-04-12T11:20:10.992Z</time></trkpt><trkpt lat="44.6988867" lon="8.3721283"><ele>462.0</ele><time>2026-04-12T11:20:11.997Z</time></trkpt><trkpt lat="44.6989617" lon="8.3719283"><ele>463.0</ele><time>2026-04-12T11:20:12.998Z</time></trkpt><trkpt lat="44.6990367" lon="8.3717217"><ele>464.0</ele><time>2026-04-12T11:20:14Z</time></trkpt><trkpt lat="44.6991167" lon="8.37151"><ele>465.0</ele><time>2026-04-12T11:20:14.999Z</time></trkpt><trkpt lat="44.6992" lon="8.3712933"><ele>466.66666666666663</ele><time>2026-04-12T11:20:15.998Z</time></trkpt><trkpt lat="44.699285" lon="8.3710617"><ele>468.3333333333333</ele><time>2026-04-12T11:20:16.995Z</time></trkpt><trkpt lat="44.699375" lon="8.3708317"><ele>470.0</ele><time>2026-04-12T11:20:17.995Z</time></trkpt><trkpt lat="44.699465" lon="8.37061"><ele>464.66666666666663</ele><time>2026-04-12T11:20:18.994Z</time></trkpt><trkpt lat="44.6995617" lon="8.3703967"><ele>459.33333333333337</ele><time>2026-04-12T11:20:19.999Z</time></trkpt><trkpt lat="44.6996683" lon="8.3702017"><ele>454.0</ele><time>2026-04-12T11:20:20.993Z</time></trkpt><trkpt lat="44.6997883" lon="8.3700183"><ele>454.0</ele><time>2026-04-12T11:20:21.995Z</time></trkpt><trkpt lat="44.6999233" lon="8.3698533"><ele>454.0</ele><time>2026-04-12T11:20:22.998Z</time></trkpt><trkpt lat="44.7000617" lon="8.3696933"><ele>454.0</ele><time>2026-04-12T11:20:23.998Z</time></trkpt><trkpt lat="44.700205" lon="8.3695367"><ele>452.33333333333337</ele><time>2026-04-12T11:20:24.995Z</time></trkpt><trkpt lat="44.700335" lon="8.369385"><ele>450.66666666666663</ele><time>2026-04-12T11:20:25.995Z</time></trkpt><trkpt lat="44.7004533" lon="8.36923"><ele>449.0</ele><time>2026-04-12T11:20:26.995Z</time></trkpt><trkpt lat="44.70056" lon="8.3690683"><ele>449.0</ele><time>2026-04-12T11:20:27.995Z</time></trkpt><trkpt lat="44.70066" lon="8.3688983"><ele>449.0</ele><time>2026-04-12T11:20:28.999Z</time></trkpt><trkpt lat="44.7007583" lon="8.3687217"><ele>449.0</ele><time>2026-04-12T11:20:29.998Z</time></trkpt><trkpt lat="44.7008583" lon="8.36854"><ele>449.0</ele><time>2026-04-12T11:20:30.998Z</time></trkpt><trkpt lat="44.7009617" lon="8.3683567"><ele>449.0</ele><time>2026-04-12T11:20:31.998Z</time></trkpt><trkpt lat="44.7010667" lon="8.3681717"><ele>449.0</ele><time>2026-04-12T11:20:32.999Z</time></trkpt><trkpt lat="44.701165" lon="8.3679817"><ele>448.66666666666663</ele><time>2026-04-12T11:20:33.997Z</time></trkpt><trkpt lat="44.7012683" lon="8.3678"><ele>448.33333333333337</ele><time>2026-04-12T11:20:35Z</time></trkpt><trkpt lat="44.7013667" lon="8.3676183"><ele>448.0</ele><time>2026-04-12T11:20:35.995Z</time></trkpt><trkpt lat="44.7014533" lon="8.36743"><ele>448.0</ele><time>2026-04-12T11:20:36.997Z</time></trkpt><trkpt lat="44.7015133" lon="8.3672433"><ele>448.0</ele><time>2026-04-12T11:20:37.997Z</time></trkpt><trkpt lat="44.7015317" lon="8.3670433"><ele>448.0</ele><time>2026-04-12T11:20:39Z</time></trkpt><trkpt lat="44.7015133" lon="8.3668367"><ele>448.0</ele><time>2026-04-12T11:20:40Z</time></trkpt><trkpt lat="44.7014767" lon="8.3666267"><ele>447.6666666666667</ele><time>2026-04-12T11:20:40.994Z</time></trkpt><trkpt lat="44.7014233" lon="8.36642"><ele>447.33333333333337</ele><time>2026-04-12T11:20:41.997Z</time></trkpt><trkpt lat="44.7013667" lon="8.3662167"><ele>447.0</ele><time>2026-04-12T11:20:42.996Z</time></trkpt><trkpt lat="44.701315" lon="8.366015"><ele>447.0</ele><time>2026-04-12T11:20:43.995Z</time></trkpt><trkpt lat="44.701265" lon="8.3658133"><ele>447.0</ele><time>2026-04-12T11:20:45Z</time></trkpt><trkpt lat="44.7012217" lon="8.3656067"><ele>447.0</ele><time>2026-04-12T11:20:45.995Z</time></trkpt><trkpt lat="44.7011883" lon="8.3653917"><ele>445.66666666666663</ele><time>2026-04-12T11:20:46.996Z</time></trkpt><trkpt lat="44.7011717" lon="8.3651717"><ele>444.3333333333333</ele><time>2026-04-12T11:20:47.998Z</time></trkpt><trkpt lat="44.7011783" lon="8.36494"><ele>443.0</ele><time>2026-04-12T11:20:48.996Z</time></trkpt><trkpt lat="44.701195" lon="8.3647083"><ele>443.0</ele><time>2026-04-12T11:20:50.002Z</time></trkpt><trkpt lat="44.7012233" lon="8.364475"><ele>443.0</ele><time>2026-04-12T11:20:51Z</time></trkpt><trkpt lat="44.701255" lon="8.3642433"><ele>443.0</ele><time>2026-04-12T11:20:51.999Z</time></trkpt><trkpt lat="44.7012867" lon="8.36401"><ele>443.66666666666663</ele><time>2026-04-12T11:20:52.998Z</time></trkpt><trkpt lat="44.7013217" lon="8.3637667"><ele>444.33333333333337</ele><time>2026-04-12T11:20:53.996Z</time></trkpt><trkpt lat="44.7013533" lon="8.3635267"><ele>445.0</ele><time>2026-04-12T11:20:55Z</time></trkpt><trkpt lat="44.7013733" lon="8.36329"><ele>445.0</ele><time>2026-04-12T11:20:55.996Z</time></trkpt><trkpt lat="44.7013833" lon="8.3630617"><ele>445.0</ele><time>2026-04-12T11:20:56.998Z</time></trkpt><trkpt lat="44.7013867" lon="8.3628433"><ele>445.0</ele><time>2026-04-12T11:20:57.999Z</time></trkpt><trkpt lat="44.70138" lon="8.3626317"><ele>445.33333333333337</ele><time>2026-04-12T11:20:58.996Z</time></trkpt><trkpt lat="44.70137" lon="8.3624217"><ele>445.66666666666663</ele><time>2026-04-12T11:21:00Z</time></trkpt><trkpt lat="44.7013667" lon="8.3622083"><ele>446.0</ele><time>2026-04-12T11:21:00.997Z</time></trkpt><trkpt lat="44.701375" lon="8.361995"><ele>447.3333333333333</ele><time>2026-04-12T11:21:01.999Z</time></trkpt><trkpt lat="44.7014033" lon="8.36178"><ele>448.66666666666663</ele><time>2026-04-12T11:21:02.998Z</time></trkpt><trkpt lat="44.7014483" lon="8.3615667"><ele>450.0</ele><time>2026-04-12T11:21:03.995Z</time></trkpt><trkpt lat="44.7014967" lon="8.361355"><ele>451.66666666666663</ele><time>2026-04-12T11:21:04.994Z</time></trkpt><trkpt lat="44.70154" lon="8.3611383"><ele>453.3333333333333</ele><time>2026-04-12T11:21:05.994Z</time></trkpt><trkpt lat="44.701575" lon="8.360925"><ele>455.0</ele><time>2026-04-12T11:21:06.996Z</time></trkpt><trkpt lat="44.7015883" lon="8.36072"><ele>456.25</ele><time>2026-04-12T11:21:07.998Z</time></trkpt><trkpt lat="44.7015667" lon="8.3605217"><ele>457.5</ele><time>2026-04-12T11:21:08.996Z</time></trkpt><trkpt lat="44.70152" lon="8.3603383"><ele>458.75</ele><time>2026-04-12T11:21:09.996Z</time></trkpt><trkpt lat="44.7014667" lon="8.360185"><ele>460.0</ele><time>2026-04-12T11:21:10.998Z</time></trkpt><trkpt lat="44.701425" lon="8.360045"><ele>460.0</ele><time>2026-04-12T11:21:11.995Z</time></trkpt><trkpt lat="44.701415" lon="8.3599183"><ele>460.0</ele><time>2026-04-12T11:21:13Z</time></trkpt><trkpt lat="44.7014233" lon="8.3597983"><ele>460.0</ele><time>2026-04-12T11:21:14Z</time></trkpt><trkpt lat="44.701455" lon="8.3596733"><ele>460.0</ele><time>2026-04-12T11:21:14.996Z</time></trkpt><trkpt lat="44.7015017" lon="8.3595217"><ele>460.0</ele><time>2026-04-12T11:21:15.993Z</time></trkpt><trkpt lat="44.7015433" lon="8.3593433"><ele>460.5</ele><time>2026-04-12T11:21:16.996Z</time></trkpt><trkpt lat="44.7015833" lon="8.3591483"><ele>461.0</ele><time>2026-04-12T11:21:17.997Z</time></trkpt><trkpt lat="44.70163" lon="8.358945"><ele>461.5</ele><time>2026-04-12T11:21:18.997Z</time></trkpt><trkpt lat="44.7016783" lon="8.3587467"><ele>462.0</ele><time>2026-04-12T11:21:20Z</time></trkpt><trkpt lat="44.7017417" lon="8.3585567"><ele>464.0</ele><time>2026-04-12T11:21:20.997Z</time></trkpt><trkpt lat="44.7018217" lon="8.3583783"><ele>466.0</ele><time>2026-04-12T11:21:21.997Z</time></trkpt><trkpt lat="44.701925" lon="8.3582183"><ele>468.0</ele><time>2026-04-12T11:21:22.998Z</time></trkpt><trkpt lat="44.70204" lon="8.358065"><ele>466.33333333333337</ele><time>2026-04-12T11:21:23.994Z</time></trkpt><trkpt lat="44.7021617" lon="8.3579233"><ele>464.6666666666667</ele><time>2026-04-12T11:21:24.994Z</time></trkpt><trkpt lat="44.702295" lon="8.3577817"><ele>463.0</ele><time>2026-04-12T11:21:25.999Z</time></trkpt><trkpt lat="44.7024333" lon="8.35765"><ele>463.0</ele><time>2026-04-12T11:21:26.996Z</time></trkpt><trkpt lat="44.7025733" lon="8.3575383"><ele>463.0</ele><time>2026-04-12T11:21:27.996Z</time></trkpt><trkpt lat="44.7027017" lon="8.3574483"><ele>463.0</ele><time>2026-04-12T11:21:28.995Z</time></trkpt><trkpt lat="44.7028183" lon="8.3573683"><ele>463.0</ele><time>2026-04-12T11:21:29.997Z</time></trkpt><trkpt lat="44.7029183" lon="8.35727"><ele>460.0</ele><time>2026-04-12T11:21:30.995Z</time></trkpt><trkpt lat="44.70301" lon="8.3571467"><ele>457.0</ele><time>2026-04-12T11:21:31.996Z</time></trkpt><trkpt lat="44.70309" lon="8.3569933"><ele>454.0</ele><time>2026-04-12T11:21:32.998Z</time></trkpt><trkpt lat="44.7031533" lon="8.3568117"><ele>451.0</ele><time>2026-04-12T11:21:33.996Z</time></trkpt><trkpt lat="44.703195" lon="8.3566167"><ele>451.0</ele><time>2026-04-12T11:21:34.994Z</time></trkpt><trkpt lat="44.7032167" lon="8.356415"><ele>451.0</ele><time>2026-04-12T11:21:36Z</time></trkpt><trkpt lat="44.70324" lon="8.3562317"><ele>451.0</ele><time>2026-04-12T11:21:36.995Z</time></trkpt><trkpt lat="44.7032783" lon="8.35607"><ele>451.0</ele><time>2026-04-12T11:21:37.998Z</time></trkpt><trkpt lat="44.7033433" lon="8.3559367"><ele>451.20000000000005</ele><time>2026-04-12T11:21:38.997Z</time></trkpt><trkpt lat="44.7034183" lon="8.3558383"><ele>451.40000000000003</ele><time>2026-04-12T11:21:39.995Z</time></trkpt><trkpt lat="44.7035117" lon="8.355755"><ele>451.6</ele><time>2026-04-12T11:21:40.997Z</time></trkpt><trkpt lat="44.7036" lon="8.3556583"><ele>451.8</ele><time>2026-04-12T11:21:42Z</time></trkpt><trkpt lat="44.7036833" lon="8.355535"><ele>452.0</ele><time>2026-04-12T11:21:43.002Z</time></trkpt><trkpt lat="44.7037533" lon="8.3553783"><ele>448.75</ele><time>2026-04-12T11:21:43.999Z</time></trkpt><trkpt lat="44.7038183" lon="8.3552167"><ele>445.5</ele><time>2026-04-12T11:21:44.995Z</time></trkpt><trkpt lat="44.7038733" lon="8.3550633"><ele>442.25</ele><time>2026-04-12T11:21:45.995Z</time></trkpt><trkpt lat="44.7039433" lon="8.3549217"><ele>439.0</ele><time>2026-04-12T11:21:46.993Z</time></trkpt><trkpt lat="44.70403" lon="8.3547917"><ele>438.0</ele><time>2026-04-12T11:21:47.996Z</time></trkpt><trkpt lat="44.7041433" lon="8.35467"><ele>437.0</ele><time>2026-04-12T11:21:48.999Z</time></trkpt><trkpt lat="44.7042683" lon="8.3545517"><ele>436.0</ele><time>2026-04-12T11:21:49.993Z</time></trkpt><trkpt lat="44.704395" lon="8.3544267"><ele>435.0</ele><time>2026-04-12T11:21:50.998Z</time></trkpt><trkpt lat="44.7045167" lon="8.3542967"><ele>435.0</ele><time>2026-04-12T11:21:51.994Z</time></trkpt><trkpt lat="44.7046333" lon="8.354165"><ele>435.0</ele><time>2026-04-12T11:21:52.998Z</time></trkpt><trkpt lat="44.7047467" lon="8.354045"><ele>435.0</ele><time>2026-04-12T11:21:53.996Z</time></trkpt><trkpt lat="44.7048583" lon="8.3539467"><ele>435.0</ele><time>2026-04-12T11:21:54.993Z</time></trkpt><trkpt lat="44.7049633" lon="8.35388"><ele>435.0</ele><time>2026-04-12T11:21:55.994Z</time></trkpt><trkpt lat="44.7050683" lon="8.3538733"><ele>435.0</ele><time>2026-04-12T11:21:56.999Z</time></trkpt><trkpt lat="44.7051833" lon="8.3538883"><ele>435.0</ele><time>2026-04-12T11:21:57.995Z</time></trkpt><trkpt lat="44.7053117" lon="8.35389"><ele>435.0</ele><time>2026-04-12T11:21:58.996Z</time></trkpt><trkpt lat="44.70544" lon="8.3538917"><ele>434.0</ele><time>2026-04-12T11:21:59.992Z</time></trkpt><trkpt lat="44.70557" lon="8.3538933"><ele>433.0</ele><time>2026-04-12T11:22:00.995Z</time></trkpt><trkpt lat="44.7057017" lon="8.3538883"><ele>432.0</ele><time>2026-04-12T11:22:01.997Z</time></trkpt><trkpt lat="44.7058317" lon="8.3538433"><ele>431.0</ele><time>2026-04-12T11:22:03.003Z</time></trkpt><trkpt lat="44.7059583" lon="8.353755"><ele>433.75</ele><time>2026-04-12T11:22:04Z</time></trkpt><trkpt lat="44.7060683" lon="8.3536517"><ele>436.5</ele><time>2026-04-12T11:22:04.997Z</time></trkpt><trkpt lat="44.7061717" lon="8.3535333"><ele>439.25</ele><time>2026-04-12T11:22:06.003Z</time></trkpt><trkpt lat="44.7062717" lon="8.3534183"><ele>442.0</ele><time>2026-04-12T11:22:07Z</time></trkpt><trkpt lat="44.7063533" lon="8.3533"><ele>437.40000000000003</ele><time>2026-04-12T11:22:07.993Z</time></trkpt><trkpt lat="44.7064133" lon="8.3531767"><ele>432.80000000000007</ele><time>2026-04-12T11:22:08.995Z</time></trkpt><trkpt lat="44.706445" lon="8.3530433"><ele>428.2</ele><time>2026-04-12T11:22:09.998Z</time></trkpt><trkpt lat="44.7064533" lon="8.35289"><ele>423.6</ele><time>2026-04-12T11:22:10.996Z</time></trkpt><trkpt lat="44.7064417" lon="8.3527283"><ele>419.0</ele><time>2026-04-12T11:22:11.994Z</time></trkpt><trkpt lat="44.7064183" lon="8.3525633"><ele>418.0</ele><time>2026-04-12T11:22:12.993Z</time></trkpt><trkpt lat="44.7064017" lon="8.3523917"><ele>417.0</ele><time>2026-04-12T11:22:13.995Z</time></trkpt><trkpt lat="44.7064033" lon="8.3522133"><ele>416.0</ele><time>2026-04-12T11:22:14.995Z</time></trkpt><trkpt lat="44.7064217" lon="8.3520417"><ele>415.0</ele><time>2026-04-12T11:22:16Z</time></trkpt><trkpt lat="44.7064433" lon="8.351885"><ele>413.6</ele><time>2026-04-12T11:22:16.995Z</time></trkpt><trkpt lat="44.70645" lon="8.3517217"><ele>412.2</ele><time>2026-04-12T11:22:17.999Z</time></trkpt><trkpt lat="44.7064383" lon="8.3515667"><ele>410.79999999999995</ele><time>2026-04-12T11:22:18.997Z</time></trkpt><trkpt lat="44.7063883" lon="8.3514333"><ele>409.4</ele><time>2026-04-12T11:22:19.995Z</time></trkpt><trkpt lat="44.7063183" lon="8.3513217"><ele>408.0</ele><time>2026-04-12T11:22:20.999Z</time></trkpt><trkpt lat="44.7062217" lon="8.3512483"><ele>407.79999999999995</ele><time>2026-04-12T11:22:21.995Z</time></trkpt><trkpt lat="44.706125" lon="8.3512017"><ele>407.6</ele><time>2026-04-12T11:22:22.996Z</time></trkpt><trkpt lat="44.7060333" lon="8.3511467"><ele>407.4</ele><time>2026-04-12T11:22:23.995Z</time></trkpt><trkpt lat="44.7059633" lon="8.3510667"><ele>407.20000000000005</ele><time>2026-04-12T11:22:24.997Z</time></trkpt><trkpt lat="44.7059083" lon="8.350975"><ele>407.0</ele><time>2026-04-12T11:22:25.994Z</time></trkpt><trkpt lat="44.70586" lon="8.350885"><ele>407.8</ele><time>2026-04-12T11:22:27Z</time></trkpt><trkpt lat="44.7059067" lon="8.3507583"><ele>408.6</ele><time>2026-04-12T11:22:27.996Z</time></trkpt><trkpt lat="44.7059317" lon="8.350645"><ele>409.40000000000003</ele><time>2026-04-12T11:22:28.996Z</time></trkpt><trkpt lat="44.7059883" lon="8.3505383"><ele>410.20000000000005</ele><time>2026-04-12T11:22:29.993Z</time></trkpt><trkpt lat="44.7061167" lon="8.350415"><ele>411.0</ele><time>2026-04-12T11:22:30.994Z</time></trkpt><trkpt lat="44.7062333" lon="8.3502933"><ele>411.0</ele><time>2026-04-12T11:22:31.998Z</time></trkpt><trkpt lat="44.7063183" lon="8.3501783"><ele>411.0</ele><time>2026-04-12T11:22:33Z</time></trkpt><trkpt lat="44.7063733" lon="8.3500533"><ele>411.0</ele><time>2026-04-12T11:22:33.993Z</time></trkpt><trkpt lat="44.7064167" lon="8.34991"><ele>411.0</ele><time>2026-04-12T11:22:34.999Z</time></trkpt><trkpt lat="44.7064267" lon="8.3497567"><ele>411.0</ele><time>2026-04-12T11:22:35.993Z</time></trkpt><trkpt lat="44.706405" lon="8.34959"><ele>411.0</ele><time>2026-04-12T11:22:37.005Z</time></trkpt><trkpt lat="44.7063667" lon="8.3494183"><ele>411.0</ele><time>2026-04-12T11:22:37.995Z</time></trkpt><trkpt lat="44.7063217" lon="8.349245"><ele>411.0</ele><time>2026-04-12T11:22:38.998Z</time></trkpt><trkpt lat="44.7062717" lon="8.34908"><ele>411.0</ele><time>2026-04-12T11:22:39.994Z</time></trkpt><trkpt lat="44.7062267" lon="8.3489217"><ele>411.0</ele><time>2026-04-12T11:22:40.997Z</time></trkpt><trkpt lat="44.7062333" lon="8.3487567"><ele>411.0</ele><time>2026-04-12T11:22:41.993Z</time></trkpt><trkpt lat="44.706255" lon="8.3485983"><ele>411.0</ele><time>2026-04-12T11:22:42.995Z</time></trkpt><trkpt lat="44.70629" lon="8.34844"><ele>411.0</ele><time>2026-04-12T11:22:43.998Z</time></trkpt><trkpt lat="44.706325" lon="8.3482717"><ele>411.0</ele><time>2026-04-12T11:22:44.994Z</time></trkpt><trkpt lat="44.70636" lon="8.3480967"><ele>411.0</ele><time>2026-04-12T11:22:45.994Z</time></trkpt><trkpt lat="44.7063667" lon="8.3479033"><ele>411.0</ele><time>2026-04-12T11:22:47Z</time></trkpt><trkpt lat="44.7063717" lon="8.3476967"><ele>411.0</ele><time>2026-04-12T11:22:47.998Z</time></trkpt><trkpt lat="44.706375" lon="8.34749"><ele>411.0</ele><time>2026-04-12T11:22:49Z</time></trkpt><trkpt lat="44.7063717" lon="8.3472967"><ele>411.0</ele><time>2026-04-12T11:22:49.996Z</time></trkpt><trkpt lat="44.706365" lon="8.3471283"><ele>411.0</ele><time>2026-04-12T11:22:50.998Z</time></trkpt><trkpt lat="44.7063617" lon="8.3469867"><ele>411.0</ele><time>2026-04-12T11:22:51.996Z</time></trkpt><trkpt lat="44.7063283" lon="8.346875"><ele>411.0</ele><time>2026-04-12T11:22:52.993Z</time></trkpt><trkpt lat="44.70629" lon="8.3467767"><ele>409.8333333333333</ele><time>2026-04-12T11:22:54Z</time></trkpt><trkpt lat="44.706255" lon="8.3467"><ele>408.66666666666663</ele><time>2026-04-12T11:22:55.001Z</time></trkpt><trkpt lat="44.7061483" lon="8.3466167"><ele>407.5</ele><time>2026-04-12T11:22:57Z</time></trkpt><trkpt lat="44.7061133" lon="8.3465217"><ele>406.3333333333333</ele><time>2026-04-12T11:22:58.996Z</time></trkpt><trkpt lat="44.70608" lon="8.34643"><ele>405.16666666666663</ele><time>2026-04-12T11:23:00.999Z</time></trkpt><trkpt lat="44.706015" lon="8.34641"><ele>404.0</ele><time>2026-04-12T11:23:02.995Z</time></trkpt><trkpt lat="44.7058917" lon="8.3464967"><ele>403.0</ele><time>2026-04-12T11:23:04.996Z</time></trkpt><trkpt lat="44.7058" lon="8.3465817"><ele>402.0</ele><time>2026-04-12T11:23:05.993Z</time></trkpt><trkpt lat="44.7057" lon="8.346675"><ele>401.0</ele><time>2026-04-12T11:23:06.994Z</time></trkpt><trkpt lat="44.705585" lon="8.3467717"><ele>400.0</ele><time>2026-04-12T11:23:07.994Z</time></trkpt><trkpt lat="44.705385" lon="8.3469183"><ele>400.0</ele><time>2026-04-12T11:23:08.993Z</time></trkpt><trkpt lat="44.7052333" lon="8.3470433"><ele>400.0</ele><time>2026-04-12T11:23:09.998Z</time></trkpt><trkpt lat="44.7051033" lon="8.3471683"><ele>400.0</ele><time>2026-04-12T11:23:10.998Z</time></trkpt><trkpt lat="44.7049767" lon="8.34729"><ele>400.0</ele><time>2026-04-12T11:23:11.998Z</time></trkpt><trkpt lat="44.70487" lon="8.3473733"><ele>400.0</ele><time>2026-04-12T11:23:12.996Z</time></trkpt><trkpt lat="44.7047633" lon="8.3474183"><ele>400.0</ele><time>2026-04-12T11:23:13.994Z</time></trkpt><trkpt lat="44.7046667" lon="8.3474417"><ele>400.0</ele><time>2026-04-12T11:23:14.994Z</time></trkpt><trkpt lat="44.704565" lon="8.3474283"><ele>400.0</ele><time>2026-04-12T11:23:15.998Z</time></trkpt><trkpt lat="44.7044617" lon="8.3473817"><ele>399.0</ele><time>2026-04-12T11:23:16.998Z</time></trkpt><trkpt lat="44.7043567" lon="8.3472983"><ele>398.0</ele><time>2026-04-12T11:23:18.004Z</time></trkpt><trkpt lat="44.7042467" lon="8.34718"><ele>397.0</ele><time>2026-04-12T11:23:18.995Z</time></trkpt><trkpt lat="44.704135" lon="8.3470483"><ele>396.0</ele><time>2026-04-12T11:23:19.994Z</time></trkpt><trkpt lat="44.7040317" lon="8.346935"><ele>391.6</ele><time>2026-04-12T11:23:21Z</time></trkpt><trkpt lat="44.7039483" lon="8.3468333"><ele>387.20000000000005</ele><time>2026-04-12T11:23:21.995Z</time></trkpt><trkpt lat="44.703895" lon="8.3467533"><ele>382.79999999999995</ele><time>2026-04-12T11:23:22.999Z</time></trkpt><trkpt lat="44.7038417" lon="8.3466233"><ele>378.4</ele><time>2026-04-12T11:23:24.997Z</time></trkpt><trkpt lat="44.703765" lon="8.3464833"><ele>374.0</ele><time>2026-04-12T11:23:26.993Z</time></trkpt><trkpt lat="44.7037067" lon="8.3463967"><ele>373.75</ele><time>2026-04-12T11:23:27.994Z</time></trkpt><trkpt lat="44.7036383" lon="8.3462933"><ele>373.5</ele><time>2026-04-12T11:23:28.999Z</time></trkpt><trkpt lat="44.7035483" lon="8.3461233"><ele>373.25</ele><time>2026-04-12T11:23:29.996Z</time></trkpt><trkpt lat="44.70346" lon="8.345975"><ele>373.0</ele><time>2026-04-12T11:23:30.997Z</time></trkpt><trkpt lat="44.7033717" lon="8.3458333"><ele>373.0</ele><time>2026-04-12T11:23:31.999Z</time></trkpt><trkpt lat="44.7032833" lon="8.3457033"><ele>373.0</ele><time>2026-04-12T11:23:32.996Z</time></trkpt><trkpt lat="44.7032033" lon="8.3455917"><ele>373.0</ele><time>2026-04-12T11:23:33.997Z</time></trkpt><trkpt lat="44.7031217" lon="8.3455017"><ele>373.0</ele><time>2026-04-12T11:23:34.996Z</time></trkpt><trkpt lat="44.703025" lon="8.3454383"><ele>371.5</ele><time>2026-04-12T11:23:35.996Z</time></trkpt><trkpt lat="44.702905" lon="8.3453983"><ele>370.0</ele><time>2026-04-12T11:23:36.996Z</time></trkpt><trkpt lat="44.7027633" lon="8.3453733"><ele>368.5</ele><time>2026-04-12T11:23:37.993Z</time></trkpt><trkpt lat="44.7026" lon="8.3453567"><ele>367.0</ele><time>2026-04-12T11:23:39.003Z</time></trkpt><trkpt lat="44.70244" lon="8.34533"><ele>367.0</ele><time>2026-04-12T11:23:39.998Z</time></trkpt><trkpt lat="44.7023" lon="8.3453017"><ele>367.0</ele><time>2026-04-12T11:23:40.997Z</time></trkpt><trkpt lat="44.70216" lon="8.345275"><ele>367.0</ele><time>2026-04-12T11:23:41.995Z</time></trkpt><trkpt lat="44.70204" lon="8.34524"><ele>367.0</ele><time>2026-04-12T11:23:42.995Z</time></trkpt><trkpt lat="44.7019333" lon="8.3452133"><ele>367.5</ele><time>2026-04-12T11:23:44.001Z</time></trkpt><trkpt lat="44.7018283" lon="8.3452317"><ele>368.0</ele><time>2026-04-12T11:23:44.996Z</time></trkpt><trkpt lat="44.70173" lon="8.3453033"><ele>368.5</ele><time>2026-04-12T11:23:45.998Z</time></trkpt><trkpt lat="44.7016283" lon="8.3454167"><ele>369.0</ele><time>2026-04-12T11:23:46.997Z</time></trkpt><trkpt lat="44.7015083" lon="8.3455467"><ele>376.0</ele><time>2026-04-12T11:23:47.999Z</time></trkpt><trkpt lat="44.701385" lon="8.3456717"><ele>383.0</ele><time>2026-04-12T11:23:49.001Z</time></trkpt><trkpt lat="44.7012517" lon="8.3458167"><ele>390.0</ele><time>2026-04-12T11:23:50Z</time></trkpt><trkpt lat="44.701115" lon="8.3459717"><ele>386.3333333333333</ele><time>2026-04-12T11:23:50.995Z</time></trkpt><trkpt lat="44.70098" lon="8.3461233"><ele>382.66666666666663</ele><time>2026-04-12T11:23:51.996Z</time></trkpt><trkpt lat="44.70085" lon="8.34624"><ele>379.0</ele><time>2026-04-12T11:23:52.998Z</time></trkpt><trkpt lat="44.7007283" lon="8.3463383"><ele>383.5</ele><time>2026-04-12T11:23:53.997Z</time></trkpt><trkpt lat="44.70062" lon="8.3464333"><ele>388.0</ele><time>2026-04-12T11:23:54.999Z</time></trkpt><trkpt lat="44.7005233" lon="8.3465517"><ele>392.5</ele><time>2026-04-12T11:23:55.999Z</time></trkpt><trkpt lat="44.7004283" lon="8.3466933"><ele>397.0</ele><time>2026-04-12T11:23:56.997Z</time></trkpt><trkpt lat="44.7003333" lon="8.34682"><ele>392.33333333333337</ele><time>2026-04-12T11:23:57.999Z</time></trkpt><trkpt lat="44.7002133" lon="8.3469317"><ele>387.6666666666667</ele><time>2026-04-12T11:23:58.995Z</time></trkpt><trkpt lat="44.700065" lon="8.34702"><ele>383.0</ele><time>2026-04-12T11:24:00.003Z</time></trkpt><trkpt lat="44.6999183" lon="8.3471"><ele>383.0</ele><time>2026-04-12T11:24:00.997Z</time></trkpt><trkpt lat="44.6997533" lon="8.34716"><ele>383.0</ele><time>2026-04-12T11:24:01.998Z</time></trkpt><trkpt lat="44.6995817" lon="8.347205"><ele>383.0</ele><time>2026-04-12T11:24:02.999Z</time></trkpt><trkpt lat="44.6994017" lon="8.3472467"><ele>382.0</ele><time>2026-04-12T11:24:03.997Z</time></trkpt><trkpt lat="44.6992167" lon="8.3472867"><ele>381.0</ele><time>2026-04-12T11:24:04.999Z</time></trkpt><trkpt lat="44.6990317" lon="8.3473283"><ele>380.0</ele><time>2026-04-12T11:24:05.997Z</time></trkpt><trkpt lat="44.6988467" lon="8.3473783"><ele>380.0</ele><time>2026-04-12T11:24:07.003Z</time></trkpt><trkpt lat="44.6986683" lon="8.3474167"><ele>380.0</ele><time>2026-04-12T11:24:07.998Z</time></trkpt><trkpt lat="44.6984933" lon="8.3474433"><ele>380.0</ele><time>2026-04-12T11:24:08.998Z</time></trkpt><trkpt lat="44.6983217" lon="8.3474633"><ele>381.6666666666667</ele><time>2026-04-12T11:24:09.993Z</time></trkpt><trkpt lat="44.6981483" lon="8.3474783"><ele>383.33333333333337</ele><time>2026-04-12T11:24:10.996Z</time></trkpt><trkpt lat="44.6979667" lon="8.3474833"><ele>385.0</ele><time>2026-04-12T11:24:11.995Z</time></trkpt><trkpt lat="44.6977833" lon="8.3474833"><ele>385.0</ele><time>2026-04-12T11:24:12.995Z</time></trkpt><trkpt lat="44.6976" lon="8.34749"><ele>385.0</ele><time>2026-04-12T11:24:14.008Z</time></trkpt><trkpt lat="44.69742" lon="8.3475017"><ele>385.0</ele><time>2026-04-12T11:24:14.999Z</time></trkpt><trkpt lat="44.6972383" lon="8.34752"><ele>385.0</ele><time>2026-04-12T11:24:15.998Z</time></trkpt><trkpt lat="44.6970533" lon="8.3475183"><ele>385.0</ele><time>2026-04-12T11:24:17Z</time></trkpt><trkpt lat="44.6968683" lon="8.3475017"><ele>385.0</ele><time>2026-04-12T11:24:17.999Z</time></trkpt><trkpt lat="44.6966917" lon="8.34746"><ele>384.33333333333337</ele><time>2026-04-12T11:24:18.997Z</time></trkpt><trkpt lat="44.696525" lon="8.3474117"><ele>383.6666666666667</ele><time>2026-04-12T11:24:19.996Z</time></trkpt><trkpt lat="44.6963683" lon="8.3473683"><ele>383.0</ele><time>2026-04-12T11:24:20.999Z</time></trkpt><trkpt lat="44.6962367" lon="8.3473367"><ele>383.0</ele><time>2026-04-12T11:24:21.998Z</time></trkpt><trkpt lat="44.6961083" lon="8.347325"><ele>383.0</ele><time>2026-04-12T11:24:22.999Z</time></trkpt><trkpt lat="44.69599" lon="8.3473133"><ele>383.0</ele><time>2026-04-12T11:24:23.997Z</time></trkpt><trkpt lat="44.6958817" lon="8.3472633"><ele>383.0</ele><time>2026-04-12T11:24:25Z</time></trkpt><trkpt lat="44.695775" lon="8.3471867"><ele>382.6666666666667</ele><time>2026-04-12T11:24:26.002Z</time></trkpt><trkpt lat="44.6956567" lon="8.3470833"><ele>382.3333333333333</ele><time>2026-04-12T11:24:26.994Z</time></trkpt><trkpt lat="44.6955267" lon="8.3469667"><ele>382.0</ele><time>2026-04-12T11:24:27.995Z</time></trkpt><trkpt lat="44.69538" lon="8.3468367"><ele>387.0</ele><time>2026-04-12T11:24:28.995Z</time></trkpt><trkpt lat="44.69523" lon="8.3467067"><ele>392.0</ele><time>2026-04-12T11:24:29.995Z</time></trkpt><trkpt lat="44.6950833" lon="8.34658"><ele>397.0</ele><time>2026-04-12T11:24:30.995Z</time></trkpt><trkpt lat="44.6949433" lon="8.3464617"><ele>392.0</ele><time>2026-04-12T11:24:31.996Z</time></trkpt><trkpt lat="44.6948017" lon="8.3463617"><ele>387.0</ele><time>2026-04-12T11:24:32.996Z</time></trkpt><trkpt lat="44.694655" lon="8.346295"><ele>382.0</ele><time>2026-04-12T11:24:33.994Z</time></trkpt><trkpt lat="44.6945" lon="8.3462633"><ele>387.3333333333333</ele><time>2026-04-12T11:24:34.999Z</time></trkpt><trkpt lat="44.6943333" lon="8.3462483"><ele>392.66666666666663</ele><time>2026-04-12T11:24:35.995Z</time></trkpt><trkpt lat="44.6941633" lon="8.346245"><ele>398.0</ele><time>2026-04-12T11:24:36.994Z</time></trkpt><trkpt lat="44.6939933" lon="8.3462383"><ele>398.0</ele><time>2026-04-12T11:24:37.997Z</time></trkpt><trkpt lat="44.6938217" lon="8.346225"><ele>398.0</ele><time>2026-04-12T11:24:38.996Z</time></trkpt><trkpt lat="44.6936517" lon="8.3462183"><ele>398.0</ele><time>2026-04-12T11:24:39.994Z</time></trkpt><trkpt lat="44.6934867" lon="8.3461983"><ele>401.25</ele><time>2026-04-12T11:24:40.995Z</time></trkpt><trkpt lat="44.69334" lon="8.3461667"><ele>404.5</ele><time>2026-04-12T11:24:41.993Z</time></trkpt><trkpt lat="44.6932083" lon="8.346125"><ele>407.75</ele><time>2026-04-12T11:24:42.996Z</time></trkpt><trkpt lat="44.6930933" lon="8.3460617"><ele>411.0</ele><time>2026-04-12T11:24:43.997Z</time></trkpt><trkpt lat="44.693" lon="8.3459683"><ele>411.0</ele><time>2026-04-12T11:24:44.997Z</time></trkpt><trkpt lat="44.6929183" lon="8.3458433"><ele>411.0</ele><time>2026-04-12T11:24:45.997Z</time></trkpt><trkpt lat="44.6928517" lon="8.3457033"><ele>411.0</ele><time>2026-04-12T11:24:46.995Z</time></trkpt><trkpt lat="44.6927983" lon="8.34556"><ele>411.0</ele><time>2026-04-12T11:24:47.995Z</time></trkpt><trkpt lat="44.6927483" lon="8.3454183"><ele>411.8333333333333</ele><time>2026-04-12T11:24:49Z</time></trkpt><trkpt lat="44.6927017" lon="8.3453017"><ele>412.66666666666663</ele><time>2026-04-12T11:24:49.997Z</time></trkpt><trkpt lat="44.6926483" lon="8.3452117"><ele>413.5</ele><time>2026-04-12T11:24:50.997Z</time></trkpt><trkpt lat="44.6925883" lon="8.34514"><ele>414.3333333333333</ele><time>2026-04-12T11:24:51.996Z</time></trkpt><trkpt lat="44.692495" lon="8.3451617"><ele>415.16666666666663</ele><time>2026-04-12T11:24:52.993Z</time></trkpt><trkpt lat="44.692405" lon="8.3452033"><ele>416.0</ele><time>2026-04-12T11:24:53.996Z</time></trkpt><trkpt lat="44.6922917" lon="8.3452617"><ele>416.0</ele><time>2026-04-12T11:24:54.999Z</time></trkpt><trkpt lat="44.6921617" lon="8.34532"><ele>416.0</ele><time>2026-04-12T11:24:55.996Z</time></trkpt><trkpt lat="44.6920233" lon="8.3453583"><ele>416.0</ele><time>2026-04-12T11:24:56.998Z</time></trkpt><trkpt lat="44.691885" lon="8.3453817"><ele>416.0</ele><time>2026-04-12T11:24:57.992Z</time></trkpt><trkpt lat="44.691755" lon="8.3453817"><ele>417.25</ele><time>2026-04-12T11:24:59.003Z</time></trkpt><trkpt lat="44.6916317" lon="8.3453633"><ele>418.5</ele><time>2026-04-12T11:24:59.993Z</time></trkpt><trkpt lat="44.6915133" lon="8.345315"><ele>419.75</ele><time>2026-04-12T11:25:01Z</time></trkpt><trkpt lat="44.6914083" lon="8.3452383"><ele>421.0</ele><time>2026-04-12T11:25:01.993Z</time></trkpt><trkpt lat="44.6913183" lon="8.3451317"><ele>421.0</ele><time>2026-04-12T11:25:02.995Z</time></trkpt><trkpt lat="44.69122" lon="8.3450217"><ele>421.0</ele><time>2026-04-12T11:25:03.997Z</time></trkpt><trkpt lat="44.691115" lon="8.344925"><ele>421.0</ele><time>2026-04-12T11:25:04.996Z</time></trkpt><trkpt lat="44.6910033" lon="8.344855"><ele>421.0</ele><time>2026-04-12T11:25:06Z</time></trkpt><trkpt lat="44.6908667" lon="8.3448217"><ele>424.0</ele><time>2026-04-12T11:25:07Z</time></trkpt><trkpt lat="44.69072" lon="8.3447983"><ele>427.0</ele><time>2026-04-12T11:25:07.996Z</time></trkpt><trkpt lat="44.690565" lon="8.3447717"><ele>430.0</ele><time>2026-04-12T11:25:08.993Z</time></trkpt><trkpt lat="44.6904067" lon="8.3447467"><ele>427.5</ele><time>2026-04-12T11:25:09.995Z</time></trkpt><trkpt lat="44.6902533" lon="8.3447117"><ele>425.0</ele><time>2026-04-12T11:25:10.996Z</time></trkpt><trkpt lat="44.69011" lon="8.3446817"><ele>422.5</ele><time>2026-04-12T11:25:11.996Z</time></trkpt><trkpt lat="44.6899733" lon="8.3446083"><ele>420.0</ele><time>2026-04-12T11:25:12.999Z</time></trkpt><trkpt lat="44.6898467" lon="8.3445167"><ele>420.0</ele><time>2026-04-12T11:25:13.995Z</time></trkpt><trkpt lat="44.6897317" lon="8.3443867"><ele>420.0</ele><time>2026-04-12T11:25:14.995Z</time></trkpt><trkpt lat="44.6896233" lon="8.34423"><ele>420.0</ele><time>2026-04-12T11:25:16.001Z</time></trkpt><trkpt lat="44.6895117" lon="8.3440633"><ele>423.0</ele><time>2026-04-12T11:25:16.993Z</time></trkpt><trkpt lat="44.6893967" lon="8.3438917"><ele>426.0</ele><time>2026-04-12T11:25:17.994Z</time></trkpt><trkpt lat="44.6892733" lon="8.343705"><ele>429.0</ele><time>2026-04-12T11:25:18.995Z</time></trkpt><trkpt lat="44.6891633" lon="8.3435117"><ele>429.0</ele><time>2026-04-12T11:25:19.997Z</time></trkpt><trkpt lat="44.6890733" lon="8.34332"><ele>429.0</ele><time>2026-04-12T11:25:20.996Z</time></trkpt><trkpt lat="44.6889883" lon="8.34313"><ele>429.0</ele><time>2026-04-12T11:25:21.996Z</time></trkpt><trkpt lat="44.688915" lon="8.342945"><ele>429.5</ele><time>2026-04-12T11:25:22.996Z</time></trkpt><trkpt lat="44.6888433" lon="8.342765"><ele>430.0</ele><time>2026-04-12T11:25:23.996Z</time></trkpt><trkpt lat="44.6887567" lon="8.342595"><ele>430.5</ele><time>2026-04-12T11:25:24.999Z</time></trkpt><trkpt lat="44.6886533" lon="8.3424483"><ele>431.0</ele><time>2026-04-12T11:25:25.997Z</time></trkpt><trkpt lat="44.68852" lon="8.3423317"><ele>429.3333333333333</ele><time>2026-04-12T11:25:26.999Z</time></trkpt><trkpt lat="44.6883733" lon="8.3422433"><ele>427.66666666666663</ele><time>2026-04-12T11:25:28Z</time></trkpt><trkpt lat="44.688215" lon="8.3421667"><ele>426.0</ele><time>2026-04-12T11:25:28.995Z</time></trkpt><trkpt lat="44.6880517" lon="8.3421033"><ele>429.0</ele><time>2026-04-12T11:25:29.996Z</time></trkpt><trkpt lat="44.687885" lon="8.342065"><ele>432.0</ele><time>2026-04-12T11:25:31.001Z</time></trkpt><trkpt lat="44.6877083" lon="8.34204"><ele>435.0</ele><time>2026-04-12T11:25:32Z</time></trkpt><trkpt lat="44.687525" lon="8.3420217"><ele>435.0</ele><time>2026-04-12T11:25:33Z</time></trkpt><trkpt lat="44.6873433" lon="8.3420017"><ele>435.0</ele><time>2026-04-12T11:25:33.992Z</time></trkpt><trkpt lat="44.68716" lon="8.3420033"><ele>435.0</ele><time>2026-04-12T11:25:34.992Z</time></trkpt><trkpt lat="44.68698" lon="8.34202"><ele>430.33333333333337</ele><time>2026-04-12T11:25:35.994Z</time></trkpt><trkpt lat="44.686805" lon="8.342045"><ele>425.6666666666667</ele><time>2026-04-12T11:25:36.996Z</time></trkpt><trkpt lat="44.6866283" lon="8.3420733"><ele>421.0</ele><time>2026-04-12T11:25:37.998Z</time></trkpt><trkpt lat="44.6864567" lon="8.34211"><ele>421.0</ele><time>2026-04-12T11:25:38.991Z</time></trkpt><trkpt lat="44.6862883" lon="8.3421583"><ele>421.0</ele><time>2026-04-12T11:25:39.994Z</time></trkpt><trkpt lat="44.686125" lon="8.3422217"><ele>421.0</ele><time>2026-04-12T11:25:40.992Z</time></trkpt><trkpt lat="44.685965" lon="8.3423"><ele>420.33333333333337</ele><time>2026-04-12T11:25:41.997Z</time></trkpt><trkpt lat="44.6858067" lon="8.342385"><ele>419.66666666666663</ele><time>2026-04-12T11:25:42.999Z</time></trkpt><trkpt lat="44.685645" lon="8.3424617"><ele>419.0</ele><time>2026-04-12T11:25:43.993Z</time></trkpt><trkpt lat="44.6854883" lon="8.34254"><ele>419.0</ele><time>2026-04-12T11:25:45.001Z</time></trkpt><trkpt lat="44.68533" lon="8.3426117"><ele>419.0</ele><time>2026-04-12T11:25:46.002Z</time></trkpt><trkpt lat="44.6851833" lon="8.3426767"><ele>419.0</ele><time>2026-04-12T11:25:46.993Z</time></trkpt><trkpt lat="44.685055" lon="8.342725"><ele>419.5</ele><time>2026-04-12T11:25:47.996Z</time></trkpt><trkpt lat="44.684935" lon="8.3427533"><ele>420.0</ele><time>2026-04-12T11:25:48.995Z</time></trkpt><trkpt lat="44.6848117" lon="8.342745"><ele>420.5</ele><time>2026-04-12T11:25:49.996Z</time></trkpt><trkpt lat="44.6846917" lon="8.3427017"><ele>421.0</ele><time>2026-04-12T11:25:50.997Z</time></trkpt><trkpt lat="44.6845633" lon="8.3426283"><ele>421.0</ele><time>2026-04-12T11:25:51.996Z</time></trkpt><trkpt lat="44.6844333" lon="8.34253"><ele>421.0</ele><time>2026-04-12T11:25:52.993Z</time></trkpt><trkpt lat="44.6843017" lon="8.3424267"><ele>421.0</ele><time>2026-04-12T11:25:53.996Z</time></trkpt><trkpt lat="44.6841717" lon="8.342315"><ele>419.5</ele><time>2026-04-12T11:25:55Z</time></trkpt><trkpt lat="44.6840467" lon="8.34221"><ele>418.0</ele><time>2026-04-12T11:25:55.994Z</time></trkpt><trkpt lat="44.68393" lon="8.342105"><ele>416.5</ele><time>2026-04-12T11:25:56.994Z</time></trkpt><trkpt lat="44.6838217" lon="8.3419867"><ele>415.0</ele><time>2026-04-12T11:25:57.993Z</time></trkpt><trkpt lat="44.6837417" lon="8.34184"><ele>415.0</ele><time>2026-04-12T11:25:58.999Z</time></trkpt><trkpt lat="44.68367" lon="8.3416717"><ele>415.0</ele><time>2026-04-12T11:25:59.992Z</time></trkpt><trkpt lat="44.6836117" lon="8.3414967"><ele>415.0</ele><time>2026-04-12T11:26:00.994Z</time></trkpt><trkpt lat="44.6835533" lon="8.34133"><ele>415.0</ele><time>2026-04-12T11:26:01.994Z</time></trkpt><trkpt lat="44.683485" lon="8.3411783"><ele>416.25</ele><time>2026-04-12T11:26:02.993Z</time></trkpt><trkpt lat="44.68341" lon="8.3410383"><ele>417.5</ele><time>2026-04-12T11:26:04.001Z</time></trkpt><trkpt lat="44.683315" lon="8.3409383"><ele>418.75</ele><time>2026-04-12T11:26:04.992Z</time></trkpt><trkpt lat="44.6832" lon="8.3408833"><ele>420.0</ele><time>2026-04-12T11:26:05.997Z</time></trkpt><trkpt lat="44.6830633" lon="8.3408683"><ele>420.0</ele><time>2026-04-12T11:26:06.995Z</time></trkpt><trkpt lat="44.682915" lon="8.340875"><ele>420.0</ele><time>2026-04-12T11:26:08.001Z</time></trkpt><trkpt lat="44.6827617" lon="8.3408783"><ele>420.0</ele><time>2026-04-12T11:26:08.998Z</time></trkpt><trkpt lat="44.6826033" lon="8.3408783"><ele>421.66666666666663</ele><time>2026-04-12T11:26:09.996Z</time></trkpt><trkpt lat="44.6824433" lon="8.3408667"><ele>423.3333333333333</ele><time>2026-04-12T11:26:10.998Z</time></trkpt><trkpt lat="44.6822833" lon="8.3408333"><ele>425.0</ele><time>2026-04-12T11:26:11.999Z</time></trkpt><trkpt lat="44.6821283" lon="8.3407717"><ele>425.0</ele><time>2026-04-12T11:26:12.998Z</time></trkpt><trkpt lat="44.6819817" lon="8.3406817"><ele>425.0</ele><time>2026-04-12T11:26:13.994Z</time></trkpt><trkpt lat="44.6818533" lon="8.34057"><ele>425.0</ele><time>2026-04-12T11:26:14.995Z</time></trkpt><trkpt lat="44.6817367" lon="8.34046"><ele>423.8</ele><time>2026-04-12T11:26:15.996Z</time></trkpt><trkpt lat="44.681645" lon="8.34036"><ele>422.6</ele><time>2026-04-12T11:26:16.995Z</time></trkpt><trkpt lat="44.6815533" lon="8.34029"><ele>421.4</ele><time>2026-04-12T11:26:17.995Z</time></trkpt><trkpt lat="44.6814583" lon="8.3402533"><ele>420.2</ele><time>2026-04-12T11:26:18.996Z</time></trkpt><trkpt lat="44.6813583" lon="8.340245"><ele>419.0</ele><time>2026-04-12T11:26:19.995Z</time></trkpt><trkpt lat="44.6812533" lon="8.340265"><ele>419.0</ele><time>2026-04-12T11:26:20.999Z</time></trkpt><trkpt lat="44.6811533" lon="8.3403217"><ele>419.0</ele><time>2026-04-12T11:26:21.996Z</time></trkpt><trkpt lat="44.6810617" lon="8.340425"><ele>419.0</ele><time>2026-04-12T11:26:22.99Z</time></trkpt><trkpt lat="44.680975" lon="8.340545"><ele>419.0</ele><time>2026-04-12T11:26:23.997Z</time></trkpt><trkpt lat="44.6808717" lon="8.340645"><ele>420.75</ele><time>2026-04-12T11:26:24.999Z</time></trkpt><trkpt lat="44.6807633" lon="8.3407317"><ele>422.5</ele><time>2026-04-12T11:26:25.992Z</time></trkpt><trkpt lat="44.6806433" lon="8.3407733"><ele>424.25</ele><time>2026-04-12T11:26:27.003Z</time></trkpt><trkpt lat="44.6805117" lon="8.3407817"><ele>426.0</ele><time>2026-04-12T11:26:27.992Z</time></trkpt><trkpt lat="44.6803717" lon="8.3407683"><ele>425.5</ele><time>2026-04-12T11:26:28.998Z</time></trkpt><trkpt lat="44.6802317" lon="8.3407583"><ele>425.0</ele><time>2026-04-12T11:26:29.995Z</time></trkpt><trkpt lat="44.6800933" lon="8.340735"><ele>424.5</ele><time>2026-04-12T11:26:30.994Z</time></trkpt><trkpt lat="44.6799533" lon="8.34068"><ele>424.0</ele><time>2026-04-12T11:26:31.997Z</time></trkpt><trkpt lat="44.679805" lon="8.340605"><ele>420.33333333333337</ele><time>2026-04-12T11:26:32.996Z</time></trkpt><trkpt lat="44.6796583" lon="8.3405"><ele>416.66666666666663</ele><time>2026-04-12T11:26:33.993Z</time></trkpt><trkpt lat="44.6795117" lon="8.3403967"><ele>413.0</ele><time>2026-04-12T11:26:34.993Z</time></trkpt><trkpt lat="44.67936" lon="8.34029"><ele>413.0</ele><time>2026-04-12T11:26:35.998Z</time></trkpt><trkpt lat="44.679205" lon="8.3401783"><ele>413.0</ele><time>2026-04-12T11:26:36.997Z</time></trkpt><trkpt lat="44.67905" lon="8.34006"><ele>413.0</ele><time>2026-04-12T11:26:37.995Z</time></trkpt><trkpt lat="44.6788933" lon="8.3399383"><ele>413.0</ele><time>2026-04-12T11:26:38.994Z</time></trkpt><trkpt lat="44.6787383" lon="8.3398217"><ele>413.0</ele><time>2026-04-12T11:26:40Z</time></trkpt><trkpt lat="44.6785883" lon="8.3397167"><ele>413.0</ele><time>2026-04-12T11:26:40.993Z</time></trkpt><trkpt lat="44.6784417" lon="8.3396133"><ele>410.0</ele><time>2026-04-12T11:26:42.002Z</time></trkpt><trkpt lat="44.6782967" lon="8.3395167"><ele>407.0</ele><time>2026-04-12T11:26:42.997Z</time></trkpt><trkpt lat="44.67815" lon="8.3394367"><ele>404.0</ele><time>2026-04-12T11:26:43.992Z</time></trkpt><trkpt lat="44.6780133" lon="8.33938"><ele>404.0</ele><time>2026-04-12T11:26:44.997Z</time></trkpt><trkpt lat="44.6778867" lon="8.3393383"><ele>404.0</ele><time>2026-04-12T11:26:45.996Z</time></trkpt><trkpt lat="44.6777683" lon="8.3392783"><ele>404.0</ele><time>2026-04-12T11:26:46.998Z</time></trkpt><trkpt lat="44.6776517" lon="8.3391917"><ele>404.0</ele><time>2026-04-12T11:26:47.996Z</time></trkpt><trkpt lat="44.6775567" lon="8.339095"><ele>403.5</ele><time>2026-04-12T11:26:48.994Z</time></trkpt><trkpt lat="44.67746" lon="8.3390067"><ele>403.0</ele><time>2026-04-12T11:26:49.993Z</time></trkpt><trkpt lat="44.6773833" lon="8.3388933"><ele>402.5</ele><time>2026-04-12T11:26:50.992Z</time></trkpt><trkpt lat="44.677335" lon="8.3387417"><ele>402.0</ele><time>2026-04-12T11:26:51.995Z</time></trkpt><trkpt lat="44.6772683" lon="8.338585"><ele>402.0</ele><time>2026-04-12T11:26:52.997Z</time></trkpt><trkpt lat="44.6771867" lon="8.33843"><ele>402.0</ele><time>2026-04-12T11:26:53.994Z</time></trkpt><trkpt lat="44.677105" lon="8.3382817"><ele>402.0</ele><time>2026-04-12T11:26:54.998Z</time></trkpt><trkpt lat="44.6770283" lon="8.338115"><ele>402.0</ele><time>2026-04-12T11:26:55.993Z</time></trkpt><trkpt lat="44.6769683" lon="8.3379417"><ele>397.75</ele><time>2026-04-12T11:26:57Z</time></trkpt><trkpt lat="44.6769183" lon="8.3377567"><ele>393.5</ele><time>2026-04-12T11:26:57.997Z</time></trkpt><trkpt lat="44.67686" lon="8.33757"><ele>389.25</ele><time>2026-04-12T11:26:58.994Z</time></trkpt><trkpt lat="44.6768083" lon="8.3373917"><ele>385.0</ele><time>2026-04-12T11:27:00.007Z</time></trkpt><trkpt lat="44.6767533" lon="8.3372367"><ele>385.5</ele><time>2026-04-12T11:27:01.001Z</time></trkpt><trkpt lat="44.6766767" lon="8.3371033"><ele>386.0</ele><time>2026-04-12T11:27:01.999Z</time></trkpt><trkpt lat="44.6765783" lon="8.3369883"><ele>386.5</ele><time>2026-04-12T11:27:02.999Z</time></trkpt><trkpt lat="44.676465" lon="8.3368767"><ele>387.0</ele><time>2026-04-12T11:27:03.997Z</time></trkpt><trkpt lat="44.67635" lon="8.33676"><ele>387.0</ele><time>2026-04-12T11:27:05.004Z</time></trkpt><trkpt lat="44.6762333" lon="8.3366517"><ele>387.0</ele><time>2026-04-12T11:27:05.996Z</time></trkpt><trkpt lat="44.67613" lon="8.336535"><ele>387.0</ele><time>2026-04-12T11:27:07.003Z</time></trkpt><trkpt lat="44.67604" lon="8.3364217"><ele>387.0</ele><time>2026-04-12T11:27:08.004Z</time></trkpt><trkpt lat="44.675975" lon="8.3363233"><ele>387.0</ele><time>2026-04-12T11:27:08.999Z</time></trkpt><trkpt lat="44.6759133" lon="8.33626"><ele>387.0</ele><time>2026-04-12T11:27:09.997Z</time></trkpt><trkpt lat="44.6758067" lon="8.33627"><ele>387.0</ele><time>2026-04-12T11:27:11.999Z</time></trkpt><trkpt lat="44.6757817" lon="8.336415"><ele>387.0</ele><time>2026-04-12T11:27:13.996Z</time></trkpt><trkpt lat="44.6758483" lon="8.336495"><ele>387.0</ele><time>2026-04-12T11:27:14.998Z</time></trkpt><trkpt lat="44.675915" lon="8.3365733"><ele>387.0</ele><time>2026-04-12T11:27:15.993Z</time></trkpt><trkpt lat="44.675995" lon="8.3366717"><ele>387.0</ele><time>2026-04-12T11:27:17Z</time></trkpt><trkpt lat="44.6760833" lon="8.3368017"><ele>387.0</ele><time>2026-04-12T11:27:17.999Z</time></trkpt><trkpt lat="44.6761633" lon="8.336955"><ele>387.0</ele><time>2026-04-12T11:27:18.996Z</time></trkpt><trkpt lat="44.6762317" lon="8.33713"><ele>386.5</ele><time>2026-04-12T11:27:19.994Z</time></trkpt><trkpt lat="44.676295" lon="8.3373117"><ele>386.0</ele><time>2026-04-12T11:27:20.997Z</time></trkpt><trkpt lat="44.67635" lon="8.337505"><ele>385.5</ele><time>2026-04-12T11:27:21.993Z</time></trkpt><trkpt lat="44.6764067" lon="8.3377017"><ele>385.0</ele><time>2026-04-12T11:27:22.994Z</time></trkpt><trkpt lat="44.67646" lon="8.3379017"><ele>381.33333333333337</ele><time>2026-04-12T11:27:23.994Z</time></trkpt><trkpt lat="44.67652" lon="8.3381017"><ele>377.6666666666667</ele><time>2026-04-12T11:27:24.996Z</time></trkpt><trkpt lat="44.6765833" lon="8.3382983"><ele>374.0</ele><time>2026-04-12T11:27:25.995Z</time></trkpt><trkpt lat="44.6766383" lon="8.338495"><ele>374.0</ele><time>2026-04-12T11:27:26.995Z</time></trkpt><trkpt lat="44.6766917" lon="8.33869"><ele>374.0</ele><time>2026-04-12T11:27:27.993Z</time></trkpt><trkpt lat="44.6767267" lon="8.3388667"><ele>374.0</ele><time>2026-04-12T11:27:28.994Z</time></trkpt><trkpt lat="44.6767483" lon="8.3390333"><ele>374.0</ele><time>2026-04-12T11:27:29.996Z</time></trkpt><trkpt lat="44.6767433" lon="8.3391917"><ele>372.25</ele><time>2026-04-12T11:27:30.992Z</time></trkpt><trkpt lat="44.6767067" lon="8.3393283"><ele>370.5</ele><time>2026-04-12T11:27:31.992Z</time></trkpt><trkpt lat="44.6766233" lon="8.3394583"><ele>368.75</ele><time>2026-04-12T11:27:32.997Z</time></trkpt><trkpt lat="44.6765233" lon="8.3395583"><ele>367.0</ele><time>2026-04-12T11:27:33.999Z</time></trkpt><trkpt lat="44.67642" lon="8.3396517"><ele>368.20000000000005</ele><time>2026-04-12T11:27:34.996Z</time></trkpt><trkpt lat="44.67633" lon="8.3397367"><ele>369.4</ele><time>2026-04-12T11:27:35.997Z</time></trkpt><trkpt lat="44.6762433" lon="8.3398"><ele>370.6</ele><time>2026-04-12T11:27:36.997Z</time></trkpt><trkpt lat="44.6761583" lon="8.3398417"><ele>371.79999999999995</ele><time>2026-04-12T11:27:37.997Z</time></trkpt><trkpt lat="44.67606" lon="8.3398317"><ele>373.0</ele><time>2026-04-12T11:27:38.993Z</time></trkpt><trkpt lat="44.675985" lon="8.3397817"><ele>369.25</ele><time>2026-04-12T11:27:39.994Z</time></trkpt><trkpt lat="44.6759133" lon="8.339695"><ele>365.5</ele><time>2026-04-12T11:27:40.998Z</time></trkpt><trkpt lat="44.67585" lon="8.3395617"><ele>361.75</ele><time>2026-04-12T11:27:41.998Z</time></trkpt><trkpt lat="44.6758117" lon="8.33936"><ele>358.0</ele><time>2026-04-12T11:27:42.994Z</time></trkpt><trkpt lat="44.6757683" lon="8.3391733"><ele>358.0</ele><time>2026-04-12T11:27:43.997Z</time></trkpt><trkpt lat="44.67572" lon="8.3390017"><ele>358.0</ele><time>2026-04-12T11:27:44.997Z</time></trkpt><trkpt lat="44.675665" lon="8.3388583"><ele>358.0</ele><time>2026-04-12T11:27:45.995Z</time></trkpt><trkpt lat="44.6756083" lon="8.3387617"><ele>358.0</ele><time>2026-04-12T11:27:46.996Z</time></trkpt><trkpt lat="44.6755367" lon="8.3387083"><ele>358.0</ele><time>2026-04-12T11:27:47.994Z</time></trkpt><trkpt lat="44.6754567" lon="8.3386867"><ele>355.79999999999995</ele><time>2026-04-12T11:27:48.996Z</time></trkpt><trkpt lat="44.6753683" lon="8.3386933"><ele>353.6</ele><time>2026-04-12T11:27:49.999Z</time></trkpt><trkpt lat="44.6752717" lon="8.3387367"><ele>351.4</ele><time>2026-04-12T11:27:51Z</time></trkpt><trkpt lat="44.6751633" lon="8.3387817"><ele>349.20000000000005</ele><time>2026-04-12T11:27:51.992Z</time></trkpt><trkpt lat="44.6750567" lon="8.3387767"><ele>347.0</ele><time>2026-04-12T11:27:53Z</time></trkpt><trkpt lat="44.6749333" lon="8.338755"><ele>345.75</ele><time>2026-04-12T11:27:53.995Z</time></trkpt><trkpt lat="44.6748233" lon="8.3386917"><ele>344.5</ele><time>2026-04-12T11:27:55.003Z</time></trkpt><trkpt lat="44.674725" lon="8.3385733"><ele>343.25</ele><time>2026-04-12T11:27:55.992Z</time></trkpt><trkpt lat="44.6746317" lon="8.3384133"><ele>342.0</ele><time>2026-04-12T11:27:56.997Z</time></trkpt><trkpt lat="44.6745417" lon="8.3382467"><ele>342.0</ele><time>2026-04-12T11:27:57.997Z</time></trkpt><trkpt lat="44.6744633" lon="8.338085"><ele>342.0</ele><time>2026-04-12T11:27:58.994Z</time></trkpt><trkpt lat="44.6743883" lon="8.33795"><ele>342.0</ele><time>2026-04-12T11:27:59.997Z</time></trkpt><trkpt lat="44.674325" lon="8.33783"><ele>342.0</ele><time>2026-04-12T11:28:00.993Z</time></trkpt><trkpt lat="44.6742433" lon="8.3377333"><ele>341.0</ele><time>2026-04-12T11:28:01.996Z</time></trkpt><trkpt lat="44.6741483" lon="8.337675"><ele>340.0</ele><time>2026-04-12T11:28:02.994Z</time></trkpt><trkpt lat="44.67403" lon="8.3376367"><ele>339.0</ele><time>2026-04-12T11:28:03.997Z</time></trkpt><trkpt lat="44.67389" lon="8.337605"><ele>338.0</ele><time>2026-04-12T11:28:04.998Z</time></trkpt><trkpt lat="44.6737633" lon="8.33755"><ele>338.0</ele><time>2026-04-12T11:28:05.994Z</time></trkpt><trkpt lat="44.6736433" lon="8.337485"><ele>338.0</ele><time>2026-04-12T11:28:07.004Z</time></trkpt><trkpt lat="44.6735183" lon="8.3374233"><ele>338.0</ele><time>2026-04-12T11:28:07.997Z</time></trkpt><trkpt lat="44.6733783" lon="8.3374067"><ele>338.0</ele><time>2026-04-12T11:28:08.996Z</time></trkpt><trkpt lat="44.6732467" lon="8.3374167"><ele>337.75</ele><time>2026-04-12T11:28:09.991Z</time></trkpt><trkpt lat="44.6731067" lon="8.33744"><ele>337.5</ele><time>2026-04-12T11:28:10.995Z</time></trkpt><trkpt lat="44.67295" lon="8.337445"><ele>337.25</ele><time>2026-04-12T11:28:11.997Z</time></trkpt><trkpt lat="44.6728033" lon="8.33742"><ele>337.0</ele><time>2026-04-12T11:28:12.995Z</time></trkpt><trkpt lat="44.6726617" lon="8.3373717"><ele>337.0</ele><time>2026-04-12T11:28:13.997Z</time></trkpt><trkpt lat="44.6725267" lon="8.337305"><ele>337.0</ele><time>2026-04-12T11:28:14.997Z</time></trkpt><trkpt lat="44.6724083" lon="8.3372133"><ele>337.0</ele><time>2026-04-12T11:28:15.999Z</time></trkpt><trkpt lat="44.6722833" lon="8.3371117"><ele>337.0</ele><time>2026-04-12T11:28:16.996Z</time></trkpt><trkpt lat="44.6721517" lon="8.3370217"><ele>333.0</ele><time>2026-04-12T11:28:17.996Z</time></trkpt><trkpt lat="44.67201" lon="8.33695"><ele>329.0</ele><time>2026-04-12T11:28:18.996Z</time></trkpt><trkpt lat="44.6718667" lon="8.3369033"><ele>325.0</ele><time>2026-04-12T11:28:19.995Z</time></trkpt><trkpt lat="44.6717183" lon="8.3368733"><ele>321.0</ele><time>2026-04-12T11:28:20.994Z</time></trkpt><trkpt lat="44.671585" lon="8.3368617"><ele>321.0</ele><time>2026-04-12T11:28:21.997Z</time></trkpt><trkpt lat="44.6714733" lon="8.3368733"><ele>321.0</ele><time>2026-04-12T11:28:22.996Z</time></trkpt><trkpt lat="44.6713767" lon="8.336915"><ele>321.0</ele><time>2026-04-12T11:28:23.996Z</time></trkpt><trkpt lat="44.6712817" lon="8.33698"><ele>321.0</ele><time>2026-04-12T11:28:24.998Z</time></trkpt><trkpt lat="44.6711867" lon="8.3370483"><ele>321.0</ele><time>2026-04-12T11:28:25.993Z</time></trkpt><trkpt lat="44.67109" lon="8.33712"><ele>320.8</ele><time>2026-04-12T11:28:26.998Z</time></trkpt><trkpt lat="44.6709883" lon="8.337195"><ele>320.6</ele><time>2026-04-12T11:28:27.998Z</time></trkpt><trkpt lat="44.67089" lon="8.3372783"><ele>320.4</ele><time>2026-04-12T11:28:29.001Z</time></trkpt><trkpt lat="44.670795" lon="8.337355"><ele>320.2</ele><time>2026-04-12T11:28:29.998Z</time></trkpt><trkpt lat="44.6707033" lon="8.3374233"><ele>320.0</ele><time>2026-04-12T11:28:30.996Z</time></trkpt><trkpt lat="44.6706067" lon="8.3374633"><ele>320.33333333333337</ele><time>2026-04-12T11:28:31.998Z</time></trkpt><trkpt lat="44.6705267" lon="8.3374883"><ele>320.6666666666667</ele><time>2026-04-12T11:28:32.997Z</time></trkpt><trkpt lat="44.6704467" lon="8.3375033"><ele>321.0</ele><time>2026-04-12T11:28:33.998Z</time></trkpt><trkpt lat="44.670365" lon="8.3375233"><ele>321.3333333333333</ele><time>2026-04-12T11:28:34.998Z</time></trkpt><trkpt lat="44.670295" lon="8.3374817"><ele>321.66666666666663</ele><time>2026-04-12T11:28:35.995Z</time></trkpt><trkpt lat="44.670225" lon="8.3374217"><ele>322.0</ele><time>2026-04-12T11:28:36.999Z</time></trkpt><trkpt lat="44.6701467" lon="8.3373417"><ele>322.0</ele><time>2026-04-12T11:28:38Z</time></trkpt><trkpt lat="44.670075" lon="8.337275"><ele>322.0</ele><time>2026-04-12T11:28:38.995Z</time></trkpt><trkpt lat="44.6700033" lon="8.3372233"><ele>322.0</ele><time>2026-04-12T11:28:39.993Z</time></trkpt><trkpt lat="44.6699367" lon="8.3371617"><ele>322.0</ele><time>2026-04-12T11:28:41.001Z</time></trkpt><trkpt lat="44.669875" lon="8.3371167"><ele>322.0</ele><time>2026-04-12T11:28:41.999Z</time></trkpt><trkpt lat="44.669815" lon="8.3370767"><ele>322.0</ele><time>2026-04-12T11:28:42.996Z</time></trkpt><trkpt lat="44.6697333" lon="8.3370017"><ele>321.0</ele><time>2026-04-12T11:28:44.995Z</time></trkpt><trkpt lat="44.6696517" lon="8.3369567"><ele>320.0</ele><time>2026-04-12T11:28:46.996Z</time></trkpt><trkpt lat="44.6695617" lon="8.3369467"><ele>319.0</ele><time>2026-04-12T11:28:48.999Z</time></trkpt><trkpt lat="44.6694467" lon="8.3370983"><ele>318.0</ele><time>2026-04-12T11:28:50.996Z</time></trkpt><trkpt lat="44.6693783" lon="8.3371933"><ele>317.0</ele><time>2026-04-12T11:28:51.997Z</time></trkpt><trkpt lat="44.6692917" lon="8.3372933"><ele>316.8</ele><time>2026-04-12T11:28:52.994Z</time></trkpt><trkpt lat="44.6692083" lon="8.3373833"><ele>316.6</ele><time>2026-04-12T11:28:53.999Z</time></trkpt><trkpt lat="44.6691167" lon="8.33746"><ele>316.40000000000003</ele><time>2026-04-12T11:28:54.998Z</time></trkpt><trkpt lat="44.6690233" lon="8.3375333"><ele>316.2</ele><time>2026-04-12T11:28:55.996Z</time></trkpt><trkpt lat="44.6689167" lon="8.33761"><ele>316.0</ele><time>2026-04-12T11:28:56.997Z</time></trkpt><trkpt lat="44.6688133" lon="8.3376817"><ele>316.0</ele><time>2026-04-12T11:28:58.002Z</time></trkpt><trkpt lat="44.6687117" lon="8.3377483"><ele>316.0</ele><time>2026-04-12T11:28:58.997Z</time></trkpt><trkpt lat="44.6686083" lon="8.3378117"><ele>316.0</ele><time>2026-04-12T11:29:00.005Z</time></trkpt><trkpt lat="44.668505" lon="8.3378767"><ele>316.0</ele><time>2026-04-12T11:29:00.994Z</time></trkpt><trkpt lat="44.6684083" lon="8.3379517"><ele>316.0</ele><time>2026-04-12T11:29:01.996Z</time></trkpt><trkpt lat="44.6683083" lon="8.3380183"><ele>314.5</ele><time>2026-04-12T11:29:02.999Z</time></trkpt><trkpt lat="44.6682017" lon="8.33809"><ele>313.0</ele><time>2026-04-12T11:29:03.993Z</time></trkpt><trkpt lat="44.6680983" lon="8.3381667"><ele>311.5</ele><time>2026-04-12T11:29:04.997Z</time></trkpt><trkpt lat="44.6680017" lon="8.3382567"><ele>310.0</ele><time>2026-04-12T11:29:05.995Z</time></trkpt><trkpt lat="44.6678917" lon="8.3383133"><ele>310.0</ele><time>2026-04-12T11:29:06.998Z</time></trkpt><trkpt lat="44.6678083" lon="8.3383567"><ele>310.0</ele><time>2026-04-12T11:29:07.997Z</time></trkpt><trkpt lat="44.6677233" lon="8.3383783"><ele>310.0</ele><time>2026-04-12T11:29:08.997Z</time></trkpt><trkpt lat="44.6676367" lon="8.3383833"><ele>310.0</ele><time>2026-04-12T11:29:09.999Z</time></trkpt><trkpt lat="44.6675617" lon="8.3383633"><ele>310.0</ele><time>2026-04-12T11:29:10.994Z</time></trkpt><trkpt lat="44.6675583" lon="8.3382017"><ele>306.4</ele><time>2026-04-12T11:29:11.997Z</time></trkpt><trkpt lat="44.6675283" lon="8.3380817"><ele>302.8</ele><time>2026-04-12T11:29:12.994Z</time></trkpt><trkpt lat="44.66752" lon="8.3379417"><ele>299.2</ele><time>2026-04-12T11:29:13.994Z</time></trkpt><trkpt lat="44.667535" lon="8.337795"><ele>295.6</ele><time>2026-04-12T11:29:14.995Z</time></trkpt><trkpt lat="44.6675867" lon="8.3376417"><ele>292.0</ele><time>2026-04-12T11:29:15.995Z</time></trkpt><trkpt lat="44.6676367" lon="8.337495"><ele>290.75</ele><time>2026-04-12T11:29:16.998Z</time></trkpt><trkpt lat="44.6676717" lon="8.3373467"><ele>289.5</ele><time>2026-04-12T11:29:17.999Z</time></trkpt><trkpt lat="44.667705" lon="8.3371883"><ele>288.25</ele><time>2026-04-12T11:29:18.999Z</time></trkpt><trkpt lat="44.6677167" lon="8.3370117"><ele>287.0</ele><time>2026-04-12T11:29:20Z</time></trkpt><trkpt lat="44.6677117" lon="8.3368317"><ele>285.8</ele><time>2026-04-12T11:29:20.997Z</time></trkpt><trkpt lat="44.6677" lon="8.3366617"><ele>284.6</ele><time>2026-04-12T11:29:21.997Z</time></trkpt><trkpt lat="44.6677033" lon="8.3365"><ele>283.40000000000003</ele><time>2026-04-12T11:29:22.998Z</time></trkpt><trkpt lat="44.66771" lon="8.3363517"><ele>282.2</ele><time>2026-04-12T11:29:23.998Z</time></trkpt><trkpt lat="44.6677317" lon="8.3362167"><ele>281.0</ele><time>2026-04-12T11:29:24.998Z</time></trkpt><trkpt lat="44.6677717" lon="8.3360933"><ele>284.8</ele><time>2026-04-12T11:29:25.997Z</time></trkpt><trkpt lat="44.66783" lon="8.33598"><ele>288.6</ele><time>2026-04-12T11:29:26.997Z</time></trkpt><trkpt lat="44.667885" lon="8.3358617"><ele>292.4</ele><time>2026-04-12T11:29:27.998Z</time></trkpt><trkpt lat="44.667915" lon="8.33574"><ele>296.2</ele><time>2026-04-12T11:29:28.998Z</time></trkpt><trkpt lat="44.6679067" lon="8.335605"><ele>300.0</ele><time>2026-04-12T11:29:29.993Z</time></trkpt><trkpt lat="44.667855" lon="8.3354833"><ele>300.4</ele><time>2026-04-12T11:29:30.994Z</time></trkpt><trkpt lat="44.6678033" lon="8.335365"><ele>300.8</ele><time>2026-04-12T11:29:31.999Z</time></trkpt><trkpt lat="44.66777" lon="8.33524"><ele>301.2</ele><time>2026-04-12T11:29:32.997Z</time></trkpt><trkpt lat="44.667745" lon="8.3351083"><ele>301.6</ele><time>2026-04-12T11:29:33.995Z</time></trkpt><trkpt lat="44.6677483" lon="8.3349583"><ele>302.0</ele><time>2026-04-12T11:29:34.997Z</time></trkpt><trkpt lat="44.6677717" lon="8.3347917"><ele>298.0</ele><time>2026-04-12T11:29:35.997Z</time></trkpt><trkpt lat="44.6678033" lon="8.33462"><ele>294.0</ele><time>2026-04-12T11:29:36.997Z</time></trkpt><trkpt lat="44.6678333" lon="8.334455"><ele>290.0</ele><time>2026-04-12T11:29:37.996Z</time></trkpt><trkpt lat="44.6678667" lon="8.33429"><ele>286.0</ele><time>2026-04-12T11:29:38.998Z</time></trkpt><trkpt lat="44.6679017" lon="8.33412"><ele>286.0</ele><time>2026-04-12T11:29:39.999Z</time></trkpt><trkpt lat="44.66793" lon="8.3339567"><ele>286.0</ele><time>2026-04-12T11:29:40.997Z</time></trkpt><trkpt lat="44.6679567" lon="8.3338133"><ele>286.0</ele><time>2026-04-12T11:29:41.997Z</time></trkpt><trkpt lat="44.6679633" lon="8.3336817"><ele>286.0</ele><time>2026-04-12T11:29:42.998Z</time></trkpt><trkpt lat="44.667955" lon="8.333575"><ele>286.0</ele><time>2026-04-12T11:29:44.001Z</time></trkpt><trkpt lat="44.6679333" lon="8.3334783"><ele>283.5</ele><time>2026-04-12T11:29:45.007Z</time></trkpt><trkpt lat="44.6679" lon="8.3334017"><ele>281.0</ele><time>2026-04-12T11:29:45.993Z</time></trkpt><trkpt lat="44.6678483" lon="8.3333367"><ele>278.5</ele><time>2026-04-12T11:29:47.002Z</time></trkpt><trkpt lat="44.66776" lon="8.3332967"><ele>276.0</ele><time>2026-04-12T11:29:47.994Z</time></trkpt><trkpt lat="44.6676783" lon="8.3332667"><ele>273.5</ele><time>2026-04-12T11:29:48.996Z</time></trkpt><trkpt lat="44.6675483" lon="8.33329"><ele>271.0</ele><time>2026-04-12T11:29:49.995Z</time></trkpt><trkpt lat="44.667435" lon="8.33334"><ele>271.0</ele><time>2026-04-12T11:29:50.995Z</time></trkpt><trkpt lat="44.6673167" lon="8.333425"><ele>271.0</ele><time>2026-04-12T11:29:51.998Z</time></trkpt><trkpt lat="44.66719" lon="8.3335183"><ele>271.0</ele><time>2026-04-12T11:29:52.998Z</time></trkpt><trkpt lat="44.66705" lon="8.3336167"><ele>271.0</ele><time>2026-04-12T11:29:53.997Z</time></trkpt><trkpt lat="44.6669217" lon="8.3337117"><ele>270.5</ele><time>2026-04-12T11:29:54.997Z</time></trkpt><trkpt lat="44.66679" lon="8.3338067"><ele>270.0</ele><time>2026-04-12T11:29:55.996Z</time></trkpt><trkpt lat="44.6666717" lon="8.3339133"><ele>269.5</ele><time>2026-04-12T11:29:56.993Z</time></trkpt><trkpt lat="44.6665683" lon="8.3340383"><ele>269.0</ele><time>2026-04-12T11:29:58.001Z</time></trkpt><trkpt lat="44.6664617" lon="8.33418"><ele>269.0</ele><time>2026-04-12T11:29:58.998Z</time></trkpt><trkpt lat="44.6663667" lon="8.334345"><ele>269.0</ele><time>2026-04-12T11:29:59.995Z</time></trkpt><trkpt lat="44.6662617" lon="8.3345033"><ele>269.0</ele><time>2026-04-12T11:30:01Z</time></trkpt><trkpt lat="44.6661483" lon="8.3346583"><ele>268.75</ele><time>2026-04-12T11:30:01.992Z</time></trkpt><trkpt lat="44.6660433" lon="8.3348067"><ele>268.5</ele><time>2026-04-12T11:30:02.995Z</time></trkpt><trkpt lat="44.665935" lon="8.3349333"><ele>268.25</ele><time>2026-04-12T11:30:03.992Z</time></trkpt><trkpt lat="44.665825" lon="8.33503"><ele>268.0</ele><time>2026-04-12T11:30:04.997Z</time></trkpt><trkpt lat="44.66569" lon="8.3351233"><ele>268.0</ele><time>2026-04-12T11:30:05.995Z</time></trkpt><trkpt lat="44.6655533" lon="8.3352217"><ele>268.0</ele><time>2026-04-12T11:30:06.996Z</time></trkpt><trkpt lat="44.66541" lon="8.3353067"><ele>268.0</ele><time>2026-04-12T11:30:07.996Z</time></trkpt><trkpt lat="44.6652683" lon="8.33541"><ele>268.66666666666663</ele><time>2026-04-12T11:30:08.994Z</time></trkpt><trkpt lat="44.6651217" lon="8.3355133"><ele>269.3333333333333</ele><time>2026-04-12T11:30:09.997Z</time></trkpt><trkpt lat="44.6649733" lon="8.33562"><ele>270.0</ele><time>2026-04-12T11:30:10.993Z</time></trkpt><trkpt lat="44.66484" lon="8.3357133"><ele>265.5</ele><time>2026-04-12T11:30:11.994Z</time></trkpt><trkpt lat="44.6647167" lon="8.3357917"><ele>261.0</ele><time>2026-04-12T11:30:12.992Z</time></trkpt><trkpt lat="44.664595" lon="8.33585"><ele>256.5</ele><time>2026-04-12T11:30:13.997Z</time></trkpt><trkpt lat="44.6644767" lon="8.3358867"><ele>252.0</ele><time>2026-04-12T11:30:15Z</time></trkpt><trkpt lat="44.6643483" lon="8.3359067"><ele>252.0</ele><time>2026-04-12T11:30:15.996Z</time></trkpt><trkpt lat="44.66421" lon="8.3359233"><ele>252.0</ele><time>2026-04-12T11:30:16.998Z</time></trkpt><trkpt lat="44.66406" lon="8.335935"><ele>252.0</ele><time>2026-04-12T11:30:17.992Z</time></trkpt><trkpt lat="44.6639017" lon="8.3359567"><ele>252.0</ele><time>2026-04-12T11:30:18.998Z</time></trkpt><trkpt lat="44.6637367" lon="8.3359867"><ele>251.33333333333331</ele><time>2026-04-12T11:30:19.996Z</time></trkpt><trkpt lat="44.6635733" lon="8.336025"><ele>250.66666666666666</ele><time>2026-04-12T11:30:20.995Z</time></trkpt><trkpt lat="44.663405" lon="8.33608"><ele>250.0</ele><time>2026-04-12T11:30:21.998Z</time></trkpt><trkpt lat="44.66324" lon="8.336145"><ele>250.0</ele><time>2026-04-12T11:30:22.995Z</time></trkpt><trkpt lat="44.6630683" lon="8.3362317"><ele>250.0</ele><time>2026-04-12T11:30:23.998Z</time></trkpt><trkpt lat="44.6629017" lon="8.3363317"><ele>250.0</ele><time>2026-04-12T11:30:24.996Z</time></trkpt><trkpt lat="44.6627367" lon="8.336435"><ele>245.66666666666666</ele><time>2026-04-12T11:30:25.995Z</time></trkpt><trkpt lat="44.6625667" lon="8.3365267"><ele>241.33333333333331</ele><time>2026-04-12T11:30:26.996Z</time></trkpt><trkpt lat="44.6623967" lon="8.336615"><ele>237.0</ele><time>2026-04-12T11:30:27.992Z</time></trkpt><trkpt lat="44.6622317" lon="8.33672"><ele>237.0</ele><time>2026-04-12T11:30:29.001Z</time></trkpt><trkpt lat="44.6620767" lon="8.3368217"><ele>237.0</ele><time>2026-04-12T11:30:30.002Z</time></trkpt><trkpt lat="44.661925" lon="8.3369183"><ele>237.0</ele><time>2026-04-12T11:30:30.995Z</time></trkpt><trkpt lat="44.6617717" lon="8.3370083"><ele>234.33333333333331</ele><time>2026-04-12T11:30:31.996Z</time></trkpt><trkpt lat="44.6616233" lon="8.337115"><ele>231.66666666666666</ele><time>2026-04-12T11:30:32.993Z</time></trkpt><trkpt lat="44.6614883" lon="8.3372367"><ele>229.0</ele><time>2026-04-12T11:30:33.995Z</time></trkpt><trkpt lat="44.66136" lon="8.3373683"><ele>229.0</ele><time>2026-04-12T11:30:34.996Z</time></trkpt><trkpt lat="44.6612267" lon="8.3374717"><ele>229.0</ele><time>2026-04-12T11:30:35.994Z</time></trkpt><trkpt lat="44.6610883" lon="8.3375517"><ele>229.0</ele><time>2026-04-12T11:30:36.994Z</time></trkpt><trkpt lat="44.6609483" lon="8.3376033"><ele>229.0</ele><time>2026-04-12T11:30:37.998Z</time></trkpt><trkpt lat="44.6608067" lon="8.3376567"><ele>231.25</ele><time>2026-04-12T11:30:39Z</time></trkpt><trkpt lat="44.6606833" lon="8.3377083"><ele>233.5</ele><time>2026-04-12T11:30:40Z</time></trkpt><trkpt lat="44.66057" lon="8.3377983"><ele>235.75</ele><time>2026-04-12T11:30:40.996Z</time></trkpt><trkpt lat="44.66048" lon="8.3379367"><ele>238.0</ele><time>2026-04-12T11:30:42.001Z</time></trkpt><trkpt lat="44.660405" lon="8.3381"><ele>236.25</ele><time>2026-04-12T11:30:42.998Z</time></trkpt><trkpt lat="44.6603067" lon="8.33826"><ele>234.5</ele><time>2026-04-12T11:30:43.997Z</time></trkpt><trkpt lat="44.660215" lon="8.3384017"><ele>232.75</ele><time>2026-04-12T11:30:44.994Z</time></trkpt><trkpt lat="44.6601133" lon="8.3385317"><ele>231.0</ele><time>2026-04-12T11:30:45.994Z</time></trkpt><trkpt lat="44.6600183" lon="8.3386633"><ele>231.0</ele><time>2026-04-12T11:30:46.996Z</time></trkpt><trkpt lat="44.65995" lon="8.3388333"><ele>231.0</ele><time>2026-04-12T11:30:47.995Z</time></trkpt><trkpt lat="44.6598817" lon="8.3390233"><ele>231.0</ele><time>2026-04-12T11:30:48.992Z</time></trkpt><trkpt lat="44.6598067" lon="8.3392117"><ele>231.0</ele><time>2026-04-12T11:30:49.997Z</time></trkpt><trkpt lat="44.6597233" lon="8.3394017"><ele>227.0</ele><time>2026-04-12T11:30:50.996Z</time></trkpt><trkpt lat="44.6596383" lon="8.3395883"><ele>223.0</ele><time>2026-04-12T11:30:51.997Z</time></trkpt><trkpt lat="44.659545" lon="8.3397667"><ele>219.0</ele><time>2026-04-12T11:30:52.998Z</time></trkpt><trkpt lat="44.6594733" lon="8.3399517"><ele>220.33333333333331</ele><time>2026-04-12T11:30:53.997Z</time></trkpt><trkpt lat="44.6594117" lon="8.3401467"><ele>221.66666666666666</ele><time>2026-04-12T11:30:54.998Z</time></trkpt><trkpt lat="44.659365" lon="8.340345"><ele>223.0</ele><time>2026-04-12T11:30:55.992Z</time></trkpt><trkpt lat="44.6592983" lon="8.3405383"><ele>221.33333333333331</ele><time>2026-04-12T11:30:56.999Z</time></trkpt><trkpt lat="44.65923" lon="8.3407283"><ele>219.66666666666669</ele><time>2026-04-12T11:30:57.994Z</time></trkpt><trkpt lat="44.659155" lon="8.3409167"><ele>218.0</ele><time>2026-04-12T11:30:58.995Z</time></trkpt><trkpt lat="44.6590833" lon="8.3411017"><ele>218.0</ele><time>2026-04-12T11:30:59.993Z</time></trkpt><trkpt lat="44.6590133" lon="8.3412817"><ele>218.0</ele><time>2026-04-12T11:31:00.997Z</time></trkpt><trkpt lat="44.6589433" lon="8.341465"><ele>218.0</ele><time>2026-04-12T11:31:01.999Z</time></trkpt><trkpt lat="44.6588717" lon="8.3416333"><ele>218.0</ele><time>2026-04-12T11:31:02.997Z</time></trkpt><trkpt lat="44.6587783" lon="8.3417767"><ele>215.60000000000002</ele><time>2026-04-12T11:31:03.997Z</time></trkpt><trkpt lat="44.65869" lon="8.3418917"><ele>213.20000000000002</ele><time>2026-04-12T11:31:04.996Z</time></trkpt><trkpt lat="44.6586133" lon="8.3419717"><ele>210.8</ele><time>2026-04-12T11:31:05.993Z</time></trkpt><trkpt lat="44.6585367" lon="8.3420283"><ele>208.4</ele><time>2026-04-12T11:31:06.998Z</time></trkpt><trkpt lat="44.6584633" lon="8.3420683"><ele>206.0</ele><time>2026-04-12T11:31:07.998Z</time></trkpt><trkpt lat="44.6583817" lon="8.3420433"><ele>206.0</ele><time>2026-04-12T11:31:08.997Z</time></trkpt><trkpt lat="44.6582733" lon="8.3419"><ele>206.0</ele><time>2026-04-12T11:31:09.993Z</time></trkpt><trkpt lat="44.6581667" lon="8.34177"><ele>206.0</ele><time>2026-04-12T11:31:10.999Z</time></trkpt><trkpt lat="44.6580633" lon="8.3416417"><ele>206.0</ele><time>2026-04-12T11:31:11.996Z</time></trkpt><trkpt lat="44.6579567" lon="8.3415267"><ele>206.0</ele><time>2026-04-12T11:31:12.994Z</time></trkpt><trkpt lat="44.657845" lon="8.3414233"><ele>206.0</ele><time>2026-04-12T11:31:13.994Z</time></trkpt><trkpt lat="44.6577167" lon="8.3413417"><ele>206.0</ele><time>2026-04-12T11:31:15.001Z</time></trkpt><trkpt lat="44.65758" lon="8.3412883"><ele>206.0</ele><time>2026-04-12T11:31:15.995Z</time></trkpt><trkpt lat="44.6574333" lon="8.3412483"><ele>206.0</ele><time>2026-04-12T11:31:16.996Z</time></trkpt><trkpt lat="44.6572883" lon="8.3412183"><ele>206.0</ele><time>2026-04-12T11:31:17.996Z</time></trkpt><trkpt lat="44.6571433" lon="8.3411917"><ele>206.0</ele><time>2026-04-12T11:31:18.995Z</time></trkpt><trkpt lat="44.6570017" lon="8.341165"><ele>206.0</ele><time>2026-04-12T11:31:20.002Z</time></trkpt><trkpt lat="44.65687" lon="8.341165"><ele>206.00000000000003</ele><time>2026-04-12T11:31:20.996Z</time></trkpt><trkpt lat="44.65676" lon="8.3412017"><ele>206.0</ele><time>2026-04-12T11:31:21.993Z</time></trkpt><trkpt lat="44.656675" lon="8.3412767"><ele>206.0</ele><time>2026-04-12T11:31:22.999Z</time></trkpt><trkpt lat="44.6566217" lon="8.3413633"><ele>206.0</ele><time>2026-04-12T11:31:23.997Z</time></trkpt><trkpt lat="44.6565833" lon="8.3414583"><ele>206.00000000000003</ele><time>2026-04-12T11:31:24.994Z</time></trkpt><trkpt lat="44.6566083" lon="8.3415433"><ele>206.0</ele><time>2026-04-12T11:31:25.997Z</time></trkpt><trkpt lat="44.6566517" lon="8.3416217"><ele>204.60000000000002</ele><time>2026-04-12T11:31:26.994Z</time></trkpt><trkpt lat="44.6567167" lon="8.3416833"><ele>203.2</ele><time>2026-04-12T11:31:27.993Z</time></trkpt><trkpt lat="44.6568067" lon="8.34172"><ele>201.8</ele><time>2026-04-12T11:31:28.996Z</time></trkpt><trkpt lat="44.65692" lon="8.3417617"><ele>200.39999999999998</ele><time>2026-04-12T11:31:29.996Z</time></trkpt><trkpt lat="44.6570267" lon="8.34181"><ele>199.0</ele><time>2026-04-12T11:31:30.995Z</time></trkpt><trkpt lat="44.6571267" lon="8.34186"><ele>198.99999999999997</ele><time>2026-04-12T11:31:31.998Z</time></trkpt><trkpt lat="44.6572133" lon="8.3419083"><ele>199.0</ele><time>2026-04-12T11:31:32.999Z</time></trkpt><trkpt lat="44.6572933" lon="8.34196"><ele>199.0</ele><time>2026-04-12T11:31:33.997Z</time></trkpt><trkpt lat="44.6573417" lon="8.3420717"><ele>199.0</ele><time>2026-04-12T11:31:35.998Z</time></trkpt><trkpt lat="44.657265" lon="8.3421217"><ele>198.99999999999997</ele><time>2026-04-12T11:31:38.993Z</time></trkpt><trkpt lat="44.6571983" lon="8.342105"><ele>199.0</ele><time>2026-04-12T11:31:39.995Z</time></trkpt><trkpt lat="44.65709" lon="8.3420417"><ele>199.0</ele><time>2026-04-12T11:31:40.993Z</time></trkpt><trkpt lat="44.656965" lon="8.34198"><ele>199.0</ele><time>2026-04-12T11:31:41.994Z</time></trkpt><trkpt lat="44.6568283" lon="8.34191"><ele>199.0</ele><time>2026-04-12T11:31:43.001Z</time></trkpt><trkpt lat="44.6566667" lon="8.3418283"><ele>198.0</ele><time>2026-04-12T11:31:44.007Z</time></trkpt><trkpt lat="44.656475" lon="8.3417317"><ele>197.0</ele><time>2026-04-12T11:31:44.996Z</time></trkpt><trkpt lat="44.6562683" lon="8.3416267"><ele>196.0</ele><time>2026-04-12T11:31:45.994Z</time></trkpt><trkpt lat="44.6560633" lon="8.34152"><ele>195.33333333333331</ele><time>2026-04-12T11:31:46.997Z</time></trkpt><trkpt lat="44.6558633" lon="8.34142"><ele>194.66666666666669</ele><time>2026-04-12T11:31:47.993Z</time></trkpt><trkpt lat="44.6556667" lon="8.341325"><ele>194.0</ele><time>2026-04-12T11:31:48.999Z</time></trkpt><trkpt lat="44.655475" lon="8.341245"><ele>194.0</ele><time>2026-04-12T11:31:49.996Z</time></trkpt><trkpt lat="44.6552867" lon="8.341185"><ele>194.0</ele><time>2026-04-12T11:31:51.004Z</time></trkpt><trkpt lat="44.6550983" lon="8.3411417"><ele>194.0</ele><time>2026-04-12T11:31:51.992Z</time></trkpt><trkpt lat="44.654915" lon="8.3411"><ele>194.0</ele><time>2026-04-12T11:31:52.997Z</time></trkpt><trkpt lat="44.654735" lon="8.3410617"><ele>194.0</ele><time>2026-04-12T11:31:54.001Z</time></trkpt><trkpt lat="44.6545617" lon="8.3410317"><ele>194.0</ele><time>2026-04-12T11:31:54.997Z</time></trkpt><trkpt lat="44.6543933" lon="8.341005"><ele>191.66666666666669</ele><time>2026-04-12T11:31:55.999Z</time></trkpt><trkpt lat="44.6542267" lon="8.3409767"><ele>189.33333333333334</ele><time>2026-04-12T11:31:56.997Z</time></trkpt><trkpt lat="44.654065" lon="8.34095"><ele>187.0</ele><time>2026-04-12T11:31:57.997Z</time></trkpt><trkpt lat="44.6539" lon="8.3409417"><ele>187.0</ele><time>2026-04-12T11:31:58.993Z</time></trkpt><trkpt lat="44.6537483" lon="8.3409517"><ele>187.0</ele><time>2026-04-12T11:31:59.995Z</time></trkpt><trkpt lat="44.6535967" lon="8.3409817"><ele>187.0</ele><time>2026-04-12T11:32:00.995Z</time></trkpt><trkpt lat="44.6534383" lon="8.3410317"><ele>183.33333333333334</ele><time>2026-04-12T11:32:01.996Z</time></trkpt><trkpt lat="44.653285" lon="8.341085"><ele>179.66666666666666</ele><time>2026-04-12T11:32:02.995Z</time></trkpt><trkpt lat="44.65313" lon="8.341145"><ele>176.0</ele><time>2026-04-12T11:32:03.995Z</time></trkpt><trkpt lat="44.652975" lon="8.341205"><ele>176.0</ele><time>2026-04-12T11:32:04.998Z</time></trkpt><trkpt lat="44.6528183" lon="8.3412633"><ele>176.0</ele><time>2026-04-12T11:32:05.997Z</time></trkpt><trkpt lat="44.652665" lon="8.3413333"><ele>176.0</ele><time>2026-04-12T11:32:06.996Z</time></trkpt><trkpt lat="44.6525133" lon="8.3414233"><ele>177.33333333333331</ele><time>2026-04-12T11:32:07.996Z</time></trkpt><trkpt lat="44.6523717" lon="8.3415267"><ele>178.66666666666666</ele><time>2026-04-12T11:32:08.995Z</time></trkpt><trkpt lat="44.6522283" lon="8.3416283"><ele>180.0</ele><time>2026-04-12T11:32:09.994Z</time></trkpt><trkpt lat="44.652075" lon="8.341715"><ele>181.33333333333334</ele><time>2026-04-12T11:32:10.996Z</time></trkpt><trkpt lat="44.65191" lon="8.3417833"><ele>182.66666666666669</ele><time>2026-04-12T11:32:11.995Z</time></trkpt><trkpt lat="44.6517417" lon="8.3418483"><ele>184.0</ele><time>2026-04-12T11:32:12.995Z</time></trkpt><trkpt lat="44.65157" lon="8.3419117"><ele>184.0</ele><time>2026-04-12T11:32:13.994Z</time></trkpt><trkpt lat="44.651395" lon="8.34197"><ele>184.0</ele><time>2026-04-12T11:32:14.993Z</time></trkpt><trkpt lat="44.6512217" lon="8.3420283"><ele>184.0</ele><time>2026-04-12T11:32:15.997Z</time></trkpt><trkpt lat="44.6510433" lon="8.3420867"><ele>185.66666666666669</ele><time>2026-04-12T11:32:16.994Z</time></trkpt><trkpt lat="44.65086" lon="8.3421467"><ele>187.33333333333334</ele><time>2026-04-12T11:32:17.997Z</time></trkpt><trkpt lat="44.6506767" lon="8.3422017"><ele>189.0</ele><time>2026-04-12T11:32:18.995Z</time></trkpt><trkpt lat="44.6504983" lon="8.3422583"><ele>186.0</ele><time>2026-04-12T11:32:19.997Z</time></trkpt><trkpt lat="44.6503267" lon="8.3423083"><ele>183.0</ele><time>2026-04-12T11:32:20.998Z</time></trkpt><trkpt lat="44.6501583" lon="8.3423383"><ele>180.0</ele><time>2026-04-12T11:32:22Z</time></trkpt><trkpt lat="44.649985" lon="8.3423417"><ele>180.0</ele><time>2026-04-12T11:32:22.994Z</time></trkpt><trkpt lat="44.6498067" lon="8.34233"><ele>180.0</ele><time>2026-04-12T11:32:23.994Z</time></trkpt><trkpt lat="44.649635" lon="8.3423083"><ele>180.0</ele><time>2026-04-12T11:32:24.999Z</time></trkpt><trkpt lat="44.6494783" lon="8.342275"><ele>179.0</ele><time>2026-04-12T11:32:25.999Z</time></trkpt><trkpt lat="44.649325" lon="8.3422183"><ele>178.0</ele><time>2026-04-12T11:32:26.997Z</time></trkpt><trkpt lat="44.6491867" lon="8.34213"><ele>177.0</ele><time>2026-04-12T11:32:27.997Z</time></trkpt><trkpt lat="44.6490533" lon="8.3420083"><ele>180.66666666666666</ele><time>2026-04-12T11:32:28.996Z</time></trkpt><trkpt lat="44.6489283" lon="8.3418483"><ele>184.33333333333331</ele><time>2026-04-12T11:32:29.993Z</time></trkpt><trkpt lat="44.6488133" lon="8.3416617"><ele>188.0</ele><time>2026-04-12T11:32:30.997Z</time></trkpt><trkpt lat="44.6487" lon="8.3414567"><ele>184.66666666666666</ele><time>2026-04-12T11:32:32Z</time></trkpt><trkpt lat="44.6485833" lon="8.34125"><ele>181.33333333333334</ele><time>2026-04-12T11:32:32.999Z</time></trkpt><trkpt lat="44.6484717" lon="8.3410417"><ele>178.0</ele><time>2026-04-12T11:32:33.995Z</time></trkpt><trkpt lat="44.64836" lon="8.3408333"><ele>178.0</ele><time>2026-04-12T11:32:34.995Z</time></trkpt><trkpt lat="44.6482533" lon="8.34063"><ele>178.0</ele><time>2026-04-12T11:32:35.996Z</time></trkpt><trkpt lat="44.6481517" lon="8.3404283"><ele>178.0</ele><time>2026-04-12T11:32:36.995Z</time></trkpt><trkpt lat="44.6480617" lon="8.3402217"><ele>180.0</ele><time>2026-04-12T11:32:37.993Z</time></trkpt><trkpt lat="44.6480017" lon="8.33999"><ele>182.0</ele><time>2026-04-12T11:32:38.996Z</time></trkpt><trkpt lat="44.64796" lon="8.339765"><ele>184.0</ele><time>2026-04-12T11:32:39.997Z</time></trkpt><trkpt lat="44.647945" lon="8.3395217"><ele>184.0</ele><time>2026-04-12T11:32:40.992Z</time></trkpt><trkpt lat="44.6479517" lon="8.33928"><ele>184.0</ele><time>2026-04-12T11:32:42Z</time></trkpt><trkpt lat="44.6479883" lon="8.3390383"><ele>184.0</ele><time>2026-04-12T11:32:42.998Z</time></trkpt><trkpt lat="44.6480433" lon="8.3387933"><ele>184.33333333333334</ele><time>2026-04-12T11:32:43.996Z</time></trkpt><trkpt lat="44.6481117" lon="8.3385517"><ele>184.66666666666666</ele><time>2026-04-12T11:32:44.995Z</time></trkpt><trkpt lat="44.6481767" lon="8.338315"><ele>185.0</ele><time>2026-04-12T11:32:45.998Z</time></trkpt><trkpt lat="44.6482467" lon="8.3380783"><ele>184.33333333333331</ele><time>2026-04-12T11:32:46.996Z</time></trkpt><trkpt lat="44.6483117" lon="8.3378417"><ele>183.66666666666666</ele><time>2026-04-12T11:32:47.995Z</time></trkpt><trkpt lat="44.6483717" lon="8.3375983"><ele>183.0</ele><time>2026-04-12T11:32:48.994Z</time></trkpt><trkpt lat="44.6484233" lon="8.3373517"><ele>183.0</ele><time>2026-04-12T11:32:49.996Z</time></trkpt><trkpt lat="44.6484617" lon="8.33711"><ele>183.0</ele><time>2026-04-12T11:32:50.996Z</time></trkpt><trkpt lat="44.64849" lon="8.336865"><ele>183.0</ele><time>2026-04-12T11:32:51.997Z</time></trkpt><trkpt lat="44.64851" lon="8.3366217"><ele>182.66666666666666</ele><time>2026-04-12T11:32:52.996Z</time></trkpt><trkpt lat="44.648515" lon="8.3363783"><ele>182.33333333333331</ele><time>2026-04-12T11:32:53.992Z</time></trkpt><trkpt lat="44.648515" lon="8.3361367"><ele>182.0</ele><time>2026-04-12T11:32:54.998Z</time></trkpt><trkpt lat="44.6485033" lon="8.335895"><ele>182.0</ele><time>2026-04-12T11:32:55.995Z</time></trkpt><trkpt lat="44.6484933" lon="8.335655"><ele>182.0</ele><time>2026-04-12T11:32:57.002Z</time></trkpt><trkpt lat="44.6484817" lon="8.3354067"><ele>182.0</ele><time>2026-04-12T11:32:57.992Z</time></trkpt><trkpt lat="44.6484683" lon="8.3351633"><ele>182.66666666666666</ele><time>2026-04-12T11:32:58.992Z</time></trkpt><trkpt lat="44.6484517" lon="8.3349217"><ele>183.33333333333334</ele><time>2026-04-12T11:32:59.995Z</time></trkpt><trkpt lat="44.64843" lon="8.3346817"><ele>184.0</ele><time>2026-04-12T11:33:00.996Z</time></trkpt><trkpt lat="44.6484117" lon="8.3344433"><ele>185.0</ele><time>2026-04-12T11:33:01.999Z</time></trkpt><trkpt lat="44.6483967" lon="8.3342183"><ele>186.0</ele><time>2026-04-12T11:33:02.993Z</time></trkpt><trkpt lat="44.6483817" lon="8.3340033"><ele>187.0</ele><time>2026-04-12T11:33:03.993Z</time></trkpt><trkpt lat="44.6483667" lon="8.3338"><ele>187.5</ele><time>2026-04-12T11:33:04.993Z</time></trkpt><trkpt lat="44.6483517" lon="8.333605"><ele>188.0</ele><time>2026-04-12T11:33:05.994Z</time></trkpt><trkpt lat="44.6483367" lon="8.3334117"><ele>188.5</ele><time>2026-04-12T11:33:06.994Z</time></trkpt><trkpt lat="44.6483183" lon="8.33322"><ele>189.0</ele><time>2026-04-12T11:33:07.994Z</time></trkpt><trkpt lat="44.6483" lon="8.3330317"><ele>189.5</ele><time>2026-04-12T11:33:08.996Z</time></trkpt><trkpt lat="44.648285" lon="8.3328367"><ele>190.0</ele><time>2026-04-12T11:33:09.997Z</time></trkpt><trkpt lat="44.6482683" lon="8.33264"><ele>190.5</ele><time>2026-04-12T11:33:10.995Z</time></trkpt><trkpt lat="44.6482533" lon="8.33244"><ele>191.0</ele><time>2026-04-12T11:33:11.992Z</time></trkpt><trkpt lat="44.6482433" lon="8.3322417"><ele>190.75</ele><time>2026-04-12T11:33:12.996Z</time></trkpt><trkpt lat="44.6482467" lon="8.3320367"><ele>190.5</ele><time>2026-04-12T11:33:13.998Z</time></trkpt><trkpt lat="44.648255" lon="8.33183"><ele>190.25</ele><time>2026-04-12T11:33:14.993Z</time></trkpt><trkpt lat="44.64826" lon="8.3316317"><ele>190.0</ele><time>2026-04-12T11:33:15.997Z</time></trkpt><trkpt lat="44.648265" lon="8.3314467"><ele>190.0</ele><time>2026-04-12T11:33:17Z</time></trkpt><trkpt lat="44.6482733" lon="8.3312683"><ele>190.0</ele><time>2026-04-12T11:33:17.996Z</time></trkpt><trkpt lat="44.6482783" lon="8.331095"><ele>190.0</ele><time>2026-04-12T11:33:18.997Z</time></trkpt><trkpt lat="44.648285" lon="8.3309283"><ele>190.0</ele><time>2026-04-12T11:33:19.995Z</time></trkpt><trkpt lat="44.64829" lon="8.3307617"><ele>190.0</ele><time>2026-04-12T11:33:20.997Z</time></trkpt><trkpt lat="44.6482983" lon="8.330595"><ele>190.0</ele><time>2026-04-12T11:33:22Z</time></trkpt><trkpt lat="44.6483083" lon="8.33043"><ele>190.0</ele><time>2026-04-12T11:33:22.993Z</time></trkpt><trkpt lat="44.6483167" lon="8.33027"><ele>190.0</ele><time>2026-04-12T11:33:23.994Z</time></trkpt><trkpt lat="44.6483283" lon="8.3301083"><ele>190.0</ele><time>2026-04-12T11:33:24.998Z</time></trkpt><trkpt lat="44.6483367" lon="8.3299483"><ele>190.0</ele><time>2026-04-12T11:33:25.992Z</time></trkpt><trkpt lat="44.648345" lon="8.32979"><ele>190.0</ele><time>2026-04-12T11:33:27Z</time></trkpt><trkpt lat="44.64835" lon="8.3296383"><ele>190.0</ele><time>2026-04-12T11:33:27.993Z</time></trkpt><trkpt lat="44.6483617" lon="8.3294883"><ele>190.0</ele><time>2026-04-12T11:33:28.994Z</time></trkpt><trkpt lat="44.64837" lon="8.3293433"><ele>190.0</ele><time>2026-04-12T11:33:29.992Z</time></trkpt><trkpt lat="44.6483783" lon="8.3292017"><ele>190.0</ele><time>2026-04-12T11:33:30.997Z</time></trkpt><trkpt lat="44.6483917" lon="8.3290567"><ele>190.0</ele><time>2026-04-12T11:33:31.993Z</time></trkpt><trkpt lat="44.6483983" lon="8.3289133"><ele>190.0</ele><time>2026-04-12T11:33:32.994Z</time></trkpt><trkpt lat="44.6484017" lon="8.3287683"><ele>190.0</ele><time>2026-04-12T11:33:33.994Z</time></trkpt><trkpt lat="44.6484067" lon="8.3286217"><ele>190.0</ele><time>2026-04-12T11:33:34.991Z</time></trkpt><trkpt lat="44.64841" lon="8.3284733"><ele>190.0</ele><time>2026-04-12T11:33:35.994Z</time></trkpt><trkpt lat="44.6484117" lon="8.3283217"><ele>190.0</ele><time>2026-04-12T11:33:36.992Z</time></trkpt><trkpt lat="44.648405" lon="8.3281683"><ele>190.0</ele><time>2026-04-12T11:33:37.995Z</time></trkpt><trkpt lat="44.64839" lon="8.3280167"><ele>190.0</ele><time>2026-04-12T11:33:38.999Z</time></trkpt><trkpt lat="44.6483683" lon="8.3278683"><ele>190.2</ele><time>2026-04-12T11:33:39.996Z</time></trkpt><trkpt lat="44.6483383" lon="8.3277183"><ele>190.4</ele><time>2026-04-12T11:33:40.998Z</time></trkpt><trkpt lat="44.64831" lon="8.3275733"><ele>190.60000000000002</ele><time>2026-04-12T11:33:41.998Z</time></trkpt><trkpt lat="44.6482733" lon="8.3274267"><ele>190.8</ele><time>2026-04-12T11:33:42.996Z</time></trkpt><trkpt lat="44.64824" lon="8.3272817"><ele>191.0</ele><time>2026-04-12T11:33:43.995Z</time></trkpt><trkpt lat="44.6482067" lon="8.3271417"><ele>191.8</ele><time>2026-04-12T11:33:44.994Z</time></trkpt><trkpt lat="44.6481733" lon="8.3270017"><ele>192.60000000000002</ele><time>2026-04-12T11:33:45.995Z</time></trkpt><trkpt lat="44.6481417" lon="8.326865"><ele>193.4</ele><time>2026-04-12T11:33:46.997Z</time></trkpt><trkpt lat="44.64812" lon="8.326725"><ele>194.2</ele><time>2026-04-12T11:33:47.997Z</time></trkpt><trkpt lat="44.648105" lon="8.32659"><ele>195.0</ele><time>2026-04-12T11:33:49.001Z</time></trkpt><trkpt lat="44.6480983" lon="8.3264533"><ele>195.4</ele><time>2026-04-12T11:33:49.995Z</time></trkpt><trkpt lat="44.648095" lon="8.3263267"><ele>195.8</ele><time>2026-04-12T11:33:50.995Z</time></trkpt><trkpt lat="44.6480967" lon="8.3262133"><ele>196.2</ele><time>2026-04-12T11:33:51.996Z</time></trkpt><trkpt lat="44.648105" lon="8.3261117"><ele>196.6</ele><time>2026-04-12T11:33:52.994Z</time></trkpt><trkpt lat="44.6481383" lon="8.3259467"><ele>197.0</ele><time>2026-04-12T11:33:54.993Z</time></trkpt><trkpt lat="44.6482333" lon="8.3258833"><ele>197.0</ele><time>2026-04-12T11:33:55.993Z</time></trkpt><trkpt lat="44.6483083" lon="8.3258067"><ele>197.0</ele><time>2026-04-12T11:33:56.998Z</time></trkpt><trkpt lat="44.64838" lon="8.3257217"><ele>197.0</ele><time>2026-04-12T11:33:57.994Z</time></trkpt><trkpt lat="44.64845" lon="8.3256283"><ele>197.0</ele><time>2026-04-12T11:33:58.992Z</time></trkpt><trkpt lat="44.6485167" lon="8.3255217"><ele>197.0</ele><time>2026-04-12T11:33:59.995Z</time></trkpt><trkpt lat="44.6485733" lon="8.3254167"><ele>197.39999999999998</ele><time>2026-04-12T11:34:00.995Z</time></trkpt><trkpt lat="44.6486317" lon="8.3253067"><ele>197.79999999999998</ele><time>2026-04-12T11:34:01.999Z</time></trkpt><trkpt lat="44.6486867" lon="8.3251833"><ele>198.2</ele><time>2026-04-12T11:34:02.992Z</time></trkpt><trkpt lat="44.6487467" lon="8.32506"><ele>198.6</ele><time>2026-04-12T11:34:03.996Z</time></trkpt><trkpt lat="44.6488083" lon="8.3249333"><ele>199.0</ele><time>2026-04-12T11:34:04.997Z</time></trkpt><trkpt lat="44.648885" lon="8.3248133"><ele>197.5</ele><time>2026-04-12T11:34:05.999Z</time></trkpt><trkpt lat="44.6489567" lon="8.3246917"><ele>196.0</ele><time>2026-04-12T11:34:06.994Z</time></trkpt><trkpt lat="44.6490383" lon="8.3245633"><ele>194.5</ele><time>2026-04-12T11:34:07.993Z</time></trkpt><trkpt lat="44.649115" lon="8.3244317"><ele>193.0</ele><time>2026-04-12T11:34:08.992Z</time></trkpt><trkpt lat="44.64919" lon="8.3242983"><ele>193.0</ele><time>2026-04-12T11:34:09.995Z</time></trkpt><trkpt lat="44.649275" lon="8.3241683"><ele>193.0</ele><time>2026-04-12T11:34:10.994Z</time></trkpt><trkpt lat="44.6493533" lon="8.3240217"><ele>193.0</ele><time>2026-04-12T11:34:11.998Z</time></trkpt><trkpt lat="44.64943" lon="8.323875"><ele>193.0</ele><time>2026-04-12T11:34:12.995Z</time></trkpt><trkpt lat="44.6495083" lon="8.3237283"><ele>193.75</ele><time>2026-04-12T11:34:13.998Z</time></trkpt><trkpt lat="44.6495867" lon="8.3235783"><ele>194.5</ele><time>2026-04-12T11:34:14.997Z</time></trkpt><trkpt lat="44.649665" lon="8.323425"><ele>195.25</ele><time>2026-04-12T11:34:15.997Z</time></trkpt><trkpt lat="44.6497417" lon="8.3232683"><ele>196.0</ele><time>2026-04-12T11:34:16.994Z</time></trkpt><trkpt lat="44.6498233" lon="8.32311"><ele>194.0</ele><time>2026-04-12T11:34:17.992Z</time></trkpt><trkpt lat="44.6499067" lon="8.3229517"><ele>192.0</ele><time>2026-04-12T11:34:18.995Z</time></trkpt><trkpt lat="44.6499933" lon="8.3228"><ele>190.0</ele><time>2026-04-12T11:34:19.993Z</time></trkpt><trkpt lat="44.6500717" lon="8.32265"><ele>188.0</ele><time>2026-04-12T11:34:20.997Z</time></trkpt><trkpt lat="44.650145" lon="8.3225033"><ele>188.0</ele><time>2026-04-12T11:34:21.996Z</time></trkpt><trkpt lat="44.65022" lon="8.3223517"><ele>188.0</ele><time>2026-04-12T11:34:22.997Z</time></trkpt><trkpt lat="44.6502933" lon="8.322195"><ele>188.0</ele><time>2026-04-12T11:34:23.993Z</time></trkpt><trkpt lat="44.6503667" lon="8.3220283"><ele>188.0</ele><time>2026-04-12T11:34:25Z</time></trkpt><trkpt lat="44.6504333" lon="8.321855"><ele>188.75</ele><time>2026-04-12T11:34:25.995Z</time></trkpt><trkpt lat="44.6504983" lon="8.3216783"><ele>189.5</ele><time>2026-04-12T11:34:27.004Z</time></trkpt><trkpt lat="44.6505733" lon="8.3214983"><ele>190.25</ele><time>2026-04-12T11:34:27.993Z</time></trkpt><trkpt lat="44.650645" lon="8.3213183"><ele>191.0</ele><time>2026-04-12T11:34:28.995Z</time></trkpt><trkpt lat="44.6507217" lon="8.3211333"><ele>191.0</ele><time>2026-04-12T11:34:29.995Z</time></trkpt><trkpt lat="44.6508033" lon="8.320945"><ele>191.0</ele><time>2026-04-12T11:34:30.996Z</time></trkpt><trkpt lat="44.6508867" lon="8.3207533"><ele>191.0</ele><time>2026-04-12T11:34:32.01Z</time></trkpt><trkpt lat="44.6509733" lon="8.32056"><ele>189.0</ele><time>2026-04-12T11:34:33.003Z</time></trkpt><trkpt lat="44.6510667" lon="8.3203683"><ele>187.0</ele><time>2026-04-12T11:34:33.995Z</time></trkpt><trkpt lat="44.6511633" lon="8.3201733"><ele>185.0</ele><time>2026-04-12T11:34:34.995Z</time></trkpt><trkpt lat="44.6512533" lon="8.3199733"><ele>188.0</ele><time>2026-04-12T11:34:35.996Z</time></trkpt><trkpt lat="44.6513383" lon="8.3197683"><ele>191.0</ele><time>2026-04-12T11:34:36.999Z</time></trkpt><trkpt lat="44.6514283" lon="8.3195633"><ele>194.0</ele><time>2026-04-12T11:34:37.993Z</time></trkpt><trkpt lat="44.6515283" lon="8.3193683"><ele>194.0</ele><time>2026-04-12T11:34:38.997Z</time></trkpt><trkpt lat="44.651625" lon="8.319175"><ele>194.0</ele><time>2026-04-12T11:34:39.994Z</time></trkpt><trkpt lat="44.65172" lon="8.3189783"><ele>194.0</ele><time>2026-04-12T11:34:40.997Z</time></trkpt><trkpt lat="44.65181" lon="8.318785"><ele>192.0</ele><time>2026-04-12T11:34:41.993Z</time></trkpt><trkpt lat="44.651895" lon="8.31859"><ele>190.0</ele><time>2026-04-12T11:34:42.991Z</time></trkpt><trkpt lat="44.6519817" lon="8.3183967"><ele>188.0</ele><time>2026-04-12T11:34:43.997Z</time></trkpt><trkpt lat="44.652065" lon="8.318195"><ele>192.66666666666666</ele><time>2026-04-12T11:34:44.993Z</time></trkpt><trkpt lat="44.6521433" lon="8.3179817"><ele>197.33333333333331</ele><time>2026-04-12T11:34:45.993Z</time></trkpt><trkpt lat="44.652215" lon="8.3177567"><ele>202.0</ele><time>2026-04-12T11:34:46.994Z</time></trkpt><trkpt lat="44.652285" lon="8.3175217"><ele>202.0</ele><time>2026-04-12T11:34:47.994Z</time></trkpt><trkpt lat="44.65235" lon="8.31728"><ele>202.0</ele><time>2026-04-12T11:34:48.996Z</time></trkpt><trkpt lat="44.65242" lon="8.3170317"><ele>202.0</ele><time>2026-04-12T11:34:49.997Z</time></trkpt><trkpt lat="44.6524817" lon="8.3167883"><ele>200.0</ele><time>2026-04-12T11:34:50.999Z</time></trkpt><trkpt lat="44.6525433" lon="8.3165467"><ele>198.0</ele><time>2026-04-12T11:34:51.997Z</time></trkpt><trkpt lat="44.6526033" lon="8.31631"><ele>196.0</ele><time>2026-04-12T11:34:52.996Z</time></trkpt><trkpt lat="44.65266" lon="8.3160717"><ele>195.66666666666666</ele><time>2026-04-12T11:34:53.994Z</time></trkpt><trkpt lat="44.6527183" lon="8.3158317"><ele>195.33333333333331</ele><time>2026-04-12T11:34:54.996Z</time></trkpt><trkpt lat="44.6527783" lon="8.3155917"><ele>195.0</ele><time>2026-04-12T11:34:55.997Z</time></trkpt><trkpt lat="44.65284" lon="8.31535"><ele>196.33333333333331</ele><time>2026-04-12T11:34:56.996Z</time></trkpt><trkpt lat="44.6529" lon="8.315105"><ele>197.66666666666666</ele><time>2026-04-12T11:34:58.003Z</time></trkpt><trkpt lat="44.65297" lon="8.3148583"><ele>199.0</ele><time>2026-04-12T11:34:58.998Z</time></trkpt><trkpt lat="44.65306" lon="8.31462"><ele>199.0</ele><time>2026-04-12T11:34:59.994Z</time></trkpt><trkpt lat="44.6531667" lon="8.314395"><ele>199.0</ele><time>2026-04-12T11:35:00.999Z</time></trkpt><trkpt lat="44.6532867" lon="8.3141867"><ele>199.0</ele><time>2026-04-12T11:35:02.001Z</time></trkpt><trkpt lat="44.6534233" lon="8.3139983"><ele>197.66666666666666</ele><time>2026-04-12T11:35:02.996Z</time></trkpt><trkpt lat="44.6535717" lon="8.313825"><ele>196.33333333333331</ele><time>2026-04-12T11:35:03.994Z</time></trkpt><trkpt lat="44.6537233" lon="8.31366"><ele>195.0</ele><time>2026-04-12T11:35:04.991Z</time></trkpt><trkpt lat="44.6538767" lon="8.3135"><ele>195.0</ele><time>2026-04-12T11:35:05.994Z</time></trkpt><trkpt lat="44.6540267" lon="8.3133333"><ele>195.0</ele><time>2026-04-12T11:35:06.993Z</time></trkpt><trkpt lat="44.6541733" lon="8.3131633"><ele>195.0</ele><time>2026-04-12T11:35:07.996Z</time></trkpt><trkpt lat="44.65432" lon="8.3129967"><ele>196.0</ele><time>2026-04-12T11:35:08.995Z</time></trkpt><trkpt lat="44.6544683" lon="8.31283"><ele>197.0</ele><time>2026-04-12T11:35:09.998Z</time></trkpt><trkpt lat="44.6546133" lon="8.3126617"><ele>198.0</ele><time>2026-04-12T11:35:10.997Z</time></trkpt><trkpt lat="44.654755" lon="8.3124933"><ele>198.0</ele><time>2026-04-12T11:35:11.996Z</time></trkpt><trkpt lat="44.6548967" lon="8.31233"><ele>198.0</ele><time>2026-04-12T11:35:12.996Z</time></trkpt><trkpt lat="44.655035" lon="8.3121667"><ele>198.0</ele><time>2026-04-12T11:35:13.995Z</time></trkpt><trkpt lat="44.6551733" lon="8.3120067"><ele>197.66666666666669</ele><time>2026-04-12T11:35:14.997Z</time></trkpt><trkpt lat="44.6553083" lon="8.31185"><ele>197.33333333333334</ele><time>2026-04-12T11:35:15.997Z</time></trkpt><trkpt lat="44.6554517" lon="8.3116817"><ele>197.0</ele><time>2026-04-12T11:35:16.995Z</time></trkpt><trkpt lat="44.6555733" lon="8.3115117"><ele>195.66666666666669</ele><time>2026-04-12T11:35:17.998Z</time></trkpt><trkpt lat="44.6557017" lon="8.3113467"><ele>194.33333333333331</ele><time>2026-04-12T11:35:19Z</time></trkpt><trkpt lat="44.6558333" lon="8.3111833"><ele>193.0</ele><time>2026-04-12T11:35:19.996Z</time></trkpt><trkpt lat="44.6559683" lon="8.311015"><ele>193.0</ele><time>2026-04-12T11:35:20.994Z</time></trkpt><trkpt lat="44.6560967" lon="8.3108433"><ele>193.0</ele><time>2026-04-12T11:35:21.993Z</time></trkpt><trkpt lat="44.6562233" lon="8.3106717"><ele>193.0</ele><time>2026-04-12T11:35:22.996Z</time></trkpt><trkpt lat="44.6563567" lon="8.3105017"><ele>193.0</ele><time>2026-04-12T11:35:23.993Z</time></trkpt><trkpt lat="44.6564817" lon="8.31033"><ele>193.0</ele><time>2026-04-12T11:35:24.994Z</time></trkpt><trkpt lat="44.6566083" lon="8.310155"><ele>193.0</ele><time>2026-04-12T11:35:25.992Z</time></trkpt><trkpt lat="44.6567283" lon="8.3099717"><ele>193.0</ele><time>2026-04-12T11:35:27.001Z</time></trkpt><trkpt lat="44.6568483" lon="8.3097867"><ele>193.0</ele><time>2026-04-12T11:35:27.995Z</time></trkpt><trkpt lat="44.65697" lon="8.3096017"><ele>193.0</ele><time>2026-04-12T11:35:28.997Z</time></trkpt><trkpt lat="44.65709" lon="8.3094167"><ele>192.66666666666666</ele><time>2026-04-12T11:35:29.997Z</time></trkpt><trkpt lat="44.65721" lon="8.3092317"><ele>192.33333333333331</ele><time>2026-04-12T11:35:30.991Z</time></trkpt><trkpt lat="44.6573283" lon="8.3090467"><ele>192.0</ele><time>2026-04-12T11:35:31.995Z</time></trkpt><trkpt lat="44.6574467" lon="8.30886"><ele>192.0</ele><time>2026-04-12T11:35:32.993Z</time></trkpt><trkpt lat="44.657565" lon="8.3086717"><ele>192.0</ele><time>2026-04-12T11:35:33.992Z</time></trkpt><trkpt lat="44.6576817" lon="8.3084867"><ele>192.0</ele><time>2026-04-12T11:35:34.994Z</time></trkpt><trkpt lat="44.6577967" lon="8.308305"><ele>192.33333333333331</ele><time>2026-04-12T11:35:35.994Z</time></trkpt><trkpt lat="44.6579133" lon="8.3081233"><ele>192.66666666666666</ele><time>2026-04-12T11:35:36.996Z</time></trkpt><trkpt lat="44.6580317" lon="8.3079433"><ele>193.0</ele><time>2026-04-12T11:35:37.995Z</time></trkpt><trkpt lat="44.65815" lon="8.3077633"><ele>192.33333333333331</ele><time>2026-04-12T11:35:38.995Z</time></trkpt><trkpt lat="44.6582667" lon="8.307585"><ele>191.66666666666666</ele><time>2026-04-12T11:35:39.997Z</time></trkpt><trkpt lat="44.6583833" lon="8.307405"><ele>191.0</ele><time>2026-04-12T11:35:40.997Z</time></trkpt><trkpt lat="44.6585" lon="8.3072233"><ele>190.33333333333331</ele><time>2026-04-12T11:35:42Z</time></trkpt><trkpt lat="44.6586117" lon="8.3070467"><ele>189.66666666666666</ele><time>2026-04-12T11:35:42.998Z</time></trkpt><trkpt lat="44.6587233" lon="8.3068833"><ele>189.0</ele><time>2026-04-12T11:35:44.001Z</time></trkpt><trkpt lat="44.6588417" lon="8.3067367"><ele>189.0</ele><time>2026-04-12T11:35:44.998Z</time></trkpt><trkpt lat="44.6589633" lon="8.3065967"><ele>189.0</ele><time>2026-04-12T11:35:45.997Z</time></trkpt><trkpt lat="44.65909" lon="8.30646"><ele>189.0</ele><time>2026-04-12T11:35:46.998Z</time></trkpt><trkpt lat="44.659215" lon="8.306315"><ele>187.66666666666666</ele><time>2026-04-12T11:35:47.998Z</time></trkpt><trkpt lat="44.6593333" lon="8.3061517"><ele>186.33333333333331</ele><time>2026-04-12T11:35:48.995Z</time></trkpt><trkpt lat="44.6594417" lon="8.3059767"><ele>185.0</ele><time>2026-04-12T11:35:50.001Z</time></trkpt><trkpt lat="44.6595417" lon="8.3057867"><ele>185.0</ele><time>2026-04-12T11:35:50.995Z</time></trkpt><trkpt lat="44.6596367" lon="8.3055917"><ele>185.0</ele><time>2026-04-12T11:35:51.994Z</time></trkpt><trkpt lat="44.659725" lon="8.3053933"><ele>185.0</ele><time>2026-04-12T11:35:53Z</time></trkpt><trkpt lat="44.6598133" lon="8.305195"><ele>184.66666666666666</ele><time>2026-04-12T11:35:53.995Z</time></trkpt><trkpt lat="44.6598983" lon="8.3049983"><ele>184.33333333333334</ele><time>2026-04-12T11:35:54.996Z</time></trkpt><trkpt lat="44.6599833" lon="8.3048017"><ele>184.0</ele><time>2026-04-12T11:35:55.994Z</time></trkpt><trkpt lat="44.6600667" lon="8.304605"><ele>183.66666666666669</ele><time>2026-04-12T11:35:57Z</time></trkpt><trkpt lat="44.6601533" lon="8.30441"><ele>183.33333333333334</ele><time>2026-04-12T11:35:57.995Z</time></trkpt><trkpt lat="44.6602417" lon="8.3042183"><ele>183.0</ele><time>2026-04-12T11:35:58.994Z</time></trkpt><trkpt lat="44.6603267" lon="8.3040283"><ele>183.33333333333334</ele><time>2026-04-12T11:35:59.997Z</time></trkpt><trkpt lat="44.6604117" lon="8.3038383"><ele>183.66666666666669</ele><time>2026-04-12T11:36:01Z</time></trkpt><trkpt lat="44.6604983" lon="8.30365"><ele>184.0</ele><time>2026-04-12T11:36:01.995Z</time></trkpt><trkpt lat="44.660585" lon="8.3034617"><ele>184.0</ele><time>2026-04-12T11:36:02.994Z</time></trkpt><trkpt lat="44.66067" lon="8.303275"><ele>184.0</ele><time>2026-04-12T11:36:03.998Z</time></trkpt><trkpt lat="44.660755" lon="8.3030867"><ele>184.0</ele><time>2026-04-12T11:36:04.999Z</time></trkpt><trkpt lat="44.6608333" lon="8.3029"><ele>183.0</ele><time>2026-04-12T11:36:05.996Z</time></trkpt><trkpt lat="44.66092" lon="8.302715"><ele>182.0</ele><time>2026-04-12T11:36:06.997Z</time></trkpt><trkpt lat="44.661" lon="8.30253"><ele>181.0</ele><time>2026-04-12T11:36:07.995Z</time></trkpt><trkpt lat="44.6610817" lon="8.302345"><ele>181.66666666666669</ele><time>2026-04-12T11:36:08.997Z</time></trkpt><trkpt lat="44.6611633" lon="8.30216"><ele>182.33333333333334</ele><time>2026-04-12T11:36:09.996Z</time></trkpt><trkpt lat="44.6612467" lon="8.3019767"><ele>183.0</ele><time>2026-04-12T11:36:10.997Z</time></trkpt><trkpt lat="44.6613283" lon="8.301795"><ele>183.0</ele><time>2026-04-12T11:36:11.998Z</time></trkpt><trkpt lat="44.6614067" lon="8.30161"><ele>183.0</ele><time>2026-04-12T11:36:12.994Z</time></trkpt><trkpt lat="44.661485" lon="8.3014267"><ele>183.0</ele><time>2026-04-12T11:36:13.993Z</time></trkpt><trkpt lat="44.6615633" lon="8.3012433"><ele>183.0</ele><time>2026-04-12T11:36:14.996Z</time></trkpt><trkpt lat="44.6616417" lon="8.30106"><ele>183.0</ele><time>2026-04-12T11:36:15.993Z</time></trkpt><trkpt lat="44.66172" lon="8.300875"><ele>183.0</ele><time>2026-04-12T11:36:16.996Z</time></trkpt><trkpt lat="44.661795" lon="8.300695"><ele>183.25</ele><time>2026-04-12T11:36:17.997Z</time></trkpt><trkpt lat="44.661875" lon="8.30052"><ele>183.5</ele><time>2026-04-12T11:36:18.996Z</time></trkpt><trkpt lat="44.6619483" lon="8.3003467"><ele>183.75</ele><time>2026-04-12T11:36:20.001Z</time></trkpt><trkpt lat="44.662025" lon="8.3001767"><ele>184.0</ele><time>2026-04-12T11:36:20.997Z</time></trkpt><trkpt lat="44.6620967" lon="8.300005"><ele>184.75</ele><time>2026-04-12T11:36:21.998Z</time></trkpt><trkpt lat="44.6621733" lon="8.29984"><ele>185.5</ele><time>2026-04-12T11:36:23Z</time></trkpt><trkpt lat="44.6622517" lon="8.2996733"><ele>186.25</ele><time>2026-04-12T11:36:23.999Z</time></trkpt><trkpt lat="44.66233" lon="8.2995083"><ele>187.0</ele><time>2026-04-12T11:36:25.004Z</time></trkpt><trkpt lat="44.6624083" lon="8.2993417"><ele>188.0</ele><time>2026-04-12T11:36:26Z</time></trkpt><trkpt lat="44.6624833" lon="8.29918"><ele>189.0</ele><time>2026-04-12T11:36:26.998Z</time></trkpt><trkpt lat="44.6625517" lon="8.2990217"><ele>190.0</ele><time>2026-04-12T11:36:27.996Z</time></trkpt><trkpt lat="44.662605" lon="8.2988667"><ele>191.0</ele><time>2026-04-12T11:36:28.995Z</time></trkpt><trkpt lat="44.6626333" lon="8.2987083"><ele>191.4</ele><time>2026-04-12T11:36:30Z</time></trkpt><trkpt lat="44.6626417" lon="8.29855"><ele>191.8</ele><time>2026-04-12T11:36:30.996Z</time></trkpt><trkpt lat="44.6626483" lon="8.2983967"><ele>192.20000000000002</ele><time>2026-04-12T11:36:32.001Z</time></trkpt><trkpt lat="44.6626583" lon="8.2982467"><ele>192.60000000000002</ele><time>2026-04-12T11:36:32.996Z</time></trkpt><trkpt lat="44.6626767" lon="8.298105"><ele>193.0</ele><time>2026-04-12T11:36:33.993Z</time></trkpt><trkpt lat="44.6627067" lon="8.2979683"><ele>193.60000000000002</ele><time>2026-04-12T11:36:34.994Z</time></trkpt><trkpt lat="44.6627467" lon="8.2978383"><ele>194.20000000000002</ele><time>2026-04-12T11:36:35.999Z</time></trkpt><trkpt lat="44.6627917" lon="8.2977233"><ele>194.8</ele><time>2026-04-12T11:36:36.993Z</time></trkpt><trkpt lat="44.662835" lon="8.2976283"><ele>195.4</ele><time>2026-04-12T11:36:37.993Z</time></trkpt><trkpt lat="44.662905" lon="8.2975033"><ele>196.0</ele><time>2026-04-12T11:36:39.998Z</time></trkpt><trkpt lat="44.6629633" lon="8.2974117"><ele>195.99999999999997</ele><time>2026-04-12T11:36:41.996Z</time></trkpt><trkpt lat="44.6630283" lon="8.2973133"><ele>196.0</ele><time>2026-04-12T11:36:43.993Z</time></trkpt><trkpt lat="44.663095" lon="8.297205"><ele>196.0</ele><time>2026-04-12T11:36:45.995Z</time></trkpt><trkpt lat="44.66317" lon="8.29708"><ele>196.0</ele><time>2026-04-12T11:36:47.997Z</time></trkpt><trkpt lat="44.6632117" lon="8.2970133"><ele>195.99999999999997</ele><time>2026-04-12T11:36:48.992Z</time></trkpt><trkpt lat="44.663255" lon="8.2969433"><ele>196.0</ele><time>2026-04-12T11:36:49.997Z</time></trkpt><trkpt lat="44.6632983" lon="8.2968667"><ele>197.33333333333331</ele><time>2026-04-12T11:36:50.999Z</time></trkpt><trkpt lat="44.6633683" lon="8.2967617"><ele>198.66666666666666</ele><time>2026-04-12T11:36:52.995Z</time></trkpt><trkpt lat="44.6634067" lon="8.2966867"><ele>200.0</ele><time>2026-04-12T11:36:54.994Z</time></trkpt><trkpt lat="44.6634517" lon="8.2966067"><ele>201.33333333333331</ele><time>2026-04-12T11:36:56.999Z</time></trkpt><trkpt lat="44.663505" lon="8.2965217"><ele>202.66666666666666</ele><time>2026-04-12T11:36:58.994Z</time></trkpt><trkpt lat="44.66357" lon="8.29642"><ele>204.0</ele><time>2026-04-12T11:37:01Z</time></trkpt><trkpt lat="44.66366" lon="8.296305"><ele>205.5</ele><time>2026-04-12T11:37:02.998Z</time></trkpt><trkpt lat="44.66374" lon="8.2961833"><ele>207.0</ele><time>2026-04-12T11:37:04.993Z</time></trkpt><trkpt lat="44.6638217" lon="8.2960617"><ele>208.5</ele><time>2026-04-12T11:37:06.997Z</time></trkpt><trkpt lat="44.6638967" lon="8.295945"><ele>210.0</ele><time>2026-04-12T11:37:08.999Z</time></trkpt><trkpt lat="44.6639717" lon="8.295825"><ele>210.0</ele><time>2026-04-12T11:37:10.998Z</time></trkpt><trkpt lat="44.6640583" lon="8.295705"><ele>210.0</ele><time>2026-04-12T11:37:12.997Z</time></trkpt><trkpt lat="44.66411" lon="8.2956417"><ele>210.0</ele><time>2026-04-12T11:37:13.996Z</time></trkpt><trkpt lat="44.66417" lon="8.29557"><ele>210.0</ele><time>2026-04-12T11:37:14.994Z</time></trkpt><trkpt lat="44.66423" lon="8.2955"><ele>210.0</ele><time>2026-04-12T11:37:15.996Z</time></trkpt><trkpt lat="44.6642883" lon="8.2954267"><ele>210.0</ele><time>2026-04-12T11:37:16.994Z</time></trkpt><trkpt lat="44.6643483" lon="8.2953567"><ele>210.16666666666666</ele><time>2026-04-12T11:37:17.994Z</time></trkpt><trkpt lat="44.6643967" lon="8.29529"><ele>210.33333333333331</ele><time>2026-04-12T11:37:18.995Z</time></trkpt><trkpt lat="44.66445" lon="8.2952017"><ele>210.5</ele><time>2026-04-12T11:37:20.997Z</time></trkpt><trkpt lat="44.6644883" lon="8.2951083"><ele>210.66666666666666</ele><time>2026-04-12T11:37:23.993Z</time></trkpt><trkpt lat="44.66452" lon="8.2950167"><ele>210.83333333333331</ele><time>2026-04-12T11:37:27.995Z</time></trkpt><trkpt lat="44.6645483" lon="8.2949133"><ele>211.0</ele><time>2026-04-12T11:37:31.001Z</time></trkpt><trkpt lat="44.6645733" lon="8.2948"><ele>213.16666666666666</ele><time>2026-04-12T11:37:34Z</time></trkpt><trkpt lat="44.6645717" lon="8.294655"><ele>215.33333333333331</ele><time>2026-04-12T11:37:44.998Z</time></trkpt><trkpt lat="44.6645617" lon="8.2945617"><ele>217.5</ele><time>2026-04-12T11:37:46.999Z</time></trkpt><trkpt lat="44.6645417" lon="8.2944733"><ele>219.66666666666669</ele><time>2026-04-12T11:37:52Z</time></trkpt><trkpt lat="44.66452" lon="8.29436"><ele>221.83333333333334</ele><time>2026-04-12T11:37:55.002Z</time></trkpt><trkpt lat="44.6644783" lon="8.2942817"><ele>224.0</ele><time>2026-04-12T11:37:57.996Z</time></trkpt><trkpt lat="44.6644183" lon="8.2942133"><ele>225.16666666666669</ele><time>2026-04-12T11:38:01.998Z</time></trkpt><trkpt lat="44.6643667" lon="8.2941217"><ele>226.33333333333334</ele><time>2026-04-12T11:38:06.997Z</time></trkpt><trkpt lat="44.6643183" lon="8.29404"><ele>227.5</ele><time>2026-04-12T11:38:10.998Z</time></trkpt><trkpt lat="44.664265" lon="8.29397"><ele>228.66666666666669</ele><time>2026-04-12T11:38:15.001Z</time></trkpt><trkpt lat="44.6642167" lon="8.29387"><ele>229.83333333333334</ele><time>2026-04-12T11:38:19.995Z</time></trkpt><trkpt lat="44.664165" lon="8.2937517"><ele>231.0</ele><time>2026-04-12T11:38:22.998Z</time></trkpt><trkpt lat="44.664105" lon="8.2935933"><ele>231.0</ele><time>2026-04-12T11:38:24.999Z</time></trkpt><trkpt lat="44.6640717" lon="8.2935033"><ele>231.0</ele><time>2026-04-12T11:38:25.995Z</time></trkpt><trkpt lat="44.6640417" lon="8.293415"><ele>231.0</ele><time>2026-04-12T11:38:26.994Z</time></trkpt><trkpt lat="44.6640183" lon="8.2933233"><ele>231.0</ele><time>2026-04-12T11:38:28.004Z</time></trkpt><trkpt lat="44.6639883" lon="8.2932333"><ele>231.0</ele><time>2026-04-12T11:38:28.999Z</time></trkpt><trkpt lat="44.6639533" lon="8.293145"><ele>231.0</ele><time>2026-04-12T11:38:29.991Z</time></trkpt><trkpt lat="44.6639183" lon="8.2930533"><ele>231.0</ele><time>2026-04-12T11:38:30.997Z</time></trkpt><trkpt lat="44.6638833" lon="8.29296"><ele>231.14285714285714</ele><time>2026-04-12T11:38:31.999Z</time></trkpt><trkpt lat="44.66385" lon="8.2928617"><ele>231.28571428571428</ele><time>2026-04-12T11:38:32.997Z</time></trkpt><trkpt lat="44.663815" lon="8.2927683"><ele>231.42857142857144</ele><time>2026-04-12T11:38:33.995Z</time></trkpt><trkpt lat="44.6637833" lon="8.2926733"><ele>231.57142857142858</ele><time>2026-04-12T11:38:34.994Z</time></trkpt><trkpt lat="44.6637633" lon="8.2925767"><ele>231.71428571428572</ele><time>2026-04-12T11:38:35.994Z</time></trkpt><trkpt lat="44.663755" lon="8.2924833"><ele>231.8571428571429</ele><time>2026-04-12T11:38:36.996Z</time></trkpt><trkpt lat="44.6637717" lon="8.2923733"><ele>232.00000000000003</ele><time>2026-04-12T11:38:38.001Z</time></trkpt><trkpt lat="44.663795" lon="8.292265"><ele>231.8571428571429</ele><time>2026-04-12T11:38:38.994Z</time></trkpt><trkpt lat="44.66382" lon="8.29216"><ele>231.71428571428572</ele><time>2026-04-12T11:38:39.996Z</time></trkpt><trkpt lat="44.663845" lon="8.2920583"><ele>231.57142857142858</ele><time>2026-04-12T11:38:40.993Z</time></trkpt><trkpt lat="44.663875" lon="8.29197"><ele>231.42857142857144</ele><time>2026-04-12T11:38:41.994Z</time></trkpt><trkpt lat="44.6639017" lon="8.2918867"><ele>231.28571428571428</ele><time>2026-04-12T11:38:42.996Z</time></trkpt><trkpt lat="44.6639233" lon="8.2918033"><ele>231.14285714285714</ele><time>2026-04-12T11:38:43.997Z</time></trkpt><trkpt lat="44.6639517" lon="8.29171"><ele>231.0</ele><time>2026-04-12T11:38:44.995Z</time></trkpt><trkpt lat="44.6639933" lon="8.2916117"><ele>231.0</ele><time>2026-04-12T11:38:45.996Z</time></trkpt><trkpt lat="44.66404" lon="8.2915133"><ele>231.00000000000003</ele><time>2026-04-12T11:38:46.999Z</time></trkpt><trkpt lat="44.6640817" lon="8.2913983"><ele>231.00000000000003</ele><time>2026-04-12T11:38:47.993Z</time></trkpt><trkpt lat="44.6641067" lon="8.291275"><ele>231.0</ele><time>2026-04-12T11:38:48.997Z</time></trkpt><trkpt lat="44.66411" lon="8.291135"><ele>231.0</ele><time>2026-04-12T11:38:50Z</time></trkpt><trkpt lat="44.6640867" lon="8.290975"><ele>230.75</ele><time>2026-04-12T11:38:50.999Z</time></trkpt><trkpt lat="44.66404" lon="8.290795"><ele>230.5</ele><time>2026-04-12T11:38:51.996Z</time></trkpt><trkpt lat="44.6639733" lon="8.290615"><ele>230.25</ele><time>2026-04-12T11:38:52.994Z</time></trkpt><trkpt lat="44.6638967" lon="8.2904283"><ele>230.0</ele><time>2026-04-12T11:38:54.001Z</time></trkpt><trkpt lat="44.6638283" lon="8.2902567"><ele>230.25</ele><time>2026-04-12T11:38:54.996Z</time></trkpt><trkpt lat="44.6637583" lon="8.290085"><ele>230.5</ele><time>2026-04-12T11:38:55.997Z</time></trkpt><trkpt lat="44.6636833" lon="8.289915"><ele>230.75</ele><time>2026-04-12T11:38:56.998Z</time></trkpt><trkpt lat="44.6636167" lon="8.2897417"><ele>231.0</ele><time>2026-04-12T11:38:58.001Z</time></trkpt><trkpt lat="44.663565" lon="8.2895583"><ele>231.0</ele><time>2026-04-12T11:38:58.998Z</time></trkpt><trkpt lat="44.6635317" lon="8.2893667"><ele>231.0</ele><time>2026-04-12T11:38:59.999Z</time></trkpt><trkpt lat="44.663515" lon="8.289175"><ele>231.0</ele><time>2026-04-12T11:39:00.997Z</time></trkpt><trkpt lat="44.66351" lon="8.28898"><ele>231.0</ele><time>2026-04-12T11:39:01.999Z</time></trkpt><trkpt lat="44.663505" lon="8.2887867"><ele>232.25</ele><time>2026-04-12T11:39:02.998Z</time></trkpt><trkpt lat="44.6634883" lon="8.288605"><ele>233.5</ele><time>2026-04-12T11:39:03.995Z</time></trkpt><trkpt lat="44.6634567" lon="8.28843"><ele>234.75</ele><time>2026-04-12T11:39:04.996Z</time></trkpt><trkpt lat="44.6634" lon="8.2882983"><ele>236.0</ele><time>2026-04-12T11:39:05.999Z</time></trkpt><trkpt lat="44.6633283" lon="8.2882183"><ele>236.0</ele><time>2026-04-12T11:39:06.998Z</time></trkpt><trkpt lat="44.6632633" lon="8.28818"><ele>236.0</ele><time>2026-04-12T11:39:07.998Z</time></trkpt><trkpt lat="44.6631217" lon="8.28815"><ele>236.0</ele><time>2026-04-12T11:39:09Z</time></trkpt><trkpt lat="44.6629633" lon="8.2881133"><ele>236.0</ele><time>2026-04-12T11:39:09.998Z</time></trkpt><trkpt lat="44.6628117" lon="8.2880967"><ele>236.0</ele><time>2026-04-12T11:39:10.998Z</time></trkpt><trkpt lat="44.66267" lon="8.2881283"><ele>236.0</ele><time>2026-04-12T11:39:12Z</time></trkpt><trkpt lat="44.662535" lon="8.28821"><ele>236.0</ele><time>2026-04-12T11:39:13.001Z</time></trkpt><trkpt lat="44.6624033" lon="8.28833"><ele>236.0</ele><time>2026-04-12T11:39:13.995Z</time></trkpt><trkpt lat="44.6622817" lon="8.288475"><ele>236.0</ele><time>2026-04-12T11:39:15.002Z</time></trkpt><trkpt lat="44.6621683" lon="8.2886217"><ele>236.0</ele><time>2026-04-12T11:39:15.997Z</time></trkpt><trkpt lat="44.6620583" lon="8.288745"><ele>236.0</ele><time>2026-04-12T11:39:16.997Z</time></trkpt><trkpt lat="44.6619517" lon="8.28883"><ele>236.0</ele><time>2026-04-12T11:39:17.998Z</time></trkpt><trkpt lat="44.661855" lon="8.2888683"><ele>238.0</ele><time>2026-04-12T11:39:18.995Z</time></trkpt><trkpt lat="44.6617517" lon="8.2888567"><ele>240.0</ele><time>2026-04-12T11:39:19.996Z</time></trkpt><trkpt lat="44.6616467" lon="8.2887883"><ele>242.0</ele><time>2026-04-12T11:39:20.995Z</time></trkpt><trkpt lat="44.6615483" lon="8.28869"><ele>244.0</ele><time>2026-04-12T11:39:21.997Z</time></trkpt><trkpt lat="44.6614517" lon="8.2885567"><ele>244.0</ele><time>2026-04-12T11:39:23Z</time></trkpt><trkpt lat="44.6613533" lon="8.288405"><ele>244.0</ele><time>2026-04-12T11:39:23.997Z</time></trkpt><trkpt lat="44.661245" lon="8.288255"><ele>244.0</ele><time>2026-04-12T11:39:25Z</time></trkpt><trkpt lat="44.66113" lon="8.2881367"><ele>244.0</ele><time>2026-04-12T11:39:25.999Z</time></trkpt><trkpt lat="44.660995" lon="8.2880633"><ele>245.33333333333331</ele><time>2026-04-12T11:39:27.002Z</time></trkpt><trkpt lat="44.660845" lon="8.2880283"><ele>246.66666666666669</ele><time>2026-04-12T11:39:27.997Z</time></trkpt><trkpt lat="44.6606783" lon="8.2880117"><ele>248.0</ele><time>2026-04-12T11:39:28.997Z</time></trkpt><trkpt lat="44.6604983" lon="8.288005"><ele>248.0</ele><time>2026-04-12T11:39:29.998Z</time></trkpt><trkpt lat="44.6603117" lon="8.2879967"><ele>248.0</ele><time>2026-04-12T11:39:30.998Z</time></trkpt><trkpt lat="44.660115" lon="8.2879883"><ele>248.0</ele><time>2026-04-12T11:39:31.993Z</time></trkpt><trkpt lat="44.6599083" lon="8.28798"><ele>249.33333333333334</ele><time>2026-04-12T11:39:32.997Z</time></trkpt><trkpt lat="44.659705" lon="8.2879717"><ele>250.66666666666669</ele><time>2026-04-12T11:39:34.002Z</time></trkpt><trkpt lat="44.659505" lon="8.2879617"><ele>252.0</ele><time>2026-04-12T11:39:34.997Z</time></trkpt><trkpt lat="44.6593083" lon="8.2879467"><ele>252.33333333333331</ele><time>2026-04-12T11:39:36.001Z</time></trkpt><trkpt lat="44.6591167" lon="8.2879217"><ele>252.66666666666666</ele><time>2026-04-12T11:39:36.998Z</time></trkpt><trkpt lat="44.65893" lon="8.28789"><ele>253.0</ele><time>2026-04-12T11:39:38Z</time></trkpt><trkpt lat="44.6587433" lon="8.2878533"><ele>253.0</ele><time>2026-04-12T11:39:38.997Z</time></trkpt><trkpt lat="44.6585583" lon="8.2878117"><ele>253.0</ele><time>2026-04-12T11:39:39.996Z</time></trkpt><trkpt lat="44.6583733" lon="8.28776"><ele>253.0</ele><time>2026-04-12T11:39:40.999Z</time></trkpt><trkpt lat="44.6581917" lon="8.2877"><ele>253.0</ele><time>2026-04-12T11:39:42.001Z</time></trkpt><trkpt lat="44.6580167" lon="8.2876283"><ele>253.0</ele><time>2026-04-12T11:39:43Z</time></trkpt><trkpt lat="44.6578517" lon="8.2875283"><ele>253.0</ele><time>2026-04-12T11:39:43.997Z</time></trkpt><trkpt lat="44.6576983" lon="8.2874"><ele>254.33333333333331</ele><time>2026-04-12T11:39:44.995Z</time></trkpt><trkpt lat="44.6575583" lon="8.2872483"><ele>255.66666666666669</ele><time>2026-04-12T11:39:46.003Z</time></trkpt><trkpt lat="44.65743" lon="8.2870833"><ele>257.0</ele><time>2026-04-12T11:39:47.002Z</time></trkpt><trkpt lat="44.6573033" lon="8.2869067"><ele>257.0</ele><time>2026-04-12T11:39:47.999Z</time></trkpt><trkpt lat="44.6571783" lon="8.286725"><ele>257.0</ele><time>2026-04-12T11:39:48.998Z</time></trkpt><trkpt lat="44.6570567" lon="8.2865483"><ele>257.0</ele><time>2026-04-12T11:39:49.996Z</time></trkpt><trkpt lat="44.656935" lon="8.28638"><ele>255.75</ele><time>2026-04-12T11:39:50.997Z</time></trkpt><trkpt lat="44.65682" lon="8.286225"><ele>254.5</ele><time>2026-04-12T11:39:51.996Z</time></trkpt><trkpt lat="44.6567267" lon="8.2860783"><ele>253.25</ele><time>2026-04-12T11:39:52.995Z</time></trkpt><trkpt lat="44.656665" lon="8.2859283"><ele>252.0</ele><time>2026-04-12T11:39:53.996Z</time></trkpt><trkpt lat="44.6566283" lon="8.2857667"><ele>250.75</ele><time>2026-04-12T11:39:54.996Z</time></trkpt><trkpt lat="44.6566117" lon="8.2855817"><ele>249.5</ele><time>2026-04-12T11:39:55.995Z</time></trkpt><trkpt lat="44.6566167" lon="8.28538"><ele>248.25</ele><time>2026-04-12T11:39:56.997Z</time></trkpt><trkpt lat="44.6566417" lon="8.285175"><ele>247.0</ele><time>2026-04-12T11:39:57.998Z</time></trkpt><trkpt lat="44.6566917" lon="8.28497"><ele>247.0</ele><time>2026-04-12T11:39:58.994Z</time></trkpt><trkpt lat="44.6567583" lon="8.2847633"><ele>247.0</ele><time>2026-04-12T11:39:59.994Z</time></trkpt><trkpt lat="44.65684" lon="8.2845717"><ele>247.0</ele><time>2026-04-12T11:40:00.998Z</time></trkpt><trkpt lat="44.6569267" lon="8.28438"><ele>252.33333333333331</ele><time>2026-04-12T11:40:01.995Z</time></trkpt><trkpt lat="44.657035" lon="8.2842117"><ele>257.6666666666667</ele><time>2026-04-12T11:40:02.998Z</time></trkpt><trkpt lat="44.6571633" lon="8.2840633"><ele>263.0</ele><time>2026-04-12T11:40:03.999Z</time></trkpt><trkpt lat="44.657305" lon="8.283915"><ele>252.33333333333334</ele><time>2026-04-12T11:40:04.992Z</time></trkpt><trkpt lat="44.6574533" lon="8.28377"><ele>241.66666666666669</ele><time>2026-04-12T11:40:05.999Z</time></trkpt><trkpt lat="44.6576033" lon="8.2836233"><ele>231.0</ele><time>2026-04-12T11:40:06.998Z</time></trkpt><trkpt lat="44.65775" lon="8.2834817"><ele>230.33333333333331</ele><time>2026-04-12T11:40:07.995Z</time></trkpt><trkpt lat="44.6578933" lon="8.2833417"><ele>229.66666666666666</ele><time>2026-04-12T11:40:08.994Z</time></trkpt><trkpt lat="44.6580317" lon="8.283205"><ele>229.0</ele><time>2026-04-12T11:40:09.996Z</time></trkpt><trkpt lat="44.6581717" lon="8.283075"><ele>229.0</ele><time>2026-04-12T11:40:10.998Z</time></trkpt><trkpt lat="44.6583117" lon="8.2829583"><ele>229.0</ele><time>2026-04-12T11:40:11.995Z</time></trkpt><trkpt lat="44.6584517" lon="8.2828533"><ele>229.0</ele><time>2026-04-12T11:40:12.998Z</time></trkpt><trkpt lat="44.6585883" lon="8.2827433"><ele>240.0</ele><time>2026-04-12T11:40:13.996Z</time></trkpt><trkpt lat="44.6587083" lon="8.2826"><ele>251.0</ele><time>2026-04-12T11:40:15.002Z</time></trkpt><trkpt lat="44.65884" lon="8.2824767"><ele>262.0</ele><time>2026-04-12T11:40:15.997Z</time></trkpt><trkpt lat="44.65895" lon="8.2822933"><ele>252.33333333333331</ele><time>2026-04-12T11:40:16.996Z</time></trkpt><trkpt lat="44.65908" lon="8.2821167"><ele>242.66666666666669</ele><time>2026-04-12T11:40:17.994Z</time></trkpt><trkpt lat="44.6592183" lon="8.28195"><ele>233.0</ele><time>2026-04-12T11:40:18.998Z</time></trkpt><trkpt lat="44.65936" lon="8.28178"><ele>231.0</ele><time>2026-04-12T11:40:19.994Z</time></trkpt><trkpt lat="44.659505" lon="8.2816183"><ele>229.0</ele><time>2026-04-12T11:40:21.003Z</time></trkpt><trkpt lat="44.6596517" lon="8.28145"><ele>227.0</ele><time>2026-04-12T11:40:21.997Z</time></trkpt><trkpt lat="44.659805" lon="8.28127"><ele>227.0</ele><time>2026-04-12T11:40:22.995Z</time></trkpt><trkpt lat="44.65996" lon="8.2811017"><ele>227.0</ele><time>2026-04-12T11:40:24.001Z</time></trkpt><trkpt lat="44.660125" lon="8.28095"><ele>227.0</ele><time>2026-04-12T11:40:24.992Z</time></trkpt><trkpt lat="44.6602767" lon="8.2807867"><ele>229.33333333333334</ele><time>2026-04-12T11:40:25.997Z</time></trkpt><trkpt lat="44.6604233" lon="8.2806217"><ele>231.66666666666669</ele><time>2026-04-12T11:40:26.995Z</time></trkpt><trkpt lat="44.6605767" lon="8.2804717"><ele>234.0</ele><time>2026-04-12T11:40:27.998Z</time></trkpt><trkpt lat="44.6607233" lon="8.2803183"><ele>234.0</ele><time>2026-04-12T11:40:28.993Z</time></trkpt><trkpt lat="44.6608617" lon="8.2801683"><ele>234.0</ele><time>2026-04-12T11:40:29.998Z</time></trkpt><trkpt lat="44.6609767" lon="8.2800267"><ele>234.0</ele><time>2026-04-12T11:40:30.996Z</time></trkpt><trkpt lat="44.6610583" lon="8.2798567"><ele>237.25</ele><time>2026-04-12T11:40:31.996Z</time></trkpt><trkpt lat="44.661125" lon="8.2796733"><ele>240.5</ele><time>2026-04-12T11:40:32.996Z</time></trkpt><trkpt lat="44.6611733" lon="8.2794767"><ele>243.75</ele><time>2026-04-12T11:40:34Z</time></trkpt><trkpt lat="44.6612317" lon="8.2792817"><ele>247.0</ele><time>2026-04-12T11:40:35Z</time></trkpt><trkpt lat="44.6613067" lon="8.2791117"><ele>247.0</ele><time>2026-04-12T11:40:35.998Z</time></trkpt><trkpt lat="44.6614217" lon="8.2789833"><ele>247.0</ele><time>2026-04-12T11:40:37.003Z</time></trkpt><trkpt lat="44.6615483" lon="8.2788617"><ele>247.0</ele><time>2026-04-12T11:40:37.998Z</time></trkpt><trkpt lat="44.6616817" lon="8.2787333"><ele>242.0</ele><time>2026-04-12T11:40:39Z</time></trkpt><trkpt lat="44.6618233" lon="8.2786117"><ele>237.0</ele><time>2026-04-12T11:40:40Z</time></trkpt><trkpt lat="44.6619717" lon="8.2784983"><ele>232.0</ele><time>2026-04-12T11:40:40.999Z</time></trkpt><trkpt lat="44.6621283" lon="8.2783933"><ele>232.0</ele><time>2026-04-12T11:40:41.999Z</time></trkpt><trkpt lat="44.6622917" lon="8.2783017"><ele>232.0</ele><time>2026-04-12T11:40:42.998Z</time></trkpt><trkpt lat="44.6624633" lon="8.278215"><ele>232.0</ele><time>2026-04-12T11:40:43.997Z</time></trkpt><trkpt lat="44.6626333" lon="8.2781367"><ele>228.33333333333331</ele><time>2026-04-12T11:40:44.995Z</time></trkpt><trkpt lat="44.6627933" lon="8.2780617"><ele>224.66666666666669</ele><time>2026-04-12T11:40:45.996Z</time></trkpt><trkpt lat="44.6629583" lon="8.27799"><ele>221.0</ele><time>2026-04-12T11:40:46.998Z</time></trkpt><trkpt lat="44.6631117" lon="8.2779267"><ele>221.0</ele><time>2026-04-12T11:40:47.998Z</time></trkpt><trkpt lat="44.6632533" lon="8.27785"><ele>221.0</ele><time>2026-04-12T11:40:48.998Z</time></trkpt><trkpt lat="44.66338" lon="8.277735"><ele>221.0</ele><time>2026-04-12T11:40:50Z</time></trkpt><trkpt lat="44.6634817" lon="8.2775967"><ele>221.0</ele><time>2026-04-12T11:40:51.001Z</time></trkpt><trkpt lat="44.6635817" lon="8.2774267"><ele>221.33333333333334</ele><time>2026-04-12T11:40:52.001Z</time></trkpt><trkpt lat="44.6636817" lon="8.2772383"><ele>221.66666666666669</ele><time>2026-04-12T11:40:52.997Z</time></trkpt><trkpt lat="44.6637883" lon="8.2770533"><ele>222.0</ele><time>2026-04-12T11:40:53.999Z</time></trkpt><trkpt lat="44.6638967" lon="8.2768767"><ele>222.0</ele><time>2026-04-12T11:40:55Z</time></trkpt><trkpt lat="44.6640133" lon="8.27671"><ele>222.0</ele><time>2026-04-12T11:40:56.004Z</time></trkpt><trkpt lat="44.66413" lon="8.2765533"><ele>222.0</ele><time>2026-04-12T11:40:56.999Z</time></trkpt><trkpt lat="44.6642333" lon="8.276395"><ele>218.33333333333331</ele><time>2026-04-12T11:40:57.999Z</time></trkpt><trkpt lat="44.6643217" lon="8.2762217"><ele>214.66666666666666</ele><time>2026-04-12T11:40:58.996Z</time></trkpt><trkpt lat="44.66439" lon="8.276025"><ele>211.0</ele><time>2026-04-12T11:41:00.003Z</time></trkpt><trkpt lat="44.6644283" lon="8.2758133"><ele>220.0</ele><time>2026-04-12T11:41:00.999Z</time></trkpt><trkpt lat="44.66445" lon="8.2755933"><ele>229.0</ele><time>2026-04-12T11:41:02.001Z</time></trkpt><trkpt lat="44.6644717" lon="8.27537"><ele>238.0</ele><time>2026-04-12T11:41:02.998Z</time></trkpt><trkpt lat="44.6645" lon="8.2751417"><ele>238.0</ele><time>2026-04-12T11:41:03.997Z</time></trkpt><trkpt lat="44.6645233" lon="8.2749117"><ele>238.0</ele><time>2026-04-12T11:41:05.001Z</time></trkpt><trkpt lat="44.664545" lon="8.2746833"><ele>238.0</ele><time>2026-04-12T11:41:05.995Z</time></trkpt><trkpt lat="44.66456" lon="8.27445"><ele>235.66666666666666</ele><time>2026-04-12T11:41:07Z</time></trkpt><trkpt lat="44.6645583" lon="8.2742133"><ele>233.33333333333331</ele><time>2026-04-12T11:41:08Z</time></trkpt><trkpt lat="44.6645333" lon="8.2739733"><ele>231.0</ele><time>2026-04-12T11:41:08.998Z</time></trkpt><trkpt lat="44.664495" lon="8.2737333"><ele>226.66666666666669</ele><time>2026-04-12T11:41:09.996Z</time></trkpt><trkpt lat="44.6644433" lon="8.2734967"><ele>222.33333333333334</ele><time>2026-04-12T11:41:10.996Z</time></trkpt><trkpt lat="44.66439" lon="8.2732617"><ele>218.0</ele><time>2026-04-12T11:41:11.995Z</time></trkpt><trkpt lat="44.6643383" lon="8.273035"><ele>218.0</ele><time>2026-04-12T11:41:13.004Z</time></trkpt><trkpt lat="44.6642817" lon="8.2728217"><ele>218.0</ele><time>2026-04-12T11:41:13.996Z</time></trkpt><trkpt lat="44.6642033" lon="8.27262"><ele>218.0</ele><time>2026-04-12T11:41:14.999Z</time></trkpt><trkpt lat="44.6641017" lon="8.2724367"><ele>221.66666666666669</ele><time>2026-04-12T11:41:15.995Z</time></trkpt><trkpt lat="44.6639917" lon="8.2722717"><ele>225.33333333333331</ele><time>2026-04-12T11:41:16.997Z</time></trkpt><trkpt lat="44.6638717" lon="8.2721067"><ele>229.0</ele><time>2026-04-12T11:41:18Z</time></trkpt><trkpt lat="44.6637417" lon="8.271945"><ele>229.0</ele><time>2026-04-12T11:41:18.997Z</time></trkpt><trkpt lat="44.663615" lon="8.2717817"><ele>229.0</ele><time>2026-04-12T11:41:19.998Z</time></trkpt><trkpt lat="44.6635" lon="8.2716"><ele>229.0</ele><time>2026-04-12T11:41:21Z</time></trkpt><trkpt lat="44.6633567" lon="8.27146"><ele>225.33333333333331</ele><time>2026-04-12T11:41:21.997Z</time></trkpt><trkpt lat="44.663225" lon="8.2713033"><ele>221.66666666666669</ele><time>2026-04-12T11:41:22.996Z</time></trkpt><trkpt lat="44.663095" lon="8.2711517"><ele>218.0</ele><time>2026-04-12T11:41:23.998Z</time></trkpt><trkpt lat="44.66297" lon="8.271005"><ele>218.0</ele><time>2026-04-12T11:41:25.007Z</time></trkpt><trkpt lat="44.66285" lon="8.2708717"><ele>218.0</ele><time>2026-04-12T11:41:26.002Z</time></trkpt><trkpt lat="44.6627183" lon="8.2707783"><ele>218.0</ele><time>2026-04-12T11:41:26.996Z</time></trkpt><trkpt lat="44.6625983" lon="8.2706683"><ele>218.0</ele><time>2026-04-12T11:41:28Z</time></trkpt><trkpt lat="44.662475" lon="8.2705567"><ele>215.25</ele><time>2026-04-12T11:41:28.998Z</time></trkpt><trkpt lat="44.6623533" lon="8.270445"><ele>212.5</ele><time>2026-04-12T11:41:29.999Z</time></trkpt><trkpt lat="44.6622333" lon="8.2703283"><ele>209.75</ele><time>2026-04-12T11:41:31Z</time></trkpt><trkpt lat="44.6621083" lon="8.2702133"><ele>207.0</ele><time>2026-04-12T11:41:31.997Z</time></trkpt><trkpt lat="44.661985" lon="8.2701017"><ele>206.5</ele><time>2026-04-12T11:41:33.003Z</time></trkpt><trkpt lat="44.6618583" lon="8.2699967"><ele>206.0</ele><time>2026-04-12T11:41:34.001Z</time></trkpt><trkpt lat="44.66173" lon="8.2699"><ele>205.5</ele><time>2026-04-12T11:41:34.995Z</time></trkpt><trkpt lat="44.6616117" lon="8.26982"><ele>205.0</ele><time>2026-04-12T11:41:36Z</time></trkpt><trkpt lat="44.6615033" lon="8.2697567"><ele>207.49999999999997</ele><time>2026-04-12T11:41:37.002Z</time></trkpt><trkpt lat="44.6614033" lon="8.2697133"><ele>210.0</ele><time>2026-04-12T11:41:37.992Z</time></trkpt><trkpt lat="44.6613217" lon="8.269685"><ele>212.5</ele><time>2026-04-12T11:41:38.996Z</time></trkpt><trkpt lat="44.6612467" lon="8.26967"><ele>215.0</ele><time>2026-04-12T11:41:39.998Z</time></trkpt><trkpt lat="44.6611417" lon="8.2696133"><ele>217.49999999999997</ele><time>2026-04-12T11:41:41.999Z</time></trkpt><trkpt lat="44.6611583" lon="8.26952"><ele>220.0</ele><time>2026-04-12T11:41:44.997Z</time></trkpt><trkpt lat="44.66127" lon="8.2695317"><ele>220.0</ele><time>2026-04-12T11:41:46.996Z</time></trkpt><trkpt lat="44.661345" lon="8.2695767"><ele>220.0</ele><time>2026-04-12T11:41:47.998Z</time></trkpt><trkpt lat="44.6614317" lon="8.269625"><ele>220.0</ele><time>2026-04-12T11:41:48.997Z</time></trkpt><trkpt lat="44.661525" lon="8.2696783"><ele>220.0</ele><time>2026-04-12T11:41:49.999Z</time></trkpt><trkpt lat="44.6616167" lon="8.2697267"><ele>220.0</ele><time>2026-04-12T11:41:50.998Z</time></trkpt><trkpt lat="44.6617017" lon="8.2697667"><ele>219.83333333333331</ele><time>2026-04-12T11:41:51.997Z</time></trkpt><trkpt lat="44.66179" lon="8.269795"><ele>219.66666666666666</ele><time>2026-04-12T11:41:52.997Z</time></trkpt><trkpt lat="44.6618733" lon="8.2698133"><ele>219.5</ele><time>2026-04-12T11:41:54Z</time></trkpt><trkpt lat="44.66195" lon="8.2697717"><ele>219.33333333333331</ele><time>2026-04-12T11:41:54.999Z</time></trkpt><trkpt lat="44.6620333" lon="8.2697217"><ele>219.16666666666666</ele><time>2026-04-12T11:41:55.997Z</time></trkpt><trkpt lat="44.6621133" lon="8.2696617"><ele>219.0</ele><time>2026-04-12T11:41:56.994Z</time></trkpt><trkpt lat="44.6621983" lon="8.269615"><ele>219.0</ele><time>2026-04-12T11:41:57.999Z</time></trkpt><trkpt lat="44.6622817" lon="8.2695783"><ele>219.0</ele><time>2026-04-12T11:41:58.997Z</time></trkpt><trkpt lat="44.6623617" lon="8.2695533"><ele>219.0</ele><time>2026-04-12T11:41:59.995Z</time></trkpt><trkpt lat="44.6624333" lon="8.26952"><ele>219.0</ele><time>2026-04-12T11:42:00.999Z</time></trkpt><trkpt lat="44.6624933" lon="8.2694717"><ele>219.0</ele><time>2026-04-12T11:42:01.995Z</time></trkpt><trkpt lat="44.6625083" lon="8.2693233"><ele>219.0</ele><time>2026-04-12T11:42:03.997Z</time></trkpt><trkpt lat="44.66245" lon="8.269225"><ele>219.0</ele><time>2026-04-12T11:42:06.005Z</time></trkpt><trkpt lat="44.662385" lon="8.2692567"><ele>219.0</ele><time>2026-04-12T11:42:06.997Z</time></trkpt><trkpt lat="44.6623233" lon="8.269285"><ele>219.0</ele><time>2026-04-12T11:42:07.999Z</time></trkpt><trkpt lat="44.662255" lon="8.26933"><ele>219.0</ele><time>2026-04-12T11:42:08.998Z</time></trkpt><trkpt lat="44.6621783" lon="8.2693833"><ele>219.0</ele><time>2026-04-12T11:42:09.995Z</time></trkpt><trkpt lat="44.6620917" lon="8.2694417"><ele>219.0</ele><time>2026-04-12T11:42:11Z</time></trkpt><trkpt lat="44.6620133" lon="8.26948"><ele>219.2</ele><time>2026-04-12T11:42:11.997Z</time></trkpt><trkpt lat="44.6619333" lon="8.2695033"><ele>219.39999999999998</ele><time>2026-04-12T11:42:12.997Z</time></trkpt><trkpt lat="44.661855" lon="8.2694883"><ele>219.6</ele><time>2026-04-12T11:42:14.001Z</time></trkpt><trkpt lat="44.66176" lon="8.269425"><ele>219.8</ele><time>2026-04-12T11:42:15Z</time></trkpt><trkpt lat="44.6616617" lon="8.26933"><ele>220.0</ele><time>2026-04-12T11:42:15.998Z</time></trkpt><trkpt lat="44.6615417" lon="8.26924"><ele>220.0</ele><time>2026-04-12T11:42:16.995Z</time></trkpt><trkpt lat="44.6614083" lon="8.2691333"><ele>220.0</ele><time>2026-04-12T11:42:17.997Z</time></trkpt><trkpt lat="44.6612717" lon="8.2690133"><ele>220.0</ele><time>2026-04-12T11:42:18.996Z</time></trkpt><trkpt lat="44.6611283" lon="8.26889"><ele>221.66666666666666</ele><time>2026-04-12T11:42:19.995Z</time></trkpt><trkpt lat="44.6609767" lon="8.2687617"><ele>223.33333333333331</ele><time>2026-04-12T11:42:20.999Z</time></trkpt><trkpt lat="44.6608267" lon="8.2686367"><ele>225.0</ele><time>2026-04-12T11:42:21.996Z</time></trkpt><trkpt lat="44.6606817" lon="8.268515"><ele>225.0</ele><time>2026-04-12T11:42:22.995Z</time></trkpt><trkpt lat="44.6605467" lon="8.2684033"><ele>225.0</ele><time>2026-04-12T11:42:24.004Z</time></trkpt><trkpt lat="44.6604167" lon="8.2683167"><ele>225.0</ele><time>2026-04-12T11:42:24.995Z</time></trkpt><trkpt lat="44.660295" lon="8.268265"><ele>225.0</ele><time>2026-04-12T11:42:25.994Z</time></trkpt><trkpt lat="44.6601667" lon="8.2682417"><ele>224.75</ele><time>2026-04-12T11:42:27.002Z</time></trkpt><trkpt lat="44.6600383" lon="8.2682267"><ele>224.5</ele><time>2026-04-12T11:42:27.996Z</time></trkpt><trkpt lat="44.6599183" lon="8.268195"><ele>224.25</ele><time>2026-04-12T11:42:28.998Z</time></trkpt><trkpt lat="44.6598083" lon="8.2681283"><ele>224.0</ele><time>2026-04-12T11:42:30Z</time></trkpt><trkpt lat="44.6596983" lon="8.268035"><ele>226.0</ele><time>2026-04-12T11:42:31Z</time></trkpt><trkpt lat="44.6595867" lon="8.267945"><ele>228.0</ele><time>2026-04-12T11:42:32.001Z</time></trkpt><trkpt lat="44.6594733" lon="8.2678817"><ele>230.0</ele><time>2026-04-12T11:42:33Z</time></trkpt><trkpt lat="44.6593517" lon="8.267845"><ele>232.0</ele><time>2026-04-12T11:42:34.003Z</time></trkpt><trkpt lat="44.6592417" lon="8.2678267"><ele>231.99999999999997</ele><time>2026-04-12T11:42:34.998Z</time></trkpt><trkpt lat="44.6591517" lon="8.2677967"><ele>232.0</ele><time>2026-04-12T11:42:35.995Z</time></trkpt><trkpt lat="44.6590783" lon="8.2677433"><ele>232.0</ele><time>2026-04-12T11:42:36.996Z</time></trkpt><trkpt lat="44.6590233" lon="8.2676733"><ele>232.0</ele><time>2026-04-12T11:42:37.994Z</time></trkpt><trkpt lat="44.65901" lon="8.2675183"><ele>231.99999999999997</ele><time>2026-04-12T11:42:40.01Z</time></trkpt><trkpt lat="44.659085" lon="8.2674667"><ele>232.0</ele><time>2026-04-12T11:42:40.993Z</time></trkpt><trkpt lat="44.6592517" lon="8.267475"><ele>232.0</ele><time>2026-04-12T11:42:41.993Z</time></trkpt><trkpt lat="44.659395" lon="8.2674767"><ele>232.0</ele><time>2026-04-12T11:42:42.998Z</time></trkpt><trkpt lat="44.6595533" lon="8.2674583"><ele>232.0</ele><time>2026-04-12T11:42:44Z</time></trkpt><trkpt lat="44.659695" lon="8.2674283"><ele>232.0</ele><time>2026-04-12T11:42:44.994Z</time></trkpt><trkpt lat="44.6598417" lon="8.2673683"><ele>233.66666666666666</ele><time>2026-04-12T11:42:45.994Z</time></trkpt><trkpt lat="44.659995" lon="8.26728"><ele>235.33333333333331</ele><time>2026-04-12T11:42:46.997Z</time></trkpt><trkpt lat="44.6601517" lon="8.26718"><ele>237.0</ele><time>2026-04-12T11:42:47.994Z</time></trkpt><trkpt lat="44.660315" lon="8.26707"><ele>243.0</ele><time>2026-04-12T11:42:48.998Z</time></trkpt><trkpt lat="44.6604783" lon="8.2669533"><ele>249.0</ele><time>2026-04-12T11:42:49.997Z</time></trkpt><trkpt lat="44.660645" lon="8.2668433"><ele>255.0</ele><time>2026-04-12T11:42:50.996Z</time></trkpt><trkpt lat="44.6608117" lon="8.2667367"><ele>255.0</ele><time>2026-04-12T11:42:51.997Z</time></trkpt><trkpt lat="44.660975" lon="8.2666317"><ele>255.0</ele><time>2026-04-12T11:42:52.998Z</time></trkpt><trkpt lat="44.661135" lon="8.266525"><ele>255.0</ele><time>2026-04-12T11:42:53.995Z</time></trkpt><trkpt lat="44.66129" lon="8.26643"><ele>257.75</ele><time>2026-04-12T11:42:54.997Z</time></trkpt><trkpt lat="44.6614333" lon="8.2663417"><ele>260.5</ele><time>2026-04-12T11:42:55.995Z</time></trkpt><trkpt lat="44.6615633" lon="8.2662567"><ele>263.25</ele><time>2026-04-12T11:42:56.996Z</time></trkpt><trkpt lat="44.66168" lon="8.2661683"><ele>266.0</ele><time>2026-04-12T11:42:57.995Z</time></trkpt><trkpt lat="44.6617867" lon="8.2660717"><ele>266.0</ele><time>2026-04-12T11:42:58.996Z</time></trkpt><trkpt lat="44.6618883" lon="8.2659667"><ele>266.0</ele><time>2026-04-12T11:42:59.999Z</time></trkpt><trkpt lat="44.6619833" lon="8.2658467"><ele>266.0</ele><time>2026-04-12T11:43:00.994Z</time></trkpt><trkpt lat="44.6620817" lon="8.2657183"><ele>266.0</ele><time>2026-04-12T11:43:01.998Z</time></trkpt><trkpt lat="44.6621817" lon="8.2656"><ele>268.0</ele><time>2026-04-12T11:43:02.997Z</time></trkpt><trkpt lat="44.66229" lon="8.265495"><ele>270.0</ele><time>2026-04-12T11:43:03.996Z</time></trkpt><trkpt lat="44.6624083" lon="8.2653967"><ele>272.0</ele><time>2026-04-12T11:43:04.993Z</time></trkpt><trkpt lat="44.662535" lon="8.2653167"><ele>274.0</ele><time>2026-04-12T11:43:05.993Z</time></trkpt><trkpt lat="44.662665" lon="8.26525"><ele>273.75</ele><time>2026-04-12T11:43:06.994Z</time></trkpt><trkpt lat="44.6627967" lon="8.2651867"><ele>273.5</ele><time>2026-04-12T11:43:07.995Z</time></trkpt><trkpt lat="44.6629283" lon="8.26512"><ele>273.25</ele><time>2026-04-12T11:43:08.996Z</time></trkpt><trkpt lat="44.6630633" lon="8.2650483"><ele>273.0</ele><time>2026-04-12T11:43:09.998Z</time></trkpt><trkpt lat="44.663195" lon="8.2649767"><ele>273.0</ele><time>2026-04-12T11:43:10.994Z</time></trkpt><trkpt lat="44.6633233" lon="8.26491"><ele>273.0</ele><time>2026-04-12T11:43:11.997Z</time></trkpt><trkpt lat="44.6634483" lon="8.2648417"><ele>273.0</ele><time>2026-04-12T11:43:12.998Z</time></trkpt><trkpt lat="44.6635717" lon="8.2647767"><ele>273.0</ele><time>2026-04-12T11:43:13.997Z</time></trkpt><trkpt lat="44.6636917" lon="8.2647117"><ele>275.0</ele><time>2026-04-12T11:43:15.001Z</time></trkpt><trkpt lat="44.6637983" lon="8.2646533"><ele>277.0</ele><time>2026-04-12T11:43:15.997Z</time></trkpt><trkpt lat="44.6638717" lon="8.2646117"><ele>279.0</ele><time>2026-04-12T11:43:16.998Z</time></trkpt><trkpt lat="44.6639617" lon="8.264535"><ele>281.0</ele><time>2026-04-12T11:43:19.001Z</time></trkpt><trkpt lat="44.6640333" lon="8.264375"><ele>283.0</ele><time>2026-04-12T11:43:21.002Z</time></trkpt><trkpt lat="44.6640567" lon="8.264255"><ele>283.0</ele><time>2026-04-12T11:43:21.998Z</time></trkpt><trkpt lat="44.66408" lon="8.264135"><ele>283.0</ele><time>2026-04-12T11:43:22.997Z</time></trkpt><trkpt lat="44.6641133" lon="8.2640267"><ele>283.0</ele><time>2026-04-12T11:43:23.996Z</time></trkpt><trkpt lat="44.6641567" lon="8.2639317"><ele>283.0</ele><time>2026-04-12T11:43:24.997Z</time></trkpt><trkpt lat="44.6642283" lon="8.26389"><ele>283.0</ele><time>2026-04-12T11:43:25.995Z</time></trkpt><trkpt lat="44.6643383" lon="8.2639283"><ele>283.0</ele><time>2026-04-12T11:43:26.997Z</time></trkpt><trkpt lat="44.6644383" lon="8.2639483"><ele>283.0</ele><time>2026-04-12T11:43:27.996Z</time></trkpt><trkpt lat="44.6645583" lon="8.263955"><ele>283.0</ele><time>2026-04-12T11:43:28.994Z</time></trkpt><trkpt lat="44.6646767" lon="8.2639267"><ele>283.0</ele><time>2026-04-12T11:43:29.994Z</time></trkpt><trkpt lat="44.6647883" lon="8.2638833"><ele>283.0</ele><time>2026-04-12T11:43:30.995Z</time></trkpt><trkpt lat="44.66489" lon="8.2638383"><ele>284.5</ele><time>2026-04-12T11:43:31.996Z</time></trkpt><trkpt lat="44.6649683" lon="8.2637917"><ele>286.0</ele><time>2026-04-12T11:43:32.997Z</time></trkpt><trkpt lat="44.665025" lon="8.263735"><ele>287.5</ele><time>2026-04-12T11:43:33.997Z</time></trkpt><trkpt lat="44.6650667" lon="8.2636667"><ele>289.0</ele><time>2026-04-12T11:43:35Z</time></trkpt><trkpt lat="44.6650633" lon="8.263575"><ele>290.5</ele><time>2026-04-12T11:43:36.997Z</time></trkpt><trkpt lat="44.66502" lon="8.2636767"><ele>292.0</ele><time>2026-04-12T11:43:47.995Z</time></trkpt><trkpt lat="44.6649417" lon="8.2637733"><ele>292.0</ele><time>2026-04-12T11:43:49.997Z</time></trkpt><trkpt lat="44.6648867" lon="8.2638183"><ele>292.0</ele><time>2026-04-12T11:43:51Z</time></trkpt><trkpt lat="44.6648167" lon="8.26386"><ele>292.0</ele><time>2026-04-12T11:43:52Z</time></trkpt><trkpt lat="44.6647417" lon="8.2638967"><ele>292.0</ele><time>2026-04-12T11:43:52.996Z</time></trkpt><trkpt lat="44.6646617" lon="8.2639317"><ele>292.0</ele><time>2026-04-12T11:43:54.001Z</time></trkpt><trkpt lat="44.66457" lon="8.263955"><ele>292.0</ele><time>2026-04-12T11:43:54.996Z</time></trkpt><trkpt lat="44.6644717" lon="8.2639467"><ele>292.3333333333333</ele><time>2026-04-12T11:43:55.996Z</time></trkpt><trkpt lat="44.66437" lon="8.263925"><ele>292.66666666666663</ele><time>2026-04-12T11:43:56.995Z</time></trkpt><trkpt lat="44.6642783" lon="8.2639117"><ele>293.0</ele><time>2026-04-12T11:43:58Z</time></trkpt><trkpt lat="44.66419" lon="8.2639167"><ele>293.3333333333333</ele><time>2026-04-12T11:43:58.995Z</time></trkpt><trkpt lat="44.6641317" lon="8.2639717"><ele>293.6666666666667</ele><time>2026-04-12T11:43:59.999Z</time></trkpt><trkpt lat="44.6640883" lon="8.2640817"><ele>294.0</ele><time>2026-04-12T11:44:00.998Z</time></trkpt><trkpt lat="44.6640533" lon="8.2641983"><ele>291.8</ele><time>2026-04-12T11:44:02.001Z</time></trkpt><trkpt lat="44.6640217" lon="8.2643233"><ele>289.59999999999997</ele><time>2026-04-12T11:44:02.995Z</time></trkpt><trkpt lat="44.663965" lon="8.2644483"><ele>287.4</ele><time>2026-04-12T11:44:03.997Z</time></trkpt><trkpt lat="44.6638817" lon="8.264545"><ele>285.2</ele><time>2026-04-12T11:44:05.001Z</time></trkpt><trkpt lat="44.6637867" lon="8.2646233"><ele>283.0</ele><time>2026-04-12T11:44:05.996Z</time></trkpt><trkpt lat="44.6636833" lon="8.2646883"><ele>283.25</ele><time>2026-04-12T11:44:07Z</time></trkpt><trkpt lat="44.6635717" lon="8.2647533"><ele>283.5</ele><time>2026-04-12T11:44:07.998Z</time></trkpt><trkpt lat="44.6634533" lon="8.264825"><ele>283.75</ele><time>2026-04-12T11:44:08.993Z</time></trkpt><trkpt lat="44.6633217" lon="8.2648933"><ele>284.0</ele><time>2026-04-12T11:44:09.997Z</time></trkpt><trkpt lat="44.6631883" lon="8.26496"><ele>281.5</ele><time>2026-04-12T11:44:10.993Z</time></trkpt><trkpt lat="44.6630617" lon="8.265025"><ele>279.0</ele><time>2026-04-12T11:44:11.993Z</time></trkpt><trkpt lat="44.6629383" lon="8.2650933"><ele>276.5</ele><time>2026-04-12T11:44:12.993Z</time></trkpt><trkpt lat="44.6628167" lon="8.2651583"><ele>274.0</ele><time>2026-04-12T11:44:13.996Z</time></trkpt><trkpt lat="44.6626967" lon="8.2652133"><ele>274.0</ele><time>2026-04-12T11:44:14.992Z</time></trkpt><trkpt lat="44.6625833" lon="8.26527"><ele>274.0</ele><time>2026-04-12T11:44:15.994Z</time></trkpt><trkpt lat="44.6624733" lon="8.2653267"><ele>274.0</ele><time>2026-04-12T11:44:16.995Z</time></trkpt><trkpt lat="44.6623667" lon="8.26539"><ele>274.0</ele><time>2026-04-12T11:44:17.996Z</time></trkpt><trkpt lat="44.6622667" lon="8.265465"><ele>274.0</ele><time>2026-04-12T11:44:18.996Z</time></trkpt><trkpt lat="44.6621683" lon="8.2655617"><ele>274.0</ele><time>2026-04-12T11:44:19.997Z</time></trkpt><trkpt lat="44.6620717" lon="8.265675"><ele>274.0</ele><time>2026-04-12T11:44:20.996Z</time></trkpt><trkpt lat="44.661975" lon="8.2657983"><ele>274.0</ele><time>2026-04-12T11:44:21.995Z</time></trkpt><trkpt lat="44.6618767" lon="8.265915"><ele>272.0</ele><time>2026-04-12T11:44:22.999Z</time></trkpt><trkpt lat="44.661775" lon="8.266025"><ele>270.0</ele><time>2026-04-12T11:44:23.998Z</time></trkpt><trkpt lat="44.661665" lon="8.2661167"><ele>268.0</ele><time>2026-04-12T11:44:24.996Z</time></trkpt><trkpt lat="44.6615433" lon="8.266205"><ele>266.0</ele><time>2026-04-12T11:44:25.999Z</time></trkpt><trkpt lat="44.6614167" lon="8.2662917"><ele>266.0</ele><time>2026-04-12T11:44:26.997Z</time></trkpt><trkpt lat="44.6612867" lon="8.2663817"><ele>266.0</ele><time>2026-04-12T11:44:27.998Z</time></trkpt><trkpt lat="44.6611517" lon="8.2664717"><ele>266.0</ele><time>2026-04-12T11:44:28.995Z</time></trkpt><trkpt lat="44.6610167" lon="8.266565"><ele>266.0</ele><time>2026-04-12T11:44:29.995Z</time></trkpt><trkpt lat="44.66088" lon="8.266665"><ele>262.33333333333337</ele><time>2026-04-12T11:44:30.995Z</time></trkpt><trkpt lat="44.6607383" lon="8.26676"><ele>258.6666666666667</ele><time>2026-04-12T11:44:31.997Z</time></trkpt><trkpt lat="44.6605933" lon="8.266855"><ele>255.0</ele><time>2026-04-12T11:44:32.996Z</time></trkpt><trkpt lat="44.660445" lon="8.26695"><ele>255.0</ele><time>2026-04-12T11:44:33.994Z</time></trkpt><trkpt lat="44.6603" lon="8.2670467"><ele>255.0</ele><time>2026-04-12T11:44:34.998Z</time></trkpt><trkpt lat="44.6601567" lon="8.26715"><ele>255.0</ele><time>2026-04-12T11:44:35.993Z</time></trkpt><trkpt lat="44.660015" lon="8.2672533"><ele>249.0</ele><time>2026-04-12T11:44:36.996Z</time></trkpt><trkpt lat="44.6598733" lon="8.2673483"><ele>243.0</ele><time>2026-04-12T11:44:37.994Z</time></trkpt><trkpt lat="44.6597333" lon="8.26743"><ele>237.0</ele><time>2026-04-12T11:44:38.997Z</time></trkpt><trkpt lat="44.65959" lon="8.2674833"><ele>237.0</ele><time>2026-04-12T11:44:39.992Z</time></trkpt><trkpt lat="44.6594533" lon="8.2675"><ele>237.0</ele><time>2026-04-12T11:44:41Z</time></trkpt><trkpt lat="44.6593217" lon="8.2675083"><ele>237.0</ele><time>2026-04-12T11:44:41.995Z</time></trkpt><trkpt lat="44.6592183" lon="8.2675133"><ele>237.0</ele><time>2026-04-12T11:44:42.997Z</time></trkpt><trkpt lat="44.65914" lon="8.26753"><ele>236.0</ele><time>2026-04-12T11:44:43.998Z</time></trkpt><trkpt lat="44.6590767" lon="8.2675617"><ele>235.0</ele><time>2026-04-12T11:44:44.997Z</time></trkpt><trkpt lat="44.659055" lon="8.2676967"><ele>234.0</ele><time>2026-04-12T11:44:47.001Z</time></trkpt><trkpt lat="44.6590983" lon="8.267835"><ele>233.0</ele><time>2026-04-12T11:44:48.997Z</time></trkpt><trkpt lat="44.6592033" lon="8.2678933"><ele>232.0</ele><time>2026-04-12T11:44:51.002Z</time></trkpt><trkpt lat="44.6592767" lon="8.2679317"><ele>231.99999999999997</ele><time>2026-04-12T11:44:52.996Z</time></trkpt><trkpt lat="44.6592117" lon="8.267955"><ele>232.0</ele><time>2026-04-12T11:44:56.998Z</time></trkpt><trkpt lat="44.6591483" lon="8.2679417"><ele>232.0</ele><time>2026-04-12T11:44:57.994Z</time></trkpt><trkpt lat="44.659055" lon="8.26794"><ele>232.0</ele><time>2026-04-12T11:44:58.994Z</time></trkpt><trkpt lat="44.6589667" lon="8.2679367"><ele>231.99999999999997</ele><time>2026-04-12T11:44:59.995Z</time></trkpt><trkpt lat="44.658875" lon="8.2679283"><ele>232.0</ele><time>2026-04-12T11:45:00.999Z</time></trkpt><trkpt lat="44.6587817" lon="8.26791"><ele>232.0</ele><time>2026-04-12T11:45:01.996Z</time></trkpt><trkpt lat="44.658685" lon="8.2678867"><ele>232.0</ele><time>2026-04-12T11:45:02.994Z</time></trkpt><trkpt lat="44.6585917" lon="8.2678583"><ele>232.0</ele><time>2026-04-12T11:45:03.995Z</time></trkpt><trkpt lat="44.6584917" lon="8.2678333"><ele>232.0</ele><time>2026-04-12T11:45:04.992Z</time></trkpt><trkpt lat="44.658385" lon="8.26781"><ele>232.0</ele><time>2026-04-12T11:45:05.996Z</time></trkpt><trkpt lat="44.658275" lon="8.2677917"><ele>231.8</ele><time>2026-04-12T11:45:06.996Z</time></trkpt><trkpt lat="44.658165" lon="8.2677567"><ele>231.6</ele><time>2026-04-12T11:45:07.992Z</time></trkpt><trkpt lat="44.6580567" lon="8.267745"><ele>231.40000000000003</ele><time>2026-04-12T11:45:09Z</time></trkpt><trkpt lat="44.6579567" lon="8.2677433"><ele>231.20000000000002</ele><time>2026-04-12T11:45:09.996Z</time></trkpt><trkpt lat="44.6578683" lon="8.26774"><ele>231.0</ele><time>2026-04-12T11:45:10.993Z</time></trkpt><trkpt lat="44.6577817" lon="8.2677367"><ele>228.33333333333334</ele><time>2026-04-12T11:45:11.995Z</time></trkpt><trkpt lat="44.6577033" lon="8.2677183"><ele>225.66666666666669</ele><time>2026-04-12T11:45:12.996Z</time></trkpt><trkpt lat="44.6576167" lon="8.2677"><ele>223.0</ele><time>2026-04-12T11:45:13.997Z</time></trkpt><trkpt lat="44.65753" lon="8.2676633"><ele>220.33333333333334</ele><time>2026-04-12T11:45:14.995Z</time></trkpt><trkpt lat="44.6574433" lon="8.26761"><ele>217.66666666666669</ele><time>2026-04-12T11:45:15.993Z</time></trkpt><trkpt lat="44.6573617" lon="8.267555"><ele>215.0</ele><time>2026-04-12T11:45:16.997Z</time></trkpt><trkpt lat="44.6572867" lon="8.2675217"><ele>215.0</ele><time>2026-04-12T11:45:17.994Z</time></trkpt><trkpt lat="44.657175" lon="8.2674767"><ele>215.0</ele><time>2026-04-12T11:45:20Z</time></trkpt><trkpt lat="44.6570983" lon="8.26743"><ele>215.0</ele><time>2026-04-12T11:45:21.998Z</time></trkpt><trkpt lat="44.65699" lon="8.2673367"><ele>215.0</ele><time>2026-04-12T11:45:23.995Z</time></trkpt><trkpt lat="44.6568733" lon="8.2672417"><ele>213.75</ele><time>2026-04-12T11:45:24.994Z</time></trkpt><trkpt lat="44.656745" lon="8.2671417"><ele>212.5</ele><time>2026-04-12T11:45:25.995Z</time></trkpt><trkpt lat="44.65662" lon="8.2670483"><ele>211.25</ele><time>2026-04-12T11:45:26.997Z</time></trkpt><trkpt lat="44.6565" lon="8.2669633"><ele>210.0</ele><time>2026-04-12T11:45:27.995Z</time></trkpt><trkpt lat="44.6563867" lon="8.26689"><ele>210.0</ele><time>2026-04-12T11:45:28.997Z</time></trkpt><trkpt lat="44.6563083" lon="8.266835"><ele>210.0</ele><time>2026-04-12T11:45:29.999Z</time></trkpt><trkpt lat="44.6562517" lon="8.2667867"><ele>210.0</ele><time>2026-04-12T11:45:30.998Z</time></trkpt><trkpt lat="44.6561967" lon="8.26666"><ele>210.0</ele><time>2026-04-12T11:45:32.996Z</time></trkpt><trkpt lat="44.6562133" lon="8.2664967"><ele>210.0</ele><time>2026-04-12T11:45:34.997Z</time></trkpt><trkpt lat="44.6562683" lon="8.2663983"><ele>213.75</ele><time>2026-04-12T11:45:35.999Z</time></trkpt><trkpt lat="44.65634" lon="8.2662867"><ele>217.5</ele><time>2026-04-12T11:45:36.998Z</time></trkpt><trkpt lat="44.6564133" lon="8.2661567"><ele>221.25</ele><time>2026-04-12T11:45:37.995Z</time></trkpt><trkpt lat="44.656485" lon="8.2660167"><ele>225.0</ele><time>2026-04-12T11:45:38.995Z</time></trkpt><trkpt lat="44.6565633" lon="8.2658817"><ele>225.0</ele><time>2026-04-12T11:45:39.993Z</time></trkpt><trkpt lat="44.6566333" lon="8.2657533"><ele>225.0</ele><time>2026-04-12T11:45:40.992Z</time></trkpt><trkpt lat="44.6567217" lon="8.2656483"><ele>225.0</ele><time>2026-04-12T11:45:41.993Z</time></trkpt><trkpt lat="44.6568017" lon="8.2655567"><ele>225.0</ele><time>2026-04-12T11:45:42.996Z</time></trkpt><trkpt lat="44.6568767" lon="8.2654783"><ele>225.0</ele><time>2026-04-12T11:45:43.995Z</time></trkpt><trkpt lat="44.6569367" lon="8.265405"><ele>224.66666666666666</ele><time>2026-04-12T11:45:44.998Z</time></trkpt><trkpt lat="44.65698" lon="8.26533"><ele>224.33333333333331</ele><time>2026-04-12T11:45:45.996Z</time></trkpt><trkpt lat="44.65702" lon="8.2652467"><ele>224.0</ele><time>2026-04-12T11:45:46.995Z</time></trkpt><trkpt lat="44.6570667" lon="8.2651517"><ele>223.66666666666666</ele><time>2026-04-12T11:45:47.995Z</time></trkpt><trkpt lat="44.6571183" lon="8.265055"><ele>223.33333333333331</ele><time>2026-04-12T11:45:49Z</time></trkpt><trkpt lat="44.6571733" lon="8.2649583"><ele>223.0</ele><time>2026-04-12T11:45:49.997Z</time></trkpt><trkpt lat="44.6572283" lon="8.264855"><ele>225.4</ele><time>2026-04-12T11:45:51.003Z</time></trkpt><trkpt lat="44.65727" lon="8.2647433"><ele>227.8</ele><time>2026-04-12T11:45:51.997Z</time></trkpt><trkpt lat="44.65731" lon="8.264625"><ele>230.2</ele><time>2026-04-12T11:45:52.997Z</time></trkpt><trkpt lat="44.6573467" lon="8.2645017"><ele>232.6</ele><time>2026-04-12T11:45:53.992Z</time></trkpt><trkpt lat="44.65738" lon="8.2643833"><ele>235.0</ele><time>2026-04-12T11:45:54.999Z</time></trkpt><trkpt lat="44.657405" lon="8.26427"><ele>234.99999999999997</ele><time>2026-04-12T11:45:55.999Z</time></trkpt><trkpt lat="44.6574317" lon="8.2641767"><ele>235.0</ele><time>2026-04-12T11:45:57.001Z</time></trkpt><trkpt lat="44.65745" lon="8.26403"><ele>235.0</ele><time>2026-04-12T11:45:58.995Z</time></trkpt><trkpt lat="44.6573817" lon="8.2640267"><ele>235.0</ele><time>2026-04-12T11:46:01.996Z</time></trkpt><trkpt lat="44.6573417" lon="8.26413"><ele>234.99999999999997</ele><time>2026-04-12T11:46:03Z</time></trkpt><trkpt lat="44.6572983" lon="8.2642333"><ele>235.0</ele><time>2026-04-12T11:46:03.998Z</time></trkpt><trkpt lat="44.657245" lon="8.2643433"><ele>235.0</ele><time>2026-04-12T11:46:04.996Z</time></trkpt><trkpt lat="44.6572033" lon="8.2644417"><ele>235.0</ele><time>2026-04-12T11:46:05.996Z</time></trkpt><trkpt lat="44.6571567" lon="8.2645433"><ele>235.0</ele><time>2026-04-12T11:46:07.002Z</time></trkpt><trkpt lat="44.65711" lon="8.264655"><ele>235.0</ele><time>2026-04-12T11:46:08Z</time></trkpt><trkpt lat="44.6570567" lon="8.264765"><ele>235.0</ele><time>2026-04-12T11:46:08.995Z</time></trkpt><trkpt lat="44.6570033" lon="8.2648767"><ele>237.16666666666666</ele><time>2026-04-12T11:46:09.997Z</time></trkpt><trkpt lat="44.6569517" lon="8.2649733"><ele>239.33333333333331</ele><time>2026-04-12T11:46:11Z</time></trkpt><trkpt lat="44.6569017" lon="8.26505"><ele>241.5</ele><time>2026-04-12T11:46:11.994Z</time></trkpt><trkpt lat="44.65681" lon="8.2651"><ele>243.66666666666669</ele><time>2026-04-12T11:46:13.999Z</time></trkpt><trkpt lat="44.6568" lon="8.264975"><ele>245.83333333333334</ele><time>2026-04-12T11:46:16Z</time></trkpt><trkpt lat="44.6568017" lon="8.26488"><ele>248.0</ele><time>2026-04-12T11:46:16.999Z</time></trkpt><trkpt lat="44.65681" lon="8.2647583"><ele>250.75</ele><time>2026-04-12T11:46:18.001Z</time></trkpt><trkpt lat="44.65685" lon="8.264595"><ele>253.5</ele><time>2026-04-12T11:46:18.998Z</time></trkpt><trkpt lat="44.65689" lon="8.2644317"><ele>256.25</ele><time>2026-04-12T11:46:19.995Z</time></trkpt><trkpt lat="44.6569317" lon="8.2642867"><ele>259.0</ele><time>2026-04-12T11:46:20.997Z</time></trkpt><trkpt lat="44.65697" lon="8.2641467"><ele>255.79999999999998</ele><time>2026-04-12T11:46:21.995Z</time></trkpt><trkpt lat="44.657005" lon="8.2639967"><ele>252.59999999999997</ele><time>2026-04-12T11:46:22.995Z</time></trkpt><trkpt lat="44.6570283" lon="8.26385"><ele>249.4</ele><time>2026-04-12T11:46:23.993Z</time></trkpt><trkpt lat="44.657045" lon="8.2637017"><ele>246.2</ele><time>2026-04-12T11:46:25Z</time></trkpt><trkpt lat="44.6570617" lon="8.2635483"><ele>243.0</ele><time>2026-04-12T11:46:25.993Z</time></trkpt><trkpt lat="44.6570817" lon="8.26339"><ele>243.0</ele><time>2026-04-12T11:46:26.997Z</time></trkpt><trkpt lat="44.6571017" lon="8.263235"><ele>243.0</ele><time>2026-04-12T11:46:27.998Z</time></trkpt><trkpt lat="44.6571183" lon="8.26308"><ele>243.0</ele><time>2026-04-12T11:46:28.994Z</time></trkpt><trkpt lat="44.6571367" lon="8.2629267"><ele>243.0</ele><time>2026-04-12T11:46:30.001Z</time></trkpt><trkpt lat="44.6571583" lon="8.26277"><ele>243.0</ele><time>2026-04-12T11:46:30.996Z</time></trkpt><trkpt lat="44.6571933" lon="8.2626167"><ele>245.0</ele><time>2026-04-12T11:46:31.998Z</time></trkpt><trkpt lat="44.6572333" lon="8.2624633"><ele>247.0</ele><time>2026-04-12T11:46:32.995Z</time></trkpt><trkpt lat="44.6572767" lon="8.2623083"><ele>249.0</ele><time>2026-04-12T11:46:33.997Z</time></trkpt><trkpt lat="44.6573183" lon="8.2621483"><ele>251.0</ele><time>2026-04-12T11:46:35.002Z</time></trkpt><trkpt lat="44.6573567" lon="8.261985"><ele>252.25</ele><time>2026-04-12T11:46:35.999Z</time></trkpt><trkpt lat="44.6573933" lon="8.26183"><ele>253.5</ele><time>2026-04-12T11:46:37.003Z</time></trkpt><trkpt lat="44.6574183" lon="8.2616733"><ele>254.75</ele><time>2026-04-12T11:46:37.999Z</time></trkpt><trkpt lat="44.6574367" lon="8.2615117"><ele>256.0</ele><time>2026-04-12T11:46:38.994Z</time></trkpt><trkpt lat="44.6574517" lon="8.2613517"><ele>256.25</ele><time>2026-04-12T11:46:39.999Z</time></trkpt><trkpt lat="44.6574633" lon="8.2611917"><ele>256.5</ele><time>2026-04-12T11:46:40.994Z</time></trkpt><trkpt lat="44.6574783" lon="8.2610283"><ele>256.75</ele><time>2026-04-12T11:46:41.998Z</time></trkpt><trkpt lat="44.6574967" lon="8.2608633"><ele>257.0</ele><time>2026-04-12T11:46:42.996Z</time></trkpt><trkpt lat="44.657515" lon="8.2607"><ele>257.0</ele><time>2026-04-12T11:46:43.996Z</time></trkpt><trkpt lat="44.6575333" lon="8.2605517"><ele>257.0</ele><time>2026-04-12T11:46:44.998Z</time></trkpt><trkpt lat="44.6575533" lon="8.2604233"><ele>257.0</ele><time>2026-04-12T11:46:45.995Z</time></trkpt><trkpt lat="44.6575667" lon="8.260305"><ele>257.0</ele><time>2026-04-12T11:46:46.995Z</time></trkpt><trkpt lat="44.65757" lon="8.2601867"><ele>257.0</ele><time>2026-04-12T11:46:47.996Z</time></trkpt><trkpt lat="44.6575667" lon="8.2600567"><ele>257.0</ele><time>2026-04-12T11:46:48.996Z</time></trkpt><trkpt lat="44.657495" lon="8.2599283"><ele>257.0</ele><time>2026-04-12T11:46:49.991Z</time></trkpt><trkpt lat="44.6574067" lon="8.2597833"><ele>257.0</ele><time>2026-04-12T11:46:51Z</time></trkpt><trkpt lat="44.6573167" lon="8.2596317"><ele>257.0</ele><time>2026-04-12T11:46:51.997Z</time></trkpt><trkpt lat="44.6572183" lon="8.2594733"><ele>256.75</ele><time>2026-04-12T11:46:52.996Z</time></trkpt><trkpt lat="44.6571183" lon="8.2593183"><ele>256.5</ele><time>2026-04-12T11:46:53.996Z</time></trkpt><trkpt lat="44.65702" lon="8.25917"><ele>256.25</ele><time>2026-04-12T11:46:54.999Z</time></trkpt><trkpt lat="44.6569367" lon="8.2590367"><ele>256.0</ele><time>2026-04-12T11:46:55.999Z</time></trkpt><trkpt lat="44.6568583" lon="8.2589167"><ele>259.5</ele><time>2026-04-12T11:46:56.996Z</time></trkpt><trkpt lat="44.65678" lon="8.2588133"><ele>263.0</ele><time>2026-04-12T11:46:57.999Z</time></trkpt><trkpt lat="44.65671" lon="8.2587317"><ele>266.5</ele><time>2026-04-12T11:46:59.001Z</time></trkpt><trkpt lat="44.6566417" lon="8.2586583"><ele>270.0</ele><time>2026-04-12T11:46:59.997Z</time></trkpt><trkpt lat="44.6565917" lon="8.258575"><ele>273.5</ele><time>2026-04-12T11:47:01.001Z</time></trkpt><trkpt lat="44.65655" lon="8.2584767"><ele>277.0</ele><time>2026-04-12T11:47:02.001Z</time></trkpt><trkpt lat="44.656505" lon="8.2583667"><ele>277.0</ele><time>2026-04-12T11:47:03.007Z</time></trkpt><trkpt lat="44.6564617" lon="8.2582283"><ele>277.0</ele><time>2026-04-12T11:47:03.997Z</time></trkpt><trkpt lat="44.6563983" lon="8.25808"><ele>277.0</ele><time>2026-04-12T11:47:04.997Z</time></trkpt><trkpt lat="44.6563317" lon="8.25792"><ele>277.0</ele><time>2026-04-12T11:47:05.999Z</time></trkpt><trkpt lat="44.6562733" lon="8.25775"><ele>276.5</ele><time>2026-04-12T11:47:07.002Z</time></trkpt><trkpt lat="44.6562133" lon="8.2575733"><ele>276.0</ele><time>2026-04-12T11:47:08.001Z</time></trkpt><trkpt lat="44.6561683" lon="8.2573883"><ele>275.5</ele><time>2026-04-12T11:47:09.002Z</time></trkpt><trkpt lat="44.656125" lon="8.257195"><ele>275.0</ele><time>2026-04-12T11:47:09.998Z</time></trkpt><trkpt lat="44.6560867" lon="8.2569983"><ele>279.0</ele><time>2026-04-12T11:47:10.997Z</time></trkpt><trkpt lat="44.656055" lon="8.2568083"><ele>283.0</ele><time>2026-04-12T11:47:11.998Z</time></trkpt><trkpt lat="44.656025" lon="8.256625"><ele>287.0</ele><time>2026-04-12T11:47:13.004Z</time></trkpt><trkpt lat="44.6559983" lon="8.2564667"><ele>291.0</ele><time>2026-04-12T11:47:14.001Z</time></trkpt><trkpt lat="44.6559617" lon="8.25633"><ele>291.0</ele><time>2026-04-12T11:47:15.002Z</time></trkpt><trkpt lat="44.655905" lon="8.2562067"><ele>291.0</ele><time>2026-04-12T11:47:15.995Z</time></trkpt><trkpt lat="44.6558283" lon="8.256095"><ele>291.0</ele><time>2026-04-12T11:47:16.997Z</time></trkpt><trkpt lat="44.6557367" lon="8.255985"><ele>291.0</ele><time>2026-04-12T11:47:17.997Z</time></trkpt><trkpt lat="44.65563" lon="8.2558717"><ele>291.0</ele><time>2026-04-12T11:47:18.997Z</time></trkpt><trkpt lat="44.6555383" lon="8.255745"><ele>291.0</ele><time>2026-04-12T11:47:20Z</time></trkpt><trkpt lat="44.6554483" lon="8.255615"><ele>291.0</ele><time>2026-04-12T11:47:21.002Z</time></trkpt><trkpt lat="44.655365" lon="8.2554967"><ele>291.0</ele><time>2026-04-12T11:47:22.003Z</time></trkpt><trkpt lat="44.6552983" lon="8.2554017"><ele>291.3333333333333</ele><time>2026-04-12T11:47:22.997Z</time></trkpt><trkpt lat="44.6552467" lon="8.2553283"><ele>291.6666666666667</ele><time>2026-04-12T11:47:24.001Z</time></trkpt><trkpt lat="44.6552117" lon="8.2552217"><ele>292.0</ele><time>2026-04-12T11:47:25.999Z</time></trkpt><trkpt lat="44.655205" lon="8.255075"><ele>292.33333333333337</ele><time>2026-04-12T11:47:27.999Z</time></trkpt><trkpt lat="44.6552067" lon="8.2549667"><ele>292.6666666666667</ele><time>2026-04-12T11:47:28.999Z</time></trkpt><trkpt lat="44.655205" lon="8.2548667"><ele>293.0</ele><time>2026-04-12T11:47:29.999Z</time></trkpt><trkpt lat="44.655175" lon="8.254715"><ele>293.5</ele><time>2026-04-12T11:47:31.999Z</time></trkpt><trkpt lat="44.6550967" lon="8.2545967"><ele>294.0</ele><time>2026-04-12T11:47:33.998Z</time></trkpt><trkpt lat="44.655035" lon="8.25454"><ele>294.5</ele><time>2026-04-12T11:47:35Z</time></trkpt><trkpt lat="44.6549767" lon="8.2544733"><ele>295.0</ele><time>2026-04-12T11:47:35.997Z</time></trkpt><trkpt lat="44.6549233" lon="8.254405"><ele>295.5</ele><time>2026-04-12T11:47:37.001Z</time></trkpt><trkpt lat="44.6548817" lon="8.2543383"><ele>296.0</ele><time>2026-04-12T11:47:37.995Z</time></trkpt><trkpt lat="44.6549" lon="8.2541867"><ele>296.0</ele><time>2026-04-12T11:47:40Z</time></trkpt><trkpt lat="44.6549367" lon="8.25411"><ele>296.0</ele><time>2026-04-12T11:47:41.001Z</time></trkpt><trkpt lat="44.654985" lon="8.254035"><ele>296.0</ele><time>2026-04-12T11:47:42.001Z</time></trkpt><trkpt lat="44.65502" lon="8.2539033"><ele>296.0</ele><time>2026-04-12T11:47:43.997Z</time></trkpt><trkpt lat="44.654965" lon="8.2539467"><ele>296.0</ele><time>2026-04-12T11:47:46.997Z</time></trkpt><trkpt lat="44.6548883" lon="8.2540917"><ele>296.0</ele><time>2026-04-12T11:47:48.996Z</time></trkpt><trkpt lat="44.6548233" lon="8.2541683"><ele>296.0</ele><time>2026-04-12T11:47:49.992Z</time></trkpt><trkpt lat="44.6547633" lon="8.2542367"><ele>296.0</ele><time>2026-04-12T11:47:51.003Z</time></trkpt><trkpt lat="44.6547083" lon="8.2542933"><ele>296.0</ele><time>2026-04-12T11:47:52Z</time></trkpt><trkpt lat="44.65465" lon="8.25442"><ele>296.0</ele><time>2026-04-12T11:47:53.999Z</time></trkpt><trkpt lat="44.654615" lon="8.2545683"><ele>296.0</ele><time>2026-04-12T11:47:55.999Z</time></trkpt><trkpt lat="44.6546483" lon="8.2547483"><ele>296.0</ele><time>2026-04-12T11:47:58.001Z</time></trkpt><trkpt lat="44.6546933" lon="8.2548333"><ele>296.0</ele><time>2026-04-12T11:47:58.995Z</time></trkpt><trkpt lat="44.6547333" lon="8.2549617"><ele>296.0</ele><time>2026-04-12T11:48:01.003Z</time></trkpt><trkpt lat="44.6546533" lon="8.25486"><ele>296.0</ele><time>2026-04-12T11:48:05.992Z</time></trkpt><trkpt lat="44.654605" lon="8.2547883"><ele>296.0</ele><time>2026-04-12T11:48:07.001Z</time></trkpt><trkpt lat="44.654555" lon="8.25472"><ele>296.0</ele><time>2026-04-12T11:48:07.998Z</time></trkpt><trkpt lat="44.654485" lon="8.25466"><ele>289.83333333333337</ele><time>2026-04-12T11:48:09.001Z</time></trkpt><trkpt lat="44.654425" lon="8.2545933"><ele>283.6666666666667</ele><time>2026-04-12T11:48:10.001Z</time></trkpt><trkpt lat="44.65438" lon="8.2545267"><ele>277.5</ele><time>2026-04-12T11:48:10.996Z</time></trkpt><trkpt lat="44.65434" lon="8.2544583"><ele>271.3333333333333</ele><time>2026-04-12T11:48:11.994Z</time></trkpt><trkpt lat="44.6543167" lon="8.2543067"><ele>265.16666666666663</ele><time>2026-04-12T11:48:13.999Z</time></trkpt><trkpt lat="44.654285" lon="8.2542117"><ele>259.0</ele><time>2026-04-12T11:48:15.993Z</time></trkpt><trkpt lat="44.654215" lon="8.2542283"><ele>259.0</ele><time>2026-04-12T11:48:17.992Z</time></trkpt><trkpt lat="44.65415" lon="8.2543633"><ele>259.0</ele><time>2026-04-12T11:48:19.996Z</time></trkpt><trkpt lat="44.6541317" lon="8.25446"><ele>259.0</ele><time>2026-04-12T11:48:20.997Z</time></trkpt><trkpt lat="44.6541367" lon="8.2545667"><ele>259.0</ele><time>2026-04-12T11:48:21.997Z</time></trkpt><trkpt lat="44.6541667" lon="8.25467"><ele>259.0</ele><time>2026-04-12T11:48:22.991Z</time></trkpt><trkpt lat="44.6542117" lon="8.25478"><ele>259.0</ele><time>2026-04-12T11:48:24.001Z</time></trkpt><trkpt lat="44.654245" lon="8.2548917"><ele>258.7142857142857</ele><time>2026-04-12T11:48:24.994Z</time></trkpt><trkpt lat="44.6542683" lon="8.2549883"><ele>258.42857142857144</ele><time>2026-04-12T11:48:25.996Z</time></trkpt><trkpt lat="44.6542767" lon="8.2550767"><ele>258.1428571428571</ele><time>2026-04-12T11:48:26.999Z</time></trkpt><trkpt lat="44.65427" lon="8.2551717"><ele>257.8571428571429</ele><time>2026-04-12T11:48:28Z</time></trkpt><trkpt lat="44.654245" lon="8.255265"><ele>257.57142857142856</ele><time>2026-04-12T11:48:28.996Z</time></trkpt><trkpt lat="44.6542033" lon="8.2553617"><ele>257.2857142857143</ele><time>2026-04-12T11:48:29.997Z</time></trkpt><trkpt lat="44.6541583" lon="8.2554667"><ele>257.0</ele><time>2026-04-12T11:48:30.997Z</time></trkpt><trkpt lat="44.6541133" lon="8.2555683"><ele>257.6666666666667</ele><time>2026-04-12T11:48:32.002Z</time></trkpt><trkpt lat="44.6540667" lon="8.2556633"><ele>258.33333333333337</ele><time>2026-04-12T11:48:32.995Z</time></trkpt><trkpt lat="44.6540217" lon="8.2557583"><ele>259.0</ele><time>2026-04-12T11:48:34Z</time></trkpt><trkpt lat="44.6539733" lon="8.2558533"><ele>259.6666666666667</ele><time>2026-04-12T11:48:34.992Z</time></trkpt><trkpt lat="44.6539367" lon="8.25595"><ele>260.3333333333333</ele><time>2026-04-12T11:48:35.997Z</time></trkpt><trkpt lat="44.6539083" lon="8.25604"><ele>261.0</ele><time>2026-04-12T11:48:36.997Z</time></trkpt><trkpt lat="44.6538667" lon="8.25617"><ele>261.0</ele><time>2026-04-12T11:48:38.995Z</time></trkpt><trkpt lat="44.6537967" lon="8.2560983"><ele>261.0</ele><time>2026-04-12T11:48:41.998Z</time></trkpt><trkpt lat="44.653785" lon="8.2560083"><ele>261.0</ele><time>2026-04-12T11:48:42.994Z</time></trkpt><trkpt lat="44.6537883" lon="8.2559117"><ele>261.0</ele><time>2026-04-12T11:48:43.997Z</time></trkpt><trkpt lat="44.65381" lon="8.255795"><ele>261.0</ele><time>2026-04-12T11:48:44.997Z</time></trkpt><trkpt lat="44.6538067" lon="8.2556717"><ele>261.0</ele><time>2026-04-12T11:48:45.999Z</time></trkpt><trkpt lat="44.6538" lon="8.2555433"><ele>260.2</ele><time>2026-04-12T11:48:46.995Z</time></trkpt><trkpt lat="44.653795" lon="8.25541"><ele>259.40000000000003</ele><time>2026-04-12T11:48:47.996Z</time></trkpt><trkpt lat="44.653805" lon="8.2552683"><ele>258.6</ele><time>2026-04-12T11:48:48.999Z</time></trkpt><trkpt lat="44.6537967" lon="8.25513"><ele>257.8</ele><time>2026-04-12T11:48:50.003Z</time></trkpt><trkpt lat="44.6537883" lon="8.254985"><ele>257.0</ele><time>2026-04-12T11:48:51.003Z</time></trkpt><trkpt lat="44.65377" lon="8.2548383"><ele>257.4</ele><time>2026-04-12T11:48:51.999Z</time></trkpt><trkpt lat="44.6537633" lon="8.2546917"><ele>257.79999999999995</ele><time>2026-04-12T11:48:52.998Z</time></trkpt><trkpt lat="44.653765" lon="8.2545517"><ele>258.2</ele><time>2026-04-12T11:48:53.997Z</time></trkpt><trkpt lat="44.6537783" lon="8.2543983"><ele>258.59999999999997</ele><time>2026-04-12T11:48:54.998Z</time></trkpt><trkpt lat="44.6537883" lon="8.2542433"><ele>259.0</ele><time>2026-04-12T11:48:55.995Z</time></trkpt><trkpt lat="44.65379" lon="8.2540883"><ele>259.0</ele><time>2026-04-12T11:48:56.997Z</time></trkpt><trkpt lat="44.65379" lon="8.2539383"><ele>259.0</ele><time>2026-04-12T11:48:57.996Z</time></trkpt><trkpt lat="44.6537783" lon="8.2537883"><ele>259.0</ele><time>2026-04-12T11:48:58.996Z</time></trkpt><trkpt lat="44.6537683" lon="8.2536383"><ele>259.0</ele><time>2026-04-12T11:48:59.995Z</time></trkpt><trkpt lat="44.6537467" lon="8.2534967"><ele>259.0</ele><time>2026-04-12T11:49:00.996Z</time></trkpt><trkpt lat="44.6537183" lon="8.2533567"><ele>259.0</ele><time>2026-04-12T11:49:02.002Z</time></trkpt><trkpt lat="44.6536867" lon="8.2532283"><ele>259.0</ele><time>2026-04-12T11:49:02.996Z</time></trkpt><trkpt lat="44.653675" lon="8.2530967"><ele>259.0</ele><time>2026-04-12T11:49:03.994Z</time></trkpt><trkpt lat="44.6536733" lon="8.2529617"><ele>259.0</ele><time>2026-04-12T11:49:04.992Z</time></trkpt><trkpt lat="44.6536633" lon="8.252815"><ele>259.0</ele><time>2026-04-12T11:49:05.992Z</time></trkpt><trkpt lat="44.6536433" lon="8.2526717"><ele>250.0</ele><time>2026-04-12T11:49:06.995Z</time></trkpt><trkpt lat="44.653605" lon="8.25254"><ele>240.99999999999997</ele><time>2026-04-12T11:49:07.998Z</time></trkpt><trkpt lat="44.653565" lon="8.2524217"><ele>231.99999999999997</ele><time>2026-04-12T11:49:09Z</time></trkpt><trkpt lat="44.653525" lon="8.2522983"><ele>223.0</ele><time>2026-04-12T11:49:10.002Z</time></trkpt><trkpt lat="44.6534883" lon="8.2521833"><ele>214.0</ele><time>2026-04-12T11:49:10.996Z</time></trkpt><trkpt lat="44.6534517" lon="8.252085"><ele>214.0</ele><time>2026-04-12T11:49:11.996Z</time></trkpt><trkpt lat="44.6534133" lon="8.2519983"><ele>213.99999999999997</ele><time>2026-04-12T11:49:12.997Z</time></trkpt><trkpt lat="44.6533567" lon="8.2518767"><ele>213.99999999999997</ele><time>2026-04-12T11:49:14.996Z</time></trkpt><trkpt lat="44.65331" lon="8.2517733"><ele>214.0</ele><time>2026-04-12T11:49:16.996Z</time></trkpt><trkpt lat="44.6532583" lon="8.25161"><ele>214.0</ele><time>2026-04-12T11:49:18.997Z</time></trkpt><trkpt lat="44.65324" lon="8.2514867"><ele>214.66666666666666</ele><time>2026-04-12T11:49:20.001Z</time></trkpt><trkpt lat="44.6532667" lon="8.2512883"><ele>215.33333333333331</ele><time>2026-04-12T11:49:21Z</time></trkpt><trkpt lat="44.653285" lon="8.2510667"><ele>216.0</ele><time>2026-04-12T11:49:21.995Z</time></trkpt><trkpt lat="44.653295" lon="8.250825"><ele>215.33333333333331</ele><time>2026-04-12T11:49:22.994Z</time></trkpt><trkpt lat="44.6533067" lon="8.2505633"><ele>214.66666666666666</ele><time>2026-04-12T11:49:23.994Z</time></trkpt><trkpt lat="44.6533183" lon="8.2502933"><ele>214.0</ele><time>2026-04-12T11:49:24.998Z</time></trkpt><trkpt lat="44.6533217" lon="8.2500167"><ele>216.66666666666666</ele><time>2026-04-12T11:49:25.993Z</time></trkpt><trkpt lat="44.6533133" lon="8.2497333"><ele>219.33333333333331</ele><time>2026-04-12T11:49:26.997Z</time></trkpt><trkpt lat="44.6532917" lon="8.2494467"><ele>222.0</ele><time>2026-04-12T11:49:27.998Z</time></trkpt><trkpt lat="44.653255" lon="8.2491567"><ele>226.33333333333331</ele><time>2026-04-12T11:49:28.995Z</time></trkpt><trkpt lat="44.6532067" lon="8.2488733"><ele>230.66666666666666</ele><time>2026-04-12T11:49:29.993Z</time></trkpt><trkpt lat="44.6531467" lon="8.2485933"><ele>235.0</ele><time>2026-04-12T11:49:30.992Z</time></trkpt><trkpt lat="44.6530733" lon="8.248325"><ele>241.66666666666666</ele><time>2026-04-12T11:49:31.995Z</time></trkpt><trkpt lat="44.65299" lon="8.2480667"><ele>248.33333333333331</ele><time>2026-04-12T11:49:32.999Z</time></trkpt><trkpt lat="44.6528917" lon="8.247825"><ele>255.0</ele><time>2026-04-12T11:49:33.999Z</time></trkpt><trkpt lat="44.6527817" lon="8.2475983"><ele>249.0</ele><time>2026-04-12T11:49:34.997Z</time></trkpt><trkpt lat="44.652655" lon="8.247395"><ele>243.0</ele><time>2026-04-12T11:49:35.995Z</time></trkpt><trkpt lat="44.6525233" lon="8.247205"><ele>237.0</ele><time>2026-04-12T11:49:36.996Z</time></trkpt><trkpt lat="44.6523883" lon="8.2470217"><ele>237.0</ele><time>2026-04-12T11:49:37.999Z</time></trkpt><trkpt lat="44.6522367" lon="8.2468633"><ele>237.0</ele><time>2026-04-12T11:49:38.997Z</time></trkpt><trkpt lat="44.6521017" lon="8.246685"><ele>237.0</ele><time>2026-04-12T11:49:39.996Z</time></trkpt><trkpt lat="44.6519683" lon="8.2465133"><ele>234.33333333333331</ele><time>2026-04-12T11:49:40.997Z</time></trkpt><trkpt lat="44.65183" lon="8.2463583"><ele>231.66666666666666</ele><time>2026-04-12T11:49:41.998Z</time></trkpt><trkpt lat="44.65168" lon="8.2462233"><ele>229.0</ele><time>2026-04-12T11:49:42.995Z</time></trkpt><trkpt lat="44.6515217" lon="8.2461133"><ele>229.0</ele><time>2026-04-12T11:49:43.995Z</time></trkpt><trkpt lat="44.6513483" lon="8.24604"><ele>229.0</ele><time>2026-04-12T11:49:45.006Z</time></trkpt><trkpt lat="44.6511667" lon="8.245985"><ele>229.0</ele><time>2026-04-12T11:49:45.994Z</time></trkpt><trkpt lat="44.6509867" lon="8.2459267"><ele>225.66666666666666</ele><time>2026-04-12T11:49:46.993Z</time></trkpt><trkpt lat="44.6508017" lon="8.2458733"><ele>222.33333333333331</ele><time>2026-04-12T11:49:48.006Z</time></trkpt><trkpt lat="44.6506267" lon="8.24582"><ele>219.0</ele><time>2026-04-12T11:49:49.01Z</time></trkpt><trkpt lat="44.650455" lon="8.245765"><ele>218.0</ele><time>2026-04-12T11:49:49.996Z</time></trkpt><trkpt lat="44.6502883" lon="8.245705"><ele>217.0</ele><time>2026-04-12T11:49:50.992Z</time></trkpt><trkpt lat="44.6501317" lon="8.2456467"><ele>216.0</ele><time>2026-04-12T11:49:51.992Z</time></trkpt><trkpt lat="44.649985" lon="8.2455917"><ele>217.5</ele><time>2026-04-12T11:49:52.993Z</time></trkpt><trkpt lat="44.64984" lon="8.2455417"><ele>219.0</ele><time>2026-04-12T11:49:53.998Z</time></trkpt><trkpt lat="44.6497017" lon="8.2454883"><ele>220.5</ele><time>2026-04-12T11:49:54.995Z</time></trkpt><trkpt lat="44.649565" lon="8.24544"><ele>222.0</ele><time>2026-04-12T11:49:55.993Z</time></trkpt><trkpt lat="44.6494283" lon="8.245395"><ele>222.0</ele><time>2026-04-12T11:49:56.999Z</time></trkpt><trkpt lat="44.64929" lon="8.2453533"><ele>222.0</ele><time>2026-04-12T11:49:57.996Z</time></trkpt><trkpt lat="44.6491517" lon="8.2453233"><ele>222.0</ele><time>2026-04-12T11:49:58.995Z</time></trkpt><trkpt lat="44.64901" lon="8.2453067"><ele>222.0</ele><time>2026-04-12T11:50:00.004Z</time></trkpt><trkpt lat="44.64887" lon="8.2452783"><ele>222.0</ele><time>2026-04-12T11:50:00.997Z</time></trkpt><trkpt lat="44.6487317" lon="8.24525"><ele>222.0</ele><time>2026-04-12T11:50:02Z</time></trkpt><trkpt lat="44.6485917" lon="8.2452267"><ele>222.0</ele><time>2026-04-12T11:50:03.001Z</time></trkpt><trkpt lat="44.64845" lon="8.2452"><ele>222.0</ele><time>2026-04-12T11:50:03.999Z</time></trkpt><trkpt lat="44.64831" lon="8.2451767"><ele>221.75</ele><time>2026-04-12T11:50:04.993Z</time></trkpt><trkpt lat="44.6481617" lon="8.2451517"><ele>221.5</ele><time>2026-04-12T11:50:05.996Z</time></trkpt><trkpt lat="44.64802" lon="8.2451233"><ele>221.25</ele><time>2026-04-12T11:50:06.995Z</time></trkpt><trkpt lat="44.6478767" lon="8.2451"><ele>221.0</ele><time>2026-04-12T11:50:07.993Z</time></trkpt><trkpt lat="44.6477317" lon="8.2450817"><ele>221.0</ele><time>2026-04-12T11:50:08.998Z</time></trkpt><trkpt lat="44.64759" lon="8.2450667"><ele>221.0</ele><time>2026-04-12T11:50:09.999Z</time></trkpt><trkpt lat="44.647445" lon="8.2450533"><ele>221.0</ele><time>2026-04-12T11:50:10.996Z</time></trkpt><trkpt lat="44.6473017" lon="8.2450417"><ele>221.0</ele><time>2026-04-12T11:50:11.994Z</time></trkpt><trkpt lat="44.6471933" lon="8.2450833"><ele>221.0</ele><time>2026-04-12T11:50:12.996Z</time></trkpt><trkpt lat="44.6470417" lon="8.2450583"><ele>221.0</ele><time>2026-04-12T11:50:13.995Z</time></trkpt><trkpt lat="44.6468933" lon="8.245045"><ele>221.0</ele><time>2026-04-12T11:50:14.992Z</time></trkpt><trkpt lat="44.6467417" lon="8.24504"><ele>221.33333333333334</ele><time>2026-04-12T11:50:15.995Z</time></trkpt><trkpt lat="44.6465883" lon="8.245035"><ele>221.66666666666669</ele><time>2026-04-12T11:50:16.995Z</time></trkpt><trkpt lat="44.6464317" lon="8.24504"><ele>222.0</ele><time>2026-04-12T11:50:17.996Z</time></trkpt><trkpt lat="44.6462717" lon="8.245045"><ele>222.0</ele><time>2026-04-12T11:50:18.999Z</time></trkpt><trkpt lat="44.6461083" lon="8.2450717"><ele>222.0</ele><time>2026-04-12T11:50:19.995Z</time></trkpt><trkpt lat="44.6459517" lon="8.2451167"><ele>222.0</ele><time>2026-04-12T11:50:20.996Z</time></trkpt><trkpt lat="44.6457933" lon="8.245155"><ele>222.0</ele><time>2026-04-12T11:50:21.995Z</time></trkpt><trkpt lat="44.645635" lon="8.2451917"><ele>222.0</ele><time>2026-04-12T11:50:22.997Z</time></trkpt><trkpt lat="44.645475" lon="8.2452317"><ele>222.0</ele><time>2026-04-12T11:50:23.994Z</time></trkpt><trkpt lat="44.64532" lon="8.2452817"><ele>222.33333333333331</ele><time>2026-04-12T11:50:24.995Z</time></trkpt><trkpt lat="44.64517" lon="8.2453583"><ele>222.66666666666666</ele><time>2026-04-12T11:50:25.995Z</time></trkpt><trkpt lat="44.6450167" lon="8.245475"><ele>223.0</ele><time>2026-04-12T11:50:27.005Z</time></trkpt><trkpt lat="44.6448667" lon="8.2456117"><ele>221.33333333333331</ele><time>2026-04-12T11:50:27.998Z</time></trkpt><trkpt lat="44.6447233" lon="8.2457633"><ele>219.66666666666669</ele><time>2026-04-12T11:50:28.997Z</time></trkpt><trkpt lat="44.64458" lon="8.24592"><ele>218.0</ele><time>2026-04-12T11:50:29.994Z</time></trkpt><trkpt lat="44.6444317" lon="8.2460733"><ele>219.33333333333334</ele><time>2026-04-12T11:50:30.996Z</time></trkpt><trkpt lat="44.64428" lon="8.2462233"><ele>220.66666666666669</ele><time>2026-04-12T11:50:31.997Z</time></trkpt><trkpt lat="44.6441283" lon="8.2463733"><ele>222.0</ele><time>2026-04-12T11:50:32.999Z</time></trkpt><trkpt lat="44.6439783" lon="8.2465233"><ele>222.0</ele><time>2026-04-12T11:50:33.997Z</time></trkpt><trkpt lat="44.64383" lon="8.2466783"><ele>222.0</ele><time>2026-04-12T11:50:34.995Z</time></trkpt><trkpt lat="44.64368" lon="8.2468267"><ele>222.0</ele><time>2026-04-12T11:50:35.993Z</time></trkpt><trkpt lat="44.643525" lon="8.246965"><ele>221.33333333333331</ele><time>2026-04-12T11:50:36.997Z</time></trkpt><trkpt lat="44.6433683" lon="8.2470867"><ele>220.66666666666666</ele><time>2026-04-12T11:50:37.997Z</time></trkpt><trkpt lat="44.6432033" lon="8.2472"><ele>220.0</ele><time>2026-04-12T11:50:38.999Z</time></trkpt><trkpt lat="44.6430367" lon="8.2473017"><ele>220.0</ele><time>2026-04-12T11:50:40.002Z</time></trkpt><trkpt lat="44.6428683" lon="8.24738"><ele>220.0</ele><time>2026-04-12T11:50:40.998Z</time></trkpt><trkpt lat="44.6426983" lon="8.2474433"><ele>220.0</ele><time>2026-04-12T11:50:41.994Z</time></trkpt><trkpt lat="44.6425267" lon="8.2474983"><ele>222.33333333333331</ele><time>2026-04-12T11:50:42.995Z</time></trkpt><trkpt lat="44.6423517" lon="8.247545"><ele>224.66666666666669</ele><time>2026-04-12T11:50:43.998Z</time></trkpt><trkpt lat="44.6421767" lon="8.2475983"><ele>227.0</ele><time>2026-04-12T11:50:44.996Z</time></trkpt><trkpt lat="44.6419983" lon="8.2476483"><ele>228.33333333333334</ele><time>2026-04-12T11:50:45.993Z</time></trkpt><trkpt lat="44.64182" lon="8.24771"><ele>229.66666666666669</ele><time>2026-04-12T11:50:46.996Z</time></trkpt><trkpt lat="44.6416367" lon="8.2477733"><ele>231.0</ele><time>2026-04-12T11:50:47.998Z</time></trkpt><trkpt lat="44.6414383" lon="8.247825"><ele>231.0</ele><time>2026-04-12T11:50:48.996Z</time></trkpt><trkpt lat="44.6412283" lon="8.24788"><ele>231.0</ele><time>2026-04-12T11:50:49.995Z</time></trkpt><trkpt lat="44.641005" lon="8.247935"><ele>231.0</ele><time>2026-04-12T11:50:51.001Z</time></trkpt><trkpt lat="44.6407733" lon="8.2480033"><ele>233.5</ele><time>2026-04-12T11:50:51.994Z</time></trkpt><trkpt lat="44.6405383" lon="8.2480783"><ele>236.0</ele><time>2026-04-12T11:50:52.999Z</time></trkpt><trkpt lat="44.640295" lon="8.248145"><ele>236.0</ele><time>2026-04-12T11:50:53.994Z</time></trkpt><trkpt lat="44.64006" lon="8.24821"><ele>236.0</ele><time>2026-04-12T11:50:54.997Z</time></trkpt><trkpt lat="44.63984" lon="8.2482683"><ele>236.0</ele><time>2026-04-12T11:50:55.998Z</time></trkpt><trkpt lat="44.639635" lon="8.24832"><ele>236.0</ele><time>2026-04-12T11:50:56.996Z</time></trkpt><trkpt lat="44.63944" lon="8.2483633"><ele>236.0</ele><time>2026-04-12T11:50:57.996Z</time></trkpt><trkpt lat="44.63925" lon="8.24839"><ele>237.0</ele><time>2026-04-12T11:50:58.995Z</time></trkpt><trkpt lat="44.6390633" lon="8.2483883"><ele>238.0</ele><time>2026-04-12T11:50:59.997Z</time></trkpt><trkpt lat="44.6388817" lon="8.248365"><ele>239.0</ele><time>2026-04-12T11:51:00.994Z</time></trkpt><trkpt lat="44.6386983" lon="8.248335"><ele>239.0</ele><time>2026-04-12T11:51:02Z</time></trkpt><trkpt lat="44.6385133" lon="8.248295"><ele>239.0</ele><time>2026-04-12T11:51:02.997Z</time></trkpt><trkpt lat="44.6383333" lon="8.2482417"><ele>239.0</ele><time>2026-04-12T11:51:03.995Z</time></trkpt><trkpt lat="44.63816" lon="8.2481733"><ele>239.66666666666669</ele><time>2026-04-12T11:51:04.995Z</time></trkpt><trkpt lat="44.63799" lon="8.2480967"><ele>240.33333333333331</ele><time>2026-04-12T11:51:05.995Z</time></trkpt><trkpt lat="44.6378267" lon="8.248015"><ele>241.0</ele><time>2026-04-12T11:51:06.996Z</time></trkpt><trkpt lat="44.637675" lon="8.2479383"><ele>241.0</ele><time>2026-04-12T11:51:07.997Z</time></trkpt><trkpt lat="44.6375383" lon="8.247865"><ele>241.0</ele><time>2026-04-12T11:51:08.996Z</time></trkpt><trkpt lat="44.63742" lon="8.2477667"><ele>241.0</ele><time>2026-04-12T11:51:09.997Z</time></trkpt><trkpt lat="44.6373217" lon="8.24764"><ele>241.0</ele><time>2026-04-12T11:51:11Z</time></trkpt><trkpt lat="44.6372433" lon="8.247485"><ele>241.0</ele><time>2026-04-12T11:51:12Z</time></trkpt><trkpt lat="44.637185" lon="8.2473067"><ele>241.0</ele><time>2026-04-12T11:51:12.996Z</time></trkpt><trkpt lat="44.6371567" lon="8.2470967"><ele>241.0</ele><time>2026-04-12T11:51:13.999Z</time></trkpt><trkpt lat="44.6371567" lon="8.2468683"><ele>243.0</ele><time>2026-04-12T11:51:14.997Z</time></trkpt><trkpt lat="44.6371633" lon="8.2466317"><ele>245.0</ele><time>2026-04-12T11:51:15.995Z</time></trkpt><trkpt lat="44.6371717" lon="8.2463817"><ele>247.0</ele><time>2026-04-12T11:51:16.993Z</time></trkpt><trkpt lat="44.6371717" lon="8.2461183"><ele>247.0</ele><time>2026-04-12T11:51:17.997Z</time></trkpt><trkpt lat="44.6371583" lon="8.2458467"><ele>247.0</ele><time>2026-04-12T11:51:18.998Z</time></trkpt><trkpt lat="44.6371283" lon="8.2455733"><ele>247.0</ele><time>2026-04-12T11:51:19.998Z</time></trkpt><trkpt lat="44.6370883" lon="8.2452933"><ele>245.0</ele><time>2026-04-12T11:51:20.995Z</time></trkpt><trkpt lat="44.637045" lon="8.245005"><ele>243.0</ele><time>2026-04-12T11:51:21.998Z</time></trkpt><trkpt lat="44.6369983" lon="8.24471"><ele>241.0</ele><time>2026-04-12T11:51:22.998Z</time></trkpt><trkpt lat="44.6369517" lon="8.244405"><ele>233.33333333333331</ele><time>2026-04-12T11:51:23.996Z</time></trkpt><trkpt lat="44.6369067" lon="8.2441"><ele>225.66666666666669</ele><time>2026-04-12T11:51:24.996Z</time></trkpt><trkpt lat="44.6368567" lon="8.2438"><ele>218.0</ele><time>2026-04-12T11:51:25.994Z</time></trkpt><trkpt lat="44.6368083" lon="8.2435017"><ele>218.0</ele><time>2026-04-12T11:51:26.995Z</time></trkpt><trkpt lat="44.6367617" lon="8.2432067"><ele>218.0</ele><time>2026-04-12T11:51:27.997Z</time></trkpt><trkpt lat="44.636715" lon="8.242915"><ele>218.0</ele><time>2026-04-12T11:51:29Z</time></trkpt><trkpt lat="44.636665" lon="8.2426317"><ele>218.33333333333334</ele><time>2026-04-12T11:51:29.997Z</time></trkpt><trkpt lat="44.6366167" lon="8.2423467"><ele>218.66666666666669</ele><time>2026-04-12T11:51:31Z</time></trkpt><trkpt lat="44.63657" lon="8.2420667"><ele>219.0</ele><time>2026-04-12T11:51:31.999Z</time></trkpt><trkpt lat="44.6365183" lon="8.241795"><ele>219.33333333333331</ele><time>2026-04-12T11:51:32.995Z</time></trkpt><trkpt lat="44.63647" lon="8.2415183"><ele>219.66666666666666</ele><time>2026-04-12T11:51:33.993Z</time></trkpt><trkpt lat="44.63642" lon="8.241245"><ele>220.0</ele><time>2026-04-12T11:51:34.993Z</time></trkpt><trkpt lat="44.6363767" lon="8.240975"><ele>220.66666666666666</ele><time>2026-04-12T11:51:35.995Z</time></trkpt><trkpt lat="44.63634" lon="8.2407017"><ele>221.33333333333331</ele><time>2026-04-12T11:51:36.999Z</time></trkpt><trkpt lat="44.6363233" lon="8.2404133"><ele>222.0</ele><time>2026-04-12T11:51:37.994Z</time></trkpt><trkpt lat="44.6363083" lon="8.2401417"><ele>222.66666666666669</ele><time>2026-04-12T11:51:38.994Z</time></trkpt><trkpt lat="44.6362967" lon="8.2398617"><ele>223.33333333333334</ele><time>2026-04-12T11:51:39.994Z</time></trkpt><trkpt lat="44.636285" lon="8.239585"><ele>224.0</ele><time>2026-04-12T11:51:40.996Z</time></trkpt><trkpt lat="44.63627" lon="8.2393083"><ele>224.66666666666669</ele><time>2026-04-12T11:51:41.998Z</time></trkpt><trkpt lat="44.636255" lon="8.23903"><ele>225.33333333333331</ele><time>2026-04-12T11:51:42.996Z</time></trkpt><trkpt lat="44.6362433" lon="8.2387533"><ele>226.0</ele><time>2026-04-12T11:51:43.996Z</time></trkpt><trkpt lat="44.6362333" lon="8.238475"><ele>227.66666666666666</ele><time>2026-04-12T11:51:45.005Z</time></trkpt><trkpt lat="44.6362233" lon="8.2382"><ele>229.33333333333331</ele><time>2026-04-12T11:51:45.995Z</time></trkpt><trkpt lat="44.6362133" lon="8.2379317"><ele>231.0</ele><time>2026-04-12T11:51:46.997Z</time></trkpt><trkpt lat="44.6362133" lon="8.2376717"><ele>232.33333333333331</ele><time>2026-04-12T11:51:48.001Z</time></trkpt><trkpt lat="44.6362317" lon="8.2374083"><ele>233.66666666666666</ele><time>2026-04-12T11:51:49.002Z</time></trkpt><trkpt lat="44.6362683" lon="8.2371483"><ele>235.0</ele><time>2026-04-12T11:51:49.994Z</time></trkpt><trkpt lat="44.63632" lon="8.2368833"><ele>235.0</ele><time>2026-04-12T11:51:50.996Z</time></trkpt><trkpt lat="44.63639" lon="8.2366083"><ele>235.0</ele><time>2026-04-12T11:51:51.995Z</time></trkpt><trkpt lat="44.6364667" lon="8.236315"><ele>235.0</ele><time>2026-04-12T11:51:52.996Z</time></trkpt><trkpt lat="44.6365467" lon="8.236005"><ele>234.0</ele><time>2026-04-12T11:51:53.995Z</time></trkpt><trkpt lat="44.63663" lon="8.2356883"><ele>233.0</ele><time>2026-04-12T11:51:55Z</time></trkpt><trkpt lat="44.6367133" lon="8.2353617"><ele>227.5</ele><time>2026-04-12T11:51:56.005Z</time></trkpt><trkpt lat="44.6367967" lon="8.235025"><ele>222.0</ele><time>2026-04-12T11:51:57Z</time></trkpt><trkpt lat="44.63688" lon="8.2346917"><ele>219.5</ele><time>2026-04-12T11:51:57.998Z</time></trkpt><trkpt lat="44.63695" lon="8.2343617"><ele>217.0</ele><time>2026-04-12T11:51:58.994Z</time></trkpt><trkpt lat="44.6370183" lon="8.234045"><ele>224.66666666666666</ele><time>2026-04-12T11:51:59.993Z</time></trkpt><trkpt lat="44.63708" lon="8.2337583"><ele>232.33333333333331</ele><time>2026-04-12T11:52:00.999Z</time></trkpt><trkpt lat="44.6371333" lon="8.2334983"><ele>240.0</ele><time>2026-04-12T11:52:01.993Z</time></trkpt><trkpt lat="44.637185" lon="8.2332583"><ele>235.33333333333331</ele><time>2026-04-12T11:52:02.996Z</time></trkpt><trkpt lat="44.6372367" lon="8.2330267"><ele>230.66666666666666</ele><time>2026-04-12T11:52:03.998Z</time></trkpt><trkpt lat="44.637295" lon="8.232805"><ele>226.0</ele><time>2026-04-12T11:52:04.994Z</time></trkpt><trkpt lat="44.6373633" lon="8.2325883"><ele>226.0</ele><time>2026-04-12T11:52:05.995Z</time></trkpt><trkpt lat="44.637435" lon="8.2323733"><ele>226.0</ele><time>2026-04-12T11:52:06.996Z</time></trkpt><trkpt lat="44.6375067" lon="8.2321617"><ele>226.0</ele><time>2026-04-12T11:52:07.996Z</time></trkpt><trkpt lat="44.6375667" lon="8.2319483"><ele>226.0</ele><time>2026-04-12T11:52:08.998Z</time></trkpt><trkpt lat="44.6376067" lon="8.2317333"><ele>226.0</ele><time>2026-04-12T11:52:09.993Z</time></trkpt><trkpt lat="44.6376217" lon="8.2315167"><ele>226.0</ele><time>2026-04-12T11:52:11.004Z</time></trkpt><trkpt lat="44.6376167" lon="8.2313017"><ele>226.75</ele><time>2026-04-12T11:52:11.994Z</time></trkpt><trkpt lat="44.6376017" lon="8.2310883"><ele>227.5</ele><time>2026-04-12T11:52:12.999Z</time></trkpt><trkpt lat="44.6375867" lon="8.23088"><ele>228.25</ele><time>2026-04-12T11:52:13.998Z</time></trkpt><trkpt lat="44.637565" lon="8.23068"><ele>229.0</ele><time>2026-04-12T11:52:14.997Z</time></trkpt><trkpt lat="44.6375483" lon="8.2304767"><ele>229.75</ele><time>2026-04-12T11:52:15.999Z</time></trkpt><trkpt lat="44.6375283" lon="8.230275"><ele>230.5</ele><time>2026-04-12T11:52:16.998Z</time></trkpt><trkpt lat="44.637485" lon="8.2300933"><ele>231.25</ele><time>2026-04-12T11:52:17.996Z</time></trkpt><trkpt lat="44.6374633" lon="8.2298983"><ele>232.0</ele><time>2026-04-12T11:52:18.998Z</time></trkpt><trkpt lat="44.637445" lon="8.2297117"><ele>232.75</ele><time>2026-04-12T11:52:19.994Z</time></trkpt><trkpt lat="44.637405" lon="8.229535"><ele>233.5</ele><time>2026-04-12T11:52:20.992Z</time></trkpt><trkpt lat="44.63734" lon="8.229385"><ele>234.25</ele><time>2026-04-12T11:52:21.997Z</time></trkpt><trkpt lat="44.6372683" lon="8.2292533"><ele>235.0</ele><time>2026-04-12T11:52:22.996Z</time></trkpt><trkpt lat="44.6372" lon="8.2291283"><ele>235.0</ele><time>2026-04-12T11:52:24.004Z</time></trkpt><trkpt lat="44.6371217" lon="8.2290133"><ele>235.0</ele><time>2026-04-12T11:52:25.005Z</time></trkpt><trkpt lat="44.6370383" lon="8.2289083"><ele>235.0</ele><time>2026-04-12T11:52:25.995Z</time></trkpt><trkpt lat="44.6369483" lon="8.228815"><ele>235.0</ele><time>2026-04-12T11:52:27Z</time></trkpt><trkpt lat="44.636835" lon="8.2287567"><ele>232.75</ele><time>2026-04-12T11:52:27.995Z</time></trkpt><trkpt lat="44.636715" lon="8.2287017"><ele>230.5</ele><time>2026-04-12T11:52:28.994Z</time></trkpt><trkpt lat="44.6365983" lon="8.2286533"><ele>228.25</ele><time>2026-04-12T11:52:29.997Z</time></trkpt><trkpt lat="44.6364817" lon="8.2286"><ele>226.0</ele><time>2026-04-12T11:52:30.996Z</time></trkpt><trkpt lat="44.6363767" lon="8.22853"><ele>226.0</ele><time>2026-04-12T11:52:31.997Z</time></trkpt><trkpt lat="44.6362883" lon="8.22843"><ele>226.00000000000003</ele><time>2026-04-12T11:52:32.998Z</time></trkpt><trkpt lat="44.6362083" lon="8.2283333"><ele>226.00000000000003</ele><time>2026-04-12T11:52:33.997Z</time></trkpt><trkpt lat="44.6361117" lon="8.228255"><ele>226.0</ele><time>2026-04-12T11:52:34.994Z</time></trkpt><trkpt lat="44.6360467" lon="8.228135"><ele>226.0</ele><time>2026-04-12T11:52:35.995Z</time></trkpt><trkpt lat="44.63599" lon="8.22801"><ele>225.75</ele><time>2026-04-12T11:52:36.994Z</time></trkpt><trkpt lat="44.6359333" lon="8.227885"><ele>225.5</ele><time>2026-04-12T11:52:37.994Z</time></trkpt><trkpt lat="44.63587" lon="8.2277533"><ele>225.25</ele><time>2026-04-12T11:52:38.997Z</time></trkpt><trkpt lat="44.6358033" lon="8.2276183"><ele>225.0</ele><time>2026-04-12T11:52:39.996Z</time></trkpt><trkpt lat="44.6357367" lon="8.2274733"><ele>225.0</ele><time>2026-04-12T11:52:40.993Z</time></trkpt><trkpt lat="44.6356783" lon="8.2273233"><ele>225.0</ele><time>2026-04-12T11:52:41.999Z</time></trkpt><trkpt lat="44.6356217" lon="8.22717"><ele>225.0</ele><time>2026-04-12T11:52:42.997Z</time></trkpt><trkpt lat="44.6355517" lon="8.227025"><ele>225.0</ele><time>2026-04-12T11:52:43.997Z</time></trkpt><trkpt lat="44.635485" lon="8.226885"><ele>225.0</ele><time>2026-04-12T11:52:44.996Z</time></trkpt><trkpt lat="44.6354233" lon="8.2267433"><ele>225.0</ele><time>2026-04-12T11:52:45.999Z</time></trkpt><trkpt lat="44.6353367" lon="8.2266333"><ele>225.0</ele><time>2026-04-12T11:52:47Z</time></trkpt><trkpt lat="44.635245" lon="8.2265267"><ele>225.0</ele><time>2026-04-12T11:52:48.001Z</time></trkpt><trkpt lat="44.63513" lon="8.22646"><ele>225.0</ele><time>2026-04-12T11:52:48.995Z</time></trkpt><trkpt lat="44.6350117" lon="8.2264"><ele>225.0</ele><time>2026-04-12T11:52:49.998Z</time></trkpt><trkpt lat="44.6348983" lon="8.2263317"><ele>225.0</ele><time>2026-04-12T11:52:50.995Z</time></trkpt><trkpt lat="44.6347767" lon="8.22626"><ele>225.0</ele><time>2026-04-12T11:52:51.996Z</time></trkpt><trkpt lat="44.6346617" lon="8.2261633"><ele>225.0</ele><time>2026-04-12T11:52:52.992Z</time></trkpt><trkpt lat="44.6345383" lon="8.226075"><ele>225.0</ele><time>2026-04-12T11:52:53.994Z</time></trkpt><trkpt lat="44.63441" lon="8.2259883"><ele>225.0</ele><time>2026-04-12T11:52:54.998Z</time></trkpt><trkpt lat="44.6342833" lon="8.22591"><ele>225.0</ele><time>2026-04-12T11:52:55.993Z</time></trkpt><trkpt lat="44.6341483" lon="8.22583"><ele>225.25</ele><time>2026-04-12T11:52:56.995Z</time></trkpt><trkpt lat="44.6340183" lon="8.2257533"><ele>225.5</ele><time>2026-04-12T11:52:57.997Z</time></trkpt><trkpt lat="44.6338883" lon="8.22568"><ele>225.75</ele><time>2026-04-12T11:52:58.999Z</time></trkpt><trkpt lat="44.6337667" lon="8.2256117"><ele>226.0</ele><time>2026-04-12T11:52:59.994Z</time></trkpt><trkpt lat="44.6336533" lon="8.2255433"><ele>226.0</ele><time>2026-04-12T11:53:01Z</time></trkpt><trkpt lat="44.633535" lon="8.2254717"><ele>226.0</ele><time>2026-04-12T11:53:01.994Z</time></trkpt><trkpt lat="44.6334133" lon="8.2253967"><ele>226.0</ele><time>2026-04-12T11:53:02.993Z</time></trkpt><trkpt lat="44.6332933" lon="8.2253233"><ele>226.0</ele><time>2026-04-12T11:53:03.996Z</time></trkpt><trkpt lat="44.6331667" lon="8.225245"><ele>226.0</ele><time>2026-04-12T11:53:04.994Z</time></trkpt><trkpt lat="44.6330383" lon="8.2251667"><ele>226.0</ele><time>2026-04-12T11:53:05.996Z</time></trkpt><trkpt lat="44.6329083" lon="8.2250883"><ele>226.0</ele><time>2026-04-12T11:53:06.996Z</time></trkpt><trkpt lat="44.6327767" lon="8.22501"><ele>226.0</ele><time>2026-04-12T11:53:08Z</time></trkpt><trkpt lat="44.6326367" lon="8.2249267"><ele>226.0</ele><time>2026-04-12T11:53:08.996Z</time></trkpt><trkpt lat="44.63249" lon="8.2248383"><ele>226.0</ele><time>2026-04-12T11:53:09.997Z</time></trkpt><trkpt lat="44.6323333" lon="8.2247433"><ele>226.0</ele><time>2026-04-12T11:53:10.994Z</time></trkpt><trkpt lat="44.6321667" lon="8.2246433"><ele>227.0</ele><time>2026-04-12T11:53:11.992Z</time></trkpt><trkpt lat="44.6319833" lon="8.2245383"><ele>228.0</ele><time>2026-04-12T11:53:12.997Z</time></trkpt><trkpt lat="44.6317983" lon="8.224425"><ele>229.0</ele><time>2026-04-12T11:53:13.997Z</time></trkpt><trkpt lat="44.6316133" lon="8.22431"><ele>229.0</ele><time>2026-04-12T11:53:14.995Z</time></trkpt><trkpt lat="44.6314267" lon="8.2241933"><ele>229.0</ele><time>2026-04-12T11:53:15.999Z</time></trkpt><trkpt lat="44.631235" lon="8.2240767"><ele>229.0</ele><time>2026-04-12T11:53:16.999Z</time></trkpt><trkpt lat="44.6310383" lon="8.2239617"><ele>230.0</ele><time>2026-04-12T11:53:17.997Z</time></trkpt><trkpt lat="44.6308433" lon="8.2238467"><ele>231.0</ele><time>2026-04-12T11:53:18.998Z</time></trkpt><trkpt lat="44.63065" lon="8.22373"><ele>232.0</ele><time>2026-04-12T11:53:19.996Z</time></trkpt><trkpt lat="44.630455" lon="8.2236133"><ele>231.66666666666666</ele><time>2026-04-12T11:53:20.995Z</time></trkpt><trkpt lat="44.6302567" lon="8.223495"><ele>231.33333333333331</ele><time>2026-04-12T11:53:22.002Z</time></trkpt><trkpt lat="44.630055" lon="8.2233717"><ele>231.0</ele><time>2026-04-12T11:53:22.996Z</time></trkpt><trkpt lat="44.6298583" lon="8.2232483"><ele>232.0</ele><time>2026-04-12T11:53:23.996Z</time></trkpt><trkpt lat="44.6296617" lon="8.223125"><ele>233.0</ele><time>2026-04-12T11:53:24.999Z</time></trkpt><trkpt lat="44.6294683" lon="8.2230033"><ele>234.0</ele><time>2026-04-12T11:53:26.003Z</time></trkpt><trkpt lat="44.6292733" lon="8.2228833"><ele>234.0</ele><time>2026-04-12T11:53:26.995Z</time></trkpt><trkpt lat="44.629075" lon="8.222765"><ele>234.0</ele><time>2026-04-12T11:53:27.996Z</time></trkpt><trkpt lat="44.6288817" lon="8.2226517"><ele>234.0</ele><time>2026-04-12T11:53:28.995Z</time></trkpt><trkpt lat="44.62869" lon="8.2225367"><ele>233.33333333333331</ele><time>2026-04-12T11:53:29.993Z</time></trkpt><trkpt lat="44.6285017" lon="8.2224233"><ele>232.66666666666666</ele><time>2026-04-12T11:53:30.995Z</time></trkpt><trkpt lat="44.6283133" lon="8.2223083"><ele>232.0</ele><time>2026-04-12T11:53:31.995Z</time></trkpt><trkpt lat="44.62813" lon="8.2221933"><ele>231.33333333333331</ele><time>2026-04-12T11:53:32.997Z</time></trkpt><trkpt lat="44.6279433" lon="8.22208"><ele>230.66666666666669</ele><time>2026-04-12T11:53:33.996Z</time></trkpt><trkpt lat="44.6277517" lon="8.221965"><ele>230.0</ele><time>2026-04-12T11:53:34.993Z</time></trkpt><trkpt lat="44.6275583" lon="8.2218517"><ele>230.0</ele><time>2026-04-12T11:53:35.994Z</time></trkpt><trkpt lat="44.6273667" lon="8.2217367"><ele>230.0</ele><time>2026-04-12T11:53:36.996Z</time></trkpt><trkpt lat="44.627175" lon="8.2216217"><ele>230.0</ele><time>2026-04-12T11:53:37.996Z</time></trkpt><trkpt lat="44.6269833" lon="8.221505"><ele>231.0</ele><time>2026-04-12T11:53:38.996Z</time></trkpt><trkpt lat="44.62679" lon="8.2213883"><ele>232.0</ele><time>2026-04-12T11:53:40.001Z</time></trkpt><trkpt lat="44.626595" lon="8.2212717"><ele>233.0</ele><time>2026-04-12T11:53:40.995Z</time></trkpt><trkpt lat="44.6263967" lon="8.221155"><ele>233.0</ele><time>2026-04-12T11:53:41.997Z</time></trkpt><trkpt lat="44.6261967" lon="8.2210383"><ele>233.0</ele><time>2026-04-12T11:53:42.999Z</time></trkpt><trkpt lat="44.6260033" lon="8.2209217"><ele>233.0</ele><time>2026-04-12T11:53:43.993Z</time></trkpt><trkpt lat="44.6258183" lon="8.2208033"><ele>232.33333333333334</ele><time>2026-04-12T11:53:45Z</time></trkpt><trkpt lat="44.625655" lon="8.2206767"><ele>231.66666666666669</ele><time>2026-04-12T11:53:45.996Z</time></trkpt><trkpt lat="44.625505" lon="8.2205383"><ele>231.0</ele><time>2026-04-12T11:53:46.997Z</time></trkpt><trkpt lat="44.6253683" lon="8.22039"><ele>231.66666666666669</ele><time>2026-04-12T11:53:47.997Z</time></trkpt><trkpt lat="44.6252367" lon="8.2202283"><ele>232.33333333333334</ele><time>2026-04-12T11:53:48.997Z</time></trkpt><trkpt lat="44.625115" lon="8.2200517"><ele>233.0</ele><time>2026-04-12T11:53:50Z</time></trkpt><trkpt lat="44.625005" lon="8.2198617"><ele>233.66666666666669</ele><time>2026-04-12T11:53:50.996Z</time></trkpt><trkpt lat="44.6248983" lon="8.2196667"><ele>234.33333333333331</ele><time>2026-04-12T11:53:51.993Z</time></trkpt><trkpt lat="44.6248" lon="8.2194617"><ele>235.0</ele><time>2026-04-12T11:53:52.994Z</time></trkpt><trkpt lat="44.6247" lon="8.219245"><ele>235.0</ele><time>2026-04-12T11:53:53.997Z</time></trkpt><trkpt lat="44.624595" lon="8.219025"><ele>235.0</ele><time>2026-04-12T11:53:54.995Z</time></trkpt><trkpt lat="44.6244917" lon="8.218805"><ele>235.0</ele><time>2026-04-12T11:53:55.992Z</time></trkpt><trkpt lat="44.6243867" lon="8.2185817"><ele>234.0</ele><time>2026-04-12T11:53:56.997Z</time></trkpt><trkpt lat="44.62427" lon="8.2183617"><ele>233.0</ele><time>2026-04-12T11:53:57.996Z</time></trkpt><trkpt lat="44.6241417" lon="8.21815"><ele>232.0</ele><time>2026-04-12T11:53:58.998Z</time></trkpt><trkpt lat="44.6239983" lon="8.21796"><ele>231.66666666666666</ele><time>2026-04-12T11:53:59.999Z</time></trkpt><trkpt lat="44.62385" lon="8.2177783"><ele>231.33333333333331</ele><time>2026-04-12T11:54:00.998Z</time></trkpt><trkpt lat="44.6237017" lon="8.2176"><ele>231.0</ele><time>2026-04-12T11:54:01.993Z</time></trkpt><trkpt lat="44.623555" lon="8.2174217"><ele>235.0</ele><time>2026-04-12T11:54:02.993Z</time></trkpt><trkpt lat="44.623415" lon="8.2172433"><ele>239.0</ele><time>2026-04-12T11:54:03.998Z</time></trkpt><trkpt lat="44.62328" lon="8.2170583"><ele>243.0</ele><time>2026-04-12T11:54:04.993Z</time></trkpt><trkpt lat="44.62315" lon="8.2168833"><ele>243.0</ele><time>2026-04-12T11:54:05.998Z</time></trkpt><trkpt lat="44.6230117" lon="8.2167117"><ele>243.0</ele><time>2026-04-12T11:54:06.999Z</time></trkpt><trkpt lat="44.6228767" lon="8.2165267"><ele>243.0</ele><time>2026-04-12T11:54:08.001Z</time></trkpt><trkpt lat="44.6227483" lon="8.2163283"><ele>240.66666666666669</ele><time>2026-04-12T11:54:08.997Z</time></trkpt><trkpt lat="44.622625" lon="8.2161167"><ele>238.33333333333334</ele><time>2026-04-12T11:54:09.996Z</time></trkpt><trkpt lat="44.6225033" lon="8.215885"><ele>236.0</ele><time>2026-04-12T11:54:10.997Z</time></trkpt><trkpt lat="44.6223883" lon="8.21564"><ele>241.0</ele><time>2026-04-12T11:54:11.994Z</time></trkpt><trkpt lat="44.6222783" lon="8.215395"><ele>246.0</ele><time>2026-04-12T11:54:12.993Z</time></trkpt><trkpt lat="44.62216" lon="8.2151517"><ele>251.0</ele><time>2026-04-12T11:54:13.998Z</time></trkpt><trkpt lat="44.6220383" lon="8.2149167"><ele>250.33333333333334</ele><time>2026-04-12T11:54:14.995Z</time></trkpt><trkpt lat="44.62192" lon="8.214695"><ele>249.66666666666669</ele><time>2026-04-12T11:54:15.996Z</time></trkpt><trkpt lat="44.62178" lon="8.2144983"><ele>249.0</ele><time>2026-04-12T11:54:16.996Z</time></trkpt><trkpt lat="44.621635" lon="8.2143133"><ele>249.0</ele><time>2026-04-12T11:54:17.995Z</time></trkpt><trkpt lat="44.6214617" lon="8.214145"><ele>249.0</ele><time>2026-04-12T11:54:18.995Z</time></trkpt><trkpt lat="44.6212767" lon="8.214"><ele>249.0</ele><time>2026-04-12T11:54:19.998Z</time></trkpt><trkpt lat="44.6210883" lon="8.2138583"><ele>250.66666666666669</ele><time>2026-04-12T11:54:20.995Z</time></trkpt><trkpt lat="44.62091" lon="8.213715"><ele>252.33333333333334</ele><time>2026-04-12T11:54:21.994Z</time></trkpt><trkpt lat="44.62074" lon="8.2135633"><ele>254.0</ele><time>2026-04-12T11:54:22.997Z</time></trkpt><trkpt lat="44.6205767" lon="8.2134117"><ele>254.0</ele><time>2026-04-12T11:54:23.996Z</time></trkpt><trkpt lat="44.6204167" lon="8.2132683"><ele>254.0</ele><time>2026-04-12T11:54:24.997Z</time></trkpt><trkpt lat="44.6202583" lon="8.2131267"><ele>254.0</ele><time>2026-04-12T11:54:26.001Z</time></trkpt><trkpt lat="44.62009" lon="8.2129967"><ele>255.0</ele><time>2026-04-12T11:54:26.995Z</time></trkpt><trkpt lat="44.6199183" lon="8.2128833"><ele>256.0</ele><time>2026-04-12T11:54:27.993Z</time></trkpt><trkpt lat="44.6197417" lon="8.2127767"><ele>257.0</ele><time>2026-04-12T11:54:28.996Z</time></trkpt><trkpt lat="44.61957" lon="8.2126733"><ele>254.33333333333334</ele><time>2026-04-12T11:54:29.994Z</time></trkpt><trkpt lat="44.6193967" lon="8.2125717"><ele>251.66666666666669</ele><time>2026-04-12T11:54:30.995Z</time></trkpt><trkpt lat="44.6192233" lon="8.21247"><ele>249.0</ele><time>2026-04-12T11:54:31.995Z</time></trkpt><trkpt lat="44.619045" lon="8.2123667"><ele>249.0</ele><time>2026-04-12T11:54:32.999Z</time></trkpt><trkpt lat="44.6188667" lon="8.21226"><ele>249.0</ele><time>2026-04-12T11:54:33.999Z</time></trkpt><trkpt lat="44.6186883" lon="8.2121483"><ele>249.0</ele><time>2026-04-12T11:54:34.996Z</time></trkpt><trkpt lat="44.6185067" lon="8.212035"><ele>249.0</ele><time>2026-04-12T11:54:35.995Z</time></trkpt><trkpt lat="44.6183217" lon="8.2119217"><ele>249.0</ele><time>2026-04-12T11:54:36.995Z</time></trkpt><trkpt lat="44.618135" lon="8.2118067"><ele>249.0</ele><time>2026-04-12T11:54:37.999Z</time></trkpt><trkpt lat="44.6179517" lon="8.2116967"><ele>248.66666666666669</ele><time>2026-04-12T11:54:38.996Z</time></trkpt><trkpt lat="44.6177833" lon="8.2115933"><ele>248.33333333333334</ele><time>2026-04-12T11:54:39.995Z</time></trkpt><trkpt lat="44.6176367" lon="8.2114917"><ele>248.0</ele><time>2026-04-12T11:54:40.996Z</time></trkpt><trkpt lat="44.6175133" lon="8.211375"><ele>248.0</ele><time>2026-04-12T11:54:41.994Z</time></trkpt><trkpt lat="44.6174183" lon="8.2112383"><ele>248.0</ele><time>2026-04-12T11:54:42.995Z</time></trkpt><trkpt lat="44.6173667" lon="8.211085"><ele>248.0</ele><time>2026-04-12T11:54:43.998Z</time></trkpt><trkpt lat="44.6173367" lon="8.210915"><ele>248.0</ele><time>2026-04-12T11:54:44.996Z</time></trkpt><trkpt lat="44.6173317" lon="8.2107267"><ele>248.0</ele><time>2026-04-12T11:54:45.997Z</time></trkpt><trkpt lat="44.61734" lon="8.2105133"><ele>248.0</ele><time>2026-04-12T11:54:46.999Z</time></trkpt><trkpt lat="44.6173583" lon="8.2102767"><ele>248.0</ele><time>2026-04-12T11:54:47.995Z</time></trkpt><trkpt lat="44.6173733" lon="8.2100117"><ele>248.33333333333334</ele><time>2026-04-12T11:54:48.996Z</time></trkpt><trkpt lat="44.6173967" lon="8.20972"><ele>248.66666666666669</ele><time>2026-04-12T11:54:49.997Z</time></trkpt><trkpt lat="44.6174217" lon="8.2094183"><ele>249.0</ele><time>2026-04-12T11:54:50.996Z</time></trkpt><trkpt lat="44.6174517" lon="8.2091133"><ele>248.33333333333331</ele><time>2026-04-12T11:54:51.996Z</time></trkpt><trkpt lat="44.61748" lon="8.2088117"><ele>247.66666666666666</ele><time>2026-04-12T11:54:52.996Z</time></trkpt><trkpt lat="44.61751" lon="8.2085117"><ele>247.0</ele><time>2026-04-12T11:54:53.995Z</time></trkpt><trkpt lat="44.6175367" lon="8.2082267"><ele>247.0</ele><time>2026-04-12T11:54:54.994Z</time></trkpt><trkpt lat="44.6175633" lon="8.207955"><ele>247.0</ele><time>2026-04-12T11:54:55.996Z</time></trkpt><trkpt lat="44.6175883" lon="8.2076967"><ele>247.0</ele><time>2026-04-12T11:54:56.998Z</time></trkpt><trkpt lat="44.617595" lon="8.2074517"><ele>247.33333333333331</ele><time>2026-04-12T11:54:57.998Z</time></trkpt><trkpt lat="44.61758" lon="8.2072133"><ele>247.66666666666669</ele><time>2026-04-12T11:54:58.994Z</time></trkpt><trkpt lat="44.617535" lon="8.20697"><ele>248.0</ele><time>2026-04-12T11:54:59.995Z</time></trkpt><trkpt lat="44.6174767" lon="8.2067167"><ele>249.66666666666669</ele><time>2026-04-12T11:55:00.999Z</time></trkpt><trkpt lat="44.6174167" lon="8.2064517"><ele>251.33333333333331</ele><time>2026-04-12T11:55:02.002Z</time></trkpt><trkpt lat="44.617355" lon="8.206175"><ele>253.0</ele><time>2026-04-12T11:55:02.995Z</time></trkpt><trkpt lat="44.6172933" lon="8.20589"><ele>254.33333333333331</ele><time>2026-04-12T11:55:03.995Z</time></trkpt><trkpt lat="44.6172317" lon="8.2056033"><ele>255.66666666666669</ele><time>2026-04-12T11:55:04.995Z</time></trkpt><trkpt lat="44.617175" lon="8.2053217"><ele>257.0</ele><time>2026-04-12T11:55:05.998Z</time></trkpt><trkpt lat="44.6171183" lon="8.20504"><ele>257.0</ele><time>2026-04-12T11:55:06.995Z</time></trkpt><trkpt lat="44.61706" lon="8.2047583"><ele>257.0</ele><time>2026-04-12T11:55:07.998Z</time></trkpt><trkpt lat="44.6170017" lon="8.20448"><ele>257.0</ele><time>2026-04-12T11:55:08.998Z</time></trkpt><trkpt lat="44.616945" lon="8.2042067"><ele>251.0</ele><time>2026-04-12T11:55:09.993Z</time></trkpt><trkpt lat="44.6168883" lon="8.2039367"><ele>245.0</ele><time>2026-04-12T11:55:10.993Z</time></trkpt><trkpt lat="44.6168317" lon="8.20367"><ele>239.0</ele><time>2026-04-12T11:55:11.994Z</time></trkpt><trkpt lat="44.6167767" lon="8.20341"><ele>241.0</ele><time>2026-04-12T11:55:12.998Z</time></trkpt><trkpt lat="44.6167217" lon="8.2031617"><ele>243.0</ele><time>2026-04-12T11:55:13.994Z</time></trkpt><trkpt lat="44.6166717" lon="8.2029267"><ele>245.0</ele><time>2026-04-12T11:55:14.995Z</time></trkpt><trkpt lat="44.6166333" lon="8.2026967"><ele>245.0</ele><time>2026-04-12T11:55:15.998Z</time></trkpt><trkpt lat="44.6166017" lon="8.2024783"><ele>245.0</ele><time>2026-04-12T11:55:16.995Z</time></trkpt><trkpt lat="44.6165967" lon="8.20225"><ele>245.0</ele><time>2026-04-12T11:55:17.995Z</time></trkpt><trkpt lat="44.6166017" lon="8.2020133"><ele>247.33333333333334</ele><time>2026-04-12T11:55:18.995Z</time></trkpt><trkpt lat="44.6166167" lon="8.2017683"><ele>249.66666666666669</ele><time>2026-04-12T11:55:19.995Z</time></trkpt><trkpt lat="44.6166183" lon="8.2015183"><ele>252.0</ele><time>2026-04-12T11:55:20.996Z</time></trkpt><trkpt lat="44.61664" lon="8.201275"><ele>253.33333333333331</ele><time>2026-04-12T11:55:21.997Z</time></trkpt><trkpt lat="44.61664" lon="8.2010167"><ele>254.66666666666666</ele><time>2026-04-12T11:55:22.995Z</time></trkpt><trkpt lat="44.6166417" lon="8.200765"><ele>256.0</ele><time>2026-04-12T11:55:24.006Z</time></trkpt><trkpt lat="44.61662" lon="8.2004983"><ele>259.0</ele><time>2026-04-12T11:55:24.994Z</time></trkpt><trkpt lat="44.6165767" lon="8.20024"><ele>262.0</ele><time>2026-04-12T11:55:25.999Z</time></trkpt><trkpt lat="44.616555" lon="8.1999117"><ele>265.0</ele><time>2026-04-12T11:55:26.996Z</time></trkpt><trkpt lat="44.6165433" lon="8.19965"><ele>270.66666666666663</ele><time>2026-04-12T11:55:27.997Z</time></trkpt><trkpt lat="44.616555" lon="8.1994"><ele>276.3333333333333</ele><time>2026-04-12T11:55:28.996Z</time></trkpt><trkpt lat="44.616565" lon="8.199155"><ele>282.0</ele><time>2026-04-12T11:55:29.998Z</time></trkpt><trkpt lat="44.61556" lon="8.1975533"><ele>261.5</ele><time>2026-04-12T11:55:38.002Z</time></trkpt><trkpt lat="44.615225" lon="8.197595"><ele>241.0</ele><time>2026-04-12T11:55:38.997Z</time></trkpt><trkpt lat="44.615145" lon="8.1973817"><ele>252.66666666666666</ele><time>2026-04-12T11:55:40Z</time></trkpt><trkpt lat="44.61501" lon="8.197205"><ele>264.3333333333333</ele><time>2026-04-12T11:55:40.996Z</time></trkpt><trkpt lat="44.6148667" lon="8.1970333"><ele>276.0</ele><time>2026-04-12T11:55:41.995Z</time></trkpt><trkpt lat="44.6147717" lon="8.19683"><ele>276.0</ele><time>2026-04-12T11:55:42.999Z</time></trkpt><trkpt lat="44.6146067" lon="8.1967117"><ele>276.0</ele><time>2026-04-12T11:55:43.998Z</time></trkpt><trkpt lat="44.6144617" lon="8.1965767"><ele>276.0</ele><time>2026-04-12T11:55:44.996Z</time></trkpt><trkpt lat="44.6143117" lon="8.1964483"><ele>275.3333333333333</ele><time>2026-04-12T11:55:46.004Z</time></trkpt><trkpt lat="44.614145" lon="8.1963467"><ele>274.66666666666663</ele><time>2026-04-12T11:55:47Z</time></trkpt><trkpt lat="44.6139983" lon="8.1962117"><ele>274.0</ele><time>2026-04-12T11:55:47.996Z</time></trkpt><trkpt lat="44.6138467" lon="8.19608"><ele>274.0</ele><time>2026-04-12T11:55:49.001Z</time></trkpt><trkpt lat="44.6136817" lon="8.19597"><ele>274.0</ele><time>2026-04-12T11:55:49.998Z</time></trkpt><trkpt lat="44.6135117" lon="8.1958517"><ele>274.0</ele><time>2026-04-12T11:55:51.001Z</time></trkpt><trkpt lat="44.61333" lon="8.1957567"><ele>272.0</ele><time>2026-04-12T11:55:51.999Z</time></trkpt><trkpt lat="44.6131517" lon="8.195655"><ele>270.0</ele><time>2026-04-12T11:55:52.996Z</time></trkpt><trkpt lat="44.6129817" lon="8.1955367"><ele>268.0</ele><time>2026-04-12T11:55:53.998Z</time></trkpt><trkpt lat="44.6127933" lon="8.19545"><ele>263.3333333333333</ele><time>2026-04-12T11:55:54.997Z</time></trkpt><trkpt lat="44.6126217" lon="8.1953283"><ele>258.6666666666667</ele><time>2026-04-12T11:55:55.997Z</time></trkpt><trkpt lat="44.6124467" lon="8.1952067"><ele>254.0</ele><time>2026-04-12T11:55:56.999Z</time></trkpt><trkpt lat="44.6122767" lon="8.19507"><ele>254.0</ele><time>2026-04-12T11:55:57.995Z</time></trkpt><trkpt lat="44.6121033" lon="8.1949383"><ele>254.0</ele><time>2026-04-12T11:55:59.003Z</time></trkpt><trkpt lat="44.61193" lon="8.1948133"><ele>254.0</ele><time>2026-04-12T11:55:59.998Z</time></trkpt><trkpt lat="44.6117617" lon="8.19468"><ele>254.0</ele><time>2026-04-12T11:56:01Z</time></trkpt><trkpt lat="44.6115933" lon="8.19454"><ele>254.0</ele><time>2026-04-12T11:56:01.996Z</time></trkpt><trkpt lat="44.6114267" lon="8.1944017"><ele>254.0</ele><time>2026-04-12T11:56:02.998Z</time></trkpt><trkpt lat="44.611265" lon="8.1942633"><ele>251.0</ele><time>2026-04-12T11:56:04Z</time></trkpt><trkpt lat="44.6111017" lon="8.1941283"><ele>248.0</ele><time>2026-04-12T11:56:04.997Z</time></trkpt><trkpt lat="44.6109367" lon="8.1939967"><ele>245.0</ele><time>2026-04-12T11:56:05.999Z</time></trkpt><trkpt lat="44.6107733" lon="8.1938667"><ele>248.0</ele><time>2026-04-12T11:56:07.001Z</time></trkpt><trkpt lat="44.6106083" lon="8.1937467"><ele>251.0</ele><time>2026-04-12T11:56:07.998Z</time></trkpt><trkpt lat="44.61044" lon="8.193645"><ele>254.0</ele><time>2026-04-12T11:56:08.999Z</time></trkpt><trkpt lat="44.6102783" lon="8.1935417"><ele>254.0</ele><time>2026-04-12T11:56:09.997Z</time></trkpt><trkpt lat="44.6101133" lon="8.19344"><ele>254.0</ele><time>2026-04-12T11:56:11.001Z</time></trkpt><trkpt lat="44.6099517" lon="8.1933383"><ele>254.0</ele><time>2026-04-12T11:56:11.994Z</time></trkpt><trkpt lat="44.6097967" lon="8.1932317"><ele>258.33333333333337</ele><time>2026-04-12T11:56:12.994Z</time></trkpt><trkpt lat="44.6096467" lon="8.1931383"><ele>262.6666666666667</ele><time>2026-04-12T11:56:13.998Z</time></trkpt><trkpt lat="44.6094867" lon="8.193095"><ele>267.0</ele><time>2026-04-12T11:56:15Z</time></trkpt><trkpt lat="44.60932" lon="8.193065"><ele>267.3333333333333</ele><time>2026-04-12T11:56:15.994Z</time></trkpt><trkpt lat="44.6091467" lon="8.1930483"><ele>267.66666666666663</ele><time>2026-04-12T11:56:17.001Z</time></trkpt><trkpt lat="44.6089667" lon="8.193045"><ele>268.0</ele><time>2026-04-12T11:56:17.998Z</time></trkpt><trkpt lat="44.6087883" lon="8.1930417"><ele>266.3333333333333</ele><time>2026-04-12T11:56:19.002Z</time></trkpt><trkpt lat="44.6086033" lon="8.1930283"><ele>264.6666666666667</ele><time>2026-04-12T11:56:19.994Z</time></trkpt><trkpt lat="44.6084117" lon="8.19302"><ele>263.0</ele><time>2026-04-12T11:56:21Z</time></trkpt><trkpt lat="44.60822" lon="8.1930067"><ele>263.0</ele><time>2026-04-12T11:56:21.997Z</time></trkpt><trkpt lat="44.608025" lon="8.1929833"><ele>263.0</ele><time>2026-04-12T11:56:22.997Z</time></trkpt><trkpt lat="44.60783" lon="8.19295"><ele>263.0</ele><time>2026-04-12T11:56:24Z</time></trkpt><trkpt lat="44.607635" lon="8.1929217"><ele>265.6666666666667</ele><time>2026-04-12T11:56:24.998Z</time></trkpt><trkpt lat="44.6074417" lon="8.1928933"><ele>268.3333333333333</ele><time>2026-04-12T11:56:25.998Z</time></trkpt><trkpt lat="44.6072417" lon="8.1928917"><ele>271.0</ele><time>2026-04-12T11:56:26.999Z</time></trkpt><trkpt lat="44.6070417" lon="8.192915"><ele>277.66666666666663</ele><time>2026-04-12T11:56:27.998Z</time></trkpt><trkpt lat="44.60684" lon="8.1929617"><ele>284.3333333333333</ele><time>2026-04-12T11:56:28.994Z</time></trkpt><trkpt lat="44.60664" lon="8.1930133"><ele>291.0</ele><time>2026-04-12T11:56:29.996Z</time></trkpt><trkpt lat="44.60644" lon="8.1930817"><ele>291.0</ele><time>2026-04-12T11:56:30.998Z</time></trkpt><trkpt lat="44.6062367" lon="8.1931583"><ele>291.0</ele><time>2026-04-12T11:56:31.995Z</time></trkpt><trkpt lat="44.606035" lon="8.193205"><ele>291.0</ele><time>2026-04-12T11:56:32.997Z</time></trkpt><trkpt lat="44.6058333" lon="8.1932917"><ele>291.6666666666667</ele><time>2026-04-12T11:56:33.995Z</time></trkpt><trkpt lat="44.6056267" lon="8.1933883"><ele>292.33333333333337</ele><time>2026-04-12T11:56:34.996Z</time></trkpt><trkpt lat="44.6054217" lon="8.1934967"><ele>293.0</ele><time>2026-04-12T11:56:35.999Z</time></trkpt><trkpt lat="44.6052317" lon="8.1936083"><ele>293.0</ele><time>2026-04-12T11:56:36.999Z</time></trkpt><trkpt lat="44.60507" lon="8.1937133"><ele>293.0</ele><time>2026-04-12T11:56:37.996Z</time></trkpt><trkpt lat="44.6049017" lon="8.19378"><ele>293.0</ele><time>2026-04-12T11:56:38.997Z</time></trkpt><trkpt lat="44.6047367" lon="8.1938283"><ele>293.0</ele><time>2026-04-12T11:56:39.997Z</time></trkpt><trkpt lat="44.604575" lon="8.1939267"><ele>293.0</ele><time>2026-04-12T11:56:40.999Z</time></trkpt><trkpt lat="44.6044217" lon="8.19403"><ele>293.0</ele><time>2026-04-12T11:56:42Z</time></trkpt><trkpt lat="44.604275" lon="8.194125"><ele>288.0</ele><time>2026-04-12T11:56:42.996Z</time></trkpt><trkpt lat="44.6041217" lon="8.1942017"><ele>283.0</ele><time>2026-04-12T11:56:44.003Z</time></trkpt><trkpt lat="44.603955" lon="8.1942633"><ele>278.0</ele><time>2026-04-12T11:56:44.997Z</time></trkpt><trkpt lat="44.60379" lon="8.1943183"><ele>282.6666666666667</ele><time>2026-04-12T11:56:45.999Z</time></trkpt><trkpt lat="44.6036167" lon="8.1943833"><ele>287.3333333333333</ele><time>2026-04-12T11:56:46.998Z</time></trkpt><trkpt lat="44.6034467" lon="8.1944533"><ele>292.0</ele><time>2026-04-12T11:56:47.997Z</time></trkpt><trkpt lat="44.6032783" lon="8.1945267"><ele>292.0</ele><time>2026-04-12T11:56:48.999Z</time></trkpt><trkpt lat="44.6031083" lon="8.1945967"><ele>292.0</ele><time>2026-04-12T11:56:49.999Z</time></trkpt><trkpt lat="44.6029517" lon="8.1946633"><ele>292.0</ele><time>2026-04-12T11:56:50.998Z</time></trkpt><trkpt lat="44.6028067" lon="8.194735"><ele>295.25</ele><time>2026-04-12T11:56:51.998Z</time></trkpt><trkpt lat="44.6026667" lon="8.1947767"><ele>298.5</ele><time>2026-04-12T11:56:53.001Z</time></trkpt><trkpt lat="44.6025283" lon="8.1947967"><ele>301.75</ele><time>2026-04-12T11:56:53.995Z</time></trkpt><trkpt lat="44.6023933" lon="8.1947933"><ele>305.0</ele><time>2026-04-12T11:56:54.996Z</time></trkpt><trkpt lat="44.6022583" lon="8.1947967"><ele>305.0</ele><time>2026-04-12T11:56:55.995Z</time></trkpt><trkpt lat="44.6021283" lon="8.1947667"><ele>305.0</ele><time>2026-04-12T11:56:56.999Z</time></trkpt><trkpt lat="44.602005" lon="8.1947267"><ele>305.0</ele><time>2026-04-12T11:56:57.999Z</time></trkpt><trkpt lat="44.60188" lon="8.194685"><ele>305.0</ele><time>2026-04-12T11:56:58.998Z</time></trkpt><trkpt lat="44.601755" lon="8.1946417"><ele>306.0</ele><time>2026-04-12T11:56:59.996Z</time></trkpt><trkpt lat="44.6016333" lon="8.19461"><ele>307.0</ele><time>2026-04-12T11:57:01Z</time></trkpt><trkpt lat="44.60153" lon="8.19458"><ele>308.0</ele><time>2026-04-12T11:57:02Z</time></trkpt><trkpt lat="44.6014367" lon="8.1945517"><ele>309.0</ele><time>2026-04-12T11:57:02.997Z</time></trkpt><trkpt lat="44.60135" lon="8.19452"><ele>310.0</ele><time>2026-04-12T11:57:03.996Z</time></trkpt><trkpt lat="44.6012583" lon="8.1944733"><ele>307.25</ele><time>2026-04-12T11:57:04.999Z</time></trkpt><trkpt lat="44.60115" lon="8.194425"><ele>304.5</ele><time>2026-04-12T11:57:05.997Z</time></trkpt><trkpt lat="44.60104" lon="8.1943617"><ele>301.75</ele><time>2026-04-12T11:57:06.994Z</time></trkpt><trkpt lat="44.6009233" lon="8.1942967"><ele>299.0</ele><time>2026-04-12T11:57:07.997Z</time></trkpt><trkpt lat="44.6008017" lon="8.194235"><ele>299.0</ele><time>2026-04-12T11:57:09.001Z</time></trkpt><trkpt lat="44.6006767" lon="8.1941583"><ele>299.0</ele><time>2026-04-12T11:57:09.999Z</time></trkpt><trkpt lat="44.600555" lon="8.1940683"><ele>299.0</ele><time>2026-04-12T11:57:11.003Z</time></trkpt><trkpt lat="44.6004383" lon="8.1939583"><ele>299.0</ele><time>2026-04-12T11:57:11.996Z</time></trkpt><trkpt lat="44.6003283" lon="8.1938367"><ele>300.25</ele><time>2026-04-12T11:57:13Z</time></trkpt><trkpt lat="44.60022" lon="8.1937"><ele>301.5</ele><time>2026-04-12T11:57:13.999Z</time></trkpt><trkpt lat="44.6001083" lon="8.1935583"><ele>302.75</ele><time>2026-04-12T11:57:14.997Z</time></trkpt><trkpt lat="44.6000017" lon="8.193415"><ele>304.0</ele><time>2026-04-12T11:57:15.998Z</time></trkpt><trkpt lat="44.5999067" lon="8.193285"><ele>304.5</ele><time>2026-04-12T11:57:16.998Z</time></trkpt><trkpt lat="44.599805" lon="8.1931583"><ele>305.0</ele><time>2026-04-12T11:57:17.995Z</time></trkpt><trkpt lat="44.5997" lon="8.1930267"><ele>305.5</ele><time>2026-04-12T11:57:18.993Z</time></trkpt><trkpt lat="44.599595" lon="8.19289"><ele>306.0</ele><time>2026-04-12T11:57:19.999Z</time></trkpt><trkpt lat="44.5994933" lon="8.1927567"><ele>306.0</ele><time>2026-04-12T11:57:20.996Z</time></trkpt><trkpt lat="44.5993983" lon="8.1926283"><ele>306.0</ele><time>2026-04-12T11:57:21.996Z</time></trkpt><trkpt lat="44.5993083" lon="8.1925083"><ele>306.0</ele><time>2026-04-12T11:57:22.995Z</time></trkpt><trkpt lat="44.5992283" lon="8.1923767"><ele>306.0</ele><time>2026-04-12T11:57:23.997Z</time></trkpt><trkpt lat="44.5991633" lon="8.1922333"><ele>309.8</ele><time>2026-04-12T11:57:24.998Z</time></trkpt><trkpt lat="44.5990817" lon="8.1921167"><ele>313.6</ele><time>2026-04-12T11:57:25.997Z</time></trkpt><trkpt lat="44.59902" lon="8.192005"><ele>317.4</ele><time>2026-04-12T11:57:26.999Z</time></trkpt><trkpt lat="44.5989333" lon="8.1919417"><ele>321.2</ele><time>2026-04-12T11:57:27.996Z</time></trkpt><trkpt lat="44.5988417" lon="8.1919217"><ele>325.0</ele><time>2026-04-12T11:57:28.993Z</time></trkpt><trkpt lat="44.5987517" lon="8.191955"><ele>322.6</ele><time>2026-04-12T11:57:29.994Z</time></trkpt><trkpt lat="44.5986633" lon="8.1920333"><ele>320.2</ele><time>2026-04-12T11:57:31Z</time></trkpt><trkpt lat="44.5985733" lon="8.1921233"><ele>317.8</ele><time>2026-04-12T11:57:31.996Z</time></trkpt><trkpt lat="44.598465" lon="8.1921867"><ele>315.4</ele><time>2026-04-12T11:57:32.999Z</time></trkpt><trkpt lat="44.5983567" lon="8.1922233"><ele>313.0</ele><time>2026-04-12T11:57:33.998Z</time></trkpt><trkpt lat="44.5982533" lon="8.19223"><ele>313.0</ele><time>2026-04-12T11:57:34.999Z</time></trkpt><trkpt lat="44.598165" lon="8.1922067"><ele>313.0</ele><time>2026-04-12T11:57:35.999Z</time></trkpt><trkpt lat="44.5980767" lon="8.1921783"><ele>313.0</ele><time>2026-04-12T11:57:37.001Z</time></trkpt><trkpt lat="44.5980017" lon="8.1921567"><ele>313.0</ele><time>2026-04-12T11:57:37.997Z</time></trkpt><trkpt lat="44.59793" lon="8.1921283"><ele>313.0</ele><time>2026-04-12T11:57:38.998Z</time></trkpt><trkpt lat="44.5978633" lon="8.1920933"><ele>313.0</ele><time>2026-04-12T11:57:39.995Z</time></trkpt><trkpt lat="44.597805" lon="8.1920467"><ele>313.0</ele><time>2026-04-12T11:57:40.997Z</time></trkpt><trkpt lat="44.5978183" lon="8.19196"><ele>313.0</ele><time>2026-04-12T11:57:41.997Z</time></trkpt><trkpt lat="44.5979117" lon="8.1918583"><ele>313.0</ele><time>2026-04-12T11:57:43.996Z</time></trkpt><trkpt lat="44.5979767" lon="8.19185"><ele>313.0</ele><time>2026-04-12T11:57:44.999Z</time></trkpt><trkpt lat="44.5980633" lon="8.19186"><ele>313.0</ele><time>2026-04-12T11:57:45.995Z</time></trkpt><trkpt lat="44.5981617" lon="8.1918817"><ele>313.0</ele><time>2026-04-12T11:57:46.997Z</time></trkpt><trkpt lat="44.59827" lon="8.19188"><ele>313.0</ele><time>2026-04-12T11:57:47.996Z</time></trkpt><trkpt lat="44.598395" lon="8.1918433"><ele>313.0</ele><time>2026-04-12T11:57:48.999Z</time></trkpt><trkpt lat="44.5984967" lon="8.191765"><ele>313.0</ele><time>2026-04-12T11:57:49.996Z</time></trkpt><trkpt lat="44.598595" lon="8.1916683"><ele>313.0</ele><time>2026-04-12T11:57:50.996Z</time></trkpt><trkpt lat="44.5986933" lon="8.1915817"><ele>315.4</ele><time>2026-04-12T11:57:51.998Z</time></trkpt><trkpt lat="44.5988" lon="8.1915267"><ele>317.8</ele><time>2026-04-12T11:57:52.996Z</time></trkpt><trkpt lat="44.59891" lon="8.1915017"><ele>320.2</ele><time>2026-04-12T11:57:53.998Z</time></trkpt><trkpt lat="44.5990183" lon="8.191525"><ele>322.6</ele><time>2026-04-12T11:57:55.002Z</time></trkpt><trkpt lat="44.599125" lon="8.1915767"><ele>325.0</ele><time>2026-04-12T11:57:55.995Z</time></trkpt><trkpt lat="44.5992217" lon="8.1916633"><ele>325.0</ele><time>2026-04-12T11:57:57Z</time></trkpt><trkpt lat="44.599305" lon="8.1917767"><ele>325.0</ele><time>2026-04-12T11:57:57.998Z</time></trkpt><trkpt lat="44.5993833" lon="8.1919017"><ele>325.0</ele><time>2026-04-12T11:57:58.999Z</time></trkpt><trkpt lat="44.59947" lon="8.192025"><ele>325.0</ele><time>2026-04-12T11:57:59.997Z</time></trkpt><trkpt lat="44.599565" lon="8.192145"><ele>326.25</ele><time>2026-04-12T11:58:00.992Z</time></trkpt><trkpt lat="44.5996683" lon="8.1922533"><ele>327.5</ele><time>2026-04-12T11:58:01.997Z</time></trkpt><trkpt lat="44.5997733" lon="8.1923517"><ele>328.75</ele><time>2026-04-12T11:58:02.995Z</time></trkpt><trkpt lat="44.5998867" lon="8.1924317"><ele>330.0</ele><time>2026-04-12T11:58:04Z</time></trkpt><trkpt lat="44.5999983" lon="8.19251"><ele>330.0</ele><time>2026-04-12T11:58:04.998Z</time></trkpt><trkpt lat="44.600105" lon="8.1925933"><ele>330.0</ele><time>2026-04-12T11:58:06Z</time></trkpt><trkpt lat="44.600205" lon="8.192685"><ele>330.0</ele><time>2026-04-12T11:58:07.003Z</time></trkpt><trkpt lat="44.6002917" lon="8.1927833"><ele>330.0</ele><time>2026-04-12T11:58:07.996Z</time></trkpt><trkpt lat="44.6003783" lon="8.19288"><ele>330.5</ele><time>2026-04-12T11:58:08.997Z</time></trkpt><trkpt lat="44.6004667" lon="8.1929817"><ele>331.0</ele><time>2026-04-12T11:58:09.999Z</time></trkpt><trkpt lat="44.6005517" lon="8.19308"><ele>331.5</ele><time>2026-04-12T11:58:10.998Z</time></trkpt><trkpt lat="44.6006483" lon="8.1931667"><ele>332.0</ele><time>2026-04-12T11:58:12Z</time></trkpt><trkpt lat="44.6007517" lon="8.193245"><ele>332.0</ele><time>2026-04-12T11:58:12.999Z</time></trkpt><trkpt lat="44.6008633" lon="8.19332"><ele>332.0</ele><time>2026-04-12T11:58:13.995Z</time></trkpt><trkpt lat="44.6009767" lon="8.1933833"><ele>332.0</ele><time>2026-04-12T11:58:14.999Z</time></trkpt><trkpt lat="44.601095" lon="8.193435"><ele>332.0</ele><time>2026-04-12T11:58:16.002Z</time></trkpt><trkpt lat="44.6012167" lon="8.1934733"><ele>336.25</ele><time>2026-04-12T11:58:16.997Z</time></trkpt><trkpt lat="44.60134" lon="8.1934967"><ele>340.5</ele><time>2026-04-12T11:58:17.994Z</time></trkpt><trkpt lat="44.601465" lon="8.1935117"><ele>344.75</ele><time>2026-04-12T11:58:18.997Z</time></trkpt><trkpt lat="44.6015867" lon="8.1935267"><ele>349.0</ele><time>2026-04-12T11:58:19.996Z</time></trkpt><trkpt lat="44.6017117" lon="8.1935083"><ele>349.0</ele><time>2026-04-12T11:58:20.997Z</time></trkpt><trkpt lat="44.6018267" lon="8.193465"><ele>349.0</ele><time>2026-04-12T11:58:21.993Z</time></trkpt><trkpt lat="44.6019367" lon="8.193405"><ele>349.0</ele><time>2026-04-12T11:58:22.993Z</time></trkpt><trkpt lat="44.602045" lon="8.19333"><ele>349.0</ele><time>2026-04-12T11:58:23.998Z</time></trkpt><trkpt lat="44.6021517" lon="8.1932517"><ele>355.0</ele><time>2026-04-12T11:58:24.994Z</time></trkpt><trkpt lat="44.6022567" lon="8.193165"><ele>361.0</ele><time>2026-04-12T11:58:25.998Z</time></trkpt><trkpt lat="44.602355" lon="8.193085"><ele>367.0</ele><time>2026-04-12T11:58:26.996Z</time></trkpt><trkpt lat="44.6024567" lon="8.1930083"><ele>373.0</ele><time>2026-04-12T11:58:27.995Z</time></trkpt><trkpt lat="44.6025617" lon="8.1929367"><ele>373.0</ele><time>2026-04-12T11:58:28.994Z</time></trkpt><trkpt lat="44.6026717" lon="8.1928683"><ele>373.0</ele><time>2026-04-12T11:58:29.992Z</time></trkpt><trkpt lat="44.6027767" lon="8.1928033"><ele>373.0</ele><time>2026-04-12T11:58:30.994Z</time></trkpt><trkpt lat="44.6028817" lon="8.19274"><ele>373.0</ele><time>2026-04-12T11:58:31.997Z</time></trkpt><trkpt lat="44.60299" lon="8.192675"><ele>375.75</ele><time>2026-04-12T11:58:32.999Z</time></trkpt><trkpt lat="44.6030983" lon="8.1926083"><ele>378.5</ele><time>2026-04-12T11:58:33.999Z</time></trkpt><trkpt lat="44.6032" lon="8.192525"><ele>381.25</ele><time>2026-04-12T11:58:34.996Z</time></trkpt><trkpt lat="44.6032983" lon="8.1924317"><ele>384.0</ele><time>2026-04-12T11:58:36Z</time></trkpt><trkpt lat="44.6034" lon="8.1923283"><ele>384.0</ele><time>2026-04-12T11:58:37.001Z</time></trkpt><trkpt lat="44.603495" lon="8.1922183"><ele>384.0</ele><time>2026-04-12T11:58:37.995Z</time></trkpt><trkpt lat="44.6035833" lon="8.192105"><ele>384.0</ele><time>2026-04-12T11:58:38.999Z</time></trkpt><trkpt lat="44.6036733" lon="8.19199"><ele>384.0</ele><time>2026-04-12T11:58:39.995Z</time></trkpt><trkpt lat="44.60377" lon="8.19188"><ele>378.75</ele><time>2026-04-12T11:58:40.997Z</time></trkpt><trkpt lat="44.6038717" lon="8.1917733"><ele>373.5</ele><time>2026-04-12T11:58:42.003Z</time></trkpt><trkpt lat="44.60397" lon="8.1916733"><ele>368.25</ele><time>2026-04-12T11:58:42.997Z</time></trkpt><trkpt lat="44.6040717" lon="8.1915867"><ele>363.0</ele><time>2026-04-12T11:58:43.999Z</time></trkpt><trkpt lat="44.604185" lon="8.1915117"><ele>364.25</ele><time>2026-04-12T11:58:44.995Z</time></trkpt><trkpt lat="44.6043" lon="8.1914433"><ele>365.5</ele><time>2026-04-12T11:58:45.993Z</time></trkpt><trkpt lat="44.6044233" lon="8.1913767"><ele>366.75</ele><time>2026-04-12T11:58:46.995Z</time></trkpt><trkpt lat="44.6045433" lon="8.191315"><ele>368.0</ele><time>2026-04-12T11:58:47.993Z</time></trkpt><trkpt lat="44.6046633" lon="8.1912467"><ele>368.0</ele><time>2026-04-12T11:58:48.996Z</time></trkpt><trkpt lat="44.6047717" lon="8.1911633"><ele>368.0</ele><time>2026-04-12T11:58:49.994Z</time></trkpt><trkpt lat="44.604865" lon="8.1910417"><ele>368.0</ele><time>2026-04-12T11:58:50.995Z</time></trkpt><trkpt lat="44.6049417" lon="8.1909"><ele>368.0</ele><time>2026-04-12T11:58:51.994Z</time></trkpt><trkpt lat="44.6050117" lon="8.1907417"><ele>372.75</ele><time>2026-04-12T11:58:53Z</time></trkpt><trkpt lat="44.605075" lon="8.1905867"><ele>377.5</ele><time>2026-04-12T11:58:53.994Z</time></trkpt><trkpt lat="44.605135" lon="8.19044"><ele>382.25</ele><time>2026-04-12T11:58:54.996Z</time></trkpt><trkpt lat="44.6052017" lon="8.1902983"><ele>387.0</ele><time>2026-04-12T11:58:55.997Z</time></trkpt><trkpt lat="44.6052617" lon="8.190155"><ele>387.0</ele><time>2026-04-12T11:58:56.998Z</time></trkpt><trkpt lat="44.60532" lon="8.1900133"><ele>387.0</ele><time>2026-04-12T11:58:57.999Z</time></trkpt><trkpt lat="44.6053567" lon="8.1898617"><ele>387.0</ele><time>2026-04-12T11:58:58.995Z</time></trkpt><trkpt lat="44.6053833" lon="8.1897017"><ele>387.0</ele><time>2026-04-12T11:58:59.994Z</time></trkpt><trkpt lat="44.6053917" lon="8.1895383"><ele>387.6</ele><time>2026-04-12T11:59:00.999Z</time></trkpt><trkpt lat="44.6053983" lon="8.18938"><ele>388.20000000000005</ele><time>2026-04-12T11:59:02.001Z</time></trkpt><trkpt lat="44.6054183" lon="8.18922"><ele>388.8</ele><time>2026-04-12T11:59:02.997Z</time></trkpt><trkpt lat="44.6054517" lon="8.18908"><ele>389.4</ele><time>2026-04-12T11:59:03.995Z</time></trkpt><trkpt lat="44.6054967" lon="8.1889583"><ele>390.0</ele><time>2026-04-12T11:59:04.998Z</time></trkpt><trkpt lat="44.6055617" lon="8.1888383"><ele>390.0</ele><time>2026-04-12T11:59:05.997Z</time></trkpt><trkpt lat="44.6056367" lon="8.1887233"><ele>390.0</ele><time>2026-04-12T11:59:06.999Z</time></trkpt><trkpt lat="44.6057183" lon="8.1886133"><ele>390.0</ele><time>2026-04-12T11:59:07.999Z</time></trkpt><trkpt lat="44.605795" lon="8.1884983"><ele>390.0</ele><time>2026-04-12T11:59:08.999Z</time></trkpt><trkpt lat="44.6058767" lon="8.1883833"><ele>390.0</ele><time>2026-04-12T11:59:09.997Z</time></trkpt><trkpt lat="44.6059617" lon="8.188275"><ele>390.0</ele><time>2026-04-12T11:59:10.998Z</time></trkpt><trkpt lat="44.6060483" lon="8.1881633"><ele>390.0</ele><time>2026-04-12T11:59:11.998Z</time></trkpt><trkpt lat="44.6061317" lon="8.1880617"><ele>390.0</ele><time>2026-04-12T11:59:12.997Z</time></trkpt><trkpt lat="44.6062067" lon="8.187965"><ele>390.0</ele><time>2026-04-12T11:59:13.999Z</time></trkpt><trkpt lat="44.6062717" lon="8.18787"><ele>390.3333333333333</ele><time>2026-04-12T11:59:14.999Z</time></trkpt><trkpt lat="44.606325" lon="8.1877733"><ele>390.66666666666663</ele><time>2026-04-12T11:59:15.994Z</time></trkpt><trkpt lat="44.6063583" lon="8.1876683"><ele>391.0</ele><time>2026-04-12T11:59:16.993Z</time></trkpt><trkpt lat="44.6063267" lon="8.18757"><ele>391.3333333333333</ele><time>2026-04-12T11:59:17.995Z</time></trkpt><trkpt lat="44.606225" lon="8.187495"><ele>391.66666666666663</ele><time>2026-04-12T11:59:19.999Z</time></trkpt><trkpt lat="44.60615" lon="8.1875417"><ele>392.0</ele><time>2026-04-12T11:59:20.993Z</time></trkpt><trkpt lat="44.60608" lon="8.187605"><ele>395.25</ele><time>2026-04-12T11:59:21.996Z</time></trkpt><trkpt lat="44.6060017" lon="8.1876933"><ele>398.5</ele><time>2026-04-12T11:59:22.996Z</time></trkpt><trkpt lat="44.60591" lon="8.1878167"><ele>401.75</ele><time>2026-04-12T11:59:23.997Z</time></trkpt><trkpt lat="44.605815" lon="8.1879433"><ele>405.0</ele><time>2026-04-12T11:59:24.996Z</time></trkpt><trkpt lat="44.6057167" lon="8.1880517"><ele>405.0</ele><time>2026-04-12T11:59:26.003Z</time></trkpt><trkpt lat="44.605625" lon="8.18816"><ele>405.0</ele><time>2026-04-12T11:59:26.995Z</time></trkpt><trkpt lat="44.6055267" lon="8.1882633"><ele>405.0</ele><time>2026-04-12T11:59:27.995Z</time></trkpt><trkpt lat="44.605425" lon="8.1883633"><ele>405.0</ele><time>2026-04-12T11:59:28.992Z</time></trkpt><trkpt lat="44.6053217" lon="8.1884767"><ele>409.0</ele><time>2026-04-12T11:59:29.998Z</time></trkpt><trkpt lat="44.6052283" lon="8.1886033"><ele>413.0</ele><time>2026-04-12T11:59:31.001Z</time></trkpt><trkpt lat="44.60513" lon="8.188725"><ele>417.0</ele><time>2026-04-12T11:59:31.997Z</time></trkpt><trkpt lat="44.6050483" lon="8.1888617"><ele>421.0</ele><time>2026-04-12T11:59:33.002Z</time></trkpt><trkpt lat="44.6049667" lon="8.1889933"><ele>416.25</ele><time>2026-04-12T11:59:33.996Z</time></trkpt><trkpt lat="44.6048967" lon="8.1891433"><ele>411.5</ele><time>2026-04-12T11:59:34.999Z</time></trkpt><trkpt lat="44.6048383" lon="8.1893017"><ele>406.75</ele><time>2026-04-12T11:59:35.998Z</time></trkpt><trkpt lat="44.6047867" lon="8.1894683"><ele>402.0</ele><time>2026-04-12T11:59:36.995Z</time></trkpt><trkpt lat="44.604735" lon="8.1896367"><ele>402.0</ele><time>2026-04-12T11:59:37.997Z</time></trkpt><trkpt lat="44.6046783" lon="8.189785"><ele>402.0</ele><time>2026-04-12T11:59:38.995Z</time></trkpt><trkpt lat="44.6046317" lon="8.1899317"><ele>402.0</ele><time>2026-04-12T11:59:39.995Z</time></trkpt><trkpt lat="44.60459" lon="8.1900617"><ele>402.0</ele><time>2026-04-12T11:59:40.998Z</time></trkpt><trkpt lat="44.6045267" lon="8.1901533"><ele>402.0</ele><time>2026-04-12T11:59:41.992Z</time></trkpt><trkpt lat="44.6044667" lon="8.1902333"><ele>404.0</ele><time>2026-04-12T11:59:42.999Z</time></trkpt><trkpt lat="44.6043733" lon="8.1902567"><ele>406.0</ele><time>2026-04-12T11:59:43.997Z</time></trkpt><trkpt lat="44.6042467" lon="8.1902183"><ele>408.0</ele><time>2026-04-12T11:59:45.001Z</time></trkpt><trkpt lat="44.6041433" lon="8.19017"><ele>410.0</ele><time>2026-04-12T11:59:45.998Z</time></trkpt><trkpt lat="44.604035" lon="8.1901217"><ele>412.0</ele><time>2026-04-12T11:59:46.996Z</time></trkpt><trkpt lat="44.60393" lon="8.1900933"><ele>412.0</ele><time>2026-04-12T11:59:47.994Z</time></trkpt><trkpt lat="44.6038283" lon="8.19006"><ele>412.0</ele><time>2026-04-12T11:59:48.998Z</time></trkpt><trkpt lat="44.6037333" lon="8.1900367"><ele>412.0</ele><time>2026-04-12T11:59:49.994Z</time></trkpt><trkpt lat="44.603635" lon="8.1900717"><ele>412.0</ele><time>2026-04-12T11:59:50.998Z</time></trkpt><trkpt lat="44.60354" lon="8.1901267"><ele>412.0</ele><time>2026-04-12T11:59:51.996Z</time></trkpt><trkpt lat="44.6034517" lon="8.1902167"><ele>411.40000000000003</ele><time>2026-04-12T11:59:52.996Z</time></trkpt><trkpt lat="44.6033717" lon="8.19031"><ele>410.8</ele><time>2026-04-12T11:59:53.996Z</time></trkpt><trkpt lat="44.6032867" lon="8.1904133"><ele>410.2</ele><time>2026-04-12T11:59:54.996Z</time></trkpt><trkpt lat="44.6032083" lon="8.1905367"><ele>409.6</ele><time>2026-04-12T11:59:55.996Z</time></trkpt><trkpt lat="44.6031383" lon="8.190665"><ele>409.0</ele><time>2026-04-12T11:59:56.999Z</time></trkpt><trkpt lat="44.6030683" lon="8.1907833"><ele>409.0</ele><time>2026-04-12T11:59:57.997Z</time></trkpt><trkpt lat="44.6029917" lon="8.190895"><ele>409.0</ele><time>2026-04-12T11:59:58.997Z</time></trkpt><trkpt lat="44.6029133" lon="8.1909967"><ele>409.0</ele><time>2026-04-12T11:59:59.996Z</time></trkpt><trkpt lat="44.6028267" lon="8.19108"><ele>409.0</ele><time>2026-04-12T12:00:00.996Z</time></trkpt><trkpt lat="44.60274" lon="8.19117"><ele>409.0</ele><time>2026-04-12T12:00:01.996Z</time></trkpt><trkpt lat="44.6026483" lon="8.191245"><ele>414.4</ele><time>2026-04-12T12:00:02.996Z</time></trkpt><trkpt lat="44.60255" lon="8.19131"><ele>419.79999999999995</ele><time>2026-04-12T12:00:03.996Z</time></trkpt><trkpt lat="44.6024417" lon="8.191365"><ele>425.20000000000005</ele><time>2026-04-12T12:00:04.998Z</time></trkpt><trkpt lat="44.6023317" lon="8.1914"><ele>430.6</ele><time>2026-04-12T12:00:05.996Z</time></trkpt><trkpt lat="44.602225" lon="8.191435"><ele>436.0</ele><time>2026-04-12T12:00:06.994Z</time></trkpt><trkpt lat="44.6021167" lon="8.1914633"><ele>436.00000000000006</ele><time>2026-04-12T12:00:08.002Z</time></trkpt><trkpt lat="44.6020183" lon="8.19149"><ele>436.0</ele><time>2026-04-12T12:00:09Z</time></trkpt><trkpt lat="44.6019217" lon="8.191505"><ele>436.0</ele><time>2026-04-12T12:00:09.996Z</time></trkpt><trkpt lat="44.6018367" lon="8.1915133"><ele>436.0</ele><time>2026-04-12T12:00:10.995Z</time></trkpt><trkpt lat="44.601755" lon="8.1915167"><ele>436.00000000000006</ele><time>2026-04-12T12:00:11.997Z</time></trkpt><trkpt lat="44.601675" lon="8.191505"><ele>436.0</ele><time>2026-04-12T12:00:12.998Z</time></trkpt><trkpt lat="44.601605" lon="8.1914517"><ele>434.6666666666667</ele><time>2026-04-12T12:00:13.996Z</time></trkpt><trkpt lat="44.6015417" lon="8.191375"><ele>433.33333333333337</ele><time>2026-04-12T12:00:15Z</time></trkpt><trkpt lat="44.6014933" lon="8.1912833"><ele>432.0</ele><time>2026-04-12T12:00:15.998Z</time></trkpt><trkpt lat="44.601445" lon="8.1911833"><ele>430.66666666666663</ele><time>2026-04-12T12:00:16.995Z</time></trkpt><trkpt lat="44.6014033" lon="8.1910867"><ele>429.3333333333333</ele><time>2026-04-12T12:00:17.998Z</time></trkpt><trkpt lat="44.6013633" lon="8.19099"><ele>428.0</ele><time>2026-04-12T12:00:18.994Z</time></trkpt><trkpt lat="44.60133" lon="8.190885"><ele>427.99999999999994</ele><time>2026-04-12T12:00:19.995Z</time></trkpt><trkpt lat="44.6013017" lon="8.190785"><ele>428.0</ele><time>2026-04-12T12:00:20.996Z</time></trkpt><trkpt lat="44.6012983" lon="8.1906883"><ele>428.0</ele><time>2026-04-12T12:00:21.998Z</time></trkpt><trkpt lat="44.6013667" lon="8.1906017"><ele>428.0</ele><time>2026-04-12T12:00:22.997Z</time></trkpt><trkpt lat="44.6014233" lon="8.1905217"><ele>427.99999999999994</ele><time>2026-04-12T12:00:23.993Z</time></trkpt><trkpt lat="44.601485" lon="8.190445"><ele>428.0</ele><time>2026-04-12T12:00:24.994Z</time></trkpt><trkpt lat="44.6015767" lon="8.1903717"><ele>428.75</ele><time>2026-04-12T12:00:25.996Z</time></trkpt><trkpt lat="44.6016967" lon="8.1903067"><ele>429.5</ele><time>2026-04-12T12:00:26.997Z</time></trkpt><trkpt lat="44.60184" lon="8.19027"><ele>430.25</ele><time>2026-04-12T12:00:27.996Z</time></trkpt><trkpt lat="44.6019517" lon="8.1902233"><ele>431.0</ele><time>2026-04-12T12:00:28.993Z</time></trkpt><trkpt lat="44.6020833" lon="8.1901767"><ele>431.0</ele><time>2026-04-12T12:00:29.997Z</time></trkpt><trkpt lat="44.6022067" lon="8.1901283"><ele>431.0</ele><time>2026-04-12T12:00:30.995Z</time></trkpt><trkpt lat="44.6023367" lon="8.1900817"><ele>431.0</ele><time>2026-04-12T12:00:32.001Z</time></trkpt><trkpt lat="44.6024817" lon="8.1900383"><ele>431.0</ele><time>2026-04-12T12:00:32.997Z</time></trkpt><trkpt lat="44.6026217" lon="8.1899967"><ele>431.0</ele><time>2026-04-12T12:00:33.999Z</time></trkpt><trkpt lat="44.60275" lon="8.1899483"><ele>431.0</ele><time>2026-04-12T12:00:34.998Z</time></trkpt><trkpt lat="44.6028933" lon="8.1898883"><ele>431.0</ele><time>2026-04-12T12:00:35.995Z</time></trkpt><trkpt lat="44.6030017" lon="8.1898067"><ele>431.0</ele><time>2026-04-12T12:00:36.998Z</time></trkpt><trkpt lat="44.6030917" lon="8.1897033"><ele>432.25</ele><time>2026-04-12T12:00:37.999Z</time></trkpt><trkpt lat="44.60317" lon="8.1895867"><ele>433.5</ele><time>2026-04-12T12:00:38.999Z</time></trkpt><trkpt lat="44.6032433" lon="8.1894683"><ele>434.75</ele><time>2026-04-12T12:00:39.996Z</time></trkpt><trkpt lat="44.60332" lon="8.18935"><ele>436.0</ele><time>2026-04-12T12:00:40.994Z</time></trkpt><trkpt lat="44.6034067" lon="8.189255"><ele>436.0</ele><time>2026-04-12T12:00:41.996Z</time></trkpt><trkpt lat="44.6035" lon="8.1892"><ele>436.0</ele><time>2026-04-12T12:00:42.998Z</time></trkpt><trkpt lat="44.6035967" lon="8.189175"><ele>436.0</ele><time>2026-04-12T12:00:43.999Z</time></trkpt><trkpt lat="44.603695" lon="8.1891517"><ele>436.0</ele><time>2026-04-12T12:00:44.998Z</time></trkpt><trkpt lat="44.6037983" lon="8.1891183"><ele>436.0</ele><time>2026-04-12T12:00:45.996Z</time></trkpt><trkpt lat="44.6038933" lon="8.1890667"><ele>438.4</ele><time>2026-04-12T12:00:46.994Z</time></trkpt><trkpt lat="44.6039767" lon="8.1889817"><ele>440.8</ele><time>2026-04-12T12:00:47.998Z</time></trkpt><trkpt lat="44.60403" lon="8.1888683"><ele>443.19999999999993</ele><time>2026-04-12T12:00:48.999Z</time></trkpt><trkpt lat="44.60405" lon="8.188735"><ele>445.59999999999997</ele><time>2026-04-12T12:00:49.996Z</time></trkpt><trkpt lat="44.6040467" lon="8.1885867"><ele>448.0</ele><time>2026-04-12T12:00:50.998Z</time></trkpt><trkpt lat="44.6040217" lon="8.1884333"><ele>448.0</ele><time>2026-04-12T12:00:51.998Z</time></trkpt><trkpt lat="44.6039933" lon="8.1882817"><ele>447.99999999999994</ele><time>2026-04-12T12:00:52.997Z</time></trkpt><trkpt lat="44.6039667" lon="8.1881283"><ele>447.99999999999994</ele><time>2026-04-12T12:00:53.996Z</time></trkpt><trkpt lat="44.6039433" lon="8.18798"><ele>448.0</ele><time>2026-04-12T12:00:54.999Z</time></trkpt><trkpt lat="44.6039267" lon="8.1878367"><ele>448.0</ele><time>2026-04-12T12:00:55.997Z</time></trkpt><trkpt lat="44.60393" lon="8.1876917"><ele>448.4</ele><time>2026-04-12T12:00:56.996Z</time></trkpt><trkpt lat="44.6039617" lon="8.1875567"><ele>448.79999999999995</ele><time>2026-04-12T12:00:57.997Z</time></trkpt><trkpt lat="44.6040117" lon="8.187425"><ele>449.2</ele><time>2026-04-12T12:00:58.997Z</time></trkpt><trkpt lat="44.60407" lon="8.1872983"><ele>449.6</ele><time>2026-04-12T12:00:59.998Z</time></trkpt><trkpt lat="44.60413" lon="8.187165"><ele>450.0</ele><time>2026-04-12T12:01:01Z</time></trkpt><trkpt lat="44.6041883" lon="8.18703"><ele>452.0</ele><time>2026-04-12T12:01:01.996Z</time></trkpt><trkpt lat="44.60425" lon="8.186895"><ele>454.0</ele><time>2026-04-12T12:01:02.997Z</time></trkpt><trkpt lat="44.6043217" lon="8.1867583"><ele>456.0</ele><time>2026-04-12T12:01:03.997Z</time></trkpt><trkpt lat="44.6043917" lon="8.1866183"><ele>458.0</ele><time>2026-04-12T12:01:04.996Z</time></trkpt><trkpt lat="44.6044617" lon="8.18648"><ele>459.75</ele><time>2026-04-12T12:01:05.994Z</time></trkpt><trkpt lat="44.6045383" lon="8.1863417"><ele>461.5</ele><time>2026-04-12T12:01:06.994Z</time></trkpt><trkpt lat="44.6046083" lon="8.1862017"><ele>463.25</ele><time>2026-04-12T12:01:07.995Z</time></trkpt><trkpt lat="44.6046767" lon="8.1860567"><ele>465.0</ele><time>2026-04-12T12:01:08.997Z</time></trkpt><trkpt lat="44.60475" lon="8.18591"><ele>465.0</ele><time>2026-04-12T12:01:09.996Z</time></trkpt><trkpt lat="44.6048217" lon="8.1857633"><ele>465.0</ele><time>2026-04-12T12:01:10.995Z</time></trkpt><trkpt lat="44.6048917" lon="8.18562"><ele>465.0</ele><time>2026-04-12T12:01:11.998Z</time></trkpt><trkpt lat="44.6049633" lon="8.18548"><ele>465.0</ele><time>2026-04-12T12:01:12.995Z</time></trkpt><trkpt lat="44.6050317" lon="8.1853467"><ele>469.0</ele><time>2026-04-12T12:01:13.997Z</time></trkpt><trkpt lat="44.6050983" lon="8.1852183"><ele>473.0</ele><time>2026-04-12T12:01:14.994Z</time></trkpt><trkpt lat="44.6051533" lon="8.1850883"><ele>477.0</ele><time>2026-04-12T12:01:15.996Z</time></trkpt><trkpt lat="44.605195" lon="8.1849567"><ele>481.0</ele><time>2026-04-12T12:01:16.994Z</time></trkpt><trkpt lat="44.6052233" lon="8.18482"><ele>485.0</ele><time>2026-04-12T12:01:17.993Z</time></trkpt><trkpt lat="44.6052483" lon="8.18468"><ele>486.0</ele><time>2026-04-12T12:01:19.006Z</time></trkpt><trkpt lat="44.6052683" lon="8.1845333"><ele>487.0</ele><time>2026-04-12T12:01:19.998Z</time></trkpt><trkpt lat="44.6052917" lon="8.1843833"><ele>488.0</ele><time>2026-04-12T12:01:20.997Z</time></trkpt><trkpt lat="44.60532" lon="8.1842317"><ele>489.0</ele><time>2026-04-12T12:01:21.996Z</time></trkpt><trkpt lat="44.6053567" lon="8.1840817"><ele>490.0</ele><time>2026-04-12T12:01:22.996Z</time></trkpt><trkpt lat="44.6053983" lon="8.18393"><ele>490.0</ele><time>2026-04-12T12:01:24Z</time></trkpt><trkpt lat="44.60545" lon="8.1837817"><ele>490.0</ele><time>2026-04-12T12:01:24.999Z</time></trkpt><trkpt lat="44.60551" lon="8.1836383"><ele>490.0</ele><time>2026-04-12T12:01:25.996Z</time></trkpt><trkpt lat="44.605575" lon="8.1835"><ele>490.0</ele><time>2026-04-12T12:01:26.994Z</time></trkpt><trkpt lat="44.6056517" lon="8.1833717"><ele>490.0</ele><time>2026-04-12T12:01:27.995Z</time></trkpt><trkpt lat="44.6057333" lon="8.1832567"><ele>490.0</ele><time>2026-04-12T12:01:28.993Z</time></trkpt><trkpt lat="44.605815" lon="8.1831567"><ele>490.0</ele><time>2026-04-12T12:01:29.998Z</time></trkpt><trkpt lat="44.6058867" lon="8.1830733"><ele>490.0</ele><time>2026-04-12T12:01:30.997Z</time></trkpt><trkpt lat="44.6059567" lon="8.1830117"><ele>490.0</ele><time>2026-04-12T12:01:31.995Z</time></trkpt><trkpt lat="44.6060267" lon="8.1829717"><ele>493.6</ele><time>2026-04-12T12:01:32.995Z</time></trkpt><trkpt lat="44.60611" lon="8.1830467"><ele>497.2</ele><time>2026-04-12T12:01:33.992Z</time></trkpt><trkpt lat="44.6061883" lon="8.183105"><ele>500.79999999999995</ele><time>2026-04-12T12:01:34.996Z</time></trkpt><trkpt lat="44.606265" lon="8.18321"><ele>504.4</ele><time>2026-04-12T12:01:35.992Z</time></trkpt><trkpt lat="44.6063567" lon="8.1833567"><ele>508.0</ele><time>2026-04-12T12:01:36.998Z</time></trkpt><trkpt lat="44.6064367" lon="8.18349"><ele>508.0</ele><time>2026-04-12T12:01:38Z</time></trkpt><trkpt lat="44.6065217" lon="8.183615"><ele>507.99999999999994</ele><time>2026-04-12T12:01:38.998Z</time></trkpt><trkpt lat="44.606595" lon="8.1837367"><ele>507.99999999999994</ele><time>2026-04-12T12:01:39.993Z</time></trkpt><trkpt lat="44.6066583" lon="8.1838433"><ele>508.0</ele><time>2026-04-12T12:01:40.998Z</time></trkpt><trkpt lat="44.6067233" lon="8.1839367"><ele>508.0</ele><time>2026-04-12T12:01:41.997Z</time></trkpt><trkpt lat="44.6067967" lon="8.1840083"><ele>508.0</ele><time>2026-04-12T12:01:42.998Z</time></trkpt><trkpt lat="44.6068767" lon="8.1840367"><ele>507.99999999999994</ele><time>2026-04-12T12:01:43.995Z</time></trkpt><trkpt lat="44.6069617" lon="8.184035"><ele>507.99999999999994</ele><time>2026-04-12T12:01:45Z</time></trkpt><trkpt lat="44.6070483" lon="8.1839967"><ele>508.0</ele><time>2026-04-12T12:01:45.997Z</time></trkpt><trkpt lat="44.6071383" lon="8.1839333"><ele>508.0</ele><time>2026-04-12T12:01:46.996Z</time></trkpt><trkpt lat="44.6072133" lon="8.1838167"><ele>508.0</ele><time>2026-04-12T12:01:48.001Z</time></trkpt><trkpt lat="44.6073" lon="8.1837083"><ele>508.0</ele><time>2026-04-12T12:01:48.996Z</time></trkpt><trkpt lat="44.6073917" lon="8.1836117"><ele>508.0</ele><time>2026-04-12T12:01:49.996Z</time></trkpt><trkpt lat="44.6074867" lon="8.1835317"><ele>508.0</ele><time>2026-04-12T12:01:50.994Z</time></trkpt><trkpt lat="44.6075883" lon="8.1834617"><ele>508.0</ele><time>2026-04-12T12:01:51.997Z</time></trkpt><trkpt lat="44.6076933" lon="8.1833883"><ele>508.0</ele><time>2026-04-12T12:01:52.995Z</time></trkpt><trkpt lat="44.6078" lon="8.1833167"><ele>508.0</ele><time>2026-04-12T12:01:53.997Z</time></trkpt><trkpt lat="44.6079067" lon="8.1832483"><ele>508.0</ele><time>2026-04-12T12:01:54.999Z</time></trkpt><trkpt lat="44.6080083" lon="8.183195"><ele>508.2</ele><time>2026-04-12T12:01:55.993Z</time></trkpt><trkpt lat="44.6081033" lon="8.1831817"><ele>508.4</ele><time>2026-04-12T12:01:57.008Z</time></trkpt><trkpt lat="44.6081983" lon="8.1832117"><ele>508.59999999999997</ele><time>2026-04-12T12:01:57.997Z</time></trkpt><trkpt lat="44.6082883" lon="8.183275"><ele>508.79999999999995</ele><time>2026-04-12T12:01:58.997Z</time></trkpt><trkpt lat="44.6083683" lon="8.1833883"><ele>509.0</ele><time>2026-04-12T12:01:59.996Z</time></trkpt><trkpt lat="44.60844" lon="8.1835133"><ele>509.0</ele><time>2026-04-12T12:02:00.998Z</time></trkpt><trkpt lat="44.6085017" lon="8.1836483"><ele>509.0</ele><time>2026-04-12T12:02:02Z</time></trkpt><trkpt lat="44.6085667" lon="8.18378"><ele>509.0</ele><time>2026-04-12T12:02:02.997Z</time></trkpt><trkpt lat="44.608625" lon="8.183925"><ele>509.0</ele><time>2026-04-12T12:02:03.996Z</time></trkpt><trkpt lat="44.60868" lon="8.1840767"><ele>511.0</ele><time>2026-04-12T12:02:04.998Z</time></trkpt><trkpt lat="44.6087433" lon="8.1842133"><ele>513.0</ele><time>2026-04-12T12:02:05.997Z</time></trkpt><trkpt lat="44.6088167" lon="8.1843383"><ele>515.0</ele><time>2026-04-12T12:02:07Z</time></trkpt><trkpt lat="44.6089033" lon="8.1844283"><ele>517.0</ele><time>2026-04-12T12:02:07.995Z</time></trkpt><trkpt lat="44.609005" lon="8.1844883"><ele>519.0</ele><time>2026-04-12T12:02:08.997Z</time></trkpt><trkpt lat="44.6091083" lon="8.1845167"><ele>519.0</ele><time>2026-04-12T12:02:09.997Z</time></trkpt><trkpt lat="44.6092167" lon="8.1845217"><ele>519.0</ele><time>2026-04-12T12:02:10.997Z</time></trkpt><trkpt lat="44.609325" lon="8.1845167"><ele>519.0</ele><time>2026-04-12T12:02:11.997Z</time></trkpt><trkpt lat="44.6094333" lon="8.184505"><ele>519.0</ele><time>2026-04-12T12:02:12.997Z</time></trkpt><trkpt lat="44.6095417" lon="8.1844817"><ele>519.0</ele><time>2026-04-12T12:02:13.995Z</time></trkpt><trkpt lat="44.609645" lon="8.184455"><ele>518.8</ele><time>2026-04-12T12:02:14.999Z</time></trkpt><trkpt lat="44.609745" lon="8.184405"><ele>518.5999999999999</ele><time>2026-04-12T12:02:15.995Z</time></trkpt><trkpt lat="44.609835" lon="8.1843317"><ele>518.4</ele><time>2026-04-12T12:02:16.996Z</time></trkpt><trkpt lat="44.6099117" lon="8.1842233"><ele>518.1999999999999</ele><time>2026-04-12T12:02:17.996Z</time></trkpt><trkpt lat="44.609975" lon="8.184095"><ele>518.0</ele><time>2026-04-12T12:02:18.996Z</time></trkpt><trkpt lat="44.6100283" lon="8.1839583"><ele>518.0</ele><time>2026-04-12T12:02:19.996Z</time></trkpt><trkpt lat="44.6100717" lon="8.1838083"><ele>518.0</ele><time>2026-04-12T12:02:20.996Z</time></trkpt><trkpt lat="44.6100983" lon="8.18364"><ele>518.0</ele><time>2026-04-12T12:02:22Z</time></trkpt><trkpt lat="44.6101083" lon="8.1834683"><ele>518.0</ele><time>2026-04-12T12:02:22.994Z</time></trkpt><trkpt lat="44.610095" lon="8.1833"><ele>517.8</ele><time>2026-04-12T12:02:24.001Z</time></trkpt><trkpt lat="44.610075" lon="8.183135"><ele>517.5999999999999</ele><time>2026-04-12T12:02:24.997Z</time></trkpt><trkpt lat="44.6100583" lon="8.1829817"><ele>517.4000000000001</ele><time>2026-04-12T12:02:25.997Z</time></trkpt><trkpt lat="44.6100417" lon="8.18283"><ele>517.2</ele><time>2026-04-12T12:02:26.996Z</time></trkpt><trkpt lat="44.6100233" lon="8.1826767"><ele>517.0</ele><time>2026-04-12T12:02:27.996Z</time></trkpt><trkpt lat="44.6100067" lon="8.1825183"><ele>517.0</ele><time>2026-04-12T12:02:28.998Z</time></trkpt><trkpt lat="44.6099917" lon="8.1823617"><ele>517.0</ele><time>2026-04-12T12:02:29.997Z</time></trkpt><trkpt lat="44.60998" lon="8.1822083"><ele>517.0</ele><time>2026-04-12T12:02:30.997Z</time></trkpt><trkpt lat="44.6099767" lon="8.1820583"><ele>517.0</ele><time>2026-04-12T12:02:31.998Z</time></trkpt><trkpt lat="44.6099967" lon="8.1819183"><ele>517.0</ele><time>2026-04-12T12:02:32.997Z</time></trkpt><trkpt lat="44.6100433" lon="8.1817917"><ele>517.8000000000001</ele><time>2026-04-12T12:02:33.999Z</time></trkpt><trkpt lat="44.6101117" lon="8.181695"><ele>518.6</ele><time>2026-04-12T12:02:34.993Z</time></trkpt><trkpt lat="44.610195" lon="8.1816217"><ele>519.4000000000001</ele><time>2026-04-12T12:02:35.998Z</time></trkpt><trkpt lat="44.6102833" lon="8.1815867"><ele>520.2</ele><time>2026-04-12T12:02:36.995Z</time></trkpt><trkpt lat="44.6103817" lon="8.18158"><ele>521.0</ele><time>2026-04-12T12:02:37.997Z</time></trkpt><trkpt lat="44.61048" lon="8.1815983"><ele>521.0</ele><time>2026-04-12T12:02:38.997Z</time></trkpt><trkpt lat="44.6105833" lon="8.1816283"><ele>521.0</ele><time>2026-04-12T12:02:39.996Z</time></trkpt><trkpt lat="44.6106883" lon="8.1816583"><ele>521.0</ele><time>2026-04-12T12:02:40.998Z</time></trkpt><trkpt lat="44.610785" lon="8.18169"><ele>521.0</ele><time>2026-04-12T12:02:41.996Z</time></trkpt><trkpt lat="44.610885" lon="8.1817217"><ele>521.0</ele><time>2026-04-12T12:02:42.994Z</time></trkpt><trkpt lat="44.6109917" lon="8.181755"><ele>521.0</ele><time>2026-04-12T12:02:43.994Z</time></trkpt><trkpt lat="44.611105" lon="8.1817867"><ele>521.0</ele><time>2026-04-12T12:02:45.006Z</time></trkpt><trkpt lat="44.6112217" lon="8.1818217"><ele>521.0</ele><time>2026-04-12T12:02:45.998Z</time></trkpt><trkpt lat="44.6113417" lon="8.181855"><ele>521.0</ele><time>2026-04-12T12:02:46.994Z</time></trkpt><trkpt lat="44.61147" lon="8.18189"><ele>523.5</ele><time>2026-04-12T12:02:47.996Z</time></trkpt><trkpt lat="44.6116" lon="8.18191"><ele>526.0</ele><time>2026-04-12T12:02:48.993Z</time></trkpt><trkpt lat="44.61173" lon="8.1819167"><ele>528.5</ele><time>2026-04-12T12:02:49.997Z</time></trkpt><trkpt lat="44.6118567" lon="8.181905"><ele>531.0</ele><time>2026-04-12T12:02:50.996Z</time></trkpt><trkpt lat="44.611985" lon="8.18187"><ele>530.0</ele><time>2026-04-12T12:02:51.997Z</time></trkpt><trkpt lat="44.6121117" lon="8.1818183"><ele>529.0</ele><time>2026-04-12T12:02:53.006Z</time></trkpt><trkpt lat="44.6122383" lon="8.1817717"><ele>528.0</ele><time>2026-04-12T12:02:53.999Z</time></trkpt><trkpt lat="44.6123683" lon="8.1817233"><ele>527.0</ele><time>2026-04-12T12:02:54.997Z</time></trkpt><trkpt lat="44.6124967" lon="8.181675"><ele>527.0</ele><time>2026-04-12T12:02:55.998Z</time></trkpt><trkpt lat="44.6126267" lon="8.1816267"><ele>527.0</ele><time>2026-04-12T12:02:56.995Z</time></trkpt><trkpt lat="44.6127567" lon="8.1815783"><ele>527.0</ele><time>2026-04-12T12:02:57.994Z</time></trkpt><trkpt lat="44.612885" lon="8.1815333"><ele>527.0</ele><time>2026-04-12T12:02:58.995Z</time></trkpt><trkpt lat="44.61301" lon="8.1814967"><ele>526.75</ele><time>2026-04-12T12:02:59.998Z</time></trkpt><trkpt lat="44.6131283" lon="8.18149"><ele>526.5</ele><time>2026-04-12T12:03:00.997Z</time></trkpt><trkpt lat="44.6132417" lon="8.1815167"><ele>526.25</ele><time>2026-04-12T12:03:01.996Z</time></trkpt><trkpt lat="44.6133517" lon="8.1815817"><ele>526.0</ele><time>2026-04-12T12:03:02.996Z</time></trkpt><trkpt lat="44.61346" lon="8.181665"><ele>526.0</ele><time>2026-04-12T12:03:03.997Z</time></trkpt><trkpt lat="44.6135517" lon="8.1817617"><ele>526.0</ele><time>2026-04-12T12:03:04.994Z</time></trkpt><trkpt lat="44.6136333" lon="8.181865"><ele>526.0</ele><time>2026-04-12T12:03:05.997Z</time></trkpt><trkpt lat="44.6137217" lon="8.18195"><ele>526.0</ele><time>2026-04-12T12:03:06.997Z</time></trkpt><trkpt lat="44.613805" lon="8.1820183"><ele>526.0</ele><time>2026-04-12T12:03:07.994Z</time></trkpt><trkpt lat="44.6138917" lon="8.1820433"><ele>527.2</ele><time>2026-04-12T12:03:08.999Z</time></trkpt><trkpt lat="44.61398" lon="8.182045"><ele>528.4000000000001</ele><time>2026-04-12T12:03:09.999Z</time></trkpt><trkpt lat="44.6140667" lon="8.1819967"><ele>529.6</ele><time>2026-04-12T12:03:10.998Z</time></trkpt><trkpt lat="44.6141517" lon="8.18191"><ele>530.8000000000001</ele><time>2026-04-12T12:03:11.999Z</time></trkpt><trkpt lat="44.61424" lon="8.181825"><ele>532.0</ele><time>2026-04-12T12:03:12.998Z</time></trkpt><trkpt lat="44.6143217" lon="8.18173"><ele>532.0</ele><time>2026-04-12T12:03:13.998Z</time></trkpt><trkpt lat="44.614405" lon="8.1816483"><ele>532.0</ele><time>2026-04-12T12:03:14.998Z</time></trkpt><trkpt lat="44.6144983" lon="8.18158"><ele>532.0</ele><time>2026-04-12T12:03:15.996Z</time></trkpt><trkpt lat="44.6146" lon="8.1815333"><ele>532.0</ele><time>2026-04-12T12:03:16.996Z</time></trkpt><trkpt lat="44.6147" lon="8.181505"><ele>532.0</ele><time>2026-04-12T12:03:17.996Z</time></trkpt><trkpt lat="44.614805" lon="8.1815033"><ele>530.8000000000001</ele><time>2026-04-12T12:03:18.997Z</time></trkpt><trkpt lat="44.6149083" lon="8.181515"><ele>529.6</ele><time>2026-04-12T12:03:19.996Z</time></trkpt><trkpt lat="44.6150167" lon="8.1815417"><ele>528.4000000000001</ele><time>2026-04-12T12:03:20.998Z</time></trkpt><trkpt lat="44.6151233" lon="8.1815733"><ele>527.2</ele><time>2026-04-12T12:03:21.997Z</time></trkpt><trkpt lat="44.615235" lon="8.1816133"><ele>526.0</ele><time>2026-04-12T12:03:22.998Z</time></trkpt><trkpt lat="44.615335" lon="8.1816667"><ele>529.0</ele><time>2026-04-12T12:03:23.998Z</time></trkpt><trkpt lat="44.6154383" lon="8.1817433"><ele>532.0</ele><time>2026-04-12T12:03:24.995Z</time></trkpt><trkpt lat="44.6155367" lon="8.18184"><ele>535.0</ele><time>2026-04-12T12:03:25.997Z</time></trkpt><trkpt lat="44.61562" lon="8.1819467"><ele>538.0</ele><time>2026-04-12T12:03:26.997Z</time></trkpt><trkpt lat="44.6157067" lon="8.18205"><ele>538.0</ele><time>2026-04-12T12:03:27.995Z</time></trkpt><trkpt lat="44.6158033" lon="8.18213"><ele>538.0</ele><time>2026-04-12T12:03:28.995Z</time></trkpt><trkpt lat="44.61591" lon="8.182185"><ele>538.0</ele><time>2026-04-12T12:03:29.996Z</time></trkpt><trkpt lat="44.6160217" lon="8.18222"><ele>538.0</ele><time>2026-04-12T12:03:30.997Z</time></trkpt><trkpt lat="44.616135" lon="8.18225"><ele>536.6</ele><time>2026-04-12T12:03:31.995Z</time></trkpt><trkpt lat="44.6162467" lon="8.1822783"><ele>535.1999999999999</ele><time>2026-04-12T12:03:33Z</time></trkpt><trkpt lat="44.6163567" lon="8.1823067"><ele>533.8</ele><time>2026-04-12T12:03:33.995Z</time></trkpt><trkpt lat="44.61646" lon="8.1823433"><ele>532.4</ele><time>2026-04-12T12:03:34.995Z</time></trkpt><trkpt lat="44.61656" lon="8.1823867"><ele>531.0</ele><time>2026-04-12T12:03:36.001Z</time></trkpt><trkpt lat="44.6166533" lon="8.182445"><ele>531.0</ele><time>2026-04-12T12:03:36.998Z</time></trkpt><trkpt lat="44.6167433" lon="8.1825117"><ele>531.0</ele><time>2026-04-12T12:03:37.994Z</time></trkpt><trkpt lat="44.61683" lon="8.1825883"><ele>531.0</ele><time>2026-04-12T12:03:38.996Z</time></trkpt><trkpt lat="44.61691" lon="8.1826733"><ele>531.0</ele><time>2026-04-12T12:03:39.994Z</time></trkpt><trkpt lat="44.6169883" lon="8.1827717"><ele>531.0</ele><time>2026-04-12T12:03:40.995Z</time></trkpt><trkpt lat="44.6170617" lon="8.1828717"><ele>532.3333333333334</ele><time>2026-04-12T12:03:41.998Z</time></trkpt><trkpt lat="44.6171333" lon="8.18296"><ele>533.6666666666666</ele><time>2026-04-12T12:03:43Z</time></trkpt><trkpt lat="44.6172117" lon="8.18302"><ele>535.0</ele><time>2026-04-12T12:03:44Z</time></trkpt><trkpt lat="44.6172933" lon="8.18305"><ele>536.3333333333333</ele><time>2026-04-12T12:03:44.997Z</time></trkpt><trkpt lat="44.6173767" lon="8.1830583"><ele>537.6666666666666</ele><time>2026-04-12T12:03:45.997Z</time></trkpt><trkpt lat="44.61745" lon="8.1830367"><ele>539.0</ele><time>2026-04-12T12:03:46.996Z</time></trkpt><trkpt lat="44.6175317" lon="8.1829717"><ele>539.0</ele><time>2026-04-12T12:03:47.993Z</time></trkpt><trkpt lat="44.6175917" lon="8.1828883"><ele>539.0</ele><time>2026-04-12T12:03:48.996Z</time></trkpt><trkpt lat="44.6176317" lon="8.1827883"><ele>539.0</ele><time>2026-04-12T12:03:49.996Z</time></trkpt><trkpt lat="44.6176683" lon="8.1826933"><ele>539.0</ele><time>2026-04-12T12:03:50.996Z</time></trkpt><trkpt lat="44.617695" lon="8.182585"><ele>539.0</ele><time>2026-04-12T12:03:51.998Z</time></trkpt><trkpt lat="44.6176967" lon="8.1824533"><ele>539.0</ele><time>2026-04-12T12:03:52.996Z</time></trkpt><trkpt lat="44.6176967" lon="8.1823183"><ele>539.0</ele><time>2026-04-12T12:03:53.996Z</time></trkpt><trkpt lat="44.6177033" lon="8.1821867"><ele>539.0</ele><time>2026-04-12T12:03:54.996Z</time></trkpt><trkpt lat="44.6177" lon="8.1820533"><ele>539.0</ele><time>2026-04-12T12:03:55.996Z</time></trkpt><trkpt lat="44.617695" lon="8.1819033"><ele>539.0</ele><time>2026-04-12T12:03:56.997Z</time></trkpt><trkpt lat="44.6176967" lon="8.18174"><ele>539.0</ele><time>2026-04-12T12:03:57.993Z</time></trkpt><trkpt lat="44.6176967" lon="8.1815667"><ele>537.25</ele><time>2026-04-12T12:03:58.996Z</time></trkpt><trkpt lat="44.6176967" lon="8.1813917"><ele>535.5</ele><time>2026-04-12T12:03:59.999Z</time></trkpt><trkpt lat="44.6177017" lon="8.1812083"><ele>533.75</ele><time>2026-04-12T12:04:00.995Z</time></trkpt><trkpt lat="44.6177083" lon="8.1810267"><ele>532.0</ele><time>2026-04-12T12:04:01.996Z</time></trkpt><trkpt lat="44.61772" lon="8.18084"><ele>531.25</ele><time>2026-04-12T12:04:02.995Z</time></trkpt><trkpt lat="44.6177267" lon="8.1806583"><ele>530.5</ele><time>2026-04-12T12:04:04Z</time></trkpt><trkpt lat="44.617735" lon="8.1804733"><ele>529.75</ele><time>2026-04-12T12:04:04.995Z</time></trkpt><trkpt lat="44.6177317" lon="8.1802983"><ele>529.0</ele><time>2026-04-12T12:04:05.996Z</time></trkpt><trkpt lat="44.617735" lon="8.18012"><ele>529.0</ele><time>2026-04-12T12:04:07Z</time></trkpt><trkpt lat="44.61774" lon="8.179945"><ele>529.0</ele><time>2026-04-12T12:04:07.997Z</time></trkpt><trkpt lat="44.61775" lon="8.17977"><ele>529.0</ele><time>2026-04-12T12:04:08.998Z</time></trkpt><trkpt lat="44.617755" lon="8.1795983"><ele>529.0</ele><time>2026-04-12T12:04:09.994Z</time></trkpt><trkpt lat="44.61776" lon="8.1794233"><ele>528.5</ele><time>2026-04-12T12:04:11.001Z</time></trkpt><trkpt lat="44.6177683" lon="8.1792433"><ele>528.0</ele><time>2026-04-12T12:04:11.995Z</time></trkpt><trkpt lat="44.6177733" lon="8.1790633"><ele>527.5</ele><time>2026-04-12T12:04:12.997Z</time></trkpt><trkpt lat="44.6177783" lon="8.17888"><ele>527.0</ele><time>2026-04-12T12:04:13.996Z</time></trkpt><trkpt lat="44.6177833" lon="8.1786867"><ele>527.0</ele><time>2026-04-12T12:04:14.997Z</time></trkpt><trkpt lat="44.6177833" lon="8.1784883"><ele>527.0</ele><time>2026-04-12T12:04:15.997Z</time></trkpt><trkpt lat="44.6177833" lon="8.17829"><ele>527.0</ele><time>2026-04-12T12:04:16.996Z</time></trkpt><trkpt lat="44.6177733" lon="8.1780883"><ele>527.0</ele><time>2026-04-12T12:04:17.996Z</time></trkpt><trkpt lat="44.61775" lon="8.1778867"><ele>525.6666666666666</ele><time>2026-04-12T12:04:18.998Z</time></trkpt><trkpt lat="44.6177033" lon="8.177685"><ele>524.3333333333334</ele><time>2026-04-12T12:04:19.996Z</time></trkpt><trkpt lat="44.6176417" lon="8.1774917"><ele>523.0</ele><time>2026-04-12T12:04:21.004Z</time></trkpt><trkpt lat="44.617565" lon="8.177305"><ele>520.6666666666667</ele><time>2026-04-12T12:04:21.996Z</time></trkpt><trkpt lat="44.6174833" lon="8.17712"><ele>518.3333333333334</ele><time>2026-04-12T12:04:22.996Z</time></trkpt><trkpt lat="44.6173983" lon="8.176925"><ele>516.0</ele><time>2026-04-12T12:04:23.99Z</time></trkpt><trkpt lat="44.6173117" lon="8.17672"><ele>512.6666666666666</ele><time>2026-04-12T12:04:24.996Z</time></trkpt><trkpt lat="44.6172267" lon="8.1765133"><ele>509.3333333333333</ele><time>2026-04-12T12:04:25.999Z</time></trkpt><trkpt lat="44.6171383" lon="8.1763067"><ele>506.0</ele><time>2026-04-12T12:04:26.999Z</time></trkpt><trkpt lat="44.6170533" lon="8.1760967"><ele>507.3333333333333</ele><time>2026-04-12T12:04:27.996Z</time></trkpt><trkpt lat="44.6169633" lon="8.1758867"><ele>508.66666666666663</ele><time>2026-04-12T12:04:28.994Z</time></trkpt><trkpt lat="44.6168667" lon="8.1756733"><ele>510.0</ele><time>2026-04-12T12:04:29.998Z</time></trkpt><trkpt lat="44.6167783" lon="8.1754567"><ele>510.0</ele><time>2026-04-12T12:04:30.995Z</time></trkpt><trkpt lat="44.616685" lon="8.1752383"><ele>510.0</ele><time>2026-04-12T12:04:31.996Z</time></trkpt><trkpt lat="44.616595" lon="8.1750233"><ele>510.0</ele><time>2026-04-12T12:04:33.003Z</time></trkpt><trkpt lat="44.6165" lon="8.17481"><ele>507.33333333333337</ele><time>2026-04-12T12:04:33.995Z</time></trkpt><trkpt lat="44.6164117" lon="8.1745983"><ele>504.6666666666667</ele><time>2026-04-12T12:04:34.996Z</time></trkpt><trkpt lat="44.6163233" lon="8.1743883"><ele>502.0</ele><time>2026-04-12T12:04:35.998Z</time></trkpt><trkpt lat="44.6162317" lon="8.1741783"><ele>503.33333333333337</ele><time>2026-04-12T12:04:36.993Z</time></trkpt><trkpt lat="44.6161367" lon="8.1739667"><ele>504.66666666666663</ele><time>2026-04-12T12:04:37.996Z</time></trkpt><trkpt lat="44.6160367" lon="8.173745"><ele>506.0</ele><time>2026-04-12T12:04:38.994Z</time></trkpt><trkpt lat="44.61594" lon="8.173515"><ele>506.0</ele><time>2026-04-12T12:04:39.991Z</time></trkpt><trkpt lat="44.615835" lon="8.1732717"><ele>506.0</ele><time>2026-04-12T12:04:40.997Z</time></trkpt><trkpt lat="44.6157283" lon="8.1730267"><ele>506.0</ele><time>2026-04-12T12:04:41.995Z</time></trkpt><trkpt lat="44.61562" lon="8.1727767"><ele>506.3333333333333</ele><time>2026-04-12T12:04:42.997Z</time></trkpt><trkpt lat="44.61551" lon="8.1725217"><ele>506.66666666666663</ele><time>2026-04-12T12:04:43.999Z</time></trkpt><trkpt lat="44.6153983" lon="8.172265"><ele>507.0</ele><time>2026-04-12T12:04:44.997Z</time></trkpt><trkpt lat="44.61529" lon="8.1720067"><ele>507.0</ele><time>2026-04-12T12:04:45.992Z</time></trkpt><trkpt lat="44.61518" lon="8.1717517"><ele>507.0</ele><time>2026-04-12T12:04:46.996Z</time></trkpt><trkpt lat="44.6150717" lon="8.1714967"><ele>507.0</ele><time>2026-04-12T12:04:47.997Z</time></trkpt><trkpt lat="44.6149683" lon="8.17124"><ele>506.0</ele><time>2026-04-12T12:04:48.994Z</time></trkpt><trkpt lat="44.6148683" lon="8.170985"><ele>505.0</ele><time>2026-04-12T12:04:49.996Z</time></trkpt><trkpt lat="44.6147767" lon="8.1707283"><ele>504.0</ele><time>2026-04-12T12:04:50.996Z</time></trkpt><trkpt lat="44.6146883" lon="8.1704717"><ele>504.33333333333337</ele><time>2026-04-12T12:04:51.998Z</time></trkpt><trkpt lat="44.6146017" lon="8.1702117"><ele>504.6666666666667</ele><time>2026-04-12T12:04:52.994Z</time></trkpt><trkpt lat="44.6145183" lon="8.169955"><ele>505.0</ele><time>2026-04-12T12:04:53.995Z</time></trkpt><trkpt lat="44.61444" lon="8.1696983"><ele>505.0</ele><time>2026-04-12T12:04:54.999Z</time></trkpt><trkpt lat="44.6143633" lon="8.1694383"><ele>505.0</ele><time>2026-04-12T12:04:55.993Z</time></trkpt><trkpt lat="44.6142883" lon="8.169175"><ele>505.0</ele><time>2026-04-12T12:04:56.994Z</time></trkpt><trkpt lat="44.61421" lon="8.1689133"><ele>502.33333333333337</ele><time>2026-04-12T12:04:57.998Z</time></trkpt><trkpt lat="44.6141267" lon="8.1686533"><ele>499.66666666666663</ele><time>2026-04-12T12:04:58.994Z</time></trkpt><trkpt lat="44.6140433" lon="8.1683933"><ele>497.0</ele><time>2026-04-12T12:05:00.008Z</time></trkpt><trkpt lat="44.6139583" lon="8.16813"><ele>494.0</ele><time>2026-04-12T12:05:01Z</time></trkpt><trkpt lat="44.613875" lon="8.167865"><ele>491.0</ele><time>2026-04-12T12:05:01.998Z</time></trkpt><trkpt lat="44.6137883" lon="8.1676017"><ele>488.0</ele><time>2026-04-12T12:05:02.999Z</time></trkpt><trkpt lat="44.6137" lon="8.16734"><ele>489.66666666666663</ele><time>2026-04-12T12:05:03.994Z</time></trkpt><trkpt lat="44.6136133" lon="8.1670767"><ele>491.33333333333337</ele><time>2026-04-12T12:05:04.995Z</time></trkpt><trkpt lat="44.6135283" lon="8.1668133"><ele>493.0</ele><time>2026-04-12T12:05:05.997Z</time></trkpt><trkpt lat="44.61345" lon="8.1665567"><ele>490.33333333333337</ele><time>2026-04-12T12:05:06.999Z</time></trkpt><trkpt lat="44.613375" lon="8.166325"><ele>487.66666666666663</ele><time>2026-04-12T12:05:07.999Z</time></trkpt><trkpt lat="44.6132983" lon="8.1661233"><ele>485.0</ele><time>2026-04-12T12:05:09.002Z</time></trkpt><trkpt lat="44.61321" lon="8.1659383"><ele>485.0</ele><time>2026-04-12T12:05:09.995Z</time></trkpt><trkpt lat="44.6131017" lon="8.1657833"><ele>485.0</ele><time>2026-04-12T12:05:10.995Z</time></trkpt><trkpt lat="44.6129733" lon="8.165645"><ele>485.0</ele><time>2026-04-12T12:05:12Z</time></trkpt><trkpt lat="44.6128533" lon="8.165495"><ele>485.66666666666663</ele><time>2026-04-12T12:05:12.995Z</time></trkpt><trkpt lat="44.6127483" lon="8.16532"><ele>486.33333333333337</ele><time>2026-04-12T12:05:13.996Z</time></trkpt><trkpt lat="44.612665" lon="8.1651133"><ele>487.0</ele><time>2026-04-12T12:05:14.996Z</time></trkpt><trkpt lat="44.6125883" lon="8.1648883"><ele>484.33333333333337</ele><time>2026-04-12T12:05:15.996Z</time></trkpt><trkpt lat="44.612515" lon="8.1646467"><ele>481.66666666666663</ele><time>2026-04-12T12:05:16.996Z</time></trkpt><trkpt lat="44.6124417" lon="8.1643967"><ele>479.0</ele><time>2026-04-12T12:05:17.996Z</time></trkpt><trkpt lat="44.612365" lon="8.1641367"><ele>475.3333333333333</ele><time>2026-04-12T12:05:18.999Z</time></trkpt><trkpt lat="44.6122833" lon="8.16387"><ele>471.66666666666663</ele><time>2026-04-12T12:05:19.997Z</time></trkpt><trkpt lat="44.6121983" lon="8.1635967"><ele>468.0</ele><time>2026-04-12T12:05:20.997Z</time></trkpt><trkpt lat="44.61211" lon="8.1633183"><ele>470.33333333333337</ele><time>2026-04-12T12:05:22.002Z</time></trkpt><trkpt lat="44.6120183" lon="8.1630367"><ele>472.6666666666667</ele><time>2026-04-12T12:05:22.994Z</time></trkpt><trkpt lat="44.6119283" lon="8.1627583"><ele>475.0</ele><time>2026-04-12T12:05:24Z</time></trkpt><trkpt lat="44.61184" lon="8.162485"><ele>472.33333333333337</ele><time>2026-04-12T12:05:25.001Z</time></trkpt><trkpt lat="44.611755" lon="8.1622217"><ele>469.66666666666663</ele><time>2026-04-12T12:05:26.002Z</time></trkpt><trkpt lat="44.611675" lon="8.1619717"><ele>467.0</ele><time>2026-04-12T12:05:26.997Z</time></trkpt><trkpt lat="44.6116017" lon="8.16172"><ele>465.0</ele><time>2026-04-12T12:05:27.995Z</time></trkpt><trkpt lat="44.6115467" lon="8.1614633"><ele>463.0</ele><time>2026-04-12T12:05:28.997Z</time></trkpt><trkpt lat="44.6115133" lon="8.1612017"><ele>461.0</ele><time>2026-04-12T12:05:29.997Z</time></trkpt><trkpt lat="44.611505" lon="8.16094"><ele>460.3333333333333</ele><time>2026-04-12T12:05:30.994Z</time></trkpt><trkpt lat="44.6115117" lon="8.1606767"><ele>459.66666666666663</ele><time>2026-04-12T12:05:31.998Z</time></trkpt><trkpt lat="44.6115283" lon="8.1604133"><ele>459.0</ele><time>2026-04-12T12:05:33.001Z</time></trkpt><trkpt lat="44.6115633" lon="8.160145"><ele>459.0</ele><time>2026-04-12T12:05:33.993Z</time></trkpt><trkpt lat="44.611605" lon="8.1598783"><ele>459.0</ele><time>2026-04-12T12:05:34.996Z</time></trkpt><trkpt lat="44.6116433" lon="8.1596083"><ele>459.0</ele><time>2026-04-12T12:05:35.996Z</time></trkpt><trkpt lat="44.6116633" lon="8.159335"><ele>457.33333333333337</ele><time>2026-04-12T12:05:36.996Z</time></trkpt><trkpt lat="44.6116733" lon="8.1590517"><ele>455.6666666666667</ele><time>2026-04-12T12:05:37.998Z</time></trkpt><trkpt lat="44.611675" lon="8.15877"><ele>454.0</ele><time>2026-04-12T12:05:38.996Z</time></trkpt><trkpt lat="44.6116767" lon="8.158485"><ele>452.33333333333337</ele><time>2026-04-12T12:05:39.994Z</time></trkpt><trkpt lat="44.6116717" lon="8.1582083"><ele>450.66666666666663</ele><time>2026-04-12T12:05:40.998Z</time></trkpt><trkpt lat="44.6116583" lon="8.157935"><ele>449.0</ele><time>2026-04-12T12:05:41.995Z</time></trkpt><trkpt lat="44.6116283" lon="8.1576717"><ele>448.3333333333333</ele><time>2026-04-12T12:05:42.997Z</time></trkpt><trkpt lat="44.6115983" lon="8.1574217"><ele>447.66666666666663</ele><time>2026-04-12T12:05:43.993Z</time></trkpt><trkpt lat="44.6115817" lon="8.1571933"><ele>447.0</ele><time>2026-04-12T12:05:44.995Z</time></trkpt><trkpt lat="44.611595" lon="8.1569783"><ele>447.0</ele><time>2026-04-12T12:05:45.999Z</time></trkpt><trkpt lat="44.6116383" lon="8.15678"><ele>447.0</ele><time>2026-04-12T12:05:47.002Z</time></trkpt><trkpt lat="44.611705" lon="8.1565917"><ele>447.0</ele><time>2026-04-12T12:05:47.997Z</time></trkpt><trkpt lat="44.6117867" lon="8.1564033"><ele>446.66666666666663</ele><time>2026-04-12T12:05:49.001Z</time></trkpt><trkpt lat="44.611865" lon="8.1562"><ele>446.3333333333333</ele><time>2026-04-12T12:05:49.997Z</time></trkpt><trkpt lat="44.6119283" lon="8.1559783"><ele>446.0</ele><time>2026-04-12T12:05:50.997Z</time></trkpt><trkpt lat="44.6119717" lon="8.15574"><ele>442.0</ele><time>2026-04-12T12:05:51.997Z</time></trkpt><trkpt lat="44.612005" lon="8.155495"><ele>438.0</ele><time>2026-04-12T12:05:52.998Z</time></trkpt><trkpt lat="44.6120417" lon="8.1552417"><ele>434.0</ele><time>2026-04-12T12:05:54Z</time></trkpt><trkpt lat="44.6120867" lon="8.1549933"><ele>432.0</ele><time>2026-04-12T12:05:54.997Z</time></trkpt><trkpt lat="44.6121467" lon="8.1547483"><ele>430.0</ele><time>2026-04-12T12:05:55.996Z</time></trkpt><trkpt lat="44.6122283" lon="8.15451"><ele>428.0</ele><time>2026-04-12T12:05:56.996Z</time></trkpt><trkpt lat="44.6123233" lon="8.15427"><ele>424.66666666666663</ele><time>2026-04-12T12:05:57.995Z</time></trkpt><trkpt lat="44.6124217" lon="8.1540283"><ele>421.33333333333337</ele><time>2026-04-12T12:05:58.994Z</time></trkpt><trkpt lat="44.6125233" lon="8.15379"><ele>418.0</ele><time>2026-04-12T12:05:59.995Z</time></trkpt><trkpt lat="44.6126117" lon="8.1535733"><ele>418.0</ele><time>2026-04-12T12:06:01.001Z</time></trkpt><trkpt lat="44.6126883" lon="8.15339"><ele>418.0</ele><time>2026-04-12T12:06:01.994Z</time></trkpt><trkpt lat="44.6127533" lon="8.15324"><ele>418.0</ele><time>2026-04-12T12:06:02.995Z</time></trkpt><trkpt lat="44.6128267" lon="8.1531233"><ele>418.0</ele><time>2026-04-12T12:06:03.995Z</time></trkpt><trkpt lat="44.61291" lon="8.15305"><ele>415.79999999999995</ele><time>2026-04-12T12:06:04.996Z</time></trkpt><trkpt lat="44.61301" lon="8.15304"><ele>413.6</ele><time>2026-04-12T12:06:05.998Z</time></trkpt><trkpt lat="44.6130933" lon="8.1530917"><ele>411.4</ele><time>2026-04-12T12:06:06.996Z</time></trkpt><trkpt lat="44.61316" lon="8.1531967"><ele>409.20000000000005</ele><time>2026-04-12T12:06:07.998Z</time></trkpt><trkpt lat="44.6132217" lon="8.1533267"><ele>407.0</ele><time>2026-04-12T12:06:09.001Z</time></trkpt><trkpt lat="44.61328" lon="8.1534917"><ele>407.0</ele><time>2026-04-12T12:06:09.997Z</time></trkpt><trkpt lat="44.6133133" lon="8.1536967"><ele>407.0</ele><time>2026-04-12T12:06:10.996Z</time></trkpt><trkpt lat="44.61333" lon="8.1539317"><ele>407.0</ele><time>2026-04-12T12:06:11.993Z</time></trkpt><trkpt lat="44.6133383" lon="8.15418"><ele>409.0</ele><time>2026-04-12T12:06:12.999Z</time></trkpt><trkpt lat="44.6133467" lon="8.154435"><ele>411.0</ele><time>2026-04-12T12:06:13.993Z</time></trkpt><trkpt lat="44.61336" lon="8.154685"><ele>413.0</ele><time>2026-04-12T12:06:14.996Z</time></trkpt><trkpt lat="44.6133983" lon="8.1549267"><ele>414.3333333333333</ele><time>2026-04-12T12:06:15.996Z</time></trkpt><trkpt lat="44.6134617" lon="8.1551417"><ele>415.66666666666663</ele><time>2026-04-12T12:06:16.998Z</time></trkpt><trkpt lat="44.61354" lon="8.15534"><ele>417.0</ele><time>2026-04-12T12:06:17.996Z</time></trkpt><trkpt lat="44.6136167" lon="8.155525"><ele>413.0</ele><time>2026-04-12T12:06:18.995Z</time></trkpt><trkpt lat="44.6136883" lon="8.15568"><ele>409.0</ele><time>2026-04-12T12:06:19.993Z</time></trkpt><trkpt lat="44.613755" lon="8.1557833"><ele>405.0</ele><time>2026-04-12T12:06:20.994Z</time></trkpt><trkpt lat="44.6138317" lon="8.1558533"><ele>401.0</ele><time>2026-04-12T12:06:21.995Z</time></trkpt><trkpt lat="44.6139067" lon="8.1558983"><ele>397.0</ele><time>2026-04-12T12:06:23.002Z</time></trkpt><trkpt lat="44.613955" lon="8.1557183"><ele>397.0</ele><time>2026-04-12T12:06:23.997Z</time></trkpt><trkpt lat="44.61401" lon="8.155595"><ele>397.0</ele><time>2026-04-12T12:06:24.999Z</time></trkpt><trkpt lat="44.6140383" lon="8.1554217"><ele>397.0</ele><time>2026-04-12T12:06:25.997Z</time></trkpt><trkpt lat="44.6140683" lon="8.1552433"><ele>397.0</ele><time>2026-04-12T12:06:26.996Z</time></trkpt><trkpt lat="44.61409" lon="8.1550583"><ele>395.25</ele><time>2026-04-12T12:06:27.995Z</time></trkpt><trkpt lat="44.6140833" lon="8.154865"><ele>393.5</ele><time>2026-04-12T12:06:28.996Z</time></trkpt><trkpt lat="44.6140433" lon="8.1546633"><ele>391.75</ele><time>2026-04-12T12:06:29.997Z</time></trkpt><trkpt lat="44.6139767" lon="8.1544633"><ele>390.0</ele><time>2026-04-12T12:06:31.001Z</time></trkpt><trkpt lat="44.6139067" lon="8.15427"><ele>390.0</ele><time>2026-04-12T12:06:32Z</time></trkpt><trkpt lat="44.6138433" lon="8.1540717"><ele>390.0</ele><time>2026-04-12T12:06:32.996Z</time></trkpt><trkpt lat="44.6137917" lon="8.1538683"><ele>390.0</ele><time>2026-04-12T12:06:34Z</time></trkpt><trkpt lat="44.6137633" lon="8.1536633"><ele>385.3333333333333</ele><time>2026-04-12T12:06:34.995Z</time></trkpt><trkpt lat="44.613745" lon="8.1534517"><ele>380.66666666666663</ele><time>2026-04-12T12:06:35.998Z</time></trkpt><trkpt lat="44.6137217" lon="8.1532367"><ele>376.0</ele><time>2026-04-12T12:06:36.997Z</time></trkpt><trkpt lat="44.61369" lon="8.1530233"><ele>381.0</ele><time>2026-04-12T12:06:37.997Z</time></trkpt><trkpt lat="44.6136383" lon="8.15281"><ele>386.0</ele><time>2026-04-12T12:06:38.999Z</time></trkpt><trkpt lat="44.6135667" lon="8.152605"><ele>391.0</ele><time>2026-04-12T12:06:40.001Z</time></trkpt><trkpt lat="44.61348" lon="8.1524117"><ele>385.33333333333337</ele><time>2026-04-12T12:06:40.994Z</time></trkpt><trkpt lat="44.6133783" lon="8.1522317"><ele>379.6666666666667</ele><time>2026-04-12T12:06:41.995Z</time></trkpt><trkpt lat="44.613255" lon="8.152065"><ele>374.0</ele><time>2026-04-12T12:06:42.999Z</time></trkpt><trkpt lat="44.6131333" lon="8.1519133"><ele>374.0</ele><time>2026-04-12T12:06:43.997Z</time></trkpt><trkpt lat="44.6130333" lon="8.15176"><ele>374.0</ele><time>2026-04-12T12:06:44.996Z</time></trkpt><trkpt lat="44.6129683" lon="8.1516067"><ele>374.0</ele><time>2026-04-12T12:06:45.995Z</time></trkpt><trkpt lat="44.6129517" lon="8.15144"><ele>374.0</ele><time>2026-04-12T12:06:46.998Z</time></trkpt><trkpt lat="44.6129717" lon="8.1512567"><ele>372.25</ele><time>2026-04-12T12:06:47.997Z</time></trkpt><trkpt lat="44.6130167" lon="8.1510733"><ele>370.5</ele><time>2026-04-12T12:06:48.998Z</time></trkpt><trkpt lat="44.613075" lon="8.1508867"><ele>368.75</ele><time>2026-04-12T12:06:49.996Z</time></trkpt><trkpt lat="44.613145" lon="8.150695"><ele>367.0</ele><time>2026-04-12T12:06:50.995Z</time></trkpt><trkpt lat="44.613215" lon="8.1505033"><ele>365.5</ele><time>2026-04-12T12:06:51.997Z</time></trkpt><trkpt lat="44.6132717" lon="8.150325"><ele>364.0</ele><time>2026-04-12T12:06:52.994Z</time></trkpt><trkpt lat="44.6132967" lon="8.15016"><ele>362.5</ele><time>2026-04-12T12:06:53.998Z</time></trkpt><trkpt lat="44.613285" lon="8.150005"><ele>361.0</ele><time>2026-04-12T12:06:54.997Z</time></trkpt><trkpt lat="44.6132383" lon="8.1498717"><ele>361.6</ele><time>2026-04-12T12:06:55.999Z</time></trkpt><trkpt lat="44.6131633" lon="8.14976"><ele>362.20000000000005</ele><time>2026-04-12T12:06:56.997Z</time></trkpt><trkpt lat="44.6130667" lon="8.1496867"><ele>362.79999999999995</ele><time>2026-04-12T12:06:57.997Z</time></trkpt><trkpt lat="44.61296" lon="8.1496317"><ele>363.4</ele><time>2026-04-12T12:06:58.995Z</time></trkpt><trkpt lat="44.6128633" lon="8.1495667"><ele>364.0</ele><time>2026-04-12T12:06:59.996Z</time></trkpt><trkpt lat="44.612795" lon="8.1494817"><ele>364.0</ele><time>2026-04-12T12:07:00.995Z</time></trkpt><trkpt lat="44.61275" lon="8.1493867"><ele>364.0</ele><time>2026-04-12T12:07:01.998Z</time></trkpt><trkpt lat="44.6127617" lon="8.1492767"><ele>364.0</ele><time>2026-04-12T12:07:02.997Z</time></trkpt><trkpt lat="44.612805" lon="8.1491883"><ele>364.0</ele><time>2026-04-12T12:07:03.996Z</time></trkpt><trkpt lat="44.612865" lon="8.1491417"><ele>364.0</ele><time>2026-04-12T12:07:05Z</time></trkpt><trkpt lat="44.6129383" lon="8.149125"><ele>364.0</ele><time>2026-04-12T12:07:05.998Z</time></trkpt><trkpt lat="44.6130317" lon="8.1491333"><ele>361.2</ele><time>2026-04-12T12:07:06.997Z</time></trkpt><trkpt lat="44.6131367" lon="8.1491517"><ele>358.4</ele><time>2026-04-12T12:07:07.996Z</time></trkpt><trkpt lat="44.6132283" lon="8.1491483"><ele>355.6</ele><time>2026-04-12T12:07:08.999Z</time></trkpt><trkpt lat="44.61333" lon="8.1491317"><ele>352.8</ele><time>2026-04-12T12:07:09.995Z</time></trkpt><trkpt lat="44.6134067" lon="8.1490783"><ele>350.0</ele><time>2026-04-12T12:07:10.996Z</time></trkpt><trkpt lat="44.6134183" lon="8.1489767"><ele>346.6</ele><time>2026-04-12T12:07:11.997Z</time></trkpt><trkpt lat="44.6133933" lon="8.1488783"><ele>343.2</ele><time>2026-04-12T12:07:12.998Z</time></trkpt><trkpt lat="44.6133467" lon="8.1487983"><ele>339.79999999999995</ele><time>2026-04-12T12:07:14.003Z</time></trkpt><trkpt lat="44.613265" lon="8.14874"><ele>336.4</ele><time>2026-04-12T12:07:14.997Z</time></trkpt><trkpt lat="44.613125" lon="8.1487133"><ele>333.0</ele><time>2026-04-12T12:07:16Z</time></trkpt><trkpt lat="44.6129917" lon="8.148665"><ele>333.0</ele><time>2026-04-12T12:07:16.999Z</time></trkpt><trkpt lat="44.612865" lon="8.148595"><ele>333.0</ele><time>2026-04-12T12:07:17.992Z</time></trkpt><trkpt lat="44.6127433" lon="8.1485033"><ele>333.0</ele><time>2026-04-12T12:07:18.997Z</time></trkpt><trkpt lat="44.6126367" lon="8.14839"><ele>333.0</ele><time>2026-04-12T12:07:19.995Z</time></trkpt><trkpt lat="44.6125267" lon="8.1482683"><ele>333.25</ele><time>2026-04-12T12:07:20.999Z</time></trkpt><trkpt lat="44.6124267" lon="8.1481417"><ele>333.5</ele><time>2026-04-12T12:07:21.998Z</time></trkpt><trkpt lat="44.612335" lon="8.1480167"><ele>333.75</ele><time>2026-04-12T12:07:22.994Z</time></trkpt><trkpt lat="44.612265" lon="8.1478883"><ele>334.0</ele><time>2026-04-12T12:07:23.997Z</time></trkpt><trkpt lat="44.612225" lon="8.1477567"><ele>334.0</ele><time>2026-04-12T12:07:24.997Z</time></trkpt><trkpt lat="44.61221" lon="8.1476167"><ele>334.0</ele><time>2026-04-12T12:07:25.998Z</time></trkpt><trkpt lat="44.6122133" lon="8.14746"><ele>334.0</ele><time>2026-04-12T12:07:26.996Z</time></trkpt><trkpt lat="44.6122233" lon="8.1472817"><ele>334.0</ele><time>2026-04-12T12:07:27.995Z</time></trkpt><trkpt lat="44.61224" lon="8.1470783"><ele>332.3333333333333</ele><time>2026-04-12T12:07:28.996Z</time></trkpt><trkpt lat="44.6122533" lon="8.1468617"><ele>330.6666666666667</ele><time>2026-04-12T12:07:30.001Z</time></trkpt><trkpt lat="44.6122667" lon="8.1466383"><ele>329.0</ele><time>2026-04-12T12:07:30.996Z</time></trkpt><trkpt lat="44.6122767" lon="8.1464067"><ele>327.0</ele><time>2026-04-12T12:07:31.996Z</time></trkpt><trkpt lat="44.61229" lon="8.1461633"><ele>325.0</ele><time>2026-04-12T12:07:32.997Z</time></trkpt><trkpt lat="44.6123033" lon="8.1459167"><ele>323.0</ele><time>2026-04-12T12:07:33.994Z</time></trkpt><trkpt lat="44.612315" lon="8.145675"><ele>322.33333333333337</ele><time>2026-04-12T12:07:34.996Z</time></trkpt><trkpt lat="44.6123283" lon="8.1454283"><ele>321.6666666666667</ele><time>2026-04-12T12:07:35.997Z</time></trkpt><trkpt lat="44.61234" lon="8.1451867"><ele>321.0</ele><time>2026-04-12T12:07:37.005Z</time></trkpt><trkpt lat="44.6123517" lon="8.144945"><ele>324.3333333333333</ele><time>2026-04-12T12:07:37.996Z</time></trkpt><trkpt lat="44.612365" lon="8.1446983"><ele>327.66666666666663</ele><time>2026-04-12T12:07:38.992Z</time></trkpt><trkpt lat="44.6123767" lon="8.14446"><ele>331.0</ele><time>2026-04-12T12:07:39.996Z</time></trkpt><trkpt lat="44.6123867" lon="8.1442383"><ele>333.5</ele><time>2026-04-12T12:07:40.994Z</time></trkpt><trkpt lat="44.6123833" lon="8.1440433"><ele>336.0</ele><time>2026-04-12T12:07:42.001Z</time></trkpt><trkpt lat="44.6123567" lon="8.143875"><ele>338.5</ele><time>2026-04-12T12:07:42.994Z</time></trkpt><trkpt lat="44.6123033" lon="8.1437267"><ele>341.0</ele><time>2026-04-12T12:07:44.002Z</time></trkpt><trkpt lat="44.6122383" lon="8.1436117"><ele>341.0</ele><time>2026-04-12T12:07:45.004Z</time></trkpt><trkpt lat="44.6121983" lon="8.1435083"><ele>341.0</ele><time>2026-04-12T12:07:45.998Z</time></trkpt><trkpt lat="44.6121967" lon="8.143415"><ele>341.0</ele><time>2026-04-12T12:07:46.997Z</time></trkpt><trkpt lat="44.6122733" lon="8.143325"><ele>341.0</ele><time>2026-04-12T12:07:48.996Z</time></trkpt><trkpt lat="44.6123433" lon="8.1433683"><ele>341.0</ele><time>2026-04-12T12:07:49.997Z</time></trkpt><trkpt lat="44.61243" lon="8.1434417"><ele>341.0</ele><time>2026-04-12T12:07:51Z</time></trkpt><trkpt lat="44.6125233" lon="8.14355"><ele>341.0</ele><time>2026-04-12T12:07:51.998Z</time></trkpt><trkpt lat="44.6126367" lon="8.143675"><ele>341.0</ele><time>2026-04-12T12:07:52.995Z</time></trkpt><trkpt lat="44.612765" lon="8.143805"><ele>341.0</ele><time>2026-04-12T12:07:53.997Z</time></trkpt><trkpt lat="44.6129067" lon="8.1439467"><ele>345.0</ele><time>2026-04-12T12:07:54.997Z</time></trkpt><trkpt lat="44.6130517" lon="8.1440867"><ele>349.0</ele><time>2026-04-12T12:07:55.997Z</time></trkpt><trkpt lat="44.6132033" lon="8.1442283"><ele>353.0</ele><time>2026-04-12T12:07:57.001Z</time></trkpt><trkpt lat="44.6133533" lon="8.144375"><ele>353.0</ele><time>2026-04-12T12:07:57.997Z</time></trkpt><trkpt lat="44.6135067" lon="8.1445217"><ele>353.0</ele><time>2026-04-12T12:07:58.997Z</time></trkpt><trkpt lat="44.6136583" lon="8.144665"><ele>353.0</ele><time>2026-04-12T12:07:59.997Z</time></trkpt><trkpt lat="44.6137917" lon="8.1447933"><ele>353.59999999999997</ele><time>2026-04-12T12:08:00.993Z</time></trkpt><trkpt lat="44.6139017" lon="8.1448967"><ele>354.2</ele><time>2026-04-12T12:08:01.995Z</time></trkpt><trkpt lat="44.6139883" lon="8.144965"><ele>354.8</ele><time>2026-04-12T12:08:02.995Z</time></trkpt><trkpt lat="44.61406" lon="8.1449783"><ele>355.4</ele><time>2026-04-12T12:08:03.999Z</time></trkpt><trkpt lat="44.6141317" lon="8.144975"><ele>356.0</ele><time>2026-04-12T12:08:04.997Z</time></trkpt><trkpt lat="44.6141233" lon="8.1448117"><ele>361.6</ele><time>2026-04-12T12:08:06.999Z</time></trkpt><trkpt lat="44.614095" lon="8.1447217"><ele>367.20000000000005</ele><time>2026-04-12T12:08:07.998Z</time></trkpt><trkpt lat="44.61402" lon="8.1446517"><ele>372.79999999999995</ele><time>2026-04-12T12:08:08.997Z</time></trkpt><trkpt lat="44.6139367" lon="8.1445733"><ele>378.4</ele><time>2026-04-12T12:08:09.994Z</time></trkpt><trkpt lat="44.6138283" lon="8.14449"><ele>384.0</ele><time>2026-04-12T12:08:10.997Z</time></trkpt><trkpt lat="44.61373" lon="8.1443867"><ele>381.25</ele><time>2026-04-12T12:08:11.994Z</time></trkpt><trkpt lat="44.61364" lon="8.1442517"><ele>378.5</ele><time>2026-04-12T12:08:12.998Z</time></trkpt><trkpt lat="44.613555" lon="8.144085"><ele>375.75</ele><time>2026-04-12T12:08:13.997Z</time></trkpt><trkpt lat="44.6134717" lon="8.143905"><ele>373.0</ele><time>2026-04-12T12:08:15.002Z</time></trkpt><trkpt lat="44.6133867" lon="8.1437133"><ele>373.0</ele><time>2026-04-12T12:08:15.997Z</time></trkpt><trkpt lat="44.6132967" lon="8.1435133"><ele>373.0</ele><time>2026-04-12T12:08:16.996Z</time></trkpt><trkpt lat="44.61321" lon="8.1433267"><ele>373.0</ele><time>2026-04-12T12:08:17.999Z</time></trkpt><trkpt lat="44.6131317" lon="8.1431517"><ele>372.25</ele><time>2026-04-12T12:08:18.994Z</time></trkpt><trkpt lat="44.6130733" lon="8.1429867"><ele>371.5</ele><time>2026-04-12T12:08:19.996Z</time></trkpt><trkpt lat="44.613045" lon="8.14282"><ele>370.75</ele><time>2026-04-12T12:08:20.995Z</time></trkpt><trkpt lat="44.6130567" lon="8.1426567"><ele>370.0</ele><time>2026-04-12T12:08:21.995Z</time></trkpt><trkpt lat="44.6131" lon="8.142515"><ele>370.0</ele><time>2026-04-12T12:08:22.999Z</time></trkpt><trkpt lat="44.61318" lon="8.1423833"><ele>370.0</ele><time>2026-04-12T12:08:24Z</time></trkpt><trkpt lat="44.6132717" lon="8.1422517"><ele>370.0</ele><time>2026-04-12T12:08:24.998Z</time></trkpt><trkpt lat="44.6134017" lon="8.1421117"><ele>370.0</ele><time>2026-04-12T12:08:25.993Z</time></trkpt><trkpt lat="44.613555" lon="8.14195"><ele>373.3333333333333</ele><time>2026-04-12T12:08:26.996Z</time></trkpt><trkpt lat="44.6137133" lon="8.1417683"><ele>376.6666666666667</ele><time>2026-04-12T12:08:27.994Z</time></trkpt><trkpt lat="44.6138783" lon="8.141585"><ele>380.0</ele><time>2026-04-12T12:08:28.995Z</time></trkpt><trkpt lat="44.6140567" lon="8.1414"><ele>368.0</ele><time>2026-04-12T12:08:30.002Z</time></trkpt><trkpt lat="44.614235" lon="8.141205"><ele>356.0</ele><time>2026-04-12T12:08:30.996Z</time></trkpt><trkpt lat="44.61442" lon="8.1410183"><ele>359.6666666666667</ele><time>2026-04-12T12:08:31.998Z</time></trkpt><trkpt lat="44.6145967" lon="8.140835"><ele>363.3333333333333</ele><time>2026-04-12T12:08:32.998Z</time></trkpt><trkpt lat="44.6147767" lon="8.1406633"><ele>367.0</ele><time>2026-04-12T12:08:33.997Z</time></trkpt><trkpt lat="44.614945" lon="8.14049"><ele>367.0</ele><time>2026-04-12T12:08:34.997Z</time></trkpt><trkpt lat="44.615115" lon="8.14033"><ele>367.0</ele><time>2026-04-12T12:08:35.996Z</time></trkpt><trkpt lat="44.615275" lon="8.1401817"><ele>367.0</ele><time>2026-04-12T12:08:36.996Z</time></trkpt><trkpt lat="44.6154217" lon="8.1400483"><ele>372.0</ele><time>2026-04-12T12:08:37.994Z</time></trkpt><trkpt lat="44.6155483" lon="8.1399533"><ele>377.0</ele><time>2026-04-12T12:08:38.995Z</time></trkpt><trkpt lat="44.6156483" lon="8.13985"><ele>382.0</ele><time>2026-04-12T12:08:39.995Z</time></trkpt><trkpt lat="44.6157383" lon="8.1397417"><ele>387.0</ele><time>2026-04-12T12:08:40.995Z</time></trkpt><trkpt lat="44.61579" lon="8.1395867"><ele>387.0</ele><time>2026-04-12T12:08:41.997Z</time></trkpt><trkpt lat="44.6158317" lon="8.13941"><ele>387.0</ele><time>2026-04-12T12:08:42.996Z</time></trkpt><trkpt lat="44.615875" lon="8.139225"><ele>387.0</ele><time>2026-04-12T12:08:43.995Z</time></trkpt><trkpt lat="44.6159517" lon="8.1390617"><ele>387.0</ele><time>2026-04-12T12:08:44.994Z</time></trkpt><trkpt lat="44.616035" lon="8.138915"><ele>391.5</ele><time>2026-04-12T12:08:45.996Z</time></trkpt><trkpt lat="44.6161217" lon="8.1387933"><ele>396.0</ele><time>2026-04-12T12:08:46.996Z</time></trkpt><trkpt lat="44.616215" lon="8.1387033"><ele>400.5</ele><time>2026-04-12T12:08:47.993Z</time></trkpt><trkpt lat="44.6163167" lon="8.13865"><ele>405.0</ele><time>2026-04-12T12:08:48.996Z</time></trkpt><trkpt lat="44.6164317" lon="8.13862"><ele>405.0</ele><time>2026-04-12T12:08:49.995Z</time></trkpt><trkpt lat="44.616545" lon="8.13859"><ele>405.0</ele><time>2026-04-12T12:08:50.994Z</time></trkpt><trkpt lat="44.616635" lon="8.13853"><ele>405.0</ele><time>2026-04-12T12:08:51.997Z</time></trkpt><trkpt lat="44.6166983" lon="8.1384333"><ele>405.0</ele><time>2026-04-12T12:08:52.998Z</time></trkpt><trkpt lat="44.6167417" lon="8.1383167"><ele>405.0</ele><time>2026-04-12T12:08:53.997Z</time></trkpt><trkpt lat="44.6167367" lon="8.1381767"><ele>403.0</ele><time>2026-04-12T12:08:54.996Z</time></trkpt><trkpt lat="44.6166983" lon="8.1380433"><ele>401.0</ele><time>2026-04-12T12:08:55.995Z</time></trkpt><trkpt lat="44.6166983" lon="8.1379033"><ele>399.0</ele><time>2026-04-12T12:08:56.998Z</time></trkpt><trkpt lat="44.6167017" lon="8.13775"><ele>397.0</ele><time>2026-04-12T12:08:57.995Z</time></trkpt><trkpt lat="44.6167267" lon="8.13758"><ele>395.0</ele><time>2026-04-12T12:08:58.993Z</time></trkpt><trkpt lat="44.616775" lon="8.137395"><ele>387.3333333333333</ele><time>2026-04-12T12:08:59.997Z</time></trkpt><trkpt lat="44.6168483" lon="8.1371833"><ele>379.66666666666663</ele><time>2026-04-12T12:09:01.004Z</time></trkpt><trkpt lat="44.616935" lon="8.1369667"><ele>372.0</ele><time>2026-04-12T12:09:01.995Z</time></trkpt><trkpt lat="44.6170383" lon="8.136765"><ele>380.0</ele><time>2026-04-12T12:09:02.997Z</time></trkpt><trkpt lat="44.617155" lon="8.1365867"><ele>388.0</ele><time>2026-04-12T12:09:03.995Z</time></trkpt><trkpt lat="44.617275" lon="8.1364267"><ele>396.0</ele><time>2026-04-12T12:09:04.996Z</time></trkpt><trkpt lat="44.617395" lon="8.1362933"><ele>396.0</ele><time>2026-04-12T12:09:05.993Z</time></trkpt><trkpt lat="44.6175167" lon="8.1361833"><ele>396.0</ele><time>2026-04-12T12:09:06.996Z</time></trkpt><trkpt lat="44.6176367" lon="8.13609"><ele>396.0</ele><time>2026-04-12T12:09:07.995Z</time></trkpt><trkpt lat="44.617745" lon="8.1360167"><ele>396.0</ele><time>2026-04-12T12:09:08.999Z</time></trkpt><trkpt lat="44.6178483" lon="8.1358883"><ele>402.5</ele><time>2026-04-12T12:09:09.993Z</time></trkpt><trkpt lat="44.61794" lon="8.1357317"><ele>409.0</ele><time>2026-04-12T12:09:10.994Z</time></trkpt><trkpt lat="44.6180033" lon="8.135545"><ele>415.5</ele><time>2026-04-12T12:09:11.997Z</time></trkpt><trkpt lat="44.6180483" lon="8.13535"><ele>422.0</ele><time>2026-04-12T12:09:12.995Z</time></trkpt><trkpt lat="44.618075" lon="8.13515"><ele>422.0</ele><time>2026-04-12T12:09:13.997Z</time></trkpt><trkpt lat="44.61811" lon="8.1349667"><ele>422.0</ele><time>2026-04-12T12:09:15Z</time></trkpt><trkpt lat="44.61815" lon="8.134805"><ele>422.0</ele><time>2026-04-12T12:09:15.996Z</time></trkpt><trkpt lat="44.6182" lon="8.1346817"><ele>422.0</ele><time>2026-04-12T12:09:16.997Z</time></trkpt><trkpt lat="44.6182783" lon="8.1345967"><ele>421.75</ele><time>2026-04-12T12:09:17.995Z</time></trkpt><trkpt lat="44.6183733" lon="8.1345417"><ele>421.5</ele><time>2026-04-12T12:09:18.999Z</time></trkpt><trkpt lat="44.6184817" lon="8.134495"><ele>421.25</ele><time>2026-04-12T12:09:19.996Z</time></trkpt><trkpt lat="44.61862" lon="8.1344767"><ele>421.0</ele><time>2026-04-12T12:09:20.997Z</time></trkpt><trkpt lat="44.6187867" lon="8.1345067"><ele>421.0</ele><time>2026-04-12T12:09:22.002Z</time></trkpt><trkpt lat="44.618935" lon="8.134555"><ele>421.0</ele><time>2026-04-12T12:09:22.996Z</time></trkpt><trkpt lat="44.6191483" lon="8.1348033"><ele>421.0</ele><time>2026-04-12T12:09:23.997Z</time></trkpt><trkpt lat="44.619285" lon="8.1348967"><ele>423.8</ele><time>2026-04-12T12:09:24.997Z</time></trkpt><trkpt lat="44.61938" lon="8.1349667"><ele>426.6</ele><time>2026-04-12T12:09:26.006Z</time></trkpt><trkpt lat="44.6194733" lon="8.1349517"><ele>429.4</ele><time>2026-04-12T12:09:26.997Z</time></trkpt><trkpt lat="44.6195517" lon="8.1348833"><ele>432.2</ele><time>2026-04-12T12:09:27.996Z</time></trkpt><trkpt lat="44.6196233" lon="8.1347783"><ele>435.0</ele><time>2026-04-12T12:09:28.998Z</time></trkpt><trkpt lat="44.6197067" lon="8.13467"><ele>435.0</ele><time>2026-04-12T12:09:29.995Z</time></trkpt><trkpt lat="44.6198083" lon="8.13458"><ele>435.0</ele><time>2026-04-12T12:09:31Z</time></trkpt><trkpt lat="44.619925" lon="8.1344883"><ele>435.0</ele><time>2026-04-12T12:09:31.998Z</time></trkpt><trkpt lat="44.6200633" lon="8.1344167"><ele>435.0</ele><time>2026-04-12T12:09:32.994Z</time></trkpt><trkpt lat="44.6202133" lon="8.1343183"><ele>441.0</ele><time>2026-04-12T12:09:33.998Z</time></trkpt><trkpt lat="44.6203783" lon="8.13424"><ele>447.0</ele><time>2026-04-12T12:09:34.998Z</time></trkpt><trkpt lat="44.6205467" lon="8.1341567"><ele>453.0</ele><time>2026-04-12T12:09:35.994Z</time></trkpt><trkpt lat="44.6207133" lon="8.1340583"><ele>451.0</ele><time>2026-04-12T12:09:36.997Z</time></trkpt><trkpt lat="44.620865" lon="8.133945"><ele>449.0</ele><time>2026-04-12T12:09:37.999Z</time></trkpt><trkpt lat="44.6210117" lon="8.133825"><ele>447.0</ele><time>2026-04-12T12:09:39.001Z</time></trkpt><trkpt lat="44.621125" lon="8.1336717"><ele>449.5</ele><time>2026-04-12T12:09:39.996Z</time></trkpt><trkpt lat="44.62123" lon="8.1335183"><ele>452.0</ele><time>2026-04-12T12:09:40.998Z</time></trkpt><trkpt lat="44.6213317" lon="8.1333867"><ele>454.5</ele><time>2026-04-12T12:09:41.999Z</time></trkpt><trkpt lat="44.621425" lon="8.1332767"><ele>457.0</ele><time>2026-04-12T12:09:43Z</time></trkpt><trkpt lat="44.6215133" lon="8.1331933"><ele>459.20000000000005</ele><time>2026-04-12T12:09:43.999Z</time></trkpt><trkpt lat="44.6215983" lon="8.13315"><ele>461.40000000000003</ele><time>2026-04-12T12:09:44.999Z</time></trkpt><trkpt lat="44.6216917" lon="8.13314"><ele>463.59999999999997</ele><time>2026-04-12T12:09:45.996Z</time></trkpt><trkpt lat="44.6217833" lon="8.1331583"><ele>465.79999999999995</ele><time>2026-04-12T12:09:46.996Z</time></trkpt><trkpt lat="44.621875" lon="8.1331917"><ele>468.0</ele><time>2026-04-12T12:09:47.997Z</time></trkpt><trkpt lat="44.6219583" lon="8.1332117"><ele>470.8333333333333</ele><time>2026-04-12T12:09:48.996Z</time></trkpt><trkpt lat="44.62204" lon="8.1332117"><ele>473.66666666666663</ele><time>2026-04-12T12:09:50.001Z</time></trkpt><trkpt lat="44.62211" lon="8.1331683"><ele>476.5</ele><time>2026-04-12T12:09:50.996Z</time></trkpt><trkpt lat="44.622165" lon="8.1331"><ele>479.3333333333333</ele><time>2026-04-12T12:09:51.997Z</time></trkpt><trkpt lat="44.6221983" lon="8.1330117"><ele>482.16666666666663</ele><time>2026-04-12T12:09:52.993Z</time></trkpt><trkpt lat="44.6221633" lon="8.1328983"><ele>485.0</ele><time>2026-04-12T12:09:54.003Z</time></trkpt><trkpt lat="44.6221217" lon="8.132795"><ele>485.0</ele><time>2026-04-12T12:09:54.999Z</time></trkpt><trkpt lat="44.6220367" lon="8.1327217"><ele>485.0</ele><time>2026-04-12T12:09:55.993Z</time></trkpt><trkpt lat="44.6219383" lon="8.132655"><ele>485.0</ele><time>2026-04-12T12:09:57.001Z</time></trkpt><trkpt lat="44.6218333" lon="8.13258"><ele>485.0</ele><time>2026-04-12T12:09:58.01Z</time></trkpt><trkpt lat="44.621725" lon="8.132505"><ele>485.0</ele><time>2026-04-12T12:09:59Z</time></trkpt><trkpt lat="44.6216217" lon="8.1324283"><ele>482.2</ele><time>2026-04-12T12:10:00Z</time></trkpt><trkpt lat="44.62152" lon="8.1323583"><ele>479.4</ele><time>2026-04-12T12:10:00.994Z</time></trkpt><trkpt lat="44.6214283" lon="8.1322817"><ele>476.6</ele><time>2026-04-12T12:10:01.997Z</time></trkpt><trkpt lat="44.6213483" lon="8.1322017"><ele>473.8</ele><time>2026-04-12T12:10:02.997Z</time></trkpt><trkpt lat="44.6212883" lon="8.1321133"><ele>471.0</ele><time>2026-04-12T12:10:03.997Z</time></trkpt><trkpt lat="44.6212483" lon="8.1320317"><ele>471.0</ele><time>2026-04-12T12:10:04.996Z</time></trkpt><trkpt lat="44.6212317" lon="8.131945"><ele>471.0</ele><time>2026-04-12T12:10:05.996Z</time></trkpt><trkpt lat="44.62125" lon="8.131855"><ele>471.0</ele><time>2026-04-12T12:10:06.999Z</time></trkpt><trkpt lat="44.6213583" lon="8.1317817"><ele>471.0</ele><time>2026-04-12T12:10:07.993Z</time></trkpt><trkpt lat="44.6214417" lon="8.1317167"><ele>471.0</ele><time>2026-04-12T12:10:09Z</time></trkpt><trkpt lat="44.6215483" lon="8.1316417"><ele>468.75</ele><time>2026-04-12T12:10:10Z</time></trkpt><trkpt lat="44.6216767" lon="8.1315517"><ele>466.5</ele><time>2026-04-12T12:10:11Z</time></trkpt><trkpt lat="44.6217967" lon="8.13147"><ele>464.25</ele><time>2026-04-12T12:10:12Z</time></trkpt><trkpt lat="44.6219167" lon="8.13139"><ele>462.0</ele><time>2026-04-12T12:10:12.996Z</time></trkpt><trkpt lat="44.622035" lon="8.131305"><ele>467.40000000000003</ele><time>2026-04-12T12:10:14Z</time></trkpt><trkpt lat="44.6221267" lon="8.13122"><ele>472.80000000000007</ele><time>2026-04-12T12:10:14.998Z</time></trkpt><trkpt lat="44.622185" lon="8.1311017"><ele>478.2</ele><time>2026-04-12T12:10:15.994Z</time></trkpt><trkpt lat="44.6222117" lon="8.13096"><ele>483.6</ele><time>2026-04-12T12:10:16.996Z</time></trkpt><trkpt lat="44.6222033" lon="8.130815"><ele>489.0</ele><time>2026-04-12T12:10:17.997Z</time></trkpt><trkpt lat="44.62218" lon="8.1306617"><ele>489.0</ele><time>2026-04-12T12:10:18.994Z</time></trkpt><trkpt lat="44.6221533" lon="8.1305067"><ele>489.0</ele><time>2026-04-12T12:10:19.996Z</time></trkpt><trkpt lat="44.6221317" lon="8.1303517"><ele>489.0</ele><time>2026-04-12T12:10:20.999Z</time></trkpt><trkpt lat="44.62212" lon="8.1301833"><ele>489.0</ele><time>2026-04-12T12:10:21.994Z</time></trkpt><trkpt lat="44.6221417" lon="8.1300233"><ele>483.75</ele><time>2026-04-12T12:10:23.001Z</time></trkpt><trkpt lat="44.6221867" lon="8.1298717"><ele>478.5</ele><time>2026-04-12T12:10:23.996Z</time></trkpt><trkpt lat="44.622255" lon="8.1297433"><ele>473.25</ele><time>2026-04-12T12:10:24.997Z</time></trkpt><trkpt lat="44.62234" lon="8.129635"><ele>468.0</ele><time>2026-04-12T12:10:25.995Z</time></trkpt><trkpt lat="44.6224583" lon="8.1295533"><ele>468.0</ele><time>2026-04-12T12:10:26.996Z</time></trkpt><trkpt lat="44.6225883" lon="8.1294833"><ele>468.0</ele><time>2026-04-12T12:10:27.995Z</time></trkpt><trkpt lat="44.6227233" lon="8.1294233"><ele>468.0</ele><time>2026-04-12T12:10:28.997Z</time></trkpt><trkpt lat="44.622855" lon="8.1293683"><ele>468.0</ele><time>2026-04-12T12:10:29.994Z</time></trkpt><trkpt lat="44.6229833" lon="8.1293383"><ele>471.0</ele><time>2026-04-12T12:10:30.998Z</time></trkpt><trkpt lat="44.6231133" lon="8.1293467"><ele>474.0</ele><time>2026-04-12T12:10:31.998Z</time></trkpt><trkpt lat="44.62324" lon="8.1293917"><ele>477.0</ele><time>2026-04-12T12:10:32.998Z</time></trkpt><trkpt lat="44.6233717" lon="8.1294567"><ele>480.0</ele><time>2026-04-12T12:10:33.995Z</time></trkpt><trkpt lat="44.6235033" lon="8.129515"><ele>480.0</ele><time>2026-04-12T12:10:34.994Z</time></trkpt><trkpt lat="44.6236333" lon="8.1295583"><ele>480.0</ele><time>2026-04-12T12:10:35.996Z</time></trkpt><trkpt lat="44.6237767" lon="8.12958"><ele>480.0</ele><time>2026-04-12T12:10:36.999Z</time></trkpt><trkpt lat="44.6239217" lon="8.1295517"><ele>480.0</ele><time>2026-04-12T12:10:37.998Z</time></trkpt><trkpt lat="44.6240717" lon="8.1295067"><ele>482.33333333333337</ele><time>2026-04-12T12:10:38.998Z</time></trkpt><trkpt lat="44.624225" lon="8.1294517"><ele>484.6666666666667</ele><time>2026-04-12T12:10:39.994Z</time></trkpt><trkpt lat="44.62438" lon="8.1293983"><ele>487.0</ele><time>2026-04-12T12:10:40.995Z</time></trkpt><trkpt lat="44.6245283" lon="8.129345"><ele>492.6666666666667</ele><time>2026-04-12T12:10:41.996Z</time></trkpt><trkpt lat="44.6246983" lon="8.1292933"><ele>498.33333333333337</ele><time>2026-04-12T12:10:42.997Z</time></trkpt><trkpt lat="44.6248567" lon="8.12924"><ele>504.0</ele><time>2026-04-12T12:10:43.997Z</time></trkpt><trkpt lat="44.6250033" lon="8.12919"><ele>504.0</ele><time>2026-04-12T12:10:44.998Z</time></trkpt><trkpt lat="44.6251483" lon="8.1291383"><ele>504.0</ele><time>2026-04-12T12:10:45.998Z</time></trkpt><trkpt lat="44.62529" lon="8.1290883"><ele>504.0</ele><time>2026-04-12T12:10:46.995Z</time></trkpt><trkpt lat="44.6254283" lon="8.1290367"><ele>504.0</ele><time>2026-04-12T12:10:47.996Z</time></trkpt><trkpt lat="44.6255583" lon="8.12899"><ele>501.79999999999995</ele><time>2026-04-12T12:10:49Z</time></trkpt><trkpt lat="44.6256783" lon="8.128945"><ele>499.59999999999997</ele><time>2026-04-12T12:10:49.996Z</time></trkpt><trkpt lat="44.62578" lon="8.1289067"><ele>497.4</ele><time>2026-04-12T12:10:50.993Z</time></trkpt><trkpt lat="44.6258733" lon="8.1288883"><ele>495.2</ele><time>2026-04-12T12:10:51.999Z</time></trkpt><trkpt lat="44.6259633" lon="8.12889"><ele>493.0</ele><time>2026-04-12T12:10:52.996Z</time></trkpt><trkpt lat="44.6260333" lon="8.1289133"><ele>493.0</ele><time>2026-04-12T12:10:53.995Z</time></trkpt><trkpt lat="44.6260367" lon="8.12901"><ele>492.99999999999994</ele><time>2026-04-12T12:10:54.999Z</time></trkpt><trkpt lat="44.6260283" lon="8.1291633"><ele>492.99999999999994</ele><time>2026-04-12T12:10:56.997Z</time></trkpt><trkpt lat="44.62598" lon="8.1292433"><ele>493.0</ele><time>2026-04-12T12:10:57.997Z</time></trkpt><trkpt lat="44.6259383" lon="8.1293183"><ele>493.0</ele><time>2026-04-12T12:10:58.996Z</time></trkpt><trkpt lat="44.625685" lon="8.129405"><ele>496.6666666666667</ele><time>2026-04-12T12:10:59.997Z</time></trkpt><trkpt lat="44.6255017" lon="8.1295117"><ele>500.33333333333337</ele><time>2026-04-12T12:11:00.995Z</time></trkpt><trkpt lat="44.6253217" lon="8.1296333"><ele>504.0</ele><time>2026-04-12T12:11:01.997Z</time></trkpt><trkpt lat="44.6251183" lon="8.129765"><ele>504.0</ele><time>2026-04-12T12:11:02.995Z</time></trkpt><trkpt lat="44.624895" lon="8.1298867"><ele>504.0</ele><time>2026-04-12T12:11:03.997Z</time></trkpt><trkpt lat="44.62467" lon="8.129995"><ele>507.33333333333337</ele><time>2026-04-12T12:11:04.994Z</time></trkpt><trkpt lat="44.6244517" lon="8.1301083"><ele>510.6666666666667</ele><time>2026-04-12T12:11:05.998Z</time></trkpt><trkpt lat="44.6242583" lon="8.13022"><ele>514.0</ele><time>2026-04-12T12:11:06.995Z</time></trkpt><trkpt lat="44.6240967" lon="8.1302983"><ele>514.0</ele><time>2026-04-12T12:11:07.999Z</time></trkpt><trkpt lat="44.62397" lon="8.13036"><ele>514.0</ele><time>2026-04-12T12:11:08.995Z</time></trkpt><trkpt lat="44.62388" lon="8.1304217"><ele>514.0</ele><time>2026-04-12T12:11:09.998Z</time></trkpt><trkpt lat="44.6238133" lon="8.13048"><ele>514.0</ele><time>2026-04-12T12:11:10.994Z</time></trkpt><trkpt lat="44.6238067" lon="8.1306233"><ele>514.0</ele><time>2026-04-12T12:11:12.997Z</time></trkpt><trkpt lat="44.623945" lon="8.13068"><ele>514.0</ele><time>2026-04-12T12:11:14.998Z</time></trkpt><trkpt lat="44.624035" lon="8.130685"><ele>514.0</ele><time>2026-04-12T12:11:15.993Z</time></trkpt><trkpt lat="44.62414" lon="8.1306883"><ele>514.0</ele><time>2026-04-12T12:11:16.994Z</time></trkpt><trkpt lat="44.6243167" lon="8.1306533"><ele>514.0</ele><time>2026-04-12T12:11:17.994Z</time></trkpt><trkpt lat="44.6244867" lon="8.130625"><ele>518.6666666666667</ele><time>2026-04-12T12:11:18.998Z</time></trkpt><trkpt lat="44.6246617" lon="8.1305683"><ele>523.3333333333334</ele><time>2026-04-12T12:11:19.995Z</time></trkpt><trkpt lat="44.62485" lon="8.1304817"><ele>528.0</ele><time>2026-04-12T12:11:20.995Z</time></trkpt><trkpt lat="44.6250333" lon="8.1303683"><ele>528.0</ele><time>2026-04-12T12:11:21.994Z</time></trkpt><trkpt lat="44.6252067" lon="8.130235"><ele>528.0</ele><time>2026-04-12T12:11:22.993Z</time></trkpt><trkpt lat="44.6253733" lon="8.1301067"><ele>528.0</ele><time>2026-04-12T12:11:23.995Z</time></trkpt><trkpt lat="44.6255233" lon="8.1299867"><ele>531.0</ele><time>2026-04-12T12:11:24.996Z</time></trkpt><trkpt lat="44.6256617" lon="8.1298933"><ele>534.0</ele><time>2026-04-12T12:11:25.992Z</time></trkpt><trkpt lat="44.62579" lon="8.129835"><ele>537.0</ele><time>2026-04-12T12:11:26.997Z</time></trkpt><trkpt lat="44.6259133" lon="8.1298117"><ele>540.0</ele><time>2026-04-12T12:11:27.996Z</time></trkpt><trkpt lat="44.6260367" lon="8.1298267"><ele>536.25</ele><time>2026-04-12T12:11:28.993Z</time></trkpt><trkpt lat="44.6261717" lon="8.1298617"><ele>532.5</ele><time>2026-04-12T12:11:29.996Z</time></trkpt><trkpt lat="44.62632" lon="8.1298867"><ele>528.75</ele><time>2026-04-12T12:11:30.994Z</time></trkpt><trkpt lat="44.62648" lon="8.1298783"><ele>525.0</ele><time>2026-04-12T12:11:31.997Z</time></trkpt><trkpt lat="44.6266483" lon="8.12985"><ele>525.0</ele><time>2026-04-12T12:11:32.997Z</time></trkpt><trkpt lat="44.626825" lon="8.1298083"><ele>525.0</ele><time>2026-04-12T12:11:33.998Z</time></trkpt><trkpt lat="44.6270033" lon="8.129765"><ele>525.0</ele><time>2026-04-12T12:11:34.996Z</time></trkpt><trkpt lat="44.6271883" lon="8.129725"><ele>528.3333333333334</ele><time>2026-04-12T12:11:35.995Z</time></trkpt><trkpt lat="44.6273817" lon="8.1296983"><ele>531.6666666666667</ele><time>2026-04-12T12:11:36.996Z</time></trkpt><trkpt lat="44.627575" lon="8.1296833"><ele>535.0</ele><time>2026-04-12T12:11:37.995Z</time></trkpt><trkpt lat="44.6277733" lon="8.1296683"><ele>538.0</ele><time>2026-04-12T12:11:38.996Z</time></trkpt><trkpt lat="44.6279567" lon="8.1296567"><ele>541.0</ele><time>2026-04-12T12:11:39.996Z</time></trkpt><trkpt lat="44.62813" lon="8.129645"><ele>544.0</ele><time>2026-04-12T12:11:40.997Z</time></trkpt><trkpt lat="44.6282967" lon="8.129615"><ele>544.0</ele><time>2026-04-12T12:11:41.994Z</time></trkpt><trkpt lat="44.6284517" lon="8.1295683"><ele>544.0</ele><time>2026-04-12T12:11:42.997Z</time></trkpt><trkpt lat="44.6285967" lon="8.1295"><ele>544.0</ele><time>2026-04-12T12:11:43.995Z</time></trkpt><trkpt lat="44.6287417" lon="8.1294"><ele>546.6666666666667</ele><time>2026-04-12T12:11:45.001Z</time></trkpt><trkpt lat="44.6288817" lon="8.1292783"><ele>549.3333333333334</ele><time>2026-04-12T12:11:45.995Z</time></trkpt><trkpt lat="44.6290133" lon="8.1291333"><ele>552.0</ele><time>2026-04-12T12:11:46.995Z</time></trkpt><trkpt lat="44.629135" lon="8.1289633"><ele>552.0</ele><time>2026-04-12T12:11:48Z</time></trkpt><trkpt lat="44.62924" lon="8.1287733"><ele>552.0</ele><time>2026-04-12T12:11:48.997Z</time></trkpt><trkpt lat="44.6293383" lon="8.128575"><ele>552.0</ele><time>2026-04-12T12:11:49.995Z</time></trkpt><trkpt lat="44.6294367" lon="8.1283767"><ele>556.0</ele><time>2026-04-12T12:11:50.995Z</time></trkpt><trkpt lat="44.6295367" lon="8.128185"><ele>560.0</ele><time>2026-04-12T12:11:51.997Z</time></trkpt><trkpt lat="44.6296483" lon="8.1280133"><ele>564.0</ele><time>2026-04-12T12:11:53.001Z</time></trkpt><trkpt lat="44.629785" lon="8.1278717"><ele>564.0</ele><time>2026-04-12T12:11:53.998Z</time></trkpt><trkpt lat="44.62992" lon="8.127735"><ele>564.0</ele><time>2026-04-12T12:11:54.999Z</time></trkpt><trkpt lat="44.6300567" lon="8.1276033"><ele>564.0</ele><time>2026-04-12T12:11:55.996Z</time></trkpt><trkpt lat="44.6301917" lon="8.1274767"><ele>570.0</ele><time>2026-04-12T12:11:56.997Z</time></trkpt><trkpt lat="44.6303183" lon="8.1273583"><ele>576.0</ele><time>2026-04-12T12:11:57.997Z</time></trkpt><trkpt lat="44.6304233" lon="8.127235"><ele>582.0</ele><time>2026-04-12T12:11:58.995Z</time></trkpt><trkpt lat="44.6305" lon="8.12709"><ele>588.0</ele><time>2026-04-12T12:11:59.997Z</time></trkpt><trkpt lat="44.63055" lon="8.1269217"><ele>588.0</ele><time>2026-04-12T12:12:01Z</time></trkpt><trkpt lat="44.6305717" lon="8.1267433"><ele>588.0</ele><time>2026-04-12T12:12:01.997Z</time></trkpt><trkpt lat="44.6305633" lon="8.1265567"><ele>588.0</ele><time>2026-04-12T12:12:02.996Z</time></trkpt><trkpt lat="44.6305417" lon="8.1263633"><ele>588.0</ele><time>2026-04-12T12:12:03.997Z</time></trkpt><trkpt lat="44.6304983" lon="8.126175"><ele>591.5</ele><time>2026-04-12T12:12:04.996Z</time></trkpt><trkpt lat="44.63047" lon="8.125985"><ele>595.0</ele><time>2026-04-12T12:12:05.997Z</time></trkpt><trkpt lat="44.6304117" lon="8.12582"><ele>598.5</ele><time>2026-04-12T12:12:06.998Z</time></trkpt><trkpt lat="44.6303517" lon="8.1256667"><ele>602.0</ele><time>2026-04-12T12:12:07.998Z</time></trkpt><trkpt lat="44.63026" lon="8.1255583"><ele>602.0</ele><time>2026-04-12T12:12:08.999Z</time></trkpt><trkpt lat="44.6301533" lon="8.1254917"><ele>602.0</ele><time>2026-04-12T12:12:09.994Z</time></trkpt><trkpt lat="44.6300333" lon="8.1254567"><ele>602.0</ele><time>2026-04-12T12:12:10.995Z</time></trkpt><trkpt lat="44.629905" lon="8.1254367"><ele>602.0</ele><time>2026-04-12T12:12:12Z</time></trkpt><trkpt lat="44.6297717" lon="8.1254217"><ele>602.0</ele><time>2026-04-12T12:12:13Z</time></trkpt><trkpt lat="44.6296433" lon="8.1253967"><ele>602.0</ele><time>2026-04-12T12:12:13.995Z</time></trkpt><trkpt lat="44.6295183" lon="8.12538"><ele>602.0</ele><time>2026-04-12T12:12:14.994Z</time></trkpt><trkpt lat="44.6294067" lon="8.12536"><ele>602.0</ele><time>2026-04-12T12:12:15.997Z</time></trkpt><trkpt lat="44.629305" lon="8.1253167"><ele>602.4</ele><time>2026-04-12T12:12:16.996Z</time></trkpt><trkpt lat="44.6292133" lon="8.1252283"><ele>602.8000000000001</ele><time>2026-04-12T12:12:17.996Z</time></trkpt><trkpt lat="44.6291533" lon="8.125115"><ele>603.2</ele><time>2026-04-12T12:12:18.998Z</time></trkpt><trkpt lat="44.629105" lon="8.1249833"><ele>603.6</ele><time>2026-04-12T12:12:19.994Z</time></trkpt><trkpt lat="44.6290633" lon="8.1248367"><ele>604.0</ele><time>2026-04-12T12:12:21.002Z</time></trkpt><trkpt lat="44.629015" lon="8.1246967"><ele>604.0</ele><time>2026-04-12T12:12:21.996Z</time></trkpt><trkpt lat="44.6289633" lon="8.1245617"><ele>604.0</ele><time>2026-04-12T12:12:22.995Z</time></trkpt><trkpt lat="44.6289083" lon="8.1244333"><ele>604.0</ele><time>2026-04-12T12:12:23.995Z</time></trkpt><trkpt lat="44.62885" lon="8.1243017"><ele>604.0</ele><time>2026-04-12T12:12:24.993Z</time></trkpt><trkpt lat="44.6287917" lon="8.1241717"><ele>604.0</ele><time>2026-04-12T12:12:25.996Z</time></trkpt><trkpt lat="44.62874" lon="8.1240383"><ele>603.6</ele><time>2026-04-12T12:12:27Z</time></trkpt><trkpt lat="44.6287033" lon="8.1239"><ele>603.2</ele><time>2026-04-12T12:12:27.994Z</time></trkpt><trkpt lat="44.6286917" lon="8.123765"><ele>602.8000000000001</ele><time>2026-04-12T12:12:28.997Z</time></trkpt><trkpt lat="44.628705" lon="8.1236317"><ele>602.4</ele><time>2026-04-12T12:12:30.001Z</time></trkpt><trkpt lat="44.6287467" lon="8.1235183"><ele>602.0</ele><time>2026-04-12T12:12:30.995Z</time></trkpt><trkpt lat="44.6288133" lon="8.12342"><ele>602.0</ele><time>2026-04-12T12:12:31.997Z</time></trkpt><trkpt lat="44.628905" lon="8.1233333"><ele>602.0</ele><time>2026-04-12T12:12:33.001Z</time></trkpt><trkpt lat="44.6290033" lon="8.1232517"><ele>602.0</ele><time>2026-04-12T12:12:33.996Z</time></trkpt><trkpt lat="44.629105" lon="8.123165"><ele>602.0</ele><time>2026-04-12T12:12:34.994Z</time></trkpt><trkpt lat="44.6292" lon="8.1230717"><ele>599.5</ele><time>2026-04-12T12:12:35.997Z</time></trkpt><trkpt lat="44.629295" lon="8.12297"><ele>597.0</ele><time>2026-04-12T12:12:36.995Z</time></trkpt><trkpt lat="44.6293783" lon="8.122845"><ele>594.5</ele><time>2026-04-12T12:12:37.996Z</time></trkpt><trkpt lat="44.6294467" lon="8.1227217"><ele>592.0</ele><time>2026-04-12T12:12:38.998Z</time></trkpt><trkpt lat="44.6295067" lon="8.1225867"><ele>593.4</ele><time>2026-04-12T12:12:39.995Z</time></trkpt><trkpt lat="44.62956" lon="8.1224467"><ele>594.8000000000001</ele><time>2026-04-12T12:12:40.998Z</time></trkpt><trkpt lat="44.6296083" lon="8.1223017"><ele>596.2</ele><time>2026-04-12T12:12:41.999Z</time></trkpt><trkpt lat="44.6296633" lon="8.1221683"><ele>597.6</ele><time>2026-04-12T12:12:43Z</time></trkpt><trkpt lat="44.6297283" lon="8.12205"><ele>599.0</ele><time>2026-04-12T12:12:43.999Z</time></trkpt><trkpt lat="44.62981" lon="8.1219583"><ele>599.0</ele><time>2026-04-12T12:12:44.993Z</time></trkpt><trkpt lat="44.6299133" lon="8.1219"><ele>599.0</ele><time>2026-04-12T12:12:45.993Z</time></trkpt><trkpt lat="44.6300317" lon="8.121865"><ele>599.0</ele><time>2026-04-12T12:12:46.995Z</time></trkpt><trkpt lat="44.6301567" lon="8.121835"><ele>599.0</ele><time>2026-04-12T12:12:47.994Z</time></trkpt><trkpt lat="44.6302817" lon="8.1218067"><ele>600.75</ele><time>2026-04-12T12:12:49Z</time></trkpt><trkpt lat="44.6304183" lon="8.12178"><ele>602.5</ele><time>2026-04-12T12:12:49.995Z</time></trkpt><trkpt lat="44.6305483" lon="8.12175"><ele>604.25</ele><time>2026-04-12T12:12:50.994Z</time></trkpt><trkpt lat="44.6306783" lon="8.1217233"><ele>606.0</ele><time>2026-04-12T12:12:51.998Z</time></trkpt><trkpt lat="44.6308067" lon="8.1217017"><ele>606.0</ele><time>2026-04-12T12:12:52.995Z</time></trkpt><trkpt lat="44.6309383" lon="8.12168"><ele>606.0</ele><time>2026-04-12T12:12:53.995Z</time></trkpt><trkpt lat="44.6310667" lon="8.12165"><ele>606.0</ele><time>2026-04-12T12:12:54.999Z</time></trkpt><trkpt lat="44.6312" lon="8.1216217"><ele>606.0</ele><time>2026-04-12T12:12:55.997Z</time></trkpt><trkpt lat="44.631335" lon="8.1215917"><ele>604.5</ele><time>2026-04-12T12:12:56.997Z</time></trkpt><trkpt lat="44.6314683" lon="8.1215567"><ele>603.0</ele><time>2026-04-12T12:12:57.997Z</time></trkpt><trkpt lat="44.6315983" lon="8.1215167"><ele>601.5</ele><time>2026-04-12T12:12:58.995Z</time></trkpt><trkpt lat="44.6317267" lon="8.1214633"><ele>600.0</ele><time>2026-04-12T12:12:59.997Z</time></trkpt><trkpt lat="44.6318517" lon="8.121395"><ele>600.0</ele><time>2026-04-12T12:13:00.995Z</time></trkpt><trkpt lat="44.63197" lon="8.1213133"><ele>600.0</ele><time>2026-04-12T12:13:01.995Z</time></trkpt><trkpt lat="44.6320833" lon="8.1212233"><ele>600.0</ele><time>2026-04-12T12:13:02.998Z</time></trkpt><trkpt lat="44.63219" lon="8.1211283"><ele>600.0</ele><time>2026-04-12T12:13:03.998Z</time></trkpt><trkpt lat="44.6322967" lon="8.1210267"><ele>603.75</ele><time>2026-04-12T12:13:04.996Z</time></trkpt><trkpt lat="44.6323967" lon="8.120915"><ele>607.5</ele><time>2026-04-12T12:13:05.998Z</time></trkpt><trkpt lat="44.63249" lon="8.120785"><ele>611.25</ele><time>2026-04-12T12:13:06.998Z</time></trkpt><trkpt lat="44.6325717" lon="8.1206367"><ele>615.0</ele><time>2026-04-12T12:13:07.998Z</time></trkpt><trkpt lat="44.6326317" lon="8.1204667"><ele>615.0</ele><time>2026-04-12T12:13:09.002Z</time></trkpt><trkpt lat="44.6326767" lon="8.1202817"><ele>615.0</ele><time>2026-04-12T12:13:09.995Z</time></trkpt><trkpt lat="44.6326983" lon="8.12008"><ele>615.0</ele><time>2026-04-12T12:13:10.992Z</time></trkpt><trkpt lat="44.632705" lon="8.1198733"><ele>615.0</ele><time>2026-04-12T12:13:11.996Z</time></trkpt><trkpt lat="44.6326983" lon="8.1196633"><ele>617.0</ele><time>2026-04-12T12:13:12.995Z</time></trkpt><trkpt lat="44.63268" lon="8.1194533"><ele>619.0</ele><time>2026-04-12T12:13:13.999Z</time></trkpt><trkpt lat="44.6326517" lon="8.119245"><ele>621.0</ele><time>2026-04-12T12:13:15.001Z</time></trkpt><trkpt lat="44.6326033" lon="8.1190433"><ele>624.0</ele><time>2026-04-12T12:13:15.996Z</time></trkpt><trkpt lat="44.632545" lon="8.11885"><ele>627.0</ele><time>2026-04-12T12:13:16.997Z</time></trkpt><trkpt lat="44.6324817" lon="8.118655"><ele>630.0</ele><time>2026-04-12T12:13:17.999Z</time></trkpt><trkpt lat="44.6324017" lon="8.1184783"><ele>630.0</ele><time>2026-04-12T12:13:18.994Z</time></trkpt><trkpt lat="44.6323067" lon="8.1183267"><ele>630.0</ele><time>2026-04-12T12:13:19.995Z</time></trkpt><trkpt lat="44.6322067" lon="8.11818"><ele>630.0</ele><time>2026-04-12T12:13:20.994Z</time></trkpt><trkpt lat="44.6320883" lon="8.1180683"><ele>630.0</ele><time>2026-04-12T12:13:21.999Z</time></trkpt><trkpt lat="44.6319583" lon="8.1179817"><ele>632.0</ele><time>2026-04-12T12:13:22.995Z</time></trkpt><trkpt lat="44.63182" lon="8.1179217"><ele>634.0</ele><time>2026-04-12T12:13:23.998Z</time></trkpt><trkpt lat="44.6316817" lon="8.11787"><ele>636.0</ele><time>2026-04-12T12:13:24.998Z</time></trkpt><trkpt lat="44.63155" lon="8.1178133"><ele>638.0</ele><time>2026-04-12T12:13:25.998Z</time></trkpt><trkpt lat="44.6314233" lon="8.117755"><ele>638.0</ele><time>2026-04-12T12:13:26.998Z</time></trkpt><trkpt lat="44.631295" lon="8.1176983"><ele>638.0</ele><time>2026-04-12T12:13:27.997Z</time></trkpt><trkpt lat="44.6311633" lon="8.11764"><ele>638.0</ele><time>2026-04-12T12:13:28.995Z</time></trkpt><trkpt lat="44.6310267" lon="8.11758"><ele>638.0</ele><time>2026-04-12T12:13:29.996Z</time></trkpt><trkpt lat="44.6308933" lon="8.1175183"><ele>636.6</ele><time>2026-04-12T12:13:30.999Z</time></trkpt><trkpt lat="44.6307667" lon="8.1174583"><ele>635.1999999999999</ele><time>2026-04-12T12:13:31.999Z</time></trkpt><trkpt lat="44.630655" lon="8.1174"><ele>633.8</ele><time>2026-04-12T12:13:32.997Z</time></trkpt><trkpt lat="44.63057" lon="8.1173267"><ele>632.4</ele><time>2026-04-12T12:13:33.994Z</time></trkpt><trkpt lat="44.63053" lon="8.1172333"><ele>631.0</ele><time>2026-04-12T12:13:34.995Z</time></trkpt><trkpt lat="44.630495" lon="8.1171417"><ele>631.0</ele><time>2026-04-12T12:13:35.996Z</time></trkpt><trkpt lat="44.6305333" lon="8.1170017"><ele>631.0</ele><time>2026-04-12T12:13:36.996Z</time></trkpt><trkpt lat="44.6305633" lon="8.1168633"><ele>631.0</ele><time>2026-04-12T12:13:37.995Z</time></trkpt><trkpt lat="44.6306067" lon="8.1166933"><ele>631.0</ele><time>2026-04-12T12:13:38.995Z</time></trkpt><trkpt lat="44.6306267" lon="8.1165067"><ele>631.0</ele><time>2026-04-12T12:13:39.999Z</time></trkpt><trkpt lat="44.6306167" lon="8.1163283"><ele>631.0</ele><time>2026-04-12T12:13:40.993Z</time></trkpt><trkpt lat="44.630595" lon="8.1161383"><ele>631.0</ele><time>2026-04-12T12:13:41.993Z</time></trkpt><trkpt lat="44.6305833" lon="8.1159467"><ele>631.0</ele><time>2026-04-12T12:13:42.994Z</time></trkpt><trkpt lat="44.63059" lon="8.1157683"><ele>627.0</ele><time>2026-04-12T12:13:43.994Z</time></trkpt><trkpt lat="44.630625" lon="8.1156017"><ele>623.0</ele><time>2026-04-12T12:13:45.004Z</time></trkpt><trkpt lat="44.6306867" lon="8.1154433"><ele>619.0</ele><time>2026-04-12T12:13:45.996Z</time></trkpt><trkpt lat="44.630775" lon="8.1152967"><ele>615.0</ele><time>2026-04-12T12:13:46.995Z</time></trkpt><trkpt lat="44.6308633" lon="8.1151617"><ele>615.0</ele><time>2026-04-12T12:13:47.997Z</time></trkpt><trkpt lat="44.6309617" lon="8.1150267"><ele>615.0</ele><time>2026-04-12T12:13:48.996Z</time></trkpt><trkpt lat="44.6310633" lon="8.1148883"><ele>615.0</ele><time>2026-04-12T12:13:49.998Z</time></trkpt><trkpt lat="44.6311717" lon="8.1147633"><ele>615.0</ele><time>2026-04-12T12:13:50.997Z</time></trkpt><trkpt lat="44.6312867" lon="8.1146633"><ele>613.5</ele><time>2026-04-12T12:13:51.999Z</time></trkpt><trkpt lat="44.6314033" lon="8.1145783"><ele>612.0</ele><time>2026-04-12T12:13:52.999Z</time></trkpt><trkpt lat="44.6315217" lon="8.1145033"><ele>610.5</ele><time>2026-04-12T12:13:54.001Z</time></trkpt><trkpt lat="44.6316417" lon="8.1144317"><ele>609.0</ele><time>2026-04-12T12:13:55Z</time></trkpt><trkpt lat="44.6317583" lon="8.1143717"><ele>609.0</ele><time>2026-04-12T12:13:55.999Z</time></trkpt><trkpt lat="44.6318833" lon="8.1143267"><ele>609.0</ele><time>2026-04-12T12:13:56.995Z</time></trkpt><trkpt lat="44.6320133" lon="8.1142983"><ele>609.0</ele><time>2026-04-12T12:13:58Z</time></trkpt><trkpt lat="44.63215" lon="8.1142783"><ele>609.0</ele><time>2026-04-12T12:13:58.994Z</time></trkpt><trkpt lat="44.63229" lon="8.114255"><ele>610.25</ele><time>2026-04-12T12:14:00.007Z</time></trkpt><trkpt lat="44.6324317" lon="8.1142183"><ele>611.5</ele><time>2026-04-12T12:14:00.997Z</time></trkpt><trkpt lat="44.6325683" lon="8.1141667"><ele>612.75</ele><time>2026-04-12T12:14:01.994Z</time></trkpt><trkpt lat="44.6326933" lon="8.11408"><ele>614.0</ele><time>2026-04-12T12:14:02.999Z</time></trkpt><trkpt lat="44.6328033" lon="8.1139567"><ele>614.5</ele><time>2026-04-12T12:14:03.994Z</time></trkpt><trkpt lat="44.6328983" lon="8.1138033"><ele>615.0</ele><time>2026-04-12T12:14:04.995Z</time></trkpt><trkpt lat="44.6329683" lon="8.1136333"><ele>615.5</ele><time>2026-04-12T12:14:05.999Z</time></trkpt><trkpt lat="44.6330183" lon="8.11344"><ele>616.0</ele><time>2026-04-12T12:14:07.001Z</time></trkpt><trkpt lat="44.6330483" lon="8.11324"><ele>614.0</ele><time>2026-04-12T12:14:07.996Z</time></trkpt><trkpt lat="44.6330683" lon="8.1130367"><ele>612.0</ele><time>2026-04-12T12:14:08.996Z</time></trkpt><trkpt lat="44.6330833" lon="8.1128333"><ele>610.0</ele><time>2026-04-12T12:14:09.995Z</time></trkpt><trkpt lat="44.6330917" lon="8.1126383"><ele>608.0</ele><time>2026-04-12T12:14:10.996Z</time></trkpt><trkpt lat="44.633105" lon="8.1124417"><ele>606.5</ele><time>2026-04-12T12:14:11.996Z</time></trkpt><trkpt lat="44.63312" lon="8.1122517"><ele>605.0</ele><time>2026-04-12T12:14:12.996Z</time></trkpt><trkpt lat="44.633135" lon="8.1120633"><ele>603.5</ele><time>2026-04-12T12:14:13.998Z</time></trkpt><trkpt lat="44.63315" lon="8.1118867"><ele>602.0</ele><time>2026-04-12T12:14:15Z</time></trkpt><trkpt lat="44.6331667" lon="8.1117067"><ele>601.2</ele><time>2026-04-12T12:14:15.996Z</time></trkpt><trkpt lat="44.6331883" lon="8.1115433"><ele>600.4000000000001</ele><time>2026-04-12T12:14:16.996Z</time></trkpt><trkpt lat="44.633215" lon="8.1114017"><ele>599.5999999999999</ele><time>2026-04-12T12:14:17.997Z</time></trkpt><trkpt lat="44.6332567" lon="8.1112883"><ele>598.8</ele><time>2026-04-12T12:14:18.997Z</time></trkpt><trkpt lat="44.6333167" lon="8.1111983"><ele>598.0</ele><time>2026-04-12T12:14:19.996Z</time></trkpt><trkpt lat="44.6333817" lon="8.1111317"><ele>598.0</ele><time>2026-04-12T12:14:20.996Z</time></trkpt><trkpt lat="44.6334467" lon="8.11109"><ele>598.0</ele><time>2026-04-12T12:14:21.997Z</time></trkpt><trkpt lat="44.6335083" lon="8.111145"><ele>598.0</ele><time>2026-04-12T12:14:22.996Z</time></trkpt><trkpt lat="44.6335733" lon="8.1111933"><ele>598.0</ele><time>2026-04-12T12:14:23.996Z</time></trkpt><trkpt lat="44.6336367" lon="8.1112667"><ele>598.0</ele><time>2026-04-12T12:14:24.996Z</time></trkpt><trkpt lat="44.6337033" lon="8.111385"><ele>598.0</ele><time>2026-04-12T12:14:25.994Z</time></trkpt><trkpt lat="44.6337817" lon="8.11156"><ele>599.0</ele><time>2026-04-12T12:14:26.997Z</time></trkpt><trkpt lat="44.6338633" lon="8.1117033"><ele>600.0</ele><time>2026-04-12T12:14:27.995Z</time></trkpt><trkpt lat="44.63395" lon="8.1118483"><ele>601.0</ele><time>2026-04-12T12:14:28.992Z</time></trkpt><trkpt lat="44.6340483" lon="8.1119867"><ele>602.0</ele><time>2026-04-12T12:14:29.998Z</time></trkpt><trkpt lat="44.6341633" lon="8.11211"><ele>602.0</ele><time>2026-04-12T12:14:30.996Z</time></trkpt><trkpt lat="44.6342883" lon="8.112215"><ele>602.0</ele><time>2026-04-12T12:14:31.997Z</time></trkpt><trkpt lat="44.6344217" lon="8.112315"><ele>602.0</ele><time>2026-04-12T12:14:32.997Z</time></trkpt><trkpt lat="44.6345617" lon="8.1124033"><ele>603.6666666666666</ele><time>2026-04-12T12:14:33.998Z</time></trkpt><trkpt lat="44.6347083" lon="8.1124783"><ele>605.3333333333334</ele><time>2026-04-12T12:14:34.997Z</time></trkpt><trkpt lat="44.63486" lon="8.1125283"><ele>607.0</ele><time>2026-04-12T12:14:35.999Z</time></trkpt><trkpt lat="44.6350133" lon="8.1125483"><ele>607.0</ele><time>2026-04-12T12:14:37Z</time></trkpt><trkpt lat="44.635165" lon="8.112545"><ele>607.0</ele><time>2026-04-12T12:14:37.999Z</time></trkpt><trkpt lat="44.63531" lon="8.1125467"><ele>607.0</ele><time>2026-04-12T12:14:38.995Z</time></trkpt><trkpt lat="44.6354483" lon="8.11257"><ele>607.0</ele><time>2026-04-12T12:14:39.995Z</time></trkpt><trkpt lat="44.6355817" lon="8.1126283"><ele>606.25</ele><time>2026-04-12T12:14:40.995Z</time></trkpt><trkpt lat="44.63571" lon="8.11271"><ele>605.5</ele><time>2026-04-12T12:14:42.001Z</time></trkpt><trkpt lat="44.63584" lon="8.1128083"><ele>604.75</ele><time>2026-04-12T12:14:42.994Z</time></trkpt><trkpt lat="44.6359783" lon="8.1129133"><ele>604.0</ele><time>2026-04-12T12:14:43.994Z</time></trkpt><trkpt lat="44.6361167" lon="8.1130217"><ele>604.0</ele><time>2026-04-12T12:14:45Z</time></trkpt><trkpt lat="44.636245" lon="8.1131317"><ele>604.0</ele><time>2026-04-12T12:14:45.995Z</time></trkpt><trkpt lat="44.63637" lon="8.113205"><ele>604.0</ele><time>2026-04-12T12:14:46.997Z</time></trkpt><trkpt lat="44.6364967" lon="8.11323"><ele>604.0</ele><time>2026-04-12T12:14:47.995Z</time></trkpt><trkpt lat="44.6366217" lon="8.11321"><ele>604.0</ele><time>2026-04-12T12:14:48.994Z</time></trkpt><trkpt lat="44.6367533" lon="8.11317"><ele>604.0</ele><time>2026-04-12T12:14:49.999Z</time></trkpt><trkpt lat="44.6368917" lon="8.1131283"><ele>604.0</ele><time>2026-04-12T12:14:50.998Z</time></trkpt><trkpt lat="44.63704" lon="8.1130967"><ele>604.0</ele><time>2026-04-12T12:14:52Z</time></trkpt><trkpt lat="44.637185" lon="8.11307"><ele>606.25</ele><time>2026-04-12T12:14:53.002Z</time></trkpt><trkpt lat="44.63733" lon="8.1130317"><ele>608.5</ele><time>2026-04-12T12:14:53.998Z</time></trkpt><trkpt lat="44.63746" lon="8.1129633"><ele>610.75</ele><time>2026-04-12T12:14:55.005Z</time></trkpt><trkpt lat="44.6375783" lon="8.1128617"><ele>613.0</ele><time>2026-04-12T12:14:55.995Z</time></trkpt><trkpt lat="44.6376833" lon="8.11274"><ele>613.0</ele><time>2026-04-12T12:14:56.997Z</time></trkpt><trkpt lat="44.6377833" lon="8.11261"><ele>613.0</ele><time>2026-04-12T12:14:57.997Z</time></trkpt><trkpt lat="44.637885" lon="8.1124867"><ele>613.0</ele><time>2026-04-12T12:14:58.996Z</time></trkpt><trkpt lat="44.6379883" lon="8.112385"><ele>613.0</ele><time>2026-04-12T12:14:59.998Z</time></trkpt><trkpt lat="44.638105" lon="8.1123183"><ele>615.0</ele><time>2026-04-12T12:15:00.996Z</time></trkpt><trkpt lat="44.6382283" lon="8.112305"><ele>617.0</ele><time>2026-04-12T12:15:02Z</time></trkpt><trkpt lat="44.638365" lon="8.1123433"><ele>619.0</ele><time>2026-04-12T12:15:02.997Z</time></trkpt><trkpt lat="44.6384967" lon="8.112395"><ele>621.0</ele><time>2026-04-12T12:15:03.997Z</time></trkpt><trkpt lat="44.6386217" lon="8.1124717"><ele>620.5</ele><time>2026-04-12T12:15:04.994Z</time></trkpt><trkpt lat="44.63874" lon="8.1125483"><ele>620.0</ele><time>2026-04-12T12:15:05.998Z</time></trkpt><trkpt lat="44.6388683" lon="8.1126167"><ele>619.5</ele><time>2026-04-12T12:15:06.999Z</time></trkpt><trkpt lat="44.6390033" lon="8.11265"><ele>619.0</ele><time>2026-04-12T12:15:07.994Z</time></trkpt><trkpt lat="44.6391517" lon="8.1126483"><ele>619.0</ele><time>2026-04-12T12:15:08.999Z</time></trkpt><trkpt lat="44.6393067" lon="8.1126333"><ele>619.0</ele><time>2026-04-12T12:15:10.002Z</time></trkpt><trkpt lat="44.6394667" lon="8.1126267"><ele>619.0</ele><time>2026-04-12T12:15:10.997Z</time></trkpt><trkpt lat="44.63963" lon="8.1126383"><ele>621.3333333333334</ele><time>2026-04-12T12:15:11.997Z</time></trkpt><trkpt lat="44.6398017" lon="8.1126617"><ele>623.6666666666666</ele><time>2026-04-12T12:15:13.002Z</time></trkpt><trkpt lat="44.639975" lon="8.1126933"><ele>626.0</ele><time>2026-04-12T12:15:13.998Z</time></trkpt><trkpt lat="44.6401483" lon="8.11273"><ele>629.6666666666666</ele><time>2026-04-12T12:15:14.997Z</time></trkpt><trkpt lat="44.6403233" lon="8.1127783"><ele>633.3333333333334</ele><time>2026-04-12T12:15:15.999Z</time></trkpt><trkpt lat="44.6405017" lon="8.1128467"><ele>637.0</ele><time>2026-04-12T12:15:16.994Z</time></trkpt><trkpt lat="44.64068" lon="8.11294"><ele>637.0</ele><time>2026-04-12T12:15:17.998Z</time></trkpt><trkpt lat="44.6408583" lon="8.1130467"><ele>637.0</ele><time>2026-04-12T12:15:18.997Z</time></trkpt><trkpt lat="44.641035" lon="8.1131583"><ele>637.0</ele><time>2026-04-12T12:15:19.996Z</time></trkpt><trkpt lat="44.6412083" lon="8.1132683"><ele>639.3333333333334</ele><time>2026-04-12T12:15:21Z</time></trkpt><trkpt lat="44.641375" lon="8.1133783"><ele>641.6666666666666</ele><time>2026-04-12T12:15:21.997Z</time></trkpt><trkpt lat="44.64153" lon="8.11348"><ele>644.0</ele><time>2026-04-12T12:15:22.997Z</time></trkpt><trkpt lat="44.6416683" lon="8.113585"><ele>644.0</ele><time>2026-04-12T12:15:23.998Z</time></trkpt><trkpt lat="44.6417867" lon="8.113695"><ele>644.0</ele><time>2026-04-12T12:15:24.999Z</time></trkpt><trkpt lat="44.6418983" lon="8.113825"><ele>644.0</ele><time>2026-04-12T12:15:25.996Z</time></trkpt><trkpt lat="44.641995" lon="8.1139717"><ele>644.0</ele><time>2026-04-12T12:15:27.001Z</time></trkpt><trkpt lat="44.6420717" lon="8.11414"><ele>643.25</ele><time>2026-04-12T12:15:28.003Z</time></trkpt><trkpt lat="44.6421183" lon="8.1143267"><ele>642.5</ele><time>2026-04-12T12:15:28.997Z</time></trkpt><trkpt lat="44.6421483" lon="8.1145233"><ele>641.75</ele><time>2026-04-12T12:15:29.995Z</time></trkpt><trkpt lat="44.6421717" lon="8.1147317"><ele>641.0</ele><time>2026-04-12T12:15:30.996Z</time></trkpt><trkpt lat="44.6421883" lon="8.1149467"><ele>640.6666666666666</ele><time>2026-04-12T12:15:31.996Z</time></trkpt><trkpt lat="44.6422167" lon="8.1151633"><ele>640.3333333333334</ele><time>2026-04-12T12:15:32.998Z</time></trkpt><trkpt lat="44.6422733" lon="8.1153717"><ele>640.0</ele><time>2026-04-12T12:15:33.997Z</time></trkpt><trkpt lat="44.64236" lon="8.115565"><ele>642.3333333333334</ele><time>2026-04-12T12:15:34.998Z</time></trkpt><trkpt lat="44.64247" lon="8.11574"><ele>644.6666666666666</ele><time>2026-04-12T12:15:35.995Z</time></trkpt><trkpt lat="44.6426017" lon="8.1159017"><ele>647.0</ele><time>2026-04-12T12:15:37.007Z</time></trkpt><trkpt lat="44.6427433" lon="8.1160683"><ele>646.6666666666666</ele><time>2026-04-12T12:15:38Z</time></trkpt><trkpt lat="44.6428817" lon="8.11624"><ele>646.3333333333334</ele><time>2026-04-12T12:15:39.004Z</time></trkpt><trkpt lat="44.6430217" lon="8.1164233"><ele>646.0</ele><time>2026-04-12T12:15:39.999Z</time></trkpt><trkpt lat="44.6431583" lon="8.11662"><ele>646.0</ele><time>2026-04-12T12:15:40.996Z</time></trkpt><trkpt lat="44.64329" lon="8.1168317"><ele>646.0</ele><time>2026-04-12T12:15:41.998Z</time></trkpt><trkpt lat="44.6434233" lon="8.11705"><ele>646.0</ele><time>2026-04-12T12:15:42.999Z</time></trkpt><trkpt lat="44.64356" lon="8.1172733"><ele>645.3333333333334</ele><time>2026-04-12T12:15:43.999Z</time></trkpt><trkpt lat="44.6437017" lon="8.1175"><ele>644.6666666666666</ele><time>2026-04-12T12:15:45.002Z</time></trkpt><trkpt lat="44.64385" lon="8.1177233"><ele>644.0</ele><time>2026-04-12T12:15:45.999Z</time></trkpt><trkpt lat="44.644005" lon="8.1179433"><ele>644.0</ele><time>2026-04-12T12:15:47.003Z</time></trkpt><trkpt lat="44.6441617" lon="8.118165"><ele>644.0</ele><time>2026-04-12T12:15:47.994Z</time></trkpt><trkpt lat="44.64432" lon="8.1183817"><ele>644.0</ele><time>2026-04-12T12:15:48.997Z</time></trkpt><trkpt lat="44.6444733" lon="8.1185967"><ele>642.6666666666666</ele><time>2026-04-12T12:15:49.996Z</time></trkpt><trkpt lat="44.6446267" lon="8.1188017"><ele>641.3333333333334</ele><time>2026-04-12T12:15:50.995Z</time></trkpt><trkpt lat="44.6447783" lon="8.1189867"><ele>640.0</ele><time>2026-04-12T12:15:51.998Z</time></trkpt><trkpt lat="44.6449267" lon="8.119145"><ele>643.0</ele><time>2026-04-12T12:15:53Z</time></trkpt><trkpt lat="44.64507" lon="8.1192767"><ele>646.0</ele><time>2026-04-12T12:15:53.998Z</time></trkpt><trkpt lat="44.6452183" lon="8.1193583"><ele>649.0</ele><time>2026-04-12T12:15:54.996Z</time></trkpt><trkpt lat="44.645375" lon="8.119395"><ele>649.0</ele><time>2026-04-12T12:15:55.991Z</time></trkpt><trkpt lat="44.6455417" lon="8.1194067"><ele>649.0</ele><time>2026-04-12T12:15:56.999Z</time></trkpt><trkpt lat="44.645715" lon="8.119395"><ele>649.0</ele><time>2026-04-12T12:15:57.995Z</time></trkpt><trkpt lat="44.64588" lon="8.11939"><ele>649.0</ele><time>2026-04-12T12:15:58.994Z</time></trkpt><trkpt lat="44.6460283" lon="8.1194167"><ele>649.0</ele><time>2026-04-12T12:15:59.997Z</time></trkpt><trkpt lat="44.6461617" lon="8.1194817"><ele>649.0</ele><time>2026-04-12T12:16:00.999Z</time></trkpt><trkpt lat="44.6463" lon="8.1195667"><ele>649.0</ele><time>2026-04-12T12:16:01.996Z</time></trkpt><trkpt lat="44.6464467" lon="8.1196667"><ele>650.6666666666667</ele><time>2026-04-12T12:16:02.998Z</time></trkpt><trkpt lat="44.6466083" lon="8.11976"><ele>652.3333333333334</ele><time>2026-04-12T12:16:04.004Z</time></trkpt><trkpt lat="44.64678" lon="8.1198533"><ele>654.0</ele><time>2026-04-12T12:16:04.995Z</time></trkpt><trkpt lat="44.6469533" lon="8.1199467"><ele>651.6666666666666</ele><time>2026-04-12T12:16:05.997Z</time></trkpt><trkpt lat="44.6471267" lon="8.120035"><ele>649.3333333333333</ele><time>2026-04-12T12:16:06.995Z</time></trkpt><trkpt lat="44.647295" lon="8.1201117"><ele>647.0</ele><time>2026-04-12T12:16:07.998Z</time></trkpt><trkpt lat="44.6474567" lon="8.12018"><ele>647.0</ele><time>2026-04-12T12:16:08.996Z</time></trkpt><trkpt lat="44.6476117" lon="8.1202417"><ele>647.0</ele><time>2026-04-12T12:16:10Z</time></trkpt><trkpt lat="44.6477617" lon="8.1202933"><ele>647.0</ele><time>2026-04-12T12:16:10.995Z</time></trkpt><trkpt lat="44.6479117" lon="8.1203167"><ele>645.6666666666666</ele><time>2026-04-12T12:16:11.997Z</time></trkpt><trkpt lat="44.6480617" lon="8.1202983"><ele>644.3333333333334</ele><time>2026-04-12T12:16:13.002Z</time></trkpt><trkpt lat="44.6482133" lon="8.1202367"><ele>643.0</ele><time>2026-04-12T12:16:14.001Z</time></trkpt><trkpt lat="44.64836" lon="8.1201467"><ele>643.0</ele><time>2026-04-12T12:16:15.002Z</time></trkpt><trkpt lat="44.6485" lon="8.1200417"><ele>643.0</ele><time>2026-04-12T12:16:16Z</time></trkpt><trkpt lat="44.6486367" lon="8.1199317"><ele>643.0</ele><time>2026-04-12T12:16:16.996Z</time></trkpt><trkpt lat="44.6487667" lon="8.1198217"><ele>644.0</ele><time>2026-04-12T12:16:18.001Z</time></trkpt><trkpt lat="44.6488817" lon="8.11971"><ele>645.0</ele><time>2026-04-12T12:16:19Z</time></trkpt><trkpt lat="44.6489783" lon="8.1195717"><ele>646.0</ele><time>2026-04-12T12:16:19.998Z</time></trkpt><trkpt lat="44.64906" lon="8.1193983"><ele>647.0</ele><time>2026-04-12T12:16:20.999Z</time></trkpt><trkpt lat="44.6491283" lon="8.1191917"><ele>643.3333333333333</ele><time>2026-04-12T12:16:21.995Z</time></trkpt><trkpt lat="44.64919" lon="8.1189683"><ele>639.6666666666666</ele><time>2026-04-12T12:16:23Z</time></trkpt><trkpt lat="44.6492533" lon="8.1187417"><ele>636.0</ele><time>2026-04-12T12:16:23.995Z</time></trkpt><trkpt lat="44.6493183" lon="8.11851"><ele>636.0</ele><time>2026-04-12T12:16:24.997Z</time></trkpt><trkpt lat="44.6493783" lon="8.11828"><ele>636.0</ele><time>2026-04-12T12:16:25.997Z</time></trkpt><trkpt lat="44.64944" lon="8.1180517"><ele>636.0</ele><time>2026-04-12T12:16:26.997Z</time></trkpt><trkpt lat="44.6494983" lon="8.1178283"><ele>635.6666666666666</ele><time>2026-04-12T12:16:27.996Z</time></trkpt><trkpt lat="44.6495533" lon="8.1176033"><ele>635.3333333333333</ele><time>2026-04-12T12:16:28.997Z</time></trkpt><trkpt lat="44.6496017" lon="8.1173783"><ele>635.0</ele><time>2026-04-12T12:16:29.998Z</time></trkpt><trkpt lat="44.6496433" lon="8.117155"><ele>635.0</ele><time>2026-04-12T12:16:30.996Z</time></trkpt><trkpt lat="44.6496833" lon="8.1169433"><ele>635.0</ele><time>2026-04-12T12:16:32Z</time></trkpt><trkpt lat="44.6497217" lon="8.11674"><ele>635.0</ele><time>2026-04-12T12:16:32.999Z</time></trkpt><trkpt lat="44.649765" lon="8.1165467"><ele>632.0</ele><time>2026-04-12T12:16:34Z</time></trkpt><trkpt lat="44.6498033" lon="8.11637"><ele>629.0</ele><time>2026-04-12T12:16:34.993Z</time></trkpt><trkpt lat="44.6498517" lon="8.1162267"><ele>626.0</ele><time>2026-04-12T12:16:35.997Z</time></trkpt><trkpt lat="44.6499167" lon="8.1161167"><ele>623.0</ele><time>2026-04-12T12:16:36.997Z</time></trkpt><trkpt lat="44.6499967" lon="8.11604"><ele>620.0</ele><time>2026-04-12T12:16:37.997Z</time></trkpt><trkpt lat="44.6500883" lon="8.1159883"><ele>620.0</ele><time>2026-04-12T12:16:38.999Z</time></trkpt><trkpt lat="44.6501967" lon="8.115955"><ele>620.0</ele><time>2026-04-12T12:16:39.993Z</time></trkpt><trkpt lat="44.6503167" lon="8.11592"><ele>620.0</ele><time>2026-04-12T12:16:40.993Z</time></trkpt><trkpt lat="44.6504417" lon="8.1158867"><ele>620.0</ele><time>2026-04-12T12:16:41.991Z</time></trkpt><trkpt lat="44.650575" lon="8.1158533"><ele>620.75</ele><time>2026-04-12T12:16:43.002Z</time></trkpt><trkpt lat="44.6507117" lon="8.1158217"><ele>621.5</ele><time>2026-04-12T12:16:43.994Z</time></trkpt><trkpt lat="44.6508533" lon="8.1157883"><ele>622.25</ele><time>2026-04-12T12:16:44.997Z</time></trkpt><trkpt lat="44.6509983" lon="8.1157633"><ele>623.0</ele><time>2026-04-12T12:16:45.994Z</time></trkpt><trkpt lat="44.6511517" lon="8.115735"><ele>619.3333333333333</ele><time>2026-04-12T12:16:46.995Z</time></trkpt><trkpt lat="44.6513167" lon="8.1156917"><ele>615.6666666666666</ele><time>2026-04-12T12:16:47.996Z</time></trkpt><trkpt lat="44.6514967" lon="8.1156267"><ele>612.0</ele><time>2026-04-12T12:16:48.996Z</time></trkpt><trkpt lat="44.651675" lon="8.1155483"><ele>612.0</ele><time>2026-04-12T12:16:49.999Z</time></trkpt><trkpt lat="44.6518483" lon="8.1154617"><ele>612.0</ele><time>2026-04-12T12:16:50.995Z</time></trkpt><trkpt lat="44.652025" lon="8.1153717"><ele>612.0</ele><time>2026-04-12T12:16:51.995Z</time></trkpt><trkpt lat="44.6521967" lon="8.1152767"><ele>613.5</ele><time>2026-04-12T12:16:52.996Z</time></trkpt><trkpt lat="44.652355" lon="8.1151883"><ele>615.0</ele><time>2026-04-12T12:16:53.995Z</time></trkpt><trkpt lat="44.6524933" lon="8.115115"><ele>616.5</ele><time>2026-04-12T12:16:54.994Z</time></trkpt><trkpt lat="44.6526167" lon="8.1150583"><ele>618.0</ele><time>2026-04-12T12:16:55.993Z</time></trkpt><trkpt lat="44.6527183" lon="8.1150383"><ele>617.6</ele><time>2026-04-12T12:16:57.001Z</time></trkpt><trkpt lat="44.65281" lon="8.1150533"><ele>617.1999999999999</ele><time>2026-04-12T12:16:57.994Z</time></trkpt><trkpt lat="44.6528967" lon="8.1151067"><ele>616.8</ele><time>2026-04-12T12:16:58.995Z</time></trkpt><trkpt lat="44.6529667" lon="8.1152167"><ele>616.4</ele><time>2026-04-12T12:17:00.011Z</time></trkpt><trkpt lat="44.6530167" lon="8.1153483"><ele>616.0</ele><time>2026-04-12T12:17:00.996Z</time></trkpt><trkpt lat="44.6530567" lon="8.1155033"><ele>616.0</ele><time>2026-04-12T12:17:01.997Z</time></trkpt><trkpt lat="44.653085" lon="8.11569"><ele>616.0</ele><time>2026-04-12T12:17:02.995Z</time></trkpt><trkpt lat="44.6531133" lon="8.1159017"><ele>616.0</ele><time>2026-04-12T12:17:03.997Z</time></trkpt><trkpt lat="44.65314" lon="8.11612"><ele>616.0</ele><time>2026-04-12T12:17:04.995Z</time></trkpt><trkpt lat="44.6531733" lon="8.116335"><ele>616.3333333333334</ele><time>2026-04-12T12:17:05.997Z</time></trkpt><trkpt lat="44.653205" lon="8.1165533"><ele>616.6666666666666</ele><time>2026-04-12T12:17:07Z</time></trkpt><trkpt lat="44.6532367" lon="8.116765"><ele>617.0</ele><time>2026-04-12T12:17:07.998Z</time></trkpt><trkpt lat="44.65327" lon="8.11696"><ele>618.0</ele><time>2026-04-12T12:17:08.998Z</time></trkpt><trkpt lat="44.6533083" lon="8.1171367"><ele>619.0</ele><time>2026-04-12T12:17:09.994Z</time></trkpt><trkpt lat="44.6533517" lon="8.11731"><ele>620.0</ele><time>2026-04-12T12:17:11.004Z</time></trkpt><trkpt lat="44.6534167" lon="8.1174433"><ele>621.0</ele><time>2026-04-12T12:17:11.997Z</time></trkpt><trkpt lat="44.6534967" lon="8.1175517"><ele>620.0</ele><time>2026-04-12T12:17:12.998Z</time></trkpt><trkpt lat="44.6535767" lon="8.1176517"><ele>619.0</ele><time>2026-04-12T12:17:13.997Z</time></trkpt><trkpt lat="44.653655" lon="8.117755"><ele>618.0</ele><time>2026-04-12T12:17:15.004Z</time></trkpt><trkpt lat="44.6537283" lon="8.1178483"><ele>617.0</ele><time>2026-04-12T12:17:16.004Z</time></trkpt><trkpt lat="44.6537933" lon="8.117965"><ele>616.0</ele><time>2026-04-12T12:17:17Z</time></trkpt><trkpt lat="44.6538383" lon="8.118095"><ele>616.0</ele><time>2026-04-12T12:17:17.999Z</time></trkpt><trkpt lat="44.65388" lon="8.1182117"><ele>616.0</ele><time>2026-04-12T12:17:19.003Z</time></trkpt><trkpt lat="44.6538717" lon="8.118355"><ele>616.0</ele><time>2026-04-12T12:17:19.998Z</time></trkpt><trkpt lat="44.6538417" lon="8.1185"><ele>616.0</ele><time>2026-04-12T12:17:20.999Z</time></trkpt><trkpt lat="44.6537883" lon="8.1186533"><ele>616.0</ele><time>2026-04-12T12:17:21.999Z</time></trkpt><trkpt lat="44.65372" lon="8.1188283"><ele>615.0</ele><time>2026-04-12T12:17:22.999Z</time></trkpt><trkpt lat="44.6536367" lon="8.119025"><ele>614.0</ele><time>2026-04-12T12:17:24Z</time></trkpt><trkpt lat="44.653535" lon="8.1192367"><ele>613.0</ele><time>2026-04-12T12:17:25.001Z</time></trkpt><trkpt lat="44.6534417" lon="8.1194383"><ele>615.3333333333334</ele><time>2026-04-12T12:17:25.998Z</time></trkpt><trkpt lat="44.653345" lon="8.1196333"><ele>617.6666666666666</ele><time>2026-04-12T12:17:27.001Z</time></trkpt><trkpt lat="44.6532533" lon="8.119835"><ele>620.0</ele><time>2026-04-12T12:17:27.998Z</time></trkpt><trkpt lat="44.6531633" lon="8.120025"><ele>620.0</ele><time>2026-04-12T12:17:28.997Z</time></trkpt><trkpt lat="44.653075" lon="8.12021"><ele>620.0</ele><time>2026-04-12T12:17:29.999Z</time></trkpt><trkpt lat="44.6530017" lon="8.1203983"><ele>620.0</ele><time>2026-04-12T12:17:31.001Z</time></trkpt><trkpt lat="44.6529333" lon="8.1205967"><ele>617.0</ele><time>2026-04-12T12:17:32Z</time></trkpt><trkpt lat="44.65286" lon="8.12083"><ele>614.0</ele><time>2026-04-12T12:17:32.999Z</time></trkpt><trkpt lat="44.6528033" lon="8.1210533"><ele>611.0</ele><time>2026-04-12T12:17:33.996Z</time></trkpt><trkpt lat="44.6527367" lon="8.1212533"><ele>615.0</ele><time>2026-04-12T12:17:34.998Z</time></trkpt><trkpt lat="44.6526233" lon="8.1214233"><ele>619.0</ele><time>2026-04-12T12:17:36Z</time></trkpt><trkpt lat="44.65253" lon="8.1215833"><ele>623.0</ele><time>2026-04-12T12:17:36.999Z</time></trkpt><trkpt lat="44.6524783" lon="8.1217483"><ele>627.0</ele><time>2026-04-12T12:17:37.995Z</time></trkpt><trkpt lat="44.65244" lon="8.1219117"><ele>627.0</ele><time>2026-04-12T12:17:38.997Z</time></trkpt><trkpt lat="44.6524567" lon="8.12208"><ele>627.0</ele><time>2026-04-12T12:17:39.997Z</time></trkpt><trkpt lat="44.6524817" lon="8.1222483"><ele>627.0</ele><time>2026-04-12T12:17:41.003Z</time></trkpt><trkpt lat="44.6525" lon="8.12242"><ele>627.0</ele><time>2026-04-12T12:17:41.995Z</time></trkpt><trkpt lat="44.652505" lon="8.1225917"><ele>626.25</ele><time>2026-04-12T12:17:42.997Z</time></trkpt><trkpt lat="44.652475" lon="8.12277"><ele>625.5</ele><time>2026-04-12T12:17:43.994Z</time></trkpt><trkpt lat="44.6524267" lon="8.1229533"><ele>624.75</ele><time>2026-04-12T12:17:44.997Z</time></trkpt><trkpt lat="44.65237" lon="8.1231433"><ele>624.0</ele><time>2026-04-12T12:17:45.995Z</time></trkpt><trkpt lat="44.6523083" lon="8.1233417"><ele>622.6666666666666</ele><time>2026-04-12T12:17:46.997Z</time></trkpt><trkpt lat="44.6522567" lon="8.1235533"><ele>621.3333333333333</ele><time>2026-04-12T12:17:47.996Z</time></trkpt><trkpt lat="44.6521933" lon="8.1237667"><ele>620.0</ele><time>2026-04-12T12:17:49Z</time></trkpt><trkpt lat="44.6521233" lon="8.1239817"><ele>618.0</ele><time>2026-04-12T12:17:49.996Z</time></trkpt><trkpt lat="44.6520567" lon="8.1241917"><ele>616.0</ele><time>2026-04-12T12:17:50.998Z</time></trkpt><trkpt lat="44.65199" lon="8.1243933"><ele>614.0</ele><time>2026-04-12T12:17:51.996Z</time></trkpt><trkpt lat="44.6519467" lon="8.124595"><ele>614.0</ele><time>2026-04-12T12:17:52.995Z</time></trkpt><trkpt lat="44.651905" lon="8.124785"><ele>614.0</ele><time>2026-04-12T12:17:53.992Z</time></trkpt><trkpt lat="44.6518767" lon="8.1249683"><ele>614.0</ele><time>2026-04-12T12:17:54.995Z</time></trkpt><trkpt lat="44.651875" lon="8.1251583"><ele>614.0</ele><time>2026-04-12T12:17:56Z</time></trkpt><trkpt lat="44.6519017" lon="8.1253667"><ele>614.6666666666666</ele><time>2026-04-12T12:17:57Z</time></trkpt><trkpt lat="44.65195" lon="8.1255767"><ele>615.3333333333334</ele><time>2026-04-12T12:17:57.994Z</time></trkpt><trkpt lat="44.6520083" lon="8.125795"><ele>616.0</ele><time>2026-04-12T12:17:58.998Z</time></trkpt><trkpt lat="44.6520683" lon="8.126025"><ele>615.0</ele><time>2026-04-12T12:18:00.006Z</time></trkpt><trkpt lat="44.6521283" lon="8.1262567"><ele>614.0</ele><time>2026-04-12T12:18:00.998Z</time></trkpt><trkpt lat="44.6521883" lon="8.12649"><ele>613.0</ele><time>2026-04-12T12:18:01.994Z</time></trkpt><trkpt lat="44.6522533" lon="8.1267267"><ele>613.0</ele><time>2026-04-12T12:18:02.994Z</time></trkpt><trkpt lat="44.6523167" lon="8.126965"><ele>613.0</ele><time>2026-04-12T12:18:03.997Z</time></trkpt><trkpt lat="44.6523767" lon="8.1272"><ele>613.0</ele><time>2026-04-12T12:18:04.996Z</time></trkpt><trkpt lat="44.6524383" lon="8.1274333"><ele>614.3333333333334</ele><time>2026-04-12T12:18:05.994Z</time></trkpt><trkpt lat="44.652495" lon="8.1276667"><ele>615.6666666666666</ele><time>2026-04-12T12:18:06.996Z</time></trkpt><trkpt lat="44.65255" lon="8.1278983"><ele>617.0</ele><time>2026-04-12T12:18:07.998Z</time></trkpt><trkpt lat="44.6525933" lon="8.128135"><ele>618.3333333333333</ele><time>2026-04-12T12:18:08.995Z</time></trkpt><trkpt lat="44.652625" lon="8.1283617"><ele>619.6666666666666</ele><time>2026-04-12T12:18:09.996Z</time></trkpt><trkpt lat="44.6526433" lon="8.12857"><ele>621.0</ele><time>2026-04-12T12:18:11.002Z</time></trkpt><trkpt lat="44.6526367" lon="8.1287633"><ele>621.0</ele><time>2026-04-12T12:18:11.995Z</time></trkpt><trkpt lat="44.6526033" lon="8.1289533"><ele>621.0</ele><time>2026-04-12T12:18:12.996Z</time></trkpt><trkpt lat="44.6525733" lon="8.12914"><ele>621.0</ele><time>2026-04-12T12:18:13.993Z</time></trkpt><trkpt lat="44.6525617" lon="8.1293317"><ele>621.0</ele><time>2026-04-12T12:18:15Z</time></trkpt><trkpt lat="44.6525733" lon="8.1295267"><ele>621.25</ele><time>2026-04-12T12:18:15.999Z</time></trkpt><trkpt lat="44.6526" lon="8.1297267"><ele>621.5</ele><time>2026-04-12T12:18:16.995Z</time></trkpt><trkpt lat="44.65261" lon="8.1299233"><ele>621.75</ele><time>2026-04-12T12:18:17.996Z</time></trkpt><trkpt lat="44.6526017" lon="8.1301183"><ele>622.0</ele><time>2026-04-12T12:18:18.997Z</time></trkpt><trkpt lat="44.6525867" lon="8.1303033"><ele>621.5</ele><time>2026-04-12T12:18:19.997Z</time></trkpt><trkpt lat="44.6525733" lon="8.1304867"><ele>621.0</ele><time>2026-04-12T12:18:21.003Z</time></trkpt><trkpt lat="44.652585" lon="8.1306667"><ele>620.5</ele><time>2026-04-12T12:18:21.999Z</time></trkpt><trkpt lat="44.652625" lon="8.1308417"><ele>620.0</ele><time>2026-04-12T12:18:22.999Z</time></trkpt><trkpt lat="44.65268" lon="8.131"><ele>619.25</ele><time>2026-04-12T12:18:23.994Z</time></trkpt><trkpt lat="44.6527217" lon="8.1311467"><ele>618.5</ele><time>2026-04-12T12:18:25.001Z</time></trkpt><trkpt lat="44.6527283" lon="8.1313033"><ele>617.75</ele><time>2026-04-12T12:18:25.997Z</time></trkpt><trkpt lat="44.6527083" lon="8.1314633"><ele>617.0</ele><time>2026-04-12T12:18:26.999Z</time></trkpt><trkpt lat="44.652685" lon="8.1316283"><ele>616.0</ele><time>2026-04-12T12:18:27.997Z</time></trkpt><trkpt lat="44.6526683" lon="8.1318083"><ele>615.0</ele><time>2026-04-12T12:18:28.999Z</time></trkpt><trkpt lat="44.652675" lon="8.132005"><ele>614.0</ele><time>2026-04-12T12:18:29.999Z</time></trkpt><trkpt lat="44.6527" lon="8.132205"><ele>613.0</ele><time>2026-04-12T12:18:30.997Z</time></trkpt><trkpt lat="44.6527183" lon="8.13241"><ele>612.25</ele><time>2026-04-12T12:18:31.995Z</time></trkpt><trkpt lat="44.65272" lon="8.1326133"><ele>611.5</ele><time>2026-04-12T12:18:32.998Z</time></trkpt><trkpt lat="44.65271" lon="8.1328167"><ele>610.75</ele><time>2026-04-12T12:18:34.003Z</time></trkpt><trkpt lat="44.652695" lon="8.1330183"><ele>610.0</ele><time>2026-04-12T12:18:34.995Z</time></trkpt><trkpt lat="44.6526783" lon="8.13322"><ele>609.0</ele><time>2026-04-12T12:18:35.997Z</time></trkpt><trkpt lat="44.6526633" lon="8.13341"><ele>608.0</ele><time>2026-04-12T12:18:36.997Z</time></trkpt><trkpt lat="44.6526583" lon="8.1335767"><ele>607.0</ele><time>2026-04-12T12:18:37.998Z</time></trkpt><trkpt lat="44.6526817" lon="8.133725"><ele>606.0</ele><time>2026-04-12T12:18:39.002Z</time></trkpt><trkpt lat="44.6527383" lon="8.133845"><ele>607.0</ele><time>2026-04-12T12:18:40.001Z</time></trkpt><trkpt lat="44.6528317" lon="8.13393"><ele>608.0</ele><time>2026-04-12T12:18:40.998Z</time></trkpt><trkpt lat="44.6529483" lon="8.1339867"><ele>609.0</ele><time>2026-04-12T12:18:41.997Z</time></trkpt><trkpt lat="44.65308" lon="8.1340283"><ele>610.0</ele><time>2026-04-12T12:18:43.003Z</time></trkpt><trkpt lat="44.65322" lon="8.1340817"><ele>610.0</ele><time>2026-04-12T12:18:44Z</time></trkpt><trkpt lat="44.6533617" lon="8.1341533"><ele>610.0</ele><time>2026-04-12T12:18:44.998Z</time></trkpt><trkpt lat="44.6535067" lon="8.1342333"><ele>610.0</ele><time>2026-04-12T12:18:46Z</time></trkpt><trkpt lat="44.6536583" lon="8.1343167"><ele>612.6666666666667</ele><time>2026-04-12T12:18:46.997Z</time></trkpt><trkpt lat="44.65382" lon="8.134415"><ele>615.3333333333334</ele><time>2026-04-12T12:18:47.997Z</time></trkpt><trkpt lat="44.653985" lon="8.1345033"><ele>618.0</ele><time>2026-04-12T12:18:48.998Z</time></trkpt><trkpt lat="44.654165" lon="8.1345833"><ele>618.0</ele><time>2026-04-12T12:18:49.993Z</time></trkpt><trkpt lat="44.6543517" lon="8.13465"><ele>618.0</ele><time>2026-04-12T12:18:50.996Z</time></trkpt><trkpt lat="44.6545467" lon="8.1347017"><ele>618.0</ele><time>2026-04-12T12:18:51.996Z</time></trkpt><trkpt lat="44.6547433" lon="8.1347383"><ele>614.0</ele><time>2026-04-12T12:18:52.996Z</time></trkpt><trkpt lat="44.65494" lon="8.13477"><ele>610.0</ele><time>2026-04-12T12:18:53.994Z</time></trkpt><trkpt lat="44.6551367" lon="8.1347933"><ele>606.0</ele><time>2026-04-12T12:18:54.995Z</time></trkpt><trkpt lat="44.6553267" lon="8.134805"><ele>603.3333333333334</ele><time>2026-04-12T12:18:55.994Z</time></trkpt><trkpt lat="44.65552" lon="8.13479"><ele>600.6666666666667</ele><time>2026-04-12T12:18:56.995Z</time></trkpt><trkpt lat="44.65571" lon="8.1347483"><ele>598.0</ele><time>2026-04-12T12:18:57.994Z</time></trkpt><trkpt lat="44.6559017" lon="8.1346717"><ele>598.0</ele><time>2026-04-12T12:18:58.994Z</time></trkpt><trkpt lat="44.6560883" lon="8.134565"><ele>598.0</ele><time>2026-04-12T12:18:59.998Z</time></trkpt><trkpt lat="44.6562717" lon="8.1344433"><ele>598.0</ele><time>2026-04-12T12:19:00.995Z</time></trkpt><trkpt lat="44.65645" lon="8.134315"><ele>599.6666666666667</ele><time>2026-04-12T12:19:01.996Z</time></trkpt><trkpt lat="44.65662" lon="8.1342017"><ele>601.3333333333334</ele><time>2026-04-12T12:19:02.997Z</time></trkpt><trkpt lat="44.656765" lon="8.1341017"><ele>603.0</ele><time>2026-04-12T12:19:03.999Z</time></trkpt><trkpt lat="44.6568783" lon="8.134025"><ele>602.4</ele><time>2026-04-12T12:19:04.999Z</time></trkpt><trkpt lat="44.656985" lon="8.13397"><ele>601.8</ele><time>2026-04-12T12:19:05.994Z</time></trkpt><trkpt lat="44.6570633" lon="8.1339483"><ele>601.2</ele><time>2026-04-12T12:19:06.996Z</time></trkpt><trkpt lat="44.6571567" lon="8.13398"><ele>600.6</ele><time>2026-04-12T12:19:07.999Z</time></trkpt><trkpt lat="44.65725" lon="8.13406"><ele>600.0</ele><time>2026-04-12T12:19:08.995Z</time></trkpt><trkpt lat="44.65736" lon="8.134175"><ele>600.0</ele><time>2026-04-12T12:19:09.995Z</time></trkpt><trkpt lat="44.6574783" lon="8.1343067"><ele>600.0</ele><time>2026-04-12T12:19:10.995Z</time></trkpt><trkpt lat="44.65761" lon="8.1344583"><ele>600.0</ele><time>2026-04-12T12:19:11.997Z</time></trkpt><trkpt lat="44.6577417" lon="8.1346083"><ele>598.3333333333334</ele><time>2026-04-12T12:19:13Z</time></trkpt><trkpt lat="44.6578767" lon="8.1347483"><ele>596.6666666666667</ele><time>2026-04-12T12:19:13.997Z</time></trkpt><trkpt lat="44.65801" lon="8.13486"><ele>595.0</ele><time>2026-04-12T12:19:14.999Z</time></trkpt><trkpt lat="44.658145" lon="8.1349333"><ele>600.3333333333334</ele><time>2026-04-12T12:19:15.999Z</time></trkpt><trkpt lat="44.6582917" lon="8.134965"><ele>605.6666666666666</ele><time>2026-04-12T12:19:16.994Z</time></trkpt><trkpt lat="44.658445" lon="8.1349467"><ele>611.0</ele><time>2026-04-12T12:19:17.997Z</time></trkpt><trkpt lat="44.6586017" lon="8.134895"><ele>607.3333333333333</ele><time>2026-04-12T12:19:18.997Z</time></trkpt><trkpt lat="44.65876" lon="8.13483"><ele>603.6666666666666</ele><time>2026-04-12T12:19:19.996Z</time></trkpt><trkpt lat="44.6589183" lon="8.1347383"><ele>600.0</ele><time>2026-04-12T12:19:20.997Z</time></trkpt><trkpt lat="44.6590817" lon="8.1346167"><ele>600.0</ele><time>2026-04-12T12:19:22Z</time></trkpt><trkpt lat="44.6592417" lon="8.13448"><ele>600.0</ele><time>2026-04-12T12:19:22.998Z</time></trkpt><trkpt lat="44.6594017" lon="8.1343367"><ele>600.0</ele><time>2026-04-12T12:19:23.996Z</time></trkpt><trkpt lat="44.6595717" lon="8.1341983"><ele>597.0</ele><time>2026-04-12T12:19:25Z</time></trkpt><trkpt lat="44.65975" lon="8.1340633"><ele>594.0</ele><time>2026-04-12T12:19:25.997Z</time></trkpt><trkpt lat="44.6599317" lon="8.13393"><ele>591.0</ele><time>2026-04-12T12:19:26.995Z</time></trkpt><trkpt lat="44.66011" lon="8.133805"><ele>591.0</ele><time>2026-04-12T12:19:28.004Z</time></trkpt><trkpt lat="44.6602733" lon="8.1336883"><ele>591.0</ele><time>2026-04-12T12:19:29Z</time></trkpt><trkpt lat="44.6604217" lon="8.133585"><ele>591.0</ele><time>2026-04-12T12:19:29.993Z</time></trkpt><trkpt lat="44.66056" lon="8.1335083"><ele>593.75</ele><time>2026-04-12T12:19:30.996Z</time></trkpt><trkpt lat="44.6607033" lon="8.133475"><ele>596.5</ele><time>2026-04-12T12:19:31.996Z</time></trkpt><trkpt lat="44.6608483" lon="8.1334667"><ele>599.25</ele><time>2026-04-12T12:19:32.995Z</time></trkpt><trkpt lat="44.660985" lon="8.1334567"><ele>602.0</ele><time>2026-04-12T12:19:33.995Z</time></trkpt><trkpt lat="44.661125" lon="8.133435"><ele>603.25</ele><time>2026-04-12T12:19:34.994Z</time></trkpt><trkpt lat="44.66127" lon="8.1333883"><ele>604.5</ele><time>2026-04-12T12:19:35.997Z</time></trkpt><trkpt lat="44.6613933" lon="8.1332833"><ele>605.75</ele><time>2026-04-12T12:19:36.996Z</time></trkpt><trkpt lat="44.6615217" lon="8.13318"><ele>607.0</ele><time>2026-04-12T12:19:37.996Z</time></trkpt><trkpt lat="44.6616283" lon="8.1330783"><ele>607.0</ele><time>2026-04-12T12:19:38.998Z</time></trkpt><trkpt lat="44.66172" lon="8.1330033"><ele>607.0</ele><time>2026-04-12T12:19:39.996Z</time></trkpt><trkpt lat="44.6618017" lon="8.13297"><ele>607.0</ele><time>2026-04-12T12:19:40.996Z</time></trkpt><trkpt lat="44.6618767" lon="8.132965"><ele>607.0</ele><time>2026-04-12T12:19:41.996Z</time></trkpt><trkpt lat="44.66191" lon="8.1330433"><ele>607.0</ele><time>2026-04-12T12:19:42.996Z</time></trkpt><trkpt lat="44.6619383" lon="8.1331233"><ele>607.0</ele><time>2026-04-12T12:19:43.998Z</time></trkpt><trkpt lat="44.6618917" lon="8.13327"><ele>607.0</ele><time>2026-04-12T12:19:45.003Z</time></trkpt><trkpt lat="44.66183" lon="8.1334183"><ele>607.0</ele><time>2026-04-12T12:19:45.997Z</time></trkpt><trkpt lat="44.6617583" lon="8.133585"><ele>607.0</ele><time>2026-04-12T12:19:47.001Z</time></trkpt><trkpt lat="44.6616717" lon="8.13378"><ele>607.0</ele><time>2026-04-12T12:19:47.996Z</time></trkpt><trkpt lat="44.661585" lon="8.1339967"><ele>607.6666666666667</ele><time>2026-04-12T12:19:49.001Z</time></trkpt><trkpt lat="44.6615017" lon="8.13422"><ele>608.3333333333334</ele><time>2026-04-12T12:19:50.003Z</time></trkpt><trkpt lat="44.6614217" lon="8.13442"><ele>609.0</ele><time>2026-04-12T12:19:50.997Z</time></trkpt><trkpt lat="44.66136" lon="8.13458"><ele>609.0</ele><time>2026-04-12T12:19:51.996Z</time></trkpt><trkpt lat="44.6613217" lon="8.13471"><ele>609.0</ele><time>2026-04-12T12:19:52.998Z</time></trkpt><trkpt lat="44.661305" lon="8.1348217"><ele>609.0</ele><time>2026-04-12T12:19:54Z</time></trkpt><trkpt lat="44.661305" lon="8.134935"><ele>609.0</ele><time>2026-04-12T12:19:54.996Z</time></trkpt><trkpt lat="44.661365" lon="8.13499"><ele>609.0</ele><time>2026-04-12T12:19:55.996Z</time></trkpt><trkpt lat="44.661425" lon="8.13503"><ele>609.0</ele><time>2026-04-12T12:19:56.996Z</time></trkpt><trkpt lat="44.6614917" lon="8.1350567"><ele>609.0</ele><time>2026-04-12T12:19:57.996Z</time></trkpt><trkpt lat="44.6615817" lon="8.13503"><ele>609.0</ele><time>2026-04-12T12:19:58.994Z</time></trkpt><trkpt lat="44.661735" lon="8.134905"><ele>609.0</ele><time>2026-04-12T12:19:59.996Z</time></trkpt><trkpt lat="44.66187" lon="8.1347983"><ele>609.0</ele><time>2026-04-12T12:20:00.999Z</time></trkpt><trkpt lat="44.6620083" lon="8.1347183"><ele>605.3333333333334</ele><time>2026-04-12T12:20:01.994Z</time></trkpt><trkpt lat="44.6621617" lon="8.1346467"><ele>601.6666666666667</ele><time>2026-04-12T12:20:02.994Z</time></trkpt><trkpt lat="44.6623133" lon="8.1345817"><ele>598.0</ele><time>2026-04-12T12:20:03.998Z</time></trkpt><trkpt lat="44.6624767" lon="8.1345317"><ele>598.0</ele><time>2026-04-12T12:20:04.995Z</time></trkpt><trkpt lat="44.66264" lon="8.134495"><ele>598.0</ele><time>2026-04-12T12:20:05.996Z</time></trkpt><trkpt lat="44.6628117" lon="8.1344583"><ele>598.0</ele><time>2026-04-12T12:20:06.997Z</time></trkpt><trkpt lat="44.6629867" lon="8.1344183"><ele>596.6666666666667</ele><time>2026-04-12T12:20:07.997Z</time></trkpt><trkpt lat="44.6631633" lon="8.1343783"><ele>595.3333333333334</ele><time>2026-04-12T12:20:08.995Z</time></trkpt><trkpt lat="44.6633383" lon="8.134335"><ele>594.0</ele><time>2026-04-12T12:20:09.994Z</time></trkpt><trkpt lat="44.663515" lon="8.134285"><ele>592.6666666666666</ele><time>2026-04-12T12:20:10.997Z</time></trkpt><trkpt lat="44.6636867" lon="8.1342267"><ele>591.3333333333333</ele><time>2026-04-12T12:20:11.998Z</time></trkpt><trkpt lat="44.6638583" lon="8.13417"><ele>590.0</ele><time>2026-04-12T12:20:12.997Z</time></trkpt><trkpt lat="44.66403" lon="8.13412"><ele>590.0</ele><time>2026-04-12T12:20:13.994Z</time></trkpt><trkpt lat="44.6641983" lon="8.1340617"><ele>590.0</ele><time>2026-04-12T12:20:14.997Z</time></trkpt><trkpt lat="44.66436" lon="8.1339983"><ele>590.0</ele><time>2026-04-12T12:20:15.996Z</time></trkpt><trkpt lat="44.6645233" lon="8.1339333"><ele>586.6666666666666</ele><time>2026-04-12T12:20:16.995Z</time></trkpt><trkpt lat="44.6646817" lon="8.1338717"><ele>583.3333333333334</ele><time>2026-04-12T12:20:17.996Z</time></trkpt><trkpt lat="44.6648333" lon="8.133835"><ele>580.0</ele><time>2026-04-12T12:20:18.997Z</time></trkpt><trkpt lat="44.6649817" lon="8.1338367"><ele>580.0</ele><time>2026-04-12T12:20:19.995Z</time></trkpt><trkpt lat="44.6651267" lon="8.1338783"><ele>580.0</ele><time>2026-04-12T12:20:21Z</time></trkpt><trkpt lat="44.66526" lon="8.1339633"><ele>580.0</ele><time>2026-04-12T12:20:21.994Z</time></trkpt><trkpt lat="44.6653817" lon="8.1340883"><ele>580.0</ele><time>2026-04-12T12:20:22.994Z</time></trkpt><trkpt lat="44.6654883" lon="8.1342433"><ele>580.0</ele><time>2026-04-12T12:20:23.996Z</time></trkpt><trkpt lat="44.665595" lon="8.1344217"><ele>580.0</ele><time>2026-04-12T12:20:24.997Z</time></trkpt><trkpt lat="44.6656967" lon="8.1346117"><ele>580.0</ele><time>2026-04-12T12:20:25.996Z</time></trkpt><trkpt lat="44.6658017" lon="8.1348083"><ele>581.0</ele><time>2026-04-12T12:20:26.996Z</time></trkpt><trkpt lat="44.665905" lon="8.13501"><ele>582.0</ele><time>2026-04-12T12:20:27.997Z</time></trkpt><trkpt lat="44.6660067" lon="8.1352167"><ele>583.0</ele><time>2026-04-12T12:20:28.997Z</time></trkpt><trkpt lat="44.6661017" lon="8.1354267"><ele>584.3333333333334</ele><time>2026-04-12T12:20:29.999Z</time></trkpt><trkpt lat="44.666195" lon="8.13564"><ele>585.6666666666666</ele><time>2026-04-12T12:20:31Z</time></trkpt><trkpt lat="44.6662867" lon="8.13585"><ele>587.0</ele><time>2026-04-12T12:20:31.998Z</time></trkpt><trkpt lat="44.666385" lon="8.1360433"><ele>587.0</ele><time>2026-04-12T12:20:32.997Z</time></trkpt><trkpt lat="44.666495" lon="8.1362217"><ele>587.0</ele><time>2026-04-12T12:20:33.996Z</time></trkpt><trkpt lat="44.6666183" lon="8.1363867"><ele>587.0</ele><time>2026-04-12T12:20:34.997Z</time></trkpt><trkpt lat="44.6667433" lon="8.13655"><ele>584.6666666666666</ele><time>2026-04-12T12:20:35.999Z</time></trkpt><trkpt lat="44.6668683" lon="8.1367217"><ele>582.3333333333334</ele><time>2026-04-12T12:20:36.998Z</time></trkpt><trkpt lat="44.6669883" lon="8.1369117"><ele>580.0</ele><time>2026-04-12T12:20:37.997Z</time></trkpt><trkpt lat="44.6671033" lon="8.1371167"><ele>580.0</ele><time>2026-04-12T12:20:38.997Z</time></trkpt><trkpt lat="44.6672133" lon="8.1373333"><ele>580.0</ele><time>2026-04-12T12:20:40.005Z</time></trkpt><trkpt lat="44.6673133" lon="8.137555"><ele>580.0</ele><time>2026-04-12T12:20:40.995Z</time></trkpt><trkpt lat="44.6674133" lon="8.137775"><ele>580.0</ele><time>2026-04-12T12:20:42.002Z</time></trkpt><trkpt lat="44.66751" lon="8.1379983"><ele>580.0</ele><time>2026-04-12T12:20:43.007Z</time></trkpt><trkpt lat="44.6676033" lon="8.1382183"><ele>580.0</ele><time>2026-04-12T12:20:43.999Z</time></trkpt><trkpt lat="44.6676983" lon="8.1384333"><ele>579.0</ele><time>2026-04-12T12:20:44.997Z</time></trkpt><trkpt lat="44.6677917" lon="8.13864"><ele>578.0</ele><time>2026-04-12T12:20:45.997Z</time></trkpt><trkpt lat="44.6678767" lon="8.1388467"><ele>577.0</ele><time>2026-04-12T12:20:46.997Z</time></trkpt><trkpt lat="44.6679633" lon="8.1390483"><ele>579.6666666666667</ele><time>2026-04-12T12:20:47.994Z</time></trkpt><trkpt lat="44.668045" lon="8.1392467"><ele>582.3333333333334</ele><time>2026-04-12T12:20:48.998Z</time></trkpt><trkpt lat="44.668125" lon="8.1394367"><ele>585.0</ele><time>2026-04-12T12:20:49.997Z</time></trkpt><trkpt lat="44.6681983" lon="8.1396217"><ele>585.0</ele><time>2026-04-12T12:20:51Z</time></trkpt><trkpt lat="44.6682733" lon="8.1397983"><ele>585.0</ele><time>2026-04-12T12:20:52Z</time></trkpt><trkpt lat="44.6683467" lon="8.1399667"><ele>585.0</ele><time>2026-04-12T12:20:52.998Z</time></trkpt><trkpt lat="44.6684217" lon="8.1401233"><ele>585.0</ele><time>2026-04-12T12:20:53.997Z</time></trkpt><trkpt lat="44.6685" lon="8.1402633"><ele>585.3333333333334</ele><time>2026-04-12T12:20:54.996Z</time></trkpt><trkpt lat="44.6685833" lon="8.1403733"><ele>585.6666666666666</ele><time>2026-04-12T12:20:55.997Z</time></trkpt><trkpt lat="44.6686567" lon="8.1404533"><ele>586.0</ele><time>2026-04-12T12:20:56.998Z</time></trkpt><trkpt lat="44.668725" lon="8.1405183"><ele>586.3333333333333</ele><time>2026-04-12T12:20:57.997Z</time></trkpt><trkpt lat="44.6687867" lon="8.1405717"><ele>586.6666666666666</ele><time>2026-04-12T12:20:58.995Z</time></trkpt><trkpt lat="44.6688533" lon="8.140605"><ele>587.0</ele><time>2026-04-12T12:20:59.997Z</time></trkpt><trkpt lat="44.6689267" lon="8.1405383"><ele>587.0</ele><time>2026-04-12T12:21:00.998Z</time></trkpt><trkpt lat="44.6689983" lon="8.1404667"><ele>587.0</ele><time>2026-04-12T12:21:01.998Z</time></trkpt><trkpt lat="44.6690783" lon="8.1403867"><ele>587.0</ele><time>2026-04-12T12:21:02.995Z</time></trkpt><trkpt lat="44.66919" lon="8.1402567"><ele>587.0</ele><time>2026-04-12T12:21:03.998Z</time></trkpt><trkpt lat="44.6693117" lon="8.140145"><ele>587.0</ele><time>2026-04-12T12:21:04.996Z</time></trkpt><trkpt lat="44.6694383" lon="8.1400333"><ele>587.0</ele><time>2026-04-12T12:21:05.997Z</time></trkpt><trkpt lat="44.6695767" lon="8.139925"><ele>587.0</ele><time>2026-04-12T12:21:06.995Z</time></trkpt><trkpt lat="44.6697233" lon="8.1398217"><ele>581.6666666666666</ele><time>2026-04-12T12:21:07.995Z</time></trkpt><trkpt lat="44.6698733" lon="8.1397217"><ele>576.3333333333334</ele><time>2026-04-12T12:21:08.996Z</time></trkpt><trkpt lat="44.67003" lon="8.1396367"><ele>571.0</ele><time>2026-04-12T12:21:09.998Z</time></trkpt><trkpt lat="44.670185" lon="8.1395617"><ele>573.6666666666667</ele><time>2026-04-12T12:21:10.99Z</time></trkpt><trkpt lat="44.6703433" lon="8.13948"><ele>576.3333333333334</ele><time>2026-04-12T12:21:11.996Z</time></trkpt><trkpt lat="44.6704967" lon="8.1393833"><ele>579.0</ele><time>2026-04-12T12:21:12.991Z</time></trkpt><trkpt lat="44.67065" lon="8.1392783"><ele>579.0</ele><time>2026-04-12T12:21:13.998Z</time></trkpt><trkpt lat="44.6708" lon="8.1391667"><ele>579.0</ele><time>2026-04-12T12:21:14.997Z</time></trkpt><trkpt lat="44.6709483" lon="8.1390517"><ele>579.0</ele><time>2026-04-12T12:21:15.997Z</time></trkpt><trkpt lat="44.6710983" lon="8.1389383"><ele>574.0</ele><time>2026-04-12T12:21:17Z</time></trkpt><trkpt lat="44.6712533" lon="8.13882"><ele>569.0</ele><time>2026-04-12T12:21:18.006Z</time></trkpt><trkpt lat="44.6714067" lon="8.138705"><ele>564.0</ele><time>2026-04-12T12:21:18.996Z</time></trkpt><trkpt lat="44.671565" lon="8.138595"><ele>564.0</ele><time>2026-04-12T12:21:19.997Z</time></trkpt><trkpt lat="44.6717217" lon="8.1384883"><ele>564.0</ele><time>2026-04-12T12:21:21.001Z</time></trkpt><trkpt lat="44.6718833" lon="8.1383917"><ele>564.0</ele><time>2026-04-12T12:21:21.994Z</time></trkpt><trkpt lat="44.6720467" lon="8.1383083"><ele>564.0</ele><time>2026-04-12T12:21:22.997Z</time></trkpt><trkpt lat="44.672215" lon="8.13824"><ele>564.0</ele><time>2026-04-12T12:21:23.995Z</time></trkpt><trkpt lat="44.6723817" lon="8.13819"><ele>564.0</ele><time>2026-04-12T12:21:24.997Z</time></trkpt><trkpt lat="44.6725567" lon="8.1381533"><ele>560.0</ele><time>2026-04-12T12:21:25.997Z</time></trkpt><trkpt lat="44.6727283" lon="8.1381267"><ele>556.0</ele><time>2026-04-12T12:21:26.997Z</time></trkpt><trkpt lat="44.6728933" lon="8.13808"><ele>552.0</ele><time>2026-04-12T12:21:27.997Z</time></trkpt><trkpt lat="44.67305" lon="8.1379967"><ele>552.0</ele><time>2026-04-12T12:21:28.993Z</time></trkpt><trkpt lat="44.6732033" lon="8.137885"><ele>552.0</ele><time>2026-04-12T12:21:29.995Z</time></trkpt><trkpt lat="44.6733533" lon="8.1377517"><ele>552.0</ele><time>2026-04-12T12:21:30.995Z</time></trkpt><trkpt lat="44.6735017" lon="8.1376133"><ele>552.6666666666666</ele><time>2026-04-12T12:21:31.996Z</time></trkpt><trkpt lat="44.67365" lon="8.1374817"><ele>553.3333333333333</ele><time>2026-04-12T12:21:32.995Z</time></trkpt><trkpt lat="44.6737967" lon="8.1373667"><ele>554.0</ele><time>2026-04-12T12:21:33.996Z</time></trkpt><trkpt lat="44.6739417" lon="8.137275"><ele>551.0</ele><time>2026-04-12T12:21:34.994Z</time></trkpt><trkpt lat="44.6740883" lon="8.1372017"><ele>548.0</ele><time>2026-04-12T12:21:35.998Z</time></trkpt><trkpt lat="44.6742317" lon="8.13714"><ele>545.0</ele><time>2026-04-12T12:21:36.998Z</time></trkpt><trkpt lat="44.67437" lon="8.1370817"><ele>546.0</ele><time>2026-04-12T12:21:37.999Z</time></trkpt><trkpt lat="44.6745067" lon="8.1370267"><ele>547.0</ele><time>2026-04-12T12:21:38.997Z</time></trkpt><trkpt lat="44.67464" lon="8.1369767"><ele>548.0</ele><time>2026-04-12T12:21:39.996Z</time></trkpt><trkpt lat="44.6747683" lon="8.136925"><ele>549.0</ele><time>2026-04-12T12:21:40.997Z</time></trkpt><trkpt lat="44.6748867" lon="8.1368717"><ele>549.0</ele><time>2026-04-12T12:21:41.998Z</time></trkpt><trkpt lat="44.674985" lon="8.1368467"><ele>549.0</ele><time>2026-04-12T12:21:43.001Z</time></trkpt><trkpt lat="44.6750633" lon="8.136855"><ele>549.0</ele><time>2026-04-12T12:21:44.001Z</time></trkpt><trkpt lat="44.6751317" lon="8.1368917"><ele>549.0</ele><time>2026-04-12T12:21:44.996Z</time></trkpt><trkpt lat="44.675185" lon="8.13695"><ele>549.0</ele><time>2026-04-12T12:21:45.996Z</time></trkpt><trkpt lat="44.6752067" lon="8.1370333"><ele>549.0</ele><time>2026-04-12T12:21:46.994Z</time></trkpt><trkpt lat="44.6751817" lon="8.1371633"><ele>546.6666666666666</ele><time>2026-04-12T12:21:47.997Z</time></trkpt><trkpt lat="44.67504" lon="8.1373983"><ele>544.3333333333333</ele><time>2026-04-12T12:21:48.996Z</time></trkpt><trkpt lat="44.6749867" lon="8.1375783"><ele>542.0</ele><time>2026-04-12T12:21:49.996Z</time></trkpt><trkpt lat="44.6749367" lon="8.1377667"><ele>542.0</ele><time>2026-04-12T12:21:50.997Z</time></trkpt><trkpt lat="44.6748683" lon="8.1379517"><ele>542.0</ele><time>2026-04-12T12:21:51.999Z</time></trkpt><trkpt lat="44.6748133" lon="8.1381283"><ele>542.0</ele><time>2026-04-12T12:21:52.996Z</time></trkpt><trkpt lat="44.6747567" lon="8.1383"><ele>542.0</ele><time>2026-04-12T12:21:53.995Z</time></trkpt><trkpt lat="44.6747033" lon="8.1384667"><ele>540.4</ele><time>2026-04-12T12:21:54.997Z</time></trkpt><trkpt lat="44.674655" lon="8.13862"><ele>538.8000000000001</ele><time>2026-04-12T12:21:55.997Z</time></trkpt><trkpt lat="44.6746283" lon="8.1387617"><ele>537.2</ele><time>2026-04-12T12:21:56.998Z</time></trkpt><trkpt lat="44.67464" lon="8.138875"><ele>535.6</ele><time>2026-04-12T12:21:57.996Z</time></trkpt><trkpt lat="44.6746533" lon="8.13899"><ele>534.0</ele><time>2026-04-12T12:21:58.996Z</time></trkpt><trkpt lat="44.67472" lon="8.13902"><ele>534.0</ele><time>2026-04-12T12:21:59.997Z</time></trkpt><trkpt lat="44.6747883" lon="8.1390333"><ele>534.0</ele><time>2026-04-12T12:22:00.998Z</time></trkpt><trkpt lat="44.6748633" lon="8.1389333"><ele>534.0</ele><time>2026-04-12T12:22:01.996Z</time></trkpt><trkpt lat="44.6749233" lon="8.138825"><ele>534.0</ele><time>2026-04-12T12:22:03.001Z</time></trkpt><trkpt lat="44.6749767" lon="8.1387067"><ele>534.0</ele><time>2026-04-12T12:22:03.998Z</time></trkpt><trkpt lat="44.6750433" lon="8.13858"><ele>534.0</ele><time>2026-04-12T12:22:04.995Z</time></trkpt><trkpt lat="44.6751283" lon="8.1384633"><ele>534.0</ele><time>2026-04-12T12:22:06.001Z</time></trkpt><trkpt lat="44.6752083" lon="8.1383717"><ele>534.0</ele><time>2026-04-12T12:22:06.996Z</time></trkpt><trkpt lat="44.67528" lon="8.13832"><ele>534.0</ele><time>2026-04-12T12:22:08Z</time></trkpt><trkpt lat="44.67539" lon="8.1382333"><ele>534.0</ele><time>2026-04-12T12:22:09.997Z</time></trkpt><trkpt lat="44.67546" lon="8.138185"><ele>534.0</ele><time>2026-04-12T12:22:10.999Z</time></trkpt><trkpt lat="44.675545" lon="8.1381217"><ele>534.0</ele><time>2026-04-12T12:22:11.998Z</time></trkpt><trkpt lat="44.6756533" lon="8.1380517"><ele>534.0</ele><time>2026-04-12T12:22:12.996Z</time></trkpt><trkpt lat="44.6757717" lon="8.13799"><ele>534.0</ele><time>2026-04-12T12:22:13.997Z</time></trkpt><trkpt lat="44.6759" lon="8.1379517"><ele>534.0</ele><time>2026-04-12T12:22:15Z</time></trkpt><trkpt lat="44.6760383" lon="8.1379483"><ele>534.0</ele><time>2026-04-12T12:22:16.005Z</time></trkpt><trkpt lat="44.6761817" lon="8.1379833"><ele>534.0</ele><time>2026-04-12T12:22:17Z</time></trkpt><trkpt lat="44.6763317" lon="8.1380533"><ele>534.0</ele><time>2026-04-12T12:22:17.998Z</time></trkpt><trkpt lat="44.6764733" lon="8.138135"><ele>532.25</ele><time>2026-04-12T12:22:18.999Z</time></trkpt><trkpt lat="44.6766133" lon="8.13821"><ele>530.5</ele><time>2026-04-12T12:22:19.994Z</time></trkpt><trkpt lat="44.6767567" lon="8.138265"><ele>528.75</ele><time>2026-04-12T12:22:21Z</time></trkpt><trkpt lat="44.676905" lon="8.1382867"><ele>527.0</ele><time>2026-04-12T12:22:22.002Z</time></trkpt><trkpt lat="44.6770483" lon="8.13827"><ele>522.75</ele><time>2026-04-12T12:22:22.996Z</time></trkpt><trkpt lat="44.67719" lon="8.1382383"><ele>518.5</ele><time>2026-04-12T12:22:23.999Z</time></trkpt><trkpt lat="44.6773267" lon="8.1382167"><ele>514.25</ele><time>2026-04-12T12:22:25Z</time></trkpt><trkpt lat="44.67744" lon="8.138225"><ele>510.0</ele><time>2026-04-12T12:22:25.999Z</time></trkpt><trkpt lat="44.6775333" lon="8.1382683"><ele>509.3333333333333</ele><time>2026-04-12T12:22:27.002Z</time></trkpt><trkpt lat="44.6776017" lon="8.1383433"><ele>508.66666666666663</ele><time>2026-04-12T12:22:27.999Z</time></trkpt><trkpt lat="44.677655" lon="8.1384317"><ele>508.0</ele><time>2026-04-12T12:22:28.997Z</time></trkpt><trkpt lat="44.677645" lon="8.138545"><ele>507.3333333333333</ele><time>2026-04-12T12:22:30Z</time></trkpt><trkpt lat="44.6776" lon="8.1386433"><ele>506.66666666666663</ele><time>2026-04-12T12:22:30.999Z</time></trkpt><trkpt lat="44.67754" lon="8.1387233"><ele>506.0</ele><time>2026-04-12T12:22:32Z</time></trkpt><trkpt lat="44.6774517" lon="8.1387617"><ele>506.0</ele><time>2026-04-12T12:22:32.997Z</time></trkpt><trkpt lat="44.6772933" lon="8.13877"><ele>506.0</ele><time>2026-04-12T12:22:33.994Z</time></trkpt><trkpt lat="44.677155" lon="8.1387883"><ele>506.0</ele><time>2026-04-12T12:22:35Z</time></trkpt><trkpt lat="44.6769967" lon="8.13881"><ele>508.66666666666663</ele><time>2026-04-12T12:22:36Z</time></trkpt><trkpt lat="44.6768367" lon="8.1388317"><ele>511.33333333333337</ele><time>2026-04-12T12:22:36.999Z</time></trkpt><trkpt lat="44.67668" lon="8.1388517"><ele>514.0</ele><time>2026-04-12T12:22:37.997Z</time></trkpt><trkpt lat="44.6765433" lon="8.1388717"><ele>514.0</ele><time>2026-04-12T12:22:38.999Z</time></trkpt><trkpt lat="44.6764417" lon="8.1389067"><ele>514.0</ele><time>2026-04-12T12:22:39.999Z</time></trkpt><trkpt lat="44.6763583" lon="8.138975"><ele>514.0</ele><time>2026-04-12T12:22:41.001Z</time></trkpt><trkpt lat="44.6763083" lon="8.1390717"><ele>514.0</ele><time>2026-04-12T12:22:41.995Z</time></trkpt><trkpt lat="44.6762717" lon="8.1391767"><ele>514.0</ele><time>2026-04-12T12:22:42.996Z</time></trkpt><trkpt lat="44.6763" lon="8.1392817"><ele>514.0</ele><time>2026-04-12T12:22:43.998Z</time></trkpt><trkpt lat="44.6763683" lon="8.1393533"><ele>510.0</ele><time>2026-04-12T12:22:44.997Z</time></trkpt><trkpt lat="44.6764817" lon="8.13938"><ele>506.0</ele><time>2026-04-12T12:22:45.994Z</time></trkpt><trkpt lat="44.6766117" lon="8.139365"><ele>502.0</ele><time>2026-04-12T12:22:46.995Z</time></trkpt><trkpt lat="44.6767517" lon="8.1393183"><ele>498.0</ele><time>2026-04-12T12:22:48.002Z</time></trkpt><trkpt lat="44.6768967" lon="8.13928"><ele>497.0</ele><time>2026-04-12T12:22:49.001Z</time></trkpt><trkpt lat="44.6770433" lon="8.139255"><ele>496.0</ele><time>2026-04-12T12:22:49.995Z</time></trkpt><trkpt lat="44.6771967" lon="8.1392567"><ele>495.0</ele><time>2026-04-12T12:22:50.998Z</time></trkpt><trkpt lat="44.6773433" lon="8.1392917"><ele>495.0</ele><time>2026-04-12T12:22:51.996Z</time></trkpt><trkpt lat="44.677485" lon="8.1393667"><ele>495.0</ele><time>2026-04-12T12:22:52.997Z</time></trkpt><trkpt lat="44.677625" lon="8.139475"><ele>495.0</ele><time>2026-04-12T12:22:53.998Z</time></trkpt><trkpt lat="44.6777667" lon="8.139605"><ele>496.0</ele><time>2026-04-12T12:22:55.001Z</time></trkpt><trkpt lat="44.6779083" lon="8.13974"><ele>497.0</ele><time>2026-04-12T12:22:55.997Z</time></trkpt><trkpt lat="44.6780517" lon="8.1398783"><ele>498.0</ele><time>2026-04-12T12:22:57Z</time></trkpt><trkpt lat="44.6781967" lon="8.140005"><ele>493.33333333333337</ele><time>2026-04-12T12:22:57.995Z</time></trkpt><trkpt lat="44.67834" lon="8.1401067"><ele>488.6666666666667</ele><time>2026-04-12T12:22:58.997Z</time></trkpt><trkpt lat="44.6784917" lon="8.1401733"><ele>484.0</ele><time>2026-04-12T12:22:59.994Z</time></trkpt><trkpt lat="44.6786417" lon="8.1402183"><ele>482.5</ele><time>2026-04-12T12:23:01.005Z</time></trkpt><trkpt lat="44.6787883" lon="8.1402517"><ele>481.0</ele><time>2026-04-12T12:23:01.997Z</time></trkpt><trkpt lat="44.6789317" lon="8.1402867"><ele>479.5</ele><time>2026-04-12T12:23:02.998Z</time></trkpt><trkpt lat="44.679075" lon="8.140335"><ele>478.0</ele><time>2026-04-12T12:23:03.998Z</time></trkpt><trkpt lat="44.679205" lon="8.1404233"><ele>478.0</ele><time>2026-04-12T12:23:05.001Z</time></trkpt><trkpt lat="44.6793433" lon="8.1405183"><ele>478.0</ele><time>2026-04-12T12:23:05.998Z</time></trkpt><trkpt lat="44.6794783" lon="8.140625"><ele>478.0</ele><time>2026-04-12T12:23:06.998Z</time></trkpt><trkpt lat="44.6796183" lon="8.1407317"><ele>475.6666666666667</ele><time>2026-04-12T12:23:07.998Z</time></trkpt><trkpt lat="44.6797533" lon="8.1408467"><ele>473.33333333333337</ele><time>2026-04-12T12:23:09.002Z</time></trkpt><trkpt lat="44.6798933" lon="8.140975"><ele>471.0</ele><time>2026-04-12T12:23:10.001Z</time></trkpt><trkpt lat="44.680025" lon="8.1411083"><ele>471.0</ele><time>2026-04-12T12:23:10.995Z</time></trkpt><trkpt lat="44.6801567" lon="8.1412533"><ele>471.0</ele><time>2026-04-12T12:23:11.997Z</time></trkpt><trkpt lat="44.680285" lon="8.141395"><ele>471.0</ele><time>2026-04-12T12:23:13.002Z</time></trkpt><trkpt lat="44.68041" lon="8.141545"><ele>472.0</ele><time>2026-04-12T12:23:14Z</time></trkpt><trkpt lat="44.6805317" lon="8.141695"><ele>473.0</ele><time>2026-04-12T12:23:15Z</time></trkpt><trkpt lat="44.68065" lon="8.1418483"><ele>474.0</ele><time>2026-04-12T12:23:15.999Z</time></trkpt><trkpt lat="44.680765" lon="8.14201"><ele>474.0</ele><time>2026-04-12T12:23:17.002Z</time></trkpt><trkpt lat="44.6808733" lon="8.1421767"><ele>474.0</ele><time>2026-04-12T12:23:18Z</time></trkpt><trkpt lat="44.6809733" lon="8.142355"><ele>474.0</ele><time>2026-04-12T12:23:18.997Z</time></trkpt><trkpt lat="44.6810683" lon="8.1425383"><ele>478.0</ele><time>2026-04-12T12:23:20.002Z</time></trkpt><trkpt lat="44.68116" lon="8.142725"><ele>482.0</ele><time>2026-04-12T12:23:20.997Z</time></trkpt><trkpt lat="44.6812417" lon="8.142925"><ele>486.0</ele><time>2026-04-12T12:23:22.003Z</time></trkpt><trkpt lat="44.6813183" lon="8.1431283"><ele>485.33333333333337</ele><time>2026-04-12T12:23:22.993Z</time></trkpt><trkpt lat="44.6813933" lon="8.143335"><ele>484.6666666666667</ele><time>2026-04-12T12:23:24.008Z</time></trkpt><trkpt lat="44.6814583" lon="8.1435567"><ele>484.0</ele><time>2026-04-12T12:23:25.001Z</time></trkpt><trkpt lat="44.6815133" lon="8.1437817"><ele>484.0</ele><time>2026-04-12T12:23:25.996Z</time></trkpt><trkpt lat="44.6815733" lon="8.1440017"><ele>484.0</ele><time>2026-04-12T12:23:26.996Z</time></trkpt><trkpt lat="44.6816417" lon="8.144215"><ele>484.0</ele><time>2026-04-12T12:23:27.996Z</time></trkpt><trkpt lat="44.6817167" lon="8.1444133"><ele>482.5</ele><time>2026-04-12T12:23:28.995Z</time></trkpt><trkpt lat="44.681795" lon="8.144595"><ele>481.0</ele><time>2026-04-12T12:23:29.995Z</time></trkpt><trkpt lat="44.6818817" lon="8.1447667"><ele>479.5</ele><time>2026-04-12T12:23:30.998Z</time></trkpt><trkpt lat="44.6819633" lon="8.1449333"><ele>478.0</ele><time>2026-04-12T12:23:31.998Z</time></trkpt><trkpt lat="44.6820383" lon="8.1451017"><ele>477.75</ele><time>2026-04-12T12:23:32.997Z</time></trkpt><trkpt lat="44.6821017" lon="8.1452733"><ele>477.5</ele><time>2026-04-12T12:23:33.994Z</time></trkpt><trkpt lat="44.68216" lon="8.1454467"><ele>477.25</ele><time>2026-04-12T12:23:34.996Z</time></trkpt><trkpt lat="44.682215" lon="8.1456233"><ele>477.0</ele><time>2026-04-12T12:23:35.997Z</time></trkpt><trkpt lat="44.6822683" lon="8.1457917"><ele>477.0</ele><time>2026-04-12T12:23:36.995Z</time></trkpt><trkpt lat="44.682315" lon="8.14594"><ele>477.00000000000006</ele><time>2026-04-12T12:23:37.998Z</time></trkpt><trkpt lat="44.6823567" lon="8.1460633"><ele>477.00000000000006</ele><time>2026-04-12T12:23:38.998Z</time></trkpt><trkpt lat="44.6823867" lon="8.1461867"><ele>477.0</ele><time>2026-04-12T12:23:39.997Z</time></trkpt><trkpt lat="44.6824217" lon="8.1463017"><ele>477.0</ele><time>2026-04-12T12:23:40.997Z</time></trkpt><trkpt lat="44.6824517" lon="8.146415"><ele>477.0</ele><time>2026-04-12T12:23:41.994Z</time></trkpt><trkpt lat="44.6824783" lon="8.1465283"><ele>477.00000000000006</ele><time>2026-04-12T12:23:42.995Z</time></trkpt><trkpt lat="44.6825117" lon="8.1466417"><ele>477.00000000000006</ele><time>2026-04-12T12:23:43.997Z</time></trkpt><trkpt lat="44.6825433" lon="8.14676"><ele>477.0</ele><time>2026-04-12T12:23:44.999Z</time></trkpt><trkpt lat="44.68258" lon="8.1468833"><ele>477.0</ele><time>2026-04-12T12:23:45.999Z</time></trkpt><trkpt lat="44.6826167" lon="8.1470117"><ele>478.5</ele><time>2026-04-12T12:23:46.995Z</time></trkpt><trkpt lat="44.6826467" lon="8.1471333"><ele>480.0</ele><time>2026-04-12T12:23:48.001Z</time></trkpt><trkpt lat="44.6826633" lon="8.147255"><ele>481.5</ele><time>2026-04-12T12:23:48.996Z</time></trkpt><trkpt lat="44.6826733" lon="8.1473717"><ele>483.0</ele><time>2026-04-12T12:23:49.998Z</time></trkpt><trkpt lat="44.6826583" lon="8.14749"><ele>484.5</ele><time>2026-04-12T12:23:50.996Z</time></trkpt><trkpt lat="44.6826333" lon="8.1476067"><ele>486.0</ele><time>2026-04-12T12:23:51.996Z</time></trkpt><trkpt lat="44.6826" lon="8.14772"><ele>487.1666666666667</ele><time>2026-04-12T12:23:52.993Z</time></trkpt><trkpt lat="44.6825617" lon="8.1478333"><ele>488.33333333333337</ele><time>2026-04-12T12:23:54Z</time></trkpt><trkpt lat="44.6825317" lon="8.147945"><ele>489.5</ele><time>2026-04-12T12:23:55Z</time></trkpt><trkpt lat="44.682525" lon="8.1480583"><ele>490.6666666666667</ele><time>2026-04-12T12:23:56Z</time></trkpt><trkpt lat="44.6825433" lon="8.1481617"><ele>491.83333333333337</ele><time>2026-04-12T12:23:56.995Z</time></trkpt><trkpt lat="44.682575" lon="8.1482617"><ele>493.0</ele><time>2026-04-12T12:23:57.996Z</time></trkpt><trkpt lat="44.68263" lon="8.14834"><ele>493.50000000000006</ele><time>2026-04-12T12:23:58.996Z</time></trkpt><trkpt lat="44.68271" lon="8.148385"><ele>494.0</ele><time>2026-04-12T12:23:59.998Z</time></trkpt><trkpt lat="44.6827833" lon="8.148445"><ele>494.5</ele><time>2026-04-12T12:24:00.999Z</time></trkpt><trkpt lat="44.6828667" lon="8.1485"><ele>495.0</ele><time>2026-04-12T12:24:02Z</time></trkpt><trkpt lat="44.6829483" lon="8.1485583"><ele>495.50000000000006</ele><time>2026-04-12T12:24:03.001Z</time></trkpt><trkpt lat="44.683025" lon="8.1486217"><ele>496.0</ele><time>2026-04-12T12:24:03.995Z</time></trkpt><trkpt lat="44.6831067" lon="8.1486833"><ele>496.6</ele><time>2026-04-12T12:24:04.997Z</time></trkpt><trkpt lat="44.683195" lon="8.1487433"><ele>497.20000000000005</ele><time>2026-04-12T12:24:05.998Z</time></trkpt><trkpt lat="44.6832833" lon="8.1488"><ele>497.79999999999995</ele><time>2026-04-12T12:24:07Z</time></trkpt><trkpt lat="44.6833667" lon="8.1488517"><ele>498.4</ele><time>2026-04-12T12:24:07.999Z</time></trkpt><trkpt lat="44.6834517" lon="8.1489033"><ele>499.0</ele><time>2026-04-12T12:24:08.999Z</time></trkpt><trkpt lat="44.6835433" lon="8.14893"><ele>497.33333333333337</ele><time>2026-04-12T12:24:09.998Z</time></trkpt><trkpt lat="44.6836283" lon="8.1489467"><ele>495.6666666666667</ele><time>2026-04-12T12:24:10.998Z</time></trkpt><trkpt lat="44.6837083" lon="8.1489683"><ele>494.0</ele><time>2026-04-12T12:24:11.997Z</time></trkpt><trkpt lat="44.6837833" lon="8.1489817"><ele>492.33333333333337</ele><time>2026-04-12T12:24:12.998Z</time></trkpt><trkpt lat="44.6838633" lon="8.148995"><ele>490.6666666666667</ele><time>2026-04-12T12:24:13.997Z</time></trkpt><trkpt lat="44.6839367" lon="8.1490017"><ele>489.0</ele><time>2026-04-12T12:24:15.001Z</time></trkpt><trkpt lat="44.6840033" lon="8.1490133"><ele>489.0</ele><time>2026-04-12T12:24:16Z</time></trkpt><trkpt lat="44.6840767" lon="8.14902"><ele>489.0</ele><time>2026-04-12T12:24:16.995Z</time></trkpt><trkpt lat="44.684145" lon="8.1490117"><ele>489.0</ele><time>2026-04-12T12:24:17.999Z</time></trkpt><trkpt lat="44.68422" lon="8.1490033"><ele>489.0</ele><time>2026-04-12T12:24:19.002Z</time></trkpt><trkpt lat="44.6842983" lon="8.1489967"><ele>489.0</ele><time>2026-04-12T12:24:20Z</time></trkpt><trkpt lat="44.6843833" lon="8.14898"><ele>489.0</ele><time>2026-04-12T12:24:21.004Z</time></trkpt><trkpt lat="44.6844783" lon="8.1489667"><ele>489.0</ele><time>2026-04-12T12:24:21.996Z</time></trkpt><trkpt lat="44.68457" lon="8.1489333"><ele>489.0</ele><time>2026-04-12T12:24:23.004Z</time></trkpt><trkpt lat="44.6846583" lon="8.148895"><ele>489.0</ele><time>2026-04-12T12:24:24.002Z</time></trkpt><trkpt lat="44.6847583" lon="8.1488633"><ele>489.0</ele><time>2026-04-12T12:24:25.001Z</time></trkpt><trkpt lat="44.6848533" lon="8.1488433"><ele>489.0</ele><time>2026-04-12T12:24:25.998Z</time></trkpt><trkpt lat="44.6849583" lon="8.1488183"><ele>489.0</ele><time>2026-04-12T12:24:27.001Z</time></trkpt><trkpt lat="44.6850583" lon="8.1488067"><ele>489.0</ele><time>2026-04-12T12:24:28.003Z</time></trkpt><trkpt lat="44.6851533" lon="8.1487833"><ele>489.0</ele><time>2026-04-12T12:24:28.996Z</time></trkpt><trkpt lat="44.68525" lon="8.1487717"><ele>489.0</ele><time>2026-04-12T12:24:30Z</time></trkpt><trkpt lat="44.6853383" lon="8.1487767"><ele>489.0</ele><time>2026-04-12T12:24:31.001Z</time></trkpt><trkpt lat="44.685435" lon="8.1487883"><ele>491.6</ele><time>2026-04-12T12:24:32.006Z</time></trkpt><trkpt lat="44.6855367" lon="8.1487817"><ele>494.2</ele><time>2026-04-12T12:24:33.004Z</time></trkpt><trkpt lat="44.6856333" lon="8.148745"><ele>496.80000000000007</ele><time>2026-04-12T12:24:34.007Z</time></trkpt><trkpt lat="44.68573" lon="8.1487467"><ele>499.40000000000003</ele><time>2026-04-12T12:24:35.001Z</time></trkpt><trkpt lat="44.6858217" lon="8.1487367"><ele>502.0</ele><time>2026-04-12T12:24:36Z</time></trkpt><trkpt lat="44.6859233" lon="8.1487383"><ele>502.0</ele><time>2026-04-12T12:24:36.999Z</time></trkpt><trkpt lat="44.685995" lon="8.1487633"><ele>502.00000000000006</ele><time>2026-04-12T12:24:37.998Z</time></trkpt><trkpt lat="44.6860767" lon="8.14875"><ele>502.00000000000006</ele><time>2026-04-12T12:24:39.001Z</time></trkpt><trkpt lat="44.6861617" lon="8.1487367"><ele>502.0</ele><time>2026-04-12T12:24:40.001Z</time></trkpt><trkpt lat="44.6862583" lon="8.148705"><ele>502.0</ele><time>2026-04-12T12:24:40.998Z</time></trkpt><trkpt lat="44.6863567" lon="8.148635"><ele>502.0</ele><time>2026-04-12T12:24:42Z</time></trkpt><trkpt lat="44.6864583" lon="8.1485567"><ele>502.00000000000006</ele><time>2026-04-12T12:24:42.998Z</time></trkpt><trkpt lat="44.686555" lon="8.148485"><ele>502.00000000000006</ele><time>2026-04-12T12:24:43.996Z</time></trkpt><trkpt lat="44.6866517" lon="8.1484133"><ele>502.0</ele><time>2026-04-12T12:24:44.996Z</time></trkpt><trkpt lat="44.6867467" lon="8.148345"><ele>502.0</ele><time>2026-04-12T12:24:45.997Z</time></trkpt><trkpt lat="44.6868333" lon="8.1482867"><ele>502.00000000000006</ele><time>2026-04-12T12:24:46.999Z</time></trkpt><trkpt lat="44.686905" lon="8.1482317"><ele>502.0</ele><time>2026-04-12T12:24:47.996Z</time></trkpt><trkpt lat="44.6869667" lon="8.1481833"><ele>502.0</ele><time>2026-04-12T12:24:49Z</time></trkpt><trkpt lat="44.6870233" lon="8.1481317"><ele>502.0</ele><time>2026-04-12T12:24:49.997Z</time></trkpt><trkpt lat="44.6870767" lon="8.1480767"><ele>502.00000000000006</ele><time>2026-04-12T12:24:50.998Z</time></trkpt><trkpt lat="44.687165" lon="8.1480017"><ele>502.0</ele><time>2026-04-12T12:24:53.002Z</time></trkpt><trkpt lat="44.687235" lon="8.1479983"><ele>501.40000000000003</ele><time>2026-04-12T12:24:55.996Z</time></trkpt><trkpt lat="44.6872" lon="8.1480833"><ele>500.80000000000007</ele><time>2026-04-12T12:24:57.995Z</time></trkpt><trkpt lat="44.6871317" lon="8.1481783"><ele>500.2</ele><time>2026-04-12T12:24:59.999Z</time></trkpt><trkpt lat="44.68705" lon="8.148275"><ele>499.6</ele><time>2026-04-12T12:25:01.998Z</time></trkpt><trkpt lat="44.68697" lon="8.14839"><ele>499.0</ele><time>2026-04-12T12:25:04Z</time></trkpt><trkpt lat="44.68696" lon="8.1485017"><ele>499.0</ele><time>2026-04-12T12:25:05.996Z</time></trkpt><trkpt lat="44.68707" lon="8.1485567"><ele>499.0</ele><time>2026-04-12T12:25:07.995Z</time></trkpt><trkpt lat="44.6871517" lon="8.1485883"><ele>499.0</ele><time>2026-04-12T12:25:08.999Z</time></trkpt><trkpt lat="44.6872467" lon="8.1486133"><ele>499.0</ele><time>2026-04-12T12:25:09.995Z</time></trkpt><trkpt lat="44.687345" lon="8.1486683"><ele>499.0</ele><time>2026-04-12T12:25:10.998Z</time></trkpt><trkpt lat="44.687455" lon="8.1487317"><ele>499.0</ele><time>2026-04-12T12:25:11.997Z</time></trkpt><trkpt lat="44.6875533" lon="8.1487833"><ele>499.0</ele><time>2026-04-12T12:25:13.001Z</time></trkpt><trkpt lat="44.6876567" lon="8.148845"><ele>499.0</ele><time>2026-04-12T12:25:13.995Z</time></trkpt><trkpt lat="44.6877583" lon="8.1489017"><ele>499.0</ele><time>2026-04-12T12:25:14.997Z</time></trkpt><trkpt lat="44.687855" lon="8.14896"><ele>499.0</ele><time>2026-04-12T12:25:15.997Z</time></trkpt><trkpt lat="44.6879467" lon="8.1490217"><ele>497.79999999999995</ele><time>2026-04-12T12:25:17.001Z</time></trkpt><trkpt lat="44.68804" lon="8.1490817"><ele>496.59999999999997</ele><time>2026-04-12T12:25:17.995Z</time></trkpt><trkpt lat="44.688135" lon="8.14914"><ele>495.4</ele><time>2026-04-12T12:25:18.997Z</time></trkpt><trkpt lat="44.68823" lon="8.1491967"><ele>494.2</ele><time>2026-04-12T12:25:19.996Z</time></trkpt><trkpt lat="44.6883217" lon="8.1492517"><ele>493.0</ele><time>2026-04-12T12:25:21.001Z</time></trkpt><trkpt lat="44.6884133" lon="8.1493083"><ele>493.0</ele><time>2026-04-12T12:25:21.997Z</time></trkpt><trkpt lat="44.6885033" lon="8.1493767"><ele>492.99999999999994</ele><time>2026-04-12T12:25:22.998Z</time></trkpt><trkpt lat="44.6885917" lon="8.1494433"><ele>492.99999999999994</ele><time>2026-04-12T12:25:23.996Z</time></trkpt><trkpt lat="44.6886817" lon="8.14951"><ele>493.0</ele><time>2026-04-12T12:25:24.997Z</time></trkpt><trkpt lat="44.6887733" lon="8.1495717"><ele>493.0</ele><time>2026-04-12T12:25:25.996Z</time></trkpt><trkpt lat="44.6888683" lon="8.1496183"><ele>492.2</ele><time>2026-04-12T12:25:27Z</time></trkpt><trkpt lat="44.688965" lon="8.1496633"><ele>491.4</ele><time>2026-04-12T12:25:27.997Z</time></trkpt><trkpt lat="44.6890617" lon="8.149705"><ele>490.59999999999997</ele><time>2026-04-12T12:25:28.997Z</time></trkpt><trkpt lat="44.6891583" lon="8.149745"><ele>489.79999999999995</ele><time>2026-04-12T12:25:29.998Z</time></trkpt><trkpt lat="44.6892583" lon="8.1497817"><ele>489.0</ele><time>2026-04-12T12:25:30.998Z</time></trkpt><trkpt lat="44.6893617" lon="8.14982"><ele>484.25</ele><time>2026-04-12T12:25:32.004Z</time></trkpt><trkpt lat="44.689465" lon="8.1498567"><ele>479.5</ele><time>2026-04-12T12:25:32.997Z</time></trkpt><trkpt lat="44.6895733" lon="8.1498917"><ele>474.75</ele><time>2026-04-12T12:25:34Z</time></trkpt><trkpt lat="44.68969" lon="8.1499333"><ele>470.0</ele><time>2026-04-12T12:25:35Z</time></trkpt><trkpt lat="44.6898083" lon="8.1499817"><ele>470.0</ele><time>2026-04-12T12:25:35.999Z</time></trkpt><trkpt lat="44.689925" lon="8.1500317"><ele>470.0</ele><time>2026-04-12T12:25:36.999Z</time></trkpt><trkpt lat="44.690045" lon="8.1500817"><ele>470.0</ele><time>2026-04-12T12:25:38Z</time></trkpt><trkpt lat="44.6901633" lon="8.1501383"><ele>470.0</ele><time>2026-04-12T12:25:39.001Z</time></trkpt><trkpt lat="44.6902917" lon="8.150205"><ele>466.5</ele><time>2026-04-12T12:25:39.993Z</time></trkpt><trkpt lat="44.6904183" lon="8.150275"><ele>463.0</ele><time>2026-04-12T12:25:40.995Z</time></trkpt><trkpt lat="44.6905483" lon="8.1503517"><ele>459.5</ele><time>2026-04-12T12:25:42.001Z</time></trkpt><trkpt lat="44.69067" lon="8.15043"><ele>456.0</ele><time>2026-04-12T12:25:42.996Z</time></trkpt><trkpt lat="44.6907917" lon="8.1505033"><ele>456.0</ele><time>2026-04-12T12:25:43.997Z</time></trkpt><trkpt lat="44.69092" lon="8.150565"><ele>456.0</ele><time>2026-04-12T12:25:44.999Z</time></trkpt><trkpt lat="44.6910517" lon="8.1506033"><ele>456.0</ele><time>2026-04-12T12:25:45.997Z</time></trkpt><trkpt lat="44.6911817" lon="8.1506183"><ele>456.0</ele><time>2026-04-12T12:25:46.998Z</time></trkpt><trkpt lat="44.6913117" lon="8.150605"><ele>453.75</ele><time>2026-04-12T12:25:47.997Z</time></trkpt><trkpt lat="44.69144" lon="8.1505733"><ele>451.5</ele><time>2026-04-12T12:25:48.995Z</time></trkpt><trkpt lat="44.69157" lon="8.1505383"><ele>449.25</ele><time>2026-04-12T12:25:49.995Z</time></trkpt><trkpt lat="44.6917" lon="8.1505117"><ele>447.0</ele><time>2026-04-12T12:25:50.997Z</time></trkpt><trkpt lat="44.6918283" lon="8.1504983"><ele>443.5</ele><time>2026-04-12T12:25:51.998Z</time></trkpt><trkpt lat="44.6919517" lon="8.1505"><ele>440.0</ele><time>2026-04-12T12:25:52.997Z</time></trkpt><trkpt lat="44.692075" lon="8.1505267"><ele>436.5</ele><time>2026-04-12T12:25:53.999Z</time></trkpt><trkpt lat="44.69219" lon="8.1505767"><ele>433.0</ele><time>2026-04-12T12:25:55.004Z</time></trkpt><trkpt lat="44.692295" lon="8.150655"><ele>435.5</ele><time>2026-04-12T12:25:55.995Z</time></trkpt><trkpt lat="44.6923983" lon="8.15076"><ele>438.0</ele><time>2026-04-12T12:25:57Z</time></trkpt><trkpt lat="44.692505" lon="8.1508867"><ele>440.5</ele><time>2026-04-12T12:25:57.999Z</time></trkpt><trkpt lat="44.6926167" lon="8.1510217"><ele>443.0</ele><time>2026-04-12T12:25:58.997Z</time></trkpt><trkpt lat="44.6927333" lon="8.1511617"><ele>442.66666666666663</ele><time>2026-04-12T12:25:59.997Z</time></trkpt><trkpt lat="44.6928517" lon="8.1513033"><ele>442.33333333333337</ele><time>2026-04-12T12:26:00.995Z</time></trkpt><trkpt lat="44.6929717" lon="8.1514433"><ele>442.0</ele><time>2026-04-12T12:26:01.999Z</time></trkpt><trkpt lat="44.6931017" lon="8.15158"><ele>442.0</ele><time>2026-04-12T12:26:02.998Z</time></trkpt><trkpt lat="44.6932333" lon="8.1517083"><ele>442.0</ele><time>2026-04-12T12:26:03.999Z</time></trkpt><trkpt lat="44.6933717" lon="8.1518367"><ele>442.0</ele><time>2026-04-12T12:26:04.994Z</time></trkpt><trkpt lat="44.6935117" lon="8.1519617"><ele>443.0</ele><time>2026-04-12T12:26:05.997Z</time></trkpt><trkpt lat="44.6936533" lon="8.152085"><ele>444.0</ele><time>2026-04-12T12:26:06.991Z</time></trkpt><trkpt lat="44.693795" lon="8.1522067"><ele>445.0</ele><time>2026-04-12T12:26:07.995Z</time></trkpt><trkpt lat="44.6939433" lon="8.15233"><ele>447.0</ele><time>2026-04-12T12:26:08.992Z</time></trkpt><trkpt lat="44.6940933" lon="8.1524667"><ele>449.0</ele><time>2026-04-12T12:26:09.995Z</time></trkpt><trkpt lat="44.6942483" lon="8.1526117"><ele>451.0</ele><time>2026-04-12T12:26:10.999Z</time></trkpt><trkpt lat="44.6944017" lon="8.1527533"><ele>456.6666666666667</ele><time>2026-04-12T12:26:11.996Z</time></trkpt><trkpt lat="44.6945467" lon="8.15289"><ele>462.33333333333337</ele><time>2026-04-12T12:26:12.998Z</time></trkpt><trkpt lat="44.69469" lon="8.1530183"><ele>468.0</ele><time>2026-04-12T12:26:13.997Z</time></trkpt><trkpt lat="44.694835" lon="8.15315"><ele>463.66666666666663</ele><time>2026-04-12T12:26:14.997Z</time></trkpt><trkpt lat="44.6949817" lon="8.153285"><ele>459.3333333333333</ele><time>2026-04-12T12:26:15.997Z</time></trkpt><trkpt lat="44.6951217" lon="8.15342"><ele>455.0</ele><time>2026-04-12T12:26:16.999Z</time></trkpt><trkpt lat="44.6952467" lon="8.15357"><ele>458.3333333333333</ele><time>2026-04-12T12:26:17.995Z</time></trkpt><trkpt lat="44.6953617" lon="8.15373"><ele>461.66666666666663</ele><time>2026-04-12T12:26:18.997Z</time></trkpt><trkpt lat="44.695475" lon="8.153895"><ele>465.0</ele><time>2026-04-12T12:26:19.995Z</time></trkpt><trkpt lat="44.6955883" lon="8.1540617"><ele>465.0</ele><time>2026-04-12T12:26:21Z</time></trkpt><trkpt lat="44.6956933" lon="8.15424"><ele>465.0</ele><time>2026-04-12T12:26:21.999Z</time></trkpt><trkpt lat="44.6957933" lon="8.154425"><ele>465.0</ele><time>2026-04-12T12:26:22.996Z</time></trkpt><trkpt lat="44.6958933" lon="8.1546083"><ele>465.0</ele><time>2026-04-12T12:26:23.999Z</time></trkpt><trkpt lat="44.6959833" lon="8.1547983"><ele>465.0</ele><time>2026-04-12T12:26:24.996Z</time></trkpt><trkpt lat="44.6960633" lon="8.1549883"><ele>465.0</ele><time>2026-04-12T12:26:25.993Z</time></trkpt><trkpt lat="44.6961533" lon="8.1551483"><ele>468.0</ele><time>2026-04-12T12:26:27Z</time></trkpt><trkpt lat="44.6962583" lon="8.15527"><ele>471.0</ele><time>2026-04-12T12:26:27.995Z</time></trkpt><trkpt lat="44.6963783" lon="8.1553567"><ele>474.0</ele><time>2026-04-12T12:26:28.993Z</time></trkpt><trkpt lat="44.6965" lon="8.1554367"><ele>477.0</ele><time>2026-04-12T12:26:29.999Z</time></trkpt><trkpt lat="44.696615" lon="8.155515"><ele>477.0</ele><time>2026-04-12T12:26:31.002Z</time></trkpt><trkpt lat="44.69672" lon="8.155615"><ele>477.0</ele><time>2026-04-12T12:26:31.996Z</time></trkpt><trkpt lat="44.6967983" lon="8.1557417"><ele>477.0</ele><time>2026-04-12T12:26:32.999Z</time></trkpt><trkpt lat="44.6968433" lon="8.1559017"><ele>477.0</ele><time>2026-04-12T12:26:33.996Z</time></trkpt><trkpt lat="44.6968583" lon="8.1560783"><ele>477.75</ele><time>2026-04-12T12:26:34.994Z</time></trkpt><trkpt lat="44.6968617" lon="8.1562633"><ele>478.5</ele><time>2026-04-12T12:26:35.999Z</time></trkpt><trkpt lat="44.6968867" lon="8.1564517"><ele>479.25</ele><time>2026-04-12T12:26:37.001Z</time></trkpt><trkpt lat="44.6969417" lon="8.15663"><ele>480.0</ele><time>2026-04-12T12:26:37.999Z</time></trkpt><trkpt lat="44.69702" lon="8.1567967"><ele>480.0</ele><time>2026-04-12T12:26:38.996Z</time></trkpt><trkpt lat="44.6970917" lon="8.1569667"><ele>480.0</ele><time>2026-04-12T12:26:40.003Z</time></trkpt><trkpt lat="44.697145" lon="8.15713"><ele>480.0</ele><time>2026-04-12T12:26:41Z</time></trkpt><trkpt lat="44.6971633" lon="8.1572983"><ele>480.0</ele><time>2026-04-12T12:26:41.998Z</time></trkpt><trkpt lat="44.6971517" lon="8.1574717"><ele>478.5</ele><time>2026-04-12T12:26:43Z</time></trkpt><trkpt lat="44.6971" lon="8.1576467"><ele>477.0</ele><time>2026-04-12T12:26:43.998Z</time></trkpt><trkpt lat="44.6970283" lon="8.1578267"><ele>475.5</ele><time>2026-04-12T12:26:45.005Z</time></trkpt><trkpt lat="44.6969567" lon="8.1580033"><ele>474.0</ele><time>2026-04-12T12:26:45.996Z</time></trkpt><trkpt lat="44.6968917" lon="8.15818"><ele>467.25</ele><time>2026-04-12T12:26:47Z</time></trkpt><trkpt lat="44.6968567" lon="8.1583483"><ele>460.5</ele><time>2026-04-12T12:26:47.996Z</time></trkpt><trkpt lat="44.69685" lon="8.158515"><ele>453.75</ele><time>2026-04-12T12:26:49Z</time></trkpt><trkpt lat="44.6968717" lon="8.1586817"><ele>447.0</ele><time>2026-04-12T12:26:49.998Z</time></trkpt><trkpt lat="44.6969133" lon="8.15884"><ele>449.8</ele><time>2026-04-12T12:26:51Z</time></trkpt><trkpt lat="44.696965" lon="8.1589867"><ele>452.6</ele><time>2026-04-12T12:26:51.999Z</time></trkpt><trkpt lat="44.6970267" lon="8.1591083"><ele>455.40000000000003</ele><time>2026-04-12T12:26:52.997Z</time></trkpt><trkpt lat="44.6970983" lon="8.1592"><ele>458.20000000000005</ele><time>2026-04-12T12:26:53.999Z</time></trkpt><trkpt lat="44.697175" lon="8.1592683"><ele>461.0</ele><time>2026-04-12T12:26:54.995Z</time></trkpt><trkpt lat="44.6972533" lon="8.1592883"><ele>461.0</ele><time>2026-04-12T12:26:55.996Z</time></trkpt><trkpt lat="44.6973433" lon="8.15928"><ele>461.0</ele><time>2026-04-12T12:26:57.003Z</time></trkpt><trkpt lat="44.69744" lon="8.1592383"><ele>461.0</ele><time>2026-04-12T12:26:57.999Z</time></trkpt><trkpt lat="44.69754" lon="8.15912"><ele>461.0</ele><time>2026-04-12T12:26:58.997Z</time></trkpt><trkpt lat="44.69763" lon="8.1590083"><ele>461.0</ele><time>2026-04-12T12:27:00.003Z</time></trkpt><trkpt lat="44.6977183" lon="8.15888"><ele>459.5</ele><time>2026-04-12T12:27:00.997Z</time></trkpt><trkpt lat="44.6978083" lon="8.1587517"><ele>458.0</ele><time>2026-04-12T12:27:02.001Z</time></trkpt><trkpt lat="44.6979067" lon="8.15862"><ele>456.5</ele><time>2026-04-12T12:27:03.001Z</time></trkpt><trkpt lat="44.6980133" lon="8.158495"><ele>455.0</ele><time>2026-04-12T12:27:03.997Z</time></trkpt><trkpt lat="44.6981283" lon="8.158375"><ele>455.0</ele><time>2026-04-12T12:27:04.999Z</time></trkpt><trkpt lat="44.6982533" lon="8.1582667"><ele>455.0</ele><time>2026-04-12T12:27:06.001Z</time></trkpt><trkpt lat="44.6983867" lon="8.158165"><ele>455.0</ele><time>2026-04-12T12:27:06.998Z</time></trkpt><trkpt lat="44.6985133" lon="8.1580683"><ele>455.0</ele><time>2026-04-12T12:27:08Z</time></trkpt><trkpt lat="44.69865" lon="8.1579867"><ele>456.25</ele><time>2026-04-12T12:27:08.998Z</time></trkpt><trkpt lat="44.69879" lon="8.1579267"><ele>457.5</ele><time>2026-04-12T12:27:09.997Z</time></trkpt><trkpt lat="44.698935" lon="8.1578933"><ele>458.75</ele><time>2026-04-12T12:27:11.001Z</time></trkpt><trkpt lat="44.6990783" lon="8.157875"><ele>460.0</ele><time>2026-04-12T12:27:11.997Z</time></trkpt><trkpt lat="44.6992217" lon="8.1578683"><ele>460.0</ele><time>2026-04-12T12:27:12.996Z</time></trkpt><trkpt lat="44.6993583" lon="8.1578667"><ele>460.0</ele><time>2026-04-12T12:27:13.998Z</time></trkpt><trkpt lat="44.6994933" lon="8.15788"><ele>460.0</ele><time>2026-04-12T12:27:14.996Z</time></trkpt><trkpt lat="44.6996317" lon="8.1579117"><ele>460.0</ele><time>2026-04-12T12:27:15.996Z</time></trkpt><trkpt lat="44.699765" lon="8.1579583"><ele>459.25</ele><time>2026-04-12T12:27:16.994Z</time></trkpt><trkpt lat="44.6998983" lon="8.1580167"><ele>458.5</ele><time>2026-04-12T12:27:17.995Z</time></trkpt><trkpt lat="44.7000317" lon="8.1580733"><ele>457.75</ele><time>2026-04-12T12:27:18.998Z</time></trkpt><trkpt lat="44.7001667" lon="8.15811"><ele>457.0</ele><time>2026-04-12T12:27:19.995Z</time></trkpt><trkpt lat="44.70031" lon="8.1581233"><ele>454.0</ele><time>2026-04-12T12:27:20.998Z</time></trkpt><trkpt lat="44.7004517" lon="8.158105"><ele>451.0</ele><time>2026-04-12T12:27:21.993Z</time></trkpt><trkpt lat="44.7005933" lon="8.1580483"><ele>448.0</ele><time>2026-04-12T12:27:23Z</time></trkpt><trkpt lat="44.700735" lon="8.1579767"><ele>445.0</ele><time>2026-04-12T12:27:23.996Z</time></trkpt><trkpt lat="44.70088" lon="8.1578933"><ele>445.0</ele><time>2026-04-12T12:27:25.003Z</time></trkpt><trkpt lat="44.7010317" lon="8.1578133"><ele>445.0</ele><time>2026-04-12T12:27:25.999Z</time></trkpt><trkpt lat="44.7011833" lon="8.1577267"><ele>445.0</ele><time>2026-04-12T12:27:27.001Z</time></trkpt><trkpt lat="44.7013367" lon="8.1576383"><ele>443.6666666666667</ele><time>2026-04-12T12:27:27.994Z</time></trkpt><trkpt lat="44.70148" lon="8.15753"><ele>442.33333333333337</ele><time>2026-04-12T12:27:28.996Z</time></trkpt><trkpt lat="44.7016233" lon="8.1574167"><ele>441.0</ele><time>2026-04-12T12:27:29.997Z</time></trkpt><trkpt lat="44.701765" lon="8.1572983"><ele>441.0</ele><time>2026-04-12T12:27:30.996Z</time></trkpt><trkpt lat="44.7019033" lon="8.1571767"><ele>441.0</ele><time>2026-04-12T12:27:31.995Z</time></trkpt><trkpt lat="44.7020367" lon="8.1570433"><ele>441.0</ele><time>2026-04-12T12:27:32.997Z</time></trkpt><trkpt lat="44.70217" lon="8.1569083"><ele>436.33333333333337</ele><time>2026-04-12T12:27:33.996Z</time></trkpt><trkpt lat="44.702305" lon="8.156775"><ele>431.6666666666667</ele><time>2026-04-12T12:27:34.995Z</time></trkpt><trkpt lat="44.7024417" lon="8.1566517"><ele>427.0</ele><time>2026-04-12T12:27:35.998Z</time></trkpt><trkpt lat="44.7025783" lon="8.1565483"><ele>428.0</ele><time>2026-04-12T12:27:36.999Z</time></trkpt><trkpt lat="44.70272" lon="8.15646"><ele>429.0</ele><time>2026-04-12T12:27:37.996Z</time></trkpt><trkpt lat="44.7028617" lon="8.15639"><ele>430.0</ele><time>2026-04-12T12:27:38.999Z</time></trkpt><trkpt lat="44.7029983" lon="8.1563417"><ele>431.0</ele><time>2026-04-12T12:27:39.997Z</time></trkpt><trkpt lat="44.7031333" lon="8.1563267"><ele>431.0</ele><time>2026-04-12T12:27:40.995Z</time></trkpt><trkpt lat="44.7032767" lon="8.1563367"><ele>431.0</ele><time>2026-04-12T12:27:42Z</time></trkpt><trkpt lat="44.70342" lon="8.1563533"><ele>431.0</ele><time>2026-04-12T12:27:42.999Z</time></trkpt><trkpt lat="44.7035617" lon="8.1563883"><ele>431.0</ele><time>2026-04-12T12:27:44.002Z</time></trkpt><trkpt lat="44.7036917" lon="8.1564233"><ele>426.25</ele><time>2026-04-12T12:27:45.003Z</time></trkpt><trkpt lat="44.7038183" lon="8.1564317"><ele>421.5</ele><time>2026-04-12T12:27:45.997Z</time></trkpt><trkpt lat="44.703935" lon="8.1564117"><ele>416.75</ele><time>2026-04-12T12:27:47.004Z</time></trkpt><trkpt lat="44.70404" lon="8.15635"><ele>412.0</ele><time>2026-04-12T12:27:47.995Z</time></trkpt><trkpt lat="44.7041317" lon="8.15626"><ele>412.0</ele><time>2026-04-12T12:27:48.998Z</time></trkpt><trkpt lat="44.704215" lon="8.1561517"><ele>412.0</ele><time>2026-04-12T12:27:49.998Z</time></trkpt><trkpt lat="44.7042967" lon="8.15608"><ele>412.0</ele><time>2026-04-12T12:27:50.999Z</time></trkpt><trkpt lat="44.7043733" lon="8.1560533"><ele>412.0</ele><time>2026-04-12T12:27:52Z</time></trkpt><trkpt lat="44.7044567" lon="8.1560467"><ele>412.0</ele><time>2026-04-12T12:27:52.996Z</time></trkpt><trkpt lat="44.704505" lon="8.156145"><ele>409.0</ele><time>2026-04-12T12:27:53.997Z</time></trkpt><trkpt lat="44.704535" lon="8.1562733"><ele>406.0</ele><time>2026-04-12T12:27:54.999Z</time></trkpt><trkpt lat="44.70455" lon="8.156425"><ele>403.0</ele><time>2026-04-12T12:27:55.996Z</time></trkpt><trkpt lat="44.704565" lon="8.1565933"><ele>400.0</ele><time>2026-04-12T12:27:57.002Z</time></trkpt><trkpt lat="44.7045917" lon="8.1567667"><ele>400.0</ele><time>2026-04-12T12:27:57.993Z</time></trkpt><trkpt lat="44.704635" lon="8.1569417"><ele>400.0</ele><time>2026-04-12T12:27:58.996Z</time></trkpt><trkpt lat="44.7046983" lon="8.1571217"><ele>400.0</ele><time>2026-04-12T12:27:59.995Z</time></trkpt><trkpt lat="44.704795" lon="8.1573133"><ele>400.0</ele><time>2026-04-12T12:28:00.994Z</time></trkpt><trkpt lat="44.7049083" lon="8.1575117"><ele>400.0</ele><time>2026-04-12T12:28:02.003Z</time></trkpt><trkpt lat="44.705025" lon="8.1577117"><ele>400.0</ele><time>2026-04-12T12:28:02.997Z</time></trkpt><trkpt lat="44.7051283" lon="8.1579117"><ele>400.0</ele><time>2026-04-12T12:28:03.997Z</time></trkpt><trkpt lat="44.7052333" lon="8.1580983"><ele>397.6666666666667</ele><time>2026-04-12T12:28:04.995Z</time></trkpt><trkpt lat="44.7053383" lon="8.15827"><ele>395.33333333333337</ele><time>2026-04-12T12:28:05.996Z</time></trkpt><trkpt lat="44.7054467" lon="8.15843"><ele>393.0</ele><time>2026-04-12T12:28:06.997Z</time></trkpt><trkpt lat="44.7055683" lon="8.1585733"><ele>393.0</ele><time>2026-04-12T12:28:07.994Z</time></trkpt><trkpt lat="44.70571" lon="8.1587"><ele>393.0</ele><time>2026-04-12T12:28:08.998Z</time></trkpt><trkpt lat="44.7058567" lon="8.1588183"><ele>393.0</ele><time>2026-04-12T12:28:09.993Z</time></trkpt><trkpt lat="44.706005" lon="8.1589167"><ele>393.33333333333337</ele><time>2026-04-12T12:28:10.997Z</time></trkpt><trkpt lat="44.7061633" lon="8.1589833"><ele>393.6666666666667</ele><time>2026-04-12T12:28:11.997Z</time></trkpt><trkpt lat="44.7063333" lon="8.15902"><ele>394.0</ele><time>2026-04-12T12:28:12.997Z</time></trkpt><trkpt lat="44.7065" lon="8.1590583"><ele>394.0</ele><time>2026-04-12T12:28:13.994Z</time></trkpt><trkpt lat="44.7066633" lon="8.159105"><ele>394.0</ele><time>2026-04-12T12:28:14.996Z</time></trkpt><trkpt lat="44.7068233" lon="8.1591833"><ele>394.0</ele><time>2026-04-12T12:28:16.001Z</time></trkpt><trkpt lat="44.70697" lon="8.159295"><ele>391.6666666666667</ele><time>2026-04-12T12:28:16.993Z</time></trkpt><trkpt lat="44.707105" lon="8.15944"><ele>389.33333333333337</ele><time>2026-04-12T12:28:18.001Z</time></trkpt><trkpt lat="44.7072267" lon="8.159595"><ele>387.0</ele><time>2026-04-12T12:28:18.998Z</time></trkpt><trkpt lat="44.7073417" lon="8.1597617"><ele>389.33333333333337</ele><time>2026-04-12T12:28:19.996Z</time></trkpt><trkpt lat="44.7074583" lon="8.1599167"><ele>391.6666666666667</ele><time>2026-04-12T12:28:20.996Z</time></trkpt><trkpt lat="44.7075767" lon="8.1600617"><ele>394.0</ele><time>2026-04-12T12:28:21.997Z</time></trkpt><trkpt lat="44.7077067" lon="8.16018"><ele>391.6666666666667</ele><time>2026-04-12T12:28:22.995Z</time></trkpt><trkpt lat="44.707845" lon="8.16028"><ele>389.33333333333337</ele><time>2026-04-12T12:28:24.003Z</time></trkpt><trkpt lat="44.70799" lon="8.160365"><ele>387.0</ele><time>2026-04-12T12:28:24.994Z</time></trkpt><trkpt lat="44.708145" lon="8.160445"><ele>387.0</ele><time>2026-04-12T12:28:25.995Z</time></trkpt><trkpt lat="44.7083017" lon="8.1605233"><ele>387.0</ele><time>2026-04-12T12:28:26.999Z</time></trkpt><trkpt lat="44.708465" lon="8.160595"><ele>387.0</ele><time>2026-04-12T12:28:27.994Z</time></trkpt><trkpt lat="44.7086233" lon="8.160665"><ele>388.66666666666663</ele><time>2026-04-12T12:28:28.994Z</time></trkpt><trkpt lat="44.7087817" lon="8.1607317"><ele>390.3333333333333</ele><time>2026-04-12T12:28:29.999Z</time></trkpt><trkpt lat="44.7089383" lon="8.160795"><ele>392.0</ele><time>2026-04-12T12:28:30.997Z</time></trkpt><trkpt lat="44.709085" lon="8.1608533"><ele>392.0</ele><time>2026-04-12T12:28:31.996Z</time></trkpt><trkpt lat="44.7092217" lon="8.1609067"><ele>392.0</ele><time>2026-04-12T12:28:32.996Z</time></trkpt><trkpt lat="44.709335" lon="8.1609517"><ele>392.0</ele><time>2026-04-12T12:28:33.996Z</time></trkpt><trkpt lat="44.7094083" lon="8.1610117"><ele>392.0</ele><time>2026-04-12T12:28:34.997Z</time></trkpt><trkpt lat="44.7094733" lon="8.1610783"><ele>392.0</ele><time>2026-04-12T12:28:36.001Z</time></trkpt><trkpt lat="44.7095083" lon="8.1611667"><ele>392.20000000000005</ele><time>2026-04-12T12:28:36.998Z</time></trkpt><trkpt lat="44.7095217" lon="8.1612633"><ele>392.4</ele><time>2026-04-12T12:28:38Z</time></trkpt><trkpt lat="44.7094817" lon="8.1613717"><ele>392.6</ele><time>2026-04-12T12:28:38.999Z</time></trkpt><trkpt lat="44.7094167" lon="8.161485"><ele>392.79999999999995</ele><time>2026-04-12T12:28:39.998Z</time></trkpt><trkpt lat="44.70932" lon="8.16163"><ele>393.0</ele><time>2026-04-12T12:28:40.994Z</time></trkpt><trkpt lat="44.7092167" lon="8.161805"><ele>393.0</ele><time>2026-04-12T12:28:41.995Z</time></trkpt><trkpt lat="44.709125" lon="8.1619833"><ele>393.0</ele><time>2026-04-12T12:28:42.998Z</time></trkpt><trkpt lat="44.7090133" lon="8.16218"><ele>393.0</ele><time>2026-04-12T12:28:43.992Z</time></trkpt><trkpt lat="44.70891" lon="8.16238"><ele>389.6666666666667</ele><time>2026-04-12T12:28:44.996Z</time></trkpt><trkpt lat="44.7088033" lon="8.1625883"><ele>386.33333333333337</ele><time>2026-04-12T12:28:45.996Z</time></trkpt><trkpt lat="44.7086967" lon="8.1628033"><ele>383.0</ele><time>2026-04-12T12:28:46.997Z</time></trkpt><trkpt lat="44.708595" lon="8.16302"><ele>387.33333333333337</ele><time>2026-04-12T12:28:47.993Z</time></trkpt><trkpt lat="44.7084917" lon="8.16323"><ele>391.6666666666667</ele><time>2026-04-12T12:28:48.995Z</time></trkpt><trkpt lat="44.7083917" lon="8.163435"><ele>396.0</ele><time>2026-04-12T12:28:49.997Z</time></trkpt><trkpt lat="44.7083017" lon="8.1636333"><ele>396.0</ele><time>2026-04-12T12:28:50.994Z</time></trkpt><trkpt lat="44.708235" lon="8.1638433"><ele>396.0</ele><time>2026-04-12T12:28:52.002Z</time></trkpt><trkpt lat="44.7081983" lon="8.1640633"><ele>396.0</ele><time>2026-04-12T12:28:52.993Z</time></trkpt><trkpt lat="44.7081883" lon="8.1642883"><ele>394.66666666666663</ele><time>2026-04-12T12:28:53.997Z</time></trkpt><trkpt lat="44.7082" lon="8.1645133"><ele>393.3333333333333</ele><time>2026-04-12T12:28:55.002Z</time></trkpt><trkpt lat="44.708225" lon="8.1647317"><ele>392.0</ele><time>2026-04-12T12:28:55.997Z</time></trkpt><trkpt lat="44.7082583" lon="8.1649433"><ele>392.0</ele><time>2026-04-12T12:28:56.999Z</time></trkpt><trkpt lat="44.7082967" lon="8.1651433"><ele>392.0</ele><time>2026-04-12T12:28:57.999Z</time></trkpt><trkpt lat="44.708335" lon="8.1653383"><ele>392.0</ele><time>2026-04-12T12:28:58.997Z</time></trkpt><trkpt lat="44.7083767" lon="8.16553"><ele>392.0</ele><time>2026-04-12T12:28:59.996Z</time></trkpt><trkpt lat="44.7084167" lon="8.1657167"><ele>393.0</ele><time>2026-04-12T12:29:00.995Z</time></trkpt><trkpt lat="44.7084567" lon="8.1659"><ele>394.0</ele><time>2026-04-12T12:29:02.004Z</time></trkpt><trkpt lat="44.7084967" lon="8.16608"><ele>395.0</ele><time>2026-04-12T12:29:02.996Z</time></trkpt><trkpt lat="44.7085383" lon="8.1662617"><ele>396.0</ele><time>2026-04-12T12:29:03.993Z</time></trkpt><trkpt lat="44.7085767" lon="8.1664433"><ele>394.5</ele><time>2026-04-12T12:29:04.994Z</time></trkpt><trkpt lat="44.7086117" lon="8.1666267"><ele>393.0</ele><time>2026-04-12T12:29:05.999Z</time></trkpt><trkpt lat="44.7086517" lon="8.1668117"><ele>391.5</ele><time>2026-04-12T12:29:07Z</time></trkpt><trkpt lat="44.708685" lon="8.167"><ele>390.0</ele><time>2026-04-12T12:29:07.995Z</time></trkpt><trkpt lat="44.708715" lon="8.1671867"><ele>391.5</ele><time>2026-04-12T12:29:08.994Z</time></trkpt><trkpt lat="44.7087417" lon="8.1673767"><ele>393.0</ele><time>2026-04-12T12:29:09.994Z</time></trkpt><trkpt lat="44.7087683" lon="8.1675667"><ele>394.5</ele><time>2026-04-12T12:29:10.997Z</time></trkpt><trkpt lat="44.7087933" lon="8.1677583"><ele>396.0</ele><time>2026-04-12T12:29:12.001Z</time></trkpt><trkpt lat="44.7088233" lon="8.1679483"><ele>396.0</ele><time>2026-04-12T12:29:12.998Z</time></trkpt><trkpt lat="44.708845" lon="8.1681433"><ele>396.0</ele><time>2026-04-12T12:29:13.998Z</time></trkpt><trkpt lat="44.7088533" lon="8.16834"><ele>396.0</ele><time>2026-04-12T12:29:14.998Z</time></trkpt><trkpt lat="44.7088467" lon="8.1685333"><ele>396.0</ele><time>2026-04-12T12:29:15.998Z</time></trkpt><trkpt lat="44.7088283" lon="8.168725"><ele>395.75</ele><time>2026-04-12T12:29:16.994Z</time></trkpt><trkpt lat="44.7087917" lon="8.1689117"><ele>395.5</ele><time>2026-04-12T12:29:17.993Z</time></trkpt><trkpt lat="44.7087417" lon="8.16909"><ele>395.25</ele><time>2026-04-12T12:29:18.996Z</time></trkpt><trkpt lat="44.708685" lon="8.169265"><ele>395.0</ele><time>2026-04-12T12:29:20Z</time></trkpt><trkpt lat="44.70862" lon="8.169445"><ele>395.66666666666663</ele><time>2026-04-12T12:29:20.999Z</time></trkpt><trkpt lat="44.7085533" lon="8.169635"><ele>396.33333333333337</ele><time>2026-04-12T12:29:21.998Z</time></trkpt><trkpt lat="44.7084833" lon="8.16983"><ele>397.0</ele><time>2026-04-12T12:29:22.994Z</time></trkpt><trkpt lat="44.7084083" lon="8.1700267"><ele>397.0</ele><time>2026-04-12T12:29:23.993Z</time></trkpt><trkpt lat="44.7083383" lon="8.1702233"><ele>397.0</ele><time>2026-04-12T12:29:24.993Z</time></trkpt><trkpt lat="44.7082667" lon="8.1704217"><ele>397.0</ele><time>2026-04-12T12:29:25.994Z</time></trkpt><trkpt lat="44.7081983" lon="8.1706167"><ele>397.0</ele><time>2026-04-12T12:29:26.999Z</time></trkpt><trkpt lat="44.708145" lon="8.1708183"><ele>397.0</ele><time>2026-04-12T12:29:27.994Z</time></trkpt><trkpt lat="44.7080983" lon="8.1710183"><ele>397.0</ele><time>2026-04-12T12:29:28.998Z</time></trkpt><trkpt lat="44.7080533" lon="8.1712217"><ele>397.0</ele><time>2026-04-12T12:29:29.997Z</time></trkpt><trkpt lat="44.70801" lon="8.1714267"><ele>397.0</ele><time>2026-04-12T12:29:30.993Z</time></trkpt><trkpt lat="44.7079683" lon="8.1716367"><ele>397.0</ele><time>2026-04-12T12:29:31.999Z</time></trkpt><trkpt lat="44.70792" lon="8.171845"><ele>397.33333333333337</ele><time>2026-04-12T12:29:33.001Z</time></trkpt><trkpt lat="44.707865" lon="8.1720467"><ele>397.66666666666663</ele><time>2026-04-12T12:29:33.998Z</time></trkpt><trkpt lat="44.7077967" lon="8.1722467"><ele>398.0</ele><time>2026-04-12T12:29:34.998Z</time></trkpt><trkpt lat="44.7077317" lon="8.1724467"><ele>398.0</ele><time>2026-04-12T12:29:35.995Z</time></trkpt><trkpt lat="44.7076633" lon="8.1726467"><ele>398.0</ele><time>2026-04-12T12:29:36.999Z</time></trkpt><trkpt lat="44.7076017" lon="8.1728483"><ele>398.0</ele><time>2026-04-12T12:29:37.999Z</time></trkpt><trkpt lat="44.7075633" lon="8.1730617"><ele>398.0</ele><time>2026-04-12T12:29:38.995Z</time></trkpt><trkpt lat="44.7075483" lon="8.173285"><ele>398.0</ele><time>2026-04-12T12:29:39.997Z</time></trkpt><trkpt lat="44.7075633" lon="8.1735083"><ele>398.0</ele><time>2026-04-12T12:29:40.999Z</time></trkpt><trkpt lat="44.7075917" lon="8.17373"><ele>398.0</ele><time>2026-04-12T12:29:41.999Z</time></trkpt><trkpt lat="44.70763" lon="8.1739517"><ele>398.0</ele><time>2026-04-12T12:29:43Z</time></trkpt><trkpt lat="44.7076733" lon="8.1741633"><ele>398.0</ele><time>2026-04-12T12:29:43.996Z</time></trkpt><trkpt lat="44.7077233" lon="8.1743717"><ele>397.66666666666663</ele><time>2026-04-12T12:29:45Z</time></trkpt><trkpt lat="44.70779" lon="8.17458"><ele>397.33333333333337</ele><time>2026-04-12T12:29:45.995Z</time></trkpt><trkpt lat="44.707865" lon="8.17478"><ele>397.0</ele><time>2026-04-12T12:29:46.999Z</time></trkpt><trkpt lat="44.707945" lon="8.174975"><ele>400.33333333333337</ele><time>2026-04-12T12:29:47.995Z</time></trkpt><trkpt lat="44.708035" lon="8.17517"><ele>403.66666666666663</ele><time>2026-04-12T12:29:49Z</time></trkpt><trkpt lat="44.7081167" lon="8.175365"><ele>407.0</ele><time>2026-04-12T12:29:50.003Z</time></trkpt><trkpt lat="44.7081883" lon="8.1755667"><ele>409.0</ele><time>2026-04-12T12:29:50.994Z</time></trkpt><trkpt lat="44.70825" lon="8.1757767"><ele>411.0</ele><time>2026-04-12T12:29:51.996Z</time></trkpt><trkpt lat="44.7083" lon="8.1759917"><ele>413.0</ele><time>2026-04-12T12:29:52.994Z</time></trkpt><trkpt lat="44.7083533" lon="8.1762083"><ele>413.0</ele><time>2026-04-12T12:29:53.995Z</time></trkpt><trkpt lat="44.7083917" lon="8.17643"><ele>413.0</ele><time>2026-04-12T12:29:54.997Z</time></trkpt><trkpt lat="44.708425" lon="8.176655"><ele>413.0</ele><time>2026-04-12T12:29:55.995Z</time></trkpt><trkpt lat="44.70846" lon="8.17688"><ele>415.3333333333333</ele><time>2026-04-12T12:29:56.998Z</time></trkpt><trkpt lat="44.7084933" lon="8.1771033"><ele>417.66666666666663</ele><time>2026-04-12T12:29:57.996Z</time></trkpt><trkpt lat="44.70852" lon="8.17733"><ele>420.0</ele><time>2026-04-12T12:29:58.993Z</time></trkpt><trkpt lat="44.70855" lon="8.17755"><ele>416.33333333333337</ele><time>2026-04-12T12:30:00.001Z</time></trkpt><trkpt lat="44.7085833" lon="8.177765"><ele>412.6666666666667</ele><time>2026-04-12T12:30:01.002Z</time></trkpt><trkpt lat="44.7086233" lon="8.1779683"><ele>409.0</ele><time>2026-04-12T12:30:01.997Z</time></trkpt><trkpt lat="44.708665" lon="8.1781633"><ele>411.5</ele><time>2026-04-12T12:30:02.998Z</time></trkpt><trkpt lat="44.708705" lon="8.1783533"><ele>414.0</ele><time>2026-04-12T12:30:03.996Z</time></trkpt><trkpt lat="44.7087483" lon="8.1785383"><ele>416.5</ele><time>2026-04-12T12:30:04.999Z</time></trkpt><trkpt lat="44.708785" lon="8.178715"><ele>419.0</ele><time>2026-04-12T12:30:06.001Z</time></trkpt><trkpt lat="44.7088217" lon="8.1788867"><ele>420.25</ele><time>2026-04-12T12:30:06.996Z</time></trkpt><trkpt lat="44.7088583" lon="8.1790533"><ele>421.5</ele><time>2026-04-12T12:30:08.007Z</time></trkpt><trkpt lat="44.708885" lon="8.179225"><ele>422.75</ele><time>2026-04-12T12:30:09.001Z</time></trkpt><trkpt lat="44.7089083" lon="8.1794"><ele>424.0</ele><time>2026-04-12T12:30:10.002Z</time></trkpt><trkpt lat="44.7089183" lon="8.1795767"><ele>424.0</ele><time>2026-04-12T12:30:11.002Z</time></trkpt><trkpt lat="44.7089183" lon="8.1797517"><ele>424.0</ele><time>2026-04-12T12:30:12Z</time></trkpt><trkpt lat="44.70891" lon="8.1799233"><ele>424.0</ele><time>2026-04-12T12:30:12.997Z</time></trkpt><trkpt lat="44.7088967" lon="8.1800917"><ele>424.0</ele><time>2026-04-12T12:30:14.002Z</time></trkpt><trkpt lat="44.7088783" lon="8.1802567"><ele>424.79999999999995</ele><time>2026-04-12T12:30:14.999Z</time></trkpt><trkpt lat="44.70887" lon="8.1804233"><ele>425.59999999999997</ele><time>2026-04-12T12:30:15.997Z</time></trkpt><trkpt lat="44.7088733" lon="8.1805817"><ele>426.4</ele><time>2026-04-12T12:30:16.999Z</time></trkpt><trkpt lat="44.708895" lon="8.18072"><ele>427.2</ele><time>2026-04-12T12:30:17.998Z</time></trkpt><trkpt lat="44.7089333" lon="8.1808467"><ele>428.0</ele><time>2026-04-12T12:30:18.997Z</time></trkpt><trkpt lat="44.70898" lon="8.1809667"><ele>428.0</ele><time>2026-04-12T12:30:19.997Z</time></trkpt><trkpt lat="44.7090317" lon="8.1810883"><ele>427.99999999999994</ele><time>2026-04-12T12:30:20.998Z</time></trkpt><trkpt lat="44.7090833" lon="8.1812117"><ele>427.99999999999994</ele><time>2026-04-12T12:30:21.995Z</time></trkpt><trkpt lat="44.70914" lon="8.1813433"><ele>428.0</ele><time>2026-04-12T12:30:22.995Z</time></trkpt><trkpt lat="44.7091867" lon="8.181485"><ele>428.0</ele><time>2026-04-12T12:30:23.997Z</time></trkpt><trkpt lat="44.70923" lon="8.1816333"><ele>425.25</ele><time>2026-04-12T12:30:25.003Z</time></trkpt><trkpt lat="44.70927" lon="8.1817833"><ele>422.5</ele><time>2026-04-12T12:30:25.994Z</time></trkpt><trkpt lat="44.7093117" lon="8.1819333"><ele>419.75</ele><time>2026-04-12T12:30:26.998Z</time></trkpt><trkpt lat="44.70935" lon="8.1820833"><ele>417.0</ele><time>2026-04-12T12:30:28.006Z</time></trkpt><trkpt lat="44.7093833" lon="8.1822383"><ele>417.75</ele><time>2026-04-12T12:30:28.996Z</time></trkpt><trkpt lat="44.709425" lon="8.1823767"><ele>418.5</ele><time>2026-04-12T12:30:30.002Z</time></trkpt><trkpt lat="44.70949" lon="8.1825067"><ele>419.25</ele><time>2026-04-12T12:30:31.003Z</time></trkpt><trkpt lat="44.7095783" lon="8.18263"><ele>420.0</ele><time>2026-04-12T12:30:31.999Z</time></trkpt><trkpt lat="44.7096833" lon="8.1827517"><ele>420.0</ele><time>2026-04-12T12:30:32.996Z</time></trkpt><trkpt lat="44.7098067" lon="8.1828667"><ele>420.0</ele><time>2026-04-12T12:30:33.997Z</time></trkpt><trkpt lat="44.70994" lon="8.182985"><ele>420.0</ele><time>2026-04-12T12:30:34.994Z</time></trkpt><trkpt lat="44.710075" lon="8.1830983"><ele>421.0</ele><time>2026-04-12T12:30:36.002Z</time></trkpt><trkpt lat="44.71021" lon="8.18321"><ele>422.0</ele><time>2026-04-12T12:30:36.996Z</time></trkpt><trkpt lat="44.7103583" lon="8.18331"><ele>423.0</ele><time>2026-04-12T12:30:37.997Z</time></trkpt><trkpt lat="44.7105033" lon="8.18341"><ele>423.0</ele><time>2026-04-12T12:30:38.998Z</time></trkpt><trkpt lat="44.7106633" lon="8.1834983"><ele>423.0</ele><time>2026-04-12T12:30:39.995Z</time></trkpt><trkpt lat="44.71083" lon="8.1835683"><ele>423.0</ele><time>2026-04-12T12:30:40.997Z</time></trkpt><trkpt lat="44.7109967" lon="8.183615"><ele>422.0</ele><time>2026-04-12T12:30:41.996Z</time></trkpt><trkpt lat="44.7111717" lon="8.1836467"><ele>421.0</ele><time>2026-04-12T12:30:43.003Z</time></trkpt><trkpt lat="44.7113517" lon="8.1836683"><ele>420.0</ele><time>2026-04-12T12:30:43.996Z</time></trkpt><trkpt lat="44.711525" lon="8.1836933"><ele>420.0</ele><time>2026-04-12T12:30:45.001Z</time></trkpt><trkpt lat="44.7117" lon="8.18372"><ele>420.0</ele><time>2026-04-12T12:30:45.999Z</time></trkpt><trkpt lat="44.7118667" lon="8.1837533"><ele>420.0</ele><time>2026-04-12T12:30:46.998Z</time></trkpt><trkpt lat="44.712035" lon="8.1837867"><ele>419.33333333333337</ele><time>2026-04-12T12:30:48Z</time></trkpt><trkpt lat="44.7122017" lon="8.1838267"><ele>418.6666666666667</ele><time>2026-04-12T12:30:49.004Z</time></trkpt><trkpt lat="44.71237" lon="8.183865"><ele>418.0</ele><time>2026-04-12T12:30:49.997Z</time></trkpt><trkpt lat="44.7125417" lon="8.1838917"><ele>418.0</ele><time>2026-04-12T12:30:50.997Z</time></trkpt><trkpt lat="44.712715" lon="8.1838933"><ele>418.0</ele><time>2026-04-12T12:30:51.996Z</time></trkpt><trkpt lat="44.7128817" lon="8.18388"><ele>418.0</ele><time>2026-04-12T12:30:53.001Z</time></trkpt><trkpt lat="44.7130483" lon="8.183865"><ele>418.75</ele><time>2026-04-12T12:30:53.999Z</time></trkpt><trkpt lat="44.7132033" lon="8.1838633"><ele>419.5</ele><time>2026-04-12T12:30:54.995Z</time></trkpt><trkpt lat="44.7133417" lon="8.18389"><ele>420.25</ele><time>2026-04-12T12:30:55.998Z</time></trkpt><trkpt lat="44.7134767" lon="8.1839283"><ele>421.0</ele><time>2026-04-12T12:30:57.002Z</time></trkpt><trkpt lat="44.7136117" lon="8.183975"><ele>421.0</ele><time>2026-04-12T12:30:58.002Z</time></trkpt><trkpt lat="44.7137517" lon="8.1840117"><ele>421.0</ele><time>2026-04-12T12:30:58.999Z</time></trkpt><trkpt lat="44.7139033" lon="8.1840217"><ele>421.0</ele><time>2026-04-12T12:30:59.999Z</time></trkpt><trkpt lat="44.71407" lon="8.183995"><ele>421.0</ele><time>2026-04-12T12:31:00.999Z</time></trkpt><trkpt lat="44.7142333" lon="8.18393"><ele>421.0</ele><time>2026-04-12T12:31:01.998Z</time></trkpt><trkpt lat="44.7143983" lon="8.18384"><ele>421.0</ele><time>2026-04-12T12:31:03.007Z</time></trkpt><trkpt lat="44.7145667" lon="8.1837317"><ele>425.0</ele><time>2026-04-12T12:31:04.001Z</time></trkpt><trkpt lat="44.7147433" lon="8.1836117"><ele>429.0</ele><time>2026-04-12T12:31:04.996Z</time></trkpt><trkpt lat="44.71492" lon="8.1834917"><ele>433.0</ele><time>2026-04-12T12:31:05.995Z</time></trkpt><trkpt lat="44.71509" lon="8.1833767"><ele>432.33333333333337</ele><time>2026-04-12T12:31:06.996Z</time></trkpt><trkpt lat="44.7152633" lon="8.1832633"><ele>431.66666666666663</ele><time>2026-04-12T12:31:07.999Z</time></trkpt><trkpt lat="44.7154367" lon="8.1831517"><ele>431.0</ele><time>2026-04-12T12:31:09.001Z</time></trkpt><trkpt lat="44.7156017" lon="8.1830367"><ele>431.0</ele><time>2026-04-12T12:31:09.997Z</time></trkpt><trkpt lat="44.7157733" lon="8.1829217"><ele>431.0</ele><time>2026-04-12T12:31:10.997Z</time></trkpt><trkpt lat="44.7159417" lon="8.18281"><ele>431.0</ele><time>2026-04-12T12:31:11.997Z</time></trkpt><trkpt lat="44.7161" lon="8.1827017"><ele>436.3333333333333</ele><time>2026-04-12T12:31:12.998Z</time></trkpt><trkpt lat="44.7162433" lon="8.1826033"><ele>441.66666666666663</ele><time>2026-04-12T12:31:14.002Z</time></trkpt><trkpt lat="44.716385" lon="8.1825217"><ele>447.0</ele><time>2026-04-12T12:31:15.001Z</time></trkpt><trkpt lat="44.7165183" lon="8.1824733"><ele>447.0</ele><time>2026-04-12T12:31:15.997Z</time></trkpt><trkpt lat="44.7166417" lon="8.1824683"><ele>447.0</ele><time>2026-04-12T12:31:16.994Z</time></trkpt><trkpt lat="44.71677" lon="8.1825017"><ele>447.0</ele><time>2026-04-12T12:31:17.995Z</time></trkpt><trkpt lat="44.71689" lon="8.1825567"><ele>447.0</ele><time>2026-04-12T12:31:18.995Z</time></trkpt><trkpt lat="44.7169883" lon="8.1826533"><ele>447.0</ele><time>2026-04-12T12:31:20Z</time></trkpt><trkpt lat="44.7170833" lon="8.18277"><ele>447.0</ele><time>2026-04-12T12:31:21.001Z</time></trkpt><trkpt lat="44.7171633" lon="8.18291"><ele>447.0</ele><time>2026-04-12T12:31:21.999Z</time></trkpt><trkpt lat="44.7172317" lon="8.1830533"><ele>447.0</ele><time>2026-04-12T12:31:22.998Z</time></trkpt><trkpt lat="44.7172817" lon="8.1831917"><ele>447.0</ele><time>2026-04-12T12:31:23.998Z</time></trkpt><trkpt lat="44.7173083" lon="8.1833383"><ele>447.00000000000006</ele><time>2026-04-12T12:31:24.999Z</time></trkpt><trkpt lat="44.7173117" lon="8.183485"><ele>447.00000000000006</ele><time>2026-04-12T12:31:25.999Z</time></trkpt><trkpt lat="44.7173083" lon="8.1836267"><ele>447.0</ele><time>2026-04-12T12:31:26.999Z</time></trkpt><trkpt lat="44.717325" lon="8.1837633"><ele>447.0</ele><time>2026-04-12T12:31:27.996Z</time></trkpt><trkpt lat="44.717375" lon="8.18389"><ele>447.0</ele><time>2026-04-12T12:31:29Z</time></trkpt><trkpt lat="44.717445" lon="8.183995"><ele>447.0</ele><time>2026-04-12T12:31:30.003Z</time></trkpt><trkpt lat="44.7175433" lon="8.1840883"><ele>447.0</ele><time>2026-04-12T12:31:31Z</time></trkpt><trkpt lat="44.7176517" lon="8.1841583"><ele>447.0</ele><time>2026-04-12T12:31:31.997Z</time></trkpt><trkpt lat="44.71776" lon="8.1842033"><ele>447.8</ele><time>2026-04-12T12:31:32.996Z</time></trkpt><trkpt lat="44.7178717" lon="8.1842233"><ele>448.6</ele><time>2026-04-12T12:31:34.003Z</time></trkpt><trkpt lat="44.71798" lon="8.1842267"><ele>449.40000000000003</ele><time>2026-04-12T12:31:34.997Z</time></trkpt><trkpt lat="44.7180817" lon="8.1842483"><ele>450.20000000000005</ele><time>2026-04-12T12:31:35.996Z</time></trkpt><trkpt lat="44.7181717" lon="8.1842967"><ele>451.0</ele><time>2026-04-12T12:31:36.999Z</time></trkpt><trkpt lat="44.7182467" lon="8.18437"><ele>451.0</ele><time>2026-04-12T12:31:37.996Z</time></trkpt><trkpt lat="44.71831" lon="8.18447"><ele>451.0</ele><time>2026-04-12T12:31:38.995Z</time></trkpt><trkpt lat="44.718345" lon="8.1846217"><ele>451.0</ele><time>2026-04-12T12:31:39.996Z</time></trkpt><trkpt lat="44.7183583" lon="8.1848333"><ele>451.0</ele><time>2026-04-12T12:31:40.996Z</time></trkpt><trkpt lat="44.7183617" lon="8.18509"><ele>453.33333333333337</ele><time>2026-04-12T12:31:41.997Z</time></trkpt><trkpt lat="44.7183717" lon="8.185345"><ele>455.66666666666663</ele><time>2026-04-12T12:31:42.995Z</time></trkpt><trkpt lat="44.718385" lon="8.18558"><ele>458.0</ele><time>2026-04-12T12:31:43.998Z</time></trkpt><trkpt lat="44.7183967" lon="8.185805"><ele>458.5</ele><time>2026-04-12T12:31:45.002Z</time></trkpt><trkpt lat="44.718415" lon="8.1860183"><ele>459.0</ele><time>2026-04-12T12:31:45.997Z</time></trkpt><trkpt lat="44.7184467" lon="8.1862083"><ele>459.5</ele><time>2026-04-12T12:31:46.996Z</time></trkpt><trkpt lat="44.7185017" lon="8.1863817"><ele>460.0</ele><time>2026-04-12T12:31:47.999Z</time></trkpt><trkpt lat="44.7185767" lon="8.1865467"><ele>456.25</ele><time>2026-04-12T12:31:48.997Z</time></trkpt><trkpt lat="44.7186633" lon="8.1867067"><ele>452.5</ele><time>2026-04-12T12:31:49.996Z</time></trkpt><trkpt lat="44.7187533" lon="8.1868567"><ele>448.75</ele><time>2026-04-12T12:31:50.993Z</time></trkpt><trkpt lat="44.7188433" lon="8.1869933"><ele>445.0</ele><time>2026-04-12T12:31:52.001Z</time></trkpt><trkpt lat="44.7189333" lon="8.1871267"><ele>445.0</ele><time>2026-04-12T12:31:52.998Z</time></trkpt><trkpt lat="44.7190267" lon="8.18725"><ele>445.0</ele><time>2026-04-12T12:31:53.996Z</time></trkpt><trkpt lat="44.719125" lon="8.1873567"><ele>445.0</ele><time>2026-04-12T12:31:54.998Z</time></trkpt><trkpt lat="44.7192267" lon="8.1874533"><ele>445.0</ele><time>2026-04-12T12:31:55.994Z</time></trkpt><trkpt lat="44.7193333" lon="8.1875333"><ele>445.0</ele><time>2026-04-12T12:31:57.003Z</time></trkpt><trkpt lat="44.7194467" lon="8.1875817"><ele>445.0</ele><time>2026-04-12T12:31:57.995Z</time></trkpt><trkpt lat="44.719565" lon="8.1875983"><ele>445.0</ele><time>2026-04-12T12:31:58.998Z</time></trkpt><trkpt lat="44.7196917" lon="8.187585"><ele>445.0</ele><time>2026-04-12T12:31:59.996Z</time></trkpt><trkpt lat="44.7198233" lon="8.18756"><ele>445.0</ele><time>2026-04-12T12:32:00.997Z</time></trkpt><trkpt lat="44.7199583" lon="8.18754"><ele>445.0</ele><time>2026-04-12T12:32:01.994Z</time></trkpt><trkpt lat="44.7200983" lon="8.1875233"><ele>445.0</ele><time>2026-04-12T12:32:02.998Z</time></trkpt><trkpt lat="44.72024" lon="8.1875133"><ele>445.0</ele><time>2026-04-12T12:32:03.995Z</time></trkpt><trkpt lat="44.720375" lon="8.1875133"><ele>443.75</ele><time>2026-04-12T12:32:04.998Z</time></trkpt><trkpt lat="44.7205117" lon="8.18752"><ele>442.5</ele><time>2026-04-12T12:32:05.999Z</time></trkpt><trkpt lat="44.7206467" lon="8.1875383"><ele>441.25</ele><time>2026-04-12T12:32:07.002Z</time></trkpt><trkpt lat="44.7207817" lon="8.18756"><ele>440.0</ele><time>2026-04-12T12:32:07.996Z</time></trkpt><trkpt lat="44.7209183" lon="8.1875833"><ele>440.0</ele><time>2026-04-12T12:32:08.997Z</time></trkpt><trkpt lat="44.7210533" lon="8.1876083"><ele>440.0</ele><time>2026-04-12T12:32:09.992Z</time></trkpt><trkpt lat="44.721185" lon="8.1876383"><ele>440.0</ele><time>2026-04-12T12:32:10.997Z</time></trkpt><trkpt lat="44.721305" lon="8.187675"><ele>440.0</ele><time>2026-04-12T12:32:11.997Z</time></trkpt><trkpt lat="44.721405" lon="8.1877233"><ele>439.99999999999994</ele><time>2026-04-12T12:32:12.995Z</time></trkpt><trkpt lat="44.7214817" lon="8.1877783"><ele>440.0</ele><time>2026-04-12T12:32:13.997Z</time></trkpt><trkpt lat="44.721545" lon="8.1878417"><ele>440.0</ele><time>2026-04-12T12:32:14.997Z</time></trkpt><trkpt lat="44.7215967" lon="8.18792"><ele>440.0</ele><time>2026-04-12T12:32:16.002Z</time></trkpt><trkpt lat="44.72163" lon="8.1880067"><ele>439.99999999999994</ele><time>2026-04-12T12:32:16.997Z</time></trkpt><trkpt lat="44.7216317" lon="8.1881017"><ele>440.0</ele><time>2026-04-12T12:32:17.997Z</time></trkpt><trkpt lat="44.7215767" lon="8.1881967"><ele>438.0</ele><time>2026-04-12T12:32:18.994Z</time></trkpt><trkpt lat="44.7214867" lon="8.1882567"><ele>436.0</ele><time>2026-04-12T12:32:19.994Z</time></trkpt><trkpt lat="44.7213783" lon="8.1883067"><ele>434.0</ele><time>2026-04-12T12:32:20.997Z</time></trkpt><trkpt lat="44.7211733" lon="8.1883167"><ele>432.0</ele><time>2026-04-12T12:32:21.998Z</time></trkpt><trkpt lat="44.7210017" lon="8.188335"><ele>432.0</ele><time>2026-04-12T12:32:22.998Z</time></trkpt><trkpt lat="44.7208467" lon="8.1883617"><ele>432.0</ele><time>2026-04-12T12:32:23.995Z</time></trkpt><trkpt lat="44.7206983" lon="8.1883933"><ele>432.0</ele><time>2026-04-12T12:32:24.996Z</time></trkpt><trkpt lat="44.72055" lon="8.1884367"><ele>432.0</ele><time>2026-04-12T12:32:25.997Z</time></trkpt><trkpt lat="44.7204033" lon="8.1884783"><ele>432.0</ele><time>2026-04-12T12:32:27.002Z</time></trkpt><trkpt lat="44.7202783" lon="8.1885233"><ele>432.0</ele><time>2026-04-12T12:32:27.996Z</time></trkpt><trkpt lat="44.72018" lon="8.1885717"><ele>432.0</ele><time>2026-04-12T12:32:28.995Z</time></trkpt><trkpt lat="44.7201133" lon="8.1886517"><ele>432.0</ele><time>2026-04-12T12:32:29.995Z</time></trkpt><trkpt lat="44.7200683" lon="8.18874"><ele>432.0</ele><time>2026-04-12T12:32:30.997Z</time></trkpt><trkpt lat="44.7200967" lon="8.188835"><ele>432.0</ele><time>2026-04-12T12:32:31.997Z</time></trkpt><trkpt lat="44.7201267" lon="8.188925"><ele>432.0</ele><time>2026-04-12T12:32:32.997Z</time></trkpt><trkpt lat="44.720225" lon="8.1889283"><ele>432.0</ele><time>2026-04-12T12:32:33.997Z</time></trkpt><trkpt lat="44.7203183" lon="8.1889133"><ele>432.0</ele><time>2026-04-12T12:32:34.996Z</time></trkpt><trkpt lat="44.72042" lon="8.1888717"><ele>432.0</ele><time>2026-04-12T12:32:35.999Z</time></trkpt><trkpt lat="44.720535" lon="8.188825"><ele>432.0</ele><time>2026-04-12T12:32:36.998Z</time></trkpt><trkpt lat="44.7206767" lon="8.1887983"><ele>432.0</ele><time>2026-04-12T12:32:37.997Z</time></trkpt><trkpt lat="44.7208217" lon="8.188795"><ele>432.0</ele><time>2026-04-12T12:32:39Z</time></trkpt><trkpt lat="44.7209783" lon="8.1888083"><ele>431.66666666666663</ele><time>2026-04-12T12:32:39.994Z</time></trkpt><trkpt lat="44.7211317" lon="8.18883"><ele>431.3333333333333</ele><time>2026-04-12T12:32:40.997Z</time></trkpt><trkpt lat="44.721285" lon="8.188855"><ele>431.0</ele><time>2026-04-12T12:32:41.997Z</time></trkpt><trkpt lat="44.72144" lon="8.1888767"><ele>431.0</ele><time>2026-04-12T12:32:42.997Z</time></trkpt><trkpt lat="44.7215933" lon="8.1888967"><ele>431.0</ele><time>2026-04-12T12:32:43.997Z</time></trkpt><trkpt lat="44.7217517" lon="8.1889117"><ele>431.0</ele><time>2026-04-12T12:32:45Z</time></trkpt><trkpt lat="44.7219033" lon="8.1889267"><ele>428.3333333333333</ele><time>2026-04-12T12:32:46.001Z</time></trkpt><trkpt lat="44.7220567" lon="8.18893"><ele>425.66666666666663</ele><time>2026-04-12T12:32:46.995Z</time></trkpt><trkpt lat="44.7222083" lon="8.1889367"><ele>423.0</ele><time>2026-04-12T12:32:48Z</time></trkpt><trkpt lat="44.72236" lon="8.1889433"><ele>423.0</ele><time>2026-04-12T12:32:48.997Z</time></trkpt><trkpt lat="44.7225133" lon="8.1889417"><ele>423.0</ele><time>2026-04-12T12:32:50.001Z</time></trkpt><trkpt lat="44.7226583" lon="8.188935"><ele>423.0</ele><time>2026-04-12T12:32:50.997Z</time></trkpt><trkpt lat="44.722795" lon="8.1889133"><ele>423.0</ele><time>2026-04-12T12:32:51.997Z</time></trkpt><trkpt lat="44.7229233" lon="8.1888617"><ele>418.75</ele><time>2026-04-12T12:32:52.995Z</time></trkpt><trkpt lat="44.72306" lon="8.188795"><ele>414.5</ele><time>2026-04-12T12:32:53.998Z</time></trkpt><trkpt lat="44.7231867" lon="8.188745"><ele>410.25</ele><time>2026-04-12T12:32:54.999Z</time></trkpt><trkpt lat="44.7233217" lon="8.1887167"><ele>406.0</ele><time>2026-04-12T12:32:55.997Z</time></trkpt><trkpt lat="44.7234483" lon="8.1887133"><ele>403.75</ele><time>2026-04-12T12:32:56.999Z</time></trkpt><trkpt lat="44.7235767" lon="8.1887317"><ele>401.5</ele><time>2026-04-12T12:32:58.001Z</time></trkpt><trkpt lat="44.7236983" lon="8.1887617"><ele>399.25</ele><time>2026-04-12T12:32:58.995Z</time></trkpt><trkpt lat="44.7238183" lon="8.1888033"><ele>397.0</ele><time>2026-04-12T12:32:59.998Z</time></trkpt><trkpt lat="44.7239333" lon="8.18885"><ele>397.0</ele><time>2026-04-12T12:33:00.998Z</time></trkpt><trkpt lat="44.7240483" lon="8.1888967"><ele>397.0</ele><time>2026-04-12T12:33:01.996Z</time></trkpt><trkpt lat="44.7241633" lon="8.1889367"><ele>397.0</ele><time>2026-04-12T12:33:02.995Z</time></trkpt><trkpt lat="44.724275" lon="8.1889733"><ele>397.0</ele><time>2026-04-12T12:33:03.995Z</time></trkpt><trkpt lat="44.7243833" lon="8.18901"><ele>397.8</ele><time>2026-04-12T12:33:04.998Z</time></trkpt><trkpt lat="44.7244867" lon="8.1890417"><ele>398.6</ele><time>2026-04-12T12:33:05.996Z</time></trkpt><trkpt lat="44.7245683" lon="8.189075"><ele>399.40000000000003</ele><time>2026-04-12T12:33:06.999Z</time></trkpt><trkpt lat="44.7246333" lon="8.18911"><ele>400.20000000000005</ele><time>2026-04-12T12:33:08Z</time></trkpt><trkpt lat="44.72472" lon="8.1891783"><ele>401.0</ele><time>2026-04-12T12:33:10.002Z</time></trkpt><trkpt lat="44.724715" lon="8.1893067"><ele>400.99999999999994</ele><time>2026-04-12T12:33:12.003Z</time></trkpt><trkpt lat="44.7246683" lon="8.18938"><ele>401.0</ele><time>2026-04-12T12:33:12.998Z</time></trkpt><trkpt lat="44.7246317" lon="8.189455"><ele>401.0</ele><time>2026-04-12T12:33:13.996Z</time></trkpt><trkpt lat="44.72462" lon="8.1896283"><ele>401.0</ele><time>2026-04-12T12:33:15.994Z</time></trkpt><trkpt lat="44.7246367" lon="8.189715"><ele>400.99999999999994</ele><time>2026-04-12T12:33:16.997Z</time></trkpt><trkpt lat="44.7246817" lon="8.1898183"><ele>401.0</ele><time>2026-04-12T12:33:17.995Z</time></trkpt><trkpt lat="44.72474" lon="8.1899267"><ele>400.8</ele><time>2026-04-12T12:33:18.995Z</time></trkpt><trkpt lat="44.7248167" lon="8.19003"><ele>400.6</ele><time>2026-04-12T12:33:19.997Z</time></trkpt><trkpt lat="44.7248967" lon="8.190135"><ele>400.4</ele><time>2026-04-12T12:33:20.999Z</time></trkpt><trkpt lat="44.7249683" lon="8.1902417"><ele>400.2</ele><time>2026-04-12T12:33:21.996Z</time></trkpt><trkpt lat="44.7250383" lon="8.1903567"><ele>400.0</ele><time>2026-04-12T12:33:22.996Z</time></trkpt><trkpt lat="44.725105" lon="8.190475"><ele>400.0</ele><time>2026-04-12T12:33:24.001Z</time></trkpt><trkpt lat="44.72516" lon="8.1906067"><ele>400.0</ele><time>2026-04-12T12:33:24.998Z</time></trkpt><trkpt lat="44.72523" lon="8.190725"><ele>400.0</ele><time>2026-04-12T12:33:25.998Z</time></trkpt><trkpt lat="44.725295" lon="8.1908517"><ele>400.0</ele><time>2026-04-12T12:33:26.997Z</time></trkpt><trkpt lat="44.725365" lon="8.1909767"><ele>400.0</ele><time>2026-04-12T12:33:27.997Z</time></trkpt><trkpt lat="44.7254283" lon="8.191115"><ele>400.25</ele><time>2026-04-12T12:33:28.998Z</time></trkpt><trkpt lat="44.725495" lon="8.191255"><ele>400.5</ele><time>2026-04-12T12:33:29.996Z</time></trkpt><trkpt lat="44.7255583" lon="8.1914"><ele>400.75</ele><time>2026-04-12T12:33:30.998Z</time></trkpt><trkpt lat="44.7256267" lon="8.1915467"><ele>401.0</ele><time>2026-04-12T12:33:31.998Z</time></trkpt><trkpt lat="44.7256967" lon="8.1916933"><ele>399.5</ele><time>2026-04-12T12:33:32.999Z</time></trkpt><trkpt lat="44.72577" lon="8.1918433"><ele>398.0</ele><time>2026-04-12T12:33:33.996Z</time></trkpt><trkpt lat="44.725835" lon="8.192"><ele>396.5</ele><time>2026-04-12T12:33:34.997Z</time></trkpt><trkpt lat="44.7259033" lon="8.192155"><ele>395.0</ele><time>2026-04-12T12:33:36.005Z</time></trkpt><trkpt lat="44.7259667" lon="8.192315"><ele>392.5</ele><time>2026-04-12T12:33:36.997Z</time></trkpt><trkpt lat="44.7260167" lon="8.1924833"><ele>390.0</ele><time>2026-04-12T12:33:38Z</time></trkpt><trkpt lat="44.726065" lon="8.192645"><ele>387.5</ele><time>2026-04-12T12:33:38.999Z</time></trkpt><trkpt lat="44.7261067" lon="8.1928017"><ele>385.0</ele><time>2026-04-12T12:33:39.998Z</time></trkpt><trkpt lat="44.7261467" lon="8.19294"><ele>385.00000000000006</ele><time>2026-04-12T12:33:40.996Z</time></trkpt><trkpt lat="44.7261833" lon="8.1930583"><ele>385.0</ele><time>2026-04-12T12:33:42.001Z</time></trkpt><trkpt lat="44.7262167" lon="8.1931533"><ele>385.0</ele><time>2026-04-12T12:33:42.997Z</time></trkpt><trkpt lat="44.7262617" lon="8.19323"><ele>385.0</ele><time>2026-04-12T12:33:43.997Z</time></trkpt><trkpt lat="44.72631" lon="8.1933067"><ele>385.00000000000006</ele><time>2026-04-12T12:33:44.998Z</time></trkpt><trkpt lat="44.7263633" lon="8.1933767"><ele>385.0</ele><time>2026-04-12T12:33:45.999Z</time></trkpt><trkpt lat="44.7264283" lon="8.1934217"><ele>383.83333333333337</ele><time>2026-04-12T12:33:46.995Z</time></trkpt><trkpt lat="44.7265033" lon="8.1934483"><ele>382.6666666666667</ele><time>2026-04-12T12:33:48.002Z</time></trkpt><trkpt lat="44.7265883" lon="8.19345"><ele>381.5</ele><time>2026-04-12T12:33:49.004Z</time></trkpt><trkpt lat="44.72667" lon="8.1934333"><ele>380.33333333333337</ele><time>2026-04-12T12:33:49.998Z</time></trkpt><trkpt lat="44.7267367" lon="8.1934217"><ele>379.1666666666667</ele><time>2026-04-12T12:33:51Z</time></trkpt><trkpt lat="44.726845" lon="8.1934333"><ele>378.0</ele><time>2026-04-12T12:33:53Z</time></trkpt><trkpt lat="44.7268683" lon="8.1935717"><ele>378.0</ele><time>2026-04-12T12:33:55Z</time></trkpt><trkpt lat="44.7268717" lon="8.193665"><ele>378.0</ele><time>2026-04-12T12:33:55.997Z</time></trkpt><trkpt lat="44.7268567" lon="8.19379"><ele>378.0</ele><time>2026-04-12T12:33:56.996Z</time></trkpt><trkpt lat="44.7268317" lon="8.19393"><ele>378.0</ele><time>2026-04-12T12:33:57.996Z</time></trkpt><trkpt lat="44.7268" lon="8.19407"><ele>378.0</ele><time>2026-04-12T12:33:58.995Z</time></trkpt><trkpt lat="44.726755" lon="8.19421"><ele>376.25</ele><time>2026-04-12T12:33:59.999Z</time></trkpt><trkpt lat="44.7266967" lon="8.194355"><ele>374.5</ele><time>2026-04-12T12:34:00.997Z</time></trkpt><trkpt lat="44.7266283" lon="8.1945033"><ele>372.75</ele><time>2026-04-12T12:34:01.997Z</time></trkpt><trkpt lat="44.726555" lon="8.194655"><ele>371.0</ele><time>2026-04-12T12:34:02.998Z</time></trkpt><trkpt lat="44.7264817" lon="8.1948017"><ele>366.25</ele><time>2026-04-12T12:34:04Z</time></trkpt><trkpt lat="44.7264" lon="8.19495"><ele>361.5</ele><time>2026-04-12T12:34:04.998Z</time></trkpt><trkpt lat="44.726315" lon="8.1950917"><ele>356.75</ele><time>2026-04-12T12:34:06Z</time></trkpt><trkpt lat="44.7262333" lon="8.1952217"><ele>352.0</ele><time>2026-04-12T12:34:07.007Z</time></trkpt><trkpt lat="44.7261567" lon="8.1953617"><ele>352.0</ele><time>2026-04-12T12:34:07.997Z</time></trkpt><trkpt lat="44.7260983" lon="8.1955133"><ele>352.0</ele><time>2026-04-12T12:34:09.005Z</time></trkpt><trkpt lat="44.72606" lon="8.195685"><ele>352.0</ele><time>2026-04-12T12:34:09.995Z</time></trkpt><trkpt lat="44.7260383" lon="8.19587"><ele>352.0</ele><time>2026-04-12T12:34:10.995Z</time></trkpt><trkpt lat="44.7260433" lon="8.1960633"><ele>349.75</ele><time>2026-04-12T12:34:11.996Z</time></trkpt><trkpt lat="44.7260633" lon="8.1962633"><ele>347.5</ele><time>2026-04-12T12:34:12.998Z</time></trkpt><trkpt lat="44.72609" lon="8.196465"><ele>345.25</ele><time>2026-04-12T12:34:13.998Z</time></trkpt><trkpt lat="44.7261167" lon="8.1966583"><ele>343.0</ele><time>2026-04-12T12:34:15Z</time></trkpt><trkpt lat="44.7261467" lon="8.1968383"><ele>342.0</ele><time>2026-04-12T12:34:15.998Z</time></trkpt><trkpt lat="44.7261733" lon="8.1970017"><ele>341.0</ele><time>2026-04-12T12:34:16.997Z</time></trkpt><trkpt lat="44.726195" lon="8.19714"><ele>340.0</ele><time>2026-04-12T12:34:18Z</time></trkpt><trkpt lat="44.7262283" lon="8.1972733"><ele>339.0</ele><time>2026-04-12T12:34:19.003Z</time></trkpt><trkpt lat="44.7262733" lon="8.1974033"><ele>338.0</ele><time>2026-04-12T12:34:19.996Z</time></trkpt><trkpt lat="44.72632" lon="8.1975317"><ele>338.0</ele><time>2026-04-12T12:34:20.994Z</time></trkpt><trkpt lat="44.726375" lon="8.1976633"><ele>338.0</ele><time>2026-04-12T12:34:21.998Z</time></trkpt><trkpt lat="44.7264367" lon="8.19779"><ele>338.0</ele><time>2026-04-12T12:34:22.993Z</time></trkpt><trkpt lat="44.7265" lon="8.19792"><ele>338.0</ele><time>2026-04-12T12:34:23.997Z</time></trkpt><trkpt lat="44.7265667" lon="8.1980483"><ele>338.0</ele><time>2026-04-12T12:34:24.996Z</time></trkpt><trkpt lat="44.7266333" lon="8.1981817"><ele>340.0</ele><time>2026-04-12T12:34:25.997Z</time></trkpt><trkpt lat="44.7266917" lon="8.1983183"><ele>342.0</ele><time>2026-04-12T12:34:26.997Z</time></trkpt><trkpt lat="44.7267417" lon="8.1984617"><ele>344.0</ele><time>2026-04-12T12:34:27.998Z</time></trkpt><trkpt lat="44.726785" lon="8.1986067"><ele>346.0</ele><time>2026-04-12T12:34:29.001Z</time></trkpt><trkpt lat="44.7268333" lon="8.1987517"><ele>346.0</ele><time>2026-04-12T12:34:30Z</time></trkpt><trkpt lat="44.7268767" lon="8.1989033"><ele>346.0</ele><time>2026-04-12T12:34:31.004Z</time></trkpt><trkpt lat="44.72692" lon="8.19906"><ele>346.0</ele><time>2026-04-12T12:34:31.998Z</time></trkpt><trkpt lat="44.7269633" lon="8.1992133"><ele>346.0</ele><time>2026-04-12T12:34:33.001Z</time></trkpt><trkpt lat="44.7270083" lon="8.199365"><ele>344.0</ele><time>2026-04-12T12:34:33.997Z</time></trkpt><trkpt lat="44.7270567" lon="8.1995083"><ele>342.0</ele><time>2026-04-12T12:34:34.997Z</time></trkpt><trkpt lat="44.7271167" lon="8.1996467"><ele>340.0</ele><time>2026-04-12T12:34:35.998Z</time></trkpt><trkpt lat="44.7271783" lon="8.1997733"><ele>338.0</ele><time>2026-04-12T12:34:37Z</time></trkpt><trkpt lat="44.7272433" lon="8.1998933"><ele>336.0</ele><time>2026-04-12T12:34:37.998Z</time></trkpt><trkpt lat="44.727315" lon="8.2000117"><ele>336.0</ele><time>2026-04-12T12:34:38.996Z</time></trkpt><trkpt lat="44.72739" lon="8.2001233"><ele>336.0</ele><time>2026-04-12T12:34:39.996Z</time></trkpt><trkpt lat="44.72747" lon="8.2002267"><ele>336.0</ele><time>2026-04-12T12:34:40.996Z</time></trkpt><trkpt lat="44.7275483" lon="8.200325"><ele>336.0</ele><time>2026-04-12T12:34:41.999Z</time></trkpt><trkpt lat="44.727625" lon="8.2004283"><ele>336.0</ele><time>2026-04-12T12:34:42.998Z</time></trkpt><trkpt lat="44.7276883" lon="8.2005383"><ele>336.0</ele><time>2026-04-12T12:34:43.995Z</time></trkpt><trkpt lat="44.7277233" lon="8.200655"><ele>336.0</ele><time>2026-04-12T12:34:44.994Z</time></trkpt><trkpt lat="44.727735" lon="8.200775"><ele>336.0</ele><time>2026-04-12T12:34:45.995Z</time></trkpt><trkpt lat="44.72772" lon="8.2009033"><ele>336.0</ele><time>2026-04-12T12:34:46.999Z</time></trkpt><trkpt lat="44.7276933" lon="8.2010417"><ele>336.0</ele><time>2026-04-12T12:34:47.999Z</time></trkpt><trkpt lat="44.727655" lon="8.20118"><ele>336.1666666666667</ele><time>2026-04-12T12:34:48.993Z</time></trkpt><trkpt lat="44.72761" lon="8.201305"><ele>336.3333333333333</ele><time>2026-04-12T12:34:49.998Z</time></trkpt><trkpt lat="44.72757" lon="8.2014067"><ele>336.5</ele><time>2026-04-12T12:34:50.993Z</time></trkpt><trkpt lat="44.7275483" lon="8.2015033"><ele>336.66666666666663</ele><time>2026-04-12T12:34:52Z</time></trkpt><trkpt lat="44.72757" lon="8.20167"><ele>336.8333333333333</ele><time>2026-04-12T12:34:53.998Z</time></trkpt><trkpt lat="44.727635" lon="8.20169"><ele>337.0</ele><time>2026-04-12T12:34:54.996Z</time></trkpt><trkpt lat="44.7277033" lon="8.20166"><ele>333.40000000000003</ele><time>2026-04-12T12:34:55.995Z</time></trkpt><trkpt lat="44.7277733" lon="8.201615"><ele>329.8</ele><time>2026-04-12T12:34:56.998Z</time></trkpt><trkpt lat="44.7278467" lon="8.2015033"><ele>326.2</ele><time>2026-04-12T12:34:57.995Z</time></trkpt><trkpt lat="44.7279167" lon="8.201365"><ele>322.6</ele><time>2026-04-12T12:34:58.996Z</time></trkpt><trkpt lat="44.7279833" lon="8.2012217"><ele>319.0</ele><time>2026-04-12T12:34:59.999Z</time></trkpt><trkpt lat="44.7280517" lon="8.2010817"><ele>319.0</ele><time>2026-04-12T12:35:01.001Z</time></trkpt><trkpt lat="44.7281183" lon="8.2009583"><ele>319.0</ele><time>2026-04-12T12:35:02.001Z</time></trkpt><trkpt lat="44.7281883" lon="8.2008283"><ele>319.0</ele><time>2026-04-12T12:35:02.999Z</time></trkpt><trkpt lat="44.7282633" lon="8.2007033"><ele>319.0</ele><time>2026-04-12T12:35:04Z</time></trkpt><trkpt lat="44.7283383" lon="8.200605"><ele>319.0</ele><time>2026-04-12T12:35:05Z</time></trkpt><trkpt lat="44.7284167" lon="8.2005383"><ele>319.16666666666663</ele><time>2026-04-12T12:35:06.002Z</time></trkpt><trkpt lat="44.7284967" lon="8.2004883"><ele>319.3333333333333</ele><time>2026-04-12T12:35:06.998Z</time></trkpt><trkpt lat="44.728575" lon="8.2004583"><ele>319.5</ele><time>2026-04-12T12:35:08Z</time></trkpt><trkpt lat="44.7286433" lon="8.200455"><ele>319.6666666666667</ele><time>2026-04-12T12:35:08.998Z</time></trkpt><trkpt lat="44.7287167" lon="8.200525"><ele>319.83333333333337</ele><time>2026-04-12T12:35:10.997Z</time></trkpt><trkpt lat="44.7286967" lon="8.20061"><ele>320.0</ele><time>2026-04-12T12:35:11.998Z</time></trkpt><trkpt lat="44.7286767" lon="8.2007017"><ele>319.8</ele><time>2026-04-12T12:35:13.001Z</time></trkpt><trkpt lat="44.728625" lon="8.2008133"><ele>319.6</ele><time>2026-04-12T12:35:13.996Z</time></trkpt><trkpt lat="44.7285767" lon="8.200925"><ele>319.4</ele><time>2026-04-12T12:35:14.998Z</time></trkpt><trkpt lat="44.7285283" lon="8.2010517"><ele>319.2</ele><time>2026-04-12T12:35:15.994Z</time></trkpt><trkpt lat="44.7284583" lon="8.2011817"><ele>319.0</ele><time>2026-04-12T12:35:17.001Z</time></trkpt><trkpt lat="44.7284083" lon="8.2013183"><ele>319.0</ele><time>2026-04-12T12:35:17.999Z</time></trkpt><trkpt lat="44.7283633" lon="8.2014617"><ele>319.0</ele><time>2026-04-12T12:35:18.999Z</time></trkpt><trkpt lat="44.728335" lon="8.2016083"><ele>319.0</ele><time>2026-04-12T12:35:20.001Z</time></trkpt><trkpt lat="44.7283133" lon="8.2017533"><ele>319.0</ele><time>2026-04-12T12:35:20.999Z</time></trkpt><trkpt lat="44.728305" lon="8.2019033"><ele>319.0</ele><time>2026-04-12T12:35:21.995Z</time></trkpt><trkpt lat="44.7283067" lon="8.2020567"><ele>317.4</ele><time>2026-04-12T12:35:22.998Z</time></trkpt><trkpt lat="44.7283067" lon="8.2022083"><ele>315.79999999999995</ele><time>2026-04-12T12:35:23.997Z</time></trkpt><trkpt lat="44.728305" lon="8.2023683"><ele>314.20000000000005</ele><time>2026-04-12T12:35:24.996Z</time></trkpt><trkpt lat="44.7283067" lon="8.2025267"><ele>312.6</ele><time>2026-04-12T12:35:25.997Z</time></trkpt><trkpt lat="44.728315" lon="8.2026883"><ele>311.0</ele><time>2026-04-12T12:35:26.998Z</time></trkpt><trkpt lat="44.728325" lon="8.2028533"><ele>309.8</ele><time>2026-04-12T12:35:27.994Z</time></trkpt><trkpt lat="44.7283333" lon="8.20302"><ele>308.6</ele><time>2026-04-12T12:35:29.002Z</time></trkpt><trkpt lat="44.72835" lon="8.203185"><ele>307.4</ele><time>2026-04-12T12:35:29.994Z</time></trkpt><trkpt lat="44.7283733" lon="8.20333"><ele>306.2</ele><time>2026-04-12T12:35:30.999Z</time></trkpt><trkpt lat="44.7283983" lon="8.2034333"><ele>305.0</ele><time>2026-04-12T12:35:31.991Z</time></trkpt><trkpt lat="44.7284367" lon="8.2035717"><ele>304.6</ele><time>2026-04-12T12:35:33.998Z</time></trkpt><trkpt lat="44.7284667" lon="8.20365"><ele>304.2</ele><time>2026-04-12T12:35:35.994Z</time></trkpt><trkpt lat="44.728525" lon="8.2037433"><ele>303.8</ele><time>2026-04-12T12:36:58.992Z</time></trkpt><trkpt lat="44.7285667" lon="8.2038533"><ele>303.4</ele><time>2026-04-12T12:37:01.001Z</time></trkpt><trkpt lat="44.7286183" lon="8.2039883"><ele>303.0</ele><time>2026-04-12T12:37:02.994Z</time></trkpt><trkpt lat="44.7286883" lon="8.2041383"><ele>300.14285714285717</ele><time>2026-04-12T12:37:04.996Z</time></trkpt><trkpt lat="44.72874" lon="8.2042067"><ele>297.2857142857143</ele><time>2026-04-12T12:37:06Z</time></trkpt><trkpt lat="44.7287933" lon="8.2042717"><ele>294.42857142857144</ele><time>2026-04-12T12:37:07.002Z</time></trkpt><trkpt lat="44.72885" lon="8.2043383"><ele>291.57142857142856</ele><time>2026-04-12T12:37:07.996Z</time></trkpt><trkpt lat="44.7289083" lon="8.2044083"><ele>288.7142857142857</ele><time>2026-04-12T12:37:09.001Z</time></trkpt><trkpt lat="44.7289617" lon="8.20448"><ele>285.8571428571429</ele><time>2026-04-12T12:37:09.997Z</time></trkpt><trkpt lat="44.7290033" lon="8.2045583"><ele>283.0</ele><time>2026-04-12T12:37:10.999Z</time></trkpt><trkpt lat="44.72904" lon="8.2046433"><ele>283.0</ele><time>2026-04-12T12:37:11.996Z</time></trkpt><trkpt lat="44.7290683" lon="8.2047333"><ele>283.0</ele><time>2026-04-12T12:37:12.998Z</time></trkpt><trkpt lat="44.72908" lon="8.20483"><ele>283.0</ele><time>2026-04-12T12:37:13.997Z</time></trkpt><trkpt lat="44.7290867" lon="8.20492"><ele>283.0</ele><time>2026-04-12T12:37:14.996Z</time></trkpt><trkpt lat="44.7290917" lon="8.2050117"><ele>283.0</ele><time>2026-04-12T12:37:15.998Z</time></trkpt><trkpt lat="44.7291" lon="8.2051"><ele>283.0</ele><time>2026-04-12T12:37:16.998Z</time></trkpt><trkpt lat="44.72916" lon="8.20523"><ele>283.0</ele><time>2026-04-12T12:37:18.996Z</time></trkpt><trkpt lat="44.729225" lon="8.2052467"><ele>283.0</ele><time>2026-04-12T12:37:20.998Z</time></trkpt><trkpt lat="44.7292833" lon="8.2051483"><ele>283.0</ele><time>2026-04-12T12:37:22.999Z</time></trkpt><trkpt lat="44.7293033" lon="8.2050633"><ele>283.0</ele><time>2026-04-12T12:37:23.995Z</time></trkpt><trkpt lat="44.72928" lon="8.20488"><ele>283.0</ele><time>2026-04-12T12:37:25.997Z</time></trkpt><trkpt lat="44.729265" lon="8.2047167"><ele>283.0</ele><time>2026-04-12T12:37:27.993Z</time></trkpt><trkpt lat="44.7293083" lon="8.204615"><ele>283.0</ele><time>2026-04-12T12:37:29.994Z</time></trkpt><trkpt lat="44.7293717" lon="8.2046117"><ele>283.0</ele><time>2026-04-12T12:37:32.001Z</time></trkpt><trkpt lat="44.7294283" lon="8.2047"><ele>283.0</ele><time>2026-04-12T12:37:33.993Z</time></trkpt><trkpt lat="44.7294567" lon="8.2047867"><ele>283.0</ele><time>2026-04-12T12:37:34.996Z</time></trkpt><trkpt lat="44.72947" lon="8.2049"><ele>283.0</ele><time>2026-04-12T12:37:35.994Z</time></trkpt><trkpt lat="44.7294783" lon="8.2050167"><ele>283.0</ele><time>2026-04-12T12:37:36.992Z</time></trkpt><trkpt lat="44.7294917" lon="8.2051283"><ele>280.8333333333333</ele><time>2026-04-12T12:37:37.998Z</time></trkpt><trkpt lat="44.7295217" lon="8.205245"><ele>278.66666666666663</ele><time>2026-04-12T12:37:38.996Z</time></trkpt><trkpt lat="44.729555" lon="8.2053567"><ele>276.5</ele><time>2026-04-12T12:37:39.994Z</time></trkpt><trkpt lat="44.7295917" lon="8.205465"><ele>274.3333333333333</ele><time>2026-04-12T12:37:40.998Z</time></trkpt><trkpt lat="44.7296333" lon="8.2055683"><ele>272.1666666666667</ele><time>2026-04-12T12:37:41.998Z</time></trkpt><trkpt lat="44.7296833" lon="8.2056683"><ele>270.0</ele><time>2026-04-12T12:37:42.998Z</time></trkpt><trkpt lat="44.729745" lon="8.205765"><ele>270.0</ele><time>2026-04-12T12:37:44.003Z</time></trkpt><trkpt lat="44.7298067" lon="8.2058617"><ele>270.0</ele><time>2026-04-12T12:37:45.001Z</time></trkpt><trkpt lat="44.7298683" lon="8.2059517"><ele>270.0</ele><time>2026-04-12T12:37:45.998Z</time></trkpt><trkpt lat="44.72993" lon="8.2060467"><ele>270.0</ele><time>2026-04-12T12:37:46.999Z</time></trkpt><trkpt lat="44.7299933" lon="8.2061417"><ele>270.0</ele><time>2026-04-12T12:37:47.996Z</time></trkpt><trkpt lat="44.7300567" lon="8.206235"><ele>270.0</ele><time>2026-04-12T12:37:48.999Z</time></trkpt><trkpt lat="44.7301183" lon="8.2063333"><ele>270.0</ele><time>2026-04-12T12:37:49.997Z</time></trkpt><trkpt lat="44.7301817" lon="8.2064333"><ele>270.0</ele><time>2026-04-12T12:37:51Z</time></trkpt><trkpt lat="44.7302467" lon="8.2065367"><ele>270.0</ele><time>2026-04-12T12:37:51.997Z</time></trkpt><trkpt lat="44.7303133" lon="8.2066433"><ele>270.0</ele><time>2026-04-12T12:37:53Z</time></trkpt><trkpt lat="44.7303883" lon="8.2067367"><ele>266.6</ele><time>2026-04-12T12:37:54.003Z</time></trkpt><trkpt lat="44.730455" lon="8.2068483"><ele>263.2</ele><time>2026-04-12T12:37:54.998Z</time></trkpt><trkpt lat="44.7305283" lon="8.206945"><ele>259.8</ele><time>2026-04-12T12:37:56.001Z</time></trkpt><trkpt lat="44.7305983" lon="8.2070467"><ele>256.4</ele><time>2026-04-12T12:37:56.994Z</time></trkpt><trkpt lat="44.7306567" lon="8.20715"><ele>253.0</ele><time>2026-04-12T12:37:58.001Z</time></trkpt><trkpt lat="44.73072" lon="8.2072567"><ele>254.8</ele><time>2026-04-12T12:37:58.996Z</time></trkpt><trkpt lat="44.7307833" lon="8.2073667"><ele>256.6</ele><time>2026-04-12T12:37:59.998Z</time></trkpt><trkpt lat="44.7308433" lon="8.2074817"><ele>258.4</ele><time>2026-04-12T12:38:00.998Z</time></trkpt><trkpt lat="44.7309067" lon="8.2076067"><ele>260.2</ele><time>2026-04-12T12:38:02.001Z</time></trkpt><trkpt lat="44.7309683" lon="8.2077317"><ele>262.0</ele><time>2026-04-12T12:38:02.994Z</time></trkpt><trkpt lat="44.73104" lon="8.2078567"><ele>258.25</ele><time>2026-04-12T12:38:03.998Z</time></trkpt><trkpt lat="44.7311067" lon="8.20798"><ele>254.5</ele><time>2026-04-12T12:38:04.997Z</time></trkpt><trkpt lat="44.7311783" lon="8.2081"><ele>250.75</ele><time>2026-04-12T12:38:05.994Z</time></trkpt><trkpt lat="44.7312483" lon="8.2082267"><ele>247.0</ele><time>2026-04-12T12:38:07Z</time></trkpt><trkpt lat="44.7313183" lon="8.20836"><ele>247.0</ele><time>2026-04-12T12:38:07.995Z</time></trkpt><trkpt lat="44.73139" lon="8.2084917"><ele>247.0</ele><time>2026-04-12T12:38:08.997Z</time></trkpt><trkpt lat="44.7314617" lon="8.2086283"><ele>247.0</ele><time>2026-04-12T12:38:10.001Z</time></trkpt><trkpt lat="44.7315333" lon="8.20876"><ele>247.0</ele><time>2026-04-12T12:38:10.995Z</time></trkpt><trkpt lat="44.7316067" lon="8.2088983"><ele>247.5</ele><time>2026-04-12T12:38:11.997Z</time></trkpt><trkpt lat="44.731685" lon="8.2090283"><ele>248.0</ele><time>2026-04-12T12:38:12.996Z</time></trkpt><trkpt lat="44.73176" lon="8.209165"><ele>248.5</ele><time>2026-04-12T12:38:13.995Z</time></trkpt><trkpt lat="44.7318317" lon="8.2093067"><ele>249.0</ele><time>2026-04-12T12:38:14.999Z</time></trkpt><trkpt lat="44.7319017" lon="8.2094433"><ele>245.75</ele><time>2026-04-12T12:38:15.995Z</time></trkpt><trkpt lat="44.7319767" lon="8.20958"><ele>242.5</ele><time>2026-04-12T12:38:16.995Z</time></trkpt><trkpt lat="44.7320483" lon="8.20971"><ele>239.25</ele><time>2026-04-12T12:38:17.995Z</time></trkpt><trkpt lat="44.732115" lon="8.2098367"><ele>236.0</ele><time>2026-04-12T12:38:18.998Z</time></trkpt><trkpt lat="44.73218" lon="8.2099667"><ele>236.0</ele><time>2026-04-12T12:38:19.994Z</time></trkpt><trkpt lat="44.73224" lon="8.2100967"><ele>236.00000000000003</ele><time>2026-04-12T12:38:20.997Z</time></trkpt><trkpt lat="44.732295" lon="8.2102283"><ele>236.00000000000003</ele><time>2026-04-12T12:38:21.999Z</time></trkpt><trkpt lat="44.7323417" lon="8.210365"><ele>236.0</ele><time>2026-04-12T12:38:22.996Z</time></trkpt><trkpt lat="44.7323917" lon="8.210495"><ele>236.0</ele><time>2026-04-12T12:38:23.997Z</time></trkpt><trkpt lat="44.732455" lon="8.2106117"><ele>237.20000000000002</ele><time>2026-04-12T12:38:24.998Z</time></trkpt><trkpt lat="44.7325167" lon="8.2107183"><ele>238.40000000000003</ele><time>2026-04-12T12:38:25.994Z</time></trkpt><trkpt lat="44.7325917" lon="8.2108183"><ele>239.6</ele><time>2026-04-12T12:38:26.998Z</time></trkpt><trkpt lat="44.7326733" lon="8.2109117"><ele>240.8</ele><time>2026-04-12T12:38:27.998Z</time></trkpt><trkpt lat="44.73276" lon="8.211"><ele>242.0</ele><time>2026-04-12T12:38:28.997Z</time></trkpt><trkpt lat="44.7328417" lon="8.2110883"><ele>239.6</ele><time>2026-04-12T12:38:29.997Z</time></trkpt><trkpt lat="44.7329267" lon="8.2111733"><ele>237.2</ele><time>2026-04-12T12:38:30.997Z</time></trkpt><trkpt lat="44.7330117" lon="8.2112667"><ele>234.8</ele><time>2026-04-12T12:38:31.994Z</time></trkpt><trkpt lat="44.7330967" lon="8.21136"><ele>232.4</ele><time>2026-04-12T12:38:32.995Z</time></trkpt><trkpt lat="44.7331767" lon="8.211465"><ele>230.0</ele><time>2026-04-12T12:38:33.995Z</time></trkpt><trkpt lat="44.7332467" lon="8.211585"><ele>230.0</ele><time>2026-04-12T12:38:34.997Z</time></trkpt><trkpt lat="44.7333183" lon="8.2117133"><ele>230.0</ele><time>2026-04-12T12:38:35.997Z</time></trkpt><trkpt lat="44.7333917" lon="8.21185"><ele>230.0</ele><time>2026-04-12T12:38:36.999Z</time></trkpt><trkpt lat="44.7334583" lon="8.2119983"><ele>230.0</ele><time>2026-04-12T12:38:37.997Z</time></trkpt><trkpt lat="44.7335267" lon="8.2121517"><ele>228.0</ele><time>2026-04-12T12:38:38.999Z</time></trkpt><trkpt lat="44.733595" lon="8.2123"><ele>226.0</ele><time>2026-04-12T12:38:39.994Z</time></trkpt><trkpt lat="44.7336617" lon="8.21244"><ele>224.0</ele><time>2026-04-12T12:38:40.995Z</time></trkpt><trkpt lat="44.7337233" lon="8.2125817"><ele>222.0</ele><time>2026-04-12T12:38:41.995Z</time></trkpt><trkpt lat="44.7337833" lon="8.2127183"><ele>222.0</ele><time>2026-04-12T12:38:42.997Z</time></trkpt><trkpt lat="44.7338433" lon="8.21285"><ele>222.0</ele><time>2026-04-12T12:38:43.998Z</time></trkpt><trkpt lat="44.733905" lon="8.2129733"><ele>222.0</ele><time>2026-04-12T12:38:44.998Z</time></trkpt><trkpt lat="44.7339633" lon="8.2130933"><ele>222.0</ele><time>2026-04-12T12:38:45.996Z</time></trkpt><trkpt lat="44.73402" lon="8.2132183"><ele>222.0</ele><time>2026-04-12T12:38:46.993Z</time></trkpt><trkpt lat="44.7340717" lon="8.213345"><ele>221.8</ele><time>2026-04-12T12:38:47.997Z</time></trkpt><trkpt lat="44.7341117" lon="8.2134633"><ele>221.6</ele><time>2026-04-12T12:38:48.997Z</time></trkpt><trkpt lat="44.7341367" lon="8.2135783"><ele>221.40000000000003</ele><time>2026-04-12T12:38:49.995Z</time></trkpt><trkpt lat="44.73414" lon="8.2137033"><ele>221.20000000000002</ele><time>2026-04-12T12:38:50.994Z</time></trkpt><trkpt lat="44.7341317" lon="8.2138317"><ele>221.0</ele><time>2026-04-12T12:38:51.995Z</time></trkpt><trkpt lat="44.7341267" lon="8.21396"><ele>220.4</ele><time>2026-04-12T12:38:52.995Z</time></trkpt><trkpt lat="44.7341383" lon="8.2140933"><ele>219.8</ele><time>2026-04-12T12:38:53.992Z</time></trkpt><trkpt lat="44.7341683" lon="8.21423"><ele>219.20000000000002</ele><time>2026-04-12T12:38:54.993Z</time></trkpt><trkpt lat="44.734205" lon="8.21437"><ele>218.60000000000002</ele><time>2026-04-12T12:38:55.994Z</time></trkpt><trkpt lat="44.7342467" lon="8.2145133"><ele>218.0</ele><time>2026-04-12T12:38:56.998Z</time></trkpt><trkpt lat="44.7342933" lon="8.2146483"><ele>218.0</ele><time>2026-04-12T12:38:57.999Z</time></trkpt><trkpt lat="44.73433" lon="8.21479"><ele>218.0</ele><time>2026-04-12T12:38:58.994Z</time></trkpt><trkpt lat="44.7343483" lon="8.214945"><ele>218.0</ele><time>2026-04-12T12:38:59.992Z</time></trkpt><trkpt lat="44.7343367" lon="8.2151017"><ele>218.0</ele><time>2026-04-12T12:39:00.998Z</time></trkpt><trkpt lat="44.7342983" lon="8.2152517"><ele>218.0</ele><time>2026-04-12T12:39:01.996Z</time></trkpt><trkpt lat="44.73425" lon="8.215395"><ele>216.2</ele><time>2026-04-12T12:39:03Z</time></trkpt><trkpt lat="44.7342017" lon="8.2155433"><ele>214.4</ele><time>2026-04-12T12:39:04Z</time></trkpt><trkpt lat="44.7341567" lon="8.2157"><ele>212.6</ele><time>2026-04-12T12:39:04.997Z</time></trkpt><trkpt lat="44.7341233" lon="8.2158583"><ele>210.79999999999998</ele><time>2026-04-12T12:39:05.996Z</time></trkpt><trkpt lat="44.7341117" lon="8.21599"><ele>209.0</ele><time>2026-04-12T12:39:06.999Z</time></trkpt><trkpt lat="44.7341217" lon="8.2161117"><ele>207.2</ele><time>2026-04-12T12:39:07.997Z</time></trkpt><trkpt lat="44.7341433" lon="8.216205"><ele>205.39999999999998</ele><time>2026-04-12T12:39:08.994Z</time></trkpt><trkpt lat="44.7342383" lon="8.2162883"><ele>203.6</ele><time>2026-04-12T12:39:10.995Z</time></trkpt><trkpt lat="44.73434" lon="8.216275"><ele>201.8</ele><time>2026-04-12T12:39:11.998Z</time></trkpt><trkpt lat="44.734435" lon="8.2162483"><ele>200.0</ele><time>2026-04-12T12:39:12.996Z</time></trkpt><trkpt lat="44.7345217" lon="8.2162033"><ele>199.75</ele><time>2026-04-12T12:39:13.998Z</time></trkpt><trkpt lat="44.7346367" lon="8.2161417"><ele>199.5</ele><time>2026-04-12T12:39:14.998Z</time></trkpt><trkpt lat="44.7347633" lon="8.21608"><ele>199.25</ele><time>2026-04-12T12:39:15.995Z</time></trkpt><trkpt lat="44.7348917" lon="8.2160233"><ele>199.0</ele><time>2026-04-12T12:39:17Z</time></trkpt><trkpt lat="44.7350133" lon="8.2159817"><ele>199.0</ele><time>2026-04-12T12:39:17.993Z</time></trkpt><trkpt lat="44.73513" lon="8.21595"><ele>199.0</ele><time>2026-04-12T12:39:18.995Z</time></trkpt><trkpt lat="44.73524" lon="8.215925"><ele>199.0</ele><time>2026-04-12T12:39:19.996Z</time></trkpt><trkpt lat="44.7353333" lon="8.215915"><ele>199.0</ele><time>2026-04-12T12:39:20.998Z</time></trkpt><trkpt lat="44.735405" lon="8.2159167"><ele>199.0</ele><time>2026-04-12T12:39:22.001Z</time></trkpt><trkpt lat="44.7354633" lon="8.2159783"><ele>198.99999999999997</ele><time>2026-04-12T12:39:23.996Z</time></trkpt><trkpt lat="44.7354467" lon="8.2161033"><ele>199.0</ele><time>2026-04-12T12:39:27Z</time></trkpt><trkpt lat="44.7353583" lon="8.2161917"><ele>199.0</ele><time>2026-04-12T12:39:28.997Z</time></trkpt><trkpt lat="44.7352967" lon="8.21624"><ele>199.0</ele><time>2026-04-12T12:39:29.999Z</time></trkpt><trkpt lat="44.7352283" lon="8.21629"><ele>198.99999999999997</ele><time>2026-04-12T12:39:30.997Z</time></trkpt><trkpt lat="44.73516" lon="8.2163417"><ele>199.0</ele><time>2026-04-12T12:39:32Z</time></trkpt><trkpt lat="44.7350933" lon="8.2164"><ele>198.99999999999997</ele><time>2026-04-12T12:39:33Z</time></trkpt><trkpt lat="44.7350233" lon="8.2164633"><ele>199.0</ele><time>2026-04-12T12:39:33.997Z</time></trkpt><trkpt lat="44.73495" lon="8.2165283"><ele>199.0</ele><time>2026-04-12T12:39:34.995Z</time></trkpt><trkpt lat="44.7348833" lon="8.2165917"><ele>199.0</ele><time>2026-04-12T12:39:36Z</time></trkpt><trkpt lat="44.7348117" lon="8.216655"><ele>198.99999999999997</ele><time>2026-04-12T12:39:36.999Z</time></trkpt><trkpt lat="44.734745" lon="8.216715"><ele>199.0</ele><time>2026-04-12T12:39:37.997Z</time></trkpt><trkpt lat="44.7346767" lon="8.2167717"><ele>197.99999999999997</ele><time>2026-04-12T12:39:38.998Z</time></trkpt><trkpt lat="44.7346067" lon="8.2168283"><ele>197.0</ele><time>2026-04-12T12:39:40.002Z</time></trkpt><trkpt lat="44.7345317" lon="8.2168867"><ele>196.0</ele><time>2026-04-12T12:39:40.994Z</time></trkpt><trkpt lat="44.7344633" lon="8.2169467"><ele>195.0</ele><time>2026-04-12T12:39:41.998Z</time></trkpt><trkpt lat="44.7343917" lon="8.2170117"><ele>193.99999999999997</ele><time>2026-04-12T12:39:42.997Z</time></trkpt><trkpt lat="44.7343283" lon="8.21709"><ele>193.0</ele><time>2026-04-12T12:39:43.999Z</time></trkpt><trkpt lat="44.7342583" lon="8.2171733"><ele>192.99999999999997</ele><time>2026-04-12T12:39:44.998Z</time></trkpt><trkpt lat="44.7342233" lon="8.2172717"><ele>193.0</ele><time>2026-04-12T12:39:45.996Z</time></trkpt><trkpt lat="44.7342" lon="8.217375"><ele>193.0</ele><time>2026-04-12T12:39:46.995Z</time></trkpt><trkpt lat="44.7341783" lon="8.21748"><ele>193.0</ele><time>2026-04-12T12:39:47.994Z</time></trkpt><trkpt lat="44.73418" lon="8.2175867"><ele>192.99999999999997</ele><time>2026-04-12T12:39:48.996Z</time></trkpt><trkpt lat="44.7341883" lon="8.217685"><ele>193.0</ele><time>2026-04-12T12:39:49.995Z</time></trkpt><trkpt lat="44.7342017" lon="8.21779"><ele>190.49999999999997</ele><time>2026-04-12T12:39:50.996Z</time></trkpt><trkpt lat="44.734225" lon="8.217895"><ele>188.0</ele><time>2026-04-12T12:39:51.994Z</time></trkpt><trkpt lat="44.7342417" lon="8.2180017"><ele>185.5</ele><time>2026-04-12T12:39:52.997Z</time></trkpt><trkpt lat="44.73427" lon="8.2181033"><ele>183.0</ele><time>2026-04-12T12:39:53.997Z</time></trkpt><trkpt lat="44.734295" lon="8.2182033"><ele>180.5</ele><time>2026-04-12T12:39:55Z</time></trkpt><trkpt lat="44.7343183" lon="8.2183"><ele>178.0</ele><time>2026-04-12T12:39:55.999Z</time></trkpt><trkpt lat="44.734345" lon="8.2183983"><ele>177.7142857142857</ele><time>2026-04-12T12:39:56.997Z</time></trkpt><trkpt lat="44.73437" lon="8.2184967"><ele>177.42857142857142</ele><time>2026-04-12T12:39:58.002Z</time></trkpt><trkpt lat="44.734395" lon="8.2185967"><ele>177.14285714285714</ele><time>2026-04-12T12:39:58.998Z</time></trkpt><trkpt lat="44.7344233" lon="8.21869"><ele>176.85714285714283</ele><time>2026-04-12T12:39:59.998Z</time></trkpt><trkpt lat="44.7344467" lon="8.218775"><ele>176.57142857142856</ele><time>2026-04-12T12:40:00.999Z</time></trkpt><trkpt lat="44.7344717" lon="8.2189083"><ele>176.28571428571428</ele><time>2026-04-12T12:40:02.998Z</time></trkpt><trkpt lat="44.7344883" lon="8.2189967"><ele>176.0</ele><time>2026-04-12T12:40:05.997Z</time></trkpt><trkpt lat="44.7345733" lon="8.2190117"><ele>176.8</ele><time>2026-04-12T12:40:12.005Z</time></trkpt><trkpt lat="44.73463" lon="8.2189617"><ele>177.60000000000002</ele><time>2026-04-12T12:40:13.002Z</time></trkpt><trkpt lat="44.7346867" lon="8.2189033"><ele>178.4</ele><time>2026-04-12T12:40:13.995Z</time></trkpt><trkpt lat="44.7347633" lon="8.2188133"><ele>179.2</ele><time>2026-04-12T12:40:14.998Z</time></trkpt><trkpt lat="44.7348567" lon="8.21871"><ele>180.0</ele><time>2026-04-12T12:40:15.997Z</time></trkpt><trkpt lat="44.734945" lon="8.2186317"><ele>180.0</ele><time>2026-04-12T12:40:17Z</time></trkpt><trkpt lat="44.735035" lon="8.2185617"><ele>180.0</ele><time>2026-04-12T12:40:17.993Z</time></trkpt><trkpt lat="44.7351267" lon="8.2184883"><ele>180.0</ele><time>2026-04-12T12:40:19Z</time></trkpt><trkpt lat="44.7352133" lon="8.218415"><ele>180.0</ele><time>2026-04-12T12:40:19.998Z</time></trkpt><trkpt lat="44.7352967" lon="8.218355"><ele>180.0</ele><time>2026-04-12T12:40:21.003Z</time></trkpt><trkpt lat="44.73537" lon="8.2183117"><ele>181.33333333333334</ele><time>2026-04-12T12:40:21.993Z</time></trkpt><trkpt lat="44.7354417" lon="8.2182917"><ele>182.66666666666666</ele><time>2026-04-12T12:40:22.996Z</time></trkpt><trkpt lat="44.7355217" lon="8.21829"><ele>184.0</ele><time>2026-04-12T12:40:23.997Z</time></trkpt><trkpt lat="44.7356017" lon="8.2182967"><ele>185.33333333333331</ele><time>2026-04-12T12:40:24.992Z</time></trkpt><trkpt lat="44.7356933" lon="8.21832"><ele>186.66666666666666</ele><time>2026-04-12T12:40:25.993Z</time></trkpt><trkpt lat="44.7357917" lon="8.2183467"><ele>188.0</ele><time>2026-04-12T12:40:26.995Z</time></trkpt><trkpt lat="44.7359033" lon="8.218365"><ele>188.0</ele><time>2026-04-12T12:40:27.995Z</time></trkpt><trkpt lat="44.7360183" lon="8.21838"><ele>188.0</ele><time>2026-04-12T12:40:28.997Z</time></trkpt><trkpt lat="44.73614" lon="8.2183917"><ele>188.0</ele><time>2026-04-12T12:40:29.993Z</time></trkpt><trkpt lat="44.7362583" lon="8.2183867"><ele>188.0</ele><time>2026-04-12T12:40:30.999Z</time></trkpt><trkpt lat="44.7363767" lon="8.2183667"><ele>186.75</ele><time>2026-04-12T12:40:31.996Z</time></trkpt><trkpt lat="44.7365033" lon="8.2183283"><ele>185.5</ele><time>2026-04-12T12:40:32.996Z</time></trkpt><trkpt lat="44.7366233" lon="8.2182667"><ele>184.25</ele><time>2026-04-12T12:40:33.994Z</time></trkpt><trkpt lat="44.7367367" lon="8.2181917"><ele>183.0</ele><time>2026-04-12T12:40:34.998Z</time></trkpt><trkpt lat="44.7368533" lon="8.218105"><ele>186.0</ele><time>2026-04-12T12:40:35.995Z</time></trkpt><trkpt lat="44.7369783" lon="8.2180033"><ele>189.0</ele><time>2026-04-12T12:40:36.995Z</time></trkpt><trkpt lat="44.7371017" lon="8.2179067"><ele>192.0</ele><time>2026-04-12T12:40:37.993Z</time></trkpt><trkpt lat="44.737225" lon="8.2178167"><ele>195.0</ele><time>2026-04-12T12:40:38.999Z</time></trkpt><trkpt lat="44.7373483" lon="8.21774"><ele>195.0</ele><time>2026-04-12T12:40:39.997Z</time></trkpt><trkpt lat="44.73746" lon="8.2176617"><ele>195.0</ele><time>2026-04-12T12:40:40.997Z</time></trkpt><trkpt lat="44.737565" lon="8.2175683"><ele>195.0</ele><time>2026-04-12T12:40:41.997Z</time></trkpt><trkpt lat="44.7376683" lon="8.217455"><ele>195.0</ele><time>2026-04-12T12:40:42.995Z</time></trkpt><trkpt lat="44.73777" lon="8.217335"><ele>198.25</ele><time>2026-04-12T12:40:43.997Z</time></trkpt><trkpt lat="44.7378733" lon="8.21721"><ele>201.5</ele><time>2026-04-12T12:40:44.997Z</time></trkpt><trkpt lat="44.7379783" lon="8.21709"><ele>204.75</ele><time>2026-04-12T12:40:45.995Z</time></trkpt><trkpt lat="44.7380883" lon="8.2169717"><ele>208.0</ele><time>2026-04-12T12:40:46.994Z</time></trkpt><trkpt lat="44.738185" lon="8.21684"><ele>208.0</ele><time>2026-04-12T12:40:47.992Z</time></trkpt><trkpt lat="44.7382717" lon="8.2167"><ele>208.0</ele><time>2026-04-12T12:40:48.998Z</time></trkpt><trkpt lat="44.7383483" lon="8.2165483"><ele>208.0</ele><time>2026-04-12T12:40:49.991Z</time></trkpt><trkpt lat="44.7384267" lon="8.2163917"><ele>208.0</ele><time>2026-04-12T12:40:50.997Z</time></trkpt><trkpt lat="44.7385017" lon="8.216235"><ele>210.5</ele><time>2026-04-12T12:40:51.993Z</time></trkpt><trkpt lat="44.7385717" lon="8.2160717"><ele>213.0</ele><time>2026-04-12T12:40:52.993Z</time></trkpt><trkpt lat="44.73863" lon="8.2159"><ele>215.5</ele><time>2026-04-12T12:40:53.996Z</time></trkpt><trkpt lat="44.738675" lon="8.21572"><ele>218.0</ele><time>2026-04-12T12:40:54.997Z</time></trkpt><trkpt lat="44.7387117" lon="8.2155383"><ele>218.0</ele><time>2026-04-12T12:40:55.994Z</time></trkpt><trkpt lat="44.73874" lon="8.2153667"><ele>218.0</ele><time>2026-04-12T12:40:57Z</time></trkpt><trkpt lat="44.7387733" lon="8.2152117"><ele>218.0</ele><time>2026-04-12T12:40:57.994Z</time></trkpt><trkpt lat="44.7388167" lon="8.2150817"><ele>218.0</ele><time>2026-04-12T12:40:58.996Z</time></trkpt><trkpt lat="44.7388633" lon="8.2149833"><ele>218.0</ele><time>2026-04-12T12:40:59.995Z</time></trkpt><trkpt lat="44.7389117" lon="8.2149017"><ele>218.0</ele><time>2026-04-12T12:41:00.998Z</time></trkpt><trkpt lat="44.7389717" lon="8.2148367"><ele>218.0</ele><time>2026-04-12T12:41:01.995Z</time></trkpt><trkpt lat="44.73908" lon="8.2148717"><ele>218.0</ele><time>2026-04-12T12:41:03.996Z</time></trkpt><trkpt lat="44.7390617" lon="8.215035"><ele>218.0</ele><time>2026-04-12T12:41:05.995Z</time></trkpt><trkpt lat="44.739025" lon="8.2151117"><ele>218.0</ele><time>2026-04-12T12:41:06.995Z</time></trkpt><trkpt lat="44.7389667" lon="8.21528"><ele>218.0</ele><time>2026-04-12T12:41:08.995Z</time></trkpt><trkpt lat="44.7389483" lon="8.21539"><ele>218.0</ele><time>2026-04-12T12:41:09.998Z</time></trkpt><trkpt lat="44.738945" lon="8.2155233"><ele>218.0</ele><time>2026-04-12T12:41:10.998Z</time></trkpt><trkpt lat="44.73896" lon="8.2156917"><ele>218.0</ele><time>2026-04-12T12:41:11.997Z</time></trkpt><trkpt lat="44.738975" lon="8.2158583"><ele>218.0</ele><time>2026-04-12T12:41:12.998Z</time></trkpt><trkpt lat="44.738985" lon="8.2160317"><ele>220.0</ele><time>2026-04-12T12:41:14.005Z</time></trkpt><trkpt lat="44.738985" lon="8.216205"><ele>222.0</ele><time>2026-04-12T12:41:14.995Z</time></trkpt><trkpt lat="44.7389733" lon="8.21638"><ele>224.0</ele><time>2026-04-12T12:41:15.998Z</time></trkpt><trkpt lat="44.7389483" lon="8.21656"><ele>226.0</ele><time>2026-04-12T12:41:16.997Z</time></trkpt><trkpt lat="44.738915" lon="8.2167383"><ele>228.75</ele><time>2026-04-12T12:41:17.996Z</time></trkpt><trkpt lat="44.73887" lon="8.2169183"><ele>231.5</ele><time>2026-04-12T12:41:18.996Z</time></trkpt><trkpt lat="44.7388167" lon="8.2170933"><ele>234.25</ele><time>2026-04-12T12:41:19.997Z</time></trkpt><trkpt lat="44.738755" lon="8.2172683"><ele>237.0</ele><time>2026-04-12T12:41:21.003Z</time></trkpt><trkpt lat="44.7387017" lon="8.2174417"><ele>240.25</ele><time>2026-04-12T12:41:21.994Z</time></trkpt><trkpt lat="44.7386567" lon="8.2176167"><ele>243.5</ele><time>2026-04-12T12:41:22.998Z</time></trkpt><trkpt lat="44.7386117" lon="8.2177833"><ele>246.75</ele><time>2026-04-12T12:41:23.996Z</time></trkpt><trkpt lat="44.7385533" lon="8.2179367"><ele>250.0</ele><time>2026-04-12T12:41:25Z</time></trkpt><trkpt lat="44.7384783" lon="8.2180783"><ele>247.5</ele><time>2026-04-12T12:41:25.996Z</time></trkpt><trkpt lat="44.7383867" lon="8.2182117"><ele>245.0</ele><time>2026-04-12T12:41:26.997Z</time></trkpt><trkpt lat="44.738285" lon="8.218335"><ele>242.5</ele><time>2026-04-12T12:41:28Z</time></trkpt><trkpt lat="44.7381833" lon="8.2184583"><ele>240.0</ele><time>2026-04-12T12:41:28.994Z</time></trkpt><trkpt lat="44.7380867" lon="8.21858"><ele>240.0</ele><time>2026-04-12T12:41:29.993Z</time></trkpt><trkpt lat="44.737995" lon="8.21871"><ele>240.0</ele><time>2026-04-12T12:41:30.996Z</time></trkpt><trkpt lat="44.737905" lon="8.2188333"><ele>240.0</ele><time>2026-04-12T12:41:31.996Z</time></trkpt><trkpt lat="44.737825" lon="8.21896"><ele>240.0</ele><time>2026-04-12T12:41:32.997Z</time></trkpt><trkpt lat="44.7377667" lon="8.2190933"><ele>245.5</ele><time>2026-04-12T12:41:33.995Z</time></trkpt><trkpt lat="44.737735" lon="8.2192383"><ele>251.0</ele><time>2026-04-12T12:41:34.996Z</time></trkpt><trkpt lat="44.737725" lon="8.21939"><ele>256.5</ele><time>2026-04-12T12:41:35.996Z</time></trkpt><trkpt lat="44.7377383" lon="8.2195567"><ele>262.0</ele><time>2026-04-12T12:41:37.005Z</time></trkpt><trkpt lat="44.7377583" lon="8.2197283"><ele>265.75</ele><time>2026-04-12T12:41:37.998Z</time></trkpt><trkpt lat="44.7377817" lon="8.2199033"><ele>269.5</ele><time>2026-04-12T12:41:38.995Z</time></trkpt><trkpt lat="44.7378033" lon="8.2200867"><ele>273.25</ele><time>2026-04-12T12:41:39.999Z</time></trkpt><trkpt lat="44.737815" lon="8.2202617"><ele>277.0</ele><time>2026-04-12T12:41:40.995Z</time></trkpt><trkpt lat="44.7378117" lon="8.2204317"><ele>277.0</ele><time>2026-04-12T12:41:42.001Z</time></trkpt><trkpt lat="44.7377967" lon="8.220595"><ele>277.0</ele><time>2026-04-12T12:41:43.002Z</time></trkpt><trkpt lat="44.7377683" lon="8.2207483"><ele>277.0</ele><time>2026-04-12T12:41:43.999Z</time></trkpt><trkpt lat="44.7377317" lon="8.2208917"><ele>277.0</ele><time>2026-04-12T12:41:44.997Z</time></trkpt><trkpt lat="44.737685" lon="8.221015"><ele>277.0</ele><time>2026-04-12T12:41:46.001Z</time></trkpt><trkpt lat="44.737625" lon="8.22111"><ele>273.0</ele><time>2026-04-12T12:41:46.998Z</time></trkpt><trkpt lat="44.7375417" lon="8.22118"><ele>269.0</ele><time>2026-04-12T12:41:47.995Z</time></trkpt><trkpt lat="44.7374417" lon="8.2212283"><ele>265.0</ele><time>2026-04-12T12:41:48.999Z</time></trkpt><trkpt lat="44.7373167" lon="8.2212483"><ele>261.0</ele><time>2026-04-12T12:41:49.997Z</time></trkpt><trkpt lat="44.7371967" lon="8.2212683"><ele>257.0</ele><time>2026-04-12T12:41:50.994Z</time></trkpt><trkpt lat="44.7370717" lon="8.221285"><ele>257.0</ele><time>2026-04-12T12:41:51.998Z</time></trkpt><trkpt lat="44.7369483" lon="8.221275"><ele>257.0</ele><time>2026-04-12T12:41:52.998Z</time></trkpt><trkpt lat="44.7368267" lon="8.221235"><ele>257.0</ele><time>2026-04-12T12:41:54.002Z</time></trkpt><trkpt lat="44.7367067" lon="8.2212017"><ele>257.0</ele><time>2026-04-12T12:41:54.999Z</time></trkpt><trkpt lat="44.7365933" lon="8.2211833"><ele>257.83333333333337</ele><time>2026-04-12T12:41:55.996Z</time></trkpt><trkpt lat="44.736495" lon="8.2211967"><ele>258.6666666666667</ele><time>2026-04-12T12:41:57Z</time></trkpt><trkpt lat="44.7364233" lon="8.2212533"><ele>259.5</ele><time>2026-04-12T12:41:57.997Z</time></trkpt><trkpt lat="44.7363583" lon="8.2213283"><ele>260.3333333333333</ele><time>2026-04-12T12:41:58.997Z</time></trkpt><trkpt lat="44.7363483" lon="8.22145"><ele>261.16666666666663</ele><time>2026-04-12T12:41:59.997Z</time></trkpt><trkpt lat="44.7363517" lon="8.22157"><ele>262.0</ele><time>2026-04-12T12:42:01Z</time></trkpt><trkpt lat="44.7363717" lon="8.221705"><ele>265.0</ele><time>2026-04-12T12:42:01.994Z</time></trkpt><trkpt lat="44.73644" lon="8.22188"><ele>268.0</ele><time>2026-04-12T12:42:02.997Z</time></trkpt><trkpt lat="44.7364917" lon="8.2220617"><ele>271.0</ele><time>2026-04-12T12:42:03.996Z</time></trkpt><trkpt lat="44.73653" lon="8.22224"><ele>274.0</ele><time>2026-04-12T12:42:05.001Z</time></trkpt><trkpt lat="44.7365417" lon="8.2224067"><ele>275.59999999999997</ele><time>2026-04-12T12:42:05.996Z</time></trkpt><trkpt lat="44.73653" lon="8.2225583"><ele>277.2</ele><time>2026-04-12T12:42:06.998Z</time></trkpt><trkpt lat="44.73651" lon="8.2226983"><ele>278.79999999999995</ele><time>2026-04-12T12:42:08Z</time></trkpt><trkpt lat="44.7364933" lon="8.2228317"><ele>280.4</ele><time>2026-04-12T12:42:08.998Z</time></trkpt><trkpt lat="44.736495" lon="8.2229617"><ele>282.0</ele><time>2026-04-12T12:42:09.995Z</time></trkpt><trkpt lat="44.7365233" lon="8.2230867"><ele>282.75</ele><time>2026-04-12T12:42:10.996Z</time></trkpt><trkpt lat="44.7365917" lon="8.2232017"><ele>283.5</ele><time>2026-04-12T12:42:11.996Z</time></trkpt><trkpt lat="44.7366783" lon="8.22332"><ele>284.25</ele><time>2026-04-12T12:42:13.003Z</time></trkpt><trkpt lat="44.73678" lon="8.2234433"><ele>285.0</ele><time>2026-04-12T12:42:13.999Z</time></trkpt><trkpt lat="44.736885" lon="8.2235683"><ele>291.25</ele><time>2026-04-12T12:42:15.003Z</time></trkpt><trkpt lat="44.73698" lon="8.2237017"><ele>297.5</ele><time>2026-04-12T12:42:16Z</time></trkpt><trkpt lat="44.73706" lon="8.2238533"><ele>303.75</ele><time>2026-04-12T12:42:16.995Z</time></trkpt><trkpt lat="44.73712" lon="8.2240283"><ele>310.0</ele><time>2026-04-12T12:42:17.997Z</time></trkpt><trkpt lat="44.73717" lon="8.22422"><ele>310.0</ele><time>2026-04-12T12:42:18.999Z</time></trkpt><trkpt lat="44.7372117" lon="8.22443"><ele>310.0</ele><time>2026-04-12T12:42:19.996Z</time></trkpt><trkpt lat="44.737245" lon="8.22466"><ele>310.0</ele><time>2026-04-12T12:42:20.997Z</time></trkpt><trkpt lat="44.7372683" lon="8.2249117"><ele>310.0</ele><time>2026-04-12T12:42:21.996Z</time></trkpt><trkpt lat="44.73729" lon="8.2251783"><ele>310.0</ele><time>2026-04-12T12:42:22.999Z</time></trkpt><trkpt lat="44.7373167" lon="8.2254583"><ele>310.0</ele><time>2026-04-12T12:42:23.997Z</time></trkpt><trkpt lat="44.7373417" lon="8.2257317"><ele>310.0</ele><time>2026-04-12T12:42:24.999Z</time></trkpt><trkpt lat="44.7373633" lon="8.2259883"><ele>310.0</ele><time>2026-04-12T12:42:26.001Z</time></trkpt><trkpt lat="44.7373783" lon="8.2262167"><ele>310.0</ele><time>2026-04-12T12:42:26.996Z</time></trkpt><trkpt lat="44.7373817" lon="8.2264067"><ele>310.4</ele><time>2026-04-12T12:42:27.996Z</time></trkpt><trkpt lat="44.737365" lon="8.2265683"><ele>310.8</ele><time>2026-04-12T12:42:29.002Z</time></trkpt><trkpt lat="44.7373333" lon="8.2267067"><ele>311.2</ele><time>2026-04-12T12:42:30Z</time></trkpt><trkpt lat="44.7372867" lon="8.2268317"><ele>311.6</ele><time>2026-04-12T12:42:31.006Z</time></trkpt><trkpt lat="44.73723" lon="8.2269383"><ele>312.0</ele><time>2026-04-12T12:42:31.998Z</time></trkpt><trkpt lat="44.7371467" lon="8.2270217"><ele>312.0</ele><time>2026-04-12T12:42:32.996Z</time></trkpt><trkpt lat="44.73705" lon="8.22708"><ele>312.0</ele><time>2026-04-12T12:42:33.997Z</time></trkpt><trkpt lat="44.7369383" lon="8.2271167"><ele>312.0</ele><time>2026-04-12T12:42:34.994Z</time></trkpt><trkpt lat="44.73681" lon="8.2271367"><ele>312.0</ele><time>2026-04-12T12:42:35.997Z</time></trkpt><trkpt lat="44.7366783" lon="8.22715"><ele>309.0</ele><time>2026-04-12T12:42:37Z</time></trkpt><trkpt lat="44.7365383" lon="8.2271667"><ele>306.0</ele><time>2026-04-12T12:42:37.998Z</time></trkpt><trkpt lat="44.7363867" lon="8.2271833"><ele>303.0</ele><time>2026-04-12T12:42:38.998Z</time></trkpt><trkpt lat="44.7362233" lon="8.2272017"><ele>303.0</ele><time>2026-04-12T12:42:39.996Z</time></trkpt><trkpt lat="44.7360583" lon="8.2272217"><ele>303.0</ele><time>2026-04-12T12:42:40.997Z</time></trkpt><trkpt lat="44.7359033" lon="8.2272383"><ele>303.0</ele><time>2026-04-12T12:42:41.999Z</time></trkpt><trkpt lat="44.7357483" lon="8.2272567"><ele>304.0</ele><time>2026-04-12T12:42:42.995Z</time></trkpt><trkpt lat="44.735605" lon="8.2272733"><ele>305.0</ele><time>2026-04-12T12:42:43.997Z</time></trkpt><trkpt lat="44.7354817" lon="8.2272817"><ele>306.0</ele><time>2026-04-12T12:42:44.997Z</time></trkpt><trkpt lat="44.7353633" lon="8.2272783"><ele>307.0</ele><time>2026-04-12T12:42:45.996Z</time></trkpt><trkpt lat="44.7352533" lon="8.22725"><ele>309.0</ele><time>2026-04-12T12:42:46.996Z</time></trkpt><trkpt lat="44.7351517" lon="8.2272033"><ele>311.0</ele><time>2026-04-12T12:42:47.995Z</time></trkpt><trkpt lat="44.7350567" lon="8.2271283"><ele>313.0</ele><time>2026-04-12T12:42:48.998Z</time></trkpt><trkpt lat="44.7349917" lon="8.227"><ele>315.0</ele><time>2026-04-12T12:42:49.998Z</time></trkpt><trkpt lat="44.7349" lon="8.2268883"><ele>317.0</ele><time>2026-04-12T12:42:50.994Z</time></trkpt><trkpt lat="44.7348067" lon="8.2267733"><ele>317.0</ele><time>2026-04-12T12:42:51.995Z</time></trkpt><trkpt lat="44.734715" lon="8.2266483"><ele>317.0</ele><time>2026-04-12T12:42:52.995Z</time></trkpt><trkpt lat="44.7346267" lon="8.226525"><ele>317.0</ele><time>2026-04-12T12:42:53.997Z</time></trkpt><trkpt lat="44.73456" lon="8.2263933"><ele>317.0</ele><time>2026-04-12T12:42:54.994Z</time></trkpt><trkpt lat="44.7344967" lon="8.2262833"><ele>315.83333333333337</ele><time>2026-04-12T12:42:56Z</time></trkpt><trkpt lat="44.73444" lon="8.2262083"><ele>314.6666666666667</ele><time>2026-04-12T12:42:56.996Z</time></trkpt><trkpt lat="44.7343817" lon="8.2261583"><ele>313.5</ele><time>2026-04-12T12:42:58.001Z</time></trkpt><trkpt lat="44.73428" lon="8.22623"><ele>312.3333333333333</ele><time>2026-04-12T12:42:59.995Z</time></trkpt><trkpt lat="44.7343017" lon="8.2263233"><ele>311.16666666666663</ele><time>2026-04-12T12:43:00.998Z</time></trkpt><trkpt lat="44.7343217" lon="8.2264083"><ele>310.0</ele><time>2026-04-12T12:43:01.994Z</time></trkpt><trkpt lat="44.7343733" lon="8.2265183"><ele>311.75</ele><time>2026-04-12T12:43:02.996Z</time></trkpt><trkpt lat="44.7344283" lon="8.2266417"><ele>313.5</ele><time>2026-04-12T12:43:03.996Z</time></trkpt><trkpt lat="44.7344867" lon="8.2268017"><ele>315.25</ele><time>2026-04-12T12:43:04.998Z</time></trkpt><trkpt lat="44.73454" lon="8.226975"><ele>317.0</ele><time>2026-04-12T12:43:05.993Z</time></trkpt><trkpt lat="44.73459" lon="8.2271517"><ele>320.5</ele><time>2026-04-12T12:43:06.994Z</time></trkpt><trkpt lat="44.73464" lon="8.2273283"><ele>324.0</ele><time>2026-04-12T12:43:07.999Z</time></trkpt><trkpt lat="44.7347" lon="8.2275033"><ele>327.5</ele><time>2026-04-12T12:43:08.997Z</time></trkpt><trkpt lat="44.7347683" lon="8.2276733"><ele>331.0</ele><time>2026-04-12T12:43:10Z</time></trkpt><trkpt lat="44.7348467" lon="8.2278367"><ele>331.0</ele><time>2026-04-12T12:43:10.996Z</time></trkpt><trkpt lat="44.734935" lon="8.2279917"><ele>331.0</ele><time>2026-04-12T12:43:12Z</time></trkpt><trkpt lat="44.7350267" lon="8.2281417"><ele>331.0</ele><time>2026-04-12T12:43:12.995Z</time></trkpt><trkpt lat="44.7351167" lon="8.2282833"><ele>331.0</ele><time>2026-04-12T12:43:13.996Z</time></trkpt><trkpt lat="44.735225" lon="8.2283933"><ele>335.66666666666663</ele><time>2026-04-12T12:43:14.999Z</time></trkpt><trkpt lat="44.7353417" lon="8.2284883"><ele>340.3333333333333</ele><time>2026-04-12T12:43:15.998Z</time></trkpt><trkpt lat="44.73548" lon="8.2285667"><ele>345.0</ele><time>2026-04-12T12:43:16.998Z</time></trkpt><trkpt lat="44.7356367" lon="8.2286433"><ele>345.0</ele><time>2026-04-12T12:43:17.997Z</time></trkpt><trkpt lat="44.7358033" lon="8.22873"><ele>345.0</ele><time>2026-04-12T12:43:19Z</time></trkpt><trkpt lat="44.7359717" lon="8.2288083"><ele>345.0</ele><time>2026-04-12T12:43:19.997Z</time></trkpt><trkpt lat="44.73613" lon="8.228875"><ele>343.0</ele><time>2026-04-12T12:43:21Z</time></trkpt><trkpt lat="44.7362717" lon="8.2289417"><ele>341.0</ele><time>2026-04-12T12:43:22.003Z</time></trkpt><trkpt lat="44.7363983" lon="8.2289983"><ele>339.0</ele><time>2026-04-12T12:43:22.996Z</time></trkpt><trkpt lat="44.736515" lon="8.2290433"><ele>337.0</ele><time>2026-04-12T12:43:24Z</time></trkpt><trkpt lat="44.736615" lon="8.2290883"><ele>341.6</ele><time>2026-04-12T12:43:24.998Z</time></trkpt><trkpt lat="44.736695" lon="8.2291217"><ele>346.20000000000005</ele><time>2026-04-12T12:43:26.002Z</time></trkpt><trkpt lat="44.736805" lon="8.22917"><ele>350.8</ele><time>2026-04-12T12:43:27.999Z</time></trkpt><trkpt lat="44.7368383" lon="8.229255"><ele>355.4</ele><time>2026-04-12T12:43:29.998Z</time></trkpt><trkpt lat="44.73673" lon="8.2294033"><ele>360.0</ele><time>2026-04-12T12:43:31.997Z</time></trkpt><trkpt lat="44.73667" lon="8.2294867"><ele>360.0</ele><time>2026-04-12T12:43:32.999Z</time></trkpt><trkpt lat="44.73661" lon="8.2295833"><ele>360.0</ele><time>2026-04-12T12:43:33.998Z</time></trkpt><trkpt lat="44.7365633" lon="8.2297"><ele>360.0</ele><time>2026-04-12T12:43:34.998Z</time></trkpt><trkpt lat="44.7365533" lon="8.22985"><ele>360.0</ele><time>2026-04-12T12:43:35.997Z</time></trkpt><trkpt lat="44.7365667" lon="8.23"><ele>360.0</ele><time>2026-04-12T12:43:37.001Z</time></trkpt><trkpt lat="44.7366033" lon="8.2301617"><ele>360.75</ele><time>2026-04-12T12:43:37.997Z</time></trkpt><trkpt lat="44.7366633" lon="8.2303083"><ele>361.5</ele><time>2026-04-12T12:43:38.998Z</time></trkpt><trkpt lat="44.736745" lon="8.230435"><ele>362.25</ele><time>2026-04-12T12:43:40.003Z</time></trkpt><trkpt lat="44.736835" lon="8.2305383"><ele>363.0</ele><time>2026-04-12T12:43:41Z</time></trkpt><trkpt lat="44.7369383" lon="8.2306067"><ele>363.0</ele><time>2026-04-12T12:43:41.996Z</time></trkpt><trkpt lat="44.7370533" lon="8.2306433"><ele>363.0</ele><time>2026-04-12T12:43:42.997Z</time></trkpt><trkpt lat="44.7371783" lon="8.23065"><ele>363.0</ele><time>2026-04-12T12:43:43.997Z</time></trkpt><trkpt lat="44.7373" lon="8.2306183"><ele>363.0</ele><time>2026-04-12T12:43:44.994Z</time></trkpt><trkpt lat="44.7374167" lon="8.2305467"><ele>363.0</ele><time>2026-04-12T12:43:45.997Z</time></trkpt><trkpt lat="44.7375383" lon="8.2304583"><ele>363.0</ele><time>2026-04-12T12:43:46.997Z</time></trkpt><trkpt lat="44.7376583" lon="8.23036"><ele>363.0</ele><time>2026-04-12T12:43:47.995Z</time></trkpt><trkpt lat="44.7377867" lon="8.2302533"><ele>363.0</ele><time>2026-04-12T12:43:49.008Z</time></trkpt><trkpt lat="44.7379167" lon="8.2301517"><ele>361.25</ele><time>2026-04-12T12:43:50Z</time></trkpt><trkpt lat="44.7380433" lon="8.2300533"><ele>359.5</ele><time>2026-04-12T12:43:51.003Z</time></trkpt><trkpt lat="44.738175" lon="8.229975"><ele>357.75</ele><time>2026-04-12T12:43:52.002Z</time></trkpt><trkpt lat="44.7383133" lon="8.2299117"><ele>356.0</ele><time>2026-04-12T12:43:52.992Z</time></trkpt><trkpt lat="44.73846" lon="8.2298633"><ele>357.25</ele><time>2026-04-12T12:43:53.993Z</time></trkpt><trkpt lat="44.7386017" lon="8.22982"><ele>358.5</ele><time>2026-04-12T12:43:54.993Z</time></trkpt><trkpt lat="44.7387433" lon="8.2297833"><ele>359.75</ele><time>2026-04-12T12:43:55.994Z</time></trkpt><trkpt lat="44.7388817" lon="8.2297467"><ele>361.0</ele><time>2026-04-12T12:43:56.994Z</time></trkpt><trkpt lat="44.73903" lon="8.22971"><ele>361.0</ele><time>2026-04-12T12:43:58.003Z</time></trkpt><trkpt lat="44.7391833" lon="8.22967"><ele>361.0</ele><time>2026-04-12T12:43:58.996Z</time></trkpt><trkpt lat="44.739335" lon="8.2296367"><ele>361.0</ele><time>2026-04-12T12:43:59.993Z</time></trkpt><trkpt lat="44.7394867" lon="8.2296017"><ele>358.75</ele><time>2026-04-12T12:44:00.997Z</time></trkpt><trkpt lat="44.7396317" lon="8.2295633"><ele>356.5</ele><time>2026-04-12T12:44:01.997Z</time></trkpt><trkpt lat="44.739775" lon="8.229525"><ele>354.25</ele><time>2026-04-12T12:44:02.998Z</time></trkpt><trkpt lat="44.7399133" lon="8.2294867"><ele>352.0</ele><time>2026-04-12T12:44:03.999Z</time></trkpt><trkpt lat="44.740055" lon="8.2294483"><ele>352.0</ele><time>2026-04-12T12:44:05.002Z</time></trkpt><trkpt lat="44.7401917" lon="8.2294167"><ele>352.0</ele><time>2026-04-12T12:44:05.996Z</time></trkpt><trkpt lat="44.740325" lon="8.229395"><ele>352.0</ele><time>2026-04-12T12:44:06.995Z</time></trkpt><trkpt lat="44.7404617" lon="8.229375"><ele>352.0</ele><time>2026-04-12T12:44:07.995Z</time></trkpt><trkpt lat="44.740595" lon="8.22936"><ele>350.0</ele><time>2026-04-12T12:44:09.001Z</time></trkpt><trkpt lat="44.7407283" lon="8.2293383"><ele>348.0</ele><time>2026-04-12T12:44:09.995Z</time></trkpt><trkpt lat="44.7408617" lon="8.2293217"><ele>346.0</ele><time>2026-04-12T12:44:10.998Z</time></trkpt><trkpt lat="44.7410033" lon="8.2293117"><ele>344.0</ele><time>2026-04-12T12:44:11.996Z</time></trkpt><trkpt lat="44.7411517" lon="8.2293033"><ele>341.75</ele><time>2026-04-12T12:44:12.998Z</time></trkpt><trkpt lat="44.7413017" lon="8.229295"><ele>339.5</ele><time>2026-04-12T12:44:13.996Z</time></trkpt><trkpt lat="44.7414333" lon="8.2292483"><ele>337.25</ele><time>2026-04-12T12:44:14.998Z</time></trkpt><trkpt lat="44.74157" lon="8.2292117"><ele>335.0</ele><time>2026-04-12T12:44:15.995Z</time></trkpt><trkpt lat="44.7417133" lon="8.2292117"><ele>335.0</ele><time>2026-04-12T12:44:16.996Z</time></trkpt><trkpt lat="44.7418567" lon="8.2292183"><ele>335.0</ele><time>2026-04-12T12:44:17.999Z</time></trkpt><trkpt lat="44.742" lon="8.2292333"><ele>335.0</ele><time>2026-04-12T12:44:18.997Z</time></trkpt><trkpt lat="44.7421467" lon="8.2292467"><ele>335.0</ele><time>2026-04-12T12:44:19.999Z</time></trkpt><trkpt lat="44.7422917" lon="8.2292633"><ele>334.0</ele><time>2026-04-12T12:44:20.992Z</time></trkpt><trkpt lat="44.74244" lon="8.2292817"><ele>333.0</ele><time>2026-04-12T12:44:21.997Z</time></trkpt><trkpt lat="44.7425867" lon="8.2293033"><ele>332.0</ele><time>2026-04-12T12:44:22.996Z</time></trkpt><trkpt lat="44.7427367" lon="8.2293133"><ele>331.0</ele><time>2026-04-12T12:44:23.995Z</time></trkpt><trkpt lat="44.742885" lon="8.22931"><ele>329.75</ele><time>2026-04-12T12:44:25.003Z</time></trkpt><trkpt lat="44.7430267" lon="8.2292833"><ele>328.5</ele><time>2026-04-12T12:44:25.996Z</time></trkpt><trkpt lat="44.7431683" lon="8.2292417"><ele>327.25</ele><time>2026-04-12T12:44:27Z</time></trkpt><trkpt lat="44.7432967" lon="8.2291967"><ele>326.0</ele><time>2026-04-12T12:44:27.997Z</time></trkpt><trkpt lat="44.7434033" lon="8.2291517"><ele>326.0</ele><time>2026-04-12T12:44:28.999Z</time></trkpt><trkpt lat="44.7434867" lon="8.2291183"><ele>326.0</ele><time>2026-04-12T12:44:29.997Z</time></trkpt><trkpt lat="44.7435483" lon="8.2290983"><ele>326.0</ele><time>2026-04-12T12:44:31Z</time></trkpt><trkpt lat="44.743625" lon="8.229105"><ele>326.0</ele><time>2026-04-12T12:44:33.005Z</time></trkpt><trkpt lat="44.7436383" lon="8.229195"><ele>326.0</ele><time>2026-04-12T12:44:34.998Z</time></trkpt><trkpt lat="44.7435467" lon="8.2293267"><ele>326.0</ele><time>2026-04-12T12:44:36.996Z</time></trkpt><trkpt lat="44.743475" lon="8.2293883"><ele>326.0</ele><time>2026-04-12T12:44:37.996Z</time></trkpt><trkpt lat="44.7433783" lon="8.2294583"><ele>326.0</ele><time>2026-04-12T12:44:38.995Z</time></trkpt><trkpt lat="44.7432967" lon="8.229535"><ele>326.0</ele><time>2026-04-12T12:44:39.999Z</time></trkpt><trkpt lat="44.7432317" lon="8.2296417"><ele>326.0</ele><time>2026-04-12T12:44:40.999Z</time></trkpt><trkpt lat="44.7431783" lon="8.2297767"><ele>326.0</ele><time>2026-04-12T12:44:42.001Z</time></trkpt><trkpt lat="44.743145" lon="8.22993"><ele>324.0</ele><time>2026-04-12T12:44:43Z</time></trkpt><trkpt lat="44.7431167" lon="8.230095"><ele>322.0</ele><time>2026-04-12T12:44:44Z</time></trkpt><trkpt lat="44.7430833" lon="8.2302583"><ele>320.0</ele><time>2026-04-12T12:44:45.004Z</time></trkpt><trkpt lat="44.7430433" lon="8.23042"><ele>318.0</ele><time>2026-04-12T12:44:45.995Z</time></trkpt><trkpt lat="44.74298" lon="8.2305783"><ele>316.6</ele><time>2026-04-12T12:44:46.996Z</time></trkpt><trkpt lat="44.7429283" lon="8.2307333"><ele>315.20000000000005</ele><time>2026-04-12T12:44:47.999Z</time></trkpt><trkpt lat="44.7428883" lon="8.2308867"><ele>313.8</ele><time>2026-04-12T12:44:48.998Z</time></trkpt><trkpt lat="44.7428817" lon="8.2310283"><ele>312.40000000000003</ele><time>2026-04-12T12:44:49.998Z</time></trkpt><trkpt lat="44.7429" lon="8.2311633"><ele>311.0</ele><time>2026-04-12T12:44:50.994Z</time></trkpt><trkpt lat="44.742955" lon="8.2312917"><ele>311.0</ele><time>2026-04-12T12:44:52Z</time></trkpt><trkpt lat="44.7430283" lon="8.231415"><ele>311.0</ele><time>2026-04-12T12:44:52.996Z</time></trkpt><trkpt lat="44.7431117" lon="8.231545"><ele>311.0</ele><time>2026-04-12T12:44:53.996Z</time></trkpt><trkpt lat="44.7432" lon="8.231675"><ele>311.0</ele><time>2026-04-12T12:44:54.997Z</time></trkpt><trkpt lat="44.743295" lon="8.2318017"><ele>309.75</ele><time>2026-04-12T12:44:55.998Z</time></trkpt><trkpt lat="44.74339" lon="8.2319333"><ele>308.5</ele><time>2026-04-12T12:44:56.998Z</time></trkpt><trkpt lat="44.7434867" lon="8.2320617"><ele>307.25</ele><time>2026-04-12T12:44:57.998Z</time></trkpt><trkpt lat="44.7435783" lon="8.2322"><ele>306.0</ele><time>2026-04-12T12:44:58.996Z</time></trkpt><trkpt lat="44.743665" lon="8.23235"><ele>305.0</ele><time>2026-04-12T12:44:59.997Z</time></trkpt><trkpt lat="44.7437567" lon="8.2325"><ele>304.0</ele><time>2026-04-12T12:45:00.997Z</time></trkpt><trkpt lat="44.7438433" lon="8.2326583"><ele>303.0</ele><time>2026-04-12T12:45:01.997Z</time></trkpt><trkpt lat="44.7439333" lon="8.23282"><ele>302.0</ele><time>2026-04-12T12:45:03.001Z</time></trkpt><trkpt lat="44.7440217" lon="8.2329833"><ele>302.0</ele><time>2026-04-12T12:45:03.998Z</time></trkpt><trkpt lat="44.744115" lon="8.2331467"><ele>302.0</ele><time>2026-04-12T12:45:05.001Z</time></trkpt><trkpt lat="44.7442083" lon="8.23331"><ele>302.0</ele><time>2026-04-12T12:45:06.001Z</time></trkpt><trkpt lat="44.744285" lon="8.2334833"><ele>302.0</ele><time>2026-04-12T12:45:06.991Z</time></trkpt><trkpt lat="44.7443517" lon="8.2336633"><ele>298.5</ele><time>2026-04-12T12:45:08.004Z</time></trkpt><trkpt lat="44.74441" lon="8.23385"><ele>295.0</ele><time>2026-04-12T12:45:08.996Z</time></trkpt><trkpt lat="44.74447" lon="8.2340383"><ele>291.5</ele><time>2026-04-12T12:45:09.997Z</time></trkpt><trkpt lat="44.7445417" lon="8.234225"><ele>288.0</ele><time>2026-04-12T12:45:10.996Z</time></trkpt><trkpt lat="44.7446333" lon="8.2344083"><ele>287.3333333333333</ele><time>2026-04-12T12:45:11.995Z</time></trkpt><trkpt lat="44.7447367" lon="8.2345933"><ele>286.66666666666663</ele><time>2026-04-12T12:45:12.996Z</time></trkpt><trkpt lat="44.7448483" lon="8.2347717"><ele>286.0</ele><time>2026-04-12T12:45:13.997Z</time></trkpt><trkpt lat="44.7449583" lon="8.2349533"><ele>285.75</ele><time>2026-04-12T12:45:14.995Z</time></trkpt><trkpt lat="44.7450483" lon="8.2351367"><ele>285.5</ele><time>2026-04-12T12:45:15.997Z</time></trkpt><trkpt lat="44.74511" lon="8.2353167"><ele>285.25</ele><time>2026-04-12T12:45:16.998Z</time></trkpt><trkpt lat="44.7451433" lon="8.2355"><ele>285.0</ele><time>2026-04-12T12:45:17.996Z</time></trkpt><trkpt lat="44.7451467" lon="8.235695"><ele>284.0</ele><time>2026-04-12T12:45:18.994Z</time></trkpt><trkpt lat="44.74513" lon="8.2359067"><ele>283.0</ele><time>2026-04-12T12:45:19.999Z</time></trkpt><trkpt lat="44.7451033" lon="8.236135"><ele>282.0</ele><time>2026-04-12T12:45:20.995Z</time></trkpt><trkpt lat="44.74508" lon="8.2363767"><ele>281.6666666666667</ele><time>2026-04-12T12:45:21.998Z</time></trkpt><trkpt lat="44.745055" lon="8.2366183"><ele>281.33333333333337</ele><time>2026-04-12T12:45:22.996Z</time></trkpt><trkpt lat="44.7450283" lon="8.236865"><ele>281.0</ele><time>2026-04-12T12:45:23.998Z</time></trkpt><trkpt lat="44.7449983" lon="8.2371117"><ele>278.6666666666667</ele><time>2026-04-12T12:45:24.999Z</time></trkpt><trkpt lat="44.7449717" lon="8.2373617"><ele>276.3333333333333</ele><time>2026-04-12T12:45:25.999Z</time></trkpt><trkpt lat="44.7449433" lon="8.2376167"><ele>274.0</ele><time>2026-04-12T12:45:26.996Z</time></trkpt><trkpt lat="44.7449183" lon="8.237875"><ele>274.0</ele><time>2026-04-12T12:45:27.997Z</time></trkpt><trkpt lat="44.7448917" lon="8.2381283"><ele>274.0</ele><time>2026-04-12T12:45:28.993Z</time></trkpt><trkpt lat="44.74486" lon="8.2383783"><ele>274.0</ele><time>2026-04-12T12:45:30Z</time></trkpt><trkpt lat="44.744835" lon="8.23863"><ele>272.0</ele><time>2026-04-12T12:45:30.997Z</time></trkpt><trkpt lat="44.7448183" lon="8.2388883"><ele>270.0</ele><time>2026-04-12T12:45:31.995Z</time></trkpt><trkpt lat="44.7448" lon="8.2391467"><ele>268.0</ele><time>2026-04-12T12:45:32.997Z</time></trkpt><trkpt lat="44.7447983" lon="8.2394067"><ele>267.0</ele><time>2026-04-12T12:45:33.998Z</time></trkpt><trkpt lat="44.74481" lon="8.2396667"><ele>266.0</ele><time>2026-04-12T12:45:34.995Z</time></trkpt><trkpt lat="44.7448283" lon="8.2399267"><ele>265.0</ele><time>2026-04-12T12:45:35.994Z</time></trkpt><trkpt lat="44.7448517" lon="8.2401883"><ele>264.66666666666663</ele><time>2026-04-12T12:45:37Z</time></trkpt><trkpt lat="44.7448767" lon="8.24045"><ele>264.3333333333333</ele><time>2026-04-12T12:45:37.995Z</time></trkpt><trkpt lat="44.7448983" lon="8.2407117"><ele>264.0</ele><time>2026-04-12T12:45:39.002Z</time></trkpt><trkpt lat="44.7449217" lon="8.2409683"><ele>264.0</ele><time>2026-04-12T12:45:39.995Z</time></trkpt><trkpt lat="44.7449483" lon="8.241225"><ele>264.0</ele><time>2026-04-12T12:45:40.998Z</time></trkpt><trkpt lat="44.7449733" lon="8.241485"><ele>264.0</ele><time>2026-04-12T12:45:41.995Z</time></trkpt><trkpt lat="44.744995" lon="8.2417417"><ele>264.0</ele><time>2026-04-12T12:45:43.006Z</time></trkpt><trkpt lat="44.7450133" lon="8.2419883"><ele>264.0</ele><time>2026-04-12T12:45:43.998Z</time></trkpt><trkpt lat="44.7450317" lon="8.2422217"><ele>264.0</ele><time>2026-04-12T12:45:44.995Z</time></trkpt><trkpt lat="44.7450517" lon="8.2424467"><ele>264.6666666666667</ele><time>2026-04-12T12:45:45.996Z</time></trkpt><trkpt lat="44.7450833" lon="8.242665"><ele>265.33333333333337</ele><time>2026-04-12T12:45:46.995Z</time></trkpt><trkpt lat="44.7451267" lon="8.2428767"><ele>266.0</ele><time>2026-04-12T12:45:47.997Z</time></trkpt><trkpt lat="44.7451783" lon="8.24309"><ele>264.6666666666667</ele><time>2026-04-12T12:45:48.993Z</time></trkpt><trkpt lat="44.7452367" lon="8.2433067"><ele>263.3333333333333</ele><time>2026-04-12T12:45:49.997Z</time></trkpt><trkpt lat="44.7452967" lon="8.2435283"><ele>262.0</ele><time>2026-04-12T12:45:50.994Z</time></trkpt><trkpt lat="44.7453583" lon="8.2437567"><ele>261.66666666666663</ele><time>2026-04-12T12:45:52Z</time></trkpt><trkpt lat="44.7454183" lon="8.24399"><ele>261.3333333333333</ele><time>2026-04-12T12:45:53Z</time></trkpt><trkpt lat="44.74548" lon="8.2442333"><ele>261.0</ele><time>2026-04-12T12:45:54Z</time></trkpt><trkpt lat="44.74554" lon="8.24448"><ele>261.0</ele><time>2026-04-12T12:45:54.998Z</time></trkpt><trkpt lat="44.7455917" lon="8.2447267"><ele>261.0</ele><time>2026-04-12T12:45:55.997Z</time></trkpt><trkpt lat="44.7456367" lon="8.24497"><ele>261.0</ele><time>2026-04-12T12:45:56.997Z</time></trkpt><trkpt lat="44.7456783" lon="8.2452033"><ele>259.3333333333333</ele><time>2026-04-12T12:45:57.995Z</time></trkpt><trkpt lat="44.7457167" lon="8.2454217"><ele>257.66666666666663</ele><time>2026-04-12T12:45:58.995Z</time></trkpt><trkpt lat="44.7457533" lon="8.2456317"><ele>256.0</ele><time>2026-04-12T12:45:59.997Z</time></trkpt><trkpt lat="44.74579" lon="8.245835"><ele>254.33333333333331</ele><time>2026-04-12T12:46:00.997Z</time></trkpt><trkpt lat="44.745825" lon="8.2460417"><ele>252.66666666666669</ele><time>2026-04-12T12:46:01.996Z</time></trkpt><trkpt lat="44.7458583" lon="8.24625"><ele>251.0</ele><time>2026-04-12T12:46:02.995Z</time></trkpt><trkpt lat="44.7458917" lon="8.2464617"><ele>249.66666666666669</ele><time>2026-04-12T12:46:03.995Z</time></trkpt><trkpt lat="44.7459233" lon="8.246675"><ele>248.33333333333331</ele><time>2026-04-12T12:46:04.995Z</time></trkpt><trkpt lat="44.7459533" lon="8.246895"><ele>247.0</ele><time>2026-04-12T12:46:05.997Z</time></trkpt><trkpt lat="44.7459883" lon="8.2471233"><ele>245.33333333333331</ele><time>2026-04-12T12:46:06.999Z</time></trkpt><trkpt lat="44.7460083" lon="8.2473717"><ele>243.66666666666669</ele><time>2026-04-12T12:46:07.995Z</time></trkpt><trkpt lat="44.746025" lon="8.247625"><ele>242.0</ele><time>2026-04-12T12:46:08.998Z</time></trkpt><trkpt lat="44.7460383" lon="8.24788"><ele>239.66666666666669</ele><time>2026-04-12T12:46:09.997Z</time></trkpt><trkpt lat="44.7460483" lon="8.248135"><ele>237.33333333333331</ele><time>2026-04-12T12:46:10.998Z</time></trkpt><trkpt lat="44.7460633" lon="8.2483883"><ele>235.0</ele><time>2026-04-12T12:46:11.997Z</time></trkpt><trkpt lat="44.7460917" lon="8.2486417"><ele>235.0</ele><time>2026-04-12T12:46:12.997Z</time></trkpt><trkpt lat="44.7461283" lon="8.248895"><ele>235.0</ele><time>2026-04-12T12:46:14Z</time></trkpt><trkpt lat="44.746175" lon="8.249145"><ele>235.0</ele><time>2026-04-12T12:46:15Z</time></trkpt><trkpt lat="44.746225" lon="8.2493967"><ele>234.0</ele><time>2026-04-12T12:46:15.996Z</time></trkpt><trkpt lat="44.7462733" lon="8.2496483"><ele>233.0</ele><time>2026-04-12T12:46:16.996Z</time></trkpt><trkpt lat="44.746315" lon="8.2498867"><ele>232.0</ele><time>2026-04-12T12:46:17.999Z</time></trkpt><trkpt lat="44.746355" lon="8.25011"><ele>230.66666666666666</ele><time>2026-04-12T12:46:19Z</time></trkpt><trkpt lat="44.7463967" lon="8.2503317"><ele>229.33333333333331</ele><time>2026-04-12T12:46:20.001Z</time></trkpt><trkpt lat="44.7464367" lon="8.2505367"><ele>228.0</ele><time>2026-04-12T12:46:20.999Z</time></trkpt><trkpt lat="44.746475" lon="8.2507483"><ele>227.66666666666669</ele><time>2026-04-12T12:46:21.992Z</time></trkpt><trkpt lat="44.7465167" lon="8.25097"><ele>227.33333333333334</ele><time>2026-04-12T12:46:22.993Z</time></trkpt><trkpt lat="44.74656" lon="8.25119"><ele>227.0</ele><time>2026-04-12T12:46:23.997Z</time></trkpt><trkpt lat="44.7466017" lon="8.25141"><ele>227.66666666666669</ele><time>2026-04-12T12:46:25Z</time></trkpt><trkpt lat="44.7466417" lon="8.25163"><ele>228.33333333333331</ele><time>2026-04-12T12:46:26Z</time></trkpt><trkpt lat="44.7466817" lon="8.25185"><ele>229.0</ele><time>2026-04-12T12:46:26.999Z</time></trkpt><trkpt lat="44.746725" lon="8.2520717"><ele>229.33333333333331</ele><time>2026-04-12T12:46:27.995Z</time></trkpt><trkpt lat="44.7467733" lon="8.25229"><ele>229.66666666666669</ele><time>2026-04-12T12:46:28.993Z</time></trkpt><trkpt lat="44.746835" lon="8.2525017"><ele>230.0</ele><time>2026-04-12T12:46:29.997Z</time></trkpt><trkpt lat="44.7469183" lon="8.2526967"><ele>228.66666666666669</ele><time>2026-04-12T12:46:30.997Z</time></trkpt><trkpt lat="44.7470233" lon="8.2528783"><ele>227.33333333333331</ele><time>2026-04-12T12:46:32Z</time></trkpt><trkpt lat="44.7471417" lon="8.253055"><ele>226.0</ele><time>2026-04-12T12:46:32.999Z</time></trkpt><trkpt lat="44.74728" lon="8.25322"><ele>228.66666666666666</ele><time>2026-04-12T12:46:33.993Z</time></trkpt><trkpt lat="44.74743" lon="8.2533817"><ele>231.33333333333331</ele><time>2026-04-12T12:46:34.996Z</time></trkpt><trkpt lat="44.7475933" lon="8.253525"><ele>234.0</ele><time>2026-04-12T12:46:35.997Z</time></trkpt><trkpt lat="44.74776" lon="8.253655"><ele>234.33333333333331</ele><time>2026-04-12T12:46:36.997Z</time></trkpt><trkpt lat="44.74793" lon="8.2537683"><ele>234.66666666666666</ele><time>2026-04-12T12:46:37.997Z</time></trkpt><trkpt lat="44.748095" lon="8.2538667"><ele>235.0</ele><time>2026-04-12T12:46:39Z</time></trkpt><trkpt lat="44.7482467" lon="8.2539633"><ele>235.25</ele><time>2026-04-12T12:46:39.999Z</time></trkpt><trkpt lat="44.7483817" lon="8.25407"><ele>235.5</ele><time>2026-04-12T12:46:40.998Z</time></trkpt><trkpt lat="44.7485033" lon="8.2541833"><ele>235.75</ele><time>2026-04-12T12:46:41.999Z</time></trkpt><trkpt lat="44.74862" lon="8.25431"><ele>236.0</ele><time>2026-04-12T12:46:42.997Z</time></trkpt><trkpt lat="44.7487383" lon="8.25444"><ele>236.0</ele><time>2026-04-12T12:46:43.993Z</time></trkpt><trkpt lat="44.74886" lon="8.2545833"><ele>236.0</ele><time>2026-04-12T12:46:44.995Z</time></trkpt><trkpt lat="44.7489767" lon="8.2547517"><ele>236.0</ele><time>2026-04-12T12:46:45.996Z</time></trkpt><trkpt lat="44.74909" lon="8.2549333"><ele>236.66666666666669</ele><time>2026-04-12T12:46:46.997Z</time></trkpt><trkpt lat="44.7491983" lon="8.255125"><ele>237.33333333333331</ele><time>2026-04-12T12:46:47.996Z</time></trkpt><trkpt lat="44.7493067" lon="8.2553217"><ele>238.0</ele><time>2026-04-12T12:46:48.997Z</time></trkpt><trkpt lat="44.74942" lon="8.2555167"><ele>238.0</ele><time>2026-04-12T12:46:49.997Z</time></trkpt><trkpt lat="44.7495483" lon="8.2557"><ele>238.0</ele><time>2026-04-12T12:46:51Z</time></trkpt><trkpt lat="44.7496883" lon="8.25587"><ele>238.0</ele><time>2026-04-12T12:46:51.997Z</time></trkpt><trkpt lat="44.7498367" lon="8.2560183"><ele>238.0</ele><time>2026-04-12T12:46:53Z</time></trkpt><trkpt lat="44.7499967" lon="8.2561583"><ele>238.0</ele><time>2026-04-12T12:46:54Z</time></trkpt><trkpt lat="44.7501533" lon="8.256305"><ele>238.0</ele><time>2026-04-12T12:46:55.001Z</time></trkpt><trkpt lat="44.750305" lon="8.25646"><ele>241.0</ele><time>2026-04-12T12:46:56Z</time></trkpt><trkpt lat="44.7504517" lon="8.2566233"><ele>244.0</ele><time>2026-04-12T12:46:56.996Z</time></trkpt><trkpt lat="44.7505933" lon="8.256775"><ele>247.0</ele><time>2026-04-12T12:46:58Z</time></trkpt><trkpt lat="44.750725" lon="8.2569083"><ele>247.0</ele><time>2026-04-12T12:46:59.002Z</time></trkpt><trkpt lat="44.7508383" lon="8.2570133"><ele>247.0</ele><time>2026-04-12T12:46:59.997Z</time></trkpt><trkpt lat="44.7509283" lon="8.25711"><ele>247.0</ele><time>2026-04-12T12:47:00.997Z</time></trkpt><trkpt lat="44.7509867" lon="8.257185"><ele>247.0</ele><time>2026-04-12T12:47:01.997Z</time></trkpt><trkpt lat="44.7510533" lon="8.2572567"><ele>247.0</ele><time>2026-04-12T12:47:03.997Z</time></trkpt><trkpt lat="44.751105" lon="8.2573233"><ele>246.99999999999997</ele><time>2026-04-12T12:47:06.995Z</time></trkpt><trkpt lat="44.75118" lon="8.2574083"><ele>247.0</ele><time>2026-04-12T12:47:08.999Z</time></trkpt><trkpt lat="44.7512367" lon="8.2574667"><ele>247.0</ele><time>2026-04-12T12:47:09.998Z</time></trkpt><trkpt lat="44.7513" lon="8.2575367"><ele>247.0</ele><time>2026-04-12T12:47:10.998Z</time></trkpt><trkpt lat="44.7513683" lon="8.2576133"><ele>246.99999999999997</ele><time>2026-04-12T12:47:11.996Z</time></trkpt><trkpt lat="44.751445" lon="8.2576967"><ele>247.0</ele><time>2026-04-12T12:47:12.998Z</time></trkpt><trkpt lat="44.7515217" lon="8.257785"><ele>247.0</ele><time>2026-04-12T12:47:13.996Z</time></trkpt><trkpt lat="44.7516067" lon="8.2578717"><ele>247.0</ele><time>2026-04-12T12:47:14.998Z</time></trkpt><trkpt lat="44.7517017" lon="8.2579467"><ele>247.0</ele><time>2026-04-12T12:47:15.999Z</time></trkpt><trkpt lat="44.7518117" lon="8.2580133"><ele>247.0</ele><time>2026-04-12T12:47:16.997Z</time></trkpt><trkpt lat="44.7519317" lon="8.2580733"><ele>245.0</ele><time>2026-04-12T12:47:17.997Z</time></trkpt><trkpt lat="44.7520517" lon="8.25813"><ele>243.0</ele><time>2026-04-12T12:47:18.996Z</time></trkpt><trkpt lat="44.7521683" lon="8.258195"><ele>241.0</ele><time>2026-04-12T12:47:19.995Z</time></trkpt><trkpt lat="44.75229" lon="8.258265"><ele>239.0</ele><time>2026-04-12T12:47:20.996Z</time></trkpt><trkpt lat="44.7524083" lon="8.2583383"><ele>239.0</ele><time>2026-04-12T12:47:21.994Z</time></trkpt><trkpt lat="44.75253" lon="8.258415"><ele>239.0</ele><time>2026-04-12T12:47:22.996Z</time></trkpt><trkpt lat="44.752645" lon="8.2584967"><ele>239.0</ele><time>2026-04-12T12:47:23.997Z</time></trkpt><trkpt lat="44.7527517" lon="8.2585867"><ele>239.0</ele><time>2026-04-12T12:47:24.997Z</time></trkpt><trkpt lat="44.7528467" lon="8.25869"><ele>238.5</ele><time>2026-04-12T12:47:25.997Z</time></trkpt><trkpt lat="44.7529383" lon="8.25881"><ele>238.0</ele><time>2026-04-12T12:47:26.999Z</time></trkpt><trkpt lat="44.7530283" lon="8.2589383"><ele>237.5</ele><time>2026-04-12T12:47:27.998Z</time></trkpt><trkpt lat="44.75312" lon="8.2590633"><ele>237.0</ele><time>2026-04-12T12:47:28.995Z</time></trkpt><trkpt lat="44.7532167" lon="8.2591933"><ele>237.0</ele><time>2026-04-12T12:47:29.997Z</time></trkpt><trkpt lat="44.75332" lon="8.2593217"><ele>237.0</ele><time>2026-04-12T12:47:30.997Z</time></trkpt><trkpt lat="44.7534333" lon="8.25944"><ele>237.0</ele><time>2026-04-12T12:47:31.996Z</time></trkpt><trkpt lat="44.7535483" lon="8.2595533"><ele>237.0</ele><time>2026-04-12T12:47:32.996Z</time></trkpt><trkpt lat="44.7536683" lon="8.25965"><ele>236.5</ele><time>2026-04-12T12:47:33.997Z</time></trkpt><trkpt lat="44.753785" lon="8.2597267"><ele>236.0</ele><time>2026-04-12T12:47:34.992Z</time></trkpt><trkpt lat="44.753905" lon="8.259795"><ele>235.5</ele><time>2026-04-12T12:47:35.997Z</time></trkpt><trkpt lat="44.7540233" lon="8.25987"><ele>235.0</ele><time>2026-04-12T12:47:37Z</time></trkpt><trkpt lat="44.7541467" lon="8.2599567"><ele>235.0</ele><time>2026-04-12T12:47:37.994Z</time></trkpt><trkpt lat="44.7542567" lon="8.2600733"><ele>235.0</ele><time>2026-04-12T12:47:39Z</time></trkpt><trkpt lat="44.7543567" lon="8.26021"><ele>235.0</ele><time>2026-04-12T12:47:39.997Z</time></trkpt><trkpt lat="44.7544533" lon="8.2603517"><ele>235.0</ele><time>2026-04-12T12:47:41Z</time></trkpt><trkpt lat="44.75454" lon="8.2604967"><ele>234.25</ele><time>2026-04-12T12:47:41.996Z</time></trkpt><trkpt lat="44.7546183" lon="8.2606433"><ele>233.5</ele><time>2026-04-12T12:47:42.994Z</time></trkpt><trkpt lat="44.7546967" lon="8.26079"><ele>232.75</ele><time>2026-04-12T12:47:43.995Z</time></trkpt><trkpt lat="44.7547583" lon="8.2609533"><ele>232.0</ele><time>2026-04-12T12:47:44.995Z</time></trkpt><trkpt lat="44.7548133" lon="8.2611033"><ele>232.0</ele><time>2026-04-12T12:47:45.996Z</time></trkpt><trkpt lat="44.75485" lon="8.26125"><ele>232.0</ele><time>2026-04-12T12:47:46.995Z</time></trkpt><trkpt lat="44.75488" lon="8.2613967"><ele>232.0</ele><time>2026-04-12T12:47:47.994Z</time></trkpt><trkpt lat="44.7549067" lon="8.2615517"><ele>232.0</ele><time>2026-04-12T12:47:49.001Z</time></trkpt><trkpt lat="44.75494" lon="8.2617167"><ele>233.0</ele><time>2026-04-12T12:47:49.995Z</time></trkpt><trkpt lat="44.7549833" lon="8.26189"><ele>234.0</ele><time>2026-04-12T12:47:50.992Z</time></trkpt><trkpt lat="44.7550383" lon="8.2620617"><ele>235.0</ele><time>2026-04-12T12:47:51.995Z</time></trkpt><trkpt lat="44.7550917" lon="8.2622333"><ele>236.0</ele><time>2026-04-12T12:47:52.996Z</time></trkpt><trkpt lat="44.755145" lon="8.2624167"><ele>237.75</ele><time>2026-04-12T12:47:53.995Z</time></trkpt><trkpt lat="44.7551967" lon="8.2625967"><ele>239.5</ele><time>2026-04-12T12:47:54.996Z</time></trkpt><trkpt lat="44.7552533" lon="8.26277"><ele>241.25</ele><time>2026-04-12T12:47:55.994Z</time></trkpt><trkpt lat="44.7553183" lon="8.2629333"><ele>243.0</ele><time>2026-04-12T12:47:56.997Z</time></trkpt><trkpt lat="44.7553917" lon="8.2630917"><ele>241.0</ele><time>2026-04-12T12:47:57.995Z</time></trkpt><trkpt lat="44.75547" lon="8.26325"><ele>239.0</ele><time>2026-04-12T12:47:58.991Z</time></trkpt><trkpt lat="44.7555517" lon="8.2634033"><ele>237.0</ele><time>2026-04-12T12:47:59.996Z</time></trkpt><trkpt lat="44.7556367" lon="8.26356"><ele>235.0</ele><time>2026-04-12T12:48:00.999Z</time></trkpt><trkpt lat="44.7557167" lon="8.2637067"><ele>235.0</ele><time>2026-04-12T12:48:01.996Z</time></trkpt><trkpt lat="44.7557983" lon="8.263845"><ele>235.0</ele><time>2026-04-12T12:48:02.994Z</time></trkpt><trkpt lat="44.755885" lon="8.2639767"><ele>235.0</ele><time>2026-04-12T12:48:03.998Z</time></trkpt><trkpt lat="44.755975" lon="8.264105"><ele>235.0</ele><time>2026-04-12T12:48:04.993Z</time></trkpt><trkpt lat="44.75606" lon="8.26422"><ele>234.33333333333331</ele><time>2026-04-12T12:48:05.997Z</time></trkpt><trkpt lat="44.7561333" lon="8.2643233"><ele>233.66666666666666</ele><time>2026-04-12T12:48:06.994Z</time></trkpt><trkpt lat="44.7562" lon="8.2644183"><ele>233.0</ele><time>2026-04-12T12:48:07.997Z</time></trkpt><trkpt lat="44.7562467" lon="8.264515"><ele>232.33333333333331</ele><time>2026-04-12T12:48:09.002Z</time></trkpt><trkpt lat="44.7562783" lon="8.2646117"><ele>231.66666666666666</ele><time>2026-04-12T12:48:09.996Z</time></trkpt><trkpt lat="44.7563" lon="8.2647133"><ele>231.0</ele><time>2026-04-12T12:48:10.998Z</time></trkpt><trkpt lat="44.7563017" lon="8.264825"><ele>231.0</ele><time>2026-04-12T12:48:11.998Z</time></trkpt><trkpt lat="44.756305" lon="8.2649467"><ele>231.00000000000003</ele><time>2026-04-12T12:48:12.993Z</time></trkpt><trkpt lat="44.7563" lon="8.2650817"><ele>231.00000000000003</ele><time>2026-04-12T12:48:13.996Z</time></trkpt><trkpt lat="44.75629" lon="8.26522"><ele>231.0</ele><time>2026-04-12T12:48:14.996Z</time></trkpt><trkpt lat="44.7562917" lon="8.2653667"><ele>231.0</ele><time>2026-04-12T12:48:15.998Z</time></trkpt><trkpt lat="44.756275" lon="8.2655167"><ele>229.75</ele><time>2026-04-12T12:48:16.999Z</time></trkpt><trkpt lat="44.7562433" lon="8.2656717"><ele>228.5</ele><time>2026-04-12T12:48:18.001Z</time></trkpt><trkpt lat="44.756205" lon="8.2658317"><ele>227.25</ele><time>2026-04-12T12:48:18.994Z</time></trkpt><trkpt lat="44.7561433" lon="8.2659883"><ele>226.0</ele><time>2026-04-12T12:48:19.999Z</time></trkpt><trkpt lat="44.756075" lon="8.2661467"><ele>225.75</ele><time>2026-04-12T12:48:20.996Z</time></trkpt><trkpt lat="44.7560033" lon="8.26631"><ele>225.5</ele><time>2026-04-12T12:48:21.996Z</time></trkpt><trkpt lat="44.755915" lon="8.2664817"><ele>225.25</ele><time>2026-04-12T12:48:22.997Z</time></trkpt><trkpt lat="44.75582" lon="8.266655"><ele>225.0</ele><time>2026-04-12T12:48:23.996Z</time></trkpt><trkpt lat="44.755725" lon="8.26684"><ele>225.0</ele><time>2026-04-12T12:48:24.994Z</time></trkpt><trkpt lat="44.75563" lon="8.2670233"><ele>225.0</ele><time>2026-04-12T12:48:25.994Z</time></trkpt><trkpt lat="44.7555317" lon="8.267205"><ele>225.0</ele><time>2026-04-12T12:48:26.999Z</time></trkpt><trkpt lat="44.7554367" lon="8.2673733"><ele>225.0</ele><time>2026-04-12T12:48:27.997Z</time></trkpt><trkpt lat="44.7553533" lon="8.2675283"><ele>225.0</ele><time>2026-04-12T12:48:28.997Z</time></trkpt><trkpt lat="44.7552817" lon="8.2676683"><ele>225.0</ele><time>2026-04-12T12:48:29.997Z</time></trkpt><trkpt lat="44.755225" lon="8.2678"><ele>225.0</ele><time>2026-04-12T12:48:30.998Z</time></trkpt><trkpt lat="44.75519" lon="8.2679333"><ele>223.75</ele><time>2026-04-12T12:48:31.997Z</time></trkpt><trkpt lat="44.7551717" lon="8.26808"><ele>222.5</ele><time>2026-04-12T12:48:32.999Z</time></trkpt><trkpt lat="44.7551683" lon="8.26824"><ele>221.25</ele><time>2026-04-12T12:48:34Z</time></trkpt><trkpt lat="44.75518" lon="8.26841"><ele>220.0</ele><time>2026-04-12T12:48:34.997Z</time></trkpt><trkpt lat="44.7551883" lon="8.26859"><ele>220.0</ele><time>2026-04-12T12:48:35.999Z</time></trkpt><trkpt lat="44.7551983" lon="8.268775"><ele>220.0</ele><time>2026-04-12T12:48:36.998Z</time></trkpt><trkpt lat="44.7551967" lon="8.2689617"><ele>220.0</ele><time>2026-04-12T12:48:37.996Z</time></trkpt><trkpt lat="44.75517" lon="8.2691533"><ele>220.0</ele><time>2026-04-12T12:48:39.006Z</time></trkpt><trkpt lat="44.7551267" lon="8.2693467"><ele>220.0</ele><time>2026-04-12T12:48:39.999Z</time></trkpt><trkpt lat="44.7550717" lon="8.2695483"><ele>220.0</ele><time>2026-04-12T12:48:40.996Z</time></trkpt><trkpt lat="44.75501" lon="8.269755"><ele>220.0</ele><time>2026-04-12T12:48:41.997Z</time></trkpt><trkpt lat="44.7549483" lon="8.26997"><ele>221.0</ele><time>2026-04-12T12:48:42.998Z</time></trkpt><trkpt lat="44.7548767" lon="8.2701833"><ele>222.0</ele><time>2026-04-12T12:48:44.004Z</time></trkpt><trkpt lat="44.75481" lon="8.270395"><ele>223.0</ele><time>2026-04-12T12:48:44.995Z</time></trkpt><trkpt lat="44.754745" lon="8.27061"><ele>223.66666666666666</ele><time>2026-04-12T12:48:45.996Z</time></trkpt><trkpt lat="44.7546867" lon="8.2708267"><ele>224.33333333333331</ele><time>2026-04-12T12:48:46.998Z</time></trkpt><trkpt lat="44.7546317" lon="8.2710417"><ele>225.0</ele><time>2026-04-12T12:48:47.996Z</time></trkpt><trkpt lat="44.7545817" lon="8.2712567"><ele>224.75</ele><time>2026-04-12T12:48:49Z</time></trkpt><trkpt lat="44.7545367" lon="8.27146"><ele>224.5</ele><time>2026-04-12T12:48:49.995Z</time></trkpt><trkpt lat="44.7545" lon="8.27165"><ele>224.25</ele><time>2026-04-12T12:48:51.004Z</time></trkpt><trkpt lat="44.7544767" lon="8.27183"><ele>224.0</ele><time>2026-04-12T12:48:51.997Z</time></trkpt><trkpt lat="44.7544633" lon="8.2720033"><ele>224.0</ele><time>2026-04-12T12:48:53Z</time></trkpt><trkpt lat="44.7544767" lon="8.2721617"><ele>224.0</ele><time>2026-04-12T12:48:53.996Z</time></trkpt><trkpt lat="44.75452" lon="8.2723"><ele>224.0</ele><time>2026-04-12T12:48:54.995Z</time></trkpt><trkpt lat="44.7545967" lon="8.2724183"><ele>224.0</ele><time>2026-04-12T12:48:55.996Z</time></trkpt><trkpt lat="44.7546833" lon="8.2725283"><ele>225.5</ele><time>2026-04-12T12:48:56.994Z</time></trkpt><trkpt lat="44.7547867" lon="8.2726183"><ele>227.0</ele><time>2026-04-12T12:48:57.999Z</time></trkpt><trkpt lat="44.7549" lon="8.2727017"><ele>228.5</ele><time>2026-04-12T12:48:58.995Z</time></trkpt><trkpt lat="44.7550183" lon="8.2727883"><ele>230.0</ele><time>2026-04-12T12:48:59.997Z</time></trkpt><trkpt lat="44.7551367" lon="8.27289"><ele>229.25</ele><time>2026-04-12T12:49:00.995Z</time></trkpt><trkpt lat="44.7552517" lon="8.2730017"><ele>228.5</ele><time>2026-04-12T12:49:01.998Z</time></trkpt><trkpt lat="44.7553583" lon="8.27313"><ele>227.75</ele><time>2026-04-12T12:49:02.996Z</time></trkpt><trkpt lat="44.7554617" lon="8.2732683"><ele>227.0</ele><time>2026-04-12T12:49:03.997Z</time></trkpt><trkpt lat="44.7555617" lon="8.2734133"><ele>227.0</ele><time>2026-04-12T12:49:04.993Z</time></trkpt><trkpt lat="44.755655" lon="8.2735633"><ele>227.0</ele><time>2026-04-12T12:49:05.994Z</time></trkpt><trkpt lat="44.7557417" lon="8.2737083"><ele>227.0</ele><time>2026-04-12T12:49:06.996Z</time></trkpt><trkpt lat="44.7558233" lon="8.2738483"><ele>227.0</ele><time>2026-04-12T12:49:07.998Z</time></trkpt><trkpt lat="44.755905" lon="8.27398"><ele>228.0</ele><time>2026-04-12T12:49:08.995Z</time></trkpt><trkpt lat="44.7559967" lon="8.2741033"><ele>229.0</ele><time>2026-04-12T12:49:09.998Z</time></trkpt><trkpt lat="44.7561" lon="8.2742017"><ele>230.0</ele><time>2026-04-12T12:49:10.993Z</time></trkpt><trkpt lat="44.756225" lon="8.2742617"><ele>231.0</ele><time>2026-04-12T12:49:11.996Z</time></trkpt><trkpt lat="44.7563617" lon="8.2742933"><ele>227.66666666666669</ele><time>2026-04-12T12:49:12.997Z</time></trkpt><trkpt lat="44.7565067" lon="8.2743167"><ele>224.33333333333334</ele><time>2026-04-12T12:49:13.998Z</time></trkpt><trkpt lat="44.7566567" lon="8.2743417"><ele>221.0</ele><time>2026-04-12T12:49:14.997Z</time></trkpt><trkpt lat="44.756815" lon="8.2743683"><ele>221.0</ele><time>2026-04-12T12:49:15.998Z</time></trkpt><trkpt lat="44.7569733" lon="8.2743967"><ele>221.0</ele><time>2026-04-12T12:49:16.995Z</time></trkpt><trkpt lat="44.757135" lon="8.27443"><ele>221.0</ele><time>2026-04-12T12:49:17.997Z</time></trkpt><trkpt lat="44.7572983" lon="8.274465"><ele>221.0</ele><time>2026-04-12T12:49:18.997Z</time></trkpt><trkpt lat="44.7574633" lon="8.2744967"><ele>221.0</ele><time>2026-04-12T12:49:19.998Z</time></trkpt><trkpt lat="44.7576317" lon="8.2745117"><ele>221.0</ele><time>2026-04-12T12:49:21Z</time></trkpt><trkpt lat="44.7577883" lon="8.2745217"><ele>220.75</ele><time>2026-04-12T12:49:21.995Z</time></trkpt><trkpt lat="44.75793" lon="8.274535"><ele>220.5</ele><time>2026-04-12T12:49:22.995Z</time></trkpt><trkpt lat="44.7580733" lon="8.2745367"><ele>220.25</ele><time>2026-04-12T12:49:23.994Z</time></trkpt><trkpt lat="44.758205" lon="8.27452"><ele>220.0</ele><time>2026-04-12T12:49:25.003Z</time></trkpt><trkpt lat="44.7583417" lon="8.2744817"><ele>220.0</ele><time>2026-04-12T12:49:25.996Z</time></trkpt><trkpt lat="44.7584817" lon="8.2744333"><ele>220.0</ele><time>2026-04-12T12:49:26.995Z</time></trkpt><trkpt lat="44.7586233" lon="8.2743933"><ele>220.0</ele><time>2026-04-12T12:49:27.997Z</time></trkpt><trkpt lat="44.758765" lon="8.2743583"><ele>220.0</ele><time>2026-04-12T12:49:28.994Z</time></trkpt><trkpt lat="44.7589083" lon="8.2743283"><ele>219.0</ele><time>2026-04-12T12:49:29.992Z</time></trkpt><trkpt lat="44.759045" lon="8.27428"><ele>218.0</ele><time>2026-04-12T12:49:30.996Z</time></trkpt><trkpt lat="44.7591767" lon="8.2742183"><ele>217.0</ele><time>2026-04-12T12:49:31.996Z</time></trkpt><trkpt lat="44.7592933" lon="8.2741533"><ele>216.0</ele><time>2026-04-12T12:49:32.994Z</time></trkpt><trkpt lat="44.7594033" lon="8.2741117"><ele>214.0</ele><time>2026-04-12T12:49:33.997Z</time></trkpt><trkpt lat="44.7595033" lon="8.27411"><ele>212.00000000000003</ele><time>2026-04-12T12:49:34.996Z</time></trkpt><trkpt lat="44.7596033" lon="8.27414"><ele>210.0</ele><time>2026-04-12T12:49:35.996Z</time></trkpt><trkpt lat="44.7596967" lon="8.2742067"><ele>208.0</ele><time>2026-04-12T12:49:36.997Z</time></trkpt><trkpt lat="44.7597867" lon="8.2742917"><ele>206.0</ele><time>2026-04-12T12:49:37.994Z</time></trkpt><trkpt lat="44.759875" lon="8.2743833"><ele>206.0</ele><time>2026-04-12T12:49:38.996Z</time></trkpt><trkpt lat="44.7599683" lon="8.274475"><ele>206.0</ele><time>2026-04-12T12:49:39.996Z</time></trkpt><trkpt lat="44.76006" lon="8.27457"><ele>206.0</ele><time>2026-04-12T12:49:40.996Z</time></trkpt><trkpt lat="44.76014" lon="8.27466"><ele>206.0</ele><time>2026-04-12T12:49:41.997Z</time></trkpt><trkpt lat="44.760215" lon="8.27472"><ele>206.0</ele><time>2026-04-12T12:49:42.998Z</time></trkpt><trkpt lat="44.7602783" lon="8.274775"><ele>205.50000000000003</ele><time>2026-04-12T12:49:43.998Z</time></trkpt><trkpt lat="44.76037" lon="8.2748583"><ele>205.0</ele><time>2026-04-12T12:49:46.001Z</time></trkpt><trkpt lat="44.7604383" lon="8.27488"><ele>204.5</ele><time>2026-04-12T12:49:53.001Z</time></trkpt><trkpt lat="44.760465" lon="8.2747933"><ele>204.0</ele><time>2026-04-12T12:49:53.997Z</time></trkpt><trkpt lat="44.7604867" lon="8.2746817"><ele>203.50000000000003</ele><time>2026-04-12T12:49:54.994Z</time></trkpt><trkpt lat="44.7605067" lon="8.2745583"><ele>203.0</ele><time>2026-04-12T12:49:55.999Z</time></trkpt><trkpt lat="44.7605267" lon="8.2744217"><ele>201.75</ele><time>2026-04-12T12:49:57.001Z</time></trkpt><trkpt lat="44.7605517" lon="8.2742467"><ele>200.5</ele><time>2026-04-12T12:49:58.001Z</time></trkpt><trkpt lat="44.76058" lon="8.27407"><ele>199.25</ele><time>2026-04-12T12:49:58.996Z</time></trkpt><trkpt lat="44.76062" lon="8.2738783"><ele>198.0</ele><time>2026-04-12T12:49:59.997Z</time></trkpt><trkpt lat="44.760665" lon="8.2736767"><ele>196.33333333333331</ele><time>2026-04-12T12:50:00.998Z</time></trkpt><trkpt lat="44.7607183" lon="8.2734667"><ele>194.66666666666666</ele><time>2026-04-12T12:50:02Z</time></trkpt><trkpt lat="44.7607783" lon="8.27326"><ele>193.0</ele><time>2026-04-12T12:50:02.998Z</time></trkpt><trkpt lat="44.76085" lon="8.2730567"><ele>192.66666666666666</ele><time>2026-04-12T12:50:03.998Z</time></trkpt><trkpt lat="44.7609317" lon="8.2728533"><ele>192.33333333333331</ele><time>2026-04-12T12:50:04.997Z</time></trkpt><trkpt lat="44.7610167" lon="8.2726617"><ele>192.0</ele><time>2026-04-12T12:50:05.999Z</time></trkpt><trkpt lat="44.7611083" lon="8.2724767"><ele>189.33333333333334</ele><time>2026-04-12T12:50:07.007Z</time></trkpt><trkpt lat="44.7612067" lon="8.272295"><ele>186.66666666666669</ele><time>2026-04-12T12:50:07.997Z</time></trkpt><trkpt lat="44.761305" lon="8.2721217"><ele>184.0</ele><time>2026-04-12T12:50:08.997Z</time></trkpt><trkpt lat="44.7614067" lon="8.27196"><ele>184.0</ele><time>2026-04-12T12:50:09.997Z</time></trkpt><trkpt lat="44.7615167" lon="8.2717967"><ele>184.0</ele><time>2026-04-12T12:50:10.995Z</time></trkpt><trkpt lat="44.7616283" lon="8.27164"><ele>184.0</ele><time>2026-04-12T12:50:11.994Z</time></trkpt><trkpt lat="44.7617467" lon="8.271495"><ele>182.66666666666669</ele><time>2026-04-12T12:50:12.994Z</time></trkpt><trkpt lat="44.7618683" lon="8.2713567"><ele>181.33333333333334</ele><time>2026-04-12T12:50:13.996Z</time></trkpt><trkpt lat="44.7619983" lon="8.2712217"><ele>180.0</ele><time>2026-04-12T12:50:14.995Z</time></trkpt><trkpt lat="44.762135" lon="8.271095"><ele>180.0</ele><time>2026-04-12T12:50:16Z</time></trkpt><trkpt lat="44.762275" lon="8.27098"><ele>180.0</ele><time>2026-04-12T12:50:16.996Z</time></trkpt><trkpt lat="44.7624183" lon="8.27087"><ele>180.0</ele><time>2026-04-12T12:50:17.997Z</time></trkpt><trkpt lat="44.7625683" lon="8.2707667"><ele>178.0</ele><time>2026-04-12T12:50:19.004Z</time></trkpt><trkpt lat="44.7627167" lon="8.270665"><ele>176.0</ele><time>2026-04-12T12:50:20Z</time></trkpt><trkpt lat="44.7628683" lon="8.2705667"><ele>174.0</ele><time>2026-04-12T12:50:20.999Z</time></trkpt><trkpt lat="44.7630133" lon="8.2704667"><ele>173.66666666666666</ele><time>2026-04-12T12:50:22.001Z</time></trkpt><trkpt lat="44.763165" lon="8.2703733"><ele>173.33333333333331</ele><time>2026-04-12T12:50:23.003Z</time></trkpt><trkpt lat="44.7633167" lon="8.2702867"><ele>173.0</ele><time>2026-04-12T12:50:24.001Z</time></trkpt><trkpt lat="44.7634717" lon="8.2702083"><ele>171.33333333333331</ele><time>2026-04-12T12:50:24.998Z</time></trkpt><trkpt lat="44.7636167" lon="8.270135"><ele>169.66666666666666</ele><time>2026-04-12T12:50:25.998Z</time></trkpt><trkpt lat="44.7637683" lon="8.27007"><ele>168.0</ele><time>2026-04-12T12:50:26.998Z</time></trkpt><trkpt lat="44.7639317" lon="8.2700083"><ele>168.0</ele><time>2026-04-12T12:50:27.998Z</time></trkpt><trkpt lat="44.7640967" lon="8.2699483"><ele>168.0</ele><time>2026-04-12T12:50:28.999Z</time></trkpt><trkpt lat="44.7642667" lon="8.2698983"><ele>168.0</ele><time>2026-04-12T12:50:30Z</time></trkpt><trkpt lat="44.7644433" lon="8.26985"><ele>165.66666666666666</ele><time>2026-04-12T12:50:30.996Z</time></trkpt><trkpt lat="44.7646217" lon="8.2698017"><ele>163.33333333333331</ele><time>2026-04-12T12:50:32.005Z</time></trkpt><trkpt lat="44.764805" lon="8.2697583"><ele>161.0</ele><time>2026-04-12T12:50:32.997Z</time></trkpt><trkpt lat="44.7649783" lon="8.26972"><ele>160.0</ele><time>2026-04-12T12:50:33.996Z</time></trkpt><trkpt lat="44.765145" lon="8.2696833"><ele>159.0</ele><time>2026-04-12T12:50:34.999Z</time></trkpt><trkpt lat="44.765305" lon="8.269645"><ele>158.0</ele><time>2026-04-12T12:50:35.997Z</time></trkpt><trkpt lat="44.7654583" lon="8.2696083"><ele>156.66666666666666</ele><time>2026-04-12T12:50:37.004Z</time></trkpt><trkpt lat="44.765615" lon="8.2695717"><ele>155.33333333333334</ele><time>2026-04-12T12:50:37.996Z</time></trkpt><trkpt lat="44.7657717" lon="8.2695367"><ele>154.0</ele><time>2026-04-12T12:50:38.998Z</time></trkpt><trkpt lat="44.7659283" lon="8.2695017"><ele>153.66666666666669</ele><time>2026-04-12T12:50:39.995Z</time></trkpt><trkpt lat="44.7660817" lon="8.2694667"><ele>153.33333333333334</ele><time>2026-04-12T12:50:40.999Z</time></trkpt><trkpt lat="44.7662383" lon="8.2694233"><ele>153.0</ele><time>2026-04-12T12:50:41.993Z</time></trkpt><trkpt lat="44.7664" lon="8.26939"><ele>153.0</ele><time>2026-04-12T12:50:43.002Z</time></trkpt><trkpt lat="44.7665683" lon="8.2693483"><ele>153.0</ele><time>2026-04-12T12:50:43.995Z</time></trkpt><trkpt lat="44.766745" lon="8.2693067"><ele>153.0</ele><time>2026-04-12T12:50:45Z</time></trkpt><trkpt lat="44.7669267" lon="8.26927"><ele>152.66666666666666</ele><time>2026-04-12T12:50:45.991Z</time></trkpt><trkpt lat="44.76711" lon="8.26924"><ele>152.33333333333331</ele><time>2026-04-12T12:50:46.996Z</time></trkpt><trkpt lat="44.7672967" lon="8.269215"><ele>152.0</ele><time>2026-04-12T12:50:47.996Z</time></trkpt><trkpt lat="44.7674867" lon="8.269195"><ele>152.0</ele><time>2026-04-12T12:50:48.999Z</time></trkpt><trkpt lat="44.76768" lon="8.2691833"><ele>152.0</ele><time>2026-04-12T12:50:49.997Z</time></trkpt><trkpt lat="44.767875" lon="8.26918"><ele>152.0</ele><time>2026-04-12T12:50:50.999Z</time></trkpt><trkpt lat="44.768075" lon="8.2691833"><ele>151.33333333333331</ele><time>2026-04-12T12:50:51.993Z</time></trkpt><trkpt lat="44.768275" lon="8.269195"><ele>150.66666666666666</ele><time>2026-04-12T12:50:52.993Z</time></trkpt><trkpt lat="44.7684767" lon="8.2692133"><ele>150.0</ele><time>2026-04-12T12:50:53.995Z</time></trkpt><trkpt lat="44.76868" lon="8.269235"><ele>150.0</ele><time>2026-04-12T12:50:54.996Z</time></trkpt><trkpt lat="44.7688833" lon="8.269265"><ele>150.0</ele><time>2026-04-12T12:50:56Z</time></trkpt><trkpt lat="44.7690883" lon="8.2693083"><ele>150.0</ele><time>2026-04-12T12:50:56.998Z</time></trkpt><trkpt lat="44.7692933" lon="8.2693633"><ele>150.33333333333334</ele><time>2026-04-12T12:50:57.994Z</time></trkpt><trkpt lat="44.7694967" lon="8.2694267"><ele>150.66666666666669</ele><time>2026-04-12T12:50:58.994Z</time></trkpt><trkpt lat="44.7696983" lon="8.269495"><ele>151.0</ele><time>2026-04-12T12:50:59.994Z</time></trkpt><trkpt lat="44.769905" lon="8.2695717"><ele>151.0</ele><time>2026-04-12T12:51:00.999Z</time></trkpt><trkpt lat="44.770115" lon="8.26965"><ele>151.0</ele><time>2026-04-12T12:51:01.999Z</time></trkpt><trkpt lat="44.7703283" lon="8.269725"><ele>151.0</ele><time>2026-04-12T12:51:03Z</time></trkpt><trkpt lat="44.7705433" lon="8.2698017"><ele>151.0</ele><time>2026-04-12T12:51:03.996Z</time></trkpt><trkpt lat="44.77076" lon="8.2698817"><ele>151.0</ele><time>2026-04-12T12:51:04.997Z</time></trkpt><trkpt lat="44.7709783" lon="8.269965"><ele>152.0</ele><time>2026-04-12T12:51:05.997Z</time></trkpt><trkpt lat="44.7712" lon="8.2700467"><ele>153.0</ele><time>2026-04-12T12:51:06.999Z</time></trkpt><trkpt lat="44.7714183" lon="8.2701333"><ele>153.0</ele><time>2026-04-12T12:51:07.995Z</time></trkpt><trkpt lat="44.7716317" lon="8.2702317"><ele>153.0</ele><time>2026-04-12T12:51:08.997Z</time></trkpt><trkpt lat="44.7718433" lon="8.2703433"><ele>152.66666666666666</ele><time>2026-04-12T12:51:09.995Z</time></trkpt><trkpt lat="44.7720483" lon="8.270465"><ele>152.33333333333331</ele><time>2026-04-12T12:51:10.998Z</time></trkpt><trkpt lat="44.7722533" lon="8.2705933"><ele>152.0</ele><time>2026-04-12T12:51:11.999Z</time></trkpt><trkpt lat="44.7724533" lon="8.27073"><ele>152.0</ele><time>2026-04-12T12:51:12.994Z</time></trkpt><trkpt lat="44.7726533" lon="8.2708783"><ele>152.0</ele><time>2026-04-12T12:51:13.996Z</time></trkpt><trkpt lat="44.7728467" lon="8.2710417"><ele>152.33333333333331</ele><time>2026-04-12T12:51:14.995Z</time></trkpt><trkpt lat="44.7730333" lon="8.2712133"><ele>152.66666666666666</ele><time>2026-04-12T12:51:16.003Z</time></trkpt><trkpt lat="44.7732167" lon="8.2713967"><ele>153.0</ele><time>2026-04-12T12:51:16.997Z</time></trkpt><trkpt lat="44.7733983" lon="8.271585"><ele>152.66666666666666</ele><time>2026-04-12T12:51:17.998Z</time></trkpt><trkpt lat="44.7735717" lon="8.2717833"><ele>152.33333333333331</ele><time>2026-04-12T12:51:18.996Z</time></trkpt><trkpt lat="44.7737417" lon="8.2719867"><ele>152.0</ele><time>2026-04-12T12:51:19.994Z</time></trkpt><trkpt lat="44.7739083" lon="8.2721983"><ele>151.0</ele><time>2026-04-12T12:51:20.997Z</time></trkpt><trkpt lat="44.7740667" lon="8.2724217"><ele>150.0</ele><time>2026-04-12T12:51:21.992Z</time></trkpt><trkpt lat="44.77422" lon="8.2726467"><ele>149.0</ele><time>2026-04-12T12:51:22.995Z</time></trkpt><trkpt lat="44.7743667" lon="8.272885"><ele>150.0</ele><time>2026-04-12T12:51:24.001Z</time></trkpt><trkpt lat="44.7745067" lon="8.2731317"><ele>151.0</ele><time>2026-04-12T12:51:25.001Z</time></trkpt><trkpt lat="44.7746367" lon="8.2733833"><ele>152.0</ele><time>2026-04-12T12:51:25.994Z</time></trkpt><trkpt lat="44.7747617" lon="8.27364"><ele>152.0</ele><time>2026-04-12T12:51:26.996Z</time></trkpt><trkpt lat="44.77488" lon="8.2738983"><ele>152.0</ele><time>2026-04-12T12:51:27.999Z</time></trkpt><trkpt lat="44.774995" lon="8.2741633"><ele>152.0</ele><time>2026-04-12T12:51:28.999Z</time></trkpt><trkpt lat="44.7751033" lon="8.2744217"><ele>153.33333333333331</ele><time>2026-04-12T12:51:29.998Z</time></trkpt><trkpt lat="44.7752067" lon="8.2746683"><ele>154.66666666666666</ele><time>2026-04-12T12:51:31.002Z</time></trkpt><trkpt lat="44.7753067" lon="8.2749067"><ele>156.0</ele><time>2026-04-12T12:51:31.993Z</time></trkpt><trkpt lat="44.775405" lon="8.2751417"><ele>156.0</ele><time>2026-04-12T12:51:33.002Z</time></trkpt><trkpt lat="44.7755033" lon="8.27537"><ele>156.0</ele><time>2026-04-12T12:51:33.996Z</time></trkpt><trkpt lat="44.7755983" lon="8.2755933"><ele>156.0</ele><time>2026-04-12T12:51:34.999Z</time></trkpt><trkpt lat="44.77569" lon="8.275815"><ele>154.66666666666666</ele><time>2026-04-12T12:51:35.997Z</time></trkpt><trkpt lat="44.77578" lon="8.276035"><ele>153.33333333333331</ele><time>2026-04-12T12:51:36.998Z</time></trkpt><trkpt lat="44.7758733" lon="8.2762617"><ele>152.0</ele><time>2026-04-12T12:51:37.999Z</time></trkpt><trkpt lat="44.775965" lon="8.2764867"><ele>151.33333333333331</ele><time>2026-04-12T12:51:38.998Z</time></trkpt><trkpt lat="44.77606" lon="8.2767167"><ele>150.66666666666666</ele><time>2026-04-12T12:51:40Z</time></trkpt><trkpt lat="44.7761483" lon="8.27694"><ele>150.0</ele><time>2026-04-12T12:51:41.003Z</time></trkpt><trkpt lat="44.7762367" lon="8.2771533"><ele>149.0</ele><time>2026-04-12T12:51:41.999Z</time></trkpt><trkpt lat="44.7763217" lon="8.2773533"><ele>148.0</ele><time>2026-04-12T12:51:42.998Z</time></trkpt><trkpt lat="44.7764017" lon="8.2775417"><ele>147.0</ele><time>2026-04-12T12:51:43.996Z</time></trkpt><trkpt lat="44.7764767" lon="8.2777183"><ele>147.0</ele><time>2026-04-12T12:51:45.001Z</time></trkpt><trkpt lat="44.77655" lon="8.277885"><ele>147.0</ele><time>2026-04-12T12:51:45.995Z</time></trkpt><trkpt lat="44.7766233" lon="8.2780367"><ele>147.0</ele><time>2026-04-12T12:51:46.999Z</time></trkpt><trkpt lat="44.7767" lon="8.2781617"><ele>147.0</ele><time>2026-04-12T12:51:47.996Z</time></trkpt><trkpt lat="44.7767733" lon="8.2782617"><ele>147.2</ele><time>2026-04-12T12:51:49Z</time></trkpt><trkpt lat="44.7768417" lon="8.2783433"><ele>147.39999999999998</ele><time>2026-04-12T12:51:50.002Z</time></trkpt><trkpt lat="44.7769017" lon="8.2784283"><ele>147.60000000000002</ele><time>2026-04-12T12:51:51Z</time></trkpt><trkpt lat="44.77696" lon="8.2785233"><ele>147.8</ele><time>2026-04-12T12:51:51.996Z</time></trkpt><trkpt lat="44.7770083" lon="8.2786333"><ele>148.0</ele><time>2026-04-12T12:51:52.995Z</time></trkpt><trkpt lat="44.7770333" lon="8.278765"><ele>148.5</ele><time>2026-04-12T12:51:53.995Z</time></trkpt><trkpt lat="44.7770383" lon="8.2789167"><ele>149.0</ele><time>2026-04-12T12:51:54.996Z</time></trkpt><trkpt lat="44.777035" lon="8.2790817"><ele>149.5</ele><time>2026-04-12T12:51:55.997Z</time></trkpt><trkpt lat="44.7770233" lon="8.2792617"><ele>150.0</ele><time>2026-04-12T12:51:56.998Z</time></trkpt><trkpt lat="44.7770117" lon="8.2794533"><ele>150.25</ele><time>2026-04-12T12:51:57.998Z</time></trkpt><trkpt lat="44.7769967" lon="8.2796417"><ele>150.5</ele><time>2026-04-12T12:51:58.999Z</time></trkpt><trkpt lat="44.7769867" lon="8.279825"><ele>150.75</ele><time>2026-04-12T12:52:00.002Z</time></trkpt><trkpt lat="44.7769733" lon="8.2800083"><ele>151.0</ele><time>2026-04-12T12:52:01.001Z</time></trkpt><trkpt lat="44.77696" lon="8.2801917"><ele>151.0</ele><time>2026-04-12T12:52:01.998Z</time></trkpt><trkpt lat="44.7769483" lon="8.28037"><ele>151.0</ele><time>2026-04-12T12:52:03.001Z</time></trkpt><trkpt lat="44.7769367" lon="8.280525"><ele>151.0</ele><time>2026-04-12T12:52:03.996Z</time></trkpt><trkpt lat="44.77693" lon="8.2806517"><ele>151.0</ele><time>2026-04-12T12:52:04.996Z</time></trkpt><trkpt lat="44.7769283" lon="8.2807617"><ele>151.0</ele><time>2026-04-12T12:52:05.997Z</time></trkpt><trkpt lat="44.7770033" lon="8.2808233"><ele>151.0</ele><time>2026-04-12T12:52:07.998Z</time></trkpt><trkpt lat="44.7770867" lon="8.28077"><ele>151.0</ele><time>2026-04-12T12:52:09.996Z</time></trkpt><trkpt lat="44.7771233" lon="8.2806533"><ele>151.0</ele><time>2026-04-12T12:52:12.001Z</time></trkpt><trkpt lat="44.7771317" lon="8.28056"><ele>151.0</ele><time>2026-04-12T12:52:14.001Z</time></trkpt><trkpt lat="44.7771517" lon="8.280425"><ele>151.0</ele><time>2026-04-12T12:56:12.996Z</time></trkpt><trkpt lat="44.7771083" lon="8.280315"><ele>151.0</ele><time>2026-04-12T12:56:14.996Z</time></trkpt><trkpt lat="44.777075" lon="8.2802"><ele>151.0</ele><time>2026-04-12T12:56:16.996Z</time></trkpt><trkpt lat="44.7770667" lon="8.2800767"><ele>151.0</ele><time>2026-04-12T12:56:18.997Z</time></trkpt><trkpt lat="44.7770917" lon="8.279955"><ele>151.0</ele><time>2026-04-12T12:56:20.998Z</time></trkpt><trkpt lat="44.7771233" lon="8.279825"><ele>151.0</ele><time>2026-04-12T12:56:22.997Z</time></trkpt><trkpt lat="44.7771567" lon="8.2796767"><ele>151.0</ele><time>2026-04-12T12:56:24.995Z</time></trkpt><trkpt lat="44.7771967" lon="8.279555"><ele>151.0</ele><time>2026-04-12T12:56:27Z</time></trkpt><trkpt lat="44.7772667" lon="8.279485"><ele>151.0</ele><time>2026-04-12T12:56:29.997Z</time></trkpt><trkpt lat="44.77733" lon="8.27947"><ele>151.0</ele><time>2026-04-12T12:56:34Z</time></trkpt><trkpt lat="44.7772683" lon="8.279435"><ele>151.0</ele><time>2026-04-12T13:16:44.997Z</time></trkpt><trkpt lat="44.77721" lon="8.27951"><ele>151.0</ele><time>2026-04-12T13:16:47.998Z</time></trkpt><trkpt lat="44.7771333" lon="8.2795783"><ele>151.0</ele><time>2026-04-12T13:16:50.994Z</time></trkpt><trkpt lat="44.77705" lon="8.27956"><ele>151.0</ele><time>2026-04-12T13:16:53.998Z</time></trkpt><trkpt lat="44.7770317" lon="8.2794433"><ele>151.0</ele><time>2026-04-12T13:16:56.002Z</time></trkpt><trkpt lat="44.7770383" lon="8.2792683"><ele>151.0</ele><time>2026-04-12T13:16:57.997Z</time></trkpt><trkpt lat="44.7770417" lon="8.279175"><ele>151.0</ele><time>2026-04-12T13:16:58.996Z</time></trkpt><trkpt lat="44.77705" lon="8.2790783"><ele>151.0</ele><time>2026-04-12T13:17:00Z</time></trkpt><trkpt lat="44.7770617" lon="8.27898"><ele>151.0</ele><time>2026-04-12T13:17:01.004Z</time></trkpt><trkpt lat="44.777085" lon="8.2788833"><ele>150.83333333333334</ele><time>2026-04-12T13:17:01.996Z</time></trkpt><trkpt lat="44.7771233" lon="8.2787933"><ele>150.66666666666669</ele><time>2026-04-12T13:17:02.998Z</time></trkpt><trkpt lat="44.777175" lon="8.2787067"><ele>150.5</ele><time>2026-04-12T13:17:03.992Z</time></trkpt><trkpt lat="44.7772333" lon="8.2786383"><ele>150.33333333333334</ele><time>2026-04-12T13:17:04.996Z</time></trkpt><trkpt lat="44.7773033" lon="8.27857"><ele>150.16666666666666</ele><time>2026-04-12T13:17:05.998Z</time></trkpt><trkpt lat="44.777385" lon="8.27851"><ele>150.0</ele><time>2026-04-12T13:17:06.993Z</time></trkpt><trkpt lat="44.7774717" lon="8.278465"><ele>150.0</ele><time>2026-04-12T13:17:08.004Z</time></trkpt><trkpt lat="44.7775683" lon="8.2784333"><ele>150.0</ele><time>2026-04-12T13:17:08.993Z</time></trkpt><trkpt lat="44.77767" lon="8.2784167"><ele>150.0</ele><time>2026-04-12T13:17:09.996Z</time></trkpt><trkpt lat="44.7777817" lon="8.2784"><ele>150.0</ele><time>2026-04-12T13:17:10.994Z</time></trkpt><trkpt lat="44.7778983" lon="8.278385"><ele>150.0</ele><time>2026-04-12T13:17:11.996Z</time></trkpt><trkpt lat="44.7780133" lon="8.2783633"><ele>149.75</ele><time>2026-04-12T13:17:12.996Z</time></trkpt><trkpt lat="44.7781317" lon="8.2783333"><ele>149.5</ele><time>2026-04-12T13:17:13.995Z</time></trkpt><trkpt lat="44.778245" lon="8.2782983"><ele>149.25</ele><time>2026-04-12T13:17:14.993Z</time></trkpt><trkpt lat="44.77836" lon="8.2782667"><ele>149.0</ele><time>2026-04-12T13:17:15.998Z</time></trkpt><trkpt lat="44.7784717" lon="8.2782333"><ele>149.0</ele><time>2026-04-12T13:17:16.999Z</time></trkpt><trkpt lat="44.7785817" lon="8.278215"><ele>149.0</ele><time>2026-04-12T13:17:17.996Z</time></trkpt><trkpt lat="44.7786867" lon="8.2782067"><ele>149.0</ele><time>2026-04-12T13:17:18.995Z</time></trkpt><trkpt lat="44.7787817" lon="8.278215"><ele>149.0</ele><time>2026-04-12T13:17:19.999Z</time></trkpt><trkpt lat="44.77887" lon="8.2782317"><ele>149.0</ele><time>2026-04-12T13:17:20.997Z</time></trkpt><trkpt lat="44.7789517" lon="8.2782517"><ele>149.0</ele><time>2026-04-12T13:17:21.998Z</time></trkpt><trkpt lat="44.7790333" lon="8.27827"><ele>149.0</ele><time>2026-04-12T13:17:22.997Z</time></trkpt><trkpt lat="44.779115" lon="8.278285"><ele>149.0</ele><time>2026-04-12T13:17:23.997Z</time></trkpt><trkpt lat="44.7791983" lon="8.2782967"><ele>149.0</ele><time>2026-04-12T13:17:25.004Z</time></trkpt><trkpt lat="44.7792817" lon="8.278305"><ele>149.0</ele><time>2026-04-12T13:17:25.998Z</time></trkpt><trkpt lat="44.7793683" lon="8.27831"><ele>149.0</ele><time>2026-04-12T13:17:26.996Z</time></trkpt><trkpt lat="44.7794567" lon="8.27832"><ele>149.4</ele><time>2026-04-12T13:17:27.996Z</time></trkpt><trkpt lat="44.7795417" lon="8.278335"><ele>149.8</ele><time>2026-04-12T13:17:28.998Z</time></trkpt><trkpt lat="44.77963" lon="8.278345"><ele>150.2</ele><time>2026-04-12T13:17:29.997Z</time></trkpt><trkpt lat="44.7797217" lon="8.2783617"><ele>150.6</ele><time>2026-04-12T13:17:31.001Z</time></trkpt><trkpt lat="44.7798167" lon="8.2783767"><ele>151.0</ele><time>2026-04-12T13:17:31.995Z</time></trkpt><trkpt lat="44.7799167" lon="8.27839"><ele>151.0</ele><time>2026-04-12T13:17:32.995Z</time></trkpt><trkpt lat="44.780015" lon="8.2784067"><ele>151.0</ele><time>2026-04-12T13:17:33.997Z</time></trkpt><trkpt lat="44.7801117" lon="8.2784217"><ele>151.0</ele><time>2026-04-12T13:17:34.996Z</time></trkpt><trkpt lat="44.780205" lon="8.2784367"><ele>151.0</ele><time>2026-04-12T13:17:35.999Z</time></trkpt><trkpt lat="44.7802967" lon="8.2784467"><ele>151.0</ele><time>2026-04-12T13:17:36.996Z</time></trkpt><trkpt lat="44.7803867" lon="8.2784617"><ele>152.0</ele><time>2026-04-12T13:17:37.998Z</time></trkpt><trkpt lat="44.78048" lon="8.2784733"><ele>153.0</ele><time>2026-04-12T13:17:39.002Z</time></trkpt><trkpt lat="44.7805767" lon="8.27849"><ele>154.0</ele><time>2026-04-12T13:17:40Z</time></trkpt><trkpt lat="44.7806783" lon="8.2785017"><ele>155.0</ele><time>2026-04-12T13:17:40.999Z</time></trkpt><trkpt lat="44.780785" lon="8.2785083"><ele>156.0</ele><time>2026-04-12T13:17:42Z</time></trkpt><trkpt lat="44.7808933" lon="8.2785083"><ele>156.0</ele><time>2026-04-12T13:17:42.993Z</time></trkpt><trkpt lat="44.781005" lon="8.278485"><ele>156.0</ele><time>2026-04-12T13:17:43.995Z</time></trkpt><trkpt lat="44.781115" lon="8.2784383"><ele>156.0</ele><time>2026-04-12T13:17:44.996Z</time></trkpt><trkpt lat="44.78121" lon="8.27836"><ele>156.0</ele><time>2026-04-12T13:17:45.993Z</time></trkpt><trkpt lat="44.7812917" lon="8.2782433"><ele>158.0</ele><time>2026-04-12T13:17:46.998Z</time></trkpt><trkpt lat="44.7813467" lon="8.2780967"><ele>160.0</ele><time>2026-04-12T13:17:47.996Z</time></trkpt><trkpt lat="44.7813817" lon="8.2779317"><ele>162.0</ele><time>2026-04-12T13:17:48.996Z</time></trkpt><trkpt lat="44.781405" lon="8.27778"><ele>164.0</ele><time>2026-04-12T13:17:49.997Z</time></trkpt><trkpt lat="44.7814483" lon="8.2776283"><ele>164.0</ele><time>2026-04-12T13:17:51Z</time></trkpt><trkpt lat="44.7815183" lon="8.277485"><ele>164.0</ele><time>2026-04-12T13:17:51.994Z</time></trkpt><trkpt lat="44.781605" lon="8.277385"><ele>164.0</ele><time>2026-04-12T13:17:52.994Z</time></trkpt><trkpt lat="44.7817033" lon="8.2773267"><ele>164.0</ele><time>2026-04-12T13:17:53.997Z</time></trkpt><trkpt lat="44.7818133" lon="8.2773583"><ele>162.66666666666666</ele><time>2026-04-12T13:17:55.003Z</time></trkpt><trkpt lat="44.7819267" lon="8.277465"><ele>161.33333333333334</ele><time>2026-04-12T13:17:55.997Z</time></trkpt><trkpt lat="44.78204" lon="8.2776583"><ele>160.0</ele><time>2026-04-12T13:17:57.001Z</time></trkpt><trkpt lat="44.7821567" lon="8.2778483"><ele>160.0</ele><time>2026-04-12T13:17:57.997Z</time></trkpt><trkpt lat="44.7822717" lon="8.2780433"><ele>160.0</ele><time>2026-04-12T13:17:58.995Z</time></trkpt><trkpt lat="44.78238" lon="8.27824"><ele>160.0</ele><time>2026-04-12T13:17:59.993Z</time></trkpt><trkpt lat="44.7824867" lon="8.2784267"><ele>163.66666666666669</ele><time>2026-04-12T13:18:00.995Z</time></trkpt><trkpt lat="44.782585" lon="8.278605"><ele>167.33333333333334</ele><time>2026-04-12T13:18:01.998Z</time></trkpt><trkpt lat="44.7826783" lon="8.2787817"><ele>171.0</ele><time>2026-04-12T13:18:02.999Z</time></trkpt><trkpt lat="44.7827667" lon="8.2789667"><ele>172.0</ele><time>2026-04-12T13:18:03.996Z</time></trkpt><trkpt lat="44.7828517" lon="8.2791533"><ele>173.0</ele><time>2026-04-12T13:18:04.993Z</time></trkpt><trkpt lat="44.782935" lon="8.2793333"><ele>174.0</ele><time>2026-04-12T13:18:05.995Z</time></trkpt><trkpt lat="44.7830183" lon="8.27952"><ele>174.0</ele><time>2026-04-12T13:18:07.002Z</time></trkpt><trkpt lat="44.7830983" lon="8.2797033"><ele>174.0</ele><time>2026-04-12T13:18:07.994Z</time></trkpt><trkpt lat="44.7831733" lon="8.2798867"><ele>174.0</ele><time>2026-04-12T13:18:08.994Z</time></trkpt><trkpt lat="44.7832483" lon="8.2800717"><ele>179.0</ele><time>2026-04-12T13:18:10.001Z</time></trkpt><trkpt lat="44.783315" lon="8.2802667"><ele>184.0</ele><time>2026-04-12T13:18:10.995Z</time></trkpt><trkpt lat="44.7833733" lon="8.2804633"><ele>189.0</ele><time>2026-04-12T13:18:11.994Z</time></trkpt><trkpt lat="44.783415" lon="8.28066"><ele>189.0</ele><time>2026-04-12T13:18:12.996Z</time></trkpt><trkpt lat="44.7834533" lon="8.2808633"><ele>189.0</ele><time>2026-04-12T13:18:13.994Z</time></trkpt><trkpt lat="44.7834867" lon="8.28106"><ele>189.0</ele><time>2026-04-12T13:18:14.999Z</time></trkpt><trkpt lat="44.7835167" lon="8.2812583"><ele>189.0</ele><time>2026-04-12T13:18:15.993Z</time></trkpt><trkpt lat="44.7835433" lon="8.2814533"><ele>189.0</ele><time>2026-04-12T13:18:17.001Z</time></trkpt><trkpt lat="44.7835617" lon="8.28164"><ele>189.0</ele><time>2026-04-12T13:18:17.996Z</time></trkpt><trkpt lat="44.7835933" lon="8.2818267"><ele>189.0</ele><time>2026-04-12T13:18:18.995Z</time></trkpt><trkpt lat="44.7836333" lon="8.28201"><ele>189.0</ele><time>2026-04-12T13:18:19.995Z</time></trkpt><trkpt lat="44.783695" lon="8.2821817"><ele>192.25</ele><time>2026-04-12T13:18:20.997Z</time></trkpt><trkpt lat="44.7837683" lon="8.282335"><ele>195.5</ele><time>2026-04-12T13:18:21.997Z</time></trkpt><trkpt lat="44.7838633" lon="8.2824717"><ele>198.75</ele><time>2026-04-12T13:18:22.998Z</time></trkpt><trkpt lat="44.7839767" lon="8.2825817"><ele>202.0</ele><time>2026-04-12T13:18:23.995Z</time></trkpt><trkpt lat="44.7840867" lon="8.2826833"><ele>202.0</ele><time>2026-04-12T13:18:24.998Z</time></trkpt><trkpt lat="44.7842" lon="8.2827883"><ele>202.0</ele><time>2026-04-12T13:18:25.995Z</time></trkpt><trkpt lat="44.7843117" lon="8.28289"><ele>202.0</ele><time>2026-04-12T13:18:26.999Z</time></trkpt><trkpt lat="44.7844217" lon="8.282985"><ele>202.0</ele><time>2026-04-12T13:18:27.997Z</time></trkpt><trkpt lat="44.7845333" lon="8.283065"><ele>203.8</ele><time>2026-04-12T13:18:28.997Z</time></trkpt><trkpt lat="44.7846467" lon="8.2831267"><ele>205.6</ele><time>2026-04-12T13:18:29.994Z</time></trkpt><trkpt lat="44.7847467" lon="8.283175"><ele>207.4</ele><time>2026-04-12T13:18:30.992Z</time></trkpt><trkpt lat="44.7848533" lon="8.28322"><ele>209.20000000000002</ele><time>2026-04-12T13:18:31.995Z</time></trkpt><trkpt lat="44.7849567" lon="8.2832617"><ele>211.0</ele><time>2026-04-12T13:18:32.993Z</time></trkpt><trkpt lat="44.7850533" lon="8.2832967"><ele>211.0</ele><time>2026-04-12T13:18:33.997Z</time></trkpt><trkpt lat="44.785145" lon="8.2833317"><ele>211.0</ele><time>2026-04-12T13:18:34.998Z</time></trkpt><trkpt lat="44.7852383" lon="8.2833683"><ele>211.0</ele><time>2026-04-12T13:18:35.999Z</time></trkpt><trkpt lat="44.7853367" lon="8.2834"><ele>211.0</ele><time>2026-04-12T13:18:36.993Z</time></trkpt><trkpt lat="44.785445" lon="8.283445"><ele>211.0</ele><time>2026-04-12T13:18:37.997Z</time></trkpt><trkpt lat="44.7855533" lon="8.2834833"><ele>212.5</ele><time>2026-04-12T13:18:38.997Z</time></trkpt><trkpt lat="44.7856633" lon="8.283525"><ele>214.0</ele><time>2026-04-12T13:18:40.002Z</time></trkpt><trkpt lat="44.7857717" lon="8.283565"><ele>215.5</ele><time>2026-04-12T13:18:40.994Z</time></trkpt><trkpt lat="44.78588" lon="8.2836133"><ele>217.0</ele><time>2026-04-12T13:18:41.998Z</time></trkpt><trkpt lat="44.785985" lon="8.2836733"><ele>216.6</ele><time>2026-04-12T13:18:42.995Z</time></trkpt><trkpt lat="44.7860817" lon="8.2837433"><ele>216.2</ele><time>2026-04-12T13:18:43.999Z</time></trkpt><trkpt lat="44.78618" lon="8.2838083"><ele>215.8</ele><time>2026-04-12T13:18:44.996Z</time></trkpt><trkpt lat="44.7862783" lon="8.2838917"><ele>215.4</ele><time>2026-04-12T13:18:45.992Z</time></trkpt><trkpt lat="44.7863683" lon="8.2839733"><ele>215.0</ele><time>2026-04-12T13:18:46.997Z</time></trkpt><trkpt lat="44.786455" lon="8.2840483"><ele>217.2</ele><time>2026-04-12T13:18:47.999Z</time></trkpt><trkpt lat="44.786535" lon="8.2841167"><ele>219.4</ele><time>2026-04-12T13:18:48.999Z</time></trkpt><trkpt lat="44.7866083" lon="8.2841817"><ele>221.60000000000002</ele><time>2026-04-12T13:18:49.996Z</time></trkpt><trkpt lat="44.7866733" lon="8.2842367"><ele>223.8</ele><time>2026-04-12T13:18:50.997Z</time></trkpt><trkpt lat="44.7867233" lon="8.284415"><ele>226.0</ele><time>2026-04-12T13:18:52.998Z</time></trkpt><trkpt lat="44.786715" lon="8.2845433"><ele>226.0</ele><time>2026-04-12T13:18:53.997Z</time></trkpt><trkpt lat="44.78672" lon="8.2846767"><ele>226.00000000000003</ele><time>2026-04-12T13:18:54.995Z</time></trkpt><trkpt lat="44.7867383" lon="8.2848117"><ele>226.00000000000003</ele><time>2026-04-12T13:18:56.001Z</time></trkpt><trkpt lat="44.7867633" lon="8.2849467"><ele>226.0</ele><time>2026-04-12T13:18:56.999Z</time></trkpt><trkpt lat="44.78679" lon="8.2850867"><ele>226.0</ele><time>2026-04-12T13:18:57.996Z</time></trkpt><trkpt lat="44.7868183" lon="8.2852383"><ele>229.0</ele><time>2026-04-12T13:18:58.997Z</time></trkpt><trkpt lat="44.7868583" lon="8.285405"><ele>232.0</ele><time>2026-04-12T13:18:59.994Z</time></trkpt><trkpt lat="44.7868967" lon="8.2855717"><ele>235.0</ele><time>2026-04-12T13:19:00.996Z</time></trkpt><trkpt lat="44.78693" lon="8.2857433"><ele>238.0</ele><time>2026-04-12T13:19:01.996Z</time></trkpt><trkpt lat="44.7869567" lon="8.2859167"><ele>238.0</ele><time>2026-04-12T13:19:02.999Z</time></trkpt><trkpt lat="44.7870067" lon="8.2860817"><ele>238.0</ele><time>2026-04-12T13:19:03.998Z</time></trkpt><trkpt lat="44.7870567" lon="8.2862467"><ele>238.0</ele><time>2026-04-12T13:19:04.995Z</time></trkpt><trkpt lat="44.7871" lon="8.286415"><ele>238.0</ele><time>2026-04-12T13:19:05.996Z</time></trkpt><trkpt lat="44.7871333" lon="8.2865917"><ele>234.25</ele><time>2026-04-12T13:19:06.996Z</time></trkpt><trkpt lat="44.787175" lon="8.286775"><ele>230.5</ele><time>2026-04-12T13:19:07.996Z</time></trkpt><trkpt lat="44.7872183" lon="8.2869567"><ele>226.75</ele><time>2026-04-12T13:19:08.995Z</time></trkpt><trkpt lat="44.7872817" lon="8.287135"><ele>223.0</ele><time>2026-04-12T13:19:09.995Z</time></trkpt><trkpt lat="44.7873783" lon="8.28729"><ele>220.0</ele><time>2026-04-12T13:19:10.995Z</time></trkpt><trkpt lat="44.78749" lon="8.287425"><ele>217.0</ele><time>2026-04-12T13:19:12Z</time></trkpt><trkpt lat="44.787615" lon="8.2875533"><ele>214.0</ele><time>2026-04-12T13:19:13.004Z</time></trkpt><trkpt lat="44.7877667" lon="8.2876517"><ele>214.0</ele><time>2026-04-12T13:19:13.995Z</time></trkpt><trkpt lat="44.7879117" lon="8.2877267"><ele>214.0</ele><time>2026-04-12T13:19:14.995Z</time></trkpt><trkpt lat="44.7880483" lon="8.2878083"><ele>214.0</ele><time>2026-04-12T13:19:15.995Z</time></trkpt><trkpt lat="44.78818" lon="8.2879083"><ele>214.0</ele><time>2026-04-12T13:19:16.991Z</time></trkpt><trkpt lat="44.7883083" lon="8.288025"><ele>214.0</ele><time>2026-04-12T13:19:17.997Z</time></trkpt><trkpt lat="44.78844" lon="8.2881517"><ele>214.0</ele><time>2026-04-12T13:19:18.996Z</time></trkpt><trkpt lat="44.7885783" lon="8.288265"><ele>209.66666666666666</ele><time>2026-04-12T13:19:20Z</time></trkpt><trkpt lat="44.78872" lon="8.2883667"><ele>205.33333333333331</ele><time>2026-04-12T13:19:20.995Z</time></trkpt><trkpt lat="44.78886" lon="8.288445"><ele>201.0</ele><time>2026-04-12T13:19:21.995Z</time></trkpt><trkpt lat="44.7890033" lon="8.28851"><ele>201.0</ele><time>2026-04-12T13:19:22.999Z</time></trkpt><trkpt lat="44.789145" lon="8.2885683"><ele>201.0</ele><time>2026-04-12T13:19:23.994Z</time></trkpt><trkpt lat="44.7892833" lon="8.2886583"><ele>201.0</ele><time>2026-04-12T13:19:25.001Z</time></trkpt><trkpt lat="44.78941" lon="8.2887917"><ele>196.0</ele><time>2026-04-12T13:19:25.997Z</time></trkpt><trkpt lat="44.7895283" lon="8.2889383"><ele>191.0</ele><time>2026-04-12T13:19:26.996Z</time></trkpt><trkpt lat="44.7896383" lon="8.2890933"><ele>186.0</ele><time>2026-04-12T13:19:27.996Z</time></trkpt><trkpt lat="44.7897483" lon="8.2892517"><ele>186.0</ele><time>2026-04-12T13:19:28.995Z</time></trkpt><trkpt lat="44.789865" lon="8.2894183"><ele>186.0</ele><time>2026-04-12T13:19:29.995Z</time></trkpt><trkpt lat="44.7899917" lon="8.289575"><ele>186.0</ele><time>2026-04-12T13:19:30.995Z</time></trkpt><trkpt lat="44.7901217" lon="8.2897283"><ele>187.33333333333334</ele><time>2026-04-12T13:19:31.992Z</time></trkpt><trkpt lat="44.7902533" lon="8.2898733"><ele>188.66666666666669</ele><time>2026-04-12T13:19:32.995Z</time></trkpt><trkpt lat="44.7903933" lon="8.2900167"><ele>190.0</ele><time>2026-04-12T13:19:33.996Z</time></trkpt><trkpt lat="44.7905367" lon="8.2901383"><ele>190.0</ele><time>2026-04-12T13:19:34.998Z</time></trkpt><trkpt lat="44.7906733" lon="8.29026"><ele>190.0</ele><time>2026-04-12T13:19:35.997Z</time></trkpt><trkpt lat="44.7908117" lon="8.2903783"><ele>190.0</ele><time>2026-04-12T13:19:36.993Z</time></trkpt><trkpt lat="44.790945" lon="8.2905067"><ele>189.33333333333334</ele><time>2026-04-12T13:19:37.998Z</time></trkpt><trkpt lat="44.7910717" lon="8.2906467"><ele>188.66666666666666</ele><time>2026-04-12T13:19:39Z</time></trkpt><trkpt lat="44.7911967" lon="8.2907983"><ele>188.0</ele><time>2026-04-12T13:19:40Z</time></trkpt><trkpt lat="44.7913217" lon="8.2909483"><ele>188.0</ele><time>2026-04-12T13:19:40.998Z</time></trkpt><trkpt lat="44.7914517" lon="8.291095"><ele>188.0</ele><time>2026-04-12T13:19:41.992Z</time></trkpt><trkpt lat="44.7915833" lon="8.29124"><ele>188.0</ele><time>2026-04-12T13:19:42.998Z</time></trkpt><trkpt lat="44.7917283" lon="8.2913683"><ele>184.33333333333331</ele><time>2026-04-12T13:19:43.995Z</time></trkpt><trkpt lat="44.7918767" lon="8.2914883"><ele>180.66666666666666</ele><time>2026-04-12T13:19:44.995Z</time></trkpt><trkpt lat="44.7920317" lon="8.2916017"><ele>177.0</ele><time>2026-04-12T13:19:45.994Z</time></trkpt><trkpt lat="44.7921883" lon="8.2917117"><ele>177.0</ele><time>2026-04-12T13:19:46.996Z</time></trkpt><trkpt lat="44.7923467" lon="8.29182"><ele>177.0</ele><time>2026-04-12T13:19:47.994Z</time></trkpt><trkpt lat="44.7925083" lon="8.2919283"><ele>177.0</ele><time>2026-04-12T13:19:48.995Z</time></trkpt><trkpt lat="44.79267" lon="8.2920383"><ele>176.66666666666666</ele><time>2026-04-12T13:19:49.995Z</time></trkpt><trkpt lat="44.7928317" lon="8.29215"><ele>176.33333333333331</ele><time>2026-04-12T13:19:50.997Z</time></trkpt><trkpt lat="44.7929917" lon="8.2922667"><ele>176.0</ele><time>2026-04-12T13:19:51.997Z</time></trkpt><trkpt lat="44.7931533" lon="8.2923733"><ele>176.0</ele><time>2026-04-12T13:19:52.994Z</time></trkpt><trkpt lat="44.7933167" lon="8.292465"><ele>176.0</ele><time>2026-04-12T13:19:53.995Z</time></trkpt><trkpt lat="44.79348" lon="8.2925533"><ele>176.0</ele><time>2026-04-12T13:19:55Z</time></trkpt><trkpt lat="44.79364" lon="8.2926367"><ele>177.0</ele><time>2026-04-12T13:19:55.998Z</time></trkpt><trkpt lat="44.7938" lon="8.2927217"><ele>178.0</ele><time>2026-04-12T13:19:57Z</time></trkpt><trkpt lat="44.79396" lon="8.2928"><ele>179.0</ele><time>2026-04-12T13:19:57.994Z</time></trkpt><trkpt lat="44.7941133" lon="8.2928867"><ele>179.0</ele><time>2026-04-12T13:19:58.995Z</time></trkpt><trkpt lat="44.7942667" lon="8.29298"><ele>179.0</ele><time>2026-04-12T13:19:59.997Z</time></trkpt><trkpt lat="44.7944217" lon="8.29307"><ele>179.0</ele><time>2026-04-12T13:20:00.997Z</time></trkpt><trkpt lat="44.79458" lon="8.2931533"><ele>178.0</ele><time>2026-04-12T13:20:01.999Z</time></trkpt><trkpt lat="44.7947367" lon="8.29324"><ele>177.0</ele><time>2026-04-12T13:20:03.001Z</time></trkpt><trkpt lat="44.7948983" lon="8.2933283"><ele>176.0</ele><time>2026-04-12T13:20:03.998Z</time></trkpt><trkpt lat="44.795065" lon="8.2934117"><ele>178.0</ele><time>2026-04-12T13:20:04.995Z</time></trkpt><trkpt lat="44.7952333" lon="8.293495"><ele>180.0</ele><time>2026-04-12T13:20:05.997Z</time></trkpt><trkpt lat="44.7954133" lon="8.2935783"><ele>182.0</ele><time>2026-04-12T13:20:06.994Z</time></trkpt><trkpt lat="44.7955883" lon="8.2936417"><ele>182.0</ele><time>2026-04-12T13:20:07.994Z</time></trkpt><trkpt lat="44.79577" lon="8.2936867"><ele>182.0</ele><time>2026-04-12T13:20:08.999Z</time></trkpt><trkpt lat="44.795955" lon="8.29372"><ele>182.0</ele><time>2026-04-12T13:20:09.994Z</time></trkpt><trkpt lat="44.7961417" lon="8.2937483"><ele>180.66666666666666</ele><time>2026-04-12T13:20:10.994Z</time></trkpt><trkpt lat="44.7963267" lon="8.2937717"><ele>179.33333333333334</ele><time>2026-04-12T13:20:11.997Z</time></trkpt><trkpt lat="44.79651" lon="8.2938"><ele>178.0</ele><time>2026-04-12T13:20:12.999Z</time></trkpt><trkpt lat="44.796695" lon="8.2938283"><ele>174.66666666666669</ele><time>2026-04-12T13:20:13.994Z</time></trkpt><trkpt lat="44.7968733" lon="8.2938433"><ele>171.33333333333334</ele><time>2026-04-12T13:20:14.999Z</time></trkpt><trkpt lat="44.7970483" lon="8.2938533"><ele>168.0</ele><time>2026-04-12T13:20:15.993Z</time></trkpt><trkpt lat="44.7972183" lon="8.29386"><ele>168.0</ele><time>2026-04-12T13:20:17.002Z</time></trkpt><trkpt lat="44.7973867" lon="8.2938817"><ele>168.0</ele><time>2026-04-12T13:20:17.995Z</time></trkpt><trkpt lat="44.7975467" lon="8.2939367"><ele>168.0</ele><time>2026-04-12T13:20:18.997Z</time></trkpt><trkpt lat="44.797705" lon="8.294015"><ele>167.66666666666666</ele><time>2026-04-12T13:20:19.999Z</time></trkpt><trkpt lat="44.7978617" lon="8.2941083"><ele>167.33333333333331</ele><time>2026-04-12T13:20:20.996Z</time></trkpt><trkpt lat="44.7980133" lon="8.2942167"><ele>167.0</ele><time>2026-04-12T13:20:22.001Z</time></trkpt><trkpt lat="44.7981533" lon="8.2943433"><ele>167.0</ele><time>2026-04-12T13:20:22.997Z</time></trkpt><trkpt lat="44.7982767" lon="8.2945"><ele>167.0</ele><time>2026-04-12T13:20:24.005Z</time></trkpt><trkpt lat="44.7983917" lon="8.2946633"><ele>167.0</ele><time>2026-04-12T13:20:24.995Z</time></trkpt><trkpt lat="44.7985183" lon="8.2947983"><ele>166.0</ele><time>2026-04-12T13:20:25.995Z</time></trkpt><trkpt lat="44.798665" lon="8.29488"><ele>165.0</ele><time>2026-04-12T13:20:26.995Z</time></trkpt><trkpt lat="44.7988283" lon="8.29492"><ele>164.0</ele><time>2026-04-12T13:20:27.996Z</time></trkpt><trkpt lat="44.7990033" lon="8.2949233"><ele>164.0</ele><time>2026-04-12T13:20:28.997Z</time></trkpt><trkpt lat="44.799185" lon="8.2949167"><ele>164.0</ele><time>2026-04-12T13:20:29.996Z</time></trkpt><trkpt lat="44.7993617" lon="8.29492"><ele>164.0</ele><time>2026-04-12T13:20:30.996Z</time></trkpt><trkpt lat="44.799535" lon="8.294935"><ele>165.33333333333331</ele><time>2026-04-12T13:20:31.999Z</time></trkpt><trkpt lat="44.799705" lon="8.294975"><ele>166.66666666666666</ele><time>2026-04-12T13:20:32.996Z</time></trkpt><trkpt lat="44.79987" lon="8.2950333"><ele>168.0</ele><time>2026-04-12T13:20:33.996Z</time></trkpt><trkpt lat="44.8000317" lon="8.2951133"><ele>166.33333333333334</ele><time>2026-04-12T13:20:34.997Z</time></trkpt><trkpt lat="44.8001833" lon="8.29521"><ele>164.66666666666669</ele><time>2026-04-12T13:20:35.997Z</time></trkpt><trkpt lat="44.80033" lon="8.2953233"><ele>163.0</ele><time>2026-04-12T13:20:36.997Z</time></trkpt><trkpt lat="44.8004817" lon="8.2954383"><ele>163.0</ele><time>2026-04-12T13:20:38.001Z</time></trkpt><trkpt lat="44.8006417" lon="8.2955333"><ele>163.0</ele><time>2026-04-12T13:20:38.995Z</time></trkpt><trkpt lat="44.8008033" lon="8.29562"><ele>163.0</ele><time>2026-04-12T13:20:39.998Z</time></trkpt><trkpt lat="44.8009683" lon="8.2957033"><ele>162.0</ele><time>2026-04-12T13:20:40.995Z</time></trkpt><trkpt lat="44.8011333" lon="8.29579"><ele>161.0</ele><time>2026-04-12T13:20:41.995Z</time></trkpt><trkpt lat="44.8013" lon="8.295875"><ele>160.0</ele><time>2026-04-12T13:20:42.995Z</time></trkpt><trkpt lat="44.8014667" lon="8.295955"><ele>160.0</ele><time>2026-04-12T13:20:43.998Z</time></trkpt><trkpt lat="44.8016367" lon="8.2960383"><ele>160.0</ele><time>2026-04-12T13:20:44.996Z</time></trkpt><trkpt lat="44.801805" lon="8.2961267"><ele>160.0</ele><time>2026-04-12T13:20:45.997Z</time></trkpt><trkpt lat="44.8019733" lon="8.2962133"><ele>161.66666666666669</ele><time>2026-04-12T13:20:46.998Z</time></trkpt><trkpt lat="44.80214" lon="8.2962983"><ele>163.33333333333334</ele><time>2026-04-12T13:20:47.996Z</time></trkpt><trkpt lat="44.8023067" lon="8.29639"><ele>165.0</ele><time>2026-04-12T13:20:48.997Z</time></trkpt><trkpt lat="44.8024783" lon="8.29648"><ele>163.0</ele><time>2026-04-12T13:20:49.998Z</time></trkpt><trkpt lat="44.80265" lon="8.2965717"><ele>161.0</ele><time>2026-04-12T13:20:50.997Z</time></trkpt><trkpt lat="44.8028233" lon="8.2966583"><ele>159.0</ele><time>2026-04-12T13:20:51.998Z</time></trkpt><trkpt lat="44.802995" lon="8.296745"><ele>159.0</ele><time>2026-04-12T13:20:53.001Z</time></trkpt><trkpt lat="44.803165" lon="8.2968333"><ele>159.0</ele><time>2026-04-12T13:20:53.997Z</time></trkpt><trkpt lat="44.80333" lon="8.2969217"><ele>159.0</ele><time>2026-04-12T13:20:54.995Z</time></trkpt><trkpt lat="44.8034967" lon="8.2969967"><ele>158.0</ele><time>2026-04-12T13:20:55.999Z</time></trkpt><trkpt lat="44.8036617" lon="8.2970417"><ele>157.0</ele><time>2026-04-12T13:20:56.994Z</time></trkpt><trkpt lat="44.8038267" lon="8.2970383"><ele>156.0</ele><time>2026-04-12T13:20:57.999Z</time></trkpt><trkpt lat="44.8039867" lon="8.2969967"><ele>156.0</ele><time>2026-04-12T13:20:58.996Z</time></trkpt><trkpt lat="44.8041467" lon="8.2969183"><ele>156.0</ele><time>2026-04-12T13:20:59.997Z</time></trkpt><trkpt lat="44.8043083" lon="8.2968183"><ele>156.0</ele><time>2026-04-12T13:21:00.995Z</time></trkpt><trkpt lat="44.8044783" lon="8.2967083"><ele>156.66666666666666</ele><time>2026-04-12T13:21:02Z</time></trkpt><trkpt lat="44.8046517" lon="8.2965883"><ele>157.33333333333331</ele><time>2026-04-12T13:21:02.996Z</time></trkpt><trkpt lat="44.804825" lon="8.2964717"><ele>158.0</ele><time>2026-04-12T13:21:03.994Z</time></trkpt><trkpt lat="44.805" lon="8.2963517"><ele>157.0</ele><time>2026-04-12T13:21:04.994Z</time></trkpt><trkpt lat="44.8051733" lon="8.2962367"><ele>156.0</ele><time>2026-04-12T13:21:05.995Z</time></trkpt><trkpt lat="44.8053467" lon="8.296125"><ele>155.0</ele><time>2026-04-12T13:21:07.001Z</time></trkpt><trkpt lat="44.80552" lon="8.2960117"><ele>155.0</ele><time>2026-04-12T13:21:07.996Z</time></trkpt><trkpt lat="44.8056917" lon="8.2959033"><ele>155.0</ele><time>2026-04-12T13:21:09Z</time></trkpt><trkpt lat="44.8058617" lon="8.2958017"><ele>155.0</ele><time>2026-04-12T13:21:09.999Z</time></trkpt><trkpt lat="44.80603" lon="8.295705"><ele>155.33333333333331</ele><time>2026-04-12T13:21:10.992Z</time></trkpt><trkpt lat="44.8062" lon="8.29562"><ele>155.66666666666666</ele><time>2026-04-12T13:21:11.998Z</time></trkpt><trkpt lat="44.806375" lon="8.2955517"><ele>156.0</ele><time>2026-04-12T13:21:12.997Z</time></trkpt><trkpt lat="44.8065533" lon="8.2955067"><ele>156.0</ele><time>2026-04-12T13:21:13.996Z</time></trkpt><trkpt lat="44.8067333" lon="8.295485"><ele>156.0</ele><time>2026-04-12T13:21:14.998Z</time></trkpt><trkpt lat="44.8069117" lon="8.2954817"><ele>156.0</ele><time>2026-04-12T13:21:15.997Z</time></trkpt><trkpt lat="44.80709" lon="8.2955"><ele>155.0</ele><time>2026-04-12T13:21:16.996Z</time></trkpt><trkpt lat="44.8072667" lon="8.2955367"><ele>154.0</ele><time>2026-04-12T13:21:17.994Z</time></trkpt><trkpt lat="44.8074367" lon="8.2955917"><ele>153.0</ele><time>2026-04-12T13:21:18.997Z</time></trkpt><trkpt lat="44.8076033" lon="8.2956633"><ele>154.0</ele><time>2026-04-12T13:21:19.996Z</time></trkpt><trkpt lat="44.8077683" lon="8.29575"><ele>155.0</ele><time>2026-04-12T13:21:20.997Z</time></trkpt><trkpt lat="44.8079333" lon="8.2958367"><ele>156.0</ele><time>2026-04-12T13:21:21.998Z</time></trkpt><trkpt lat="44.8080983" lon="8.2959217"><ele>156.0</ele><time>2026-04-12T13:21:22.995Z</time></trkpt><trkpt lat="44.8082617" lon="8.2960017"><ele>156.0</ele><time>2026-04-12T13:21:23.995Z</time></trkpt><trkpt lat="44.80842" lon="8.2960833"><ele>156.0</ele><time>2026-04-12T13:21:24.999Z</time></trkpt><trkpt lat="44.8085767" lon="8.296165"><ele>156.66666666666666</ele><time>2026-04-12T13:21:25.995Z</time></trkpt><trkpt lat="44.8087317" lon="8.2962483"><ele>157.33333333333331</ele><time>2026-04-12T13:21:26.997Z</time></trkpt><trkpt lat="44.8088817" lon="8.29633"><ele>158.0</ele><time>2026-04-12T13:21:27.994Z</time></trkpt><trkpt lat="44.8090283" lon="8.29641"><ele>156.33333333333331</ele><time>2026-04-12T13:21:28.993Z</time></trkpt><trkpt lat="44.80917" lon="8.2965183"><ele>154.66666666666666</ele><time>2026-04-12T13:21:29.996Z</time></trkpt><trkpt lat="44.8093" lon="8.2966567"><ele>153.0</ele><time>2026-04-12T13:21:30.996Z</time></trkpt><trkpt lat="44.8094233" lon="8.29681"><ele>153.0</ele><time>2026-04-12T13:21:31.995Z</time></trkpt><trkpt lat="44.8095433" lon="8.29696"><ele>153.0</ele><time>2026-04-12T13:21:32.998Z</time></trkpt><trkpt lat="44.8096683" lon="8.2970917"><ele>153.0</ele><time>2026-04-12T13:21:33.995Z</time></trkpt><trkpt lat="44.80981" lon="8.2971933"><ele>153.0</ele><time>2026-04-12T13:21:34.996Z</time></trkpt><trkpt lat="44.809965" lon="8.29727"><ele>153.0</ele><time>2026-04-12T13:21:35.997Z</time></trkpt><trkpt lat="44.8101233" lon="8.297345"><ele>153.0</ele><time>2026-04-12T13:21:37Z</time></trkpt><trkpt lat="44.8102833" lon="8.2974267"><ele>153.0</ele><time>2026-04-12T13:21:37.998Z</time></trkpt><trkpt lat="44.8104433" lon="8.2975083"><ele>153.0</ele><time>2026-04-12T13:21:38.998Z</time></trkpt><trkpt lat="44.810605" lon="8.2976"><ele>153.0</ele><time>2026-04-12T13:21:39.997Z</time></trkpt><trkpt lat="44.8107667" lon="8.297695"><ele>153.0</ele><time>2026-04-12T13:21:40.995Z</time></trkpt><trkpt lat="44.810925" lon="8.2977933"><ele>153.0</ele><time>2026-04-12T13:21:41.998Z</time></trkpt><trkpt lat="44.811075" lon="8.297905"><ele>153.0</ele><time>2026-04-12T13:21:42.996Z</time></trkpt><trkpt lat="44.8112183" lon="8.2980283"><ele>152.33333333333334</ele><time>2026-04-12T13:21:43.997Z</time></trkpt><trkpt lat="44.8113683" lon="8.298145"><ele>151.66666666666669</ele><time>2026-04-12T13:21:44.995Z</time></trkpt><trkpt lat="44.81152" lon="8.2982517"><ele>151.0</ele><time>2026-04-12T13:21:45.996Z</time></trkpt><trkpt lat="44.8116633" lon="8.298345"><ele>151.0</ele><time>2026-04-12T13:21:46.996Z</time></trkpt><trkpt lat="44.811805" lon="8.2984233"><ele>151.0</ele><time>2026-04-12T13:21:48.001Z</time></trkpt><trkpt lat="44.8119417" lon="8.2984933"><ele>151.0</ele><time>2026-04-12T13:21:48.997Z</time></trkpt><trkpt lat="44.8120733" lon="8.2985517"><ele>151.0</ele><time>2026-04-12T13:21:49.996Z</time></trkpt><trkpt lat="44.8121933" lon="8.2986"><ele>151.0</ele><time>2026-04-12T13:21:50.998Z</time></trkpt><trkpt lat="44.8123067" lon="8.29864"><ele>151.0</ele><time>2026-04-12T13:21:51.998Z</time></trkpt><trkpt lat="44.812415" lon="8.2986733"><ele>151.0</ele><time>2026-04-12T13:21:52.998Z</time></trkpt><trkpt lat="44.81252" lon="8.2987033"><ele>151.0</ele><time>2026-04-12T13:21:53.996Z</time></trkpt><trkpt lat="44.8126117" lon="8.2987333"><ele>151.0</ele><time>2026-04-12T13:21:54.997Z</time></trkpt><trkpt lat="44.8126783" lon="8.2987767"><ele>150.8</ele><time>2026-04-12T13:21:55.997Z</time></trkpt><trkpt lat="44.812765" lon="8.2988767"><ele>150.6</ele><time>2026-04-12T13:21:57.999Z</time></trkpt><trkpt lat="44.81283" lon="8.2989833"><ele>150.4</ele><time>2026-04-12T13:21:59.997Z</time></trkpt><trkpt lat="44.812925" lon="8.299035"><ele>150.2</ele><time>2026-04-12T13:22:01.993Z</time></trkpt><trkpt lat="44.8130433" lon="8.298955"><ele>150.0</ele><time>2026-04-12T13:22:03.997Z</time></trkpt><trkpt lat="44.8131067" lon="8.298865"><ele>149.8</ele><time>2026-04-12T13:22:04.997Z</time></trkpt><trkpt lat="44.8131683" lon="8.2987617"><ele>149.6</ele><time>2026-04-12T13:22:05.997Z</time></trkpt><trkpt lat="44.813235" lon="8.2986617"><ele>149.4</ele><time>2026-04-12T13:22:06.998Z</time></trkpt><trkpt lat="44.8133033" lon="8.2985717"><ele>149.2</ele><time>2026-04-12T13:22:07.996Z</time></trkpt><trkpt lat="44.8133767" lon="8.29848"><ele>149.0</ele><time>2026-04-12T13:22:08.998Z</time></trkpt><trkpt lat="44.8134533" lon="8.2983917"><ele>149.4</ele><time>2026-04-12T13:22:09.999Z</time></trkpt><trkpt lat="44.8135317" lon="8.2982983"><ele>149.8</ele><time>2026-04-12T13:22:10.995Z</time></trkpt><trkpt lat="44.8136117" lon="8.2982"><ele>150.2</ele><time>2026-04-12T13:22:11.994Z</time></trkpt><trkpt lat="44.8136983" lon="8.298095"><ele>150.6</ele><time>2026-04-12T13:22:12.995Z</time></trkpt><trkpt lat="44.8137833" lon="8.2979883"><ele>151.0</ele><time>2026-04-12T13:22:13.994Z</time></trkpt><trkpt lat="44.8138667" lon="8.2978767"><ele>151.0</ele><time>2026-04-12T13:22:14.995Z</time></trkpt><trkpt lat="44.8139533" lon="8.297765"><ele>151.0</ele><time>2026-04-12T13:22:15.994Z</time></trkpt><trkpt lat="44.81404" lon="8.297655"><ele>151.0</ele><time>2026-04-12T13:22:16.995Z</time></trkpt><trkpt lat="44.8141267" lon="8.29755"><ele>151.0</ele><time>2026-04-12T13:22:17.994Z</time></trkpt><trkpt lat="44.8142133" lon="8.2974467"><ele>151.0</ele><time>2026-04-12T13:22:18.996Z</time></trkpt><trkpt lat="44.8142967" lon="8.29734"><ele>151.0</ele><time>2026-04-12T13:22:19.995Z</time></trkpt><trkpt lat="44.814375" lon="8.29723"><ele>151.0</ele><time>2026-04-12T13:22:20.998Z</time></trkpt><trkpt lat="44.814445" lon="8.2971117"><ele>151.0</ele><time>2026-04-12T13:22:21.994Z</time></trkpt><trkpt lat="44.8145133" lon="8.2969867"><ele>151.0</ele><time>2026-04-12T13:22:22.994Z</time></trkpt><trkpt lat="44.8145767" lon="8.2968617"><ele>151.8</ele><time>2026-04-12T13:22:23.995Z</time></trkpt><trkpt lat="44.8146383" lon="8.2967383"><ele>152.6</ele><time>2026-04-12T13:22:25.002Z</time></trkpt><trkpt lat="44.8146983" lon="8.296625"><ele>153.4</ele><time>2026-04-12T13:22:25.995Z</time></trkpt><trkpt lat="44.8147633" lon="8.296535"><ele>154.2</ele><time>2026-04-12T13:22:27Z</time></trkpt><trkpt lat="44.814835" lon="8.2964567"><ele>155.0</ele><time>2026-04-12T13:22:27.995Z</time></trkpt><trkpt lat="44.8149117" lon="8.2963967"><ele>155.0</ele><time>2026-04-12T13:22:28.999Z</time></trkpt><trkpt lat="44.8149833" lon="8.2963567"><ele>155.0</ele><time>2026-04-12T13:22:29.995Z</time></trkpt><trkpt lat="44.8150483" lon="8.2963433"><ele>155.0</ele><time>2026-04-12T13:22:30.999Z</time></trkpt><trkpt lat="44.81513" lon="8.2963317"><ele>155.0</ele><time>2026-04-12T13:22:33.002Z</time></trkpt><trkpt lat="44.8152033" lon="8.296325"><ele>155.0</ele><time>2026-04-12T13:22:35.994Z</time></trkpt><trkpt lat="44.8152983" lon="8.2963217"><ele>155.0</ele><time>2026-04-12T13:22:38.994Z</time></trkpt><trkpt lat="44.8153817" lon="8.2963333"><ele>156.0</ele><time>2026-04-12T13:22:41Z</time></trkpt><trkpt lat="44.81549" lon="8.296345"><ele>157.0</ele><time>2026-04-12T13:22:42.993Z</time></trkpt><trkpt lat="44.815555" lon="8.29635"><ele>158.0</ele><time>2026-04-12T13:22:43.996Z</time></trkpt><trkpt lat="44.8156283" lon="8.2963467"><ele>159.0</ele><time>2026-04-12T13:22:45.001Z</time></trkpt><trkpt lat="44.8156933" lon="8.2963383"><ele>160.0</ele><time>2026-04-12T13:22:45.996Z</time></trkpt><trkpt lat="44.8157717" lon="8.29633"><ele>161.0</ele><time>2026-04-12T13:22:46.994Z</time></trkpt><trkpt lat="44.8158533" lon="8.2963017"><ele>161.0</ele><time>2026-04-12T13:22:47.996Z</time></trkpt><trkpt lat="44.8159317" lon="8.29626"><ele>161.0</ele><time>2026-04-12T13:22:49.001Z</time></trkpt><trkpt lat="44.8160117" lon="8.2961933"><ele>161.0</ele><time>2026-04-12T13:22:49.995Z</time></trkpt><trkpt lat="44.8160883" lon="8.2961117"><ele>161.0</ele><time>2026-04-12T13:22:50.996Z</time></trkpt><trkpt lat="44.8161617" lon="8.2960317"><ele>161.0</ele><time>2026-04-12T13:22:51.995Z</time></trkpt><trkpt lat="44.8162217" lon="8.2959367"><ele>164.20000000000002</ele><time>2026-04-12T13:22:52.996Z</time></trkpt><trkpt lat="44.8162733" lon="8.2958533"><ele>167.4</ele><time>2026-04-12T13:22:53.994Z</time></trkpt><trkpt lat="44.81633" lon="8.2957817"><ele>170.6</ele><time>2026-04-12T13:22:54.997Z</time></trkpt><trkpt lat="44.816375" lon="8.2957133"><ele>173.8</ele><time>2026-04-12T13:22:55.999Z</time></trkpt><trkpt lat="44.8164417" lon="8.2955717"><ele>177.0</ele><time>2026-04-12T13:22:58.001Z</time></trkpt><trkpt lat="44.81647" lon="8.2954067"><ele>177.66666666666666</ele><time>2026-04-12T13:22:59.996Z</time></trkpt><trkpt lat="44.8164667" lon="8.2953167"><ele>178.33333333333334</ele><time>2026-04-12T13:23:00.998Z</time></trkpt><trkpt lat="44.8164483" lon="8.2952117"><ele>179.0</ele><time>2026-04-12T13:23:01.994Z</time></trkpt><trkpt lat="44.8164267" lon="8.2951133"><ele>179.66666666666669</ele><time>2026-04-12T13:23:02.998Z</time></trkpt><trkpt lat="44.8163717" lon="8.2950167"><ele>180.33333333333334</ele><time>2026-04-12T13:23:03.993Z</time></trkpt><trkpt lat="44.8163217" lon="8.2949283"><ele>181.0</ele><time>2026-04-12T13:23:04.993Z</time></trkpt><trkpt lat="44.8162733" lon="8.2948283"><ele>183.0</ele><time>2026-04-12T13:23:05.994Z</time></trkpt><trkpt lat="44.81623" lon="8.2947433"><ele>185.0</ele><time>2026-04-12T13:23:06.993Z</time></trkpt><trkpt lat="44.8161883" lon="8.2946683"><ele>187.0</ele><time>2026-04-12T13:23:08.002Z</time></trkpt><trkpt lat="44.8161267" lon="8.29455"><ele>189.0</ele><time>2026-04-12T13:23:09.993Z</time></trkpt><trkpt lat="44.8161683" lon="8.2944533"><ele>190.99999999999997</ele><time>2026-04-12T13:23:12.996Z</time></trkpt><trkpt lat="44.8162383" lon="8.29448"><ele>193.0</ele><time>2026-04-12T13:23:14.997Z</time></trkpt><trkpt lat="44.8163083" lon="8.2946067"><ele>193.0</ele><time>2026-04-12T13:23:16.994Z</time></trkpt><trkpt lat="44.81639" lon="8.294685"><ele>193.0</ele><time>2026-04-12T13:23:18.997Z</time></trkpt><trkpt lat="44.81648" lon="8.2947583"><ele>193.0</ele><time>2026-04-12T13:23:20.996Z</time></trkpt><trkpt lat="44.8165833" lon="8.2947917"><ele>193.0</ele><time>2026-04-12T13:23:22.995Z</time></trkpt><trkpt lat="44.8167017" lon="8.2947833"><ele>193.0</ele><time>2026-04-12T13:23:24.998Z</time></trkpt><trkpt lat="44.816765" lon="8.2947783"><ele>192.99999999999997</ele><time>2026-04-12T13:23:26Z</time></trkpt><trkpt lat="44.81687" lon="8.2947733"><ele>193.0</ele><time>2026-04-12T13:23:27.998Z</time></trkpt><trkpt lat="44.8168583" lon="8.294685"><ele>193.0</ele><time>2026-04-12T13:23:32.995Z</time></trkpt><trkpt lat="44.8167767" lon="8.2946467"><ele>193.0</ele><time>2026-04-12T13:23:34.994Z</time></trkpt><trkpt lat="44.816705" lon="8.294635"><ele>192.99999999999997</ele><time>2026-04-12T13:23:36.998Z</time></trkpt><trkpt lat="44.8166717" lon="8.29449"><ele>193.0</ele><time>2026-04-12T13:23:38.996Z</time></trkpt><trkpt lat="44.8166483" lon="8.2943267"><ele>193.0</ele><time>2026-04-12T13:23:40.998Z</time></trkpt><trkpt lat="44.81663" lon="8.29419"><ele>193.0</ele><time>2026-04-12T13:23:42.998Z</time></trkpt><trkpt lat="44.8166183" lon="8.294045"><ele>193.0</ele><time>2026-04-12T13:23:44.998Z</time></trkpt><trkpt lat="44.8166133" lon="8.29388"><ele>193.0</ele><time>2026-04-12T13:23:46.993Z</time></trkpt><trkpt lat="44.81657" lon="8.2937317"><ele>193.0</ele><time>2026-04-12T13:23:48.995Z</time></trkpt><trkpt lat="44.816535" lon="8.2936017"><ele>196.8</ele><time>2026-04-12T13:23:50.998Z</time></trkpt><trkpt lat="44.8165133" lon="8.2934483"><ele>200.60000000000002</ele><time>2026-04-12T13:23:52.998Z</time></trkpt><trkpt lat="44.81646" lon="8.29331"><ele>204.39999999999998</ele><time>2026-04-12T13:23:54.999Z</time></trkpt><trkpt lat="44.8163817" lon="8.2931967"><ele>208.2</ele><time>2026-04-12T13:23:56.999Z</time></trkpt><trkpt lat="44.8163317" lon="8.2931383"><ele>212.0</ele><time>2026-04-12T13:23:57.997Z</time></trkpt><trkpt lat="44.8162333" lon="8.2930733"><ele>212.0</ele><time>2026-04-12T13:23:59.997Z</time></trkpt><trkpt lat="44.816155" lon="8.292995"><ele>212.0</ele><time>2026-04-12T13:24:01.993Z</time></trkpt><trkpt lat="44.8160783" lon="8.2928617"><ele>212.0</ele><time>2026-04-12T13:24:03.993Z</time></trkpt><trkpt lat="44.8160417" lon="8.2927217"><ele>212.0</ele><time>2026-04-12T13:24:05.996Z</time></trkpt><trkpt lat="44.8160033" lon="8.2925667"><ele>212.0</ele><time>2026-04-12T13:24:07.996Z</time></trkpt><trkpt lat="44.81596" lon="8.2924083"><ele>212.00000000000003</ele><time>2026-04-12T13:24:09.999Z</time></trkpt><trkpt lat="44.815915" lon="8.2922733"><ele>212.0</ele><time>2026-04-12T13:24:12.002Z</time></trkpt><trkpt lat="44.8158717" lon="8.2921567"><ele>212.0</ele><time>2026-04-12T13:24:13.999Z</time></trkpt><trkpt lat="44.8158383" lon="8.29207"><ele>212.0</ele><time>2026-04-12T13:24:15.995Z</time></trkpt><trkpt lat="44.8158733" lon="8.2919917"><ele>212.00000000000003</ele><time>2026-04-12T13:24:17.996Z</time></trkpt><trkpt lat="44.8159617" lon="8.2919083"><ele>212.0</ele><time>2026-04-12T13:24:19.993Z</time></trkpt><trkpt lat="44.8160467" lon="8.2918283"><ele>211.2</ele><time>2026-04-12T13:24:21.995Z</time></trkpt><trkpt lat="44.8161167" lon="8.2917283"><ele>210.39999999999998</ele><time>2026-04-12T13:24:23.993Z</time></trkpt><trkpt lat="44.8161817" lon="8.2916117"><ele>209.60000000000002</ele><time>2026-04-12T13:24:25.995Z</time></trkpt><trkpt lat="44.81628" lon="8.2915683"><ele>208.8</ele><time>2026-04-12T13:24:28Z</time></trkpt><trkpt lat="44.81641" lon="8.2915883"><ele>208.0</ele><time>2026-04-12T13:24:29.994Z</time></trkpt><trkpt lat="44.81651" lon="8.29165"><ele>208.0</ele><time>2026-04-12T13:24:30.994Z</time></trkpt><trkpt lat="44.8166" lon="8.2917017"><ele>208.0</ele><time>2026-04-12T13:24:32Z</time></trkpt><trkpt lat="44.8166817" lon="8.2917467"><ele>208.0</ele><time>2026-04-12T13:24:33Z</time></trkpt><trkpt lat="44.816765" lon="8.2918067"><ele>208.0</ele><time>2026-04-12T13:24:34.001Z</time></trkpt><trkpt lat="44.8168433" lon="8.2918717"><ele>208.0</ele><time>2026-04-12T13:24:34.993Z</time></trkpt><trkpt lat="44.816925" lon="8.2919333"><ele>204.33333333333331</ele><time>2026-04-12T13:24:35.998Z</time></trkpt><trkpt lat="44.8169983" lon="8.2919917"><ele>200.66666666666666</ele><time>2026-04-12T13:24:36.994Z</time></trkpt><trkpt lat="44.8170667" lon="8.2920517"><ele>197.0</ele><time>2026-04-12T13:24:37.994Z</time></trkpt><trkpt lat="44.81713" lon="8.2920967"><ele>193.33333333333331</ele><time>2026-04-12T13:24:39.001Z</time></trkpt><trkpt lat="44.817195" lon="8.29213"><ele>189.66666666666666</ele><time>2026-04-12T13:24:39.996Z</time></trkpt><trkpt lat="44.8172633" lon="8.2921633"><ele>186.0</ele><time>2026-04-12T13:24:40.996Z</time></trkpt><trkpt lat="44.8173333" lon="8.2921983"><ele>186.0</ele><time>2026-04-12T13:24:41.992Z</time></trkpt><trkpt lat="44.8173967" lon="8.2922367"><ele>186.0</ele><time>2026-04-12T13:24:42.997Z</time></trkpt><trkpt lat="44.8174567" lon="8.2922733"><ele>186.0</ele><time>2026-04-12T13:24:43.993Z</time></trkpt><trkpt lat="44.81751" lon="8.2923233"><ele>186.0</ele><time>2026-04-12T13:24:44.994Z</time></trkpt><trkpt lat="44.8175983" lon="8.292455"><ele>186.0</ele><time>2026-04-12T13:24:46.996Z</time></trkpt><trkpt lat="44.817635" lon="8.29255"><ele>186.0</ele><time>2026-04-12T13:24:47.996Z</time></trkpt><trkpt lat="44.8176517" lon="8.292675"><ele>187.33333333333334</ele><time>2026-04-12T13:24:48.997Z</time></trkpt><trkpt lat="44.8176517" lon="8.292805"><ele>188.66666666666669</ele><time>2026-04-12T13:24:49.999Z</time></trkpt><trkpt lat="44.8176533" lon="8.2929233"><ele>190.0</ele><time>2026-04-12T13:24:51Z</time></trkpt><trkpt lat="44.817655" lon="8.293035"><ele>191.33333333333334</ele><time>2026-04-12T13:24:52.001Z</time></trkpt><trkpt lat="44.8176633" lon="8.29314"><ele>192.66666666666669</ele><time>2026-04-12T13:24:53Z</time></trkpt><trkpt lat="44.8176717" lon="8.293245"><ele>194.0</ele><time>2026-04-12T13:24:53.998Z</time></trkpt><trkpt lat="44.8176717" lon="8.2933467"><ele>193.83333333333334</ele><time>2026-04-12T13:24:54.996Z</time></trkpt><trkpt lat="44.8176733" lon="8.2934483"><ele>193.66666666666669</ele><time>2026-04-12T13:24:55.996Z</time></trkpt><trkpt lat="44.8176767" lon="8.2935383"><ele>193.5</ele><time>2026-04-12T13:24:57.001Z</time></trkpt><trkpt lat="44.81768" lon="8.2936283"><ele>193.33333333333331</ele><time>2026-04-12T13:24:57.997Z</time></trkpt><trkpt lat="44.817655" lon="8.2937833"><ele>193.16666666666666</ele><time>2026-04-12T13:24:59.993Z</time></trkpt><trkpt lat="44.8176133" lon="8.293865"><ele>193.0</ele><time>2026-04-12T13:25:03.994Z</time></trkpt><trkpt lat="44.8176017" lon="8.2937217"><ele>193.0</ele><time>2026-04-12T13:25:08.997Z</time></trkpt><trkpt lat="44.8176167" lon="8.293625"><ele>193.0</ele><time>2026-04-12T13:25:09.997Z</time></trkpt><trkpt lat="44.8176333" lon="8.2935233"><ele>193.0</ele><time>2026-04-12T13:25:10.994Z</time></trkpt><trkpt lat="44.8176567" lon="8.2934067"><ele>193.0</ele><time>2026-04-12T13:25:11.997Z</time></trkpt><trkpt lat="44.8177167" lon="8.2932533"><ele>193.0</ele><time>2026-04-12T13:25:12.998Z</time></trkpt><trkpt lat="44.817895" lon="8.2930683"><ele>187.5</ele><time>2026-04-12T13:25:13.999Z</time></trkpt><trkpt lat="44.8180033" lon="8.2928917"><ele>182.0</ele><time>2026-04-12T13:25:14.999Z</time></trkpt><trkpt lat="44.81808" lon="8.2927467"><ele>176.5</ele><time>2026-04-12T13:25:15.996Z</time></trkpt><trkpt lat="44.8181333" lon="8.2925967"><ele>171.0</ele><time>2026-04-12T13:25:16.995Z</time></trkpt><trkpt lat="44.8181783" lon="8.2924483"><ele>171.0</ele><time>2026-04-12T13:25:17.994Z</time></trkpt><trkpt lat="44.8181783" lon="8.2922933"><ele>171.0</ele><time>2026-04-12T13:25:18.998Z</time></trkpt><trkpt lat="44.8181433" lon="8.2921283"><ele>171.0</ele><time>2026-04-12T13:25:19.995Z</time></trkpt><trkpt lat="44.8181033" lon="8.291965"><ele>171.0</ele><time>2026-04-12T13:25:20.997Z</time></trkpt><trkpt lat="44.8180567" lon="8.291795"><ele>169.5</ele><time>2026-04-12T13:25:21.997Z</time></trkpt><trkpt lat="44.8180033" lon="8.2916517"><ele>168.0</ele><time>2026-04-12T13:25:22.999Z</time></trkpt><trkpt lat="44.8179267" lon="8.2915133"><ele>166.5</ele><time>2026-04-12T13:25:23.994Z</time></trkpt><trkpt lat="44.8178533" lon="8.2913767"><ele>165.0</ele><time>2026-04-12T13:25:24.996Z</time></trkpt><trkpt lat="44.8177733" lon="8.2912633"><ele>164.0</ele><time>2026-04-12T13:25:25.994Z</time></trkpt><trkpt lat="44.817715" lon="8.2911633"><ele>163.0</ele><time>2026-04-12T13:25:26.995Z</time></trkpt><trkpt lat="44.81766" lon="8.2910717"><ele>162.0</ele><time>2026-04-12T13:25:27.997Z</time></trkpt><trkpt lat="44.8176117" lon="8.2909967"><ele>161.0</ele><time>2026-04-12T13:25:28.994Z</time></trkpt><trkpt lat="44.8176517" lon="8.2908817"><ele>160.0</ele><time>2026-04-12T13:25:30.997Z</time></trkpt><trkpt lat="44.8177833" lon="8.290945"><ele>160.0</ele><time>2026-04-12T13:25:32.996Z</time></trkpt><trkpt lat="44.8178567" lon="8.2910133"><ele>160.0</ele><time>2026-04-12T13:25:34Z</time></trkpt><trkpt lat="44.8179367" lon="8.2911167"><ele>160.0</ele><time>2026-04-12T13:25:34.997Z</time></trkpt><trkpt lat="44.818025" lon="8.2912483"><ele>160.0</ele><time>2026-04-12T13:25:35.998Z</time></trkpt><trkpt lat="44.8181133" lon="8.2913833"><ele>161.25</ele><time>2026-04-12T13:25:36.998Z</time></trkpt><trkpt lat="44.8181967" lon="8.2915267"><ele>162.5</ele><time>2026-04-12T13:25:37.998Z</time></trkpt><trkpt lat="44.8182817" lon="8.2916783"><ele>163.75</ele><time>2026-04-12T13:25:38.998Z</time></trkpt><trkpt lat="44.8183583" lon="8.2918367"><ele>165.0</ele><time>2026-04-12T13:25:39.999Z</time></trkpt><trkpt lat="44.818435" lon="8.2919983"><ele>160.5</ele><time>2026-04-12T13:25:40.991Z</time></trkpt><trkpt lat="44.8185033" lon="8.2921633"><ele>156.0</ele><time>2026-04-12T13:25:41.996Z</time></trkpt><trkpt lat="44.81857" lon="8.2923417"><ele>151.5</ele><time>2026-04-12T13:25:42.999Z</time></trkpt><trkpt lat="44.8186333" lon="8.2925333"><ele>147.0</ele><time>2026-04-12T13:25:43.996Z</time></trkpt><trkpt lat="44.8186967" lon="8.2927317"><ele>147.0</ele><time>2026-04-12T13:25:45.005Z</time></trkpt><trkpt lat="44.8187567" lon="8.2929383"><ele>147.0</ele><time>2026-04-12T13:25:45.999Z</time></trkpt><trkpt lat="44.8188183" lon="8.293145"><ele>147.0</ele><time>2026-04-12T13:25:47.001Z</time></trkpt><trkpt lat="44.8188833" lon="8.2933517"><ele>148.33333333333334</ele><time>2026-04-12T13:25:47.997Z</time></trkpt><trkpt lat="44.8189467" lon="8.2935583"><ele>149.66666666666669</ele><time>2026-04-12T13:25:48.996Z</time></trkpt><trkpt lat="44.819015" lon="8.2937633"><ele>151.0</ele><time>2026-04-12T13:25:49.994Z</time></trkpt><trkpt lat="44.8190983" lon="8.2939767"><ele>152.66666666666669</ele><time>2026-04-12T13:25:50.992Z</time></trkpt><trkpt lat="44.8191617" lon="8.294175"><ele>154.33333333333334</ele><time>2026-04-12T13:25:51.998Z</time></trkpt><trkpt lat="44.8192267" lon="8.294375"><ele>156.0</ele><time>2026-04-12T13:25:53.001Z</time></trkpt><trkpt lat="44.8192867" lon="8.294565"><ele>154.8</ele><time>2026-04-12T13:25:53.995Z</time></trkpt><trkpt lat="44.8193367" lon="8.29473"><ele>153.6</ele><time>2026-04-12T13:25:54.995Z</time></trkpt><trkpt lat="44.8193917" lon="8.2948667"><ele>152.4</ele><time>2026-04-12T13:25:55.996Z</time></trkpt><trkpt lat="44.81946" lon="8.2949417"><ele>151.2</ele><time>2026-04-12T13:25:56.999Z</time></trkpt><trkpt lat="44.819535" lon="8.2950017"><ele>150.0</ele><time>2026-04-12T13:25:57.996Z</time></trkpt><trkpt lat="44.819615" lon="8.295035"><ele>150.0</ele><time>2026-04-12T13:25:58.995Z</time></trkpt><trkpt lat="44.8197433" lon="8.29497"><ele>150.0</ele><time>2026-04-12T13:25:59.995Z</time></trkpt><trkpt lat="44.8198733" lon="8.2948883"><ele>150.0</ele><time>2026-04-12T13:26:01Z</time></trkpt><trkpt lat="44.820015" lon="8.2948167"><ele>150.0</ele><time>2026-04-12T13:26:01.994Z</time></trkpt><trkpt lat="44.8201567" lon="8.29474"><ele>148.0</ele><time>2026-04-12T13:26:02.994Z</time></trkpt><trkpt lat="44.8203" lon="8.29466"><ele>146.0</ele><time>2026-04-12T13:26:03.995Z</time></trkpt><trkpt lat="44.82044" lon="8.2945867"><ele>144.0</ele><time>2026-04-12T13:26:04.991Z</time></trkpt><trkpt lat="44.820585" lon="8.2945117"><ele>144.0</ele><time>2026-04-12T13:26:05.994Z</time></trkpt><trkpt lat="44.8207283" lon="8.294445"><ele>144.0</ele><time>2026-04-12T13:26:06.999Z</time></trkpt><trkpt lat="44.8208683" lon="8.2943817"><ele>144.0</ele><time>2026-04-12T13:26:07.996Z</time></trkpt><trkpt lat="44.8210083" lon="8.2943267"><ele>144.0</ele><time>2026-04-12T13:26:09.001Z</time></trkpt><trkpt lat="44.82115" lon="8.2942733"><ele>143.75</ele><time>2026-04-12T13:26:09.996Z</time></trkpt><trkpt lat="44.8212933" lon="8.2942083"><ele>143.5</ele><time>2026-04-12T13:26:10.993Z</time></trkpt><trkpt lat="44.8214317" lon="8.294145"><ele>143.25</ele><time>2026-04-12T13:26:11.994Z</time></trkpt><trkpt lat="44.8215667" lon="8.294095"><ele>143.0</ele><time>2026-04-12T13:26:12.998Z</time></trkpt><trkpt lat="44.8217067" lon="8.2940617"><ele>143.33333333333331</ele><time>2026-04-12T13:26:13.997Z</time></trkpt><trkpt lat="44.821855" lon="8.2940333"><ele>143.66666666666666</ele><time>2026-04-12T13:26:14.997Z</time></trkpt><trkpt lat="44.8220067" lon="8.2940083"><ele>144.0</ele><time>2026-04-12T13:26:15.991Z</time></trkpt><trkpt lat="44.8221633" lon="8.2939767"><ele>144.0</ele><time>2026-04-12T13:26:17.001Z</time></trkpt><trkpt lat="44.8223183" lon="8.2939467"><ele>144.0</ele><time>2026-04-12T13:26:17.995Z</time></trkpt><trkpt lat="44.8224767" lon="8.2939117"><ele>144.0</ele><time>2026-04-12T13:26:18.998Z</time></trkpt><trkpt lat="44.8226267" lon="8.2938917"><ele>144.2</ele><time>2026-04-12T13:26:19.996Z</time></trkpt><trkpt lat="44.822755" lon="8.2938833"><ele>144.4</ele><time>2026-04-12T13:26:20.996Z</time></trkpt><trkpt lat="44.8228633" lon="8.2938733"><ele>144.6</ele><time>2026-04-12T13:26:21.999Z</time></trkpt><trkpt lat="44.8229383" lon="8.293845"><ele>144.8</ele><time>2026-04-12T13:26:22.997Z</time></trkpt><trkpt lat="44.8230017" lon="8.293795"><ele>145.0</ele><time>2026-04-12T13:26:23.997Z</time></trkpt><trkpt lat="44.8230467" lon="8.2937133"><ele>145.0</ele><time>2026-04-12T13:26:24.999Z</time></trkpt><trkpt lat="44.8230683" lon="8.2936167"><ele>145.0</ele><time>2026-04-12T13:26:25.995Z</time></trkpt><trkpt lat="44.8230683" lon="8.2934917"><ele>145.0</ele><time>2026-04-12T13:26:26.997Z</time></trkpt><trkpt lat="44.8230583" lon="8.29333"><ele>145.0</ele><time>2026-04-12T13:26:27.995Z</time></trkpt><trkpt lat="44.8230033" lon="8.2931133"><ele>145.0</ele><time>2026-04-12T13:26:28.996Z</time></trkpt><trkpt lat="44.8229867" lon="8.2929"><ele>145.0</ele><time>2026-04-12T13:26:29.997Z</time></trkpt><trkpt lat="44.822985" lon="8.2926833"><ele>145.0</ele><time>2026-04-12T13:26:30.998Z</time></trkpt><trkpt lat="44.823" lon="8.2924517"><ele>145.0</ele><time>2026-04-12T13:26:31.997Z</time></trkpt><trkpt lat="44.8230283" lon="8.292225"><ele>145.0</ele><time>2026-04-12T13:26:32.998Z</time></trkpt><trkpt lat="44.8230617" lon="8.2919983"><ele>145.0</ele><time>2026-04-12T13:26:33.999Z</time></trkpt><trkpt lat="44.823105" lon="8.29178"><ele>145.0</ele><time>2026-04-12T13:26:34.996Z</time></trkpt><trkpt lat="44.8231483" lon="8.2915667"><ele>145.33333333333334</ele><time>2026-04-12T13:26:35.997Z</time></trkpt><trkpt lat="44.8231867" lon="8.2913583"><ele>145.66666666666666</ele><time>2026-04-12T13:26:36.993Z</time></trkpt><trkpt lat="44.82323" lon="8.2911483"><ele>146.0</ele><time>2026-04-12T13:26:37.992Z</time></trkpt><trkpt lat="44.8232683" lon="8.29094"><ele>146.0</ele><time>2026-04-12T13:26:38.991Z</time></trkpt><trkpt lat="44.82331" lon="8.2907283"><ele>146.0</ele><time>2026-04-12T13:26:39.995Z</time></trkpt><trkpt lat="44.8233483" lon="8.290515"><ele>146.0</ele><time>2026-04-12T13:26:40.995Z</time></trkpt><trkpt lat="44.82338" lon="8.290295"><ele>145.33333333333331</ele><time>2026-04-12T13:26:42.001Z</time></trkpt><trkpt lat="44.8234017" lon="8.2900783"><ele>144.66666666666666</ele><time>2026-04-12T13:26:42.994Z</time></trkpt><trkpt lat="44.8234183" lon="8.28986"><ele>144.0</ele><time>2026-04-12T13:26:43.994Z</time></trkpt><trkpt lat="44.8234333" lon="8.2896433"><ele>144.0</ele><time>2026-04-12T13:26:44.994Z</time></trkpt><trkpt lat="44.8234383" lon="8.2894233"><ele>144.0</ele><time>2026-04-12T13:26:45.993Z</time></trkpt><trkpt lat="44.823445" lon="8.2892083"><ele>144.0</ele><time>2026-04-12T13:26:46.995Z</time></trkpt><trkpt lat="44.8234517" lon="8.2889917"><ele>144.0</ele><time>2026-04-12T13:26:47.993Z</time></trkpt><trkpt lat="44.8234617" lon="8.2887733"><ele>144.0</ele><time>2026-04-12T13:26:48.998Z</time></trkpt><trkpt lat="44.8234683" lon="8.2885533"><ele>144.0</ele><time>2026-04-12T13:26:49.994Z</time></trkpt><trkpt lat="44.8234667" lon="8.2883333"><ele>144.0</ele><time>2026-04-12T13:26:50.994Z</time></trkpt><trkpt lat="44.8234583" lon="8.2881217"><ele>144.0</ele><time>2026-04-12T13:26:52.002Z</time></trkpt><trkpt lat="44.82344" lon="8.2879333"><ele>144.0</ele><time>2026-04-12T13:26:52.997Z</time></trkpt><trkpt lat="44.8234117" lon="8.2877683"><ele>144.0</ele><time>2026-04-12T13:26:53.994Z</time></trkpt><trkpt lat="44.8233867" lon="8.287625"><ele>144.16666666666666</ele><time>2026-04-12T13:26:55Z</time></trkpt><trkpt lat="44.8233617" lon="8.2874967"><ele>144.33333333333334</ele><time>2026-04-12T13:26:55.993Z</time></trkpt><trkpt lat="44.8233433" lon="8.2873783"><ele>144.5</ele><time>2026-04-12T13:26:56.997Z</time></trkpt><trkpt lat="44.823325" lon="8.2872717"><ele>144.66666666666669</ele><time>2026-04-12T13:26:57.995Z</time></trkpt><trkpt lat="44.8233067" lon="8.2871733"><ele>144.83333333333334</ele><time>2026-04-12T13:26:58.998Z</time></trkpt><trkpt lat="44.8232867" lon="8.2870783"><ele>145.0</ele><time>2026-04-12T13:26:59.995Z</time></trkpt><trkpt lat="44.8232683" lon="8.2869783"><ele>145.0</ele><time>2026-04-12T13:27:00.998Z</time></trkpt><trkpt lat="44.8232483" lon="8.2868733"><ele>145.0</ele><time>2026-04-12T13:27:01.999Z</time></trkpt><trkpt lat="44.8232267" lon="8.28677"><ele>145.0</ele><time>2026-04-12T13:27:02.996Z</time></trkpt><trkpt lat="44.8232" lon="8.2866683"><ele>145.0</ele><time>2026-04-12T13:27:04Z</time></trkpt><trkpt lat="44.8231717" lon="8.2865617"><ele>145.0</ele><time>2026-04-12T13:27:04.997Z</time></trkpt><trkpt lat="44.8231417" lon="8.2864483"><ele>145.0</ele><time>2026-04-12T13:27:05.994Z</time></trkpt><trkpt lat="44.82311" lon="8.28632"><ele>145.0</ele><time>2026-04-12T13:27:06.996Z</time></trkpt><trkpt lat="44.8230717" lon="8.286175"><ele>145.0</ele><time>2026-04-12T13:27:07.998Z</time></trkpt><trkpt lat="44.8230317" lon="8.2860117"><ele>145.0</ele><time>2026-04-12T13:27:09Z</time></trkpt><trkpt lat="44.8229917" lon="8.2858433"><ele>145.0</ele><time>2026-04-12T13:27:09.995Z</time></trkpt><trkpt lat="44.822955" lon="8.28567"><ele>144.75</ele><time>2026-04-12T13:27:10.994Z</time></trkpt><trkpt lat="44.8229133" lon="8.2854933"><ele>144.5</ele><time>2026-04-12T13:27:11.995Z</time></trkpt><trkpt lat="44.8228683" lon="8.2853067"><ele>144.25</ele><time>2026-04-12T13:27:12.998Z</time></trkpt><trkpt lat="44.8228233" lon="8.2851217"><ele>144.0</ele><time>2026-04-12T13:27:13.998Z</time></trkpt><trkpt lat="44.8227817" lon="8.2849417"><ele>144.0</ele><time>2026-04-12T13:27:14.994Z</time></trkpt><trkpt lat="44.82274" lon="8.2847667"><ele>144.0</ele><time>2026-04-12T13:27:15.996Z</time></trkpt><trkpt lat="44.822695" lon="8.284605"><ele>144.0</ele><time>2026-04-12T13:27:17Z</time></trkpt><trkpt lat="44.822655" lon="8.2844483"><ele>144.0</ele><time>2026-04-12T13:27:17.996Z</time></trkpt><trkpt lat="44.8226183" lon="8.284295"><ele>144.25</ele><time>2026-04-12T13:27:18.993Z</time></trkpt><trkpt lat="44.822585" lon="8.2841433"><ele>144.5</ele><time>2026-04-12T13:27:19.994Z</time></trkpt><trkpt lat="44.822545" lon="8.2839817"><ele>144.75</ele><time>2026-04-12T13:27:21.001Z</time></trkpt><trkpt lat="44.8224983" lon="8.28381"><ele>145.0</ele><time>2026-04-12T13:27:21.997Z</time></trkpt><trkpt lat="44.8224383" lon="8.2836317"><ele>145.33333333333334</ele><time>2026-04-12T13:27:22.992Z</time></trkpt><trkpt lat="44.8223717" lon="8.28344"><ele>145.66666666666666</ele><time>2026-04-12T13:27:23.997Z</time></trkpt><trkpt lat="44.8222933" lon="8.28324"><ele>146.0</ele><time>2026-04-12T13:27:24.998Z</time></trkpt><trkpt lat="44.8222067" lon="8.283045"><ele>146.0</ele><time>2026-04-12T13:27:25.993Z</time></trkpt><trkpt lat="44.822115" lon="8.2828583"><ele>146.0</ele><time>2026-04-12T13:27:26.997Z</time></trkpt><trkpt lat="44.8220167" lon="8.28268"><ele>146.0</ele><time>2026-04-12T13:27:27.996Z</time></trkpt><trkpt lat="44.8219217" lon="8.2825133"><ele>146.0</ele><time>2026-04-12T13:27:28.995Z</time></trkpt><trkpt lat="44.8218233" lon="8.2823533"><ele>146.0</ele><time>2026-04-12T13:27:29.993Z</time></trkpt><trkpt lat="44.82172" lon="8.2821917"><ele>146.0</ele><time>2026-04-12T13:27:30.993Z</time></trkpt><trkpt lat="44.821615" lon="8.2820317"><ele>145.0</ele><time>2026-04-12T13:27:31.994Z</time></trkpt><trkpt lat="44.8215017" lon="8.2818667"><ele>144.0</ele><time>2026-04-12T13:27:32.997Z</time></trkpt><trkpt lat="44.8213933" lon="8.2817"><ele>143.0</ele><time>2026-04-12T13:27:33.993Z</time></trkpt><trkpt lat="44.8212833" lon="8.28153"><ele>143.33333333333331</ele><time>2026-04-12T13:27:34.995Z</time></trkpt><trkpt lat="44.8211767" lon="8.28136"><ele>143.66666666666666</ele><time>2026-04-12T13:27:35.996Z</time></trkpt><trkpt lat="44.821065" lon="8.2811933"><ele>144.0</ele><time>2026-04-12T13:27:36.991Z</time></trkpt><trkpt lat="44.820955" lon="8.28103"><ele>144.0</ele><time>2026-04-12T13:27:37.993Z</time></trkpt><trkpt lat="44.82085" lon="8.2808683"><ele>144.0</ele><time>2026-04-12T13:27:38.995Z</time></trkpt><trkpt lat="44.820745" lon="8.280705"><ele>144.0</ele><time>2026-04-12T13:27:39.994Z</time></trkpt><trkpt lat="44.82064" lon="8.2805417"><ele>144.66666666666666</ele><time>2026-04-12T13:27:40.995Z</time></trkpt><trkpt lat="44.82054" lon="8.2803767"><ele>145.33333333333331</ele><time>2026-04-12T13:27:42.002Z</time></trkpt><trkpt lat="44.8204417" lon="8.280205"><ele>146.0</ele><time>2026-04-12T13:27:42.997Z</time></trkpt><trkpt lat="44.8203467" lon="8.2800217"><ele>146.0</ele><time>2026-04-12T13:27:43.997Z</time></trkpt><trkpt lat="44.8202583" lon="8.2798333"><ele>146.0</ele><time>2026-04-12T13:27:44.998Z</time></trkpt><trkpt lat="44.820175" lon="8.2796317"><ele>146.0</ele><time>2026-04-12T13:27:45.995Z</time></trkpt><trkpt lat="44.8200917" lon="8.27942"><ele>145.33333333333331</ele><time>2026-04-12T13:27:46.996Z</time></trkpt><trkpt lat="44.8200083" lon="8.2792017"><ele>144.66666666666666</ele><time>2026-04-12T13:27:47.999Z</time></trkpt><trkpt lat="44.819925" lon="8.278975"><ele>144.0</ele><time>2026-04-12T13:27:48.994Z</time></trkpt><trkpt lat="44.8198433" lon="8.2787367"><ele>144.0</ele><time>2026-04-12T13:27:49.996Z</time></trkpt><trkpt lat="44.81976" lon="8.2784967"><ele>144.0</ele><time>2026-04-12T13:27:50.996Z</time></trkpt><trkpt lat="44.8196783" lon="8.2782667"><ele>144.0</ele><time>2026-04-12T13:27:51.993Z</time></trkpt><trkpt lat="44.8195967" lon="8.2780383"><ele>144.66666666666666</ele><time>2026-04-12T13:27:52.994Z</time></trkpt><trkpt lat="44.81952" lon="8.2778067"><ele>145.33333333333331</ele><time>2026-04-12T13:27:53.996Z</time></trkpt><trkpt lat="44.819445" lon="8.2775783"><ele>146.0</ele><time>2026-04-12T13:27:54.997Z</time></trkpt><trkpt lat="44.8193667" lon="8.2773533"><ele>145.0</ele><time>2026-04-12T13:27:55.994Z</time></trkpt><trkpt lat="44.8192867" lon="8.2771267"><ele>144.0</ele><time>2026-04-12T13:27:56.997Z</time></trkpt><trkpt lat="44.81921" lon="8.276905"><ele>143.0</ele><time>2026-04-12T13:27:57.999Z</time></trkpt><trkpt lat="44.8191317" lon="8.276695"><ele>143.0</ele><time>2026-04-12T13:27:58.996Z</time></trkpt><trkpt lat="44.8190583" lon="8.276485"><ele>143.0</ele><time>2026-04-12T13:27:59.997Z</time></trkpt><trkpt lat="44.818985" lon="8.2762767"><ele>143.0</ele><time>2026-04-12T13:28:00.994Z</time></trkpt><trkpt lat="44.8189083" lon="8.2760617"><ele>143.33333333333331</ele><time>2026-04-12T13:28:01.999Z</time></trkpt><trkpt lat="44.818835" lon="8.2758533"><ele>143.66666666666666</ele><time>2026-04-12T13:28:02.998Z</time></trkpt><trkpt lat="44.81876" lon="8.275645"><ele>144.0</ele><time>2026-04-12T13:28:04Z</time></trkpt><trkpt lat="44.818685" lon="8.27543"><ele>144.0</ele><time>2026-04-12T13:28:04.993Z</time></trkpt><trkpt lat="44.81861" lon="8.2752217"><ele>144.0</ele><time>2026-04-12T13:28:05.998Z</time></trkpt><trkpt lat="44.8185367" lon="8.2750083"><ele>144.0</ele><time>2026-04-12T13:28:06.997Z</time></trkpt><trkpt lat="44.8184617" lon="8.2747967"><ele>145.33333333333334</ele><time>2026-04-12T13:28:07.997Z</time></trkpt><trkpt lat="44.81838" lon="8.2745883"><ele>146.66666666666669</ele><time>2026-04-12T13:28:08.996Z</time></trkpt><trkpt lat="44.8182933" lon="8.2743817"><ele>148.0</ele><time>2026-04-12T13:28:09.992Z</time></trkpt><trkpt lat="44.8182017" lon="8.2741817"><ele>148.0</ele><time>2026-04-12T13:28:10.995Z</time></trkpt><trkpt lat="44.8181" lon="8.2739883"><ele>148.0</ele><time>2026-04-12T13:28:11.995Z</time></trkpt><trkpt lat="44.81799" lon="8.27381"><ele>148.0</ele><time>2026-04-12T13:28:12.993Z</time></trkpt><trkpt lat="44.8178767" lon="8.273645"><ele>148.0</ele><time>2026-04-12T13:28:13.995Z</time></trkpt><trkpt lat="44.8177683" lon="8.2734883"><ele>148.0</ele><time>2026-04-12T13:28:14.996Z</time></trkpt><trkpt lat="44.81766" lon="8.2733283"><ele>148.0</ele><time>2026-04-12T13:28:15.996Z</time></trkpt><trkpt lat="44.817555" lon="8.2731683"><ele>147.33333333333334</ele><time>2026-04-12T13:28:16.995Z</time></trkpt><trkpt lat="44.8174583" lon="8.2730017"><ele>146.66666666666666</ele><time>2026-04-12T13:28:17.995Z</time></trkpt><trkpt lat="44.8173733" lon="8.2728217"><ele>146.0</ele><time>2026-04-12T13:28:18.995Z</time></trkpt><trkpt lat="44.8172983" lon="8.2726283"><ele>146.0</ele><time>2026-04-12T13:28:19.995Z</time></trkpt><trkpt lat="44.8172333" lon="8.2724267"><ele>146.0</ele><time>2026-04-12T13:28:20.999Z</time></trkpt><trkpt lat="44.8171883" lon="8.2722167"><ele>146.0</ele><time>2026-04-12T13:28:21.993Z</time></trkpt><trkpt lat="44.8171617" lon="8.2719983"><ele>146.0</ele><time>2026-04-12T13:28:22.996Z</time></trkpt><trkpt lat="44.81714" lon="8.271765"><ele>146.0</ele><time>2026-04-12T13:28:23.999Z</time></trkpt><trkpt lat="44.817125" lon="8.2714917"><ele>146.0</ele><time>2026-04-12T13:28:24.996Z</time></trkpt><trkpt lat="44.8171033" lon="8.2711733"><ele>146.5</ele><time>2026-04-12T13:28:25.994Z</time></trkpt><trkpt lat="44.8170833" lon="8.2708067"><ele>147.0</ele><time>2026-04-12T13:28:26.999Z</time></trkpt><trkpt lat="44.8170683" lon="8.2703883"><ele>147.0</ele><time>2026-04-12T13:28:27.995Z</time></trkpt><trkpt lat="44.8170517" lon="8.269945"><ele>147.0</ele><time>2026-04-12T13:28:28.998Z</time></trkpt><trkpt lat="44.8170417" lon="8.2695117"><ele>147.0</ele><time>2026-04-12T13:28:29.996Z</time></trkpt><trkpt lat="44.8170217" lon="8.269095"><ele>147.0</ele><time>2026-04-12T13:28:30.996Z</time></trkpt><trkpt lat="44.817" lon="8.2686883"><ele>147.0</ele><time>2026-04-12T13:28:31.995Z</time></trkpt><trkpt lat="44.81698" lon="8.2683017"><ele>147.0</ele><time>2026-04-12T13:28:32.997Z</time></trkpt><trkpt lat="44.8169633" lon="8.26793"><ele>147.0</ele><time>2026-04-12T13:28:33.998Z</time></trkpt><trkpt lat="44.8169467" lon="8.2675717"><ele>147.0</ele><time>2026-04-12T13:28:34.996Z</time></trkpt><trkpt lat="44.81693" lon="8.2672233"><ele>147.0</ele><time>2026-04-12T13:28:36.006Z</time></trkpt><trkpt lat="44.8169133" lon="8.2668833"><ele>147.0</ele><time>2026-04-12T13:28:36.997Z</time></trkpt><trkpt lat="44.816895" lon="8.26655"><ele>148.0</ele><time>2026-04-12T13:28:38.007Z</time></trkpt><trkpt lat="44.8168767" lon="8.2662217"><ele>149.0</ele><time>2026-04-12T13:28:38.995Z</time></trkpt><trkpt lat="44.81686" lon="8.2659017"><ele>149.66666666666666</ele><time>2026-04-12T13:28:39.994Z</time></trkpt><trkpt lat="44.8168433" lon="8.2655883"><ele>150.33333333333334</ele><time>2026-04-12T13:28:40.996Z</time></trkpt><trkpt lat="44.8168283" lon="8.2652917"><ele>151.0</ele><time>2026-04-12T13:28:41.996Z</time></trkpt><trkpt lat="44.8168133" lon="8.2650067"><ele>149.66666666666669</ele><time>2026-04-12T13:28:43Z</time></trkpt><trkpt lat="44.8168" lon="8.264735"><ele>148.33333333333334</ele><time>2026-04-12T13:28:43.994Z</time></trkpt><trkpt lat="44.8167867" lon="8.2644683"><ele>147.0</ele><time>2026-04-12T13:28:44.996Z</time></trkpt><trkpt lat="44.8167733" lon="8.264205"><ele>147.0</ele><time>2026-04-12T13:28:45.997Z</time></trkpt><trkpt lat="44.8167633" lon="8.2639383"><ele>147.0</ele><time>2026-04-12T13:28:46.997Z</time></trkpt><trkpt lat="44.8167517" lon="8.263675"><ele>147.0</ele><time>2026-04-12T13:28:48Z</time></trkpt><trkpt lat="44.81674" lon="8.263415"><ele>147.0</ele><time>2026-04-12T13:28:48.997Z</time></trkpt><trkpt lat="44.8167283" lon="8.2631467"><ele>147.0</ele><time>2026-04-12T13:28:49.995Z</time></trkpt><trkpt lat="44.8167183" lon="8.26287"><ele>147.0</ele><time>2026-04-12T13:28:51.001Z</time></trkpt><trkpt lat="44.8167067" lon="8.26259"><ele>147.33333333333334</ele><time>2026-04-12T13:28:51.998Z</time></trkpt><trkpt lat="44.8166933" lon="8.2623083"><ele>147.66666666666669</ele><time>2026-04-12T13:28:52.998Z</time></trkpt><trkpt lat="44.8166817" lon="8.262025"><ele>148.0</ele><time>2026-04-12T13:28:53.997Z</time></trkpt><trkpt lat="44.8166683" lon="8.26174"><ele>148.33333333333334</ele><time>2026-04-12T13:28:54.998Z</time></trkpt><trkpt lat="44.8166533" lon="8.261455"><ele>148.66666666666666</ele><time>2026-04-12T13:28:55.997Z</time></trkpt><trkpt lat="44.8166383" lon="8.2611683"><ele>149.0</ele><time>2026-04-12T13:28:56.997Z</time></trkpt><trkpt lat="44.8166233" lon="8.2608833"><ele>150.33333333333331</ele><time>2026-04-12T13:28:57.998Z</time></trkpt><trkpt lat="44.8166083" lon="8.2605967"><ele>151.66666666666666</ele><time>2026-04-12T13:28:58.995Z</time></trkpt><trkpt lat="44.816595" lon="8.260315"><ele>153.0</ele><time>2026-04-12T13:28:59.998Z</time></trkpt><trkpt lat="44.8165817" lon="8.26003"><ele>151.66666666666666</ele><time>2026-04-12T13:29:00.996Z</time></trkpt><trkpt lat="44.81657" lon="8.2597567"><ele>150.33333333333331</ele><time>2026-04-12T13:29:01.996Z</time></trkpt><trkpt lat="44.816555" lon="8.259495"><ele>149.0</ele><time>2026-04-12T13:29:02.996Z</time></trkpt><trkpt lat="44.8165417" lon="8.2592433"><ele>149.0</ele><time>2026-04-12T13:29:04Z</time></trkpt><trkpt lat="44.816525" lon="8.259"><ele>149.0</ele><time>2026-04-12T13:29:04.997Z</time></trkpt><trkpt lat="44.81651" lon="8.2587633"><ele>149.0</ele><time>2026-04-12T13:29:05.994Z</time></trkpt><trkpt lat="44.8164983" lon="8.258535"><ele>148.66666666666666</ele><time>2026-04-12T13:29:06.996Z</time></trkpt><trkpt lat="44.81649" lon="8.258315"><ele>148.33333333333334</ele><time>2026-04-12T13:29:07.992Z</time></trkpt><trkpt lat="44.81648" lon="8.2580983"><ele>148.0</ele><time>2026-04-12T13:29:08.998Z</time></trkpt><trkpt lat="44.8164717" lon="8.257895"><ele>148.0</ele><time>2026-04-12T13:29:09.993Z</time></trkpt><trkpt lat="44.8164617" lon="8.2576983"><ele>148.0</ele><time>2026-04-12T13:29:10.993Z</time></trkpt><trkpt lat="44.8164533" lon="8.257515"><ele>148.0</ele><time>2026-04-12T13:29:11.993Z</time></trkpt><trkpt lat="44.816445" lon="8.25734"><ele>148.0</ele><time>2026-04-12T13:29:12.996Z</time></trkpt><trkpt lat="44.8164367" lon="8.2571717"><ele>148.20000000000002</ele><time>2026-04-12T13:29:14.001Z</time></trkpt><trkpt lat="44.81643" lon="8.257005"><ele>148.4</ele><time>2026-04-12T13:29:15.002Z</time></trkpt><trkpt lat="44.81642" lon="8.2568467"><ele>148.60000000000002</ele><time>2026-04-12T13:29:15.997Z</time></trkpt><trkpt lat="44.8164117" lon="8.2566967"><ele>148.8</ele><time>2026-04-12T13:29:16.995Z</time></trkpt><trkpt lat="44.816405" lon="8.2565417"><ele>149.0</ele><time>2026-04-12T13:29:17.996Z</time></trkpt><trkpt lat="44.8163983" lon="8.2563867"><ele>149.0</ele><time>2026-04-12T13:29:18.997Z</time></trkpt><trkpt lat="44.8163917" lon="8.2562333"><ele>149.0</ele><time>2026-04-12T13:29:20.001Z</time></trkpt><trkpt lat="44.8163817" lon="8.256075"><ele>149.0</ele><time>2026-04-12T13:29:21.001Z</time></trkpt><trkpt lat="44.816375" lon="8.2559267"><ele>149.0</ele><time>2026-04-12T13:29:21.996Z</time></trkpt><trkpt lat="44.8163667" lon="8.2557983"><ele>149.0</ele><time>2026-04-12T13:29:22.996Z</time></trkpt><trkpt lat="44.8163633" lon="8.2556933"><ele>149.0</ele><time>2026-04-12T13:29:23.996Z</time></trkpt><trkpt lat="44.81639" lon="8.25554"><ele>149.0</ele><time>2026-04-12T13:29:25.992Z</time></trkpt><trkpt lat="44.8164767" lon="8.255435"><ele>149.0</ele><time>2026-04-12T13:29:27.993Z</time></trkpt><trkpt lat="44.8165567" lon="8.2554133"><ele>149.0</ele><time>2026-04-12T13:29:28.994Z</time></trkpt><trkpt lat="44.8166483" lon="8.25539"><ele>149.0</ele><time>2026-04-12T13:29:29.993Z</time></trkpt><trkpt lat="44.8168717" lon="8.2553783"><ele>150.0</ele><time>2026-04-12T13:29:30.995Z</time></trkpt><trkpt lat="44.8170583" lon="8.25536"><ele>151.0</ele><time>2026-04-12T13:29:31.996Z</time></trkpt><trkpt lat="44.8172333" lon="8.25534"><ele>152.0</ele><time>2026-04-12T13:29:32.999Z</time></trkpt><trkpt lat="44.8173867" lon="8.2553283"><ele>152.0</ele><time>2026-04-12T13:29:33.999Z</time></trkpt><trkpt lat="44.8175067" lon="8.2552833"><ele>152.0</ele><time>2026-04-12T13:29:34.996Z</time></trkpt><trkpt lat="44.8175967" lon="8.2552167"><ele>152.0</ele><time>2026-04-12T13:29:36.002Z</time></trkpt><trkpt lat="44.8176683" lon="8.2551083"><ele>152.0</ele><time>2026-04-12T13:29:36.994Z</time></trkpt><trkpt lat="44.8177167" lon="8.2549633"><ele>152.0</ele><time>2026-04-12T13:29:37.997Z</time></trkpt><trkpt lat="44.8177383" lon="8.2547983"><ele>155.2</ele><time>2026-04-12T13:29:38.997Z</time></trkpt><trkpt lat="44.8177567" lon="8.254635"><ele>158.39999999999998</ele><time>2026-04-12T13:29:39.992Z</time></trkpt><trkpt lat="44.8177717" lon="8.254485"><ele>161.60000000000002</ele><time>2026-04-12T13:29:40.993Z</time></trkpt><trkpt lat="44.8177867" lon="8.25433"><ele>164.8</ele><time>2026-04-12T13:29:41.993Z</time></trkpt><trkpt lat="44.8178033" lon="8.2541783"><ele>168.0</ele><time>2026-04-12T13:29:43Z</time></trkpt><trkpt lat="44.81782" lon="8.2540267"><ele>167.8</ele><time>2026-04-12T13:29:43.997Z</time></trkpt><trkpt lat="44.8178383" lon="8.25387"><ele>167.60000000000002</ele><time>2026-04-12T13:29:44.996Z</time></trkpt><trkpt lat="44.8178567" lon="8.25372"><ele>167.39999999999998</ele><time>2026-04-12T13:29:45.995Z</time></trkpt><trkpt lat="44.8178817" lon="8.25358"><ele>167.2</ele><time>2026-04-12T13:29:46.995Z</time></trkpt><trkpt lat="44.8179217" lon="8.2534617"><ele>167.0</ele><time>2026-04-12T13:29:47.995Z</time></trkpt><trkpt lat="44.8179783" lon="8.2533617"><ele>167.0</ele><time>2026-04-12T13:29:48.994Z</time></trkpt><trkpt lat="44.81804" lon="8.253275"><ele>167.0</ele><time>2026-04-12T13:29:49.995Z</time></trkpt><trkpt lat="44.8181267" lon="8.2532317"><ele>167.0</ele><time>2026-04-12T13:29:50.995Z</time></trkpt><trkpt lat="44.8182183" lon="8.2532167"><ele>167.0</ele><time>2026-04-12T13:29:51.995Z</time></trkpt><trkpt lat="44.8183183" lon="8.2532417"><ele>167.0</ele><time>2026-04-12T13:29:52.994Z</time></trkpt><trkpt lat="44.8184133" lon="8.2532667"><ele>169.2</ele><time>2026-04-12T13:29:53.996Z</time></trkpt><trkpt lat="44.818515" lon="8.2533"><ele>171.39999999999998</ele><time>2026-04-12T13:29:54.999Z</time></trkpt><trkpt lat="44.8186133" lon="8.2533283"><ele>173.60000000000002</ele><time>2026-04-12T13:29:56Z</time></trkpt><trkpt lat="44.8187117" lon="8.2533383"><ele>175.8</ele><time>2026-04-12T13:29:56.997Z</time></trkpt><trkpt lat="44.81881" lon="8.2533333"><ele>178.0</ele><time>2026-04-12T13:29:57.995Z</time></trkpt><trkpt lat="44.818905" lon="8.253315"><ele>178.0</ele><time>2026-04-12T13:29:58.997Z</time></trkpt><trkpt lat="44.819" lon="8.2532867"><ele>178.0</ele><time>2026-04-12T13:29:59.994Z</time></trkpt><trkpt lat="44.8190917" lon="8.2532633"><ele>178.0</ele><time>2026-04-12T13:30:00.998Z</time></trkpt><trkpt lat="44.8191867" lon="8.2532483"><ele>178.0</ele><time>2026-04-12T13:30:01.998Z</time></trkpt><trkpt lat="44.819285" lon="8.253225"><ele>178.0</ele><time>2026-04-12T13:30:02.996Z</time></trkpt><trkpt lat="44.819385" lon="8.2531833"><ele>179.2</ele><time>2026-04-12T13:30:03.997Z</time></trkpt><trkpt lat="44.81947" lon="8.2531133"><ele>180.4</ele><time>2026-04-12T13:30:04.994Z</time></trkpt><trkpt lat="44.819545" lon="8.2530183"><ele>181.6</ele><time>2026-04-12T13:30:06.001Z</time></trkpt><trkpt lat="44.8196017" lon="8.2528983"><ele>182.79999999999998</ele><time>2026-04-12T13:30:06.997Z</time></trkpt><trkpt lat="44.81964" lon="8.2527617"><ele>184.0</ele><time>2026-04-12T13:30:07.996Z</time></trkpt><trkpt lat="44.819675" lon="8.2526167"><ele>184.0</ele><time>2026-04-12T13:30:09.004Z</time></trkpt><trkpt lat="44.8197083" lon="8.2524733"><ele>184.0</ele><time>2026-04-12T13:30:09.998Z</time></trkpt><trkpt lat="44.81974" lon="8.2523383"><ele>184.0</ele><time>2026-04-12T13:30:10.999Z</time></trkpt><trkpt lat="44.81977" lon="8.252215"><ele>184.0</ele><time>2026-04-12T13:30:11.995Z</time></trkpt><trkpt lat="44.8197983" lon="8.252105"><ele>184.0</ele><time>2026-04-12T13:30:12.997Z</time></trkpt><trkpt lat="44.8198283" lon="8.2520167"><ele>183.33333333333334</ele><time>2026-04-12T13:30:13.996Z</time></trkpt><trkpt lat="44.8199217" lon="8.2519317"><ele>182.66666666666669</ele><time>2026-04-12T13:30:15.997Z</time></trkpt><trkpt lat="44.8199917" lon="8.251975"><ele>182.0</ele><time>2026-04-12T13:30:16.998Z</time></trkpt><trkpt lat="44.820055" lon="8.2520183"><ele>181.33333333333334</ele><time>2026-04-12T13:30:17.994Z</time></trkpt><trkpt lat="44.82012" lon="8.2520917"><ele>180.66666666666666</ele><time>2026-04-12T13:30:18.994Z</time></trkpt><trkpt lat="44.8201933" lon="8.252175"><ele>180.0</ele><time>2026-04-12T13:30:20Z</time></trkpt><trkpt lat="44.8202767" lon="8.2522617"><ele>181.8</ele><time>2026-04-12T13:30:20.998Z</time></trkpt><trkpt lat="44.8203583" lon="8.2523483"><ele>183.6</ele><time>2026-04-12T13:30:21.999Z</time></trkpt><trkpt lat="44.8204383" lon="8.25244"><ele>185.39999999999998</ele><time>2026-04-12T13:30:22.995Z</time></trkpt><trkpt lat="44.8205067" lon="8.2525533"><ele>187.2</ele><time>2026-04-12T13:30:23.996Z</time></trkpt><trkpt lat="44.8205683" lon="8.2526817"><ele>189.0</ele><time>2026-04-12T13:30:25Z</time></trkpt><trkpt lat="44.820625" lon="8.2528133"><ele>189.0</ele><time>2026-04-12T13:30:26Z</time></trkpt><trkpt lat="44.8206783" lon="8.2529467"><ele>189.0</ele><time>2026-04-12T13:30:26.992Z</time></trkpt><trkpt lat="44.8207367" lon="8.2530767"><ele>189.0</ele><time>2026-04-12T13:30:28Z</time></trkpt><trkpt lat="44.8208067" lon="8.2532"><ele>189.0</ele><time>2026-04-12T13:30:28.995Z</time></trkpt><trkpt lat="44.8208683" lon="8.2533267"><ele>189.0</ele><time>2026-04-12T13:30:29.996Z</time></trkpt><trkpt lat="44.82091" lon="8.2534467"><ele>190.83333333333334</ele><time>2026-04-12T13:30:30.993Z</time></trkpt><trkpt lat="44.8209467" lon="8.2535717"><ele>192.66666666666669</ele><time>2026-04-12T13:30:31.997Z</time></trkpt><trkpt lat="44.8209717" lon="8.2536933"><ele>194.5</ele><time>2026-04-12T13:30:33Z</time></trkpt><trkpt lat="44.820995" lon="8.2538067"><ele>196.33333333333334</ele><time>2026-04-12T13:30:34.004Z</time></trkpt><trkpt lat="44.8210217" lon="8.2539083"><ele>198.16666666666669</ele><time>2026-04-12T13:30:34.994Z</time></trkpt><trkpt lat="44.8210517" lon="8.2539967"><ele>200.0</ele><time>2026-04-12T13:30:35.994Z</time></trkpt><trkpt lat="44.8211117" lon="8.25414"><ele>200.33333333333334</ele><time>2026-04-12T13:30:37.997Z</time></trkpt><trkpt lat="44.8212117" lon="8.25409"><ele>200.66666666666669</ele><time>2026-04-12T13:30:39.999Z</time></trkpt><trkpt lat="44.8212233" lon="8.2540017"><ele>201.0</ele><time>2026-04-12T13:30:40.999Z</time></trkpt><trkpt lat="44.821235" lon="8.2539083"><ele>201.33333333333331</ele><time>2026-04-12T13:30:41.999Z</time></trkpt><trkpt lat="44.8212517" lon="8.253805"><ele>201.66666666666666</ele><time>2026-04-12T13:30:42.996Z</time></trkpt><trkpt lat="44.8212833" lon="8.25369"><ele>202.0</ele><time>2026-04-12T13:30:43.994Z</time></trkpt><trkpt lat="44.82133" lon="8.253575"><ele>202.0</ele><time>2026-04-12T13:30:44.996Z</time></trkpt><trkpt lat="44.8213867" lon="8.2534667"><ele>202.0</ele><time>2026-04-12T13:30:45.995Z</time></trkpt><trkpt lat="44.8214633" lon="8.2533783"><ele>202.0</ele><time>2026-04-12T13:30:46.999Z</time></trkpt><trkpt lat="44.82155" lon="8.2533067"><ele>202.0</ele><time>2026-04-12T13:30:48.002Z</time></trkpt><trkpt lat="44.82164" lon="8.25327"><ele>202.0</ele><time>2026-04-12T13:30:48.999Z</time></trkpt><trkpt lat="44.8217367" lon="8.253265"><ele>202.8</ele><time>2026-04-12T13:30:49.995Z</time></trkpt><trkpt lat="44.8218367" lon="8.2532717"><ele>203.6</ele><time>2026-04-12T13:30:51Z</time></trkpt><trkpt lat="44.82194" lon="8.2532867"><ele>204.4</ele><time>2026-04-12T13:30:51.998Z</time></trkpt><trkpt lat="44.8220417" lon="8.2533117"><ele>205.20000000000002</ele><time>2026-04-12T13:30:52.994Z</time></trkpt><trkpt lat="44.8221317" lon="8.2533517"><ele>206.0</ele><time>2026-04-12T13:30:53.994Z</time></trkpt><trkpt lat="44.8222167" lon="8.2534"><ele>206.0</ele><time>2026-04-12T13:30:54.994Z</time></trkpt><trkpt lat="44.8223017" lon="8.2534617"><ele>206.0</ele><time>2026-04-12T13:30:55.995Z</time></trkpt><trkpt lat="44.82238" lon="8.2535383"><ele>206.0</ele><time>2026-04-12T13:30:56.999Z</time></trkpt><trkpt lat="44.82246" lon="8.2536283"><ele>206.0</ele><time>2026-04-12T13:30:57.995Z</time></trkpt><trkpt lat="44.8225417" lon="8.253725"><ele>206.0</ele><time>2026-04-12T13:30:58.999Z</time></trkpt><trkpt lat="44.8226317" lon="8.2538167"><ele>206.8</ele><time>2026-04-12T13:30:59.999Z</time></trkpt><trkpt lat="44.822725" lon="8.2538917"><ele>207.60000000000002</ele><time>2026-04-12T13:31:00.998Z</time></trkpt><trkpt lat="44.8228217" lon="8.2539667"><ele>208.4</ele><time>2026-04-12T13:31:01.994Z</time></trkpt><trkpt lat="44.822915" lon="8.25404"><ele>209.2</ele><time>2026-04-12T13:31:02.994Z</time></trkpt><trkpt lat="44.8230133" lon="8.25411"><ele>210.0</ele><time>2026-04-12T13:31:03.999Z</time></trkpt><trkpt lat="44.8231067" lon="8.2541767"><ele>212.4</ele><time>2026-04-12T13:31:04.996Z</time></trkpt><trkpt lat="44.8232033" lon="8.2542433"><ele>214.8</ele><time>2026-04-12T13:31:05.994Z</time></trkpt><trkpt lat="44.823295" lon="8.2543067"><ele>217.2</ele><time>2026-04-12T13:31:06.995Z</time></trkpt><trkpt lat="44.8233867" lon="8.2543633"><ele>219.6</ele><time>2026-04-12T13:31:08.004Z</time></trkpt><trkpt lat="44.823475" lon="8.2543917"><ele>222.0</ele><time>2026-04-12T13:31:08.996Z</time></trkpt><trkpt lat="44.8235567" lon="8.2543933"><ele>224.0</ele><time>2026-04-12T13:31:09.994Z</time></trkpt><trkpt lat="44.82364" lon="8.2543783"><ele>226.0</ele><time>2026-04-12T13:31:10.996Z</time></trkpt><trkpt lat="44.8237233" lon="8.2543417"><ele>228.0</ele><time>2026-04-12T13:31:11.998Z</time></trkpt><trkpt lat="44.82381" lon="8.2542933"><ele>230.0</ele><time>2026-04-12T13:31:12.998Z</time></trkpt><trkpt lat="44.8239067" lon="8.254245"><ele>232.0</ele><time>2026-04-12T13:31:13.998Z</time></trkpt><trkpt lat="44.823995" lon="8.2541917"><ele>231.99999999999997</ele><time>2026-04-12T13:31:14.995Z</time></trkpt><trkpt lat="44.824075" lon="8.2541367"><ele>232.0</ele><time>2026-04-12T13:31:15.997Z</time></trkpt><trkpt lat="44.8241433" lon="8.2540833"><ele>232.0</ele><time>2026-04-12T13:31:16.996Z</time></trkpt><trkpt lat="44.8242017" lon="8.254035"><ele>232.0</ele><time>2026-04-12T13:31:17.999Z</time></trkpt><trkpt lat="44.82428" lon="8.2539267"><ele>231.99999999999997</ele><time>2026-04-12T13:31:20Z</time></trkpt><trkpt lat="44.8242967" lon="8.2538"><ele>232.0</ele><time>2026-04-12T13:31:21.997Z</time></trkpt><trkpt lat="44.824275" lon="8.253615"><ele>230.39999999999998</ele><time>2026-04-12T13:31:23.995Z</time></trkpt><trkpt lat="44.8242567" lon="8.2534867"><ele>228.79999999999998</ele><time>2026-04-12T13:31:24.996Z</time></trkpt><trkpt lat="44.8242583" lon="8.253355"><ele>227.2</ele><time>2026-04-12T13:31:25.994Z</time></trkpt><trkpt lat="44.824265" lon="8.2532133"><ele>225.6</ele><time>2026-04-12T13:31:26.994Z</time></trkpt><trkpt lat="44.8242867" lon="8.2530833"><ele>224.0</ele><time>2026-04-12T13:31:27.996Z</time></trkpt><trkpt lat="44.8243217" lon="8.25296"><ele>224.0</ele><time>2026-04-12T13:31:28.999Z</time></trkpt><trkpt lat="44.8243617" lon="8.2528317"><ele>223.99999999999997</ele><time>2026-04-12T13:31:29.998Z</time></trkpt><trkpt lat="44.8244167" lon="8.2527133"><ele>223.99999999999997</ele><time>2026-04-12T13:31:30.995Z</time></trkpt><trkpt lat="44.82449" lon="8.2526083"><ele>224.0</ele><time>2026-04-12T13:31:31.996Z</time></trkpt><trkpt lat="44.8245717" lon="8.2525267"><ele>224.0</ele><time>2026-04-12T13:31:32.999Z</time></trkpt><trkpt lat="44.8246583" lon="8.252455"><ele>224.0</ele><time>2026-04-12T13:31:34Z</time></trkpt><trkpt lat="44.8247483" lon="8.2523883"><ele>223.99999999999997</ele><time>2026-04-12T13:31:34.998Z</time></trkpt><trkpt lat="44.824845" lon="8.2523167"><ele>223.99999999999997</ele><time>2026-04-12T13:31:35.993Z</time></trkpt><trkpt lat="44.8249417" lon="8.2522417"><ele>224.0</ele><time>2026-04-12T13:31:36.996Z</time></trkpt><trkpt lat="44.8250217" lon="8.2521517"><ele>224.0</ele><time>2026-04-12T13:31:37.996Z</time></trkpt><trkpt lat="44.825095" lon="8.25206"><ele>226.2</ele><time>2026-04-12T13:31:38.999Z</time></trkpt><trkpt lat="44.8251617" lon="8.251955"><ele>228.39999999999998</ele><time>2026-04-12T13:31:39.995Z</time></trkpt><trkpt lat="44.8252267" lon="8.25184"><ele>230.6</ele><time>2026-04-12T13:31:41Z</time></trkpt><trkpt lat="44.825275" lon="8.251735"><ele>232.8</ele><time>2026-04-12T13:31:41.998Z</time></trkpt><trkpt lat="44.8253117" lon="8.2516333"><ele>235.0</ele><time>2026-04-12T13:31:42.998Z</time></trkpt><trkpt lat="44.8253467" lon="8.2515317"><ele>237.25</ele><time>2026-04-12T13:31:43.996Z</time></trkpt><trkpt lat="44.8253833" lon="8.2514183"><ele>239.5</ele><time>2026-04-12T13:31:44.997Z</time></trkpt><trkpt lat="44.825415" lon="8.2512817"><ele>241.75</ele><time>2026-04-12T13:31:45.993Z</time></trkpt><trkpt lat="44.8254483" lon="8.2510833"><ele>244.0</ele><time>2026-04-12T13:31:46.999Z</time></trkpt><trkpt lat="44.825465" lon="8.2508833"><ele>244.0</ele><time>2026-04-12T13:31:47.995Z</time></trkpt><trkpt lat="44.8254767" lon="8.2506883"><ele>244.0</ele><time>2026-04-12T13:31:48.994Z</time></trkpt><trkpt lat="44.8255183" lon="8.2505"><ele>244.0</ele><time>2026-04-12T13:31:50Z</time></trkpt><trkpt lat="44.8255767" lon="8.2503233"><ele>244.0</ele><time>2026-04-12T13:31:50.998Z</time></trkpt><trkpt lat="44.8256517" lon="8.2501517"><ele>245.0</ele><time>2026-04-12T13:31:52Z</time></trkpt><trkpt lat="44.82574" lon="8.2499883"><ele>246.0</ele><time>2026-04-12T13:31:52.997Z</time></trkpt><trkpt lat="44.8258433" lon="8.2498267"><ele>247.0</ele><time>2026-04-12T13:31:54.005Z</time></trkpt><trkpt lat="44.8259417" lon="8.249665"><ele>247.25</ele><time>2026-04-12T13:31:55.001Z</time></trkpt><trkpt lat="44.82603" lon="8.2494983"><ele>247.5</ele><time>2026-04-12T13:31:55.999Z</time></trkpt><trkpt lat="44.8260917" lon="8.249315"><ele>247.75</ele><time>2026-04-12T13:31:57.001Z</time></trkpt><trkpt lat="44.82614" lon="8.24912"><ele>248.0</ele><time>2026-04-12T13:31:57.998Z</time></trkpt><trkpt lat="44.826175" lon="8.2489367"><ele>248.0</ele><time>2026-04-12T13:31:58.997Z</time></trkpt><trkpt lat="44.8261967" lon="8.2487683"><ele>248.0</ele><time>2026-04-12T13:31:59.997Z</time></trkpt><trkpt lat="44.8262083" lon="8.248625"><ele>248.0</ele><time>2026-04-12T13:32:00.999Z</time></trkpt><trkpt lat="44.8262183" lon="8.248515"><ele>248.0</ele><time>2026-04-12T13:32:01.996Z</time></trkpt><trkpt lat="44.8262383" lon="8.2484283"><ele>248.0</ele><time>2026-04-12T13:32:03.002Z</time></trkpt><trkpt lat="44.8263033" lon="8.24831"><ele>248.0</ele><time>2026-04-12T13:32:05Z</time></trkpt><trkpt lat="44.82645" lon="8.2483233"><ele>248.0</ele><time>2026-04-12T13:32:07.001Z</time></trkpt><trkpt lat="44.8265317" lon="8.2483667"><ele>248.0</ele><time>2026-04-12T13:32:07.999Z</time></trkpt><trkpt lat="44.8266117" lon="8.2484533"><ele>248.0</ele><time>2026-04-12T13:32:08.999Z</time></trkpt><trkpt lat="44.8266767" lon="8.2485683"><ele>248.0</ele><time>2026-04-12T13:32:09.996Z</time></trkpt><trkpt lat="44.826755" lon="8.2487483"><ele>245.0</ele><time>2026-04-12T13:32:10.994Z</time></trkpt><trkpt lat="44.8268333" lon="8.2489133"><ele>242.0</ele><time>2026-04-12T13:32:11.999Z</time></trkpt><trkpt lat="44.826895" lon="8.2490567"><ele>239.0</ele><time>2026-04-12T13:32:13.004Z</time></trkpt><trkpt lat="44.82694" lon="8.2491967"><ele>236.0</ele><time>2026-04-12T13:32:13.997Z</time></trkpt><trkpt lat="44.826965" lon="8.249345"><ele>236.0</ele><time>2026-04-12T13:32:14.996Z</time></trkpt><trkpt lat="44.8269667" lon="8.2494933"><ele>236.0</ele><time>2026-04-12T13:32:15.999Z</time></trkpt><trkpt lat="44.8269367" lon="8.249635"><ele>236.0</ele><time>2026-04-12T13:32:16.997Z</time></trkpt><trkpt lat="44.82688" lon="8.249785"><ele>236.0</ele><time>2026-04-12T13:32:17.996Z</time></trkpt><trkpt lat="44.8268183" lon="8.249945"><ele>241.5</ele><time>2026-04-12T13:32:18.998Z</time></trkpt><trkpt lat="44.8267733" lon="8.2501117"><ele>247.0</ele><time>2026-04-12T13:32:19.999Z</time></trkpt><trkpt lat="44.8267433" lon="8.250295"><ele>252.5</ele><time>2026-04-12T13:32:20.999Z</time></trkpt><trkpt lat="44.8267383" lon="8.2504817"><ele>258.0</ele><time>2026-04-12T13:32:21.998Z</time></trkpt><trkpt lat="44.8267667" lon="8.2506717"><ele>253.66666666666669</ele><time>2026-04-12T13:32:23Z</time></trkpt><trkpt lat="44.826825" lon="8.2508583"><ele>249.33333333333334</ele><time>2026-04-12T13:32:24.001Z</time></trkpt><trkpt lat="44.826905" lon="8.2510367"><ele>245.0</ele><time>2026-04-12T13:32:25Z</time></trkpt><trkpt lat="44.827005" lon="8.2512167"><ele>245.0</ele><time>2026-04-12T13:32:25.999Z</time></trkpt><trkpt lat="44.8271217" lon="8.2513767"><ele>245.0</ele><time>2026-04-12T13:32:27.003Z</time></trkpt><trkpt lat="44.8272617" lon="8.25151"><ele>245.0</ele><time>2026-04-12T13:32:28.001Z</time></trkpt><trkpt lat="44.8274217" lon="8.2516217"><ele>248.66666666666669</ele><time>2026-04-12T13:32:29.001Z</time></trkpt><trkpt lat="44.8275933" lon="8.25172"><ele>252.33333333333331</ele><time>2026-04-12T13:32:30Z</time></trkpt><trkpt lat="44.827765" lon="8.251825"><ele>256.0</ele><time>2026-04-12T13:32:31Z</time></trkpt><trkpt lat="44.8279317" lon="8.2519283"><ele>256.0</ele><time>2026-04-12T13:32:31.996Z</time></trkpt><trkpt lat="44.828095" lon="8.2520267"><ele>256.0</ele><time>2026-04-12T13:32:32.998Z</time></trkpt><trkpt lat="44.82826" lon="8.2521117"><ele>256.0</ele><time>2026-04-12T13:32:34.001Z</time></trkpt><trkpt lat="44.8284183" lon="8.2521767"><ele>254.33333333333331</ele><time>2026-04-12T13:32:35Z</time></trkpt><trkpt lat="44.8285783" lon="8.2522217"><ele>252.66666666666669</ele><time>2026-04-12T13:32:35.995Z</time></trkpt><trkpt lat="44.8287367" lon="8.2522517"><ele>251.0</ele><time>2026-04-12T13:32:37.005Z</time></trkpt><trkpt lat="44.8288983" lon="8.2522633"><ele>251.0</ele><time>2026-04-12T13:32:37.997Z</time></trkpt><trkpt lat="44.82906" lon="8.252275"><ele>251.0</ele><time>2026-04-12T13:32:38.998Z</time></trkpt><trkpt lat="44.829215" lon="8.2522983"><ele>251.0</ele><time>2026-04-12T13:32:40.001Z</time></trkpt><trkpt lat="44.8293617" lon="8.2523183"><ele>253.5</ele><time>2026-04-12T13:32:40.998Z</time></trkpt><trkpt lat="44.8294983" lon="8.2523383"><ele>256.0</ele><time>2026-04-12T13:32:41.998Z</time></trkpt><trkpt lat="44.8296333" lon="8.25234"><ele>258.5</ele><time>2026-04-12T13:32:42.999Z</time></trkpt><trkpt lat="44.8297717" lon="8.2523317"><ele>261.0</ele><time>2026-04-12T13:32:43.999Z</time></trkpt><trkpt lat="44.8299167" lon="8.2523083"><ele>260.75</ele><time>2026-04-12T13:32:45Z</time></trkpt><trkpt lat="44.8300633" lon="8.2522683"><ele>260.5</ele><time>2026-04-12T13:32:45.995Z</time></trkpt><trkpt lat="44.8302067" lon="8.2522167"><ele>260.25</ele><time>2026-04-12T13:32:46.998Z</time></trkpt><trkpt lat="44.8303433" lon="8.25217"><ele>260.0</ele><time>2026-04-12T13:32:47.997Z</time></trkpt><trkpt lat="44.830475" lon="8.25212"><ele>260.0</ele><time>2026-04-12T13:32:48.997Z</time></trkpt><trkpt lat="44.8305967" lon="8.252055"><ele>260.0</ele><time>2026-04-12T13:32:49.995Z</time></trkpt><trkpt lat="44.8307167" lon="8.2519667"><ele>260.0</ele><time>2026-04-12T13:32:51.001Z</time></trkpt><trkpt lat="44.830835" lon="8.2518633"><ele>260.0</ele><time>2026-04-12T13:32:51.999Z</time></trkpt><trkpt lat="44.8309583" lon="8.2517567"><ele>261.75</ele><time>2026-04-12T13:32:52.996Z</time></trkpt><trkpt lat="44.8310733" lon="8.2516367"><ele>263.5</ele><time>2026-04-12T13:32:53.997Z</time></trkpt><trkpt lat="44.8311883" lon="8.251535"><ele>265.25</ele><time>2026-04-12T13:32:54.993Z</time></trkpt><trkpt lat="44.8312983" lon="8.2514417"><ele>267.0</ele><time>2026-04-12T13:32:55.992Z</time></trkpt><trkpt lat="44.8314033" lon="8.2513683"><ele>264.4</ele><time>2026-04-12T13:32:56.996Z</time></trkpt><trkpt lat="44.83151" lon="8.2513433"><ele>261.79999999999995</ele><time>2026-04-12T13:32:57.999Z</time></trkpt><trkpt lat="44.831615" lon="8.2513583"><ele>259.2</ele><time>2026-04-12T13:32:58.995Z</time></trkpt><trkpt lat="44.8317167" lon="8.2513967"><ele>256.59999999999997</ele><time>2026-04-12T13:32:59.995Z</time></trkpt><trkpt lat="44.83181" lon="8.2514883"><ele>254.0</ele><time>2026-04-12T13:33:00.999Z</time></trkpt><trkpt lat="44.8319" lon="8.2515883"><ele>254.0</ele><time>2026-04-12T13:33:01.995Z</time></trkpt><trkpt lat="44.8319917" lon="8.2516817"><ele>254.0</ele><time>2026-04-12T13:33:03Z</time></trkpt><trkpt lat="44.832085" lon="8.2517883"><ele>254.0</ele><time>2026-04-12T13:33:03.997Z</time></trkpt><trkpt lat="44.8321783" lon="8.251905"><ele>254.0</ele><time>2026-04-12T13:33:04.996Z</time></trkpt><trkpt lat="44.8322767" lon="8.2520117"><ele>254.0</ele><time>2026-04-12T13:33:05.994Z</time></trkpt><trkpt lat="44.832375" lon="8.2521167"><ele>254.0</ele><time>2026-04-12T13:33:07Z</time></trkpt><trkpt lat="44.8324767" lon="8.25221"><ele>254.0</ele><time>2026-04-12T13:33:08Z</time></trkpt><trkpt lat="44.832585" lon="8.2522917"><ele>254.0</ele><time>2026-04-12T13:33:08.998Z</time></trkpt><trkpt lat="44.8327" lon="8.2523617"><ele>255.75</ele><time>2026-04-12T13:33:09.995Z</time></trkpt><trkpt lat="44.83282" lon="8.2524117"><ele>257.5</ele><time>2026-04-12T13:33:10.999Z</time></trkpt><trkpt lat="44.83294" lon="8.2524483"><ele>259.25</ele><time>2026-04-12T13:33:11.993Z</time></trkpt><trkpt lat="44.83306" lon="8.2524917"><ele>261.0</ele><time>2026-04-12T13:33:12.996Z</time></trkpt><trkpt lat="44.8331733" lon="8.25255"><ele>261.0</ele><time>2026-04-12T13:33:13.996Z</time></trkpt><trkpt lat="44.8332783" lon="8.2526433"><ele>261.0</ele><time>2026-04-12T13:33:14.997Z</time></trkpt><trkpt lat="44.8333767" lon="8.252755"><ele>261.0</ele><time>2026-04-12T13:33:15.996Z</time></trkpt><trkpt lat="44.8334683" lon="8.252895"><ele>261.0</ele><time>2026-04-12T13:33:16.993Z</time></trkpt><trkpt lat="44.8335617" lon="8.253045"><ele>258.5</ele><time>2026-04-12T13:33:17.995Z</time></trkpt><trkpt lat="44.8336533" lon="8.2532033"><ele>256.0</ele><time>2026-04-12T13:33:18.995Z</time></trkpt><trkpt lat="44.83375" lon="8.253365"><ele>253.5</ele><time>2026-04-12T13:33:19.995Z</time></trkpt><trkpt lat="44.833845" lon="8.2535317"><ele>251.0</ele><time>2026-04-12T13:33:20.995Z</time></trkpt><trkpt lat="44.8339417" lon="8.25369"><ele>251.0</ele><time>2026-04-12T13:33:21.998Z</time></trkpt><trkpt lat="44.8340367" lon="8.2538533"><ele>251.0</ele><time>2026-04-12T13:33:22.996Z</time></trkpt><trkpt lat="44.8341317" lon="8.2540183"><ele>251.0</ele><time>2026-04-12T13:33:23.996Z</time></trkpt><trkpt lat="44.834225" lon="8.25418"><ele>251.0</ele><time>2026-04-12T13:33:24.998Z</time></trkpt><trkpt lat="44.8343167" lon="8.254335"><ele>251.5</ele><time>2026-04-12T13:33:25.997Z</time></trkpt><trkpt lat="44.8344067" lon="8.2544833"><ele>252.0</ele><time>2026-04-12T13:33:26.998Z</time></trkpt><trkpt lat="44.8344983" lon="8.2546283"><ele>252.5</ele><time>2026-04-12T13:33:27.998Z</time></trkpt><trkpt lat="44.83459" lon="8.254755"><ele>253.0</ele><time>2026-04-12T13:33:28.995Z</time></trkpt><trkpt lat="44.8347017" lon="8.2548533"><ele>253.0</ele><time>2026-04-12T13:33:30.001Z</time></trkpt><trkpt lat="44.8348233" lon="8.2549217"><ele>253.0</ele><time>2026-04-12T13:33:30.995Z</time></trkpt><trkpt lat="44.8349533" lon="8.2549533"><ele>253.0</ele><time>2026-04-12T13:33:31.996Z</time></trkpt><trkpt lat="44.8350767" lon="8.25497"><ele>253.0</ele><time>2026-04-12T13:33:32.998Z</time></trkpt><trkpt lat="44.8351917" lon="8.25498"><ele>251.60000000000002</ele><time>2026-04-12T13:33:33.994Z</time></trkpt><trkpt lat="44.8353033" lon="8.255005"><ele>250.20000000000002</ele><time>2026-04-12T13:33:34.998Z</time></trkpt><trkpt lat="44.8354067" lon="8.255035"><ele>248.8</ele><time>2026-04-12T13:33:36.001Z</time></trkpt><trkpt lat="44.8355017" lon="8.2550767"><ele>247.4</ele><time>2026-04-12T13:33:36.995Z</time></trkpt><trkpt lat="44.8355833" lon="8.255135"><ele>246.0</ele><time>2026-04-12T13:33:37.997Z</time></trkpt><trkpt lat="44.8356517" lon="8.2552133"><ele>246.0</ele><time>2026-04-12T13:33:38.993Z</time></trkpt><trkpt lat="44.8357067" lon="8.25531"><ele>246.00000000000003</ele><time>2026-04-12T13:33:39.995Z</time></trkpt><trkpt lat="44.83574" lon="8.25544"><ele>246.00000000000003</ele><time>2026-04-12T13:33:40.994Z</time></trkpt><trkpt lat="44.8357633" lon="8.2555867"><ele>246.0</ele><time>2026-04-12T13:33:41.997Z</time></trkpt><trkpt lat="44.83578" lon="8.25573"><ele>246.0</ele><time>2026-04-12T13:33:42.998Z</time></trkpt><trkpt lat="44.8358033" lon="8.2558783"><ele>247.25</ele><time>2026-04-12T13:33:43.999Z</time></trkpt><trkpt lat="44.8358383" lon="8.256025"><ele>248.5</ele><time>2026-04-12T13:33:44.998Z</time></trkpt><trkpt lat="44.835885" lon="8.2561717"><ele>249.75</ele><time>2026-04-12T13:33:45.996Z</time></trkpt><trkpt lat="44.8359433" lon="8.2563167"><ele>251.0</ele><time>2026-04-12T13:33:46.995Z</time></trkpt><trkpt lat="44.8360117" lon="8.2564633"><ele>246.75</ele><time>2026-04-12T13:33:47.996Z</time></trkpt><trkpt lat="44.8360933" lon="8.2566083"><ele>242.5</ele><time>2026-04-12T13:33:49.001Z</time></trkpt><trkpt lat="44.8361733" lon="8.2567517"><ele>238.25</ele><time>2026-04-12T13:33:49.997Z</time></trkpt><trkpt lat="44.83625" lon="8.25689"><ele>234.0</ele><time>2026-04-12T13:33:50.994Z</time></trkpt><trkpt lat="44.8363233" lon="8.2570233"><ele>234.0</ele><time>2026-04-12T13:33:51.997Z</time></trkpt><trkpt lat="44.8363933" lon="8.2571483"><ele>233.99999999999997</ele><time>2026-04-12T13:33:52.995Z</time></trkpt><trkpt lat="44.8364483" lon="8.2572533"><ele>233.99999999999997</ele><time>2026-04-12T13:33:53.999Z</time></trkpt><trkpt lat="44.8365133" lon="8.2573667"><ele>234.0</ele><time>2026-04-12T13:33:54.995Z</time></trkpt><trkpt lat="44.8365717" lon="8.2574633"><ele>234.0</ele><time>2026-04-12T13:33:55.995Z</time></trkpt><trkpt lat="44.8366317" lon="8.2575367"><ele>235.16666666666666</ele><time>2026-04-12T13:33:56.999Z</time></trkpt><trkpt lat="44.836695" lon="8.257585"><ele>236.33333333333331</ele><time>2026-04-12T13:33:57.996Z</time></trkpt><trkpt lat="44.8367717" lon="8.25761"><ele>237.5</ele><time>2026-04-12T13:33:58.996Z</time></trkpt><trkpt lat="44.8368633" lon="8.2576217"><ele>238.66666666666666</ele><time>2026-04-12T13:33:59.993Z</time></trkpt><trkpt lat="44.8369567" lon="8.2576283"><ele>239.83333333333331</ele><time>2026-04-12T13:34:01Z</time></trkpt><trkpt lat="44.8370517" lon="8.2576567"><ele>241.0</ele><time>2026-04-12T13:34:01.997Z</time></trkpt><trkpt lat="44.83715" lon="8.2577067"><ele>241.0</ele><time>2026-04-12T13:34:03.003Z</time></trkpt><trkpt lat="44.83725" lon="8.2577783"><ele>241.0</ele><time>2026-04-12T13:34:03.998Z</time></trkpt><trkpt lat="44.8373567" lon="8.25785"><ele>241.0</ele><time>2026-04-12T13:34:04.994Z</time></trkpt><trkpt lat="44.8374667" lon="8.2579267"><ele>241.0</ele><time>2026-04-12T13:34:05.995Z</time></trkpt><trkpt lat="44.837585" lon="8.257995"><ele>240.0</ele><time>2026-04-12T13:34:06.997Z</time></trkpt><trkpt lat="44.8377117" lon="8.2580433"><ele>239.0</ele><time>2026-04-12T13:34:07.996Z</time></trkpt><trkpt lat="44.83784" lon="8.2580833"><ele>238.0</ele><time>2026-04-12T13:34:08.999Z</time></trkpt><trkpt lat="44.8379767" lon="8.25812"><ele>237.0</ele><time>2026-04-12T13:34:09.995Z</time></trkpt><trkpt lat="44.83811" lon="8.25815"><ele>238.39999999999998</ele><time>2026-04-12T13:34:10.998Z</time></trkpt><trkpt lat="44.838235" lon="8.2581817"><ele>239.79999999999998</ele><time>2026-04-12T13:34:11.994Z</time></trkpt><trkpt lat="44.8383517" lon="8.2581983"><ele>241.2</ele><time>2026-04-12T13:34:12.999Z</time></trkpt><trkpt lat="44.83845" lon="8.2581833"><ele>242.6</ele><time>2026-04-12T13:34:14Z</time></trkpt><trkpt lat="44.83855" lon="8.25815"><ele>244.0</ele><time>2026-04-12T13:34:14.994Z</time></trkpt><trkpt lat="44.8386417" lon="8.2580783"><ele>244.0</ele><time>2026-04-12T13:34:15.994Z</time></trkpt><trkpt lat="44.8387283" lon="8.257995"><ele>243.99999999999997</ele><time>2026-04-12T13:34:16.994Z</time></trkpt><trkpt lat="44.8388067" lon="8.2579233"><ele>243.99999999999997</ele><time>2026-04-12T13:34:17.999Z</time></trkpt><trkpt lat="44.8388867" lon="8.2578783"><ele>244.0</ele><time>2026-04-12T13:34:18.995Z</time></trkpt><trkpt lat="44.8389667" lon="8.257845"><ele>244.0</ele><time>2026-04-12T13:34:19.994Z</time></trkpt><trkpt lat="44.8390483" lon="8.257835"><ele>244.0</ele><time>2026-04-12T13:34:20.995Z</time></trkpt><trkpt lat="44.839125" lon="8.25786"><ele>244.0</ele><time>2026-04-12T13:34:21.995Z</time></trkpt><trkpt lat="44.8392267" lon="8.25797"><ele>244.0</ele><time>2026-04-12T13:34:22.998Z</time></trkpt><trkpt lat="44.83933" lon="8.258065"><ele>244.0</ele><time>2026-04-12T13:34:23.994Z</time></trkpt><trkpt lat="44.83944" lon="8.258145"><ele>243.75</ele><time>2026-04-12T13:34:24.996Z</time></trkpt><trkpt lat="44.83955" lon="8.2582417"><ele>243.5</ele><time>2026-04-12T13:34:25.995Z</time></trkpt><trkpt lat="44.8396617" lon="8.2583267"><ele>243.25</ele><time>2026-04-12T13:34:26.994Z</time></trkpt><trkpt lat="44.839775" lon="8.25842"><ele>243.0</ele><time>2026-04-12T13:34:27.993Z</time></trkpt><trkpt lat="44.8398933" lon="8.258525"><ele>243.0</ele><time>2026-04-12T13:34:28.996Z</time></trkpt><trkpt lat="44.840015" lon="8.2586283"><ele>243.0</ele><time>2026-04-12T13:34:29.997Z</time></trkpt><trkpt lat="44.8401383" lon="8.2587333"><ele>243.0</ele><time>2026-04-12T13:34:30.995Z</time></trkpt><trkpt lat="44.84027" lon="8.2588417"><ele>243.0</ele><time>2026-04-12T13:34:31.998Z</time></trkpt><trkpt lat="44.8404" lon="8.2589433"><ele>243.0</ele><time>2026-04-12T13:34:32.997Z</time></trkpt><trkpt lat="44.840525" lon="8.2590383"><ele>243.0</ele><time>2026-04-12T13:34:33.996Z</time></trkpt><trkpt lat="44.8406533" lon="8.2591233"><ele>243.0</ele><time>2026-04-12T13:34:34.994Z</time></trkpt><trkpt lat="44.8407817" lon="8.2591933"><ele>243.0</ele><time>2026-04-12T13:34:35.997Z</time></trkpt><trkpt lat="44.8409067" lon="8.259255"><ele>240.5</ele><time>2026-04-12T13:34:36.999Z</time></trkpt><trkpt lat="44.84102" lon="8.2593167"><ele>238.0</ele><time>2026-04-12T13:34:37.995Z</time></trkpt><trkpt lat="44.8411183" lon="8.2594067"><ele>235.5</ele><time>2026-04-12T13:34:38.994Z</time></trkpt><trkpt lat="44.8411967" lon="8.259515"><ele>233.0</ele><time>2026-04-12T13:34:39.996Z</time></trkpt><trkpt lat="44.8412567" lon="8.2596333"><ele>233.0</ele><time>2026-04-12T13:34:40.995Z</time></trkpt><trkpt lat="44.8412817" lon="8.2597633"><ele>233.0</ele><time>2026-04-12T13:34:41.997Z</time></trkpt><trkpt lat="44.8412883" lon="8.259905"><ele>233.0</ele><time>2026-04-12T13:34:42.995Z</time></trkpt><trkpt lat="44.8412867" lon="8.260055"><ele>233.0</ele><time>2026-04-12T13:34:43.994Z</time></trkpt><trkpt lat="44.8412917" lon="8.26021"><ele>233.0</ele><time>2026-04-12T13:34:44.997Z</time></trkpt><trkpt lat="44.8413" lon="8.2603817"><ele>231.25</ele><time>2026-04-12T13:34:45.994Z</time></trkpt><trkpt lat="44.8413267" lon="8.2605467"><ele>229.5</ele><time>2026-04-12T13:34:46.996Z</time></trkpt><trkpt lat="44.8413717" lon="8.260715"><ele>227.75</ele><time>2026-04-12T13:34:47.993Z</time></trkpt><trkpt lat="44.84142" lon="8.260885"><ele>226.0</ele><time>2026-04-12T13:34:48.997Z</time></trkpt><trkpt lat="44.84148" lon="8.26105"><ele>224.25</ele><time>2026-04-12T13:34:49.999Z</time></trkpt><trkpt lat="44.8415367" lon="8.2612183"><ele>222.5</ele><time>2026-04-12T13:34:50.996Z</time></trkpt><trkpt lat="44.8416167" lon="8.26139"><ele>220.75</ele><time>2026-04-12T13:34:51.993Z</time></trkpt><trkpt lat="44.841695" lon="8.2615733"><ele>219.0</ele><time>2026-04-12T13:34:52.992Z</time></trkpt><trkpt lat="44.8417683" lon="8.2617633"><ele>216.33333333333331</ele><time>2026-04-12T13:34:53.995Z</time></trkpt><trkpt lat="44.8418367" lon="8.26196"><ele>213.66666666666666</ele><time>2026-04-12T13:34:54.998Z</time></trkpt><trkpt lat="44.841905" lon="8.2621483"><ele>211.0</ele><time>2026-04-12T13:34:55.996Z</time></trkpt><trkpt lat="44.8419767" lon="8.26235"><ele>211.0</ele><time>2026-04-12T13:34:56.993Z</time></trkpt><trkpt lat="44.84205" lon="8.2625517"><ele>211.0</ele><time>2026-04-12T13:34:57.997Z</time></trkpt><trkpt lat="44.8421217" lon="8.2627483"><ele>211.0</ele><time>2026-04-12T13:34:58.994Z</time></trkpt><trkpt lat="44.8421967" lon="8.2629383"><ele>213.0</ele><time>2026-04-12T13:34:59.99Z</time></trkpt><trkpt lat="44.842265" lon="8.26313"><ele>215.0</ele><time>2026-04-12T13:35:00.998Z</time></trkpt><trkpt lat="44.842335" lon="8.2633167"><ele>217.0</ele><time>2026-04-12T13:35:01.996Z</time></trkpt><trkpt lat="44.8424067" lon="8.2635"><ele>217.0</ele><time>2026-04-12T13:35:02.997Z</time></trkpt><trkpt lat="44.8424683" lon="8.2636817"><ele>217.0</ele><time>2026-04-12T13:35:03.992Z</time></trkpt><trkpt lat="44.8425367" lon="8.263865"><ele>217.0</ele><time>2026-04-12T13:35:04.995Z</time></trkpt><trkpt lat="44.842605" lon="8.264045"><ele>217.0</ele><time>2026-04-12T13:35:05.993Z</time></trkpt><trkpt lat="44.8426683" lon="8.26423"><ele>218.25</ele><time>2026-04-12T13:35:06.999Z</time></trkpt><trkpt lat="44.8427333" lon="8.2644133"><ele>219.5</ele><time>2026-04-12T13:35:07.997Z</time></trkpt><trkpt lat="44.8427917" lon="8.26461"><ele>220.75</ele><time>2026-04-12T13:35:08.996Z</time></trkpt><trkpt lat="44.842855" lon="8.2648"><ele>222.0</ele><time>2026-04-12T13:35:09.995Z</time></trkpt><trkpt lat="44.842925" lon="8.2649817"><ele>222.0</ele><time>2026-04-12T13:35:10.994Z</time></trkpt><trkpt lat="44.8430133" lon="8.2651583"><ele>222.0</ele><time>2026-04-12T13:35:11.994Z</time></trkpt><trkpt lat="44.8431083" lon="8.2653067"><ele>222.0</ele><time>2026-04-12T13:35:12.995Z</time></trkpt><trkpt lat="44.8432033" lon="8.2654483"><ele>222.0</ele><time>2026-04-12T13:35:13.997Z</time></trkpt><trkpt lat="44.8432983" lon="8.2655817"><ele>221.0</ele><time>2026-04-12T13:35:14.995Z</time></trkpt><trkpt lat="44.8433917" lon="8.2657067"><ele>220.0</ele><time>2026-04-12T13:35:15.995Z</time></trkpt><trkpt lat="44.8434883" lon="8.2658317"><ele>219.0</ele><time>2026-04-12T13:35:17.008Z</time></trkpt><trkpt lat="44.84358" lon="8.2659567"><ele>218.0</ele><time>2026-04-12T13:35:17.997Z</time></trkpt><trkpt lat="44.8436783" lon="8.26608"><ele>218.0</ele><time>2026-04-12T13:35:18.997Z</time></trkpt><trkpt lat="44.8437783" lon="8.266205"><ele>218.0</ele><time>2026-04-12T13:35:19.992Z</time></trkpt><trkpt lat="44.8438817" lon="8.2663233"><ele>218.0</ele><time>2026-04-12T13:35:20.994Z</time></trkpt><trkpt lat="44.843985" lon="8.2664417"><ele>218.0</ele><time>2026-04-12T13:35:21.992Z</time></trkpt><trkpt lat="44.8440933" lon="8.266555"><ele>221.75</ele><time>2026-04-12T13:35:22.996Z</time></trkpt><trkpt lat="44.84421" lon="8.2666583"><ele>225.5</ele><time>2026-04-12T13:35:23.992Z</time></trkpt><trkpt lat="44.8443333" lon="8.266745"><ele>229.25</ele><time>2026-04-12T13:35:25Z</time></trkpt><trkpt lat="44.84448" lon="8.2668083"><ele>233.0</ele><time>2026-04-12T13:35:25.994Z</time></trkpt><trkpt lat="44.8446333" lon="8.2668733"><ele>233.0</ele><time>2026-04-12T13:35:26.995Z</time></trkpt><trkpt lat="44.8447883" lon="8.266935"><ele>233.0</ele><time>2026-04-12T13:35:27.994Z</time></trkpt><trkpt lat="44.844945" lon="8.2669733"><ele>233.0</ele><time>2026-04-12T13:35:28.998Z</time></trkpt><trkpt lat="44.8451017" lon="8.26701"><ele>233.75</ele><time>2026-04-12T13:35:29.993Z</time></trkpt><trkpt lat="44.845255" lon="8.267045"><ele>234.5</ele><time>2026-04-12T13:35:31Z</time></trkpt><trkpt lat="44.8454" lon="8.267085"><ele>235.25</ele><time>2026-04-12T13:35:31.992Z</time></trkpt><trkpt lat="44.8455317" lon="8.2671267"><ele>236.0</ele><time>2026-04-12T13:35:32.994Z</time></trkpt><trkpt lat="44.8456367" lon="8.26717"><ele>236.0</ele><time>2026-04-12T13:35:33.994Z</time></trkpt><trkpt lat="44.8457317" lon="8.2672183"><ele>236.00000000000003</ele><time>2026-04-12T13:35:34.993Z</time></trkpt><trkpt lat="44.8458267" lon="8.26726"><ele>236.00000000000003</ele><time>2026-04-12T13:35:35.999Z</time></trkpt><trkpt lat="44.8459183" lon="8.2672783"><ele>236.0</ele><time>2026-04-12T13:35:36.998Z</time></trkpt><trkpt lat="44.8460133" lon="8.26727"><ele>236.0</ele><time>2026-04-12T13:35:37.995Z</time></trkpt><trkpt lat="44.84611" lon="8.2672533"><ele>237.0</ele><time>2026-04-12T13:35:38.995Z</time></trkpt><trkpt lat="44.8462133" lon="8.2672317"><ele>238.0</ele><time>2026-04-12T13:35:39.996Z</time></trkpt><trkpt lat="44.846325" lon="8.26721"><ele>239.0</ele><time>2026-04-12T13:35:40.997Z</time></trkpt><trkpt lat="44.8464483" lon="8.2671917"><ele>240.0</ele><time>2026-04-12T13:35:41.996Z</time></trkpt><trkpt lat="44.8465717" lon="8.2671867"><ele>240.0</ele><time>2026-04-12T13:35:42.995Z</time></trkpt><trkpt lat="44.8466917" lon="8.26718"><ele>240.0</ele><time>2026-04-12T13:35:43.993Z</time></trkpt><trkpt lat="44.84681" lon="8.2671867"><ele>240.0</ele><time>2026-04-12T13:35:44.996Z</time></trkpt><trkpt lat="44.8469267" lon="8.2671883"><ele>240.0</ele><time>2026-04-12T13:35:45.994Z</time></trkpt><trkpt lat="44.8470333" lon="8.2672133"><ele>239.2</ele><time>2026-04-12T13:35:46.996Z</time></trkpt><trkpt lat="44.847135" lon="8.26726"><ele>238.4</ele><time>2026-04-12T13:35:47.995Z</time></trkpt><trkpt lat="44.847235" lon="8.2673233"><ele>237.60000000000002</ele><time>2026-04-12T13:35:48.997Z</time></trkpt><trkpt lat="44.8473317" lon="8.26739"><ele>236.8</ele><time>2026-04-12T13:35:49.997Z</time></trkpt><trkpt lat="44.8474283" lon="8.267465"><ele>236.0</ele><time>2026-04-12T13:35:50.996Z</time></trkpt><trkpt lat="44.8475317" lon="8.2675283"><ele>235.60000000000002</ele><time>2026-04-12T13:35:51.994Z</time></trkpt><trkpt lat="44.8476367" lon="8.2675833"><ele>235.20000000000002</ele><time>2026-04-12T13:35:52.991Z</time></trkpt><trkpt lat="44.8477417" lon="8.2676183"><ele>234.79999999999998</ele><time>2026-04-12T13:35:53.995Z</time></trkpt><trkpt lat="44.847845" lon="8.2676317"><ele>234.39999999999998</ele><time>2026-04-12T13:35:54.992Z</time></trkpt><trkpt lat="44.8479467" lon="8.26764"><ele>234.0</ele><time>2026-04-12T13:35:55.996Z</time></trkpt><trkpt lat="44.848045" lon="8.2676183"><ele>234.0</ele><time>2026-04-12T13:35:56.995Z</time></trkpt><trkpt lat="44.84814" lon="8.2675883"><ele>233.99999999999997</ele><time>2026-04-12T13:35:57.994Z</time></trkpt><trkpt lat="44.8482367" lon="8.2675467"><ele>233.99999999999997</ele><time>2026-04-12T13:35:58.995Z</time></trkpt><trkpt lat="44.8483283" lon="8.2675033"><ele>234.0</ele><time>2026-04-12T13:35:59.995Z</time></trkpt><trkpt lat="44.8484233" lon="8.2674667"><ele>234.0</ele><time>2026-04-12T13:36:00.992Z</time></trkpt><trkpt lat="44.8485183" lon="8.2674267"><ele>233.39999999999998</ele><time>2026-04-12T13:36:01.995Z</time></trkpt><trkpt lat="44.8486133" lon="8.2674133"><ele>232.79999999999998</ele><time>2026-04-12T13:36:02.995Z</time></trkpt><trkpt lat="44.8487067" lon="8.267415"><ele>232.20000000000002</ele><time>2026-04-12T13:36:03.999Z</time></trkpt><trkpt lat="44.8487967" lon="8.2674483"><ele>231.60000000000002</ele><time>2026-04-12T13:36:04.994Z</time></trkpt><trkpt lat="44.8488767" lon="8.2674983"><ele>231.0</ele><time>2026-04-12T13:36:05.999Z</time></trkpt><trkpt lat="44.8489517" lon="8.2675583"><ele>231.0</ele><time>2026-04-12T13:36:06.999Z</time></trkpt><trkpt lat="44.8490233" lon="8.267645"><ele>231.00000000000003</ele><time>2026-04-12T13:36:07.996Z</time></trkpt><trkpt lat="44.849095" lon="8.267735"><ele>231.00000000000003</ele><time>2026-04-12T13:36:09Z</time></trkpt><trkpt lat="44.8491633" lon="8.2678183"><ele>231.0</ele><time>2026-04-12T13:36:09.992Z</time></trkpt><trkpt lat="44.8492217" lon="8.2679117"><ele>231.0</ele><time>2026-04-12T13:36:10.998Z</time></trkpt><trkpt lat="44.8492683" lon="8.2680167"><ele>228.5</ele><time>2026-04-12T13:36:12.003Z</time></trkpt><trkpt lat="44.8493033" lon="8.2681183"><ele>226.0</ele><time>2026-04-12T13:36:12.993Z</time></trkpt><trkpt lat="44.849345" lon="8.26822"><ele>223.5</ele><time>2026-04-12T13:36:13.995Z</time></trkpt><trkpt lat="44.849385" lon="8.2683167"><ele>221.0</ele><time>2026-04-12T13:36:14.999Z</time></trkpt><trkpt lat="44.849435" lon="8.26841"><ele>218.5</ele><time>2026-04-12T13:36:15.994Z</time></trkpt><trkpt lat="44.8494883" lon="8.2684933"><ele>216.0</ele><time>2026-04-12T13:36:16.994Z</time></trkpt><trkpt lat="44.84956" lon="8.2685667"><ele>216.0</ele><time>2026-04-12T13:36:17.997Z</time></trkpt><trkpt lat="44.84964" lon="8.268635"><ele>216.00000000000003</ele><time>2026-04-12T13:36:18.998Z</time></trkpt><trkpt lat="44.84972" lon="8.2687067"><ele>216.00000000000003</ele><time>2026-04-12T13:36:19.992Z</time></trkpt><trkpt lat="44.8497983" lon="8.26878"><ele>216.0</ele><time>2026-04-12T13:36:20.993Z</time></trkpt><trkpt lat="44.8498817" lon="8.2688533"><ele>216.0</ele><time>2026-04-12T13:36:21.996Z</time></trkpt><trkpt lat="44.8499617" lon="8.26893"><ele>215.8</ele><time>2026-04-12T13:36:22.993Z</time></trkpt><trkpt lat="44.8500417" lon="8.269005"><ele>215.60000000000002</ele><time>2026-04-12T13:36:23.998Z</time></trkpt><trkpt lat="44.8501217" lon="8.2690883"><ele>215.4</ele><time>2026-04-12T13:36:24.995Z</time></trkpt><trkpt lat="44.8501933" lon="8.2691717"><ele>215.2</ele><time>2026-04-12T13:36:25.995Z</time></trkpt><trkpt lat="44.85026" lon="8.2692583"><ele>215.0</ele><time>2026-04-12T13:36:27.001Z</time></trkpt><trkpt lat="44.8503117" lon="8.269355"><ele>215.00000000000003</ele><time>2026-04-12T13:36:27.996Z</time></trkpt><trkpt lat="44.8503633" lon="8.2694517"><ele>215.0</ele><time>2026-04-12T13:36:28.996Z</time></trkpt><trkpt lat="44.8504033" lon="8.2695517"><ele>215.0</ele><time>2026-04-12T13:36:29.999Z</time></trkpt><trkpt lat="44.85045" lon="8.2696467"><ele>215.0</ele><time>2026-04-12T13:36:30.998Z</time></trkpt><trkpt lat="44.8505117" lon="8.2697317"><ele>215.00000000000003</ele><time>2026-04-12T13:36:31.996Z</time></trkpt><trkpt lat="44.8505767" lon="8.2698117"><ele>215.0</ele><time>2026-04-12T13:36:32.996Z</time></trkpt><trkpt lat="44.8506483" lon="8.2699"><ele>214.8</ele><time>2026-04-12T13:36:33.997Z</time></trkpt><trkpt lat="44.8507333" lon="8.2699833"><ele>214.6</ele><time>2026-04-12T13:36:34.996Z</time></trkpt><trkpt lat="44.85082" lon="8.27007"><ele>214.39999999999998</ele><time>2026-04-12T13:36:36Z</time></trkpt><trkpt lat="44.8509117" lon="8.27015"><ele>214.2</ele><time>2026-04-12T13:36:36.997Z</time></trkpt><trkpt lat="44.851015" lon="8.2702183"><ele>214.0</ele><time>2026-04-12T13:36:37.995Z</time></trkpt><trkpt lat="44.8511167" lon="8.2702867"><ele>214.0</ele><time>2026-04-12T13:36:38.997Z</time></trkpt><trkpt lat="44.8512133" lon="8.270365"><ele>213.99999999999997</ele><time>2026-04-12T13:36:39.994Z</time></trkpt><trkpt lat="44.8513083" lon="8.2704333"><ele>213.99999999999997</ele><time>2026-04-12T13:36:40.997Z</time></trkpt><trkpt lat="44.8514083" lon="8.2704967"><ele>214.0</ele><time>2026-04-12T13:36:42.001Z</time></trkpt><trkpt lat="44.8515083" lon="8.2705483"><ele>214.0</ele><time>2026-04-12T13:36:42.995Z</time></trkpt><trkpt lat="44.85161" lon="8.2705883"><ele>211.0</ele><time>2026-04-12T13:36:43.994Z</time></trkpt><trkpt lat="44.8517167" lon="8.2706117"><ele>208.0</ele><time>2026-04-12T13:36:45Z</time></trkpt><trkpt lat="44.851825" lon="8.270595"><ele>205.0</ele><time>2026-04-12T13:36:45.993Z</time></trkpt><trkpt lat="44.8519367" lon="8.2705817"><ele>202.0</ele><time>2026-04-12T13:36:46.994Z</time></trkpt><trkpt lat="44.8520617" lon="8.2705667"><ele>201.0</ele><time>2026-04-12T13:36:48.002Z</time></trkpt><trkpt lat="44.85218" lon="8.270565"><ele>200.0</ele><time>2026-04-12T13:36:48.999Z</time></trkpt><trkpt lat="44.8523067" lon="8.2705833"><ele>199.0</ele><time>2026-04-12T13:36:49.995Z</time></trkpt><trkpt lat="44.852425" lon="8.27061"><ele>198.0</ele><time>2026-04-12T13:36:50.996Z</time></trkpt><trkpt lat="44.8525433" lon="8.270645"><ele>198.5</ele><time>2026-04-12T13:36:51.993Z</time></trkpt><trkpt lat="44.8526683" lon="8.2706883"><ele>199.0</ele><time>2026-04-12T13:36:52.996Z</time></trkpt><trkpt lat="44.8528017" lon="8.270735"><ele>199.5</ele><time>2026-04-12T13:36:53.996Z</time></trkpt><trkpt lat="44.85294" lon="8.2707867"><ele>200.0</ele><time>2026-04-12T13:36:54.995Z</time></trkpt><trkpt lat="44.8530783" lon="8.270835"><ele>200.0</ele><time>2026-04-12T13:36:55.997Z</time></trkpt><trkpt lat="44.8532133" lon="8.2708783"><ele>200.0</ele><time>2026-04-12T13:36:56.997Z</time></trkpt><trkpt lat="44.8533467" lon="8.2709267"><ele>200.0</ele><time>2026-04-12T13:36:57.996Z</time></trkpt><trkpt lat="44.8534767" lon="8.2709833"><ele>200.0</ele><time>2026-04-12T13:36:58.996Z</time></trkpt><trkpt lat="44.85361" lon="8.27105"><ele>201.0</ele><time>2026-04-12T13:36:59.996Z</time></trkpt><trkpt lat="44.8537467" lon="8.2711233"><ele>202.0</ele><time>2026-04-12T13:37:00.997Z</time></trkpt><trkpt lat="44.85388" lon="8.2712067"><ele>203.0</ele><time>2026-04-12T13:37:01.998Z</time></trkpt><trkpt lat="44.8540133" lon="8.2713"><ele>204.0</ele><time>2026-04-12T13:37:02.999Z</time></trkpt><trkpt lat="44.854145" lon="8.2713917"><ele>204.25</ele><time>2026-04-12T13:37:03.993Z</time></trkpt><trkpt lat="44.854275" lon="8.2714767"><ele>204.5</ele><time>2026-04-12T13:37:04.997Z</time></trkpt><trkpt lat="44.8544083" lon="8.2715617"><ele>204.75</ele><time>2026-04-12T13:37:05.995Z</time></trkpt><trkpt lat="44.8545467" lon="8.27164"><ele>205.0</ele><time>2026-04-12T13:37:06.993Z</time></trkpt><trkpt lat="44.85468" lon="8.271725"><ele>206.25</ele><time>2026-04-12T13:37:07.997Z</time></trkpt><trkpt lat="44.8548183" lon="8.271795"><ele>207.5</ele><time>2026-04-12T13:37:08.993Z</time></trkpt><trkpt lat="44.854945" lon="8.2718367"><ele>208.75</ele><time>2026-04-12T13:37:09.995Z</time></trkpt><trkpt lat="44.8550717" lon="8.2718583"><ele>210.0</ele><time>2026-04-12T13:37:10.992Z</time></trkpt><trkpt lat="44.8551967" lon="8.2718767"><ele>210.0</ele><time>2026-04-12T13:37:11.996Z</time></trkpt><trkpt lat="44.85532" lon="8.2719033"><ele>210.0</ele><time>2026-04-12T13:37:12.996Z</time></trkpt><trkpt lat="44.855425" lon="8.2719517"><ele>210.0</ele><time>2026-04-12T13:37:13.994Z</time></trkpt><trkpt lat="44.8555233" lon="8.2720317"><ele>210.0</ele><time>2026-04-12T13:37:14.996Z</time></trkpt><trkpt lat="44.855605" lon="8.2721283"><ele>210.0</ele><time>2026-04-12T13:37:15.993Z</time></trkpt><trkpt lat="44.8556667" lon="8.2722467"><ele>210.0</ele><time>2026-04-12T13:37:16.996Z</time></trkpt><trkpt lat="44.8557117" lon="8.2723733"><ele>210.0</ele><time>2026-04-12T13:37:17.994Z</time></trkpt><trkpt lat="44.85575" lon="8.2725067"><ele>210.0</ele><time>2026-04-12T13:37:18.994Z</time></trkpt><trkpt lat="44.8557833" lon="8.2726317"><ele>210.0</ele><time>2026-04-12T13:37:19.999Z</time></trkpt><trkpt lat="44.8558233" lon="8.2727517"><ele>209.2</ele><time>2026-04-12T13:37:21Z</time></trkpt><trkpt lat="44.8558717" lon="8.2728717"><ele>208.4</ele><time>2026-04-12T13:37:21.998Z</time></trkpt><trkpt lat="44.8559267" lon="8.2730017"><ele>207.60000000000002</ele><time>2026-04-12T13:37:22.999Z</time></trkpt><trkpt lat="44.8559867" lon="8.27313"><ele>206.8</ele><time>2026-04-12T13:37:23.998Z</time></trkpt><trkpt lat="44.8560533" lon="8.273275"><ele>206.0</ele><time>2026-04-12T13:37:25.001Z</time></trkpt><trkpt lat="44.85612" lon="8.2734183"><ele>206.0</ele><time>2026-04-12T13:37:25.997Z</time></trkpt><trkpt lat="44.8561833" lon="8.27357"><ele>206.0</ele><time>2026-04-12T13:37:26.996Z</time></trkpt><trkpt lat="44.85625" lon="8.2737317"><ele>206.0</ele><time>2026-04-12T13:37:27.998Z</time></trkpt><trkpt lat="44.8563217" lon="8.2738883"><ele>206.0</ele><time>2026-04-12T13:37:28.995Z</time></trkpt><trkpt lat="44.8563917" lon="8.2740433"><ele>207.25</ele><time>2026-04-12T13:37:29.996Z</time></trkpt><trkpt lat="44.8564667" lon="8.27419"><ele>208.5</ele><time>2026-04-12T13:37:30.995Z</time></trkpt><trkpt lat="44.8565383" lon="8.2743333"><ele>209.75</ele><time>2026-04-12T13:37:31.994Z</time></trkpt><trkpt lat="44.8566117" lon="8.2744667"><ele>211.0</ele><time>2026-04-12T13:37:33.003Z</time></trkpt><trkpt lat="44.8566883" lon="8.27459"><ele>211.0</ele><time>2026-04-12T13:37:34.002Z</time></trkpt><trkpt lat="44.8567683" lon="8.27471"><ele>211.0</ele><time>2026-04-12T13:37:34.994Z</time></trkpt><trkpt lat="44.856875" lon="8.274805"><ele>211.0</ele><time>2026-04-12T13:37:35.996Z</time></trkpt><trkpt lat="44.8569967" lon="8.2748767"><ele>211.0</ele><time>2026-04-12T13:37:36.992Z</time></trkpt><trkpt lat="44.857135" lon="8.2749283"><ele>212.0</ele><time>2026-04-12T13:37:37.996Z</time></trkpt><trkpt lat="44.857285" lon="8.2749583"><ele>213.0</ele><time>2026-04-12T13:37:38.998Z</time></trkpt><trkpt lat="44.8574383" lon="8.2749583"><ele>214.0</ele><time>2026-04-12T13:37:39.997Z</time></trkpt><trkpt lat="44.857585" lon="8.274955"><ele>214.75</ele><time>2026-04-12T13:37:40.993Z</time></trkpt><trkpt lat="44.8577283" lon="8.2749467"><ele>215.5</ele><time>2026-04-12T13:37:41.996Z</time></trkpt><trkpt lat="44.8578683" lon="8.2749417"><ele>216.25</ele><time>2026-04-12T13:37:42.997Z</time></trkpt><trkpt lat="44.8580033" lon="8.2749417"><ele>217.0</ele><time>2026-04-12T13:37:43.994Z</time></trkpt><trkpt lat="44.8581383" lon="8.2749417"><ele>217.0</ele><time>2026-04-12T13:37:44.995Z</time></trkpt><trkpt lat="44.85827" lon="8.274935"><ele>217.0</ele><time>2026-04-12T13:37:45.994Z</time></trkpt><trkpt lat="44.8583983" lon="8.27492"><ele>217.0</ele><time>2026-04-12T13:37:46.995Z</time></trkpt><trkpt lat="44.858525" lon="8.2748867"><ele>217.0</ele><time>2026-04-12T13:37:47.992Z</time></trkpt><trkpt lat="44.8586417" lon="8.2748317"><ele>214.75</ele><time>2026-04-12T13:37:48.999Z</time></trkpt><trkpt lat="44.8587567" lon="8.2747717"><ele>212.5</ele><time>2026-04-12T13:37:49.995Z</time></trkpt><trkpt lat="44.8588733" lon="8.274705"><ele>210.25</ele><time>2026-04-12T13:37:50.995Z</time></trkpt><trkpt lat="44.8589917" lon="8.27465"><ele>208.0</ele><time>2026-04-12T13:37:51.993Z</time></trkpt><trkpt lat="44.859115" lon="8.2746017"><ele>208.0</ele><time>2026-04-12T13:37:52.993Z</time></trkpt><trkpt lat="44.85925" lon="8.2745817"><ele>208.0</ele><time>2026-04-12T13:37:53.996Z</time></trkpt><trkpt lat="44.85938" lon="8.2745933"><ele>208.0</ele><time>2026-04-12T13:37:54.996Z</time></trkpt><trkpt lat="44.8595117" lon="8.2746167"><ele>208.0</ele><time>2026-04-12T13:37:56.004Z</time></trkpt><trkpt lat="44.8596417" lon="8.274655"><ele>208.0</ele><time>2026-04-12T13:37:56.995Z</time></trkpt><trkpt lat="44.8597683" lon="8.2746983"><ele>208.0</ele><time>2026-04-12T13:37:57.998Z</time></trkpt><trkpt lat="44.8598867" lon="8.2747583"><ele>208.0</ele><time>2026-04-12T13:37:58.994Z</time></trkpt><trkpt lat="44.8599983" lon="8.2748317"><ele>208.0</ele><time>2026-04-12T13:38:00.001Z</time></trkpt><trkpt lat="44.8601067" lon="8.2749183"><ele>207.25</ele><time>2026-04-12T13:38:00.993Z</time></trkpt><trkpt lat="44.86021" lon="8.275005"><ele>206.5</ele><time>2026-04-12T13:38:01.996Z</time></trkpt><trkpt lat="44.86031" lon="8.2750883"><ele>205.75</ele><time>2026-04-12T13:38:02.997Z</time></trkpt><trkpt lat="44.8604167" lon="8.27515"><ele>205.0</ele><time>2026-04-12T13:38:04.001Z</time></trkpt><trkpt lat="44.86053" lon="8.2751933"><ele>205.0</ele><time>2026-04-12T13:38:04.997Z</time></trkpt><trkpt lat="44.8606467" lon="8.27523"><ele>205.0</ele><time>2026-04-12T13:38:05.995Z</time></trkpt><trkpt lat="44.8607633" lon="8.2752567"><ele>205.0</ele><time>2026-04-12T13:38:07Z</time></trkpt><trkpt lat="44.8608817" lon="8.2752717"><ele>205.0</ele><time>2026-04-12T13:38:07.998Z</time></trkpt><trkpt lat="44.8609983" lon="8.2752817"><ele>202.0</ele><time>2026-04-12T13:38:08.995Z</time></trkpt><trkpt lat="44.8611117" lon="8.2753067"><ele>199.0</ele><time>2026-04-12T13:38:09.996Z</time></trkpt><trkpt lat="44.8612183" lon="8.2753817"><ele>196.0</ele><time>2026-04-12T13:38:10.997Z</time></trkpt><trkpt lat="44.8613233" lon="8.2754433"><ele>193.0</ele><time>2026-04-12T13:38:11.996Z</time></trkpt><trkpt lat="44.86142" lon="8.27552"><ele>192.5</ele><time>2026-04-12T13:38:12.997Z</time></trkpt><trkpt lat="44.861515" lon="8.2756117"><ele>192.0</ele><time>2026-04-12T13:38:14Z</time></trkpt><trkpt lat="44.8616033" lon="8.27571"><ele>191.5</ele><time>2026-04-12T13:38:14.998Z</time></trkpt><trkpt lat="44.8616933" lon="8.2758183"><ele>191.0</ele><time>2026-04-12T13:38:15.996Z</time></trkpt><trkpt lat="44.861785" lon="8.275945"><ele>191.0</ele><time>2026-04-12T13:38:16.998Z</time></trkpt><trkpt lat="44.8618733" lon="8.276075"><ele>191.0</ele><time>2026-04-12T13:38:17.999Z</time></trkpt><trkpt lat="44.8619567" lon="8.2761983"><ele>191.0</ele><time>2026-04-12T13:38:18.992Z</time></trkpt><trkpt lat="44.862035" lon="8.27633"><ele>191.0</ele><time>2026-04-12T13:38:19.995Z</time></trkpt><trkpt lat="44.86212" lon="8.2764633"><ele>195.0</ele><time>2026-04-12T13:38:20.995Z</time></trkpt><trkpt lat="44.8622017" lon="8.276605"><ele>199.0</ele><time>2026-04-12T13:38:21.995Z</time></trkpt><trkpt lat="44.8622817" lon="8.27675"><ele>203.0</ele><time>2026-04-12T13:38:22.993Z</time></trkpt><trkpt lat="44.86236" lon="8.2768833"><ele>207.0</ele><time>2026-04-12T13:38:23.998Z</time></trkpt><trkpt lat="44.8624383" lon="8.27702"><ele>207.0</ele><time>2026-04-12T13:38:24.996Z</time></trkpt><trkpt lat="44.8625133" lon="8.277155"><ele>207.0</ele><time>2026-04-12T13:38:25.997Z</time></trkpt><trkpt lat="44.8625917" lon="8.2772833"><ele>207.0</ele><time>2026-04-12T13:38:26.995Z</time></trkpt><trkpt lat="44.8626667" lon="8.2774067"><ele>207.0</ele><time>2026-04-12T13:38:27.998Z</time></trkpt><trkpt lat="44.8627333" lon="8.2775183"><ele>209.0</ele><time>2026-04-12T13:38:28.997Z</time></trkpt><trkpt lat="44.8628033" lon="8.2776167"><ele>211.0</ele><time>2026-04-12T13:38:29.992Z</time></trkpt><trkpt lat="44.8628817" lon="8.2777033"><ele>213.0</ele><time>2026-04-12T13:38:31Z</time></trkpt><trkpt lat="44.862975" lon="8.2777767"><ele>215.0</ele><time>2026-04-12T13:38:31.994Z</time></trkpt><trkpt lat="44.86307" lon="8.2778317"><ele>217.0</ele><time>2026-04-12T13:38:32.994Z</time></trkpt><trkpt lat="44.8631733" lon="8.2778717"><ele>217.0</ele><time>2026-04-12T13:38:33.993Z</time></trkpt><trkpt lat="44.8632817" lon="8.2779033"><ele>217.0</ele><time>2026-04-12T13:38:34.996Z</time></trkpt><trkpt lat="44.8633833" lon="8.27793"><ele>217.0</ele><time>2026-04-12T13:38:35.994Z</time></trkpt><trkpt lat="44.8634667" lon="8.2779583"><ele>217.0</ele><time>2026-04-12T13:38:36.995Z</time></trkpt><trkpt lat="44.8635433" lon="8.2779967"><ele>217.0</ele><time>2026-04-12T13:38:37.998Z</time></trkpt><trkpt lat="44.8636133" lon="8.2780467"><ele>215.8</ele><time>2026-04-12T13:38:38.994Z</time></trkpt><trkpt lat="44.8636867" lon="8.278105"><ele>214.6</ele><time>2026-04-12T13:38:39.993Z</time></trkpt><trkpt lat="44.863755" lon="8.278175"><ele>213.4</ele><time>2026-04-12T13:38:40.996Z</time></trkpt><trkpt lat="44.86382" lon="8.27827"><ele>212.20000000000002</ele><time>2026-04-12T13:38:41.996Z</time></trkpt><trkpt lat="44.863875" lon="8.2783883"><ele>211.0</ele><time>2026-04-12T13:38:42.999Z</time></trkpt><trkpt lat="44.8639133" lon="8.2785167"><ele>211.0</ele><time>2026-04-12T13:38:43.993Z</time></trkpt><trkpt lat="44.863935" lon="8.2786483"><ele>211.0</ele><time>2026-04-12T13:38:44.996Z</time></trkpt><trkpt lat="44.8639583" lon="8.2787833"><ele>211.0</ele><time>2026-04-12T13:38:45.997Z</time></trkpt><trkpt lat="44.8639733" lon="8.2789183"><ele>211.0</ele><time>2026-04-12T13:38:46.992Z</time></trkpt><trkpt lat="44.8640017" lon="8.2790633"><ele>211.0</ele><time>2026-04-12T13:38:47.997Z</time></trkpt><trkpt lat="44.864025" lon="8.2792067"><ele>210.4</ele><time>2026-04-12T13:38:48.994Z</time></trkpt><trkpt lat="44.8640617" lon="8.27935"><ele>209.8</ele><time>2026-04-12T13:38:49.999Z</time></trkpt><trkpt lat="44.8640983" lon="8.2794967"><ele>209.20000000000002</ele><time>2026-04-12T13:38:50.995Z</time></trkpt><trkpt lat="44.8641383" lon="8.2796467"><ele>208.60000000000002</ele><time>2026-04-12T13:38:51.992Z</time></trkpt><trkpt lat="44.8641817" lon="8.2797967"><ele>208.0</ele><time>2026-04-12T13:38:52.994Z</time></trkpt><trkpt lat="44.8642267" lon="8.2799467"><ele>208.0</ele><time>2026-04-12T13:38:53.993Z</time></trkpt><trkpt lat="44.8642783" lon="8.2800933"><ele>208.0</ele><time>2026-04-12T13:38:54.996Z</time></trkpt><trkpt lat="44.8643317" lon="8.2802433"><ele>208.0</ele><time>2026-04-12T13:38:55.991Z</time></trkpt><trkpt lat="44.86438" lon="8.2804"><ele>208.0</ele><time>2026-04-12T13:38:56.993Z</time></trkpt><trkpt lat="44.864425" lon="8.2805533"><ele>203.25</ele><time>2026-04-12T13:38:57.993Z</time></trkpt><trkpt lat="44.8644633" lon="8.2807133"><ele>198.5</ele><time>2026-04-12T13:38:58.993Z</time></trkpt><trkpt lat="44.864495" lon="8.2808733"><ele>193.75</ele><time>2026-04-12T13:38:59.992Z</time></trkpt><trkpt lat="44.86452" lon="8.2810383"><ele>189.0</ele><time>2026-04-12T13:39:00.994Z</time></trkpt><trkpt lat="44.86457" lon="8.281175"><ele>189.0</ele><time>2026-04-12T13:39:01.993Z</time></trkpt><trkpt lat="44.8646367" lon="8.2813"><ele>189.0</ele><time>2026-04-12T13:39:02.997Z</time></trkpt><trkpt lat="44.8647217" lon="8.2813983"><ele>189.0</ele><time>2026-04-12T13:39:04.001Z</time></trkpt><trkpt lat="44.8648183" lon="8.2814783"><ele>189.0</ele><time>2026-04-12T13:39:04.996Z</time></trkpt><trkpt lat="44.8648983" lon="8.281555"><ele>189.0</ele><time>2026-04-12T13:39:05.997Z</time></trkpt><trkpt lat="44.8649667" lon="8.28164"><ele>188.6</ele><time>2026-04-12T13:39:06.999Z</time></trkpt><trkpt lat="44.86505" lon="8.2817067"><ele>188.2</ele><time>2026-04-12T13:39:07.997Z</time></trkpt><trkpt lat="44.8651367" lon="8.2817783"><ele>187.79999999999998</ele><time>2026-04-12T13:39:08.993Z</time></trkpt><trkpt lat="44.8652283" lon="8.2818583"><ele>187.39999999999998</ele><time>2026-04-12T13:39:09.994Z</time></trkpt><trkpt lat="44.86532" lon="8.28193"><ele>187.0</ele><time>2026-04-12T13:39:10.995Z</time></trkpt><trkpt lat="44.8654167" lon="8.2819767"><ele>187.0</ele><time>2026-04-12T13:39:11.995Z</time></trkpt><trkpt lat="44.86552" lon="8.2820083"><ele>187.0</ele><time>2026-04-12T13:39:12.994Z</time></trkpt><trkpt lat="44.8656217" lon="8.2820217"><ele>187.0</ele><time>2026-04-12T13:39:13.994Z</time></trkpt><trkpt lat="44.8657217" lon="8.2820367"><ele>187.0</ele><time>2026-04-12T13:39:15.003Z</time></trkpt><trkpt lat="44.8658233" lon="8.2820433"><ele>187.0</ele><time>2026-04-12T13:39:15.997Z</time></trkpt><trkpt lat="44.8659233" lon="8.2820517"><ele>186.2</ele><time>2026-04-12T13:39:16.994Z</time></trkpt><trkpt lat="44.866025" lon="8.2820583"><ele>185.39999999999998</ele><time>2026-04-12T13:39:17.991Z</time></trkpt><trkpt lat="44.8661317" lon="8.2820583"><ele>184.60000000000002</ele><time>2026-04-12T13:39:18.999Z</time></trkpt><trkpt lat="44.86624" lon="8.2820567"><ele>183.8</ele><time>2026-04-12T13:39:20Z</time></trkpt><trkpt lat="44.8663483" lon="8.2820517"><ele>183.0</ele><time>2026-04-12T13:39:20.999Z</time></trkpt><trkpt lat="44.8664533" lon="8.282065"><ele>183.0</ele><time>2026-04-12T13:39:21.996Z</time></trkpt><trkpt lat="44.8665617" lon="8.2820917"><ele>183.0</ele><time>2026-04-12T13:39:22.995Z</time></trkpt><trkpt lat="44.8666783" lon="8.2821317"><ele>183.0</ele><time>2026-04-12T13:39:23.994Z</time></trkpt><trkpt lat="44.8668083" lon="8.282185"><ele>183.0</ele><time>2026-04-12T13:39:24.995Z</time></trkpt><trkpt lat="44.8669533" lon="8.28226"><ele>184.33333333333334</ele><time>2026-04-12T13:39:25.996Z</time></trkpt><trkpt lat="44.867105" lon="8.282335"><ele>185.66666666666669</ele><time>2026-04-12T13:39:26.995Z</time></trkpt><trkpt lat="44.86725" lon="8.2824167"><ele>187.0</ele><time>2026-04-12T13:39:27.997Z</time></trkpt><trkpt lat="44.8673883" lon="8.2825083"><ele>187.0</ele><time>2026-04-12T13:39:28.996Z</time></trkpt><trkpt lat="44.8675183" lon="8.28261"><ele>187.0</ele><time>2026-04-12T13:39:29.999Z</time></trkpt><trkpt lat="44.8676417" lon="8.2827217"><ele>187.0</ele><time>2026-04-12T13:39:30.995Z</time></trkpt><trkpt lat="44.86776" lon="8.2828417"><ele>187.0</ele><time>2026-04-12T13:39:31.996Z</time></trkpt><trkpt lat="44.8678667" lon="8.2829783"><ele>185.25</ele><time>2026-04-12T13:39:32.996Z</time></trkpt><trkpt lat="44.8679733" lon="8.2831117"><ele>183.5</ele><time>2026-04-12T13:39:33.999Z</time></trkpt><trkpt lat="44.8680767" lon="8.28324"><ele>181.75</ele><time>2026-04-12T13:39:34.995Z</time></trkpt><trkpt lat="44.8681817" lon="8.2833417"><ele>180.0</ele><time>2026-04-12T13:39:35.994Z</time></trkpt><trkpt lat="44.86829" lon="8.2834267"><ele>180.0</ele><time>2026-04-12T13:39:36.993Z</time></trkpt><trkpt lat="44.868405" lon="8.2834967"><ele>180.0</ele><time>2026-04-12T13:39:37.993Z</time></trkpt><trkpt lat="44.86853" lon="8.2835483"><ele>180.0</ele><time>2026-04-12T13:39:38.994Z</time></trkpt><trkpt lat="44.8686617" lon="8.2835917"><ele>180.0</ele><time>2026-04-12T13:39:39.998Z</time></trkpt><trkpt lat="44.8687983" lon="8.2836033"><ele>181.0</ele><time>2026-04-12T13:39:40.998Z</time></trkpt><trkpt lat="44.8689383" lon="8.2835983"><ele>182.0</ele><time>2026-04-12T13:39:41.997Z</time></trkpt><trkpt lat="44.86908" lon="8.2835867"><ele>183.0</ele><time>2026-04-12T13:39:42.994Z</time></trkpt><trkpt lat="44.8692183" lon="8.2835683"><ele>184.0</ele><time>2026-04-12T13:39:44.001Z</time></trkpt><trkpt lat="44.8693533" lon="8.2835483"><ele>186.75</ele><time>2026-04-12T13:39:44.993Z</time></trkpt><trkpt lat="44.8694717" lon="8.28354"><ele>189.5</ele><time>2026-04-12T13:39:45.997Z</time></trkpt><trkpt lat="44.8696" lon="8.283525"><ele>192.25</ele><time>2026-04-12T13:39:46.998Z</time></trkpt><trkpt lat="44.8697217" lon="8.2835183"><ele>195.0</ele><time>2026-04-12T13:39:47.997Z</time></trkpt><trkpt lat="44.8698333" lon="8.2835367"><ele>195.0</ele><time>2026-04-12T13:39:48.999Z</time></trkpt><trkpt lat="44.86993" lon="8.28356"><ele>195.0</ele><time>2026-04-12T13:39:49.995Z</time></trkpt><trkpt lat="44.8700167" lon="8.283595"><ele>195.0</ele><time>2026-04-12T13:39:50.995Z</time></trkpt><trkpt lat="44.8701033" lon="8.2836383"><ele>195.0</ele><time>2026-04-12T13:39:51.992Z</time></trkpt><trkpt lat="44.8701933" lon="8.2836817"><ele>195.0</ele><time>2026-04-12T13:39:52.993Z</time></trkpt><trkpt lat="44.8702767" lon="8.283735"><ele>194.6</ele><time>2026-04-12T13:39:53.999Z</time></trkpt><trkpt lat="44.8703717" lon="8.28379"><ele>194.2</ele><time>2026-04-12T13:39:54.995Z</time></trkpt><trkpt lat="44.8704617" lon="8.2838483"><ele>193.8</ele><time>2026-04-12T13:39:55.998Z</time></trkpt><trkpt lat="44.87055" lon="8.2839083"><ele>193.4</ele><time>2026-04-12T13:39:57.001Z</time></trkpt><trkpt lat="44.87064" lon="8.2839667"><ele>193.0</ele><time>2026-04-12T13:39:57.997Z</time></trkpt><trkpt lat="44.8707267" lon="8.2840267"><ele>193.0</ele><time>2026-04-12T13:39:58.998Z</time></trkpt><trkpt lat="44.8708083" lon="8.2840733"><ele>193.0</ele><time>2026-04-12T13:39:59.997Z</time></trkpt><trkpt lat="44.8708917" lon="8.28412"><ele>193.0</ele><time>2026-04-12T13:40:00.999Z</time></trkpt><trkpt lat="44.8709883" lon="8.2841717"><ele>193.0</ele><time>2026-04-12T13:40:01.994Z</time></trkpt><trkpt lat="44.8710783" lon="8.2842283"><ele>193.0</ele><time>2026-04-12T13:40:02.998Z</time></trkpt><trkpt lat="44.8711683" lon="8.2842967"><ele>192.60000000000002</ele><time>2026-04-12T13:40:03.997Z</time></trkpt><trkpt lat="44.8712667" lon="8.2843683"><ele>192.20000000000002</ele><time>2026-04-12T13:40:04.998Z</time></trkpt><trkpt lat="44.871355" lon="8.284425"><ele>191.8</ele><time>2026-04-12T13:40:05.997Z</time></trkpt><trkpt lat="44.8714433" lon="8.2844983"><ele>191.4</ele><time>2026-04-12T13:40:06.996Z</time></trkpt><trkpt lat="44.871545" lon="8.2845733"><ele>191.0</ele><time>2026-04-12T13:40:07.994Z</time></trkpt><trkpt lat="44.8716367" lon="8.284635"><ele>191.0</ele><time>2026-04-12T13:40:08.995Z</time></trkpt><trkpt lat="44.8717333" lon="8.2846917"><ele>191.0</ele><time>2026-04-12T13:40:09.996Z</time></trkpt><trkpt lat="44.871815" lon="8.2847667"><ele>191.0</ele><time>2026-04-12T13:40:10.996Z</time></trkpt><trkpt lat="44.871885" lon="8.2848433"><ele>191.0</ele><time>2026-04-12T13:40:11.997Z</time></trkpt><trkpt lat="44.87196" lon="8.284895"><ele>191.0</ele><time>2026-04-12T13:40:12.997Z</time></trkpt><trkpt lat="44.8720317" lon="8.284925"><ele>191.0</ele><time>2026-04-12T13:40:13.999Z</time></trkpt><trkpt lat="44.8721217" lon="8.284965"><ele>189.33333333333331</ele><time>2026-04-12T13:40:15.998Z</time></trkpt><trkpt lat="44.872185" lon="8.28498"><ele>187.66666666666666</ele><time>2026-04-12T13:40:16.996Z</time></trkpt><trkpt lat="44.8722483" lon="8.2850267"><ele>186.0</ele><time>2026-04-12T13:40:17.999Z</time></trkpt><trkpt lat="44.872315" lon="8.2850667"><ele>184.33333333333334</ele><time>2026-04-12T13:40:19.003Z</time></trkpt><trkpt lat="44.87238" lon="8.2851183"><ele>182.66666666666669</ele><time>2026-04-12T13:40:19.996Z</time></trkpt><trkpt lat="44.8724533" lon="8.2851667"><ele>181.0</ele><time>2026-04-12T13:40:21.003Z</time></trkpt><trkpt lat="44.872525" lon="8.285245"><ele>181.0</ele><time>2026-04-12T13:40:22.004Z</time></trkpt><trkpt lat="44.8725983" lon="8.2853267"><ele>181.0</ele><time>2026-04-12T13:40:22.999Z</time></trkpt><trkpt lat="44.872655" lon="8.2854117"><ele>181.0</ele><time>2026-04-12T13:40:23.998Z</time></trkpt><trkpt lat="44.8727183" lon="8.2854917"><ele>181.0</ele><time>2026-04-12T13:40:24.999Z</time></trkpt><trkpt lat="44.8727667" lon="8.2855683"><ele>181.0</ele><time>2026-04-12T13:40:25.998Z</time></trkpt><trkpt lat="44.8728367" lon="8.2856383"><ele>181.0</ele><time>2026-04-12T13:40:27Z</time></trkpt><trkpt lat="44.8728783" lon="8.28572"><ele>182.28571428571428</ele><time>2026-04-12T13:40:27.997Z</time></trkpt><trkpt lat="44.87291" lon="8.285805"><ele>183.57142857142856</ele><time>2026-04-12T13:40:28.995Z</time></trkpt><trkpt lat="44.8729383" lon="8.2858933"><ele>184.85714285714286</ele><time>2026-04-12T13:40:30Z</time></trkpt><trkpt lat="44.8729583" lon="8.2859817"><ele>186.14285714285714</ele><time>2026-04-12T13:40:30.997Z</time></trkpt><trkpt lat="44.8729833" lon="8.286075"><ele>187.42857142857144</ele><time>2026-04-12T13:40:31.995Z</time></trkpt><trkpt lat="44.872995" lon="8.28617"><ele>188.71428571428572</ele><time>2026-04-12T13:40:33.003Z</time></trkpt><trkpt lat="44.87302" lon="8.2862583"><ele>190.0</ele><time>2026-04-12T13:40:33.994Z</time></trkpt><trkpt lat="44.87304" lon="8.286395"><ele>189.2</ele><time>2026-04-12T13:40:35.999Z</time></trkpt><trkpt lat="44.873065" lon="8.2865167"><ele>188.4</ele><time>2026-04-12T13:40:39Z</time></trkpt><trkpt lat="44.8730833" lon="8.2866283"><ele>187.60000000000002</ele><time>2026-04-12T13:40:40.994Z</time></trkpt><trkpt lat="44.8731083" lon="8.286775"><ele>186.8</ele><time>2026-04-12T13:40:42.998Z</time></trkpt><trkpt lat="44.8731633" lon="8.2869367"><ele>186.0</ele><time>2026-04-12T13:40:44.996Z</time></trkpt><trkpt lat="44.87321" lon="8.2870167"><ele>186.0</ele><time>2026-04-12T13:40:45.995Z</time></trkpt><trkpt lat="44.8732633" lon="8.2870983"><ele>186.0</ele><time>2026-04-12T13:40:46.998Z</time></trkpt><trkpt lat="44.87332" lon="8.2871933"><ele>186.0</ele><time>2026-04-12T13:40:47.994Z</time></trkpt><trkpt lat="44.8733783" lon="8.2872933"><ele>186.0</ele><time>2026-04-12T13:40:49Z</time></trkpt><trkpt lat="44.87343" lon="8.2873967"><ele>186.0</ele><time>2026-04-12T13:40:49.999Z</time></trkpt><trkpt lat="44.8734733" lon="8.2875067"><ele>186.0</ele><time>2026-04-12T13:40:50.998Z</time></trkpt><trkpt lat="44.873485" lon="8.28763"><ele>183.8</ele><time>2026-04-12T13:40:51.997Z</time></trkpt><trkpt lat="44.8734883" lon="8.28776"><ele>181.60000000000002</ele><time>2026-04-12T13:40:52.999Z</time></trkpt><trkpt lat="44.873475" lon="8.2878983"><ele>179.4</ele><time>2026-04-12T13:40:53.996Z</time></trkpt><trkpt lat="44.873455" lon="8.288025"><ele>177.2</ele><time>2026-04-12T13:40:54.998Z</time></trkpt><trkpt lat="44.8734117" lon="8.2881483"><ele>175.0</ele><time>2026-04-12T13:40:55.995Z</time></trkpt><trkpt lat="44.8733467" lon="8.2882583"><ele>175.0</ele><time>2026-04-12T13:40:56.997Z</time></trkpt><trkpt lat="44.8732783" lon="8.288345"><ele>175.0</ele><time>2026-04-12T13:40:57.995Z</time></trkpt><trkpt lat="44.8732133" lon="8.2884283"><ele>175.0</ele><time>2026-04-12T13:40:59.002Z</time></trkpt><trkpt lat="44.8731483" lon="8.28851"><ele>175.0</ele><time>2026-04-12T13:40:59.997Z</time></trkpt><trkpt lat="44.8730833" lon="8.2886033"><ele>175.0</ele><time>2026-04-12T13:41:00.999Z</time></trkpt><trkpt lat="44.8730267" lon="8.2887117"><ele>175.0</ele><time>2026-04-12T13:41:01.997Z</time></trkpt><trkpt lat="44.872975" lon="8.28884"><ele>175.0</ele><time>2026-04-12T13:41:02.996Z</time></trkpt><trkpt lat="44.872935" lon="8.2889783"><ele>175.0</ele><time>2026-04-12T13:41:03.998Z</time></trkpt><trkpt lat="44.872895" lon="8.2891233"><ele>175.0</ele><time>2026-04-12T13:41:04.999Z</time></trkpt><trkpt lat="44.8728633" lon="8.2892817"><ele>175.0</ele><time>2026-04-12T13:41:05.997Z</time></trkpt><trkpt lat="44.8728483" lon="8.2894433"><ele>176.5</ele><time>2026-04-12T13:41:07.005Z</time></trkpt><trkpt lat="44.87284" lon="8.2896083"><ele>178.0</ele><time>2026-04-12T13:41:08.003Z</time></trkpt><trkpt lat="44.8728417" lon="8.2897767"><ele>179.5</ele><time>2026-04-12T13:41:08.995Z</time></trkpt><trkpt lat="44.8728467" lon="8.28995"><ele>181.0</ele><time>2026-04-12T13:41:09.997Z</time></trkpt><trkpt lat="44.8728617" lon="8.290125"><ele>181.0</ele><time>2026-04-12T13:41:10.995Z</time></trkpt><trkpt lat="44.8728817" lon="8.290295"><ele>181.0</ele><time>2026-04-12T13:41:12.002Z</time></trkpt><trkpt lat="44.8729117" lon="8.29047"><ele>181.0</ele><time>2026-04-12T13:41:12.998Z</time></trkpt><trkpt lat="44.8729433" lon="8.2906417"><ele>181.0</ele><time>2026-04-12T13:41:13.997Z</time></trkpt><trkpt lat="44.87297" lon="8.2908083"><ele>177.75</ele><time>2026-04-12T13:41:14.994Z</time></trkpt><trkpt lat="44.8729967" lon="8.2909733"><ele>174.5</ele><time>2026-04-12T13:41:15.994Z</time></trkpt><trkpt lat="44.873025" lon="8.29115"><ele>171.25</ele><time>2026-04-12T13:41:16.994Z</time></trkpt><trkpt lat="44.8730533" lon="8.2913333"><ele>168.0</ele><time>2026-04-12T13:41:17.995Z</time></trkpt><trkpt lat="44.8730767" lon="8.2915217"><ele>166.0</ele><time>2026-04-12T13:41:18.997Z</time></trkpt><trkpt lat="44.8731017" lon="8.29173"><ele>164.0</ele><time>2026-04-12T13:41:19.997Z</time></trkpt><trkpt lat="44.8731033" lon="8.2919283"><ele>162.0</ele><time>2026-04-12T13:41:20.997Z</time></trkpt><trkpt lat="44.87309" lon="8.2921267"><ele>160.0</ele><time>2026-04-12T13:41:21.997Z</time></trkpt><trkpt lat="44.8730483" lon="8.29233"><ele>158.5</ele><time>2026-04-12T13:41:22.996Z</time></trkpt><trkpt lat="44.8730133" lon="8.2925333"><ele>157.0</ele><time>2026-04-12T13:41:24.004Z</time></trkpt><trkpt lat="44.8729817" lon="8.29273"><ele>155.5</ele><time>2026-04-12T13:41:25.002Z</time></trkpt><trkpt lat="44.872975" lon="8.2929317"><ele>154.0</ele><time>2026-04-12T13:41:25.999Z</time></trkpt><trkpt lat="44.8729667" lon="8.2931267"><ele>153.0</ele><time>2026-04-12T13:41:26.998Z</time></trkpt><trkpt lat="44.87296" lon="8.2933183"><ele>152.0</ele><time>2026-04-12T13:41:27.997Z</time></trkpt><trkpt lat="44.87295" lon="8.293515"><ele>151.0</ele><time>2026-04-12T13:41:28.997Z</time></trkpt><trkpt lat="44.8729417" lon="8.2937117"><ele>150.0</ele><time>2026-04-12T13:41:29.993Z</time></trkpt><trkpt lat="44.8729167" lon="8.2939017"><ele>149.5</ele><time>2026-04-12T13:41:30.995Z</time></trkpt><trkpt lat="44.8728717" lon="8.2940917"><ele>149.0</ele><time>2026-04-12T13:41:31.998Z</time></trkpt><trkpt lat="44.8728183" lon="8.2942817"><ele>148.5</ele><time>2026-04-12T13:41:32.995Z</time></trkpt><trkpt lat="44.8727583" lon="8.2944683"><ele>148.0</ele><time>2026-04-12T13:41:34Z</time></trkpt><trkpt lat="44.8727117" lon="8.2946583"><ele>149.5</ele><time>2026-04-12T13:41:34.996Z</time></trkpt><trkpt lat="44.8726767" lon="8.29484"><ele>151.0</ele><time>2026-04-12T13:41:35.997Z</time></trkpt><trkpt lat="44.872665" lon="8.2950183"><ele>152.5</ele><time>2026-04-12T13:41:36.998Z</time></trkpt><trkpt lat="44.8726717" lon="8.2951933"><ele>154.0</ele><time>2026-04-12T13:41:37.999Z</time></trkpt><trkpt lat="44.8726933" lon="8.295375"><ele>154.0</ele><time>2026-04-12T13:41:39Z</time></trkpt><trkpt lat="44.8727317" lon="8.2955517"><ele>154.0</ele><time>2026-04-12T13:41:40Z</time></trkpt><trkpt lat="44.872785" lon="8.2957183"><ele>154.0</ele><time>2026-04-12T13:41:40.993Z</time></trkpt><trkpt lat="44.8728517" lon="8.2958683"><ele>154.0</ele><time>2026-04-12T13:41:41.996Z</time></trkpt><trkpt lat="44.8729317" lon="8.296005"><ele>149.75</ele><time>2026-04-12T13:41:42.996Z</time></trkpt><trkpt lat="44.8730133" lon="8.2961317"><ele>145.5</ele><time>2026-04-12T13:41:43.997Z</time></trkpt><trkpt lat="44.873115" lon="8.2962333"><ele>141.25</ele><time>2026-04-12T13:41:45Z</time></trkpt><trkpt lat="44.8732283" lon="8.2963233"><ele>137.0</ele><time>2026-04-12T13:41:45.997Z</time></trkpt><trkpt lat="44.8733483" lon="8.296395"><ele>132.75</ele><time>2026-04-12T13:41:46.998Z</time></trkpt><trkpt lat="44.8734683" lon="8.296445"><ele>128.5</ele><time>2026-04-12T13:41:48Z</time></trkpt><trkpt lat="44.873585" lon="8.2964833"><ele>124.25</ele><time>2026-04-12T13:41:48.998Z</time></trkpt><trkpt lat="44.8737033" lon="8.2965117"><ele>120.0</ele><time>2026-04-12T13:41:49.997Z</time></trkpt><trkpt lat="44.87382" lon="8.296535"><ele>120.0</ele><time>2026-04-12T13:41:50.999Z</time></trkpt><trkpt lat="44.8739367" lon="8.2965533"><ele>120.0</ele><time>2026-04-12T13:41:51.999Z</time></trkpt><trkpt lat="44.8740517" lon="8.2965633"><ele>120.0</ele><time>2026-04-12T13:41:52.995Z</time></trkpt><trkpt lat="44.8741617" lon="8.2965583"><ele>120.0</ele><time>2026-04-12T13:41:53.998Z</time></trkpt><trkpt lat="44.8742517" lon="8.2965567"><ele>120.0</ele><time>2026-04-12T13:41:54.999Z</time></trkpt><trkpt lat="44.8743283" lon="8.296555"><ele>119.16666666666667</ele><time>2026-04-12T13:41:56.002Z</time></trkpt><trkpt lat="44.8744017" lon="8.2965617"><ele>118.33333333333334</ele><time>2026-04-12T13:41:56.998Z</time></trkpt><trkpt lat="44.874475" lon="8.296575"><ele>117.5</ele><time>2026-04-12T13:41:57.993Z</time></trkpt><trkpt lat="44.874545" lon="8.2966017"><ele>116.66666666666667</ele><time>2026-04-12T13:41:58.993Z</time></trkpt><trkpt lat="44.87459" lon="8.2967217"><ele>115.83333333333334</ele><time>2026-04-12T13:41:59.999Z</time></trkpt><trkpt lat="44.8746233" lon="8.2968467"><ele>115.0</ele><time>2026-04-12T13:42:00.995Z</time></trkpt><trkpt lat="44.8746383" lon="8.297"><ele>115.0</ele><time>2026-04-12T13:42:01.996Z</time></trkpt><trkpt lat="44.8746483" lon="8.2971683"><ele>115.0</ele><time>2026-04-12T13:42:02.998Z</time></trkpt><trkpt lat="44.87466" lon="8.2973417"><ele>115.0</ele><time>2026-04-12T13:42:03.997Z</time></trkpt><trkpt lat="44.874675" lon="8.2975233"><ele>115.0</ele><time>2026-04-12T13:42:04.999Z</time></trkpt><trkpt lat="44.8747067" lon="8.2977133"><ele>113.0</ele><time>2026-04-12T13:42:05.993Z</time></trkpt><trkpt lat="44.8747483" lon="8.2979183"><ele>111.0</ele><time>2026-04-12T13:42:07.003Z</time></trkpt><trkpt lat="44.8748167" lon="8.2981417"><ele>109.0</ele><time>2026-04-12T13:42:07.996Z</time></trkpt><trkpt lat="44.87491" lon="8.2983967"><ele>108.0</ele><time>2026-04-12T13:42:08.998Z</time></trkpt><trkpt lat="44.8750067" lon="8.29867"><ele>107.0</ele><time>2026-04-12T13:42:09.997Z</time></trkpt><trkpt lat="44.8751133" lon="8.2989917"><ele>107.0</ele><time>2026-04-12T13:42:10.996Z</time></trkpt><trkpt lat="44.87523" lon="8.2993417"><ele>107.0</ele><time>2026-04-12T13:42:11.997Z</time></trkpt><trkpt lat="44.875355" lon="8.2997217"><ele>107.0</ele><time>2026-04-12T13:42:12.995Z</time></trkpt><trkpt lat="44.8754817" lon="8.3000933"><ele>107.0</ele><time>2026-04-12T13:42:13.995Z</time></trkpt><trkpt lat="44.875605" lon="8.3004517"><ele>107.5</ele><time>2026-04-12T13:42:14.993Z</time></trkpt><trkpt lat="44.8757267" lon="8.300805"><ele>108.0</ele><time>2026-04-12T13:42:15.996Z</time></trkpt><trkpt lat="44.875835" lon="8.30114"><ele>107.5</ele><time>2026-04-12T13:42:16.995Z</time></trkpt><trkpt lat="44.8759383" lon="8.30146"><ele>107.0</ele><time>2026-04-12T13:42:17.994Z</time></trkpt><trkpt lat="44.8760417" lon="8.3017617"><ele>107.0</ele><time>2026-04-12T13:42:18.995Z</time></trkpt><trkpt lat="44.8761467" lon="8.3020583"><ele>107.0</ele><time>2026-04-12T13:42:19.997Z</time></trkpt><trkpt lat="44.8762533" lon="8.302345"><ele>107.33333333333333</ele><time>2026-04-12T13:42:20.993Z</time></trkpt><trkpt lat="44.8763683" lon="8.302615"><ele>107.66666666666666</ele><time>2026-04-12T13:42:22Z</time></trkpt><trkpt lat="44.876485" lon="8.30288"><ele>108.0</ele><time>2026-04-12T13:42:23Z</time></trkpt><trkpt lat="44.87661" lon="8.3031483"><ele>108.0</ele><time>2026-04-12T13:42:23.995Z</time></trkpt><trkpt lat="44.876735" lon="8.3034117"><ele>108.0</ele><time>2026-04-12T13:42:24.996Z</time></trkpt><trkpt lat="44.876865" lon="8.3036833"><ele>106.5</ele><time>2026-04-12T13:42:25.996Z</time></trkpt><trkpt lat="44.8769967" lon="8.3039533"><ele>105.0</ele><time>2026-04-12T13:42:27Z</time></trkpt><trkpt lat="44.87712" lon="8.30422"><ele>105.0</ele><time>2026-04-12T13:42:27.996Z</time></trkpt><trkpt lat="44.877235" lon="8.3044833"><ele>105.0</ele><time>2026-04-12T13:42:28.992Z</time></trkpt><trkpt lat="44.8773467" lon="8.3047267"><ele>105.0</ele><time>2026-04-12T13:42:29.996Z</time></trkpt><trkpt lat="44.877465" lon="8.30495"><ele>105.33333333333334</ele><time>2026-04-12T13:42:30.997Z</time></trkpt><trkpt lat="44.8775883" lon="8.3051383"><ele>105.66666666666667</ele><time>2026-04-12T13:42:31.997Z</time></trkpt><trkpt lat="44.8777283" lon="8.3053083"><ele>106.0</ele><time>2026-04-12T13:42:32.999Z</time></trkpt><trkpt lat="44.8778767" lon="8.3054467"><ele>106.66666666666667</ele><time>2026-04-12T13:42:33.995Z</time></trkpt><trkpt lat="44.8780367" lon="8.305555"><ele>107.33333333333334</ele><time>2026-04-12T13:42:34.995Z</time></trkpt><trkpt lat="44.87821" lon="8.3056317"><ele>108.0</ele><time>2026-04-12T13:42:35.999Z</time></trkpt><trkpt lat="44.8783983" lon="8.30568"><ele>104.66666666666666</ele><time>2026-04-12T13:42:37.001Z</time></trkpt><trkpt lat="44.8786" lon="8.3057317"><ele>101.33333333333333</ele><time>2026-04-12T13:42:37.995Z</time></trkpt><trkpt lat="44.878815" lon="8.30579"><ele>98.0</ele><time>2026-04-12T13:42:39Z</time></trkpt><trkpt lat="44.8790433" lon="8.305845"><ele>100.0</ele><time>2026-04-12T13:42:39.993Z</time></trkpt><trkpt lat="44.8792783" lon="8.3059083"><ele>102.0</ele><time>2026-04-12T13:42:41.003Z</time></trkpt><trkpt lat="44.8795233" lon="8.3059717"><ele>102.0</ele><time>2026-04-12T13:42:41.998Z</time></trkpt><trkpt lat="44.87977" lon="8.30604"><ele>102.0</ele><time>2026-04-12T13:42:43.002Z</time></trkpt><trkpt lat="44.8800167" lon="8.3061083"><ele>104.0</ele><time>2026-04-12T13:42:43.994Z</time></trkpt><trkpt lat="44.8802517" lon="8.306175"><ele>106.0</ele><time>2026-04-12T13:42:44.998Z</time></trkpt><trkpt lat="44.8804717" lon="8.30624"><ele>106.0</ele><time>2026-04-12T13:42:45.996Z</time></trkpt><trkpt lat="44.8806833" lon="8.3062967"><ele>106.0</ele><time>2026-04-12T13:42:46.996Z</time></trkpt><trkpt lat="44.8808833" lon="8.3063483"><ele>106.0</ele><time>2026-04-12T13:42:47.998Z</time></trkpt><trkpt lat="44.8810683" lon="8.3064033"><ele>106.33333333333334</ele><time>2026-04-12T13:42:48.996Z</time></trkpt><trkpt lat="44.881245" lon="8.3064767"><ele>106.66666666666666</ele><time>2026-04-12T13:42:49.998Z</time></trkpt><trkpt lat="44.88141" lon="8.306565"><ele>107.0</ele><time>2026-04-12T13:42:50.999Z</time></trkpt><trkpt lat="44.8815633" lon="8.3066783"><ele>107.0</ele><time>2026-04-12T13:42:51.996Z</time></trkpt><trkpt lat="44.88171" lon="8.3068133"><ele>107.0</ele><time>2026-04-12T13:42:52.997Z</time></trkpt><trkpt lat="44.88184" lon="8.306945"><ele>107.0</ele><time>2026-04-12T13:42:53.996Z</time></trkpt><trkpt lat="44.8819367" lon="8.3070667"><ele>106.6</ele><time>2026-04-12T13:42:54.998Z</time></trkpt><trkpt lat="44.8820067" lon="8.30717"><ele>106.19999999999999</ele><time>2026-04-12T13:42:55.997Z</time></trkpt><trkpt lat="44.8820483" lon="8.3072817"><ele>105.8</ele><time>2026-04-12T13:42:57Z</time></trkpt><trkpt lat="44.882075" lon="8.3074133"><ele>105.4</ele><time>2026-04-12T13:42:57.996Z</time></trkpt><trkpt lat="44.8820733" lon="8.30755"><ele>105.0</ele><time>2026-04-12T13:42:59Z</time></trkpt><trkpt lat="44.8820283" lon="8.3077033"><ele>104.33333333333334</ele><time>2026-04-12T13:42:59.996Z</time></trkpt><trkpt lat="44.88196" lon="8.3078633"><ele>103.66666666666667</ele><time>2026-04-12T13:43:00.997Z</time></trkpt><trkpt lat="44.8818533" lon="8.30803"><ele>103.0</ele><time>2026-04-12T13:43:01.999Z</time></trkpt><trkpt lat="44.881735" lon="8.3082133"><ele>104.66666666666667</ele><time>2026-04-12T13:43:02.998Z</time></trkpt><trkpt lat="44.8816183" lon="8.3083983"><ele>106.33333333333334</ele><time>2026-04-12T13:43:04.005Z</time></trkpt><trkpt lat="44.8814983" lon="8.30859"><ele>108.0</ele><time>2026-04-12T13:43:04.997Z</time></trkpt><trkpt lat="44.8813867" lon="8.308785"><ele>108.0</ele><time>2026-04-12T13:43:05.994Z</time></trkpt><trkpt lat="44.881265" lon="8.30899"><ele>108.0</ele><time>2026-04-12T13:43:06.995Z</time></trkpt><trkpt lat="44.881155" lon="8.3091817"><ele>108.0</ele><time>2026-04-12T13:43:07.995Z</time></trkpt><trkpt lat="44.8810383" lon="8.30937"><ele>107.75</ele><time>2026-04-12T13:43:08.996Z</time></trkpt><trkpt lat="44.88093" lon="8.30954"><ele>107.5</ele><time>2026-04-12T13:43:09.994Z</time></trkpt><trkpt lat="44.8808417" lon="8.3096817"><ele>107.25</ele><time>2026-04-12T13:43:10.999Z</time></trkpt><trkpt lat="44.880775" lon="8.3097917"><ele>107.0</ele><time>2026-04-12T13:43:11.999Z</time></trkpt><trkpt lat="44.880765" lon="8.3099617"><ele>107.75</ele><time>2026-04-12T13:43:14.001Z</time></trkpt><trkpt lat="44.8808683" lon="8.3100733"><ele>108.5</ele><time>2026-04-12T13:43:15.996Z</time></trkpt><trkpt lat="44.881015" lon="8.3100883"><ele>109.25</ele><time>2026-04-12T13:43:17Z</time></trkpt><trkpt lat="44.8811533" lon="8.3101"><ele>110.0</ele><time>2026-04-12T13:43:17.996Z</time></trkpt><trkpt lat="44.8812983" lon="8.3100983"><ele>110.66666666666666</ele><time>2026-04-12T13:43:18.996Z</time></trkpt><trkpt lat="44.88145" lon="8.31009"><ele>111.33333333333334</ele><time>2026-04-12T13:43:20Z</time></trkpt><trkpt lat="44.8816133" lon="8.310055"><ele>112.0</ele><time>2026-04-12T13:43:20.998Z</time></trkpt><trkpt lat="44.8817933" lon="8.3099983"><ele>112.66666666666667</ele><time>2026-04-12T13:43:21.998Z</time></trkpt><trkpt lat="44.8819767" lon="8.3099283"><ele>113.33333333333334</ele><time>2026-04-12T13:43:22.995Z</time></trkpt><trkpt lat="44.8821567" lon="8.3098533"><ele>114.0</ele><time>2026-04-12T13:43:23.995Z</time></trkpt><trkpt lat="44.8823317" lon="8.30978"><ele>114.0</ele><time>2026-04-12T13:43:24.999Z</time></trkpt><trkpt lat="44.8825117" lon="8.30976"><ele>114.0</ele><time>2026-04-12T13:43:25.996Z</time></trkpt><trkpt lat="44.882655" lon="8.30975"><ele>114.0</ele><time>2026-04-12T13:43:26.995Z</time></trkpt><trkpt lat="44.882775" lon="8.3097817"><ele>114.0</ele><time>2026-04-12T13:43:27.994Z</time></trkpt><trkpt lat="44.8828767" lon="8.309855"><ele>114.0</ele><time>2026-04-12T13:43:28.992Z</time></trkpt><trkpt lat="44.8829733" lon="8.30997"><ele>114.0</ele><time>2026-04-12T13:43:30Z</time></trkpt><trkpt lat="44.883045" lon="8.310115"><ele>114.0</ele><time>2026-04-12T13:43:30.997Z</time></trkpt><trkpt lat="44.8831217" lon="8.3102867"><ele>114.0</ele><time>2026-04-12T13:43:31.999Z</time></trkpt><trkpt lat="44.8832017" lon="8.3104717"><ele>114.0</ele><time>2026-04-12T13:43:33.002Z</time></trkpt><trkpt lat="44.8832717" lon="8.310665"><ele>114.0</ele><time>2026-04-12T13:43:33.997Z</time></trkpt><trkpt lat="44.8833417" lon="8.31085"><ele>114.0</ele><time>2026-04-12T13:43:34.995Z</time></trkpt><trkpt lat="44.883405" lon="8.3110233"><ele>114.0</ele><time>2026-04-12T13:43:35.996Z</time></trkpt><trkpt lat="44.88346" lon="8.311175"><ele>115.5</ele><time>2026-04-12T13:43:36.998Z</time></trkpt><trkpt lat="44.8835033" lon="8.3112883"><ele>117.0</ele><time>2026-04-12T13:43:37.998Z</time></trkpt><trkpt lat="44.8835367" lon="8.3113817"><ele>118.5</ele><time>2026-04-12T13:43:38.998Z</time></trkpt><trkpt lat="44.8835733" lon="8.31148"><ele>120.0</ele><time>2026-04-12T13:43:40.999Z</time></trkpt><trkpt lat="44.88369" lon="8.31148"><ele>121.5</ele><time>2026-04-12T13:43:58.994Z</time></trkpt><trkpt lat="44.8837583" lon="8.31143"><ele>123.0</ele><time>2026-04-12T13:43:59.996Z</time></trkpt><trkpt lat="44.8838383" lon="8.31136"><ele>123.0</ele><time>2026-04-12T13:44:01Z</time></trkpt><trkpt lat="44.88395" lon="8.3112467"><ele>123.0</ele><time>2026-04-12T13:44:01.993Z</time></trkpt><trkpt lat="44.8841033" lon="8.311085"><ele>123.0</ele><time>2026-04-12T13:44:02.995Z</time></trkpt><trkpt lat="44.8842817" lon="8.3109267"><ele>123.0</ele><time>2026-04-12T13:44:03.997Z</time></trkpt><trkpt lat="44.8845233" lon="8.3107717"><ele>123.0</ele><time>2026-04-12T13:44:04.999Z</time></trkpt><trkpt lat="44.8847633" lon="8.3106333"><ele>121.5</ele><time>2026-04-12T13:44:05.994Z</time></trkpt><trkpt lat="44.88504" lon="8.3105033"><ele>120.0</ele><time>2026-04-12T13:44:06.998Z</time></trkpt><trkpt lat="44.8853233" lon="8.3103633"><ele>120.0</ele><time>2026-04-12T13:44:07.997Z</time></trkpt><trkpt lat="44.8856133" lon="8.3102267"><ele>120.0</ele><time>2026-04-12T13:44:08.996Z</time></trkpt><trkpt lat="44.8859067" lon="8.31009"><ele>126.0</ele><time>2026-04-12T13:44:09.997Z</time></trkpt><trkpt lat="44.8861933" lon="8.3099517"><ele>132.0</ele><time>2026-04-12T13:44:10.991Z</time></trkpt><trkpt lat="44.8864667" lon="8.3098267"><ele>127.5</ele><time>2026-04-12T13:44:11.997Z</time></trkpt><trkpt lat="44.8867217" lon="8.30971"><ele>123.0</ele><time>2026-04-12T13:44:12.995Z</time></trkpt><trkpt lat="44.8869717" lon="8.3096067"><ele>123.0</ele><time>2026-04-12T13:44:13.995Z</time></trkpt><trkpt lat="44.887205" lon="8.3095033"><ele>123.0</ele><time>2026-04-12T13:44:14.998Z</time></trkpt><trkpt lat="44.8874267" lon="8.3093983"><ele>126.5</ele><time>2026-04-12T13:44:15.997Z</time></trkpt><trkpt lat="44.887645" lon="8.309295"><ele>130.0</ele><time>2026-04-12T13:44:16.997Z</time></trkpt><trkpt lat="44.8878517" lon="8.3091833"><ele>130.0</ele><time>2026-04-12T13:44:17.994Z</time></trkpt><trkpt lat="44.8880517" lon="8.30905"><ele>130.0</ele><time>2026-04-12T13:44:18.994Z</time></trkpt><trkpt lat="44.8882533" lon="8.3089017"><ele>130.0</ele><time>2026-04-12T13:44:20Z</time></trkpt><trkpt lat="44.8884633" lon="8.3087467"><ele>132.5</ele><time>2026-04-12T13:44:20.998Z</time></trkpt><trkpt lat="44.8886683" lon="8.30857"><ele>135.0</ele><time>2026-04-12T13:44:21.997Z</time></trkpt><trkpt lat="44.888875" lon="8.308395"><ele>135.0</ele><time>2026-04-12T13:44:22.998Z</time></trkpt><trkpt lat="44.8890833" lon="8.3082233"><ele>135.0</ele><time>2026-04-12T13:44:23.997Z</time></trkpt><trkpt lat="44.88929" lon="8.3080483"><ele>131.0</ele><time>2026-04-12T13:44:25.002Z</time></trkpt><trkpt lat="44.8894967" lon="8.307875"><ele>127.0</ele><time>2026-04-12T13:44:25.993Z</time></trkpt><trkpt lat="44.8896917" lon="8.3077083"><ele>127.0</ele><time>2026-04-12T13:44:26.999Z</time></trkpt><trkpt lat="44.889865" lon="8.3075483"><ele>127.0</ele><time>2026-04-12T13:44:27.993Z</time></trkpt><trkpt lat="44.8900117" lon="8.3073833"><ele>127.0</ele><time>2026-04-12T13:44:28.995Z</time></trkpt><trkpt lat="44.8901367" lon="8.3072083"><ele>127.0</ele><time>2026-04-12T13:44:29.996Z</time></trkpt><trkpt lat="44.8902383" lon="8.3070083"><ele>127.0</ele><time>2026-04-12T13:44:30.995Z</time></trkpt><trkpt lat="44.89031" lon="8.3067983"><ele>127.0</ele><time>2026-04-12T13:44:31.995Z</time></trkpt><trkpt lat="44.8903483" lon="8.3065717"><ele>131.0</ele><time>2026-04-12T13:44:32.996Z</time></trkpt><trkpt lat="44.8903533" lon="8.3063367"><ele>135.0</ele><time>2026-04-12T13:44:33.998Z</time></trkpt><trkpt lat="44.890325" lon="8.3060983"><ele>139.0</ele><time>2026-04-12T13:44:34.996Z</time></trkpt><trkpt lat="44.890275" lon="8.305865"><ele>139.0</ele><time>2026-04-12T13:44:35.995Z</time></trkpt><trkpt lat="44.8902133" lon="8.3056367"><ele>139.0</ele><time>2026-04-12T13:44:36.998Z</time></trkpt><trkpt lat="44.8901333" lon="8.3054167"><ele>139.0</ele><time>2026-04-12T13:44:37.993Z</time></trkpt><trkpt lat="44.8900567" lon="8.30522"><ele>139.75</ele><time>2026-04-12T13:44:38.993Z</time></trkpt><trkpt lat="44.8900017" lon="8.30503"><ele>140.5</ele><time>2026-04-12T13:44:40.002Z</time></trkpt><trkpt lat="44.8899783" lon="8.3048467"><ele>141.25</ele><time>2026-04-12T13:44:40.993Z</time></trkpt><trkpt lat="44.88997" lon="8.3046567"><ele>142.0</ele><time>2026-04-12T13:44:41.993Z</time></trkpt><trkpt lat="44.8899967" lon="8.3044667"><ele>142.33333333333334</ele><time>2026-04-12T13:44:42.995Z</time></trkpt><trkpt lat="44.89006" lon="8.304265"><ele>142.66666666666666</ele><time>2026-04-12T13:44:43.999Z</time></trkpt><trkpt lat="44.89016" lon="8.3040933"><ele>143.0</ele><time>2026-04-12T13:44:44.995Z</time></trkpt><trkpt lat="44.8902733" lon="8.3039217"><ele>142.33333333333331</ele><time>2026-04-12T13:44:45.997Z</time></trkpt><trkpt lat="44.8904183" lon="8.3037567"><ele>141.66666666666666</ele><time>2026-04-12T13:44:46.996Z</time></trkpt><trkpt lat="44.8905617" lon="8.3035717"><ele>141.0</ele><time>2026-04-12T13:44:47.994Z</time></trkpt><trkpt lat="44.8907317" lon="8.3033833"><ele>141.0</ele><time>2026-04-12T13:44:48.994Z</time></trkpt><trkpt lat="44.8909" lon="8.3031767"><ele>141.0</ele><time>2026-04-12T13:44:49.995Z</time></trkpt><trkpt lat="44.8910767" lon="8.3029583"><ele>139.5</ele><time>2026-04-12T13:44:50.996Z</time></trkpt><trkpt lat="44.89126" lon="8.3027433"><ele>138.0</ele><time>2026-04-12T13:44:51.999Z</time></trkpt><trkpt lat="44.8914467" lon="8.302515"><ele>138.0</ele><time>2026-04-12T13:44:53.001Z</time></trkpt><trkpt lat="44.891635" lon="8.3022917"><ele>138.0</ele><time>2026-04-12T13:44:53.997Z</time></trkpt><trkpt lat="44.8918233" lon="8.3020683"><ele>135.0</ele><time>2026-04-12T13:44:54.995Z</time></trkpt><trkpt lat="44.8920117" lon="8.301845"><ele>132.0</ele><time>2026-04-12T13:44:55.994Z</time></trkpt><trkpt lat="44.892205" lon="8.3016317"><ele>124.5</ele><time>2026-04-12T13:44:56.995Z</time></trkpt><trkpt lat="44.89239" lon="8.3014133"><ele>117.0</ele><time>2026-04-12T13:44:57.994Z</time></trkpt><trkpt lat="44.8925717" lon="8.3011967"><ele>121.0</ele><time>2026-04-12T13:44:58.995Z</time></trkpt><trkpt lat="44.8927533" lon="8.3009883"><ele>125.0</ele><time>2026-04-12T13:44:59.996Z</time></trkpt><trkpt lat="44.892935" lon="8.3007833"><ele>120.0</ele><time>2026-04-12T13:45:00.995Z</time></trkpt><trkpt lat="44.8931133" lon="8.3005817"><ele>115.0</ele><time>2026-04-12T13:45:01.996Z</time></trkpt><trkpt lat="44.89329" lon="8.30038"><ele>117.0</ele><time>2026-04-12T13:45:02.996Z</time></trkpt><trkpt lat="44.8934667" lon="8.3001767"><ele>119.0</ele><time>2026-04-12T13:45:04Z</time></trkpt><trkpt lat="44.893645" lon="8.29997"><ele>119.0</ele><time>2026-04-12T13:45:04.995Z</time></trkpt><trkpt lat="44.8938233" lon="8.29976"><ele>119.0</ele><time>2026-04-12T13:45:05.997Z</time></trkpt><trkpt lat="44.8939983" lon="8.2995517"><ele>118.0</ele><time>2026-04-12T13:45:06.996Z</time></trkpt><trkpt lat="44.8941767" lon="8.2993417"><ele>117.0</ele><time>2026-04-12T13:45:07.997Z</time></trkpt><trkpt lat="44.8943517" lon="8.299135"><ele>117.0</ele><time>2026-04-12T13:45:08.995Z</time></trkpt><trkpt lat="44.8945317" lon="8.2989217"><ele>117.0</ele><time>2026-04-12T13:45:09.992Z</time></trkpt><trkpt lat="44.89471" lon="8.2987033"><ele>117.0</ele><time>2026-04-12T13:45:10.997Z</time></trkpt><trkpt lat="44.8948917" lon="8.2984867"><ele>117.0</ele><time>2026-04-12T13:45:11.996Z</time></trkpt><trkpt lat="44.8950717" lon="8.2982733"><ele>117.0</ele><time>2026-04-12T13:45:12.999Z</time></trkpt><trkpt lat="44.8952517" lon="8.2980617"><ele>117.0</ele><time>2026-04-12T13:45:13.992Z</time></trkpt><trkpt lat="44.89543" lon="8.29785"><ele>117.0</ele><time>2026-04-12T13:45:14.996Z</time></trkpt><trkpt lat="44.89561" lon="8.2976383"><ele>117.0</ele><time>2026-04-12T13:45:15.994Z</time></trkpt><trkpt lat="44.89579" lon="8.297425"><ele>117.0</ele><time>2026-04-12T13:45:16.993Z</time></trkpt><trkpt lat="44.89597" lon="8.2972133"><ele>117.0</ele><time>2026-04-12T13:45:17.996Z</time></trkpt><trkpt lat="44.89615" lon="8.2970017"><ele>117.0</ele><time>2026-04-12T13:45:18.998Z</time></trkpt><trkpt lat="44.89633" lon="8.2967933"><ele>117.0</ele><time>2026-04-12T13:45:19.993Z</time></trkpt><trkpt lat="44.89651" lon="8.2965817"><ele>117.0</ele><time>2026-04-12T13:45:20.995Z</time></trkpt><trkpt lat="44.8966883" lon="8.2963683"><ele>117.0</ele><time>2026-04-12T13:45:21.994Z</time></trkpt><trkpt lat="44.896865" lon="8.2961583"><ele>117.0</ele><time>2026-04-12T13:45:22.994Z</time></trkpt><trkpt lat="44.8970417" lon="8.2959467"><ele>117.0</ele><time>2026-04-12T13:45:23.999Z</time></trkpt><trkpt lat="44.8972167" lon="8.2957367"><ele>116.5</ele><time>2026-04-12T13:45:24.995Z</time></trkpt><trkpt lat="44.89739" lon="8.29553"><ele>116.0</ele><time>2026-04-12T13:45:26.002Z</time></trkpt><trkpt lat="44.8975633" lon="8.2953267"><ele>116.5</ele><time>2026-04-12T13:45:26.996Z</time></trkpt><trkpt lat="44.8977367" lon="8.2951233"><ele>117.0</ele><time>2026-04-12T13:45:27.997Z</time></trkpt><trkpt lat="44.89791" lon="8.2949217"><ele>117.0</ele><time>2026-04-12T13:45:28.998Z</time></trkpt><trkpt lat="44.89808" lon="8.29472"><ele>117.0</ele><time>2026-04-12T13:45:29.997Z</time></trkpt><trkpt lat="44.89825" lon="8.2945183"><ele>117.0</ele><time>2026-04-12T13:45:30.997Z</time></trkpt><trkpt lat="44.8984183" lon="8.2943133"><ele>117.0</ele><time>2026-04-12T13:45:31.994Z</time></trkpt><trkpt lat="44.8985883" lon="8.2941133"><ele>117.0</ele><time>2026-04-12T13:45:33.002Z</time></trkpt><trkpt lat="44.89876" lon="8.2939083"><ele>117.0</ele><time>2026-04-12T13:45:33.999Z</time></trkpt><trkpt lat="44.8989283" lon="8.2937033"><ele>116.66666666666666</ele><time>2026-04-12T13:45:34.994Z</time></trkpt><trkpt lat="44.8991" lon="8.2935"><ele>116.33333333333333</ele><time>2026-04-12T13:45:36.001Z</time></trkpt><trkpt lat="44.8992717" lon="8.293295"><ele>116.0</ele><time>2026-04-12T13:45:36.996Z</time></trkpt><trkpt lat="44.8994433" lon="8.2930867"><ele>115.5</ele><time>2026-04-12T13:45:37.996Z</time></trkpt><trkpt lat="44.899615" lon="8.2928817"><ele>115.0</ele><time>2026-04-12T13:45:38.997Z</time></trkpt><trkpt lat="44.8997883" lon="8.2926733"><ele>115.0</ele><time>2026-04-12T13:45:39.996Z</time></trkpt><trkpt lat="44.8999633" lon="8.2924617"><ele>115.0</ele><time>2026-04-12T13:45:40.995Z</time></trkpt><trkpt lat="44.9001367" lon="8.2922533"><ele>116.0</ele><time>2026-04-12T13:45:41.996Z</time></trkpt><trkpt lat="44.900315" lon="8.2920467"><ele>117.0</ele><time>2026-04-12T13:45:42.995Z</time></trkpt><trkpt lat="44.9004917" lon="8.2918417"><ele>117.0</ele><time>2026-04-12T13:45:43.998Z</time></trkpt><trkpt lat="44.9006683" lon="8.2916333"><ele>117.0</ele><time>2026-04-12T13:45:44.997Z</time></trkpt><trkpt lat="44.9008467" lon="8.2914217"><ele>117.5</ele><time>2026-04-12T13:45:45.997Z</time></trkpt><trkpt lat="44.901025" lon="8.29121"><ele>118.0</ele><time>2026-04-12T13:45:46.999Z</time></trkpt><trkpt lat="44.9012033" lon="8.2909933"><ele>118.0</ele><time>2026-04-12T13:45:47.999Z</time></trkpt><trkpt lat="44.901385" lon="8.29078"><ele>118.0</ele><time>2026-04-12T13:45:48.994Z</time></trkpt><trkpt lat="44.9015667" lon="8.2905683"><ele>118.0</ele><time>2026-04-12T13:45:49.994Z</time></trkpt><trkpt lat="44.9017467" lon="8.2903533"><ele>118.0</ele><time>2026-04-12T13:45:51Z</time></trkpt><trkpt lat="44.901925" lon="8.2901367"><ele>117.5</ele><time>2026-04-12T13:45:51.994Z</time></trkpt><trkpt lat="44.9021033" lon="8.2899233"><ele>117.0</ele><time>2026-04-12T13:45:52.997Z</time></trkpt><trkpt lat="44.9022817" lon="8.2897067"><ele>117.0</ele><time>2026-04-12T13:45:53.995Z</time></trkpt><trkpt lat="44.90246" lon="8.2894933"><ele>117.0</ele><time>2026-04-12T13:45:54.992Z</time></trkpt><trkpt lat="44.90264" lon="8.28928"><ele>117.0</ele><time>2026-04-12T13:45:55.998Z</time></trkpt><trkpt lat="44.9028217" lon="8.2890683"><ele>117.0</ele><time>2026-04-12T13:45:56.996Z</time></trkpt><trkpt lat="44.9030033" lon="8.2888583"><ele>116.5</ele><time>2026-04-12T13:45:57.993Z</time></trkpt><trkpt lat="44.903185" lon="8.2886483"><ele>116.0</ele><time>2026-04-12T13:45:58.993Z</time></trkpt><trkpt lat="44.9033633" lon="8.2884383"><ele>115.5</ele><time>2026-04-12T13:45:59.993Z</time></trkpt><trkpt lat="44.9035417" lon="8.28823"><ele>115.0</ele><time>2026-04-12T13:46:00.994Z</time></trkpt><trkpt lat="44.9037167" lon="8.2880217"><ele>115.0</ele><time>2026-04-12T13:46:01.994Z</time></trkpt><trkpt lat="44.9038867" lon="8.2878217"><ele>115.0</ele><time>2026-04-12T13:46:02.998Z</time></trkpt><trkpt lat="44.90405" lon="8.2876267"><ele>115.0</ele><time>2026-04-12T13:46:03.995Z</time></trkpt><trkpt lat="44.90421" lon="8.2874367"><ele>115.66666666666667</ele><time>2026-04-12T13:46:04.994Z</time></trkpt><trkpt lat="44.9043683" lon="8.2872483"><ele>116.33333333333334</ele><time>2026-04-12T13:46:05.995Z</time></trkpt><trkpt lat="44.9045267" lon="8.2870583"><ele>117.0</ele><time>2026-04-12T13:46:06.997Z</time></trkpt><trkpt lat="44.904685" lon="8.28687"><ele>117.0</ele><time>2026-04-12T13:46:07.999Z</time></trkpt><trkpt lat="44.904845" lon="8.2866833"><ele>117.0</ele><time>2026-04-12T13:46:08.996Z</time></trkpt><trkpt lat="44.9050033" lon="8.2864933"><ele>117.0</ele><time>2026-04-12T13:46:09.995Z</time></trkpt><trkpt lat="44.9051617" lon="8.286305"><ele>117.66666666666666</ele><time>2026-04-12T13:46:10.994Z</time></trkpt><trkpt lat="44.9053183" lon="8.2861183"><ele>118.33333333333333</ele><time>2026-04-12T13:46:11.997Z</time></trkpt><trkpt lat="44.9054767" lon="8.285935"><ele>119.0</ele><time>2026-04-12T13:46:12.998Z</time></trkpt><trkpt lat="44.9056317" lon="8.2857467"><ele>118.66666666666666</ele><time>2026-04-12T13:46:13.997Z</time></trkpt><trkpt lat="44.9057883" lon="8.2855583"><ele>118.33333333333334</ele><time>2026-04-12T13:46:14.996Z</time></trkpt><trkpt lat="44.905945" lon="8.2853733"><ele>118.0</ele><time>2026-04-12T13:46:15.996Z</time></trkpt><trkpt lat="44.9061033" lon="8.2851867"><ele>118.66666666666667</ele><time>2026-04-12T13:46:16.996Z</time></trkpt><trkpt lat="44.9062617" lon="8.2850033"><ele>119.33333333333334</ele><time>2026-04-12T13:46:17.992Z</time></trkpt><trkpt lat="44.9064167" lon="8.28482"><ele>120.0</ele><time>2026-04-12T13:46:18.993Z</time></trkpt><trkpt lat="44.9065683" lon="8.2846433"><ele>120.0</ele><time>2026-04-12T13:46:19.991Z</time></trkpt><trkpt lat="44.9067133" lon="8.284475"><ele>120.0</ele><time>2026-04-12T13:46:20.996Z</time></trkpt><trkpt lat="44.9068517" lon="8.2843117"><ele>120.0</ele><time>2026-04-12T13:46:21.993Z</time></trkpt><trkpt lat="44.9069817" lon="8.28415"><ele>120.66666666666666</ele><time>2026-04-12T13:46:22.996Z</time></trkpt><trkpt lat="44.9071017" lon="8.2839867"><ele>121.33333333333333</ele><time>2026-04-12T13:46:23.994Z</time></trkpt><trkpt lat="44.9072033" lon="8.283815"><ele>122.0</ele><time>2026-04-12T13:46:24.992Z</time></trkpt><trkpt lat="44.9072867" lon="8.2836267"><ele>122.0</ele><time>2026-04-12T13:46:25.995Z</time></trkpt><trkpt lat="44.9073417" lon="8.283415"><ele>122.0</ele><time>2026-04-12T13:46:26.995Z</time></trkpt><trkpt lat="44.9073667" lon="8.2831867"><ele>122.0</ele><time>2026-04-12T13:46:27.999Z</time></trkpt><trkpt lat="44.9073733" lon="8.2829467"><ele>122.0</ele><time>2026-04-12T13:46:28.995Z</time></trkpt><trkpt lat="44.9073717" lon="8.2826983"><ele>122.0</ele><time>2026-04-12T13:46:29.992Z</time></trkpt><trkpt lat="44.9073683" lon="8.2824467"><ele>122.0</ele><time>2026-04-12T13:46:30.992Z</time></trkpt><trkpt lat="44.9073617" lon="8.2821867"><ele>121.33333333333333</ele><time>2026-04-12T13:46:31.995Z</time></trkpt><trkpt lat="44.9073517" lon="8.281925"><ele>120.66666666666666</ele><time>2026-04-12T13:46:32.996Z</time></trkpt><trkpt lat="44.9073383" lon="8.2816633"><ele>120.0</ele><time>2026-04-12T13:46:33.999Z</time></trkpt><trkpt lat="44.90733" lon="8.2813967"><ele>119.66666666666666</ele><time>2026-04-12T13:46:34.995Z</time></trkpt><trkpt lat="44.90732" lon="8.28113"><ele>119.33333333333333</ele><time>2026-04-12T13:46:36.002Z</time></trkpt><trkpt lat="44.9073133" lon="8.2808633"><ele>119.0</ele><time>2026-04-12T13:46:36.996Z</time></trkpt><trkpt lat="44.9073067" lon="8.2805933"><ele>118.33333333333333</ele><time>2026-04-12T13:46:37.995Z</time></trkpt><trkpt lat="44.9073" lon="8.2803233"><ele>117.66666666666666</ele><time>2026-04-12T13:46:38.997Z</time></trkpt><trkpt lat="44.9072883" lon="8.2800533"><ele>117.0</ele><time>2026-04-12T13:46:39.998Z</time></trkpt><trkpt lat="44.9072783" lon="8.2797833"><ele>116.66666666666666</ele><time>2026-04-12T13:46:40.995Z</time></trkpt><trkpt lat="44.90727" lon="8.2795133"><ele>116.33333333333333</ele><time>2026-04-12T13:46:41.995Z</time></trkpt><trkpt lat="44.9072617" lon="8.2792433"><ele>116.0</ele><time>2026-04-12T13:46:42.995Z</time></trkpt><trkpt lat="44.9072533" lon="8.27897"><ele>116.33333333333333</ele><time>2026-04-12T13:46:43.993Z</time></trkpt><trkpt lat="44.9072417" lon="8.27869"><ele>116.66666666666666</ele><time>2026-04-12T13:46:44.999Z</time></trkpt><trkpt lat="44.9072367" lon="8.278395"><ele>117.0</ele><time>2026-04-12T13:46:45.994Z</time></trkpt><trkpt lat="44.9072317" lon="8.2781017"><ele>116.66666666666666</ele><time>2026-04-12T13:46:46.993Z</time></trkpt><trkpt lat="44.9072233" lon="8.2778117"><ele>116.33333333333333</ele><time>2026-04-12T13:46:47.995Z</time></trkpt><trkpt lat="44.9072167" lon="8.27752"><ele>116.0</ele><time>2026-04-12T13:46:48.997Z</time></trkpt><trkpt lat="44.907205" lon="8.27723"><ele>116.66666666666666</ele><time>2026-04-12T13:46:49.993Z</time></trkpt><trkpt lat="44.9071933" lon="8.27694"><ele>117.33333333333334</ele><time>2026-04-12T13:46:50.994Z</time></trkpt><trkpt lat="44.90718" lon="8.2766533"><ele>118.0</ele><time>2026-04-12T13:46:51.995Z</time></trkpt><trkpt lat="44.9071683" lon="8.2763667"><ele>118.66666666666667</ele><time>2026-04-12T13:46:52.995Z</time></trkpt><trkpt lat="44.90716" lon="8.2760883"><ele>119.33333333333334</ele><time>2026-04-12T13:46:53.995Z</time></trkpt><trkpt lat="44.90715" lon="8.2758133"><ele>120.0</ele><time>2026-04-12T13:46:54.997Z</time></trkpt><trkpt lat="44.9071433" lon="8.2755467"><ele>120.33333333333334</ele><time>2026-04-12T13:46:55.993Z</time></trkpt><trkpt lat="44.90714" lon="8.275285"><ele>120.66666666666667</ele><time>2026-04-12T13:46:56.995Z</time></trkpt><trkpt lat="44.90714" lon="8.275035"><ele>121.0</ele><time>2026-04-12T13:46:57.993Z</time></trkpt><trkpt lat="44.907135" lon="8.2747983"><ele>121.0</ele><time>2026-04-12T13:46:58.994Z</time></trkpt><trkpt lat="44.907125" lon="8.27458"><ele>121.0</ele><time>2026-04-12T13:46:59.995Z</time></trkpt><trkpt lat="44.9071133" lon="8.2743883"><ele>121.0</ele><time>2026-04-12T13:47:00.996Z</time></trkpt><trkpt lat="44.9071017" lon="8.2742133"><ele>121.0</ele><time>2026-04-12T13:47:01.997Z</time></trkpt><trkpt lat="44.907095" lon="8.2740483"><ele>120.6</ele><time>2026-04-12T13:47:02.995Z</time></trkpt><trkpt lat="44.9070933" lon="8.27389"><ele>120.19999999999999</ele><time>2026-04-12T13:47:03.995Z</time></trkpt><trkpt lat="44.9070867" lon="8.27374"><ele>119.80000000000001</ele><time>2026-04-12T13:47:04.997Z</time></trkpt><trkpt lat="44.9070783" lon="8.273595"><ele>119.4</ele><time>2026-04-12T13:47:05.997Z</time></trkpt><trkpt lat="44.907075" lon="8.2734533"><ele>119.0</ele><time>2026-04-12T13:47:06.997Z</time></trkpt><trkpt lat="44.9070733" lon="8.273325"><ele>118.99999999999999</ele><time>2026-04-12T13:47:07.999Z</time></trkpt><trkpt lat="44.907085" lon="8.2732067"><ele>119.0</ele><time>2026-04-12T13:47:09.003Z</time></trkpt><trkpt lat="44.9071033" lon="8.2731017"><ele>119.0</ele><time>2026-04-12T13:47:09.998Z</time></trkpt><trkpt lat="44.907135" lon="8.2730067"><ele>119.0</ele><time>2026-04-12T13:47:10.996Z</time></trkpt><trkpt lat="44.907175" lon="8.27292"><ele>118.99999999999999</ele><time>2026-04-12T13:47:11.995Z</time></trkpt><trkpt lat="44.9072233" lon="8.2728433"><ele>119.0</ele><time>2026-04-12T13:47:12.991Z</time></trkpt><trkpt lat="44.9072917" lon="8.272795"><ele>118.80000000000001</ele><time>2026-04-12T13:47:13.995Z</time></trkpt><trkpt lat="44.9073767" lon="8.2727833"><ele>118.60000000000001</ele><time>2026-04-12T13:47:14.996Z</time></trkpt><trkpt lat="44.9074617" lon="8.2728583"><ele>118.4</ele><time>2026-04-12T13:47:15.992Z</time></trkpt><trkpt lat="44.907545" lon="8.272945"><ele>118.2</ele><time>2026-04-12T13:47:16.993Z</time></trkpt><trkpt lat="44.907615" lon="8.2730517"><ele>118.0</ele><time>2026-04-12T13:47:17.995Z</time></trkpt><trkpt lat="44.9076967" lon="8.2731633"><ele>118.0</ele><time>2026-04-12T13:47:18.997Z</time></trkpt><trkpt lat="44.9078033" lon="8.2732517"><ele>118.0</ele><time>2026-04-12T13:47:19.994Z</time></trkpt><trkpt lat="44.9079283" lon="8.2733367"><ele>118.0</ele><time>2026-04-12T13:47:20.996Z</time></trkpt><trkpt lat="44.90807" lon="8.273385"><ele>118.0</ele><time>2026-04-12T13:47:21.993Z</time></trkpt><trkpt lat="44.90822" lon="8.2734467"><ele>118.0</ele><time>2026-04-12T13:47:22.995Z</time></trkpt><trkpt lat="44.908375" lon="8.2735117"><ele>118.0</ele><time>2026-04-12T13:47:23.999Z</time></trkpt><trkpt lat="44.9085333" lon="8.2735767"><ele>118.0</ele><time>2026-04-12T13:47:24.998Z</time></trkpt><trkpt lat="44.9086967" lon="8.273635"><ele>118.0</ele><time>2026-04-12T13:47:25.995Z</time></trkpt><trkpt lat="44.9088667" lon="8.27368"><ele>118.0</ele><time>2026-04-12T13:47:26.999Z</time></trkpt><trkpt lat="44.90903" lon="8.2737317"><ele>118.0</ele><time>2026-04-12T13:47:27.996Z</time></trkpt><trkpt lat="44.9091983" lon="8.273785"><ele>118.33333333333334</ele><time>2026-04-12T13:47:28.997Z</time></trkpt><trkpt lat="44.9093683" lon="8.2738417"><ele>118.66666666666666</ele><time>2026-04-12T13:47:29.996Z</time></trkpt><trkpt lat="44.90954" lon="8.273895"><ele>119.0</ele><time>2026-04-12T13:47:30.996Z</time></trkpt><trkpt lat="44.909715" lon="8.2739433"><ele>119.0</ele><time>2026-04-12T13:47:31.994Z</time></trkpt><trkpt lat="44.9098933" lon="8.273985"><ele>119.0</ele><time>2026-04-12T13:47:33Z</time></trkpt><trkpt lat="44.9100733" lon="8.2740267"><ele>119.0</ele><time>2026-04-12T13:47:33.997Z</time></trkpt><trkpt lat="44.9102533" lon="8.2740683"><ele>121.33333333333333</ele><time>2026-04-12T13:47:34.999Z</time></trkpt><trkpt lat="44.9104317" lon="8.274105"><ele>123.66666666666666</ele><time>2026-04-12T13:47:35.997Z</time></trkpt><trkpt lat="44.9106067" lon="8.2741467"><ele>126.0</ele><time>2026-04-12T13:47:36.996Z</time></trkpt><trkpt lat="44.9107683" lon="8.274185"><ele>125.5</ele><time>2026-04-12T13:47:37.992Z</time></trkpt><trkpt lat="44.9109183" lon="8.27422"><ele>125.0</ele><time>2026-04-12T13:47:38.999Z</time></trkpt><trkpt lat="44.911055" lon="8.27426"><ele>124.5</ele><time>2026-04-12T13:47:39.997Z</time></trkpt><trkpt lat="44.9111733" lon="8.27432"><ele>124.0</ele><time>2026-04-12T13:47:40.997Z</time></trkpt><trkpt lat="44.911275" lon="8.2743983"><ele>124.0</ele><time>2026-04-12T13:47:41.994Z</time></trkpt><trkpt lat="44.91136" lon="8.2744917"><ele>124.0</ele><time>2026-04-12T13:47:42.996Z</time></trkpt><trkpt lat="44.9114383" lon="8.274595"><ele>124.0</ele><time>2026-04-12T13:47:43.995Z</time></trkpt><trkpt lat="44.9115133" lon="8.2746933"><ele>124.0</ele><time>2026-04-12T13:47:44.997Z</time></trkpt><trkpt lat="44.9115733" lon="8.2747783"><ele>124.0</ele><time>2026-04-12T13:47:45.997Z</time></trkpt><trkpt lat="44.9116217" lon="8.2748483"><ele>123.6</ele><time>2026-04-12T13:47:46.995Z</time></trkpt><trkpt lat="44.91166" lon="8.27497"><ele>123.2</ele><time>2026-04-12T13:47:48.994Z</time></trkpt><trkpt lat="44.9115717" lon="8.27507"><ele>122.79999999999998</ele><time>2026-04-12T13:47:50.997Z</time></trkpt><trkpt lat="44.911515" lon="8.275135"><ele>122.39999999999999</ele><time>2026-04-12T13:47:51.998Z</time></trkpt><trkpt lat="44.9114533" lon="8.275215"><ele>122.0</ele><time>2026-04-12T13:47:52.998Z</time></trkpt><trkpt lat="44.9113933" lon="8.2753117"><ele>122.0</ele><time>2026-04-12T13:47:53.999Z</time></trkpt><trkpt lat="44.9113533" lon="8.275415"><ele>121.99999999999999</ele><time>2026-04-12T13:47:54.998Z</time></trkpt><trkpt lat="44.9113733" lon="8.2755467"><ele>121.99999999999999</ele><time>2026-04-12T13:47:55.993Z</time></trkpt><trkpt lat="44.9114033" lon="8.2756883"><ele>122.0</ele><time>2026-04-12T13:47:56.994Z</time></trkpt><trkpt lat="44.9114483" lon="8.27585"><ele>122.0</ele><time>2026-04-12T13:47:57.998Z</time></trkpt><trkpt lat="44.9115067" lon="8.276025"><ele>122.25</ele><time>2026-04-12T13:47:58.996Z</time></trkpt><trkpt lat="44.9115733" lon="8.276205"><ele>122.5</ele><time>2026-04-12T13:47:59.997Z</time></trkpt><trkpt lat="44.9116317" lon="8.276375"><ele>122.75</ele><time>2026-04-12T13:48:00.993Z</time></trkpt><trkpt lat="44.9116883" lon="8.276535"><ele>123.0</ele><time>2026-04-12T13:48:01.996Z</time></trkpt><trkpt lat="44.911745" lon="8.2766817"><ele>124.5</ele><time>2026-04-12T13:48:03Z</time></trkpt><trkpt lat="44.9118167" lon="8.2767867"><ele>126.0</ele><time>2026-04-12T13:48:03.996Z</time></trkpt><trkpt lat="44.9119233" lon="8.2768483"><ele>127.5</ele><time>2026-04-12T13:48:04.991Z</time></trkpt><trkpt lat="44.9120367" lon="8.2768783"><ele>129.0</ele><time>2026-04-12T13:48:05.995Z</time></trkpt><trkpt lat="44.912155" lon="8.2768617"><ele>129.0</ele><time>2026-04-12T13:48:06.998Z</time></trkpt><trkpt lat="44.912275" lon="8.2768483"><ele>129.0</ele><time>2026-04-12T13:48:07.997Z</time></trkpt><trkpt lat="44.9123883" lon="8.276855"><ele>129.0</ele><time>2026-04-12T13:48:08.995Z</time></trkpt><trkpt lat="44.9124883" lon="8.2769083"><ele>129.0</ele><time>2026-04-12T13:48:09.999Z</time></trkpt><trkpt lat="44.9125933" lon="8.2769917"><ele>130.25</ele><time>2026-04-12T13:48:10.996Z</time></trkpt><trkpt lat="44.9126817" lon="8.2770967"><ele>131.5</ele><time>2026-04-12T13:48:11.995Z</time></trkpt><trkpt lat="44.9127717" lon="8.2772033"><ele>132.75</ele><time>2026-04-12T13:48:12.999Z</time></trkpt><trkpt lat="44.9128683" lon="8.277305"><ele>134.0</ele><time>2026-04-12T13:48:13.993Z</time></trkpt><trkpt lat="44.9129617" lon="8.2773883"><ele>137.6</ele><time>2026-04-12T13:48:14.995Z</time></trkpt><trkpt lat="44.9130567" lon="8.2774317"><ele>141.2</ele><time>2026-04-12T13:48:15.996Z</time></trkpt><trkpt lat="44.9131567" lon="8.2774333"><ele>144.79999999999998</ele><time>2026-04-12T13:48:16.996Z</time></trkpt><trkpt lat="44.913265" lon="8.27741"><ele>148.4</ele><time>2026-04-12T13:48:17.996Z</time></trkpt><trkpt lat="44.9133717" lon="8.277385"><ele>152.0</ele><time>2026-04-12T13:48:19.003Z</time></trkpt><trkpt lat="44.9134867" lon="8.2773467"><ele>153.2</ele><time>2026-04-12T13:48:19.998Z</time></trkpt><trkpt lat="44.9135967" lon="8.277295"><ele>154.39999999999998</ele><time>2026-04-12T13:48:20.996Z</time></trkpt><trkpt lat="44.9136983" lon="8.277225"><ele>155.60000000000002</ele><time>2026-04-12T13:48:21.99Z</time></trkpt><trkpt lat="44.91379" lon="8.2771633"><ele>156.8</ele><time>2026-04-12T13:48:22.999Z</time></trkpt><trkpt lat="44.9138883" lon="8.27714"><ele>158.0</ele><time>2026-04-12T13:48:23.991Z</time></trkpt><trkpt lat="44.9140033" lon="8.2771917"><ele>158.0</ele><time>2026-04-12T13:48:24.993Z</time></trkpt><trkpt lat="44.914115" lon="8.2772317"><ele>158.0</ele><time>2026-04-12T13:48:25.999Z</time></trkpt><trkpt lat="44.9142367" lon="8.2773033"><ele>158.0</ele><time>2026-04-12T13:48:26.996Z</time></trkpt><trkpt lat="44.914365" lon="8.2774083"><ele>158.0</ele><time>2026-04-12T13:48:27.996Z</time></trkpt><trkpt lat="44.9144933" lon="8.2775017"><ele>158.75</ele><time>2026-04-12T13:48:28.996Z</time></trkpt><trkpt lat="44.91461" lon="8.2776067"><ele>159.5</ele><time>2026-04-12T13:48:29.997Z</time></trkpt><trkpt lat="44.9147133" lon="8.2776717"><ele>160.25</ele><time>2026-04-12T13:48:30.995Z</time></trkpt><trkpt lat="44.9148183" lon="8.2776967"><ele>161.0</ele><time>2026-04-12T13:48:31.997Z</time></trkpt><trkpt lat="44.9149383" lon="8.2776883"><ele>161.0</ele><time>2026-04-12T13:48:32.999Z</time></trkpt><trkpt lat="44.915055" lon="8.27767"><ele>161.0</ele><time>2026-04-12T13:48:33.992Z</time></trkpt><trkpt lat="44.91518" lon="8.277665"><ele>161.0</ele><time>2026-04-12T13:48:35Z</time></trkpt><trkpt lat="44.9153" lon="8.2776733"><ele>161.0</ele><time>2026-04-12T13:48:35.995Z</time></trkpt><trkpt lat="44.9154117" lon="8.2776867"><ele>162.5</ele><time>2026-04-12T13:48:36.998Z</time></trkpt><trkpt lat="44.915545" lon="8.2777233"><ele>164.0</ele><time>2026-04-12T13:48:37.995Z</time></trkpt><trkpt lat="44.9156667" lon="8.27773"><ele>165.5</ele><time>2026-04-12T13:48:39.001Z</time></trkpt><trkpt lat="44.9157933" lon="8.2777167"><ele>167.0</ele><time>2026-04-12T13:48:39.996Z</time></trkpt><trkpt lat="44.91592" lon="8.2776967"><ele>167.5</ele><time>2026-04-12T13:48:40.999Z</time></trkpt><trkpt lat="44.9160433" lon="8.2776717"><ele>168.0</ele><time>2026-04-12T13:48:41.996Z</time></trkpt><trkpt lat="44.9161633" lon="8.2776517"><ele>168.5</ele><time>2026-04-12T13:48:42.999Z</time></trkpt><trkpt lat="44.9162867" lon="8.2776433"><ele>169.0</ele><time>2026-04-12T13:48:43.997Z</time></trkpt><trkpt lat="44.91641" lon="8.27764"><ele>169.0</ele><time>2026-04-12T13:48:44.998Z</time></trkpt><trkpt lat="44.9165333" lon="8.2776417"><ele>169.0</ele><time>2026-04-12T13:48:45.998Z</time></trkpt><trkpt lat="44.9166583" lon="8.2776567"><ele>169.0</ele><time>2026-04-12T13:48:46.995Z</time></trkpt><trkpt lat="44.9167833" lon="8.2776767"><ele>169.0</ele><time>2026-04-12T13:48:47.998Z</time></trkpt><trkpt lat="44.9169033" lon="8.2777133"><ele>169.25</ele><time>2026-04-12T13:48:48.998Z</time></trkpt><trkpt lat="44.9170117" lon="8.27779"><ele>169.5</ele><time>2026-04-12T13:48:49.999Z</time></trkpt><trkpt lat="44.9171217" lon="8.2778817"><ele>169.75</ele><time>2026-04-12T13:48:50.994Z</time></trkpt><trkpt lat="44.917235" lon="8.27798"><ele>170.0</ele><time>2026-04-12T13:48:51.995Z</time></trkpt><trkpt lat="44.9173533" lon="8.27807"><ele>170.5</ele><time>2026-04-12T13:48:52.996Z</time></trkpt><trkpt lat="44.9174683" lon="8.2781617"><ele>171.0</ele><time>2026-04-12T13:48:53.998Z</time></trkpt><trkpt lat="44.91758" lon="8.2782517"><ele>171.5</ele><time>2026-04-12T13:48:54.998Z</time></trkpt><trkpt lat="44.9176817" lon="8.2783533"><ele>172.0</ele><time>2026-04-12T13:48:55.994Z</time></trkpt><trkpt lat="44.917775" lon="8.2784833"><ele>170.0</ele><time>2026-04-12T13:48:56.997Z</time></trkpt><trkpt lat="44.9178567" lon="8.278635"><ele>168.0</ele><time>2026-04-12T13:48:57.997Z</time></trkpt><trkpt lat="44.9179233" lon="8.27881"><ele>166.0</ele><time>2026-04-12T13:48:58.997Z</time></trkpt><trkpt lat="44.9179833" lon="8.2789883"><ele>164.0</ele><time>2026-04-12T13:48:59.995Z</time></trkpt><trkpt lat="44.9180317" lon="8.2791717"><ele>164.0</ele><time>2026-04-12T13:49:00.997Z</time></trkpt><trkpt lat="44.9180683" lon="8.279365"><ele>164.0</ele><time>2026-04-12T13:49:01.999Z</time></trkpt><trkpt lat="44.9181033" lon="8.27955"><ele>164.0</ele><time>2026-04-12T13:49:02.999Z</time></trkpt><trkpt lat="44.918135" lon="8.2797367"><ele>164.0</ele><time>2026-04-12T13:49:03.993Z</time></trkpt><trkpt lat="44.9181583" lon="8.2799317"><ele>166.0</ele><time>2026-04-12T13:49:04.993Z</time></trkpt><trkpt lat="44.9181867" lon="8.2801217"><ele>168.0</ele><time>2026-04-12T13:49:05.991Z</time></trkpt><trkpt lat="44.9182067" lon="8.2803183"><ele>170.0</ele><time>2026-04-12T13:49:06.996Z</time></trkpt><trkpt lat="44.9182333" lon="8.280515"><ele>172.0</ele><time>2026-04-12T13:49:07.991Z</time></trkpt><trkpt lat="44.9182667" lon="8.28071"><ele>173.0</ele><time>2026-04-12T13:49:08.997Z</time></trkpt><trkpt lat="44.9183067" lon="8.2809017"><ele>174.0</ele><time>2026-04-12T13:49:09.998Z</time></trkpt><trkpt lat="44.9183533" lon="8.2810917"><ele>175.0</ele><time>2026-04-12T13:49:10.992Z</time></trkpt><trkpt lat="44.9184133" lon="8.2812667"><ele>176.0</ele><time>2026-04-12T13:49:11.996Z</time></trkpt><trkpt lat="44.9184833" lon="8.2814333"><ele>176.0</ele><time>2026-04-12T13:49:13Z</time></trkpt><trkpt lat="44.9185583" lon="8.28159"><ele>176.0</ele><time>2026-04-12T13:49:14Z</time></trkpt><trkpt lat="44.9186317" lon="8.2817417"><ele>176.0</ele><time>2026-04-12T13:49:15.001Z</time></trkpt><trkpt lat="44.9186967" lon="8.2818867"><ele>176.0</ele><time>2026-04-12T13:49:15.996Z</time></trkpt><trkpt lat="44.9187567" lon="8.2820283"><ele>176.0</ele><time>2026-04-12T13:49:16.994Z</time></trkpt><trkpt lat="44.9188083" lon="8.2821617"><ele>176.0</ele><time>2026-04-12T13:49:17.993Z</time></trkpt><trkpt lat="44.918855" lon="8.2822917"><ele>176.0</ele><time>2026-04-12T13:49:18.999Z</time></trkpt><trkpt lat="44.9189" lon="8.282415"><ele>176.0</ele><time>2026-04-12T13:49:19.997Z</time></trkpt><trkpt lat="44.91895" lon="8.2825217"><ele>176.0</ele><time>2026-04-12T13:49:20.997Z</time></trkpt><trkpt lat="44.9190183" lon="8.2826233"><ele>176.0</ele><time>2026-04-12T13:49:21.997Z</time></trkpt><trkpt lat="44.9191083" lon="8.2827117"><ele>176.0</ele><time>2026-04-12T13:49:22.997Z</time></trkpt><trkpt lat="44.91921" lon="8.2827883"><ele>176.0</ele><time>2026-04-12T13:49:23.993Z</time></trkpt><trkpt lat="44.9193217" lon="8.2828433"><ele>176.0</ele><time>2026-04-12T13:49:24.998Z</time></trkpt><trkpt lat="44.9194383" lon="8.2828867"><ele>175.5</ele><time>2026-04-12T13:49:25.996Z</time></trkpt><trkpt lat="44.9195633" lon="8.2829183"><ele>175.0</ele><time>2026-04-12T13:49:27.002Z</time></trkpt><trkpt lat="44.9196933" lon="8.2829317"><ele>174.5</ele><time>2026-04-12T13:49:27.998Z</time></trkpt><trkpt lat="44.9198217" lon="8.2829367"><ele>174.0</ele><time>2026-04-12T13:49:28.994Z</time></trkpt><trkpt lat="44.9199417" lon="8.2829483"><ele>174.0</ele><time>2026-04-12T13:49:29.992Z</time></trkpt><trkpt lat="44.9200517" lon="8.2829717"><ele>174.0</ele><time>2026-04-12T13:49:30.995Z</time></trkpt><trkpt lat="44.920155" lon="8.283035"><ele>174.0</ele><time>2026-04-12T13:49:32.001Z</time></trkpt><trkpt lat="44.92026" lon="8.2831233"><ele>174.0</ele><time>2026-04-12T13:49:32.998Z</time></trkpt><trkpt lat="44.9203767" lon="8.28323"><ele>174.75</ele><time>2026-04-12T13:49:33.994Z</time></trkpt><trkpt lat="44.920495" lon="8.2833467"><ele>175.5</ele><time>2026-04-12T13:49:34.995Z</time></trkpt><trkpt lat="44.9206117" lon="8.2834667"><ele>176.25</ele><time>2026-04-12T13:49:35.994Z</time></trkpt><trkpt lat="44.9207233" lon="8.2835817"><ele>177.0</ele><time>2026-04-12T13:49:37.001Z</time></trkpt><trkpt lat="44.9208367" lon="8.2836867"><ele>176.75</ele><time>2026-04-12T13:49:37.996Z</time></trkpt><trkpt lat="44.9209467" lon="8.2837883"><ele>176.5</ele><time>2026-04-12T13:49:38.998Z</time></trkpt><trkpt lat="44.9210533" lon="8.28391"><ele>176.25</ele><time>2026-04-12T13:49:39.997Z</time></trkpt><trkpt lat="44.9211617" lon="8.28402"><ele>176.0</ele><time>2026-04-12T13:49:40.994Z</time></trkpt><trkpt lat="44.9212683" lon="8.2841383"><ele>176.0</ele><time>2026-04-12T13:49:41.999Z</time></trkpt><trkpt lat="44.9213767" lon="8.2842517"><ele>176.0</ele><time>2026-04-12T13:49:42.999Z</time></trkpt><trkpt lat="44.92148" lon="8.284325"><ele>176.0</ele><time>2026-04-12T13:49:44.002Z</time></trkpt><trkpt lat="44.921585" lon="8.2843633"><ele>176.0</ele><time>2026-04-12T13:49:45.007Z</time></trkpt><trkpt lat="44.9216883" lon="8.284385"><ele>176.60000000000002</ele><time>2026-04-12T13:49:46.002Z</time></trkpt><trkpt lat="44.921785" lon="8.2844067"><ele>177.2</ele><time>2026-04-12T13:49:47.001Z</time></trkpt><trkpt lat="44.92187" lon="8.2844617"><ele>177.8</ele><time>2026-04-12T13:49:47.999Z</time></trkpt><trkpt lat="44.9219567" lon="8.2845467"><ele>178.39999999999998</ele><time>2026-04-12T13:49:49.001Z</time></trkpt><trkpt lat="44.92204" lon="8.284655"><ele>179.0</ele><time>2026-04-12T13:49:50Z</time></trkpt><trkpt lat="44.9221333" lon="8.2847883"><ele>179.0</ele><time>2026-04-12T13:49:50.999Z</time></trkpt><trkpt lat="44.9222383" lon="8.2849333"><ele>179.0</ele><time>2026-04-12T13:49:51.995Z</time></trkpt><trkpt lat="44.92235" lon="8.2850967"><ele>179.0</ele><time>2026-04-12T13:49:52.995Z</time></trkpt><trkpt lat="44.9224583" lon="8.28526"><ele>179.0</ele><time>2026-04-12T13:49:53.999Z</time></trkpt><trkpt lat="44.9225567" lon="8.2854167"><ele>179.0</ele><time>2026-04-12T13:49:55.001Z</time></trkpt><trkpt lat="44.922645" lon="8.2855633"><ele>179.0</ele><time>2026-04-12T13:49:55.998Z</time></trkpt><trkpt lat="44.9227117" lon="8.2857117"><ele>179.0</ele><time>2026-04-12T13:49:56.995Z</time></trkpt><trkpt lat="44.9227683" lon="8.285875"><ele>182.0</ele><time>2026-04-12T13:49:57.997Z</time></trkpt><trkpt lat="44.92281" lon="8.2860433"><ele>185.0</ele><time>2026-04-12T13:49:58.994Z</time></trkpt><trkpt lat="44.9228533" lon="8.2862067"><ele>188.0</ele><time>2026-04-12T13:49:59.996Z</time></trkpt><trkpt lat="44.9229083" lon="8.2863683"><ele>191.0</ele><time>2026-04-12T13:50:00.996Z</time></trkpt><trkpt lat="44.92298" lon="8.28653"><ele>192.0</ele><time>2026-04-12T13:50:01.993Z</time></trkpt><trkpt lat="44.9230717" lon="8.2866767"><ele>193.0</ele><time>2026-04-12T13:50:02.994Z</time></trkpt><trkpt lat="44.92316" lon="8.28681"><ele>194.0</ele><time>2026-04-12T13:50:03.998Z</time></trkpt><trkpt lat="44.923235" lon="8.2869367"><ele>195.0</ele><time>2026-04-12T13:50:04.998Z</time></trkpt><trkpt lat="44.923285" lon="8.287085"><ele>195.0</ele><time>2026-04-12T13:50:05.995Z</time></trkpt><trkpt lat="44.92332" lon="8.2872333"><ele>195.0</ele><time>2026-04-12T13:50:06.995Z</time></trkpt><trkpt lat="44.923355" lon="8.2873767"><ele>195.0</ele><time>2026-04-12T13:50:07.999Z</time></trkpt><trkpt lat="44.9234" lon="8.2875033"><ele>195.0</ele><time>2026-04-12T13:50:09.003Z</time></trkpt><trkpt lat="44.9234633" lon="8.287615"><ele>195.0</ele><time>2026-04-12T13:50:09.994Z</time></trkpt><trkpt lat="44.9235433" lon="8.2877"><ele>197.75</ele><time>2026-04-12T13:50:11Z</time></trkpt><trkpt lat="44.923635" lon="8.2877617"><ele>200.5</ele><time>2026-04-12T13:50:11.996Z</time></trkpt><trkpt lat="44.92374" lon="8.2877967"><ele>203.25</ele><time>2026-04-12T13:50:12.999Z</time></trkpt><trkpt lat="44.92386" lon="8.2877983"><ele>206.0</ele><time>2026-04-12T13:50:13.997Z</time></trkpt><trkpt lat="44.923985" lon="8.2877683"><ele>206.0</ele><time>2026-04-12T13:50:14.995Z</time></trkpt><trkpt lat="44.9241017" lon="8.2876983"><ele>206.0</ele><time>2026-04-12T13:50:15.998Z</time></trkpt><trkpt lat="44.9241983" lon="8.287625"><ele>206.0</ele><time>2026-04-12T13:50:16.998Z</time></trkpt><trkpt lat="44.924275" lon="8.2875433"><ele>206.0</ele><time>2026-04-12T13:50:17.994Z</time></trkpt><trkpt lat="44.92434" lon="8.2874483"><ele>206.0</ele><time>2026-04-12T13:50:18.994Z</time></trkpt><trkpt lat="44.924405" lon="8.2873483"><ele>205.0</ele><time>2026-04-12T13:50:19.994Z</time></trkpt><trkpt lat="44.9244717" lon="8.2872383"><ele>204.0</ele><time>2026-04-12T13:50:21.001Z</time></trkpt><trkpt lat="44.9245467" lon="8.28713"><ele>203.0</ele><time>2026-04-12T13:50:21.997Z</time></trkpt><trkpt lat="44.924625" lon="8.2870267"><ele>202.0</ele><time>2026-04-12T13:50:23.002Z</time></trkpt><trkpt lat="44.9247067" lon="8.2869267"><ele>201.0</ele><time>2026-04-12T13:50:23.996Z</time></trkpt><trkpt lat="44.9247867" lon="8.2868083"><ele>201.0</ele><time>2026-04-12T13:50:24.997Z</time></trkpt><trkpt lat="44.9248633" lon="8.2866767"><ele>201.0</ele><time>2026-04-12T13:50:25.996Z</time></trkpt><trkpt lat="44.92494" lon="8.2865517"><ele>201.0</ele><time>2026-04-12T13:50:26.997Z</time></trkpt><trkpt lat="44.925015" lon="8.2864317"><ele>201.0</ele><time>2026-04-12T13:50:27.999Z</time></trkpt><trkpt lat="44.92509" lon="8.2863217"><ele>201.20000000000002</ele><time>2026-04-12T13:50:28.995Z</time></trkpt><trkpt lat="44.9251683" lon="8.28622"><ele>201.4</ele><time>2026-04-12T13:50:29.999Z</time></trkpt><trkpt lat="44.9252483" lon="8.2861167"><ele>201.6</ele><time>2026-04-12T13:50:30.996Z</time></trkpt><trkpt lat="44.925325" lon="8.2860167"><ele>201.8</ele><time>2026-04-12T13:50:32.001Z</time></trkpt><trkpt lat="44.9253983" lon="8.2859217"><ele>202.0</ele><time>2026-04-12T13:50:32.998Z</time></trkpt><trkpt lat="44.925465" lon="8.2858183"><ele>202.0</ele><time>2026-04-12T13:50:33.999Z</time></trkpt><trkpt lat="44.9255267" lon="8.2856967"><ele>202.0</ele><time>2026-04-12T13:50:34.993Z</time></trkpt><trkpt lat="44.9255717" lon="8.2855683"><ele>202.0</ele><time>2026-04-12T13:50:35.995Z</time></trkpt><trkpt lat="44.9256067" lon="8.2854367"><ele>202.0</ele><time>2026-04-12T13:50:36.996Z</time></trkpt><trkpt lat="44.92564" lon="8.28531"><ele>202.0</ele><time>2026-04-12T13:50:38.001Z</time></trkpt><trkpt lat="44.9256717" lon="8.2851967"><ele>202.83333333333331</ele><time>2026-04-12T13:50:38.993Z</time></trkpt><trkpt lat="44.9257133" lon="8.2850967"><ele>203.66666666666666</ele><time>2026-04-12T13:50:39.994Z</time></trkpt><trkpt lat="44.9257633" lon="8.2850083"><ele>204.5</ele><time>2026-04-12T13:50:40.998Z</time></trkpt><trkpt lat="44.9258233" lon="8.284945"><ele>205.33333333333331</ele><time>2026-04-12T13:50:41.997Z</time></trkpt><trkpt lat="44.925895" lon="8.284895"><ele>206.16666666666666</ele><time>2026-04-12T13:50:43Z</time></trkpt><trkpt lat="44.92598" lon="8.2848517"><ele>207.0</ele><time>2026-04-12T13:50:43.994Z</time></trkpt><trkpt lat="44.926075" lon="8.2848117"><ele>207.6</ele><time>2026-04-12T13:50:44.995Z</time></trkpt><trkpt lat="44.9261767" lon="8.2847833"><ele>208.2</ele><time>2026-04-12T13:50:45.998Z</time></trkpt><trkpt lat="44.9262817" lon="8.2847467"><ele>208.8</ele><time>2026-04-12T13:50:46.996Z</time></trkpt><trkpt lat="44.92638" lon="8.2847067"><ele>209.4</ele><time>2026-04-12T13:50:47.997Z</time></trkpt><trkpt lat="44.9264683" lon="8.284665"><ele>210.0</ele><time>2026-04-12T13:50:48.999Z</time></trkpt><trkpt lat="44.9265567" lon="8.2846167"><ele>210.0</ele><time>2026-04-12T13:50:49.998Z</time></trkpt><trkpt lat="44.926645" lon="8.28456"><ele>210.0</ele><time>2026-04-12T13:50:50.997Z</time></trkpt><trkpt lat="44.92673" lon="8.28449"><ele>210.0</ele><time>2026-04-12T13:50:51.996Z</time></trkpt><trkpt lat="44.926815" lon="8.2844083"><ele>210.0</ele><time>2026-04-12T13:50:52.999Z</time></trkpt><trkpt lat="44.9269" lon="8.2843383"><ele>210.0</ele><time>2026-04-12T13:50:54.001Z</time></trkpt><trkpt lat="44.9269917" lon="8.2842733"><ele>207.75</ele><time>2026-04-12T13:50:54.998Z</time></trkpt><trkpt lat="44.9270917" lon="8.2842233"><ele>205.5</ele><time>2026-04-12T13:50:55.995Z</time></trkpt><trkpt lat="44.9272" lon="8.2841733"><ele>203.25</ele><time>2026-04-12T13:50:56.998Z</time></trkpt><trkpt lat="44.9273117" lon="8.2841267"><ele>201.0</ele><time>2026-04-12T13:50:57.996Z</time></trkpt><trkpt lat="44.927425" lon="8.28409"><ele>201.0</ele><time>2026-04-12T13:50:58.997Z</time></trkpt><trkpt lat="44.92754" lon="8.284055"><ele>201.0</ele><time>2026-04-12T13:50:59.999Z</time></trkpt><trkpt lat="44.9276533" lon="8.2840233"><ele>201.0</ele><time>2026-04-12T13:51:00.996Z</time></trkpt><trkpt lat="44.927765" lon="8.2840083"><ele>201.0</ele><time>2026-04-12T13:51:02Z</time></trkpt><trkpt lat="44.9278733" lon="8.28401"><ele>201.4</ele><time>2026-04-12T13:51:02.996Z</time></trkpt><trkpt lat="44.9279733" lon="8.284025"><ele>201.8</ele><time>2026-04-12T13:51:03.997Z</time></trkpt><trkpt lat="44.9280717" lon="8.28404"><ele>202.20000000000002</ele><time>2026-04-12T13:51:04.993Z</time></trkpt><trkpt lat="44.9281667" lon="8.2840617"><ele>202.60000000000002</ele><time>2026-04-12T13:51:05.994Z</time></trkpt><trkpt lat="44.928255" lon="8.2840817"><ele>203.0</ele><time>2026-04-12T13:51:06.993Z</time></trkpt><trkpt lat="44.9283317" lon="8.2841067"><ele>202.57142857142858</ele><time>2026-04-12T13:51:07.994Z</time></trkpt><trkpt lat="44.9283983" lon="8.284125"><ele>202.14285714285714</ele><time>2026-04-12T13:51:08.997Z</time></trkpt><trkpt lat="44.9284667" lon="8.2841383"><ele>201.71428571428572</ele><time>2026-04-12T13:51:10.995Z</time></trkpt><trkpt lat="44.9285" lon="8.28403"><ele>201.28571428571428</ele><time>2026-04-12T13:51:14.996Z</time></trkpt><trkpt lat="44.9284983" lon="8.2838967"><ele>200.85714285714286</ele><time>2026-04-12T13:51:16.998Z</time></trkpt><trkpt lat="44.928505" lon="8.283805"><ele>200.42857142857144</ele><time>2026-04-12T13:51:17.997Z</time></trkpt><trkpt lat="44.928515" lon="8.2837083"><ele>200.0</ele><time>2026-04-12T13:51:18.994Z</time></trkpt><trkpt lat="44.928525" lon="8.283615"><ele>199.00000000000003</ele><time>2026-04-12T13:51:19.999Z</time></trkpt><trkpt lat="44.928535" lon="8.283515"><ele>198.0</ele><time>2026-04-12T13:51:20.997Z</time></trkpt><trkpt lat="44.9285483" lon="8.2834133"><ele>197.0</ele><time>2026-04-12T13:51:21.999Z</time></trkpt><trkpt lat="44.92856" lon="8.28331"><ele>196.0</ele><time>2026-04-12T13:51:22.997Z</time></trkpt><trkpt lat="44.9285717" lon="8.2832067"><ele>195.0</ele><time>2026-04-12T13:51:23.993Z</time></trkpt><trkpt lat="44.9285833" lon="8.2831"><ele>194.00000000000003</ele><time>2026-04-12T13:51:24.995Z</time></trkpt><trkpt lat="44.9285967" lon="8.2829933"><ele>193.0</ele><time>2026-04-12T13:51:25.993Z</time></trkpt><trkpt lat="44.92861" lon="8.2828917"><ele>192.99999999999997</ele><time>2026-04-12T13:51:26.994Z</time></trkpt><trkpt lat="44.9286333" lon="8.2827917"><ele>193.0</ele><time>2026-04-12T13:51:27.996Z</time></trkpt><trkpt lat="44.928665" lon="8.2826867"><ele>193.0</ele><time>2026-04-12T13:51:28.992Z</time></trkpt><trkpt lat="44.9287" lon="8.28258"><ele>193.0</ele><time>2026-04-12T13:51:29.994Z</time></trkpt><trkpt lat="44.9287367" lon="8.282465"><ele>192.99999999999997</ele><time>2026-04-12T13:51:30.994Z</time></trkpt><trkpt lat="44.9287717" lon="8.28235"><ele>193.0</ele><time>2026-04-12T13:51:31.996Z</time></trkpt><trkpt lat="44.9288033" lon="8.28223"><ele>193.8</ele><time>2026-04-12T13:51:32.996Z</time></trkpt><trkpt lat="44.9288267" lon="8.2821083"><ele>194.60000000000002</ele><time>2026-04-12T13:51:33.994Z</time></trkpt><trkpt lat="44.92884" lon="8.2819833"><ele>195.39999999999998</ele><time>2026-04-12T13:51:35.001Z</time></trkpt><trkpt lat="44.928835" lon="8.28186"><ele>196.2</ele><time>2026-04-12T13:51:35.996Z</time></trkpt><trkpt lat="44.9288083" lon="8.281735"><ele>197.0</ele><time>2026-04-12T13:51:36.997Z</time></trkpt><trkpt lat="44.92878" lon="8.2816117"><ele>197.0</ele><time>2026-04-12T13:51:38.003Z</time></trkpt><trkpt lat="44.9287467" lon="8.2814783"><ele>197.0</ele><time>2026-04-12T13:51:39.001Z</time></trkpt><trkpt lat="44.9287283" lon="8.2813533"><ele>197.0</ele><time>2026-04-12T13:51:39.994Z</time></trkpt><trkpt lat="44.92871" lon="8.2812267"><ele>197.0</ele><time>2026-04-12T13:51:40.994Z</time></trkpt><trkpt lat="44.9287033" lon="8.281105"><ele>197.0</ele><time>2026-04-12T13:51:41.995Z</time></trkpt><trkpt lat="44.9287117" lon="8.2809817"><ele>196.0</ele><time>2026-04-12T13:51:42.996Z</time></trkpt><trkpt lat="44.928715" lon="8.2808517"><ele>195.0</ele><time>2026-04-12T13:51:43.994Z</time></trkpt><trkpt lat="44.92872" lon="8.280725"><ele>194.0</ele><time>2026-04-12T13:51:44.997Z</time></trkpt><trkpt lat="44.9287467" lon="8.2805933"><ele>193.0</ele><time>2026-04-12T13:51:45.997Z</time></trkpt><trkpt lat="44.928775" lon="8.28046"><ele>192.0</ele><time>2026-04-12T13:51:46.998Z</time></trkpt><trkpt lat="44.9288067" lon="8.2803317"><ele>192.0</ele><time>2026-04-12T13:51:47.995Z</time></trkpt><trkpt lat="44.9288317" lon="8.2802117"><ele>192.0</ele><time>2026-04-12T13:51:48.994Z</time></trkpt><trkpt lat="44.9288467" lon="8.280095"><ele>192.0</ele><time>2026-04-12T13:51:49.997Z</time></trkpt><trkpt lat="44.9288467" lon="8.279985"><ele>192.0</ele><time>2026-04-12T13:51:51.001Z</time></trkpt><trkpt lat="44.9288333" lon="8.2798783"><ele>192.0</ele><time>2026-04-12T13:51:51.997Z</time></trkpt><trkpt lat="44.928805" lon="8.2797717"><ele>192.0</ele><time>2026-04-12T13:51:53.003Z</time></trkpt><trkpt lat="44.928765" lon="8.2796617"><ele>191.0</ele><time>2026-04-12T13:51:53.998Z</time></trkpt><trkpt lat="44.9287183" lon="8.2795433"><ele>190.0</ele><time>2026-04-12T13:51:54.995Z</time></trkpt><trkpt lat="44.928655" lon="8.2794367"><ele>189.0</ele><time>2026-04-12T13:51:55.999Z</time></trkpt><trkpt lat="44.9285817" lon="8.2793233"><ele>188.0</ele><time>2026-04-12T13:51:56.999Z</time></trkpt><trkpt lat="44.92851" lon="8.2792117"><ele>187.0</ele><time>2026-04-12T13:51:57.999Z</time></trkpt><trkpt lat="44.9284367" lon="8.279105"><ele>187.39999999999998</ele><time>2026-04-12T13:51:58.997Z</time></trkpt><trkpt lat="44.9283633" lon="8.2790017"><ele>187.79999999999998</ele><time>2026-04-12T13:51:59.997Z</time></trkpt><trkpt lat="44.9282883" lon="8.2789017"><ele>188.2</ele><time>2026-04-12T13:52:01Z</time></trkpt><trkpt lat="44.9282117" lon="8.278805"><ele>188.6</ele><time>2026-04-12T13:52:01.995Z</time></trkpt><trkpt lat="44.9281183" lon="8.2787217"><ele>189.0</ele><time>2026-04-12T13:52:02.995Z</time></trkpt><trkpt lat="44.928035" lon="8.27865"><ele>189.39999999999998</ele><time>2026-04-12T13:52:03.996Z</time></trkpt><trkpt lat="44.927935" lon="8.2785917"><ele>189.8</ele><time>2026-04-12T13:52:04.998Z</time></trkpt><trkpt lat="44.927835" lon="8.278545"><ele>190.2</ele><time>2026-04-12T13:52:05.997Z</time></trkpt><trkpt lat="44.9277317" lon="8.278505"><ele>190.60000000000002</ele><time>2026-04-12T13:52:06.996Z</time></trkpt><trkpt lat="44.9276167" lon="8.2784683"><ele>191.0</ele><time>2026-04-12T13:52:07.997Z</time></trkpt><trkpt lat="44.9275067" lon="8.2784317"><ele>191.20000000000002</ele><time>2026-04-12T13:52:09.007Z</time></trkpt><trkpt lat="44.9273983" lon="8.2783883"><ele>191.4</ele><time>2026-04-12T13:52:10.001Z</time></trkpt><trkpt lat="44.9273017" lon="8.2783467"><ele>191.6</ele><time>2026-04-12T13:52:10.996Z</time></trkpt><trkpt lat="44.9272083" lon="8.2782933"><ele>191.8</ele><time>2026-04-12T13:52:11.998Z</time></trkpt><trkpt lat="44.927115" lon="8.2782167"><ele>192.0</ele><time>2026-04-12T13:52:12.995Z</time></trkpt><trkpt lat="44.9270333" lon="8.27814"><ele>192.6</ele><time>2026-04-12T13:52:13.999Z</time></trkpt><trkpt lat="44.9269533" lon="8.2780517"><ele>193.2</ele><time>2026-04-12T13:52:14.995Z</time></trkpt><trkpt lat="44.926885" lon="8.2779533"><ele>193.8</ele><time>2026-04-12T13:52:15.999Z</time></trkpt><trkpt lat="44.9268267" lon="8.2778367"><ele>194.4</ele><time>2026-04-12T13:52:16.997Z</time></trkpt><trkpt lat="44.9267633" lon="8.277715"><ele>195.0</ele><time>2026-04-12T13:52:17.996Z</time></trkpt><trkpt lat="44.9267033" lon="8.277585"><ele>195.0</ele><time>2026-04-12T13:52:18.995Z</time></trkpt><trkpt lat="44.9266467" lon="8.2774583"><ele>195.0</ele><time>2026-04-12T13:52:19.997Z</time></trkpt><trkpt lat="44.92659" lon="8.2773317"><ele>195.0</ele><time>2026-04-12T13:52:21Z</time></trkpt><trkpt lat="44.9265283" lon="8.2771917"><ele>195.0</ele><time>2026-04-12T13:52:21.998Z</time></trkpt><trkpt lat="44.9264767" lon="8.27706"><ele>195.0</ele><time>2026-04-12T13:52:22.996Z</time></trkpt><trkpt lat="44.92642" lon="8.2769333"><ele>195.0</ele><time>2026-04-12T13:52:24.002Z</time></trkpt><trkpt lat="44.9263683" lon="8.2768017"><ele>195.0</ele><time>2026-04-12T13:52:25Z</time></trkpt><trkpt lat="44.926335" lon="8.27667"><ele>195.0</ele><time>2026-04-12T13:52:25.997Z</time></trkpt><trkpt lat="44.9263083" lon="8.2765367"><ele>195.0</ele><time>2026-04-12T13:52:26.998Z</time></trkpt><trkpt lat="44.926275" lon="8.2764133"><ele>195.0</ele><time>2026-04-12T13:52:27.993Z</time></trkpt><trkpt lat="44.9262317" lon="8.2762967"><ele>194.2</ele><time>2026-04-12T13:52:28.998Z</time></trkpt><trkpt lat="44.9261783" lon="8.2762033"><ele>193.4</ele><time>2026-04-12T13:52:29.994Z</time></trkpt><trkpt lat="44.9261217" lon="8.276125"><ele>192.60000000000002</ele><time>2026-04-12T13:52:30.997Z</time></trkpt><trkpt lat="44.926025" lon="8.2761"><ele>191.8</ele><time>2026-04-12T13:52:31.996Z</time></trkpt><trkpt lat="44.9259317" lon="8.2760833"><ele>191.0</ele><time>2026-04-12T13:52:32.998Z</time></trkpt><trkpt lat="44.9258333" lon="8.2760817"><ele>190.25</ele><time>2026-04-12T13:52:33.998Z</time></trkpt><trkpt lat="44.9257083" lon="8.2761117"><ele>189.5</ele><time>2026-04-12T13:52:35.001Z</time></trkpt><trkpt lat="44.9255967" lon="8.276125"><ele>188.75</ele><time>2026-04-12T13:52:35.994Z</time></trkpt><trkpt lat="44.9254867" lon="8.2761333"><ele>188.0</ele><time>2026-04-12T13:52:36.996Z</time></trkpt><trkpt lat="44.9253783" lon="8.276155"><ele>188.0</ele><time>2026-04-12T13:52:37.997Z</time></trkpt><trkpt lat="44.9252717" lon="8.276185"><ele>188.0</ele><time>2026-04-12T13:52:39Z</time></trkpt><trkpt lat="44.9251717" lon="8.2762267"><ele>188.0</ele><time>2026-04-12T13:52:39.996Z</time></trkpt><trkpt lat="44.925075" lon="8.276275"><ele>188.0</ele><time>2026-04-12T13:52:40.995Z</time></trkpt><trkpt lat="44.9249767" lon="8.27633"><ele>188.0</ele><time>2026-04-12T13:52:41.995Z</time></trkpt><trkpt lat="44.9248783" lon="8.2763867"><ele>188.0</ele><time>2026-04-12T13:52:42.997Z</time></trkpt><trkpt lat="44.9247817" lon="8.2764367"><ele>188.0</ele><time>2026-04-12T13:52:43.997Z</time></trkpt><trkpt lat="44.92469" lon="8.276485"><ele>188.0</ele><time>2026-04-12T13:52:44.999Z</time></trkpt><trkpt lat="44.9246033" lon="8.2765367"><ele>188.0</ele><time>2026-04-12T13:52:45.998Z</time></trkpt><trkpt lat="44.9245183" lon="8.27658"><ele>188.0</ele><time>2026-04-12T13:52:46.998Z</time></trkpt><trkpt lat="44.924435" lon="8.2766133"><ele>188.0</ele><time>2026-04-12T13:52:47.996Z</time></trkpt><trkpt lat="44.9243483" lon="8.2766283"><ele>188.0</ele><time>2026-04-12T13:52:48.999Z</time></trkpt><trkpt lat="44.9242633" lon="8.27663"><ele>188.0</ele><time>2026-04-12T13:52:49.994Z</time></trkpt><trkpt lat="44.9241783" lon="8.2766117"><ele>188.0</ele><time>2026-04-12T13:52:50.999Z</time></trkpt><trkpt lat="44.9240917" lon="8.27657"><ele>188.0</ele><time>2026-04-12T13:52:51.994Z</time></trkpt><trkpt lat="44.92401" lon="8.2765433"><ele>188.0</ele><time>2026-04-12T13:52:52.998Z</time></trkpt><trkpt lat="44.9239317" lon="8.2765133"><ele>188.83333333333331</ele><time>2026-04-12T13:52:53.996Z</time></trkpt><trkpt lat="44.92385" lon="8.2765017"><ele>189.66666666666666</ele><time>2026-04-12T13:52:54.997Z</time></trkpt><trkpt lat="44.92377" lon="8.27651"><ele>190.5</ele><time>2026-04-12T13:52:55.992Z</time></trkpt><trkpt lat="44.92371" lon="8.276585"><ele>191.33333333333331</ele><time>2026-04-12T13:52:56.993Z</time></trkpt><trkpt lat="44.92366" lon="8.2766767"><ele>192.16666666666666</ele><time>2026-04-12T13:52:57.996Z</time></trkpt><trkpt lat="44.9236033" lon="8.2767617"><ele>193.0</ele><time>2026-04-12T13:52:58.995Z</time></trkpt><trkpt lat="44.9235383" lon="8.2768367"><ele>193.0</ele><time>2026-04-12T13:52:59.997Z</time></trkpt><trkpt lat="44.9234583" lon="8.27689"><ele>193.0</ele><time>2026-04-12T13:53:00.995Z</time></trkpt><trkpt lat="44.923375" lon="8.276935"><ele>193.0</ele><time>2026-04-12T13:53:01.994Z</time></trkpt><trkpt lat="44.9232717" lon="8.276945"><ele>193.0</ele><time>2026-04-12T13:53:03Z</time></trkpt><trkpt lat="44.923165" lon="8.2769383"><ele>193.0</ele><time>2026-04-12T13:53:03.993Z</time></trkpt><trkpt lat="44.9230617" lon="8.2769283"><ele>190.4</ele><time>2026-04-12T13:53:04.995Z</time></trkpt><trkpt lat="44.922955" lon="8.2769083"><ele>187.8</ele><time>2026-04-12T13:53:05.994Z</time></trkpt><trkpt lat="44.9228567" lon="8.2769067"><ele>185.2</ele><time>2026-04-12T13:53:06.995Z</time></trkpt><trkpt lat="44.922755" lon="8.2769117"><ele>182.6</ele><time>2026-04-12T13:53:07.996Z</time></trkpt><trkpt lat="44.9226533" lon="8.2769267"><ele>180.0</ele><time>2026-04-12T13:53:08.999Z</time></trkpt><trkpt lat="44.9225533" lon="8.2769533"><ele>178.16666666666666</ele><time>2026-04-12T13:53:10.002Z</time></trkpt><trkpt lat="44.9224533" lon="8.2769867"><ele>176.33333333333334</ele><time>2026-04-12T13:53:10.995Z</time></trkpt><trkpt lat="44.922365" lon="8.2770183"><ele>174.5</ele><time>2026-04-12T13:53:12.002Z</time></trkpt><trkpt lat="44.9222783" lon="8.2770417"><ele>172.66666666666669</ele><time>2026-04-12T13:53:12.995Z</time></trkpt><trkpt lat="44.9221967" lon="8.27706"><ele>170.83333333333334</ele><time>2026-04-12T13:53:13.998Z</time></trkpt><trkpt lat="44.9221217" lon="8.277085"><ele>169.0</ele><time>2026-04-12T13:53:15Z</time></trkpt><trkpt lat="44.9220533" lon="8.2771267"><ele>169.0</ele><time>2026-04-12T13:53:15.996Z</time></trkpt><trkpt lat="44.9219967" lon="8.2771917"><ele>169.0</ele><time>2026-04-12T13:53:16.995Z</time></trkpt><trkpt lat="44.9219533" lon="8.27728"><ele>169.0</ele><time>2026-04-12T13:53:18Z</time></trkpt><trkpt lat="44.9219317" lon="8.277385"><ele>169.0</ele><time>2026-04-12T13:53:18.998Z</time></trkpt><trkpt lat="44.9219117" lon="8.2774833"><ele>169.0</ele><time>2026-04-12T13:53:19.993Z</time></trkpt><trkpt lat="44.921855" lon="8.2775883"><ele>169.0</ele><time>2026-04-12T13:53:21.997Z</time></trkpt><trkpt lat="44.921805" lon="8.277525"><ele>169.0</ele><time>2026-04-12T13:53:23.996Z</time></trkpt><trkpt lat="44.92181" lon="8.2773733"><ele>169.0</ele><time>2026-04-12T13:53:25.993Z</time></trkpt><trkpt lat="44.9218367" lon="8.27727"><ele>169.0</ele><time>2026-04-12T13:53:26.993Z</time></trkpt><trkpt lat="44.9218717" lon="8.277155"><ele>169.0</ele><time>2026-04-12T13:53:27.997Z</time></trkpt><trkpt lat="44.9219033" lon="8.2770567"><ele>169.0</ele><time>2026-04-12T13:53:28.996Z</time></trkpt><trkpt lat="44.921925" lon="8.2768883"><ele>169.0</ele><time>2026-04-12T13:53:30.999Z</time></trkpt><trkpt lat="44.921865" lon="8.2767733"><ele>169.0</ele><time>2026-04-12T13:53:32.998Z</time></trkpt><trkpt lat="44.9217983" lon="8.27674"><ele>169.0</ele><time>2026-04-12T13:53:34Z</time></trkpt><trkpt lat="44.9217283" lon="8.2767117"><ele>169.0</ele><time>2026-04-12T13:53:34.994Z</time></trkpt><trkpt lat="44.9216633" lon="8.2766967"><ele>169.0</ele><time>2026-04-12T13:53:35.995Z</time></trkpt><trkpt lat="44.92157" lon="8.2767767"><ele>169.0</ele><time>2026-04-12T13:53:38.002Z</time></trkpt><trkpt lat="44.9215533" lon="8.2769367"><ele>168.33333333333334</ele><time>2026-04-12T13:53:40Z</time></trkpt><trkpt lat="44.9215783" lon="8.277025"><ele>167.66666666666669</ele><time>2026-04-12T13:53:40.999Z</time></trkpt><trkpt lat="44.9215883" lon="8.2771817"><ele>167.0</ele><time>2026-04-12T13:53:42.994Z</time></trkpt><trkpt lat="44.9215533" lon="8.2773017"><ele>166.33333333333334</ele><time>2026-04-12T13:53:45.003Z</time></trkpt><trkpt lat="44.9214617" lon="8.27734"><ele>165.66666666666666</ele><time>2026-04-12T13:53:46.995Z</time></trkpt><trkpt lat="44.921395" lon="8.277335"><ele>165.0</ele><time>2026-04-12T13:53:47.997Z</time></trkpt><trkpt lat="44.9213133" lon="8.2773083"><ele>165.0</ele><time>2026-04-12T13:53:48.997Z</time></trkpt><trkpt lat="44.9212267" lon="8.27728"><ele>165.0</ele><time>2026-04-12T13:53:49.997Z</time></trkpt><trkpt lat="44.9211433" lon="8.2772567"><ele>165.0</ele><time>2026-04-12T13:53:50.999Z</time></trkpt><trkpt lat="44.9210667" lon="8.2772367"><ele>165.0</ele><time>2026-04-12T13:53:51.999Z</time></trkpt><trkpt lat="44.9209917" lon="8.2772167"><ele>165.0</ele><time>2026-04-12T13:53:52.998Z</time></trkpt><trkpt lat="44.9209233" lon="8.277205"><ele>165.0</ele><time>2026-04-12T13:53:53.999Z</time></trkpt><trkpt lat="44.92086" lon="8.2771917"><ele>163.5</ele><time>2026-04-12T13:53:55.002Z</time></trkpt><trkpt lat="44.9207533" lon="8.27712"><ele>162.0</ele><time>2026-04-12T13:53:57.002Z</time></trkpt><trkpt lat="44.9207233" lon="8.2770083"><ele>160.5</ele><time>2026-04-12T13:53:58.998Z</time></trkpt><trkpt lat="44.9207867" lon="8.276935"><ele>159.0</ele><time>2026-04-12T13:54:00.996Z</time></trkpt><trkpt lat="44.920855" lon="8.2769517"><ele>157.5</ele><time>2026-04-12T13:54:02Z</time></trkpt><trkpt lat="44.9209183" lon="8.276965"><ele>156.0</ele><time>2026-04-12T13:54:02.998Z</time></trkpt><trkpt lat="44.9210317" lon="8.2769483"><ele>156.0</ele><time>2026-04-12T13:54:04.995Z</time></trkpt><trkpt lat="44.921075" lon="8.2768467"><ele>156.0</ele><time>2026-04-12T13:54:07.002Z</time></trkpt><trkpt lat="44.92103" lon="8.2767567"><ele>156.0</ele><time>2026-04-12T13:54:07.996Z</time></trkpt><trkpt lat="44.92099" lon="8.2766767"><ele>156.0</ele><time>2026-04-12T13:54:09Z</time></trkpt><trkpt lat="44.920935" lon="8.2765933"><ele>156.0</ele><time>2026-04-12T13:54:09.995Z</time></trkpt><trkpt lat="44.920865" lon="8.2765067"><ele>156.0</ele><time>2026-04-12T13:54:10.997Z</time></trkpt><trkpt lat="44.9208" lon="8.2764183"><ele>153.85714285714286</ele><time>2026-04-12T13:54:11.994Z</time></trkpt><trkpt lat="44.9207483" lon="8.2763383"><ele>151.7142857142857</ele><time>2026-04-12T13:54:12.997Z</time></trkpt><trkpt lat="44.920695" lon="8.276265"><ele>149.57142857142856</ele><time>2026-04-12T13:54:13.996Z</time></trkpt><trkpt lat="44.9206367" lon="8.2762217"><ele>147.42857142857144</ele><time>2026-04-12T13:54:14.997Z</time></trkpt><trkpt lat="44.9205667" lon="8.2761967"><ele>145.28571428571428</ele><time>2026-04-12T13:54:15.995Z</time></trkpt><trkpt lat="44.920495" lon="8.276205"><ele>143.14285714285714</ele><time>2026-04-12T13:54:16.995Z</time></trkpt><trkpt lat="44.920435" lon="8.276265"><ele>141.0</ele><time>2026-04-12T13:54:18Z</time></trkpt><trkpt lat="44.920375" lon="8.276325"><ele>141.0</ele><time>2026-04-12T13:54:18.994Z</time></trkpt><trkpt lat="44.920315" lon="8.2763833"><ele>141.0</ele><time>2026-04-12T13:54:19.999Z</time></trkpt><trkpt lat="44.9202567" lon="8.2764433"><ele>141.0</ele><time>2026-04-12T13:54:20.994Z</time></trkpt><trkpt lat="44.9201917" lon="8.276485"><ele>141.0</ele><time>2026-04-12T13:54:21.997Z</time></trkpt><trkpt lat="44.9201267" lon="8.2765167"><ele>141.0</ele><time>2026-04-12T13:54:22.995Z</time></trkpt><trkpt lat="44.92006" lon="8.2765367"><ele>141.0</ele><time>2026-04-12T13:54:23.995Z</time></trkpt><trkpt lat="44.9199383" lon="8.276525"><ele>140.0</ele><time>2026-04-12T13:54:25.995Z</time></trkpt><trkpt lat="44.9198883" lon="8.2764567"><ele>139.0</ele><time>2026-04-12T13:54:26.998Z</time></trkpt><trkpt lat="44.91984" lon="8.27638"><ele>138.0</ele><time>2026-04-12T13:54:27.994Z</time></trkpt><trkpt lat="44.919795" lon="8.276285"><ele>137.0</ele><time>2026-04-12T13:54:29.001Z</time></trkpt><trkpt lat="44.9197617" lon="8.2761367"><ele>136.0</ele><time>2026-04-12T13:54:29.996Z</time></trkpt><trkpt lat="44.91974" lon="8.2759767"><ele>135.0</ele><time>2026-04-12T13:54:30.998Z</time></trkpt><trkpt lat="44.919715" lon="8.27583"><ele>134.16666666666666</ele><time>2026-04-12T13:54:31.993Z</time></trkpt><trkpt lat="44.9196967" lon="8.2756933"><ele>133.33333333333334</ele><time>2026-04-12T13:54:32.995Z</time></trkpt><trkpt lat="44.91968" lon="8.2755733"><ele>132.5</ele><time>2026-04-12T13:54:33.995Z</time></trkpt><trkpt lat="44.9196617" lon="8.2754567"><ele>131.66666666666669</ele><time>2026-04-12T13:54:34.995Z</time></trkpt><trkpt lat="44.91965" lon="8.2753433"><ele>130.83333333333334</ele><time>2026-04-12T13:54:36.001Z</time></trkpt><trkpt lat="44.919635" lon="8.27524"><ele>130.0</ele><time>2026-04-12T13:54:36.998Z</time></trkpt><trkpt lat="44.91962" lon="8.2751467"><ele>129.33333333333334</ele><time>2026-04-12T13:54:37.999Z</time></trkpt><trkpt lat="44.9196033" lon="8.2750133"><ele>128.66666666666669</ele><time>2026-04-12T13:54:39.997Z</time></trkpt><trkpt lat="44.9195683" lon="8.274915"><ele>128.0</ele><time>2026-04-12T13:54:55.997Z</time></trkpt><trkpt lat="44.919495" lon="8.274905"><ele>127.33333333333334</ele><time>2026-04-12T13:54:57Z</time></trkpt><trkpt lat="44.9194067" lon="8.274905"><ele>126.66666666666667</ele><time>2026-04-12T13:54:57.992Z</time></trkpt><trkpt lat="44.919305" lon="8.2749017"><ele>126.0</ele><time>2026-04-12T13:54:58.996Z</time></trkpt><trkpt lat="44.919175" lon="8.2748867"><ele>125.33333333333334</ele><time>2026-04-12T13:55:00.001Z</time></trkpt><trkpt lat="44.919025" lon="8.27487"><ele>124.66666666666667</ele><time>2026-04-12T13:55:00.992Z</time></trkpt><trkpt lat="44.9188533" lon="8.2748567"><ele>124.0</ele><time>2026-04-12T13:55:02.001Z</time></trkpt><trkpt lat="44.9186767" lon="8.274855"><ele>124.0</ele><time>2026-04-12T13:55:02.999Z</time></trkpt><trkpt lat="44.918505" lon="8.2748583"><ele>124.0</ele><time>2026-04-12T13:55:03.995Z</time></trkpt><trkpt lat="44.918335" lon="8.2748517"><ele>124.0</ele><time>2026-04-12T13:55:04.996Z</time></trkpt><trkpt lat="44.918175" lon="8.2748217"><ele>124.66666666666667</ele><time>2026-04-12T13:55:05.994Z</time></trkpt><trkpt lat="44.9180183" lon="8.274765"><ele>125.33333333333334</ele><time>2026-04-12T13:55:06.997Z</time></trkpt><trkpt lat="44.9178633" lon="8.2746933"><ele>126.0</ele><time>2026-04-12T13:55:07.998Z</time></trkpt><trkpt lat="44.9177017" lon="8.2746267"><ele>126.66666666666666</ele><time>2026-04-12T13:55:08.996Z</time></trkpt><trkpt lat="44.9175417" lon="8.2745567"><ele>127.33333333333333</ele><time>2026-04-12T13:55:09.996Z</time></trkpt><trkpt lat="44.9173817" lon="8.2744983"><ele>128.0</ele><time>2026-04-12T13:55:11.003Z</time></trkpt><trkpt lat="44.917215" lon="8.27446"><ele>128.0</ele><time>2026-04-12T13:55:11.995Z</time></trkpt><trkpt lat="44.9170483" lon="8.2744317"><ele>128.0</ele><time>2026-04-12T13:55:13.002Z</time></trkpt><trkpt lat="44.9168683" lon="8.2744083"><ele>128.0</ele><time>2026-04-12T13:55:14.001Z</time></trkpt><trkpt lat="44.916685" lon="8.27439"><ele>126.33333333333333</ele><time>2026-04-12T13:55:15Z</time></trkpt><trkpt lat="44.9165117" lon="8.2743433"><ele>124.66666666666666</ele><time>2026-04-12T13:55:15.996Z</time></trkpt><trkpt lat="44.9163283" lon="8.2743117"><ele>123.0</ele><time>2026-04-12T13:55:17Z</time></trkpt><trkpt lat="44.9161483" lon="8.27428"><ele>123.0</ele><time>2026-04-12T13:55:18.003Z</time></trkpt><trkpt lat="44.91597" lon="8.2742417"><ele>123.0</ele><time>2026-04-12T13:55:19Z</time></trkpt><trkpt lat="44.9157917" lon="8.274205"><ele>123.0</ele><time>2026-04-12T13:55:19.998Z</time></trkpt><trkpt lat="44.9156117" lon="8.274175"><ele>123.33333333333334</ele><time>2026-04-12T13:55:20.999Z</time></trkpt><trkpt lat="44.9154283" lon="8.2741517"><ele>123.66666666666667</ele><time>2026-04-12T13:55:21.996Z</time></trkpt><trkpt lat="44.91525" lon="8.2741433"><ele>124.0</ele><time>2026-04-12T13:55:23.001Z</time></trkpt><trkpt lat="44.9150717" lon="8.2741567"><ele>123.66666666666667</ele><time>2026-04-12T13:55:23.999Z</time></trkpt><trkpt lat="44.9148983" lon="8.2741917"><ele>123.33333333333334</ele><time>2026-04-12T13:55:25Z</time></trkpt><trkpt lat="44.9147283" lon="8.2742367"><ele>123.0</ele><time>2026-04-12T13:55:25.999Z</time></trkpt><trkpt lat="44.91456" lon="8.2742883"><ele>123.0</ele><time>2026-04-12T13:55:26.996Z</time></trkpt><trkpt lat="44.914395" lon="8.2743383"><ele>123.0</ele><time>2026-04-12T13:55:27.998Z</time></trkpt><trkpt lat="44.914235" lon="8.27439"><ele>123.0</ele><time>2026-04-12T13:55:28.996Z</time></trkpt><trkpt lat="44.9140783" lon="8.2744567"><ele>122.66666666666666</ele><time>2026-04-12T13:55:29.996Z</time></trkpt><trkpt lat="44.9139267" lon="8.2745467"><ele>122.33333333333333</ele><time>2026-04-12T13:55:30.997Z</time></trkpt><trkpt lat="44.9137833" lon="8.2746417"><ele>122.0</ele><time>2026-04-12T13:55:31.994Z</time></trkpt><trkpt lat="44.9136467" lon="8.2747317"><ele>122.0</ele><time>2026-04-12T13:55:32.998Z</time></trkpt><trkpt lat="44.9135183" lon="8.274815"><ele>122.0</ele><time>2026-04-12T13:55:33.997Z</time></trkpt><trkpt lat="44.9133933" lon="8.2748867"><ele>122.0</ele><time>2026-04-12T13:55:34.998Z</time></trkpt><trkpt lat="44.9132667" lon="8.274945"><ele>122.0</ele><time>2026-04-12T13:55:35.996Z</time></trkpt><trkpt lat="44.9131283" lon="8.2749933"><ele>122.0</ele><time>2026-04-12T13:55:36.994Z</time></trkpt><trkpt lat="44.9129917" lon="8.27505"><ele>122.0</ele><time>2026-04-12T13:55:38Z</time></trkpt><trkpt lat="44.9128483" lon="8.2751"><ele>122.0</ele><time>2026-04-12T13:55:38.995Z</time></trkpt><trkpt lat="44.9127" lon="8.2751267"><ele>122.0</ele><time>2026-04-12T13:55:39.998Z</time></trkpt><trkpt lat="44.9125417" lon="8.2751283"><ele>121.66666666666666</ele><time>2026-04-12T13:55:40.998Z</time></trkpt><trkpt lat="44.9123917" lon="8.2751033"><ele>121.33333333333334</ele><time>2026-04-12T13:55:41.998Z</time></trkpt><trkpt lat="44.9122417" lon="8.2750583"><ele>121.0</ele><time>2026-04-12T13:55:42.997Z</time></trkpt><trkpt lat="44.9120933" lon="8.275005"><ele>121.0</ele><time>2026-04-12T13:55:43.995Z</time></trkpt><trkpt lat="44.9119517" lon="8.274955"><ele>121.0</ele><time>2026-04-12T13:55:44.998Z</time></trkpt><trkpt lat="44.9118333" lon="8.2748917"><ele>121.0</ele><time>2026-04-12T13:55:45.994Z</time></trkpt><trkpt lat="44.9117333" lon="8.274805"><ele>121.0</ele><time>2026-04-12T13:55:46.997Z</time></trkpt><trkpt lat="44.911645" lon="8.2747067"><ele>121.50000000000001</ele><time>2026-04-12T13:55:47.999Z</time></trkpt><trkpt lat="44.9115617" lon="8.2746133"><ele>122.0</ele><time>2026-04-12T13:55:49.001Z</time></trkpt><trkpt lat="44.9115" lon="8.2745533"><ele>122.5</ele><time>2026-04-12T13:55:49.995Z</time></trkpt><trkpt lat="44.9114667" lon="8.27447"><ele>123.0</ele><time>2026-04-12T13:55:51.996Z</time></trkpt><trkpt lat="44.9115417" lon="8.2743917"><ele>123.50000000000001</ele><time>2026-04-12T13:55:54.996Z</time></trkpt><trkpt lat="44.9116133" lon="8.2743483"><ele>124.0</ele><time>2026-04-12T13:55:55.996Z</time></trkpt><trkpt lat="44.9117" lon="8.2743067"><ele>124.0</ele><time>2026-04-12T13:55:56.997Z</time></trkpt><trkpt lat="44.9117917" lon="8.2742533"><ele>124.0</ele><time>2026-04-12T13:55:57.995Z</time></trkpt><trkpt lat="44.91189" lon="8.27422"><ele>124.0</ele><time>2026-04-12T13:55:58.993Z</time></trkpt><trkpt lat="44.9119967" lon="8.27421"><ele>124.0</ele><time>2026-04-12T13:56:00.001Z</time></trkpt><trkpt lat="44.912105" lon="8.2742"><ele>124.0</ele><time>2026-04-12T13:56:00.995Z</time></trkpt><trkpt lat="44.9122183" lon="8.2741917"><ele>124.0</ele><time>2026-04-12T13:56:01.995Z</time></trkpt><trkpt lat="44.912335" lon="8.2741917"><ele>124.0</ele><time>2026-04-12T13:56:02.998Z</time></trkpt><trkpt lat="44.912455" lon="8.2742117"><ele>124.0</ele><time>2026-04-12T13:56:03.995Z</time></trkpt><trkpt lat="44.9125717" lon="8.2742333"><ele>124.0</ele><time>2026-04-12T13:56:04.997Z</time></trkpt><trkpt lat="44.91269" lon="8.274245"><ele>123.80000000000001</ele><time>2026-04-12T13:56:05.993Z</time></trkpt><trkpt lat="44.9128067" lon="8.2742533"><ele>123.60000000000001</ele><time>2026-04-12T13:56:06.996Z</time></trkpt><trkpt lat="44.91292" lon="8.2742483"><ele>123.4</ele><time>2026-04-12T13:56:07.999Z</time></trkpt><trkpt lat="44.9130267" lon="8.2742317"><ele>123.2</ele><time>2026-04-12T13:56:08.998Z</time></trkpt><trkpt lat="44.91313" lon="8.2741967"><ele>123.0</ele><time>2026-04-12T13:56:09.996Z</time></trkpt><trkpt lat="44.913225" lon="8.2741317"><ele>123.0</ele><time>2026-04-12T13:56:10.996Z</time></trkpt><trkpt lat="44.91332" lon="8.2740217"><ele>123.0</ele><time>2026-04-12T13:56:11.996Z</time></trkpt><trkpt lat="44.9134133" lon="8.2739"><ele>123.0</ele><time>2026-04-12T13:56:12.994Z</time></trkpt><trkpt lat="44.91351" lon="8.2737767"><ele>123.0</ele><time>2026-04-12T13:56:13.996Z</time></trkpt><trkpt lat="44.9136167" lon="8.2736733"><ele>123.25</ele><time>2026-04-12T13:56:14.996Z</time></trkpt><trkpt lat="44.9137233" lon="8.273545"><ele>123.5</ele><time>2026-04-12T13:56:15.994Z</time></trkpt><trkpt lat="44.9138283" lon="8.27343"><ele>123.75</ele><time>2026-04-12T13:56:16.997Z</time></trkpt><trkpt lat="44.91393" lon="8.2733133"><ele>124.0</ele><time>2026-04-12T13:56:18Z</time></trkpt><trkpt lat="44.9140317" lon="8.2732"><ele>124.75</ele><time>2026-04-12T13:56:18.997Z</time></trkpt><trkpt lat="44.9141367" lon="8.273105"><ele>125.5</ele><time>2026-04-12T13:56:19.996Z</time></trkpt><trkpt lat="44.9142467" lon="8.27302"><ele>126.25</ele><time>2026-04-12T13:56:20.996Z</time></trkpt><trkpt lat="44.914365" lon="8.2729467"><ele>127.0</ele><time>2026-04-12T13:56:22.002Z</time></trkpt><trkpt lat="44.9144867" lon="8.2728833"><ele>127.5</ele><time>2026-04-12T13:56:22.997Z</time></trkpt><trkpt lat="44.9146133" lon="8.2728233"><ele>128.0</ele><time>2026-04-12T13:56:23.998Z</time></trkpt><trkpt lat="44.9147467" lon="8.2727617"><ele>128.5</ele><time>2026-04-12T13:56:25Z</time></trkpt><trkpt lat="44.914885" lon="8.2727133"><ele>129.0</ele><time>2026-04-12T13:56:25.997Z</time></trkpt><trkpt lat="44.91502" lon="8.2726667"><ele>128.75</ele><time>2026-04-12T13:56:27.002Z</time></trkpt><trkpt lat="44.9151583" lon="8.27262"><ele>128.5</ele><time>2026-04-12T13:56:27.997Z</time></trkpt><trkpt lat="44.915295" lon="8.2725667"><ele>128.25</ele><time>2026-04-12T13:56:28.997Z</time></trkpt><trkpt lat="44.9154333" lon="8.2725133"><ele>128.0</ele><time>2026-04-12T13:56:29.997Z</time></trkpt><trkpt lat="44.91557" lon="8.2724467"><ele>128.0</ele><time>2026-04-12T13:56:30.994Z</time></trkpt><trkpt lat="44.9157" lon="8.2723817"><ele>128.0</ele><time>2026-04-12T13:56:31.994Z</time></trkpt><trkpt lat="44.9158267" lon="8.27231"><ele>128.0</ele><time>2026-04-12T13:56:32.998Z</time></trkpt><trkpt lat="44.9159517" lon="8.2722467"><ele>128.0</ele><time>2026-04-12T13:56:33.997Z</time></trkpt><trkpt lat="44.9160667" lon="8.2722033"><ele>129.0</ele><time>2026-04-12T13:56:34.995Z</time></trkpt><trkpt lat="44.91617" lon="8.2721717"><ele>130.0</ele><time>2026-04-12T13:56:35.997Z</time></trkpt><trkpt lat="44.916255" lon="8.2721583"><ele>131.0</ele><time>2026-04-12T13:56:37Z</time></trkpt><trkpt lat="44.91633" lon="8.2721533"><ele>132.0</ele><time>2026-04-12T13:56:37.996Z</time></trkpt><trkpt lat="44.9164" lon="8.2721567"><ele>133.0</ele><time>2026-04-12T13:56:38.996Z</time></trkpt><trkpt lat="44.9164717" lon="8.27217"><ele>134.0</ele><time>2026-04-12T13:56:39.994Z</time></trkpt><trkpt lat="44.9165433" lon="8.2721833"><ele>134.0</ele><time>2026-04-12T13:56:40.997Z</time></trkpt><trkpt lat="44.9166267" lon="8.2721967"><ele>134.0</ele><time>2026-04-12T13:56:41.996Z</time></trkpt><trkpt lat="44.916705" lon="8.2722283"><ele>134.0</ele><time>2026-04-12T13:56:42.994Z</time></trkpt><trkpt lat="44.916785" lon="8.2722767"><ele>134.0</ele><time>2026-04-12T13:56:43.995Z</time></trkpt><trkpt lat="44.9168633" lon="8.2723433"><ele>134.0</ele><time>2026-04-12T13:56:45Z</time></trkpt><trkpt lat="44.9169483" lon="8.2724133"><ele>134.0</ele><time>2026-04-12T13:56:45.995Z</time></trkpt><trkpt lat="44.9170467" lon="8.2724833"><ele>132.6</ele><time>2026-04-12T13:56:46.998Z</time></trkpt><trkpt lat="44.9171417" lon="8.272545"><ele>131.2</ele><time>2026-04-12T13:56:47.997Z</time></trkpt><trkpt lat="44.9172333" lon="8.272595"><ele>129.79999999999998</ele><time>2026-04-12T13:56:48.994Z</time></trkpt><trkpt lat="44.9173267" lon="8.2726483"><ele>128.4</ele><time>2026-04-12T13:56:49.997Z</time></trkpt><trkpt lat="44.9174217" lon="8.2726983"><ele>127.0</ele><time>2026-04-12T13:56:50.993Z</time></trkpt><trkpt lat="44.9175133" lon="8.2727433"><ele>127.19999999999999</ele><time>2026-04-12T13:56:51.999Z</time></trkpt><trkpt lat="44.9176067" lon="8.2727883"><ele>127.39999999999999</ele><time>2026-04-12T13:56:52.995Z</time></trkpt><trkpt lat="44.9177017" lon="8.272825"><ele>127.60000000000001</ele><time>2026-04-12T13:56:53.995Z</time></trkpt><trkpt lat="44.9178033" lon="8.272855"><ele>127.80000000000001</ele><time>2026-04-12T13:56:54.993Z</time></trkpt><trkpt lat="44.9179017" lon="8.2728767"><ele>128.0</ele><time>2026-04-12T13:56:56.003Z</time></trkpt><trkpt lat="44.9179967" lon="8.27289"><ele>127.99999999999999</ele><time>2026-04-12T13:56:56.997Z</time></trkpt><trkpt lat="44.9180883" lon="8.2728917"><ele>128.0</ele><time>2026-04-12T13:56:57.994Z</time></trkpt><trkpt lat="44.918175" lon="8.2728883"><ele>128.0</ele><time>2026-04-12T13:56:58.995Z</time></trkpt><trkpt lat="44.9182517" lon="8.272885"><ele>128.0</ele><time>2026-04-12T13:56:59.994Z</time></trkpt><trkpt lat="44.9183217" lon="8.272885"><ele>127.99999999999999</ele><time>2026-04-12T13:57:00.992Z</time></trkpt><trkpt lat="44.9184233" lon="8.2728717"><ele>128.0</ele><time>2026-04-12T13:57:02.999Z</time></trkpt><trkpt lat="44.918475" lon="8.2728133"><ele>128.6</ele><time>2026-04-12T13:57:04.996Z</time></trkpt><trkpt lat="44.9184783" lon="8.27269"><ele>129.20000000000002</ele><time>2026-04-12T13:57:06.999Z</time></trkpt><trkpt lat="44.91848" lon="8.2725367"><ele>129.8</ele><time>2026-04-12T13:57:08.999Z</time></trkpt><trkpt lat="44.9185" lon="8.2724517"><ele>130.4</ele><time>2026-04-12T13:57:10.996Z</time></trkpt><trkpt lat="44.9186" lon="8.2723583"><ele>131.0</ele><time>2026-04-12T13:57:36.996Z</time></trkpt><trkpt lat="44.9186667" lon="8.27232"><ele>131.0</ele><time>2026-04-12T13:57:38.996Z</time></trkpt><trkpt lat="44.918725" lon="8.2722367"><ele>140.0</ele><time>2026-04-12T13:57:41.995Z</time></trkpt><trkpt lat="44.9187417" lon="8.272145"><ele>140.0</ele><time>2026-04-12T13:57:44.999Z</time></trkpt></trkseg></trk></gpx>